<?xml version='1.0' encoding='UTF-8'?><gpx version="1.1" creator="JPX - https://github.com/jenetics/jpx" xmlns="http://www.topografix.com/GPX/1/1"><trk><trkseg><trkpt lat="46.1091942" lon="11.3031911"><ele>945.9999999999999</ele><time>2026-04-26T12:54:32.038Z</time></trkpt><trkpt lat="46.1091293" lon="11.3032693"><ele>946.0</ele><time>2026-04-26T12:54:34.038Z</time></trkpt><trkpt lat="46.1090793" lon="11.3033422"><ele>946.0</ele><time>2026-04-26T12:54:37.038Z</time></trkpt><trkpt lat="46.1090921" lon="11.303441"><ele>946.0</ele><time>2026-04-26T12:54:40.038Z</time></trkpt><trkpt lat="46.1091728" lon="11.3035033"><ele>945.9999999999999</ele><time>2026-04-26T12:54:42.038Z</time></trkpt><trkpt lat="46.1092785" lon="11.3035898"><ele>946.0</ele><time>2026-04-26T12:54:44.038Z</time></trkpt><trkpt lat="46.1093376" lon="11.3036314"><ele>946.0</ele><time>2026-04-26T12:54:45.038Z</time></trkpt><trkpt lat="46.1093985" lon="11.3036719"><ele>946.0</ele><time>2026-04-26T12:54:46.038Z</time></trkpt><trkpt lat="46.1094661" lon="11.3037194"><ele>946.0</ele><time>2026-04-26T12:54:47.038Z</time></trkpt><trkpt lat="46.1095327" lon="11.3037653"><ele>946.0</ele><time>2026-04-26T12:54:48.038Z</time></trkpt><trkpt lat="46.109598" lon="11.3038115"><ele>946.0</ele><time>2026-04-26T12:54:49.038Z</time></trkpt><trkpt lat="46.1096624" lon="11.3038602"><ele>946.0</ele><time>2026-04-26T12:54:50.038Z</time></trkpt><trkpt lat="46.1097306" lon="11.303911"><ele>946.0</ele><time>2026-04-26T12:54:51.038Z</time></trkpt><trkpt lat="46.1098004" lon="11.3039631"><ele>944.6666666666666</ele><time>2026-04-26T12:54:52.038Z</time></trkpt><trkpt lat="46.1098694" lon="11.3040228"><ele>943.3333333333333</ele><time>2026-04-26T12:54:53.038Z</time></trkpt><trkpt lat="46.1099391" lon="11.3040878"><ele>942.0</ele><time>2026-04-26T12:54:54.038Z</time></trkpt><trkpt lat="46.110005" lon="11.3041678"><ele>940.6666666666667</ele><time>2026-04-26T12:54:55.038Z</time></trkpt><trkpt lat="46.1100669" lon="11.3042496"><ele>939.3333333333334</ele><time>2026-04-26T12:54:56.038Z</time></trkpt><trkpt lat="46.1101335" lon="11.3043281"><ele>938.0</ele><time>2026-04-26T12:54:57.038Z</time></trkpt><trkpt lat="46.1102009" lon="11.3044099"><ele>940.5999999999999</ele><time>2026-04-26T12:54:58.039Z</time></trkpt><trkpt lat="46.1102735" lon="11.304497"><ele>943.1999999999999</ele><time>2026-04-26T12:54:59.038Z</time></trkpt><trkpt lat="46.110347" lon="11.3045887"><ele>945.8</ele><time>2026-04-26T12:55:00.038Z</time></trkpt><trkpt lat="46.1104117" lon="11.3046876"><ele>948.4</ele><time>2026-04-26T12:55:01.038Z</time></trkpt><trkpt lat="46.1104815" lon="11.3047794"><ele>951.0</ele><time>2026-04-26T12:55:02.038Z</time></trkpt><trkpt lat="46.1105558" lon="11.3048723"><ele>951.0</ele><time>2026-04-26T12:55:03.038Z</time></trkpt><trkpt lat="46.110629" lon="11.304964"><ele>950.9999999999999</ele><time>2026-04-26T12:55:04.038Z</time></trkpt><trkpt lat="46.1107038" lon="11.3050602"><ele>950.9999999999999</ele><time>2026-04-26T12:55:05.038Z</time></trkpt><trkpt lat="46.1107787" lon="11.3051566"><ele>951.0</ele><time>2026-04-26T12:55:06.038Z</time></trkpt><trkpt lat="46.1108527" lon="11.3052532"><ele>951.0</ele><time>2026-04-26T12:55:07.038Z</time></trkpt><trkpt lat="46.1109286" lon="11.3053481"><ele>952.8</ele><time>2026-04-26T12:55:08.038Z</time></trkpt><trkpt lat="46.1110035" lon="11.3054497"><ele>954.5999999999999</ele><time>2026-04-26T12:55:09.038Z</time></trkpt><trkpt lat="46.111084" lon="11.3055484"><ele>956.4</ele><time>2026-04-26T12:55:10.038Z</time></trkpt><trkpt lat="46.1111633" lon="11.3056505"><ele>958.2</ele><time>2026-04-26T12:55:11.038Z</time></trkpt><trkpt lat="46.1112433" lon="11.3057565"><ele>960.0</ele><time>2026-04-26T12:55:12.038Z</time></trkpt><trkpt lat="46.1113288" lon="11.3058668"><ele>960.0</ele><time>2026-04-26T12:55:13.039Z</time></trkpt><trkpt lat="46.111407" lon="11.3059911"><ele>960.0</ele><time>2026-04-26T12:55:14.038Z</time></trkpt><trkpt lat="46.1114828" lon="11.3061176"><ele>960.0</ele><time>2026-04-26T12:55:15.038Z</time></trkpt><trkpt lat="46.1115614" lon="11.3062353"><ele>960.0</ele><time>2026-04-26T12:55:16.038Z</time></trkpt><trkpt lat="46.1116363" lon="11.3063605"><ele>964.0</ele><time>2026-04-26T12:55:17.038Z</time></trkpt><trkpt lat="46.1117157" lon="11.3064861"><ele>968.0</ele><time>2026-04-26T12:55:18.038Z</time></trkpt><trkpt lat="46.111798" lon="11.3066125"><ele>972.0</ele><time>2026-04-26T12:55:19.038Z</time></trkpt><trkpt lat="46.1118747" lon="11.3067395"><ele>976.0</ele><time>2026-04-26T12:55:20.038Z</time></trkpt><trkpt lat="46.1119519" lon="11.3068762"><ele>976.0</ele><time>2026-04-26T12:55:21.038Z</time></trkpt><trkpt lat="46.1120308" lon="11.307011"><ele>976.0</ele><time>2026-04-26T12:55:22.038Z</time></trkpt><trkpt lat="46.1121098" lon="11.3071467"><ele>976.0</ele><time>2026-04-26T12:55:23.038Z</time></trkpt><trkpt lat="46.1121905" lon="11.307284"><ele>976.0</ele><time>2026-04-26T12:55:24.038Z</time></trkpt><trkpt lat="46.1122718" lon="11.3074243"><ele>974.5</ele><time>2026-04-26T12:55:25.038Z</time></trkpt><trkpt lat="46.1123562" lon="11.3075673"><ele>973.0</ele><time>2026-04-26T12:55:26.038Z</time></trkpt><trkpt lat="46.112439" lon="11.3077093"><ele>971.5</ele><time>2026-04-26T12:55:27.039Z</time></trkpt><trkpt lat="46.1125193" lon="11.3078486"><ele>970.0</ele><time>2026-04-26T12:55:28.038Z</time></trkpt><trkpt lat="46.1126045" lon="11.3079912"><ele>973.0</ele><time>2026-04-26T12:55:29.038Z</time></trkpt><trkpt lat="46.1126906" lon="11.3081325"><ele>976.0</ele><time>2026-04-26T12:55:30.039Z</time></trkpt><trkpt lat="46.1127759" lon="11.3082694"><ele>979.0</ele><time>2026-04-26T12:55:31.038Z</time></trkpt><trkpt lat="46.1128579" lon="11.3084111"><ele>982.0</ele><time>2026-04-26T12:55:32.038Z</time></trkpt><trkpt lat="46.1129253" lon="11.3085585"><ele>982.0</ele><time>2026-04-26T12:55:33.038Z</time></trkpt><trkpt lat="46.1129765" lon="11.30872"><ele>982.0</ele><time>2026-04-26T12:55:34.038Z</time></trkpt><trkpt lat="46.1130121" lon="11.3088923"><ele>982.0</ele><time>2026-04-26T12:55:35.038Z</time></trkpt><trkpt lat="46.1130219" lon="11.3090643"><ele>982.0</ele><time>2026-04-26T12:55:36.038Z</time></trkpt><trkpt lat="46.1130304" lon="11.3092388"><ele>982.4000000000001</ele><time>2026-04-26T12:55:37.038Z</time></trkpt><trkpt lat="46.1130442" lon="11.3094049"><ele>982.8000000000001</ele><time>2026-04-26T12:55:38.038Z</time></trkpt><trkpt lat="46.1130667" lon="11.309561"><ele>983.2</ele><time>2026-04-26T12:55:39.038Z</time></trkpt><trkpt lat="46.1131076" lon="11.3096831"><ele>983.6</ele><time>2026-04-26T12:55:40.038Z</time></trkpt><trkpt lat="46.1131673" lon="11.3097782"><ele>984.0</ele><time>2026-04-26T12:55:41.038Z</time></trkpt><trkpt lat="46.1132401" lon="11.3098263"><ele>987.5</ele><time>2026-04-26T12:55:42.039Z</time></trkpt><trkpt lat="46.1133247" lon="11.3098413"><ele>991.0</ele><time>2026-04-26T12:55:43.038Z</time></trkpt><trkpt lat="46.1134011" lon="11.3098152"><ele>994.5</ele><time>2026-04-26T12:55:44.038Z</time></trkpt><trkpt lat="46.1134818" lon="11.3097686"><ele>998.0</ele><time>2026-04-26T12:55:45.038Z</time></trkpt><trkpt lat="46.1135585" lon="11.3096812"><ele>1001.5</ele><time>2026-04-26T12:55:46.038Z</time></trkpt><trkpt lat="46.1136041" lon="11.3095699"><ele>1005.0</ele><time>2026-04-26T12:55:47.038Z</time></trkpt><trkpt lat="46.1136272" lon="11.3094273"><ele>1005.0</ele><time>2026-04-26T12:55:48.038Z</time></trkpt><trkpt lat="46.1136376" lon="11.3092675"><ele>1005.0</ele><time>2026-04-26T12:55:49.038Z</time></trkpt><trkpt lat="46.1136443" lon="11.3091079"><ele>1005.0</ele><time>2026-04-26T12:55:50.038Z</time></trkpt><trkpt lat="46.1136536" lon="11.308942"><ele>1005.0</ele><time>2026-04-26T12:55:51.038Z</time></trkpt><trkpt lat="46.1136665" lon="11.3087667"><ele>1005.25</ele><time>2026-04-26T12:55:52.038Z</time></trkpt><trkpt lat="46.1136777" lon="11.3085922"><ele>1005.5</ele><time>2026-04-26T12:55:53.038Z</time></trkpt><trkpt lat="46.1136887" lon="11.3084201"><ele>1005.75</ele><time>2026-04-26T12:55:54.038Z</time></trkpt><trkpt lat="46.1137014" lon="11.3082405"><ele>1006.0</ele><time>2026-04-26T12:55:55.038Z</time></trkpt><trkpt lat="46.1137182" lon="11.3080539"><ele>1007.0</ele><time>2026-04-26T12:55:56.038Z</time></trkpt><trkpt lat="46.1137314" lon="11.307877"><ele>1008.0</ele><time>2026-04-26T12:55:57.038Z</time></trkpt><trkpt lat="46.1137391" lon="11.3076939"><ele>1009.0</ele><time>2026-04-26T12:55:58.038Z</time></trkpt><trkpt lat="46.1137355" lon="11.3075159"><ele>1010.0</ele><time>2026-04-26T12:55:59.038Z</time></trkpt><trkpt lat="46.1137221" lon="11.3073306"><ele>1011.5</ele><time>2026-04-26T12:56:00.038Z</time></trkpt><trkpt lat="46.1136956" lon="11.3071445"><ele>1013.0</ele><time>2026-04-26T12:56:01.038Z</time></trkpt><trkpt lat="46.1136574" lon="11.3069584"><ele>1014.5</ele><time>2026-04-26T12:56:02.038Z</time></trkpt><trkpt lat="46.1136125" lon="11.3067773"><ele>1016.0</ele><time>2026-04-26T12:56:03.038Z</time></trkpt><trkpt lat="46.1135627" lon="11.3065951"><ele>1016.0</ele><time>2026-04-26T12:56:04.038Z</time></trkpt><trkpt lat="46.1135117" lon="11.3064136"><ele>1016.0</ele><time>2026-04-26T12:56:05.038Z</time></trkpt><trkpt lat="46.1134606" lon="11.3062361"><ele>1016.0</ele><time>2026-04-26T12:56:06.038Z</time></trkpt><trkpt lat="46.1134065" lon="11.3060563"><ele>1016.0</ele><time>2026-04-26T12:56:07.038Z</time></trkpt><trkpt lat="46.1133496" lon="11.3058847"><ele>1017.5</ele><time>2026-04-26T12:56:08.038Z</time></trkpt><trkpt lat="46.1132876" lon="11.3057204"><ele>1019.0</ele><time>2026-04-26T12:56:09.038Z</time></trkpt><trkpt lat="46.1132205" lon="11.3055667"><ele>1020.5</ele><time>2026-04-26T12:56:10.039Z</time></trkpt><trkpt lat="46.1131469" lon="11.3054428"><ele>1022.0</ele><time>2026-04-26T12:56:11.038Z</time></trkpt><trkpt lat="46.113078" lon="11.3053403"><ele>1022.0</ele><time>2026-04-26T12:56:12.038Z</time></trkpt><trkpt lat="46.1130202" lon="11.3052568"><ele>1022.0</ele><time>2026-04-26T12:56:13.038Z</time></trkpt><trkpt lat="46.1129715" lon="11.3051922"><ele>1022.0</ele><time>2026-04-26T12:56:14.038Z</time></trkpt><trkpt lat="46.1129501" lon="11.3050394"><ele>1022.0</ele><time>2026-04-26T12:56:16.038Z</time></trkpt><trkpt lat="46.113032" lon="11.3049526"><ele>1022.0</ele><time>2026-04-26T12:56:18.038Z</time></trkpt><trkpt lat="46.1131528" lon="11.3050331"><ele>1022.0</ele><time>2026-04-26T12:56:20.038Z</time></trkpt><trkpt lat="46.1132141" lon="11.3051326"><ele>1022.0</ele><time>2026-04-26T12:56:21.038Z</time></trkpt><trkpt lat="46.1132832" lon="11.3052471"><ele>1022.0</ele><time>2026-04-26T12:56:22.038Z</time></trkpt><trkpt lat="46.1133404" lon="11.3053616"><ele>1022.0</ele><time>2026-04-26T12:56:23.038Z</time></trkpt><trkpt lat="46.1134037" lon="11.3054703"><ele>1022.0</ele><time>2026-04-26T12:56:24.038Z</time></trkpt><trkpt lat="46.1134793" lon="11.3055725"><ele>1024.25</ele><time>2026-04-26T12:56:25.038Z</time></trkpt><trkpt lat="46.1135618" lon="11.3056663"><ele>1026.5</ele><time>2026-04-26T12:56:26.038Z</time></trkpt><trkpt lat="46.1136513" lon="11.3057639"><ele>1028.75</ele><time>2026-04-26T12:56:27.038Z</time></trkpt><trkpt lat="46.1137466" lon="11.305867"><ele>1031.0</ele><time>2026-04-26T12:56:28.038Z</time></trkpt><trkpt lat="46.1138469" lon="11.305968"><ele>1031.0</ele><time>2026-04-26T12:56:29.038Z</time></trkpt><trkpt lat="46.1139474" lon="11.3060671"><ele>1031.0</ele><time>2026-04-26T12:56:30.039Z</time></trkpt><trkpt lat="46.1140472" lon="11.3061607"><ele>1031.0</ele><time>2026-04-26T12:56:31.038Z</time></trkpt><trkpt lat="46.1141449" lon="11.3062599"><ele>1031.0</ele><time>2026-04-26T12:56:32.039Z</time></trkpt><trkpt lat="46.1142455" lon="11.3063618"><ele>1033.75</ele><time>2026-04-26T12:56:33.038Z</time></trkpt><trkpt lat="46.1143475" lon="11.3064643"><ele>1036.5</ele><time>2026-04-26T12:56:34.038Z</time></trkpt><trkpt lat="46.1144498" lon="11.3065792"><ele>1039.25</ele><time>2026-04-26T12:56:35.038Z</time></trkpt><trkpt lat="46.1145384" lon="11.3067222"><ele>1042.0</ele><time>2026-04-26T12:56:36.038Z</time></trkpt><trkpt lat="46.1146063" lon="11.3068868"><ele>1042.0</ele><time>2026-04-26T12:56:37.038Z</time></trkpt><trkpt lat="46.1146448" lon="11.30707"><ele>1042.0</ele><time>2026-04-26T12:56:38.038Z</time></trkpt><trkpt lat="46.1146755" lon="11.307268"><ele>1042.0</ele><time>2026-04-26T12:56:39.038Z</time></trkpt><trkpt lat="46.1146968" lon="11.30747"><ele>1042.0</ele><time>2026-04-26T12:56:40.038Z</time></trkpt><trkpt lat="46.1147185" lon="11.3076689"><ele>1041.0</ele><time>2026-04-26T12:56:41.038Z</time></trkpt><trkpt lat="46.1147376" lon="11.3078623"><ele>1040.0</ele><time>2026-04-26T12:56:42.039Z</time></trkpt><trkpt lat="46.1147604" lon="11.3080521"><ele>1039.0</ele><time>2026-04-26T12:56:43.038Z</time></trkpt><trkpt lat="46.114787" lon="11.308225"><ele>1038.0</ele><time>2026-04-26T12:56:44.038Z</time></trkpt><trkpt lat="46.114824" lon="11.308378"><ele>1037.6</ele><time>2026-04-26T12:56:45.038Z</time></trkpt><trkpt lat="46.1148848" lon="11.3085115"><ele>1037.1999999999998</ele><time>2026-04-26T12:56:46.038Z</time></trkpt><trkpt lat="46.1149698" lon="11.3086124"><ele>1036.8</ele><time>2026-04-26T12:56:47.038Z</time></trkpt><trkpt lat="46.1150693" lon="11.3086796"><ele>1036.3999999999999</ele><time>2026-04-26T12:56:48.038Z</time></trkpt><trkpt lat="46.1151827" lon="11.3087143"><ele>1036.0</ele><time>2026-04-26T12:56:49.038Z</time></trkpt><trkpt lat="46.1152972" lon="11.3087209"><ele>1043.0</ele><time>2026-04-26T12:56:50.039Z</time></trkpt><trkpt lat="46.1154143" lon="11.3086922"><ele>1050.0</ele><time>2026-04-26T12:56:51.038Z</time></trkpt><trkpt lat="46.1155311" lon="11.3086439"><ele>1057.0</ele><time>2026-04-26T12:56:52.038Z</time></trkpt><trkpt lat="46.1156376" lon="11.3085364"><ele>1064.0</ele><time>2026-04-26T12:56:53.038Z</time></trkpt><trkpt lat="46.1157414" lon="11.3084136"><ele>1066.0</ele><time>2026-04-26T12:56:54.038Z</time></trkpt><trkpt lat="46.1158282" lon="11.3082862"><ele>1068.0</ele><time>2026-04-26T12:56:55.038Z</time></trkpt><trkpt lat="46.1159299" lon="11.3081511"><ele>1070.0</ele><time>2026-04-26T12:56:56.038Z</time></trkpt><trkpt lat="46.1160417" lon="11.3080401"><ele>1072.0</ele><time>2026-04-26T12:56:57.038Z</time></trkpt><trkpt lat="46.1161653" lon="11.307965"><ele>1075.5</ele><time>2026-04-26T12:56:58.038Z</time></trkpt><trkpt lat="46.1162949" lon="11.3078959"><ele>1079.0</ele><time>2026-04-26T12:56:59.038Z</time></trkpt><trkpt lat="46.1164314" lon="11.307843"><ele>1082.5</ele><time>2026-04-26T12:57:00.038Z</time></trkpt><trkpt lat="46.1165698" lon="11.3078053"><ele>1086.0</ele><time>2026-04-26T12:57:01.038Z</time></trkpt><trkpt lat="46.1167167" lon="11.3077956"><ele>1086.5</ele><time>2026-04-26T12:57:02.038Z</time></trkpt><trkpt lat="46.1168609" lon="11.3077869"><ele>1087.0</ele><time>2026-04-26T12:57:03.038Z</time></trkpt><trkpt lat="46.1170044" lon="11.3077661"><ele>1087.5</ele><time>2026-04-26T12:57:04.038Z</time></trkpt><trkpt lat="46.1171437" lon="11.3077602"><ele>1088.0</ele><time>2026-04-26T12:57:05.038Z</time></trkpt><trkpt lat="46.1172736" lon="11.3077519"><ele>1088.0</ele><time>2026-04-26T12:57:06.038Z</time></trkpt><trkpt lat="46.1173886" lon="11.3077669"><ele>1088.0</ele><time>2026-04-26T12:57:07.038Z</time></trkpt><trkpt lat="46.1174817" lon="11.3078169"><ele>1088.0</ele><time>2026-04-26T12:57:08.038Z</time></trkpt><trkpt lat="46.1175542" lon="11.3079039"><ele>1088.0</ele><time>2026-04-26T12:57:09.039Z</time></trkpt><trkpt lat="46.1176053" lon="11.3080196"><ele>1088.0</ele><time>2026-04-26T12:57:10.038Z</time></trkpt><trkpt lat="46.1176444" lon="11.3081424"><ele>1086.6</ele><time>2026-04-26T12:57:11.038Z</time></trkpt><trkpt lat="46.1176625" lon="11.3082796"><ele>1085.1999999999998</ele><time>2026-04-26T12:57:12.039Z</time></trkpt><trkpt lat="46.117654" lon="11.3084208"><ele>1083.8</ele><time>2026-04-26T12:57:13.038Z</time></trkpt><trkpt lat="46.1176161" lon="11.3085712"><ele>1082.3999999999999</ele><time>2026-04-26T12:57:14.038Z</time></trkpt><trkpt lat="46.1175479" lon="11.3087038"><ele>1081.0</ele><time>2026-04-26T12:57:15.038Z</time></trkpt><trkpt lat="46.1174565" lon="11.3088146"><ele>1079.8</ele><time>2026-04-26T12:57:16.038Z</time></trkpt><trkpt lat="46.117354" lon="11.3088858"><ele>1078.6</ele><time>2026-04-26T12:57:17.038Z</time></trkpt><trkpt lat="46.1172456" lon="11.3089425"><ele>1077.4</ele><time>2026-04-26T12:57:18.038Z</time></trkpt><trkpt lat="46.117144" lon="11.3090033"><ele>1076.2</ele><time>2026-04-26T12:57:19.038Z</time></trkpt><trkpt lat="46.11706" lon="11.309079"><ele>1075.0</ele><time>2026-04-26T12:57:20.038Z</time></trkpt><trkpt lat="46.1170056" lon="11.3091769"><ele>1074.5</ele><time>2026-04-26T12:57:21.038Z</time></trkpt><trkpt lat="46.1169806" lon="11.3092814"><ele>1074.0</ele><time>2026-04-26T12:57:22.038Z</time></trkpt><trkpt lat="46.116998" lon="11.309404"><ele>1073.5</ele><time>2026-04-26T12:57:23.038Z</time></trkpt><trkpt lat="46.117048" lon="11.3095124"><ele>1073.0</ele><time>2026-04-26T12:57:24.039Z</time></trkpt><trkpt lat="46.1171133" lon="11.3096081"><ele>1072.5</ele><time>2026-04-26T12:57:25.038Z</time></trkpt><trkpt lat="46.1171886" lon="11.3097077"><ele>1072.0</ele><time>2026-04-26T12:57:26.038Z</time></trkpt><trkpt lat="46.1172729" lon="11.3098081"><ele>1068.5</ele><time>2026-04-26T12:57:27.038Z</time></trkpt><trkpt lat="46.1173595" lon="11.3099169"><ele>1065.0</ele><time>2026-04-26T12:57:28.038Z</time></trkpt><trkpt lat="46.1174481" lon="11.3100333"><ele>1061.5</ele><time>2026-04-26T12:57:29.038Z</time></trkpt><trkpt lat="46.1175377" lon="11.3101431"><ele>1058.0</ele><time>2026-04-26T12:57:30.038Z</time></trkpt><trkpt lat="46.1176314" lon="11.310254"><ele>1066.25</ele><time>2026-04-26T12:57:31.038Z</time></trkpt><trkpt lat="46.1177286" lon="11.3103389"><ele>1074.5</ele><time>2026-04-26T12:57:32.038Z</time></trkpt><trkpt lat="46.1178387" lon="11.3103914"><ele>1082.75</ele><time>2026-04-26T12:57:33.038Z</time></trkpt><trkpt lat="46.1179577" lon="11.3104054"><ele>1091.0</ele><time>2026-04-26T12:57:34.038Z</time></trkpt><trkpt lat="46.1180795" lon="11.3103925"><ele>1091.0</ele><time>2026-04-26T12:57:35.038Z</time></trkpt><trkpt lat="46.1181989" lon="11.3103684"><ele>1091.0</ele><time>2026-04-26T12:57:36.038Z</time></trkpt><trkpt lat="46.1183174" lon="11.3103329"><ele>1091.0</ele><time>2026-04-26T12:57:37.038Z</time></trkpt><trkpt lat="46.118447" lon="11.3102882"><ele>1091.0</ele><time>2026-04-26T12:57:38.038Z</time></trkpt><trkpt lat="46.1185763" lon="11.3102547"><ele>1095.0</ele><time>2026-04-26T12:57:39.038Z</time></trkpt><trkpt lat="46.1187154" lon="11.3102393"><ele>1099.0</ele><time>2026-04-26T12:57:40.038Z</time></trkpt><trkpt lat="46.1188564" lon="11.3102668"><ele>1103.0</ele><time>2026-04-26T12:57:41.038Z</time></trkpt><trkpt lat="46.1189962" lon="11.3103287"><ele>1107.0</ele><time>2026-04-26T12:57:42.038Z</time></trkpt><trkpt lat="46.119131" lon="11.3104292"><ele>1106.5</ele><time>2026-04-26T12:57:43.038Z</time></trkpt><trkpt lat="46.119261" lon="11.3105348"><ele>1106.0</ele><time>2026-04-26T12:57:44.038Z</time></trkpt><trkpt lat="46.1193912" lon="11.3106362"><ele>1105.5</ele><time>2026-04-26T12:57:45.038Z</time></trkpt><trkpt lat="46.1195183" lon="11.3107332"><ele>1105.0</ele><time>2026-04-26T12:57:46.038Z</time></trkpt><trkpt lat="46.1196462" lon="11.3108297"><ele>1105.0</ele><time>2026-04-26T12:57:47.038Z</time></trkpt><trkpt lat="46.1197732" lon="11.3109244"><ele>1105.0</ele><time>2026-04-26T12:57:48.038Z</time></trkpt><trkpt lat="46.1198936" lon="11.3110168"><ele>1105.0</ele><time>2026-04-26T12:57:49.038Z</time></trkpt><trkpt lat="46.1200036" lon="11.3111013"><ele>1105.0</ele><time>2026-04-26T12:57:50.038Z</time></trkpt><trkpt lat="46.1201007" lon="11.311177"><ele>1108.0</ele><time>2026-04-26T12:57:51.039Z</time></trkpt><trkpt lat="46.1201847" lon="11.3112632"><ele>1111.0</ele><time>2026-04-26T12:57:52.038Z</time></trkpt><trkpt lat="46.1202495" lon="11.3113561"><ele>1114.0</ele><time>2026-04-26T12:57:53.038Z</time></trkpt><trkpt lat="46.1202909" lon="11.3114566"><ele>1117.0</ele><time>2026-04-26T12:57:54.039Z</time></trkpt><trkpt lat="46.1203005" lon="11.3115621"><ele>1120.0</ele><time>2026-04-26T12:57:55.039Z</time></trkpt><trkpt lat="46.120265" lon="11.3116731"><ele>1123.0</ele><time>2026-04-26T12:57:56.038Z</time></trkpt><trkpt lat="46.1202121" lon="11.3117721"><ele>1123.8</ele><time>2026-04-26T12:57:57.038Z</time></trkpt><trkpt lat="46.1201362" lon="11.3118463"><ele>1124.6</ele><time>2026-04-26T12:57:58.038Z</time></trkpt><trkpt lat="46.1200372" lon="11.3118878"><ele>1125.4</ele><time>2026-04-26T12:57:59.038Z</time></trkpt><trkpt lat="46.1199179" lon="11.3118935"><ele>1126.2</ele><time>2026-04-26T12:58:00.038Z</time></trkpt><trkpt lat="46.1197942" lon="11.3118672"><ele>1127.0</ele><time>2026-04-26T12:58:01.038Z</time></trkpt><trkpt lat="46.1196623" lon="11.3118337"><ele>1124.2</ele><time>2026-04-26T12:58:02.038Z</time></trkpt><trkpt lat="46.1195335" lon="11.3118035"><ele>1121.4</ele><time>2026-04-26T12:58:03.038Z</time></trkpt><trkpt lat="46.1194134" lon="11.3117987"><ele>1118.6</ele><time>2026-04-26T12:58:04.038Z</time></trkpt><trkpt lat="46.1193157" lon="11.3118259"><ele>1115.8</ele><time>2026-04-26T12:58:05.038Z</time></trkpt><trkpt lat="46.1192399" lon="11.3118807"><ele>1113.0</ele><time>2026-04-26T12:58:06.038Z</time></trkpt><trkpt lat="46.1191857" lon="11.311967"><ele>1113.0</ele><time>2026-04-26T12:58:07.038Z</time></trkpt><trkpt lat="46.1191585" lon="11.3120946"><ele>1113.0</ele><time>2026-04-26T12:58:08.038Z</time></trkpt><trkpt lat="46.1191637" lon="11.3122271"><ele>1113.0</ele><time>2026-04-26T12:58:09.038Z</time></trkpt><trkpt lat="46.1191885" lon="11.3123655"><ele>1113.0</ele><time>2026-04-26T12:58:10.038Z</time></trkpt><trkpt lat="46.1192298" lon="11.3125028"><ele>1113.0</ele><time>2026-04-26T12:58:11.038Z</time></trkpt><trkpt lat="46.1192723" lon="11.3126556"><ele>1115.5</ele><time>2026-04-26T12:58:12.038Z</time></trkpt><trkpt lat="46.1193022" lon="11.3128245"><ele>1118.0</ele><time>2026-04-26T12:58:13.038Z</time></trkpt><trkpt lat="46.1193328" lon="11.3130043"><ele>1120.5</ele><time>2026-04-26T12:58:14.038Z</time></trkpt><trkpt lat="46.1193635" lon="11.3131808"><ele>1123.0</ele><time>2026-04-26T12:58:15.038Z</time></trkpt><trkpt lat="46.1193956" lon="11.3133689"><ele>1123.75</ele><time>2026-04-26T12:58:16.038Z</time></trkpt><trkpt lat="46.1194259" lon="11.3135638"><ele>1124.5</ele><time>2026-04-26T12:58:17.038Z</time></trkpt><trkpt lat="46.1194578" lon="11.3137725"><ele>1125.25</ele><time>2026-04-26T12:58:18.038Z</time></trkpt><trkpt lat="46.1194893" lon="11.3139819"><ele>1126.0</ele><time>2026-04-26T12:58:19.038Z</time></trkpt><trkpt lat="46.1195229" lon="11.3141843"><ele>1126.0</ele><time>2026-04-26T12:58:20.038Z</time></trkpt><trkpt lat="46.1195568" lon="11.3143866"><ele>1126.0</ele><time>2026-04-26T12:58:21.038Z</time></trkpt><trkpt lat="46.1195929" lon="11.3145935"><ele>1126.0</ele><time>2026-04-26T12:58:22.038Z</time></trkpt><trkpt lat="46.1196268" lon="11.3148007"><ele>1126.0</ele><time>2026-04-26T12:58:23.038Z</time></trkpt><trkpt lat="46.119675" lon="11.3150002"><ele>1126.0</ele><time>2026-04-26T12:58:24.038Z</time></trkpt><trkpt lat="46.119749" lon="11.3151759"><ele>1126.0</ele><time>2026-04-26T12:58:25.038Z</time></trkpt><trkpt lat="46.1198485" lon="11.3153339"><ele>1126.0</ele><time>2026-04-26T12:58:26.038Z</time></trkpt><trkpt lat="46.1199714" lon="11.3154764"><ele>1126.0</ele><time>2026-04-26T12:58:27.038Z</time></trkpt><trkpt lat="46.1201029" lon="11.3156092"><ele>1131.6666666666665</ele><time>2026-04-26T12:58:28.038Z</time></trkpt><trkpt lat="46.1202414" lon="11.3157383"><ele>1137.3333333333333</ele><time>2026-04-26T12:58:29.038Z</time></trkpt><trkpt lat="46.1203837" lon="11.315866"><ele>1143.0</ele><time>2026-04-26T12:58:30.038Z</time></trkpt><trkpt lat="46.1205247" lon="11.3159966"><ele>1143.0</ele><time>2026-04-26T12:58:31.038Z</time></trkpt><trkpt lat="46.1206648" lon="11.3161253"><ele>1143.0</ele><time>2026-04-26T12:58:32.038Z</time></trkpt><trkpt lat="46.1208039" lon="11.3162543"><ele>1143.0</ele><time>2026-04-26T12:58:33.038Z</time></trkpt><trkpt lat="46.1209416" lon="11.3163847"><ele>1146.3333333333333</ele><time>2026-04-26T12:58:34.038Z</time></trkpt><trkpt lat="46.1210781" lon="11.3165141"><ele>1149.6666666666665</ele><time>2026-04-26T12:58:35.037Z</time></trkpt><trkpt lat="46.1212176" lon="11.3166416"><ele>1153.0</ele><time>2026-04-26T12:58:36.037Z</time></trkpt><trkpt lat="46.1213556" lon="11.3167717"><ele>1153.0</ele><time>2026-04-26T12:58:37.037Z</time></trkpt><trkpt lat="46.1214904" lon="11.3169091"><ele>1153.0</ele><time>2026-04-26T12:58:38.037Z</time></trkpt><trkpt lat="46.1216293" lon="11.3170515"><ele>1153.0</ele><time>2026-04-26T12:58:39.037Z</time></trkpt><trkpt lat="46.1217679" lon="11.3171968"><ele>1157.0</ele><time>2026-04-26T12:58:40.037Z</time></trkpt><trkpt lat="46.1219113" lon="11.31734"><ele>1161.0</ele><time>2026-04-26T12:58:41.037Z</time></trkpt><trkpt lat="46.1220547" lon="11.3174813"><ele>1165.0</ele><time>2026-04-26T12:58:42.037Z</time></trkpt><trkpt lat="46.1221983" lon="11.3176292"><ele>1165.0</ele><time>2026-04-26T12:58:43.037Z</time></trkpt><trkpt lat="46.1223383" lon="11.3177757"><ele>1165.0</ele><time>2026-04-26T12:58:44.037Z</time></trkpt><trkpt lat="46.122481" lon="11.3179206"><ele>1165.0</ele><time>2026-04-26T12:58:45.037Z</time></trkpt><trkpt lat="46.122625" lon="11.3180602"><ele>1169.6666666666665</ele><time>2026-04-26T12:58:46.037Z</time></trkpt><trkpt lat="46.1227596" lon="11.3182002"><ele>1174.3333333333333</ele><time>2026-04-26T12:58:47.037Z</time></trkpt><trkpt lat="46.1228808" lon="11.3183522"><ele>1179.0</ele><time>2026-04-26T12:58:48.037Z</time></trkpt><trkpt lat="46.1229739" lon="11.3185321"><ele>1179.0</ele><time>2026-04-26T12:58:49.038Z</time></trkpt><trkpt lat="46.1230339" lon="11.3187238"><ele>1179.0</ele><time>2026-04-26T12:58:50.037Z</time></trkpt><trkpt lat="46.1230707" lon="11.3189339"><ele>1179.0</ele><time>2026-04-26T12:58:51.037Z</time></trkpt><trkpt lat="46.1231003" lon="11.3191615"><ele>1178.0</ele><time>2026-04-26T12:58:52.038Z</time></trkpt><trkpt lat="46.1231312" lon="11.3193913"><ele>1177.0</ele><time>2026-04-26T12:58:53.037Z</time></trkpt><trkpt lat="46.1231843" lon="11.3196062"><ele>1176.0</ele><time>2026-04-26T12:58:54.037Z</time></trkpt><trkpt lat="46.123256" lon="11.3198082"><ele>1184.3333333333333</ele><time>2026-04-26T12:58:55.037Z</time></trkpt><trkpt lat="46.1233467" lon="11.3200021"><ele>1192.6666666666665</ele><time>2026-04-26T12:58:56.037Z</time></trkpt><trkpt lat="46.1234417" lon="11.3201929"><ele>1201.0</ele><time>2026-04-26T12:58:57.037Z</time></trkpt><trkpt lat="46.1235147" lon="11.3204007"><ele>1200.6666666666665</ele><time>2026-04-26T12:58:58.037Z</time></trkpt><trkpt lat="46.1235533" lon="11.3206169"><ele>1200.3333333333333</ele><time>2026-04-26T12:58:59.037Z</time></trkpt><trkpt lat="46.1235588" lon="11.3208415"><ele>1200.0</ele><time>2026-04-26T12:59:00.037Z</time></trkpt><trkpt lat="46.1235372" lon="11.321069"><ele>1200.0</ele><time>2026-04-26T12:59:01.037Z</time></trkpt><trkpt lat="46.1235029" lon="11.3213062"><ele>1200.0</ele><time>2026-04-26T12:59:02.037Z</time></trkpt><trkpt lat="46.1234641" lon="11.3215464"><ele>1200.0</ele><time>2026-04-26T12:59:03.037Z</time></trkpt><trkpt lat="46.1234281" lon="11.3217894"><ele>1200.3333333333333</ele><time>2026-04-26T12:59:04.037Z</time></trkpt><trkpt lat="46.1233945" lon="11.3220381"><ele>1200.6666666666665</ele><time>2026-04-26T12:59:05.037Z</time></trkpt><trkpt lat="46.1233635" lon="11.3222917"><ele>1201.0</ele><time>2026-04-26T12:59:06.037Z</time></trkpt><trkpt lat="46.1233306" lon="11.3225353"><ele>1204.0</ele><time>2026-04-26T12:59:07.037Z</time></trkpt><trkpt lat="46.1232997" lon="11.3227792"><ele>1207.0</ele><time>2026-04-26T12:59:08.037Z</time></trkpt><trkpt lat="46.123271" lon="11.3230266"><ele>1210.0</ele><time>2026-04-26T12:59:09.037Z</time></trkpt><trkpt lat="46.1232522" lon="11.3232753"><ele>1214.3333333333333</ele><time>2026-04-26T12:59:10.037Z</time></trkpt><trkpt lat="46.1232562" lon="11.3235246"><ele>1218.6666666666667</ele><time>2026-04-26T12:59:11.037Z</time></trkpt><trkpt lat="46.1232756" lon="11.323773"><ele>1223.0</ele><time>2026-04-26T12:59:12.037Z</time></trkpt><trkpt lat="46.1233004" lon="11.3240323"><ele>1222.6666666666667</ele><time>2026-04-26T12:59:13.037Z</time></trkpt><trkpt lat="46.1233252" lon="11.3242841"><ele>1222.3333333333333</ele><time>2026-04-26T12:59:14.038Z</time></trkpt><trkpt lat="46.1233523" lon="11.324541"><ele>1222.0</ele><time>2026-04-26T12:59:15.037Z</time></trkpt><trkpt lat="46.123379" lon="11.3247938"><ele>1222.0</ele><time>2026-04-26T12:59:16.037Z</time></trkpt><trkpt lat="46.1234048" lon="11.3250464"><ele>1222.0</ele><time>2026-04-26T12:59:17.037Z</time></trkpt><trkpt lat="46.1234345" lon="11.3252993"><ele>1222.0</ele><time>2026-04-26T12:59:18.037Z</time></trkpt><trkpt lat="46.1234703" lon="11.3255518"><ele>1221.3333333333333</ele><time>2026-04-26T12:59:19.037Z</time></trkpt><trkpt lat="46.1235196" lon="11.3258114"><ele>1220.6666666666667</ele><time>2026-04-26T12:59:20.037Z</time></trkpt><trkpt lat="46.123578" lon="11.3260676"><ele>1220.0</ele><time>2026-04-26T12:59:21.037Z</time></trkpt><trkpt lat="46.1236359" lon="11.3263279"><ele>1215.6666666666667</ele><time>2026-04-26T12:59:22.037Z</time></trkpt><trkpt lat="46.1236913" lon="11.3265931"><ele>1211.3333333333333</ele><time>2026-04-26T12:59:23.037Z</time></trkpt><trkpt lat="46.1237499" lon="11.3268553"><ele>1207.0</ele><time>2026-04-26T12:59:24.037Z</time></trkpt><trkpt lat="46.1238105" lon="11.3271211"><ele>1204.3333333333333</ele><time>2026-04-26T12:59:25.037Z</time></trkpt><trkpt lat="46.1238729" lon="11.3273904"><ele>1201.6666666666667</ele><time>2026-04-26T12:59:26.037Z</time></trkpt><trkpt lat="46.1239403" lon="11.3276555"><ele>1199.0</ele><time>2026-04-26T12:59:27.037Z</time></trkpt><trkpt lat="46.1240186" lon="11.3279152"><ele>1210.3333333333335</ele><time>2026-04-26T12:59:28.037Z</time></trkpt><trkpt lat="46.124113" lon="11.3281643"><ele>1221.6666666666667</ele><time>2026-04-26T12:59:29.037Z</time></trkpt><trkpt lat="46.1242138" lon="11.3284083"><ele>1233.0</ele><time>2026-04-26T12:59:30.038Z</time></trkpt><trkpt lat="46.1243057" lon="11.3286488"><ele>1233.0</ele><time>2026-04-26T12:59:31.037Z</time></trkpt><trkpt lat="46.1244008" lon="11.328883"><ele>1233.0</ele><time>2026-04-26T12:59:32.037Z</time></trkpt><trkpt lat="46.1244908" lon="11.3291107"><ele>1233.0</ele><time>2026-04-26T12:59:33.038Z</time></trkpt><trkpt lat="46.1245751" lon="11.3293275"><ele>1228.6666666666667</ele><time>2026-04-26T12:59:34.037Z</time></trkpt><trkpt lat="46.1246467" lon="11.3295544"><ele>1224.3333333333335</ele><time>2026-04-26T12:59:35.038Z</time></trkpt><trkpt lat="46.1247004" lon="11.3297795"><ele>1220.0</ele><time>2026-04-26T12:59:36.037Z</time></trkpt><trkpt lat="46.1247292" lon="11.3300094"><ele>1218.3333333333335</ele><time>2026-04-26T12:59:37.037Z</time></trkpt><trkpt lat="46.1247503" lon="11.3302405"><ele>1216.6666666666667</ele><time>2026-04-26T12:59:38.037Z</time></trkpt><trkpt lat="46.1247714" lon="11.330471"><ele>1215.0</ele><time>2026-04-26T12:59:39.037Z</time></trkpt><trkpt lat="46.1247891" lon="11.330706"><ele>1212.3333333333333</ele><time>2026-04-26T12:59:40.038Z</time></trkpt><trkpt lat="46.1248084" lon="11.3309398"><ele>1209.6666666666665</ele><time>2026-04-26T12:59:41.037Z</time></trkpt><trkpt lat="46.1248299" lon="11.3311689"><ele>1207.0</ele><time>2026-04-26T12:59:42.038Z</time></trkpt><trkpt lat="46.1248602" lon="11.3313931"><ele>1219.0</ele><time>2026-04-26T12:59:43.037Z</time></trkpt><trkpt lat="46.1249083" lon="11.3315937"><ele>1231.0</ele><time>2026-04-26T12:59:44.037Z</time></trkpt><trkpt lat="46.1249809" lon="11.3317778"><ele>1243.0</ele><time>2026-04-26T12:59:45.037Z</time></trkpt><trkpt lat="46.1250724" lon="11.3319406"><ele>1255.0</ele><time>2026-04-26T12:59:46.037Z</time></trkpt><trkpt lat="46.1251751" lon="11.332083"><ele>1255.0</ele><time>2026-04-26T12:59:47.037Z</time></trkpt><trkpt lat="46.1252925" lon="11.3321998"><ele>1255.0</ele><time>2026-04-26T12:59:48.037Z</time></trkpt><trkpt lat="46.1254228" lon="11.3322908"><ele>1255.0</ele><time>2026-04-26T12:59:49.037Z</time></trkpt><trkpt lat="46.1255588" lon="11.3323716"><ele>1255.0</ele><time>2026-04-26T12:59:50.037Z</time></trkpt><trkpt lat="46.1256904" lon="11.3324542"><ele>1258.5</ele><time>2026-04-26T12:59:51.037Z</time></trkpt><trkpt lat="46.1258243" lon="11.3325336"><ele>1262.0</ele><time>2026-04-26T12:59:52.037Z</time></trkpt><trkpt lat="46.1259538" lon="11.3326117"><ele>1265.5</ele><time>2026-04-26T12:59:53.037Z</time></trkpt><trkpt lat="46.1260708" lon="11.3326816"><ele>1269.0</ele><time>2026-04-26T12:59:54.037Z</time></trkpt><trkpt lat="46.1261799" lon="11.3327327"><ele>1269.0</ele><time>2026-04-26T12:59:55.037Z</time></trkpt><trkpt lat="46.1262847" lon="11.3327565"><ele>1269.0</ele><time>2026-04-26T12:59:56.037Z</time></trkpt><trkpt lat="46.1263919" lon="11.3327544"><ele>1269.0</ele><time>2026-04-26T12:59:57.037Z</time></trkpt><trkpt lat="46.1265018" lon="11.332736"><ele>1269.0</ele><time>2026-04-26T12:59:58.037Z</time></trkpt><trkpt lat="46.1266155" lon="11.3326971"><ele>1269.0</ele><time>2026-04-26T12:59:59.037Z</time></trkpt><trkpt lat="46.1267307" lon="11.3326455"><ele>1272.0</ele><time>2026-04-26T13:00:00.037Z</time></trkpt><trkpt lat="46.1268456" lon="11.3325943"><ele>1275.0</ele><time>2026-04-26T13:00:01.037Z</time></trkpt><trkpt lat="46.1269582" lon="11.3325541"><ele>1278.0</ele><time>2026-04-26T13:00:02.037Z</time></trkpt><trkpt lat="46.1270673" lon="11.3325235"><ele>1281.0</ele><time>2026-04-26T13:00:03.037Z</time></trkpt><trkpt lat="46.1271764" lon="11.3325239"><ele>1281.0</ele><time>2026-04-26T13:00:04.037Z</time></trkpt><trkpt lat="46.1272728" lon="11.332555"><ele>1281.0</ele><time>2026-04-26T13:00:05.037Z</time></trkpt><trkpt lat="46.127352" lon="11.3326198"><ele>1281.0</ele><time>2026-04-26T13:00:06.037Z</time></trkpt><trkpt lat="46.1274183" lon="11.3327189"><ele>1281.0</ele><time>2026-04-26T13:00:07.037Z</time></trkpt><trkpt lat="46.127485" lon="11.3328346"><ele>1281.0</ele><time>2026-04-26T13:00:08.038Z</time></trkpt><trkpt lat="46.1275583" lon="11.3329647"><ele>1278.25</ele><time>2026-04-26T13:00:09.038Z</time></trkpt><trkpt lat="46.1276347" lon="11.333112"><ele>1275.5</ele><time>2026-04-26T13:00:10.037Z</time></trkpt><trkpt lat="46.1277191" lon="11.3332551"><ele>1272.75</ele><time>2026-04-26T13:00:11.037Z</time></trkpt><trkpt lat="46.1278039" lon="11.3333917"><ele>1270.0</ele><time>2026-04-26T13:00:12.037Z</time></trkpt><trkpt lat="46.1278842" lon="11.3335361"><ele>1270.0</ele><time>2026-04-26T13:00:13.037Z</time></trkpt><trkpt lat="46.1279599" lon="11.3336917"><ele>1270.0</ele><time>2026-04-26T13:00:14.037Z</time></trkpt><trkpt lat="46.1280295" lon="11.3338547"><ele>1270.0</ele><time>2026-04-26T13:00:15.037Z</time></trkpt><trkpt lat="46.1280858" lon="11.3340373"><ele>1270.0</ele><time>2026-04-26T13:00:16.037Z</time></trkpt><trkpt lat="46.1281251" lon="11.3342375"><ele>1270.5</ele><time>2026-04-26T13:00:17.038Z</time></trkpt><trkpt lat="46.1281555" lon="11.3344396"><ele>1271.0</ele><time>2026-04-26T13:00:18.037Z</time></trkpt><trkpt lat="46.1282032" lon="11.334631"><ele>1271.5</ele><time>2026-04-26T13:00:19.037Z</time></trkpt><trkpt lat="46.1282777" lon="11.3347965"><ele>1272.0</ele><time>2026-04-26T13:00:20.037Z</time></trkpt><trkpt lat="46.1283765" lon="11.3349511"><ele>1272.0</ele><time>2026-04-26T13:00:21.037Z</time></trkpt><trkpt lat="46.1284881" lon="11.3350977"><ele>1272.0</ele><time>2026-04-26T13:00:22.037Z</time></trkpt><trkpt lat="46.1285967" lon="11.3352538"><ele>1272.0</ele><time>2026-04-26T13:00:23.037Z</time></trkpt><trkpt lat="46.1286805" lon="11.3354316"><ele>1261.0</ele><time>2026-04-26T13:00:24.037Z</time></trkpt><trkpt lat="46.1287543" lon="11.3356278"><ele>1250.0</ele><time>2026-04-26T13:00:25.037Z</time></trkpt><trkpt lat="46.1288256" lon="11.335834"><ele>1239.0</ele><time>2026-04-26T13:00:26.037Z</time></trkpt><trkpt lat="46.1289111" lon="11.3360316"><ele>1239.0</ele><time>2026-04-26T13:00:27.037Z</time></trkpt><trkpt lat="46.128994" lon="11.336232"><ele>1239.0</ele><time>2026-04-26T13:00:28.037Z</time></trkpt><trkpt lat="46.1290544" lon="11.3364458"><ele>1239.0</ele><time>2026-04-26T13:00:29.037Z</time></trkpt><trkpt lat="46.1291008" lon="11.3366684"><ele>1259.3333333333333</ele><time>2026-04-26T13:00:30.037Z</time></trkpt><trkpt lat="46.1291404" lon="11.3369017"><ele>1279.6666666666665</ele><time>2026-04-26T13:00:31.037Z</time></trkpt><trkpt lat="46.1291784" lon="11.3371338"><ele>1300.0</ele><time>2026-04-26T13:00:32.037Z</time></trkpt><trkpt lat="46.1292159" lon="11.3373646"><ele>1300.0</ele><time>2026-04-26T13:00:33.037Z</time></trkpt><trkpt lat="46.1292542" lon="11.3375985"><ele>1300.0</ele><time>2026-04-26T13:00:34.037Z</time></trkpt><trkpt lat="46.1292951" lon="11.3378269"><ele>1300.0</ele><time>2026-04-26T13:00:35.037Z</time></trkpt><trkpt lat="46.1293365" lon="11.3380506"><ele>1294.6666666666665</ele><time>2026-04-26T13:00:36.037Z</time></trkpt><trkpt lat="46.1293752" lon="11.3382655"><ele>1289.3333333333333</ele><time>2026-04-26T13:00:37.037Z</time></trkpt><trkpt lat="46.1294144" lon="11.33848"><ele>1284.0</ele><time>2026-04-26T13:00:38.037Z</time></trkpt><trkpt lat="46.1294451" lon="11.3386889"><ele>1284.75</ele><time>2026-04-26T13:00:39.037Z</time></trkpt><trkpt lat="46.1294715" lon="11.3388999"><ele>1285.5</ele><time>2026-04-26T13:00:40.037Z</time></trkpt><trkpt lat="46.1294865" lon="11.3391123"><ele>1286.25</ele><time>2026-04-26T13:00:41.037Z</time></trkpt><trkpt lat="46.1294926" lon="11.3393207"><ele>1287.0</ele><time>2026-04-26T13:00:42.037Z</time></trkpt><trkpt lat="46.1294941" lon="11.3395253"><ele>1288.25</ele><time>2026-04-26T13:00:43.037Z</time></trkpt><trkpt lat="46.1295071" lon="11.3397192"><ele>1289.5</ele><time>2026-04-26T13:00:44.038Z</time></trkpt><trkpt lat="46.129533" lon="11.3398942"><ele>1290.75</ele><time>2026-04-26T13:00:45.037Z</time></trkpt><trkpt lat="46.1295689" lon="11.340058"><ele>1292.0</ele><time>2026-04-26T13:00:46.037Z</time></trkpt><trkpt lat="46.1296252" lon="11.3401985"><ele>1292.0</ele><time>2026-04-26T13:00:47.037Z</time></trkpt><trkpt lat="46.1297023" lon="11.3403209"><ele>1292.0</ele><time>2026-04-26T13:00:48.037Z</time></trkpt><trkpt lat="46.1297941" lon="11.3404278"><ele>1292.0</ele><time>2026-04-26T13:00:49.037Z</time></trkpt><trkpt lat="46.129889" lon="11.3405194"><ele>1292.0</ele><time>2026-04-26T13:00:50.037Z</time></trkpt><trkpt lat="46.1299818" lon="11.3406214"><ele>1297.1999999999998</ele><time>2026-04-26T13:00:51.037Z</time></trkpt><trkpt lat="46.1300643" lon="11.3407354"><ele>1302.4</ele><time>2026-04-26T13:00:52.037Z</time></trkpt><trkpt lat="46.1301274" lon="11.3408502"><ele>1307.6</ele><time>2026-04-26T13:00:53.037Z</time></trkpt><trkpt lat="46.1301762" lon="11.340971"><ele>1312.8000000000002</ele><time>2026-04-26T13:00:54.037Z</time></trkpt><trkpt lat="46.1302092" lon="11.3410719"><ele>1318.0</ele><time>2026-04-26T13:00:55.037Z</time></trkpt><trkpt lat="46.1302988" lon="11.341154"><ele>1318.0</ele><time>2026-04-26T13:00:57.037Z</time></trkpt><trkpt lat="46.1304347" lon="11.3411322"><ele>1318.0</ele><time>2026-04-26T13:00:59.037Z</time></trkpt><trkpt lat="46.1305069" lon="11.3410895"><ele>1318.0</ele><time>2026-04-26T13:01:00.037Z</time></trkpt><trkpt lat="46.1305741" lon="11.3410296"><ele>1318.0</ele><time>2026-04-26T13:01:01.037Z</time></trkpt><trkpt lat="46.1306224" lon="11.3409524"><ele>1318.0</ele><time>2026-04-26T13:01:02.037Z</time></trkpt><trkpt lat="46.1306434" lon="11.3408547"><ele>1318.0</ele><time>2026-04-26T13:01:03.037Z</time></trkpt><trkpt lat="46.1306278" lon="11.3407447"><ele>1318.0</ele><time>2026-04-26T13:01:04.037Z</time></trkpt><trkpt lat="46.1305867" lon="11.340637"><ele>1318.0</ele><time>2026-04-26T13:01:05.037Z</time></trkpt><trkpt lat="46.1305126" lon="11.3405417"><ele>1318.0</ele><time>2026-04-26T13:01:06.037Z</time></trkpt><trkpt lat="46.1304215" lon="11.3404783"><ele>1318.0</ele><time>2026-04-26T13:01:07.038Z</time></trkpt><trkpt lat="46.1303216" lon="11.3404289"><ele>1318.0</ele><time>2026-04-26T13:01:08.037Z</time></trkpt><trkpt lat="46.1302187" lon="11.3403835"><ele>1322.25</ele><time>2026-04-26T13:01:09.037Z</time></trkpt><trkpt lat="46.1301191" lon="11.34031"><ele>1326.5</ele><time>2026-04-26T13:01:10.037Z</time></trkpt><trkpt lat="46.1300204" lon="11.3402229"><ele>1330.75</ele><time>2026-04-26T13:01:11.038Z</time></trkpt><trkpt lat="46.1299393" lon="11.340101"><ele>1335.0</ele><time>2026-04-26T13:01:12.037Z</time></trkpt><trkpt lat="46.1298833" lon="11.339941"><ele>1339.5</ele><time>2026-04-26T13:01:13.037Z</time></trkpt><trkpt lat="46.1298631" lon="11.3397481"><ele>1344.0</ele><time>2026-04-26T13:01:14.037Z</time></trkpt><trkpt lat="46.1298722" lon="11.3395587"><ele>1348.5</ele><time>2026-04-26T13:01:15.037Z</time></trkpt><trkpt lat="46.1298883" lon="11.3393728"><ele>1353.0</ele><time>2026-04-26T13:01:16.037Z</time></trkpt><trkpt lat="46.1299036" lon="11.3391613"><ele>1353.0</ele><time>2026-04-26T13:01:17.037Z</time></trkpt><trkpt lat="46.1299114" lon="11.3389436"><ele>1353.0</ele><time>2026-04-26T13:01:18.037Z</time></trkpt><trkpt lat="46.1299101" lon="11.3387267"><ele>1353.0</ele><time>2026-04-26T13:01:19.037Z</time></trkpt><trkpt lat="46.1298948" lon="11.3385046"><ele>1339.75</ele><time>2026-04-26T13:01:20.037Z</time></trkpt><trkpt lat="46.1298741" lon="11.3382946"><ele>1326.5</ele><time>2026-04-26T13:01:21.038Z</time></trkpt><trkpt lat="46.1298536" lon="11.3380915"><ele>1313.25</ele><time>2026-04-26T13:01:22.037Z</time></trkpt><trkpt lat="46.1298352" lon="11.3378836"><ele>1300.0</ele><time>2026-04-26T13:01:23.037Z</time></trkpt><trkpt lat="46.1298283" lon="11.3376667"><ele>1300.0</ele><time>2026-04-26T13:01:24.037Z</time></trkpt><trkpt lat="46.1298353" lon="11.3374444"><ele>1300.0</ele><time>2026-04-26T13:01:25.037Z</time></trkpt><trkpt lat="46.1298446" lon="11.3372027"><ele>1300.0</ele><time>2026-04-26T13:01:26.037Z</time></trkpt><trkpt lat="46.1298454" lon="11.3369458"><ele>1304.0</ele><time>2026-04-26T13:01:27.037Z</time></trkpt><trkpt lat="46.1298484" lon="11.3366771"><ele>1308.0</ele><time>2026-04-26T13:01:28.037Z</time></trkpt><trkpt lat="46.1298484" lon="11.3364212"><ele>1312.0</ele><time>2026-04-26T13:01:29.037Z</time></trkpt><trkpt lat="46.129857" lon="11.3361844"><ele>1317.0</ele><time>2026-04-26T13:01:30.037Z</time></trkpt><trkpt lat="46.1298613" lon="11.3359711"><ele>1322.0</ele><time>2026-04-26T13:01:31.038Z</time></trkpt><trkpt lat="46.12986" lon="11.3357475"><ele>1327.0</ele><time>2026-04-26T13:01:32.037Z</time></trkpt><trkpt lat="46.129835" lon="11.3355341"><ele>1331.6666666666665</ele><time>2026-04-26T13:01:33.037Z</time></trkpt><trkpt lat="46.1297809" lon="11.3353256"><ele>1336.3333333333333</ele><time>2026-04-26T13:01:34.037Z</time></trkpt><trkpt lat="46.1297056" lon="11.3351058"><ele>1341.0</ele><time>2026-04-26T13:01:35.037Z</time></trkpt><trkpt lat="46.1296309" lon="11.3348871"><ele>1351.3333333333333</ele><time>2026-04-26T13:01:36.037Z</time></trkpt><trkpt lat="46.1295666" lon="11.3346588"><ele>1361.6666666666665</ele><time>2026-04-26T13:01:37.037Z</time></trkpt><trkpt lat="46.1295026" lon="11.3344235"><ele>1372.0</ele><time>2026-04-26T13:01:38.037Z</time></trkpt><trkpt lat="46.1294363" lon="11.3342059"><ele>1372.0</ele><time>2026-04-26T13:01:39.037Z</time></trkpt><trkpt lat="46.1293577" lon="11.3340005"><ele>1372.0</ele><time>2026-04-26T13:01:40.037Z</time></trkpt><trkpt lat="46.1292771" lon="11.3338166"><ele>1372.0</ele><time>2026-04-26T13:01:41.037Z</time></trkpt><trkpt lat="46.129198" lon="11.3336381"><ele>1376.0</ele><time>2026-04-26T13:01:42.037Z</time></trkpt><trkpt lat="46.12914" lon="11.3334648"><ele>1380.0</ele><time>2026-04-26T13:01:43.037Z</time></trkpt><trkpt lat="46.1291161" lon="11.3332788"><ele>1384.0</ele><time>2026-04-26T13:01:44.037Z</time></trkpt><trkpt lat="46.1291279" lon="11.3330949"><ele>1388.0</ele><time>2026-04-26T13:01:45.037Z</time></trkpt><trkpt lat="46.1291533" lon="11.3329044"><ele>1386.75</ele><time>2026-04-26T13:01:46.037Z</time></trkpt><trkpt lat="46.1291786" lon="11.3327131"><ele>1385.5</ele><time>2026-04-26T13:01:47.037Z</time></trkpt><trkpt lat="46.1292078" lon="11.3325203"><ele>1384.25</ele><time>2026-04-26T13:01:48.037Z</time></trkpt><trkpt lat="46.1292657" lon="11.3323453"><ele>1383.0</ele><time>2026-04-26T13:01:49.037Z</time></trkpt><trkpt lat="46.1293424" lon="11.3321797"><ele>1383.0</ele><time>2026-04-26T13:01:50.037Z</time></trkpt><trkpt lat="46.1294237" lon="11.3320142"><ele>1383.0</ele><time>2026-04-26T13:01:51.037Z</time></trkpt><trkpt lat="46.1295092" lon="11.3318482"><ele>1383.0</ele><time>2026-04-26T13:01:52.037Z</time></trkpt><trkpt lat="46.1296086" lon="11.3317001"><ele>1383.0</ele><time>2026-04-26T13:01:53.037Z</time></trkpt><trkpt lat="46.1297168" lon="11.3315719"><ele>1383.0</ele><time>2026-04-26T13:01:54.038Z</time></trkpt><trkpt lat="46.1298323" lon="11.3314553"><ele>1383.0</ele><time>2026-04-26T13:01:55.037Z</time></trkpt><trkpt lat="46.1299397" lon="11.3313729"><ele>1383.0</ele><time>2026-04-26T13:01:56.037Z</time></trkpt><trkpt lat="46.1300344" lon="11.3313061"><ele>1383.0</ele><time>2026-04-26T13:01:57.037Z</time></trkpt><trkpt lat="46.1301174" lon="11.3312214"><ele>1386.6000000000001</ele><time>2026-04-26T13:01:58.037Z</time></trkpt><trkpt lat="46.1301724" lon="11.3311038"><ele>1390.2</ele><time>2026-04-26T13:01:59.037Z</time></trkpt><trkpt lat="46.1301862" lon="11.3309452"><ele>1393.8</ele><time>2026-04-26T13:02:00.037Z</time></trkpt><trkpt lat="46.1301726" lon="11.3307828"><ele>1397.4</ele><time>2026-04-26T13:02:01.037Z</time></trkpt><trkpt lat="46.1301705" lon="11.3306066"><ele>1401.0</ele><time>2026-04-26T13:02:02.037Z</time></trkpt><trkpt lat="46.1301864" lon="11.330441"><ele>1401.0</ele><time>2026-04-26T13:02:03.037Z</time></trkpt><trkpt lat="46.1302385" lon="11.3302897"><ele>1401.0</ele><time>2026-04-26T13:02:04.037Z</time></trkpt><trkpt lat="46.1303321" lon="11.3301761"><ele>1401.0</ele><time>2026-04-26T13:02:05.037Z</time></trkpt><trkpt lat="46.1304478" lon="11.3300691"><ele>1401.0</ele><time>2026-04-26T13:02:06.037Z</time></trkpt><trkpt lat="46.1305616" lon="11.3299794"><ele>1401.0</ele><time>2026-04-26T13:02:07.038Z</time></trkpt><trkpt lat="46.1306778" lon="11.3298687"><ele>1401.0</ele><time>2026-04-26T13:02:08.038Z</time></trkpt><trkpt lat="46.1307861" lon="11.3297449"><ele>1401.0</ele><time>2026-04-26T13:02:09.037Z</time></trkpt><trkpt lat="46.1308953" lon="11.329599"><ele>1401.0</ele><time>2026-04-26T13:02:10.037Z</time></trkpt><trkpt lat="46.1309967" lon="11.3294196"><ele>1411.6666666666667</ele><time>2026-04-26T13:02:11.038Z</time></trkpt><trkpt lat="46.1310979" lon="11.3292583"><ele>1422.3333333333335</ele><time>2026-04-26T13:02:12.038Z</time></trkpt><trkpt lat="46.1312052" lon="11.3290892"><ele>1433.0</ele><time>2026-04-26T13:02:13.037Z</time></trkpt><trkpt lat="46.1313118" lon="11.3289373"><ele>1440.6666666666667</ele><time>2026-04-26T13:02:14.037Z</time></trkpt><trkpt lat="46.1314231" lon="11.3287864"><ele>1448.3333333333333</ele><time>2026-04-26T13:02:15.037Z</time></trkpt><trkpt lat="46.1315297" lon="11.3286276"><ele>1456.0</ele><time>2026-04-26T13:02:16.037Z</time></trkpt><trkpt lat="46.1316313" lon="11.3284736"><ele>1456.0</ele><time>2026-04-26T13:02:17.037Z</time></trkpt><trkpt lat="46.1317366" lon="11.3283189"><ele>1456.0</ele><time>2026-04-26T13:02:18.037Z</time></trkpt><trkpt lat="46.1318466" lon="11.3281644"><ele>1456.0</ele><time>2026-04-26T13:02:19.037Z</time></trkpt><trkpt lat="46.1319645" lon="11.3280005"><ele>1462.0</ele><time>2026-04-26T13:02:20.037Z</time></trkpt><trkpt lat="46.1320834" lon="11.3278502"><ele>1468.0</ele><time>2026-04-26T13:02:21.038Z</time></trkpt><trkpt lat="46.1322113" lon="11.32771"><ele>1474.0</ele><time>2026-04-26T13:02:22.037Z</time></trkpt><trkpt lat="46.1323382" lon="11.3275629"><ele>1472.6666666666665</ele><time>2026-04-26T13:02:23.037Z</time></trkpt><trkpt lat="46.1324675" lon="11.3274164"><ele>1471.3333333333333</ele><time>2026-04-26T13:02:24.037Z</time></trkpt><trkpt lat="46.1325918" lon="11.3272682"><ele>1470.0</ele><time>2026-04-26T13:02:25.037Z</time></trkpt><trkpt lat="46.1327189" lon="11.3271142"><ele>1470.0</ele><time>2026-04-26T13:02:26.037Z</time></trkpt><trkpt lat="46.1328433" lon="11.3269629"><ele>1470.0</ele><time>2026-04-26T13:02:27.037Z</time></trkpt><trkpt lat="46.132967" lon="11.3268113"><ele>1470.0</ele><time>2026-04-26T13:02:28.037Z</time></trkpt><trkpt lat="46.1330945" lon="11.3266571"><ele>1470.0</ele><time>2026-04-26T13:02:29.037Z</time></trkpt><trkpt lat="46.133212" lon="11.3265114"><ele>1470.0</ele><time>2026-04-26T13:02:30.037Z</time></trkpt><trkpt lat="46.1333184" lon="11.3263775"><ele>1470.0</ele><time>2026-04-26T13:02:31.037Z</time></trkpt><trkpt lat="46.1334155" lon="11.32626"><ele>1470.0</ele><time>2026-04-26T13:02:32.037Z</time></trkpt><trkpt lat="46.1334979" lon="11.3261531"><ele>1469.8</ele><time>2026-04-26T13:02:33.037Z</time></trkpt><trkpt lat="46.1335719" lon="11.3260613"><ele>1469.6</ele><time>2026-04-26T13:02:34.037Z</time></trkpt><trkpt lat="46.1336408" lon="11.325972"><ele>1469.4</ele><time>2026-04-26T13:02:35.037Z</time></trkpt><trkpt lat="46.1337129" lon="11.3258804"><ele>1469.2</ele><time>2026-04-26T13:02:36.037Z</time></trkpt><trkpt lat="46.1337806" lon="11.3257955"><ele>1469.0</ele><time>2026-04-26T13:02:37.037Z</time></trkpt><trkpt lat="46.1338462" lon="11.3257298"><ele>1469.0</ele><time>2026-04-26T13:02:38.037Z</time></trkpt><trkpt lat="46.1339174" lon="11.32568"><ele>1469.0</ele><time>2026-04-26T13:02:39.037Z</time></trkpt><trkpt lat="46.1339904" lon="11.3256368"><ele>1469.0</ele><time>2026-04-26T13:02:40.038Z</time></trkpt><trkpt lat="46.1340701" lon="11.3255853"><ele>1469.0</ele><time>2026-04-26T13:02:41.037Z</time></trkpt><trkpt lat="46.1341535" lon="11.3255344"><ele>1469.0</ele><time>2026-04-26T13:02:42.037Z</time></trkpt><trkpt lat="46.1342391" lon="11.325484"><ele>1469.0</ele><time>2026-04-26T13:02:43.037Z</time></trkpt><trkpt lat="46.134326" lon="11.3254304"><ele>1470.0</ele><time>2026-04-26T13:02:44.037Z</time></trkpt><trkpt lat="46.1344186" lon="11.3253681"><ele>1471.0</ele><time>2026-04-26T13:02:45.037Z</time></trkpt><trkpt lat="46.1345167" lon="11.3253054"><ele>1472.0</ele><time>2026-04-26T13:02:46.037Z</time></trkpt><trkpt lat="46.1346212" lon="11.3252456"><ele>1473.0</ele><time>2026-04-26T13:02:47.037Z</time></trkpt><trkpt lat="46.1347237" lon="11.3251875"><ele>1474.0</ele><time>2026-04-26T13:02:48.037Z</time></trkpt><trkpt lat="46.1348273" lon="11.3251257"><ele>1471.8000000000002</ele><time>2026-04-26T13:02:49.037Z</time></trkpt><trkpt lat="46.1349181" lon="11.3250441"><ele>1469.6000000000001</ele><time>2026-04-26T13:02:50.037Z</time></trkpt><trkpt lat="46.135006" lon="11.3249528"><ele>1467.4</ele><time>2026-04-26T13:02:51.037Z</time></trkpt><trkpt lat="46.1350852" lon="11.324847"><ele>1465.2</ele><time>2026-04-26T13:02:52.037Z</time></trkpt><trkpt lat="46.1351552" lon="11.3247303"><ele>1463.0</ele><time>2026-04-26T13:02:53.037Z</time></trkpt><trkpt lat="46.1352134" lon="11.3246073"><ele>1463.0</ele><time>2026-04-26T13:02:54.037Z</time></trkpt><trkpt lat="46.1352661" lon="11.3244808"><ele>1463.0</ele><time>2026-04-26T13:02:55.037Z</time></trkpt><trkpt lat="46.1353224" lon="11.3243516"><ele>1463.0</ele><time>2026-04-26T13:02:56.037Z</time></trkpt><trkpt lat="46.1353764" lon="11.3242233"><ele>1463.0</ele><time>2026-04-26T13:02:57.037Z</time></trkpt><trkpt lat="46.1354305" lon="11.3240948"><ele>1463.0</ele><time>2026-04-26T13:02:58.038Z</time></trkpt><trkpt lat="46.1354885" lon="11.3239689"><ele>1461.4</ele><time>2026-04-26T13:02:59.037Z</time></trkpt><trkpt lat="46.1355438" lon="11.3238471"><ele>1459.8000000000002</ele><time>2026-04-26T13:03:00.037Z</time></trkpt><trkpt lat="46.1356014" lon="11.3237245"><ele>1458.2</ele><time>2026-04-26T13:03:01.037Z</time></trkpt><trkpt lat="46.1356628" lon="11.3235989"><ele>1456.6</ele><time>2026-04-26T13:03:02.037Z</time></trkpt><trkpt lat="46.1357296" lon="11.3234789"><ele>1455.0</ele><time>2026-04-26T13:03:03.037Z</time></trkpt><trkpt lat="46.1358099" lon="11.3233638"><ele>1455.0</ele><time>2026-04-26T13:03:04.037Z</time></trkpt><trkpt lat="46.1358989" lon="11.323252"><ele>1455.0</ele><time>2026-04-26T13:03:05.037Z</time></trkpt><trkpt lat="46.135998" lon="11.3231357"><ele>1455.0</ele><time>2026-04-26T13:03:06.037Z</time></trkpt><trkpt lat="46.1360966" lon="11.323039"><ele>1455.0</ele><time>2026-04-26T13:03:07.037Z</time></trkpt><trkpt lat="46.1361931" lon="11.3229532"><ele>1455.8</ele><time>2026-04-26T13:03:08.037Z</time></trkpt><trkpt lat="46.1362944" lon="11.3228791"><ele>1456.6</ele><time>2026-04-26T13:03:09.037Z</time></trkpt><trkpt lat="46.1363887" lon="11.3228092"><ele>1457.4</ele><time>2026-04-26T13:03:10.037Z</time></trkpt><trkpt lat="46.1364842" lon="11.3227335"><ele>1458.2</ele><time>2026-04-26T13:03:11.037Z</time></trkpt><trkpt lat="46.1365813" lon="11.3226538"><ele>1459.0</ele><time>2026-04-26T13:03:12.037Z</time></trkpt><trkpt lat="46.1366757" lon="11.3225708"><ele>1459.0</ele><time>2026-04-26T13:03:13.037Z</time></trkpt><trkpt lat="46.1367746" lon="11.3224762"><ele>1459.0</ele><time>2026-04-26T13:03:14.037Z</time></trkpt><trkpt lat="46.1368637" lon="11.3223713"><ele>1459.0</ele><time>2026-04-26T13:03:15.037Z</time></trkpt><trkpt lat="46.1369429" lon="11.3222549"><ele>1459.0</ele><time>2026-04-26T13:03:16.037Z</time></trkpt><trkpt lat="46.1370127" lon="11.3221141"><ele>1458.25</ele><time>2026-04-26T13:03:17.037Z</time></trkpt><trkpt lat="46.1370704" lon="11.3219648"><ele>1457.5</ele><time>2026-04-26T13:03:18.037Z</time></trkpt><trkpt lat="46.1371218" lon="11.3218188"><ele>1456.75</ele><time>2026-04-26T13:03:19.037Z</time></trkpt><trkpt lat="46.1371797" lon="11.3216814"><ele>1456.0</ele><time>2026-04-26T13:03:20.037Z</time></trkpt><trkpt lat="46.1372445" lon="11.3215533"><ele>1456.0</ele><time>2026-04-26T13:03:21.037Z</time></trkpt><trkpt lat="46.1373211" lon="11.321455"><ele>1456.0</ele><time>2026-04-26T13:03:22.037Z</time></trkpt><trkpt lat="46.1374088" lon="11.3213744"><ele>1456.0</ele><time>2026-04-26T13:03:23.037Z</time></trkpt><trkpt lat="46.1375035" lon="11.3213039"><ele>1456.0</ele><time>2026-04-26T13:03:24.037Z</time></trkpt><trkpt lat="46.1376001" lon="11.3212402"><ele>1456.0</ele><time>2026-04-26T13:03:25.037Z</time></trkpt><trkpt lat="46.1376911" lon="11.3211784"><ele>1455.4</ele><time>2026-04-26T13:03:26.037Z</time></trkpt><trkpt lat="46.13778" lon="11.3211148"><ele>1454.8</ele><time>2026-04-26T13:03:27.037Z</time></trkpt><trkpt lat="46.1378673" lon="11.3210549"><ele>1454.2</ele><time>2026-04-26T13:03:28.037Z</time></trkpt><trkpt lat="46.1379536" lon="11.3209926"><ele>1453.6000000000001</ele><time>2026-04-26T13:03:29.037Z</time></trkpt><trkpt lat="46.1380359" lon="11.3209383"><ele>1453.0</ele><time>2026-04-26T13:03:30.037Z</time></trkpt><trkpt lat="46.1381146" lon="11.3208825"><ele>1453.0</ele><time>2026-04-26T13:03:31.037Z</time></trkpt><trkpt lat="46.1381885" lon="11.320833"><ele>1453.0</ele><time>2026-04-26T13:03:32.037Z</time></trkpt><trkpt lat="46.1382604" lon="11.3207809"><ele>1453.0</ele><time>2026-04-26T13:03:33.037Z</time></trkpt><trkpt lat="46.1383293" lon="11.3207304"><ele>1453.0</ele><time>2026-04-26T13:03:34.037Z</time></trkpt><trkpt lat="46.1383982" lon="11.3206807"><ele>1453.0</ele><time>2026-04-26T13:03:35.037Z</time></trkpt><trkpt lat="46.1384588" lon="11.3206392"><ele>1453.0</ele><time>2026-04-26T13:03:36.037Z</time></trkpt><trkpt lat="46.1385434" lon="11.3205843"><ele>1451.4</ele><time>2026-04-26T13:03:38.037Z</time></trkpt><trkpt lat="46.1386116" lon="11.3205572"><ele>1449.8000000000002</ele><time>2026-04-26T13:03:40.037Z</time></trkpt><trkpt lat="46.1386813" lon="11.3203838"><ele>1448.2</ele><time>2026-04-26T13:06:53.036Z</time></trkpt><trkpt lat="46.1387374" lon="11.3203155"><ele>1446.6</ele><time>2026-04-26T13:06:54.036Z</time></trkpt><trkpt lat="46.1388221" lon="11.3202259"><ele>1445.0</ele><time>2026-04-26T13:06:55.036Z</time></trkpt><trkpt lat="46.1389285" lon="11.3201162"><ele>1445.0</ele><time>2026-04-26T13:06:56.036Z</time></trkpt><trkpt lat="46.1390431" lon="11.3199804"><ele>1445.0</ele><time>2026-04-26T13:06:57.036Z</time></trkpt><trkpt lat="46.1391783" lon="11.3198384"><ele>1445.0</ele><time>2026-04-26T13:06:58.036Z</time></trkpt><trkpt lat="46.1393176" lon="11.3196939"><ele>1441.6666666666667</ele><time>2026-04-26T13:06:59.036Z</time></trkpt><trkpt lat="46.1394544" lon="11.3195453"><ele>1438.3333333333333</ele><time>2026-04-26T13:07:00.036Z</time></trkpt><trkpt lat="46.139583" lon="11.3193934"><ele>1435.0</ele><time>2026-04-26T13:07:01.036Z</time></trkpt><trkpt lat="46.1397093" lon="11.319245"><ele>1435.0</ele><time>2026-04-26T13:07:02.036Z</time></trkpt><trkpt lat="46.1398389" lon="11.3191077"><ele>1435.0</ele><time>2026-04-26T13:07:03.037Z</time></trkpt><trkpt lat="46.1399609" lon="11.3189686"><ele>1435.0</ele><time>2026-04-26T13:07:04.036Z</time></trkpt><trkpt lat="46.1400817" lon="11.3188227"><ele>1435.0</ele><time>2026-04-26T13:07:05.036Z</time></trkpt><trkpt lat="46.1401982" lon="11.3186694"><ele>1435.0</ele><time>2026-04-26T13:07:06.036Z</time></trkpt><trkpt lat="46.1402989" lon="11.3185031"><ele>1435.0</ele><time>2026-04-26T13:07:07.036Z</time></trkpt><trkpt lat="46.1403866" lon="11.3183201"><ele>1435.0</ele><time>2026-04-26T13:07:08.036Z</time></trkpt><trkpt lat="46.1404771" lon="11.3181355"><ele>1435.0</ele><time>2026-04-26T13:07:09.036Z</time></trkpt><trkpt lat="46.1405664" lon="11.3179501"><ele>1435.0</ele><time>2026-04-26T13:07:10.036Z</time></trkpt><trkpt lat="46.1406564" lon="11.3177716"><ele>1433.3333333333333</ele><time>2026-04-26T13:07:11.036Z</time></trkpt><trkpt lat="46.1407442" lon="11.3175912"><ele>1431.6666666666667</ele><time>2026-04-26T13:07:12.036Z</time></trkpt><trkpt lat="46.1408331" lon="11.3174128"><ele>1430.0</ele><time>2026-04-26T13:07:13.036Z</time></trkpt><trkpt lat="46.1409174" lon="11.3172348"><ele>1427.75</ele><time>2026-04-26T13:07:14.036Z</time></trkpt><trkpt lat="46.1410057" lon="11.3170567"><ele>1425.5</ele><time>2026-04-26T13:07:15.036Z</time></trkpt><trkpt lat="46.1410947" lon="11.3168826"><ele>1423.25</ele><time>2026-04-26T13:07:16.036Z</time></trkpt><trkpt lat="46.1411744" lon="11.3167176"><ele>1421.0</ele><time>2026-04-26T13:07:17.036Z</time></trkpt><trkpt lat="46.141258" lon="11.3165529"><ele>1419.0</ele><time>2026-04-26T13:07:18.036Z</time></trkpt><trkpt lat="46.1413489" lon="11.3163997"><ele>1417.0</ele><time>2026-04-26T13:07:19.036Z</time></trkpt><trkpt lat="46.1414536" lon="11.3162811"><ele>1415.0</ele><time>2026-04-26T13:07:20.036Z</time></trkpt><trkpt lat="46.1415611" lon="11.3162168"><ele>1413.0</ele><time>2026-04-26T13:07:21.036Z</time></trkpt><trkpt lat="46.141685" lon="11.3161719"><ele>1412.8000000000002</ele><time>2026-04-26T13:07:22.036Z</time></trkpt><trkpt lat="46.1418064" lon="11.3161507"><ele>1412.6</ele><time>2026-04-26T13:07:23.036Z</time></trkpt><trkpt lat="46.1419147" lon="11.3161341"><ele>1412.4</ele><time>2026-04-26T13:07:24.036Z</time></trkpt><trkpt lat="46.1420097" lon="11.3161226"><ele>1412.1999999999998</ele><time>2026-04-26T13:07:25.036Z</time></trkpt><trkpt lat="46.1420933" lon="11.3161054"><ele>1412.0</ele><time>2026-04-26T13:07:26.036Z</time></trkpt><trkpt lat="46.1421585" lon="11.3160735"><ele>1412.0</ele><time>2026-04-26T13:07:27.036Z</time></trkpt><trkpt lat="46.1422131" lon="11.3159266"><ele>1412.0</ele><time>2026-04-26T13:07:29.036Z</time></trkpt><trkpt lat="46.142192" lon="11.3158404"><ele>1412.0</ele><time>2026-04-26T13:07:30.036Z</time></trkpt><trkpt lat="46.1420702" lon="11.3157352"><ele>1412.0</ele><time>2026-04-26T13:07:32.036Z</time></trkpt><trkpt lat="46.1419845" lon="11.315727"><ele>1412.0</ele><time>2026-04-26T13:07:33.036Z</time></trkpt><trkpt lat="46.1418824" lon="11.3157315"><ele>1412.0</ele><time>2026-04-26T13:07:34.036Z</time></trkpt><trkpt lat="46.1417701" lon="11.3157324"><ele>1412.0</ele><time>2026-04-26T13:07:35.036Z</time></trkpt><trkpt lat="46.1416613" lon="11.3157275"><ele>1412.0</ele><time>2026-04-26T13:07:36.036Z</time></trkpt><trkpt lat="46.1415681" lon="11.3157243"><ele>1412.0</ele><time>2026-04-26T13:07:37.037Z</time></trkpt><trkpt lat="46.141482" lon="11.3157128"><ele>1412.0</ele><time>2026-04-26T13:07:38.036Z</time></trkpt><trkpt lat="46.1414266" lon="11.3156659"><ele>1413.3999999999999</ele><time>2026-04-26T13:07:39.036Z</time></trkpt><trkpt lat="46.1414099" lon="11.3155193"><ele>1414.8</ele><time>2026-04-26T13:07:41.036Z</time></trkpt><trkpt lat="46.141519" lon="11.3154233"><ele>1416.2</ele><time>2026-04-26T13:07:43.036Z</time></trkpt><trkpt lat="46.1416114" lon="11.3153933"><ele>1417.6</ele><time>2026-04-26T13:07:44.036Z</time></trkpt><trkpt lat="46.1417129" lon="11.3153594"><ele>1419.0</ele><time>2026-04-26T13:07:45.036Z</time></trkpt><trkpt lat="46.1418229" lon="11.3153274"><ele>1414.8000000000002</ele><time>2026-04-26T13:07:46.036Z</time></trkpt><trkpt lat="46.1419359" lon="11.3152892"><ele>1410.6000000000001</ele><time>2026-04-26T13:07:47.036Z</time></trkpt><trkpt lat="46.1420398" lon="11.3152515"><ele>1406.4</ele><time>2026-04-26T13:07:48.036Z</time></trkpt><trkpt lat="46.1421388" lon="11.3152259"><ele>1402.2</ele><time>2026-04-26T13:07:49.036Z</time></trkpt><trkpt lat="46.1422302" lon="11.3151962"><ele>1398.0</ele><time>2026-04-26T13:07:50.036Z</time></trkpt><trkpt lat="46.1423042" lon="11.3151661"><ele>1398.0</ele><time>2026-04-26T13:07:51.036Z</time></trkpt><trkpt lat="46.142362" lon="11.3151249"><ele>1398.0</ele><time>2026-04-26T13:07:52.036Z</time></trkpt><trkpt lat="46.1423955" lon="11.3149674"><ele>1398.0</ele><time>2026-04-26T13:07:54.036Z</time></trkpt><trkpt lat="46.1423083" lon="11.3148251"><ele>1398.0</ele><time>2026-04-26T13:07:56.036Z</time></trkpt><trkpt lat="46.1422237" lon="11.3147764"><ele>1398.0</ele><time>2026-04-26T13:07:57.036Z</time></trkpt><trkpt lat="46.1421312" lon="11.3147227"><ele>1398.2</ele><time>2026-04-26T13:07:58.036Z</time></trkpt><trkpt lat="46.1420341" lon="11.3146689"><ele>1398.4</ele><time>2026-04-26T13:07:59.036Z</time></trkpt><trkpt lat="46.1419403" lon="11.3146225"><ele>1398.6000000000001</ele><time>2026-04-26T13:08:00.036Z</time></trkpt><trkpt lat="46.1418483" lon="11.314583"><ele>1398.8000000000002</ele><time>2026-04-26T13:08:01.036Z</time></trkpt><trkpt lat="46.1417682" lon="11.3145379"><ele>1399.0</ele><time>2026-04-26T13:08:02.036Z</time></trkpt><trkpt lat="46.1417117" lon="11.314481"><ele>1399.0</ele><time>2026-04-26T13:08:03.036Z</time></trkpt><trkpt lat="46.1417008" lon="11.3143521"><ele>1399.0</ele><time>2026-04-26T13:08:05.036Z</time></trkpt><trkpt lat="46.1417549" lon="11.3142941"><ele>1399.0</ele><time>2026-04-26T13:08:06.036Z</time></trkpt><trkpt lat="46.1418259" lon="11.314276"><ele>1399.0</ele><time>2026-04-26T13:08:07.036Z</time></trkpt><trkpt lat="46.1419153" lon="11.3142784"><ele>1399.0</ele><time>2026-04-26T13:08:08.036Z</time></trkpt><trkpt lat="46.1419942" lon="11.314305"><ele>1399.0</ele><time>2026-04-26T13:08:09.036Z</time></trkpt><trkpt lat="46.1420914" lon="11.3143275"><ele>1399.0</ele><time>2026-04-26T13:08:10.036Z</time></trkpt><trkpt lat="46.1421872" lon="11.3143599"><ele>1399.0</ele><time>2026-04-26T13:08:11.036Z</time></trkpt><trkpt lat="46.1422928" lon="11.314386"><ele>1399.0</ele><time>2026-04-26T13:08:12.036Z</time></trkpt><trkpt lat="46.1424044" lon="11.3144042"><ele>1399.0</ele><time>2026-04-26T13:08:13.036Z</time></trkpt><trkpt lat="46.1425185" lon="11.3144183"><ele>1399.0</ele><time>2026-04-26T13:08:14.036Z</time></trkpt><trkpt lat="46.1426411" lon="11.3144056"><ele>1394.0</ele><time>2026-04-26T13:08:15.036Z</time></trkpt><trkpt lat="46.142763" lon="11.3143738"><ele>1389.0</ele><time>2026-04-26T13:08:16.035Z</time></trkpt><trkpt lat="46.1428934" lon="11.3143145"><ele>1384.0</ele><time>2026-04-26T13:08:17.035Z</time></trkpt><trkpt lat="46.1430261" lon="11.3142392"><ele>1379.0</ele><time>2026-04-26T13:08:18.035Z</time></trkpt><trkpt lat="46.1431712" lon="11.3141553"><ele>1378.0</ele><time>2026-04-26T13:08:19.035Z</time></trkpt><trkpt lat="46.1433229" lon="11.3140831"><ele>1377.0</ele><time>2026-04-26T13:08:20.035Z</time></trkpt><trkpt lat="46.1434769" lon="11.314001"><ele>1376.0</ele><time>2026-04-26T13:08:21.035Z</time></trkpt><trkpt lat="46.1436318" lon="11.3139242"><ele>1375.6666666666667</ele><time>2026-04-26T13:08:22.035Z</time></trkpt><trkpt lat="46.1437945" lon="11.3138432"><ele>1375.3333333333333</ele><time>2026-04-26T13:08:23.035Z</time></trkpt><trkpt lat="46.143957" lon="11.3137684"><ele>1375.0</ele><time>2026-04-26T13:08:24.035Z</time></trkpt><trkpt lat="46.1441204" lon="11.3136908"><ele>1371.3333333333333</ele><time>2026-04-26T13:08:25.035Z</time></trkpt><trkpt lat="46.1442877" lon="11.3136144"><ele>1367.6666666666667</ele><time>2026-04-26T13:08:26.035Z</time></trkpt><trkpt lat="46.1444585" lon="11.3135433"><ele>1364.0</ele><time>2026-04-26T13:08:27.035Z</time></trkpt><trkpt lat="46.144629" lon="11.3134739"><ele>1364.0</ele><time>2026-04-26T13:08:28.035Z</time></trkpt><trkpt lat="46.1448036" lon="11.313411"><ele>1364.0</ele><time>2026-04-26T13:08:29.035Z</time></trkpt><trkpt lat="46.1449781" lon="11.313353"><ele>1364.0</ele><time>2026-04-26T13:08:30.035Z</time></trkpt><trkpt lat="46.1451613" lon="11.3132875"><ele>1358.6666666666667</ele><time>2026-04-26T13:08:31.035Z</time></trkpt><trkpt lat="46.1453439" lon="11.313212"><ele>1353.3333333333333</ele><time>2026-04-26T13:08:32.035Z</time></trkpt><trkpt lat="46.1455309" lon="11.3131205"><ele>1348.0</ele><time>2026-04-26T13:08:33.035Z</time></trkpt><trkpt lat="46.1457127" lon="11.3130197"><ele>1342.6666666666665</ele><time>2026-04-26T13:08:34.035Z</time></trkpt><trkpt lat="46.145896" lon="11.3129193"><ele>1337.3333333333333</ele><time>2026-04-26T13:08:35.035Z</time></trkpt><trkpt lat="46.1460859" lon="11.3128164"><ele>1332.0</ele><time>2026-04-26T13:08:36.035Z</time></trkpt><trkpt lat="46.146275" lon="11.3127189"><ele>1332.0</ele><time>2026-04-26T13:08:37.035Z</time></trkpt><trkpt lat="46.1464683" lon="11.3126418"><ele>1332.0</ele><time>2026-04-26T13:08:38.035Z</time></trkpt><trkpt lat="46.1466616" lon="11.312597"><ele>1332.0</ele><time>2026-04-26T13:08:39.036Z</time></trkpt><trkpt lat="46.1468498" lon="11.3125666"><ele>1330.0</ele><time>2026-04-26T13:08:40.035Z</time></trkpt><trkpt lat="46.1470289" lon="11.3125505"><ele>1328.0</ele><time>2026-04-26T13:08:41.035Z</time></trkpt><trkpt lat="46.1471954" lon="11.3125355"><ele>1326.0</ele><time>2026-04-26T13:08:42.035Z</time></trkpt><trkpt lat="46.1473401" lon="11.3125204"><ele>1325.1999999999998</ele><time>2026-04-26T13:08:43.035Z</time></trkpt><trkpt lat="46.1474727" lon="11.3125061"><ele>1324.3999999999999</ele><time>2026-04-26T13:08:44.035Z</time></trkpt><trkpt lat="46.147586" lon="11.3124958"><ele>1323.6</ele><time>2026-04-26T13:08:45.035Z</time></trkpt><trkpt lat="46.1476775" lon="11.3124743"><ele>1322.8</ele><time>2026-04-26T13:08:46.035Z</time></trkpt><trkpt lat="46.1477532" lon="11.3124474"><ele>1322.0</ele><time>2026-04-26T13:08:47.035Z</time></trkpt><trkpt lat="46.147814" lon="11.3123076"><ele>1318.5</ele><time>2026-04-26T13:08:49.035Z</time></trkpt><trkpt lat="46.1477898" lon="11.3122179"><ele>1315.0</ele><time>2026-04-26T13:08:50.036Z</time></trkpt><trkpt lat="46.1477444" lon="11.3121402"><ele>1311.5</ele><time>2026-04-26T13:08:51.035Z</time></trkpt><trkpt lat="46.1476786" lon="11.3120952"><ele>1308.0</ele><time>2026-04-26T13:08:52.035Z</time></trkpt><trkpt lat="46.1476003" lon="11.3120867"><ele>1304.5</ele><time>2026-04-26T13:08:53.036Z</time></trkpt><trkpt lat="46.147505" lon="11.3120795"><ele>1301.0</ele><time>2026-04-26T13:08:54.035Z</time></trkpt><trkpt lat="46.1474069" lon="11.3120837"><ele>1302.6</ele><time>2026-04-26T13:08:55.035Z</time></trkpt><trkpt lat="46.1473029" lon="11.3120908"><ele>1304.1999999999998</ele><time>2026-04-26T13:08:56.035Z</time></trkpt><trkpt lat="46.1471979" lon="11.3121053"><ele>1305.8000000000002</ele><time>2026-04-26T13:08:57.035Z</time></trkpt><trkpt lat="46.1470978" lon="11.3121203"><ele>1307.4</ele><time>2026-04-26T13:08:58.035Z</time></trkpt><trkpt lat="46.1470204" lon="11.3121257"><ele>1309.0</ele><time>2026-04-26T13:08:59.035Z</time></trkpt><trkpt lat="46.1469554" lon="11.3120903"><ele>1309.0</ele><time>2026-04-26T13:09:00.035Z</time></trkpt><trkpt lat="46.1469415" lon="11.3119429"><ele>1309.0</ele><time>2026-04-26T13:09:02.035Z</time></trkpt><trkpt lat="46.1469832" lon="11.311867"><ele>1309.0</ele><time>2026-04-26T13:09:03.035Z</time></trkpt><trkpt lat="46.1470526" lon="11.3118091"><ele>1309.0</ele><time>2026-04-26T13:09:04.036Z</time></trkpt><trkpt lat="46.1471417" lon="11.3117677"><ele>1309.0</ele><time>2026-04-26T13:09:05.036Z</time></trkpt><trkpt lat="46.1472437" lon="11.3117171"><ele>1309.0</ele><time>2026-04-26T13:09:06.035Z</time></trkpt><trkpt lat="46.1473553" lon="11.3116585"><ele>1309.0</ele><time>2026-04-26T13:09:07.035Z</time></trkpt><trkpt lat="46.1474685" lon="11.3115922"><ele>1309.0</ele><time>2026-04-26T13:09:08.035Z</time></trkpt><trkpt lat="46.1475901" lon="11.31153"><ele>1309.0</ele><time>2026-04-26T13:09:09.035Z</time></trkpt><trkpt lat="46.1477176" lon="11.3114693"><ele>1308.0</ele><time>2026-04-26T13:09:10.035Z</time></trkpt><trkpt lat="46.1478477" lon="11.311396"><ele>1307.0</ele><time>2026-04-26T13:09:11.035Z</time></trkpt><trkpt lat="46.1479752" lon="11.3113224"><ele>1306.0</ele><time>2026-04-26T13:09:12.035Z</time></trkpt><trkpt lat="46.1481061" lon="11.3112556"><ele>1305.0</ele><time>2026-04-26T13:09:13.035Z</time></trkpt><trkpt lat="46.1482347" lon="11.3111741"><ele>1300.75</ele><time>2026-04-26T13:09:14.036Z</time></trkpt><trkpt lat="46.1483649" lon="11.3110919"><ele>1296.5</ele><time>2026-04-26T13:09:15.035Z</time></trkpt><trkpt lat="46.1485021" lon="11.3110207"><ele>1292.25</ele><time>2026-04-26T13:09:16.035Z</time></trkpt><trkpt lat="46.1486405" lon="11.3109585"><ele>1288.0</ele><time>2026-04-26T13:09:17.035Z</time></trkpt><trkpt lat="46.1487815" lon="11.3109038"><ele>1288.0</ele><time>2026-04-26T13:09:18.035Z</time></trkpt><trkpt lat="46.1489238" lon="11.3108591"><ele>1288.0</ele><time>2026-04-26T13:09:19.035Z</time></trkpt><trkpt lat="46.1490663" lon="11.3108074"><ele>1288.0</ele><time>2026-04-26T13:09:20.035Z</time></trkpt><trkpt lat="46.1492088" lon="11.3107511"><ele>1288.0</ele><time>2026-04-26T13:09:21.035Z</time></trkpt><trkpt lat="46.1493515" lon="11.3106896"><ele>1284.75</ele><time>2026-04-26T13:09:22.035Z</time></trkpt><trkpt lat="46.1494896" lon="11.3106258"><ele>1281.5</ele><time>2026-04-26T13:09:23.035Z</time></trkpt><trkpt lat="46.1496203" lon="11.3105644"><ele>1278.25</ele><time>2026-04-26T13:09:24.035Z</time></trkpt><trkpt lat="46.1497468" lon="11.310517"><ele>1275.0</ele><time>2026-04-26T13:09:25.035Z</time></trkpt><trkpt lat="46.1498687" lon="11.3104935"><ele>1269.6</ele><time>2026-04-26T13:09:26.035Z</time></trkpt><trkpt lat="46.1499811" lon="11.3104896"><ele>1264.2</ele><time>2026-04-26T13:09:27.035Z</time></trkpt><trkpt lat="46.1500898" lon="11.310497"><ele>1258.8</ele><time>2026-04-26T13:09:28.035Z</time></trkpt><trkpt lat="46.1501891" lon="11.3105195"><ele>1253.4</ele><time>2026-04-26T13:09:29.036Z</time></trkpt><trkpt lat="46.1502853" lon="11.3105445"><ele>1248.0</ele><time>2026-04-26T13:09:30.035Z</time></trkpt><trkpt lat="46.1503799" lon="11.3105727"><ele>1248.8333333333333</ele><time>2026-04-26T13:09:31.035Z</time></trkpt><trkpt lat="46.150471" lon="11.3106024"><ele>1249.6666666666667</ele><time>2026-04-26T13:09:32.036Z</time></trkpt><trkpt lat="46.1505644" lon="11.3106334"><ele>1250.5</ele><time>2026-04-26T13:09:33.035Z</time></trkpt><trkpt lat="46.1506527" lon="11.310657"><ele>1251.3333333333335</ele><time>2026-04-26T13:09:34.035Z</time></trkpt><trkpt lat="46.1507333" lon="11.3106774"><ele>1252.1666666666667</ele><time>2026-04-26T13:09:35.035Z</time></trkpt><trkpt lat="46.1508024" lon="11.3106845"><ele>1253.0</ele><time>2026-04-26T13:09:36.035Z</time></trkpt><trkpt lat="46.1508685" lon="11.3106649"><ele>1252.1666666666667</ele><time>2026-04-26T13:09:37.035Z</time></trkpt><trkpt lat="46.1509209" lon="11.3105287"><ele>1251.3333333333335</ele><time>2026-04-26T13:09:39.036Z</time></trkpt><trkpt lat="46.150869" lon="11.3103727"><ele>1250.5</ele><time>2026-04-26T13:09:41.035Z</time></trkpt><trkpt lat="46.1508089" lon="11.3103386"><ele>1249.6666666666667</ele><time>2026-04-26T13:09:42.035Z</time></trkpt><trkpt lat="46.150737" lon="11.3103154"><ele>1248.8333333333333</ele><time>2026-04-26T13:09:43.035Z</time></trkpt><trkpt lat="46.1506588" lon="11.3102942"><ele>1248.0</ele><time>2026-04-26T13:09:44.035Z</time></trkpt><trkpt lat="46.1505833" lon="11.310265"><ele>1248.0</ele><time>2026-04-26T13:09:45.035Z</time></trkpt><trkpt lat="46.1505085" lon="11.3102283"><ele>1248.0</ele><time>2026-04-26T13:09:46.035Z</time></trkpt><trkpt lat="46.150432" lon="11.3101842"><ele>1248.0</ele><time>2026-04-26T13:09:47.035Z</time></trkpt><trkpt lat="46.1503616" lon="11.310138"><ele>1248.0</ele><time>2026-04-26T13:09:48.035Z</time></trkpt><trkpt lat="46.1502966" lon="11.3100892"><ele>1248.0</ele><time>2026-04-26T13:09:49.035Z</time></trkpt><trkpt lat="46.1502404" lon="11.3100263"><ele>1248.0</ele><time>2026-04-26T13:09:50.035Z</time></trkpt><trkpt lat="46.1502019" lon="11.309879"><ele>1248.0</ele><time>2026-04-26T13:09:52.035Z</time></trkpt><trkpt lat="46.1502772" lon="11.3097773"><ele>1248.0</ele><time>2026-04-26T13:09:54.036Z</time></trkpt><trkpt lat="46.1503977" lon="11.3098351"><ele>1248.0</ele><time>2026-04-26T13:09:56.035Z</time></trkpt><trkpt lat="46.1504562" lon="11.309888"><ele>1248.0</ele><time>2026-04-26T13:09:57.035Z</time></trkpt><trkpt lat="46.1505249" lon="11.3099549"><ele>1248.0</ele><time>2026-04-26T13:09:58.035Z</time></trkpt><trkpt lat="46.1506042" lon="11.3100145"><ele>1248.0</ele><time>2026-04-26T13:09:59.035Z</time></trkpt><trkpt lat="46.1507012" lon="11.3100592"><ele>1248.0</ele><time>2026-04-26T13:10:00.035Z</time></trkpt><trkpt lat="46.1508142" lon="11.3100821"><ele>1248.0</ele><time>2026-04-26T13:10:01.035Z</time></trkpt><trkpt lat="46.1509399" lon="11.3100976"><ele>1248.0</ele><time>2026-04-26T13:10:02.035Z</time></trkpt><trkpt lat="46.1510708" lon="11.3101034"><ele>1245.25</ele><time>2026-04-26T13:10:03.035Z</time></trkpt><trkpt lat="46.1512065" lon="11.3101043"><ele>1242.5</ele><time>2026-04-26T13:10:04.035Z</time></trkpt><trkpt lat="46.151353" lon="11.3101138"><ele>1239.75</ele><time>2026-04-26T13:10:05.035Z</time></trkpt><trkpt lat="46.1515016" lon="11.3101139"><ele>1237.0</ele><time>2026-04-26T13:10:06.035Z</time></trkpt><trkpt lat="46.1516559" lon="11.3101101"><ele>1233.3333333333333</ele><time>2026-04-26T13:10:07.035Z</time></trkpt><trkpt lat="46.1518146" lon="11.3101061"><ele>1229.6666666666667</ele><time>2026-04-26T13:10:08.035Z</time></trkpt><trkpt lat="46.1519753" lon="11.3101028"><ele>1226.0</ele><time>2026-04-26T13:10:09.035Z</time></trkpt><trkpt lat="46.1521354" lon="11.3100889"><ele>1226.0</ele><time>2026-04-26T13:10:10.035Z</time></trkpt><trkpt lat="46.152293" lon="11.3100664"><ele>1226.0</ele><time>2026-04-26T13:10:11.035Z</time></trkpt><trkpt lat="46.15245" lon="11.3100295"><ele>1226.0</ele><time>2026-04-26T13:10:12.036Z</time></trkpt><trkpt lat="46.1526086" lon="11.3099815"><ele>1225.0</ele><time>2026-04-26T13:10:13.035Z</time></trkpt><trkpt lat="46.1527644" lon="11.3099244"><ele>1224.0</ele><time>2026-04-26T13:10:14.035Z</time></trkpt><trkpt lat="46.1529196" lon="11.3098512"><ele>1223.0</ele><time>2026-04-26T13:10:15.035Z</time></trkpt><trkpt lat="46.1530734" lon="11.3097795"><ele>1215.0</ele><time>2026-04-26T13:10:16.035Z</time></trkpt><trkpt lat="46.1532304" lon="11.3097165"><ele>1207.0</ele><time>2026-04-26T13:10:17.035Z</time></trkpt><trkpt lat="46.1533889" lon="11.309644"><ele>1199.0</ele><time>2026-04-26T13:10:18.035Z</time></trkpt><trkpt lat="46.1535472" lon="11.3095807"><ele>1199.0</ele><time>2026-04-26T13:10:19.035Z</time></trkpt><trkpt lat="46.153702" lon="11.3095189"><ele>1199.0</ele><time>2026-04-26T13:10:20.035Z</time></trkpt><trkpt lat="46.1538574" lon="11.3094532"><ele>1199.0</ele><time>2026-04-26T13:10:21.035Z</time></trkpt><trkpt lat="46.1540105" lon="11.3093847"><ele>1199.25</ele><time>2026-04-26T13:10:22.035Z</time></trkpt><trkpt lat="46.154161" lon="11.3093321"><ele>1199.5</ele><time>2026-04-26T13:10:23.035Z</time></trkpt><trkpt lat="46.1542984" lon="11.3092979"><ele>1199.75</ele><time>2026-04-26T13:10:24.035Z</time></trkpt><trkpt lat="46.1544363" lon="11.3092883"><ele>1200.0</ele><time>2026-04-26T13:10:25.035Z</time></trkpt><trkpt lat="46.154572" lon="11.3092977"><ele>1200.0</ele><time>2026-04-26T13:10:26.035Z</time></trkpt><trkpt lat="46.1547025" lon="11.3093003"><ele>1200.0</ele><time>2026-04-26T13:10:27.035Z</time></trkpt><trkpt lat="46.1548341" lon="11.3092864"><ele>1200.0</ele><time>2026-04-26T13:10:28.035Z</time></trkpt><trkpt lat="46.1549698" lon="11.3092528"><ele>1200.0</ele><time>2026-04-26T13:10:29.035Z</time></trkpt><trkpt lat="46.155099" lon="11.3092049"><ele>1200.75</ele><time>2026-04-26T13:10:30.035Z</time></trkpt><trkpt lat="46.1552323" lon="11.3091593"><ele>1201.5</ele><time>2026-04-26T13:10:31.035Z</time></trkpt><trkpt lat="46.1553726" lon="11.3091247"><ele>1202.25</ele><time>2026-04-26T13:10:32.035Z</time></trkpt><trkpt lat="46.1555143" lon="11.3091268"><ele>1203.0</ele><time>2026-04-26T13:10:33.035Z</time></trkpt><trkpt lat="46.1556501" lon="11.3091503"><ele>1200.5</ele><time>2026-04-26T13:10:34.035Z</time></trkpt><trkpt lat="46.1557823" lon="11.3091948"><ele>1198.0</ele><time>2026-04-26T13:10:35.035Z</time></trkpt><trkpt lat="46.1559109" lon="11.3092583"><ele>1195.5</ele><time>2026-04-26T13:10:36.035Z</time></trkpt><trkpt lat="46.1560283" lon="11.309332"><ele>1193.0</ele><time>2026-04-26T13:10:37.035Z</time></trkpt><trkpt lat="46.1561347" lon="11.309404"><ele>1193.0</ele><time>2026-04-26T13:10:38.035Z</time></trkpt><trkpt lat="46.1562351" lon="11.3094637"><ele>1193.0</ele><time>2026-04-26T13:10:39.035Z</time></trkpt><trkpt lat="46.156322" lon="11.3095181"><ele>1193.0</ele><time>2026-04-26T13:10:40.035Z</time></trkpt><trkpt lat="46.1564001" lon="11.3095592"><ele>1193.0</ele><time>2026-04-26T13:10:41.035Z</time></trkpt><trkpt lat="46.1564691" lon="11.3095512"><ele>1193.0</ele><time>2026-04-26T13:10:42.035Z</time></trkpt><trkpt lat="46.1565449" lon="11.309432"><ele>1193.0</ele><time>2026-04-26T13:10:44.035Z</time></trkpt><trkpt lat="46.1565535" lon="11.3093348"><ele>1193.0</ele><time>2026-04-26T13:10:45.035Z</time></trkpt><trkpt lat="46.1565276" lon="11.3092513"><ele>1193.0</ele><time>2026-04-26T13:10:46.035Z</time></trkpt><trkpt lat="46.1564842" lon="11.3091557"><ele>1193.0</ele><time>2026-04-26T13:10:47.035Z</time></trkpt><trkpt lat="46.1564204" lon="11.309072"><ele>1193.0</ele><time>2026-04-26T13:10:48.035Z</time></trkpt><trkpt lat="46.1563421" lon="11.3089955"><ele>1193.0</ele><time>2026-04-26T13:10:49.035Z</time></trkpt><trkpt lat="46.1562522" lon="11.3089109"><ele>1188.6</ele><time>2026-04-26T13:10:50.035Z</time></trkpt><trkpt lat="46.156163" lon="11.308829"><ele>1184.1999999999998</ele><time>2026-04-26T13:10:51.035Z</time></trkpt><trkpt lat="46.1560763" lon="11.3087499"><ele>1179.8</ele><time>2026-04-26T13:10:52.035Z</time></trkpt><trkpt lat="46.1559945" lon="11.3086706"><ele>1175.3999999999999</ele><time>2026-04-26T13:10:53.035Z</time></trkpt><trkpt lat="46.1559207" lon="11.3086018"><ele>1171.0</ele><time>2026-04-26T13:10:54.035Z</time></trkpt><trkpt lat="46.1558657" lon="11.3085308"><ele>1171.0</ele><time>2026-04-26T13:10:55.035Z</time></trkpt><trkpt lat="46.1558348" lon="11.3084468"><ele>1171.0</ele><time>2026-04-26T13:10:56.035Z</time></trkpt><trkpt lat="46.1558749" lon="11.3082957"><ele>1171.0</ele><time>2026-04-26T13:10:58.035Z</time></trkpt><trkpt lat="46.1560106" lon="11.3082828"><ele>1171.0</ele><time>2026-04-26T13:11:00.035Z</time></trkpt><trkpt lat="46.1560872" lon="11.3083023"><ele>1171.0</ele><time>2026-04-26T13:11:01.036Z</time></trkpt><trkpt lat="46.1561594" lon="11.3083198"><ele>1171.0</ele><time>2026-04-26T13:11:02.035Z</time></trkpt><trkpt lat="46.1562337" lon="11.3083318"><ele>1171.0</ele><time>2026-04-26T13:11:03.035Z</time></trkpt><trkpt lat="46.156296" lon="11.3083054"><ele>1171.0</ele><time>2026-04-26T13:11:04.035Z</time></trkpt><trkpt lat="46.1563811" lon="11.3081797"><ele>1171.0</ele><time>2026-04-26T13:11:06.035Z</time></trkpt><trkpt lat="46.1563778" lon="11.3080823"><ele>1171.0</ele><time>2026-04-26T13:11:07.035Z</time></trkpt><trkpt lat="46.1563464" lon="11.3079859"><ele>1171.0</ele><time>2026-04-26T13:11:08.035Z</time></trkpt><trkpt lat="46.1562884" lon="11.3079038"><ele>1169.0</ele><time>2026-04-26T13:11:09.035Z</time></trkpt><trkpt lat="46.1562071" lon="11.3078169"><ele>1167.0</ele><time>2026-04-26T13:11:10.035Z</time></trkpt><trkpt lat="46.1561212" lon="11.3077356"><ele>1165.0</ele><time>2026-04-26T13:11:11.035Z</time></trkpt><trkpt lat="46.156031" lon="11.3076459"><ele>1163.0</ele><time>2026-04-26T13:11:12.035Z</time></trkpt><trkpt lat="46.1559411" lon="11.3075593"><ele>1161.0</ele><time>2026-04-26T13:11:13.035Z</time></trkpt><trkpt lat="46.1558494" lon="11.3074791"><ele>1161.0</ele><time>2026-04-26T13:11:14.035Z</time></trkpt><trkpt lat="46.1557674" lon="11.3074001"><ele>1161.0</ele><time>2026-04-26T13:11:15.035Z</time></trkpt><trkpt lat="46.1557028" lon="11.3073201"><ele>1161.0</ele><time>2026-04-26T13:11:16.035Z</time></trkpt><trkpt lat="46.1556685" lon="11.3072119"><ele>1161.0</ele><time>2026-04-26T13:11:17.035Z</time></trkpt><trkpt lat="46.155671" lon="11.3071002"><ele>1161.0</ele><time>2026-04-26T13:11:18.035Z</time></trkpt><trkpt lat="46.1556946" lon="11.3069873"><ele>1161.0</ele><time>2026-04-26T13:11:19.035Z</time></trkpt><trkpt lat="46.1557496" lon="11.306891"><ele>1162.3999999999999</ele><time>2026-04-26T13:11:20.035Z</time></trkpt><trkpt lat="46.155824" lon="11.3067921"><ele>1163.8</ele><time>2026-04-26T13:11:21.035Z</time></trkpt><trkpt lat="46.1559065" lon="11.3066939"><ele>1165.1999999999998</ele><time>2026-04-26T13:11:22.035Z</time></trkpt><trkpt lat="46.1559898" lon="11.3065815"><ele>1166.6</ele><time>2026-04-26T13:11:23.035Z</time></trkpt><trkpt lat="46.1560741" lon="11.3064596"><ele>1168.0</ele><time>2026-04-26T13:11:24.035Z</time></trkpt><trkpt lat="46.1561496" lon="11.3063257"><ele>1172.25</ele><time>2026-04-26T13:11:25.035Z</time></trkpt><trkpt lat="46.1562196" lon="11.3061762"><ele>1176.5</ele><time>2026-04-26T13:11:26.035Z</time></trkpt><trkpt lat="46.156287" lon="11.3060167"><ele>1180.75</ele><time>2026-04-26T13:11:27.035Z</time></trkpt><trkpt lat="46.1563579" lon="11.3058479"><ele>1185.0</ele><time>2026-04-26T13:11:28.035Z</time></trkpt><trkpt lat="46.1564413" lon="11.3056753"><ele>1177.5</ele><time>2026-04-26T13:11:29.035Z</time></trkpt><trkpt lat="46.1565364" lon="11.3055188"><ele>1170.0</ele><time>2026-04-26T13:11:30.035Z</time></trkpt><trkpt lat="46.1566465" lon="11.3053781"><ele>1162.5</ele><time>2026-04-26T13:11:31.035Z</time></trkpt><trkpt lat="46.1567761" lon="11.3052683"><ele>1155.0</ele><time>2026-04-26T13:11:32.035Z</time></trkpt><trkpt lat="46.1569122" lon="11.305169"><ele>1155.0</ele><time>2026-04-26T13:11:33.035Z</time></trkpt><trkpt lat="46.1570538" lon="11.3050757"><ele>1155.0</ele><time>2026-04-26T13:11:34.035Z</time></trkpt><trkpt lat="46.1571879" lon="11.3049628"><ele>1155.0</ele><time>2026-04-26T13:11:35.035Z</time></trkpt><trkpt lat="46.1573215" lon="11.3048222"><ele>1148.0</ele><time>2026-04-26T13:11:36.035Z</time></trkpt><trkpt lat="46.157445" lon="11.3046664"><ele>1141.0</ele><time>2026-04-26T13:11:37.035Z</time></trkpt><trkpt lat="46.1575664" lon="11.3044965"><ele>1134.0</ele><time>2026-04-26T13:11:38.035Z</time></trkpt><trkpt lat="46.1576844" lon="11.3043211"><ele>1134.0</ele><time>2026-04-26T13:11:39.035Z</time></trkpt><trkpt lat="46.1578075" lon="11.3041535"><ele>1134.0</ele><time>2026-04-26T13:11:40.035Z</time></trkpt><trkpt lat="46.1579373" lon="11.3039831"><ele>1134.0</ele><time>2026-04-26T13:11:41.035Z</time></trkpt><trkpt lat="46.1580624" lon="11.303814"><ele>1139.0</ele><time>2026-04-26T13:11:42.035Z</time></trkpt><trkpt lat="46.1581837" lon="11.3036415"><ele>1144.0</ele><time>2026-04-26T13:11:43.035Z</time></trkpt><trkpt lat="46.1583044" lon="11.3034698"><ele>1149.0</ele><time>2026-04-26T13:11:44.035Z</time></trkpt><trkpt lat="46.1584258" lon="11.303306"><ele>1143.3333333333333</ele><time>2026-04-26T13:11:45.035Z</time></trkpt><trkpt lat="46.1585432" lon="11.3031445"><ele>1137.6666666666665</ele><time>2026-04-26T13:11:46.036Z</time></trkpt><trkpt lat="46.158656" lon="11.3029862"><ele>1132.0</ele><time>2026-04-26T13:11:47.035Z</time></trkpt><trkpt lat="46.1587575" lon="11.3028313"><ele>1132.0</ele><time>2026-04-26T13:11:48.035Z</time></trkpt><trkpt lat="46.1588523" lon="11.3026815"><ele>1132.0</ele><time>2026-04-26T13:11:49.035Z</time></trkpt><trkpt lat="46.1589416" lon="11.3025305"><ele>1132.0</ele><time>2026-04-26T13:11:50.035Z</time></trkpt><trkpt lat="46.1590361" lon="11.3024005"><ele>1132.0</ele><time>2026-04-26T13:11:51.035Z</time></trkpt><trkpt lat="46.1591401" lon="11.3022789"><ele>1120.5</ele><time>2026-04-26T13:11:52.035Z</time></trkpt><trkpt lat="46.1592489" lon="11.3021879"><ele>1109.0</ele><time>2026-04-26T13:11:53.035Z</time></trkpt><trkpt lat="46.1593619" lon="11.3021077"><ele>1097.5</ele><time>2026-04-26T13:11:54.035Z</time></trkpt><trkpt lat="46.1594713" lon="11.3020329"><ele>1086.0</ele><time>2026-04-26T13:11:55.035Z</time></trkpt><trkpt lat="46.1595713" lon="11.3019566"><ele>1086.0</ele><time>2026-04-26T13:11:56.035Z</time></trkpt><trkpt lat="46.159663" lon="11.3018733"><ele>1086.0</ele><time>2026-04-26T13:11:57.035Z</time></trkpt><trkpt lat="46.1597438" lon="11.3017737"><ele>1086.0</ele><time>2026-04-26T13:11:58.035Z</time></trkpt><trkpt lat="46.1598162" lon="11.3016563"><ele>1086.0</ele><time>2026-04-26T13:11:59.035Z</time></trkpt><trkpt lat="46.1598689" lon="11.3015143"><ele>1086.0</ele><time>2026-04-26T13:12:00.035Z</time></trkpt><trkpt lat="46.159915" lon="11.3013685"><ele>1082.0</ele><time>2026-04-26T13:12:01.035Z</time></trkpt><trkpt lat="46.1599558" lon="11.3012189"><ele>1078.0</ele><time>2026-04-26T13:12:02.035Z</time></trkpt><trkpt lat="46.1599959" lon="11.3010637"><ele>1074.0</ele><time>2026-04-26T13:12:03.035Z</time></trkpt><trkpt lat="46.1600286" lon="11.3009153"><ele>1070.0</ele><time>2026-04-26T13:12:04.035Z</time></trkpt><trkpt lat="46.1600531" lon="11.3007785"><ele>1066.0</ele><time>2026-04-26T13:12:05.035Z</time></trkpt><trkpt lat="46.1600672" lon="11.3006292"><ele>1064.3999999999999</ele><time>2026-04-26T13:12:06.035Z</time></trkpt><trkpt lat="46.1600656" lon="11.3004865"><ele>1062.8</ele><time>2026-04-26T13:12:07.035Z</time></trkpt><trkpt lat="46.1600546" lon="11.300342"><ele>1061.1999999999998</ele><time>2026-04-26T13:12:08.035Z</time></trkpt><trkpt lat="46.1600359" lon="11.3002043"><ele>1059.6</ele><time>2026-04-26T13:12:09.035Z</time></trkpt><trkpt lat="46.1600085" lon="11.3000833"><ele>1058.0</ele><time>2026-04-26T13:12:10.035Z</time></trkpt><trkpt lat="46.1599904" lon="11.299972"><ele>1058.0</ele><time>2026-04-26T13:12:11.035Z</time></trkpt><trkpt lat="46.1599788" lon="11.2998245"><ele>1058.0</ele><time>2026-04-26T13:12:13.035Z</time></trkpt><trkpt lat="46.1600246" lon="11.299758"><ele>1058.0</ele><time>2026-04-26T13:12:16.035Z</time></trkpt><trkpt lat="46.1600755" lon="11.2998448"><ele>1058.0</ele><time>2026-04-26T13:12:19.035Z</time></trkpt><trkpt lat="46.1601089" lon="11.2999977"><ele>1058.0</ele><time>2026-04-26T13:12:21.035Z</time></trkpt><trkpt lat="46.160124" lon="11.3000872"><ele>1058.0</ele><time>2026-04-26T13:12:22.035Z</time></trkpt><trkpt lat="46.160143" lon="11.3001906"><ele>1058.0</ele><time>2026-04-26T13:12:23.035Z</time></trkpt><trkpt lat="46.1601577" lon="11.3003161"><ele>1058.0</ele><time>2026-04-26T13:12:24.035Z</time></trkpt><trkpt lat="46.1601641" lon="11.3004506"><ele>1058.0</ele><time>2026-04-26T13:12:25.035Z</time></trkpt><trkpt lat="46.160161" lon="11.3005712"><ele>1058.0</ele><time>2026-04-26T13:12:26.035Z</time></trkpt><trkpt lat="46.1601512" lon="11.3007015"><ele>1058.0</ele><time>2026-04-26T13:12:27.035Z</time></trkpt><trkpt lat="46.1601316" lon="11.3008421"><ele>1059.6</ele><time>2026-04-26T13:12:28.035Z</time></trkpt><trkpt lat="46.1601084" lon="11.3009876"><ele>1061.1999999999998</ele><time>2026-04-26T13:12:29.035Z</time></trkpt><trkpt lat="46.1600837" lon="11.3011324"><ele>1062.8</ele><time>2026-04-26T13:12:30.035Z</time></trkpt><trkpt lat="46.1600569" lon="11.3012843"><ele>1064.3999999999999</ele><time>2026-04-26T13:12:31.035Z</time></trkpt><trkpt lat="46.1600311" lon="11.3014291"><ele>1066.0</ele><time>2026-04-26T13:12:32.035Z</time></trkpt><trkpt lat="46.1600077" lon="11.3015723"><ele>1066.0</ele><time>2026-04-26T13:12:33.035Z</time></trkpt><trkpt lat="46.159988" lon="11.3017037"><ele>1066.0</ele><time>2026-04-26T13:12:34.035Z</time></trkpt><trkpt lat="46.1599656" lon="11.3018295"><ele>1066.0</ele><time>2026-04-26T13:12:35.035Z</time></trkpt><trkpt lat="46.1599492" lon="11.3019501"><ele>1066.0</ele><time>2026-04-26T13:12:36.035Z</time></trkpt><trkpt lat="46.1599491" lon="11.3020594"><ele>1066.0</ele><time>2026-04-26T13:12:37.035Z</time></trkpt><trkpt lat="46.1599728" lon="11.3021628"><ele>1066.0</ele><time>2026-04-26T13:12:38.036Z</time></trkpt><trkpt lat="46.1600158" lon="11.3022594"><ele>1066.8333333333333</ele><time>2026-04-26T13:12:39.035Z</time></trkpt><trkpt lat="46.1600715" lon="11.3023353"><ele>1067.6666666666665</ele><time>2026-04-26T13:12:40.035Z</time></trkpt><trkpt lat="46.1601461" lon="11.3023738"><ele>1068.5</ele><time>2026-04-26T13:12:41.034Z</time></trkpt><trkpt lat="46.1602128" lon="11.302381"><ele>1069.3333333333333</ele><time>2026-04-26T13:12:42.034Z</time></trkpt><trkpt lat="46.1602917" lon="11.302368"><ele>1070.1666666666667</ele><time>2026-04-26T13:12:43.034Z</time></trkpt><trkpt lat="46.1603699" lon="11.3023519"><ele>1071.0</ele><time>2026-04-26T13:12:44.034Z</time></trkpt><trkpt lat="46.1604508" lon="11.3023369"><ele>1071.0</ele><time>2026-04-26T13:12:45.034Z</time></trkpt><trkpt lat="46.1605369" lon="11.3023449"><ele>1071.0</ele><time>2026-04-26T13:12:46.034Z</time></trkpt><trkpt lat="46.1606219" lon="11.3023529"><ele>1071.0</ele><time>2026-04-26T13:12:47.035Z</time></trkpt><trkpt lat="46.1607073" lon="11.3023747"><ele>1071.0</ele><time>2026-04-26T13:12:48.034Z</time></trkpt><trkpt lat="46.1607954" lon="11.3024132"><ele>1071.0</ele><time>2026-04-26T13:12:49.034Z</time></trkpt><trkpt lat="46.1608834" lon="11.3024781"><ele>1071.0</ele><time>2026-04-26T13:12:50.034Z</time></trkpt><trkpt lat="46.1609698" lon="11.3025519"><ele>1069.3999999999999</ele><time>2026-04-26T13:12:51.034Z</time></trkpt><trkpt lat="46.1610611" lon="11.302642"><ele>1067.8</ele><time>2026-04-26T13:12:52.034Z</time></trkpt><trkpt lat="46.1611459" lon="11.302738"><ele>1066.1999999999998</ele><time>2026-04-26T13:12:53.034Z</time></trkpt><trkpt lat="46.1612331" lon="11.3028461"><ele>1064.6</ele><time>2026-04-26T13:12:54.034Z</time></trkpt><trkpt lat="46.1613215" lon="11.3029445"><ele>1063.0</ele><time>2026-04-26T13:12:55.034Z</time></trkpt><trkpt lat="46.1614084" lon="11.3030493"><ele>1063.0</ele><time>2026-04-26T13:12:56.034Z</time></trkpt><trkpt lat="46.1614965" lon="11.3031516"><ele>1063.0</ele><time>2026-04-26T13:12:57.034Z</time></trkpt><trkpt lat="46.1615873" lon="11.3032657"><ele>1063.0</ele><time>2026-04-26T13:12:58.034Z</time></trkpt><trkpt lat="46.1616742" lon="11.3033884"><ele>1063.0</ele><time>2026-04-26T13:12:59.034Z</time></trkpt><trkpt lat="46.1617519" lon="11.3035361"><ele>1063.0</ele><time>2026-04-26T13:13:00.034Z</time></trkpt><trkpt lat="46.1618187" lon="11.3036923"><ele>1063.0</ele><time>2026-04-26T13:13:01.034Z</time></trkpt><trkpt lat="46.1618813" lon="11.3038598"><ele>1063.0</ele><time>2026-04-26T13:13:02.034Z</time></trkpt><trkpt lat="46.1619447" lon="11.3040359"><ele>1063.0</ele><time>2026-04-26T13:13:03.034Z</time></trkpt><trkpt lat="46.1619991" lon="11.3042214"><ele>1065.0</ele><time>2026-04-26T13:13:04.034Z</time></trkpt><trkpt lat="46.1620586" lon="11.3044064"><ele>1067.0</ele><time>2026-04-26T13:13:05.034Z</time></trkpt><trkpt lat="46.1621204" lon="11.30459"><ele>1069.0</ele><time>2026-04-26T13:13:06.034Z</time></trkpt><trkpt lat="46.1621831" lon="11.3047766"><ele>1071.0</ele><time>2026-04-26T13:13:07.034Z</time></trkpt><trkpt lat="46.1622474" lon="11.3049719"><ele>1072.3333333333333</ele><time>2026-04-26T13:13:08.034Z</time></trkpt><trkpt lat="46.1623145" lon="11.3051763"><ele>1073.6666666666665</ele><time>2026-04-26T13:13:09.034Z</time></trkpt><trkpt lat="46.1623841" lon="11.3053841"><ele>1075.0</ele><time>2026-04-26T13:13:10.034Z</time></trkpt><trkpt lat="46.1624579" lon="11.3055908"><ele>1076.6666666666665</ele><time>2026-04-26T13:13:11.034Z</time></trkpt><trkpt lat="46.1625388" lon="11.3057882"><ele>1078.3333333333333</ele><time>2026-04-26T13:13:12.034Z</time></trkpt><trkpt lat="46.1626429" lon="11.3059775"><ele>1080.0</ele><time>2026-04-26T13:13:13.034Z</time></trkpt><trkpt lat="46.1627607" lon="11.3061509"><ele>1080.0</ele><time>2026-04-26T13:13:14.034Z</time></trkpt><trkpt lat="46.1628922" lon="11.3063174"><ele>1080.0</ele><time>2026-04-26T13:13:15.034Z</time></trkpt><trkpt lat="46.1630272" lon="11.3064712"><ele>1080.0</ele><time>2026-04-26T13:13:16.035Z</time></trkpt><trkpt lat="46.1631614" lon="11.3066203"><ele>1075.6666666666667</ele><time>2026-04-26T13:13:17.034Z</time></trkpt><trkpt lat="46.1633057" lon="11.306748"><ele>1071.3333333333335</ele><time>2026-04-26T13:13:18.034Z</time></trkpt><trkpt lat="46.1634684" lon="11.3068585"><ele>1067.0</ele><time>2026-04-26T13:13:19.034Z</time></trkpt><trkpt lat="46.163628" lon="11.3069618"><ele>1067.0</ele><time>2026-04-26T13:13:20.034Z</time></trkpt><trkpt lat="46.1637856" lon="11.3070737"><ele>1067.0</ele><time>2026-04-26T13:13:21.035Z</time></trkpt><trkpt lat="46.1639473" lon="11.3071837"><ele>1067.0</ele><time>2026-04-26T13:13:22.034Z</time></trkpt><trkpt lat="46.16411" lon="11.3072886"><ele>1069.3333333333335</ele><time>2026-04-26T13:13:23.035Z</time></trkpt><trkpt lat="46.1642707" lon="11.3073956"><ele>1071.6666666666667</ele><time>2026-04-26T13:13:24.034Z</time></trkpt><trkpt lat="46.1644353" lon="11.3075066"><ele>1074.0</ele><time>2026-04-26T13:13:25.034Z</time></trkpt><trkpt lat="46.1645855" lon="11.3076309"><ele>1074.0</ele><time>2026-04-26T13:13:26.034Z</time></trkpt><trkpt lat="46.1647209" lon="11.3077805"><ele>1074.0</ele><time>2026-04-26T13:13:27.034Z</time></trkpt><trkpt lat="46.1648306" lon="11.3079593"><ele>1074.0</ele><time>2026-04-26T13:13:28.034Z</time></trkpt><trkpt lat="46.1649166" lon="11.3081565"><ele>1078.3333333333333</ele><time>2026-04-26T13:13:29.034Z</time></trkpt><trkpt lat="46.165008" lon="11.3083676"><ele>1082.6666666666665</ele><time>2026-04-26T13:13:30.034Z</time></trkpt><trkpt lat="46.1651058" lon="11.3085662"><ele>1087.0</ele><time>2026-04-26T13:13:31.035Z</time></trkpt><trkpt lat="46.1652252" lon="11.3087527"><ele>1096.3333333333333</ele><time>2026-04-26T13:13:32.034Z</time></trkpt><trkpt lat="46.165351" lon="11.308928"><ele>1105.6666666666667</ele><time>2026-04-26T13:13:33.034Z</time></trkpt><trkpt lat="46.1654818" lon="11.3090926"><ele>1115.0</ele><time>2026-04-26T13:13:34.034Z</time></trkpt><trkpt lat="46.1656193" lon="11.3092418"><ele>1104.3333333333335</ele><time>2026-04-26T13:13:35.034Z</time></trkpt><trkpt lat="46.1657651" lon="11.3093677"><ele>1093.6666666666667</ele><time>2026-04-26T13:13:36.034Z</time></trkpt><trkpt lat="46.1659207" lon="11.3094718"><ele>1083.0</ele><time>2026-04-26T13:13:37.034Z</time></trkpt><trkpt lat="46.166086" lon="11.3095553"><ele>1083.0</ele><time>2026-04-26T13:13:38.035Z</time></trkpt><trkpt lat="46.1662476" lon="11.3096326"><ele>1083.0</ele><time>2026-04-26T13:13:39.034Z</time></trkpt><trkpt lat="46.1664123" lon="11.3097118"><ele>1083.0</ele><time>2026-04-26T13:13:40.034Z</time></trkpt><trkpt lat="46.1665781" lon="11.3097907"><ele>1085.3333333333333</ele><time>2026-04-26T13:13:41.034Z</time></trkpt><trkpt lat="46.1667389" lon="11.3098721"><ele>1087.6666666666665</ele><time>2026-04-26T13:13:42.034Z</time></trkpt><trkpt lat="46.1668994" lon="11.3099514"><ele>1090.0</ele><time>2026-04-26T13:13:43.034Z</time></trkpt><trkpt lat="46.1670623" lon="11.3100325"><ele>1090.0</ele><time>2026-04-26T13:13:44.035Z</time></trkpt><trkpt lat="46.1672254" lon="11.3101115"><ele>1090.0</ele><time>2026-04-26T13:13:45.034Z</time></trkpt><trkpt lat="46.1673823" lon="11.3101883"><ele>1090.0</ele><time>2026-04-26T13:13:46.035Z</time></trkpt><trkpt lat="46.1675394" lon="11.3102708"><ele>1084.3333333333333</ele><time>2026-04-26T13:13:47.034Z</time></trkpt><trkpt lat="46.1676936" lon="11.3103453"><ele>1078.6666666666667</ele><time>2026-04-26T13:13:48.034Z</time></trkpt><trkpt lat="46.1678438" lon="11.3104245"><ele>1073.0</ele><time>2026-04-26T13:13:49.034Z</time></trkpt><trkpt lat="46.1679812" lon="11.3105274"><ele>1076.3333333333335</ele><time>2026-04-26T13:13:50.034Z</time></trkpt><trkpt lat="46.1680996" lon="11.3106654"><ele>1079.6666666666667</ele><time>2026-04-26T13:13:51.034Z</time></trkpt><trkpt lat="46.1682071" lon="11.3108407"><ele>1083.0</ele><time>2026-04-26T13:13:52.034Z</time></trkpt><trkpt lat="46.1683024" lon="11.3110247"><ele>1083.0</ele><time>2026-04-26T13:13:53.034Z</time></trkpt><trkpt lat="46.1683836" lon="11.3112202"><ele>1083.0</ele><time>2026-04-26T13:13:54.034Z</time></trkpt><trkpt lat="46.1684645" lon="11.3114268"><ele>1083.0</ele><time>2026-04-26T13:13:55.034Z</time></trkpt><trkpt lat="46.1685414" lon="11.3116138"><ele>1083.75</ele><time>2026-04-26T13:13:56.034Z</time></trkpt><trkpt lat="46.1686261" lon="11.3117946"><ele>1084.5</ele><time>2026-04-26T13:13:57.034Z</time></trkpt><trkpt lat="46.1687263" lon="11.3119444"><ele>1085.25</ele><time>2026-04-26T13:13:58.034Z</time></trkpt><trkpt lat="46.1688368" lon="11.3120704"><ele>1086.0</ele><time>2026-04-26T13:13:59.034Z</time></trkpt><trkpt lat="46.1689637" lon="11.3121657"><ele>1086.3333333333333</ele><time>2026-04-26T13:14:00.034Z</time></trkpt><trkpt lat="46.1691074" lon="11.3122178"><ele>1086.6666666666665</ele><time>2026-04-26T13:14:01.034Z</time></trkpt><trkpt lat="46.1692587" lon="11.312245"><ele>1087.0</ele><time>2026-04-26T13:14:02.034Z</time></trkpt><trkpt lat="46.1694154" lon="11.3122603"><ele>1087.0</ele><time>2026-04-26T13:14:03.034Z</time></trkpt><trkpt lat="46.16957" lon="11.3122897"><ele>1087.0</ele><time>2026-04-26T13:14:04.034Z</time></trkpt><trkpt lat="46.1697134" lon="11.312363"><ele>1087.0</ele><time>2026-04-26T13:14:05.035Z</time></trkpt><trkpt lat="46.1698532" lon="11.3124766"><ele>1087.0</ele><time>2026-04-26T13:14:06.034Z</time></trkpt><trkpt lat="46.1699747" lon="11.3126253"><ele>1087.0</ele><time>2026-04-26T13:14:07.034Z</time></trkpt><trkpt lat="46.1700949" lon="11.3127943"><ele>1087.0</ele><time>2026-04-26T13:14:08.034Z</time></trkpt><trkpt lat="46.1702155" lon="11.31297"><ele>1091.0</ele><time>2026-04-26T13:14:09.034Z</time></trkpt><trkpt lat="46.1703355" lon="11.3131394"><ele>1095.0</ele><time>2026-04-26T13:14:10.034Z</time></trkpt><trkpt lat="46.1704599" lon="11.313305"><ele>1099.0</ele><time>2026-04-26T13:14:11.034Z</time></trkpt><trkpt lat="46.1705853" lon="11.3134757"><ele>1096.3333333333333</ele><time>2026-04-26T13:14:12.034Z</time></trkpt><trkpt lat="46.1707128" lon="11.3136462"><ele>1093.6666666666667</ele><time>2026-04-26T13:14:13.034Z</time></trkpt><trkpt lat="46.1708398" lon="11.3138149"><ele>1091.0</ele><time>2026-04-26T13:14:14.034Z</time></trkpt><trkpt lat="46.1709672" lon="11.3139919"><ele>1098.3333333333335</ele><time>2026-04-26T13:14:15.034Z</time></trkpt><trkpt lat="46.1710932" lon="11.3141693"><ele>1105.6666666666667</ele><time>2026-04-26T13:14:16.034Z</time></trkpt><trkpt lat="46.1712161" lon="11.3143353"><ele>1113.0</ele><time>2026-04-26T13:14:17.034Z</time></trkpt><trkpt lat="46.1713437" lon="11.3144861"><ele>1113.0</ele><time>2026-04-26T13:14:18.034Z</time></trkpt><trkpt lat="46.1714819" lon="11.3146172"><ele>1113.0</ele><time>2026-04-26T13:14:19.034Z</time></trkpt><trkpt lat="46.1716237" lon="11.3147178"><ele>1113.0</ele><time>2026-04-26T13:14:20.034Z</time></trkpt><trkpt lat="46.1717547" lon="11.3148138"><ele>1108.6666666666667</ele><time>2026-04-26T13:14:21.034Z</time></trkpt><trkpt lat="46.1718858" lon="11.3149385"><ele>1104.3333333333335</ele><time>2026-04-26T13:14:22.034Z</time></trkpt><trkpt lat="46.1719881" lon="11.3150996"><ele>1100.0</ele><time>2026-04-26T13:14:23.034Z</time></trkpt><trkpt lat="46.1720578" lon="11.3152964"><ele>1100.0</ele><time>2026-04-26T13:14:24.034Z</time></trkpt><trkpt lat="46.1720957" lon="11.3155196"><ele>1100.0</ele><time>2026-04-26T13:14:25.034Z</time></trkpt><trkpt lat="46.1721389" lon="11.3157311"><ele>1100.0</ele><time>2026-04-26T13:14:26.034Z</time></trkpt><trkpt lat="46.1721869" lon="11.315945"><ele>1099.3333333333335</ele><time>2026-04-26T13:14:27.034Z</time></trkpt><trkpt lat="46.1722594" lon="11.3161413"><ele>1098.6666666666667</ele><time>2026-04-26T13:14:28.034Z</time></trkpt><trkpt lat="46.1723569" lon="11.3163263"><ele>1098.0</ele><time>2026-04-26T13:14:29.034Z</time></trkpt><trkpt lat="46.1724651" lon="11.3164946"><ele>1098.0</ele><time>2026-04-26T13:14:30.035Z</time></trkpt><trkpt lat="46.172581" lon="11.3166656"><ele>1098.0</ele><time>2026-04-26T13:14:31.034Z</time></trkpt><trkpt lat="46.1727008" lon="11.3168375"><ele>1098.0</ele><time>2026-04-26T13:14:32.034Z</time></trkpt><trkpt lat="46.1728221" lon="11.3170115"><ele>1098.0</ele><time>2026-04-26T13:14:33.034Z</time></trkpt><trkpt lat="46.1729397" lon="11.3171836"><ele>1098.0</ele><time>2026-04-26T13:14:34.034Z</time></trkpt><trkpt lat="46.1730581" lon="11.3173593"><ele>1098.0</ele><time>2026-04-26T13:14:35.034Z</time></trkpt><trkpt lat="46.1731799" lon="11.3175358"><ele>1097.6666666666667</ele><time>2026-04-26T13:14:36.034Z</time></trkpt><trkpt lat="46.1733049" lon="11.317714"><ele>1097.3333333333335</ele><time>2026-04-26T13:14:37.034Z</time></trkpt><trkpt lat="46.1734268" lon="11.3178912"><ele>1097.0</ele><time>2026-04-26T13:14:38.034Z</time></trkpt><trkpt lat="46.1735486" lon="11.3180702"><ele>1103.0</ele><time>2026-04-26T13:14:39.035Z</time></trkpt><trkpt lat="46.1736737" lon="11.3182388"><ele>1109.0</ele><time>2026-04-26T13:14:40.034Z</time></trkpt><trkpt lat="46.1738096" lon="11.3183934"><ele>1115.0</ele><time>2026-04-26T13:14:41.034Z</time></trkpt><trkpt lat="46.1739621" lon="11.3185089"><ele>1110.0</ele><time>2026-04-26T13:14:42.034Z</time></trkpt><trkpt lat="46.1741155" lon="11.3186069"><ele>1105.0</ele><time>2026-04-26T13:14:43.034Z</time></trkpt><trkpt lat="46.1742774" lon="11.3186915"><ele>1100.0</ele><time>2026-04-26T13:14:44.034Z</time></trkpt><trkpt lat="46.174426" lon="11.3187925"><ele>1103.6666666666667</ele><time>2026-04-26T13:14:45.034Z</time></trkpt><trkpt lat="46.1745639" lon="11.3189142"><ele>1107.3333333333333</ele><time>2026-04-26T13:14:46.034Z</time></trkpt><trkpt lat="46.1746851" lon="11.3190794"><ele>1111.0</ele><time>2026-04-26T13:14:47.035Z</time></trkpt><trkpt lat="46.1747888" lon="11.3192634"><ele>1108.3333333333333</ele><time>2026-04-26T13:14:48.034Z</time></trkpt><trkpt lat="46.1748874" lon="11.3194511"><ele>1105.6666666666667</ele><time>2026-04-26T13:14:49.034Z</time></trkpt><trkpt lat="46.1749881" lon="11.319642"><ele>1103.0</ele><time>2026-04-26T13:14:50.034Z</time></trkpt><trkpt lat="46.1750886" lon="11.3198343"><ele>1103.0</ele><time>2026-04-26T13:14:51.034Z</time></trkpt><trkpt lat="46.1751836" lon="11.3200357"><ele>1103.0</ele><time>2026-04-26T13:14:52.034Z</time></trkpt><trkpt lat="46.1752693" lon="11.3202471"><ele>1103.0</ele><time>2026-04-26T13:14:53.034Z</time></trkpt><trkpt lat="46.1753399" lon="11.3204692"><ele>1107.6666666666667</ele><time>2026-04-26T13:14:54.034Z</time></trkpt><trkpt lat="46.1753958" lon="11.3206906"><ele>1112.3333333333333</ele><time>2026-04-26T13:14:55.034Z</time></trkpt><trkpt lat="46.1754582" lon="11.320908"><ele>1117.0</ele><time>2026-04-26T13:14:56.034Z</time></trkpt><trkpt lat="46.1755284" lon="11.3211116"><ele>1117.0</ele><time>2026-04-26T13:14:57.034Z</time></trkpt><trkpt lat="46.1756157" lon="11.3213018"><ele>1117.0</ele><time>2026-04-26T13:14:58.034Z</time></trkpt><trkpt lat="46.1757266" lon="11.3214642"><ele>1117.0</ele><time>2026-04-26T13:14:59.034Z</time></trkpt><trkpt lat="46.1758474" lon="11.3216244"><ele>1113.3333333333333</ele><time>2026-04-26T13:15:00.034Z</time></trkpt><trkpt lat="46.1759818" lon="11.3217721"><ele>1109.6666666666667</ele><time>2026-04-26T13:15:01.034Z</time></trkpt><trkpt lat="46.1761202" lon="11.3219167"><ele>1106.0</ele><time>2026-04-26T13:15:02.034Z</time></trkpt><trkpt lat="46.1762562" lon="11.3220684"><ele>1106.0</ele><time>2026-04-26T13:15:03.034Z</time></trkpt><trkpt lat="46.176389" lon="11.3222274"><ele>1106.0</ele><time>2026-04-26T13:15:04.035Z</time></trkpt><trkpt lat="46.1765157" lon="11.3224004"><ele>1106.0</ele><time>2026-04-26T13:15:05.034Z</time></trkpt><trkpt lat="46.1766301" lon="11.322585"><ele>1105.0</ele><time>2026-04-26T13:15:06.034Z</time></trkpt><trkpt lat="46.1767413" lon="11.3227772"><ele>1104.0</ele><time>2026-04-26T13:15:07.034Z</time></trkpt><trkpt lat="46.176859" lon="11.3229685"><ele>1103.0</ele><time>2026-04-26T13:15:08.034Z</time></trkpt><trkpt lat="46.1769746" lon="11.323155"><ele>1111.0</ele><time>2026-04-26T13:15:09.034Z</time></trkpt><trkpt lat="46.1770868" lon="11.3233455"><ele>1119.0</ele><time>2026-04-26T13:15:10.034Z</time></trkpt><trkpt lat="46.1772015" lon="11.3235307"><ele>1127.0</ele><time>2026-04-26T13:15:11.034Z</time></trkpt><trkpt lat="46.1773189" lon="11.3237141"><ele>1124.6666666666667</ele><time>2026-04-26T13:15:12.035Z</time></trkpt><trkpt lat="46.1774362" lon="11.3238951"><ele>1122.3333333333333</ele><time>2026-04-26T13:15:13.034Z</time></trkpt><trkpt lat="46.1775551" lon="11.3240658"><ele>1120.0</ele><time>2026-04-26T13:15:14.034Z</time></trkpt><trkpt lat="46.1776809" lon="11.3242321"><ele>1120.0</ele><time>2026-04-26T13:15:15.034Z</time></trkpt><trkpt lat="46.1778159" lon="11.3243815"><ele>1120.0</ele><time>2026-04-26T13:15:16.034Z</time></trkpt><trkpt lat="46.1779614" lon="11.324502"><ele>1120.0</ele><time>2026-04-26T13:15:17.034Z</time></trkpt><trkpt lat="46.1781137" lon="11.324604"><ele>1119.3333333333333</ele><time>2026-04-26T13:15:18.035Z</time></trkpt><trkpt lat="46.1782637" lon="11.3246999"><ele>1118.6666666666667</ele><time>2026-04-26T13:15:19.034Z</time></trkpt><trkpt lat="46.1784081" lon="11.3247983"><ele>1118.0</ele><time>2026-04-26T13:15:20.034Z</time></trkpt><trkpt lat="46.1785424" lon="11.3248958"><ele>1118.0</ele><time>2026-04-26T13:15:21.034Z</time></trkpt><trkpt lat="46.1786784" lon="11.3249915"><ele>1118.0</ele><time>2026-04-26T13:15:22.034Z</time></trkpt><trkpt lat="46.1788068" lon="11.3250771"><ele>1118.0</ele><time>2026-04-26T13:15:23.034Z</time></trkpt><trkpt lat="46.1789364" lon="11.3251606"><ele>1118.0</ele><time>2026-04-26T13:15:24.034Z</time></trkpt><trkpt lat="46.1790624" lon="11.3252369"><ele>1112.25</ele><time>2026-04-26T13:15:25.034Z</time></trkpt><trkpt lat="46.1791945" lon="11.3252977"><ele>1106.5</ele><time>2026-04-26T13:15:26.034Z</time></trkpt><trkpt lat="46.1793284" lon="11.3253472"><ele>1100.75</ele><time>2026-04-26T13:15:27.034Z</time></trkpt><trkpt lat="46.1794653" lon="11.3253951"><ele>1095.0</ele><time>2026-04-26T13:15:28.034Z</time></trkpt><trkpt lat="46.1795984" lon="11.3254489"><ele>1095.0</ele><time>2026-04-26T13:15:29.034Z</time></trkpt><trkpt lat="46.1797345" lon="11.3254972"><ele>1095.0</ele><time>2026-04-26T13:15:30.034Z</time></trkpt><trkpt lat="46.1798666" lon="11.325544"><ele>1095.0</ele><time>2026-04-26T13:15:31.034Z</time></trkpt><trkpt lat="46.1799965" lon="11.3256005"><ele>1095.0</ele><time>2026-04-26T13:15:32.034Z</time></trkpt><trkpt lat="46.180119" lon="11.325673"><ele>1098.25</ele><time>2026-04-26T13:15:33.034Z</time></trkpt><trkpt lat="46.1802314" lon="11.3257535"><ele>1101.5</ele><time>2026-04-26T13:15:34.034Z</time></trkpt><trkpt lat="46.180335" lon="11.3258516"><ele>1104.75</ele><time>2026-04-26T13:15:35.034Z</time></trkpt><trkpt lat="46.1804368" lon="11.3259573"><ele>1108.0</ele><time>2026-04-26T13:15:36.034Z</time></trkpt><trkpt lat="46.1805314" lon="11.326069"><ele>1108.0</ele><time>2026-04-26T13:15:37.035Z</time></trkpt><trkpt lat="46.1806196" lon="11.3261697"><ele>1108.0</ele><time>2026-04-26T13:15:38.034Z</time></trkpt><trkpt lat="46.1807175" lon="11.3262379"><ele>1108.0</ele><time>2026-04-26T13:15:39.034Z</time></trkpt><trkpt lat="46.180821" lon="11.3262805"><ele>1108.0</ele><time>2026-04-26T13:15:40.034Z</time></trkpt><trkpt lat="46.1809302" lon="11.3262811"><ele>1108.0</ele><time>2026-04-26T13:15:41.034Z</time></trkpt><trkpt lat="46.1810405" lon="11.3262609"><ele>1107.2</ele><time>2026-04-26T13:15:42.034Z</time></trkpt><trkpt lat="46.1811529" lon="11.3262235"><ele>1106.4</ele><time>2026-04-26T13:15:43.034Z</time></trkpt><trkpt lat="46.181264" lon="11.3261814"><ele>1105.6000000000001</ele><time>2026-04-26T13:15:44.034Z</time></trkpt><trkpt lat="46.1813669" lon="11.3261455"><ele>1104.8</ele><time>2026-04-26T13:15:45.034Z</time></trkpt><trkpt lat="46.1814743" lon="11.3261122"><ele>1104.0</ele><time>2026-04-26T13:15:46.034Z</time></trkpt><trkpt lat="46.1815826" lon="11.3260769"><ele>1104.0</ele><time>2026-04-26T13:15:47.034Z</time></trkpt><trkpt lat="46.1816915" lon="11.3260413"><ele>1104.0</ele><time>2026-04-26T13:15:48.034Z</time></trkpt><trkpt lat="46.1818073" lon="11.3260083"><ele>1104.0</ele><time>2026-04-26T13:15:49.034Z</time></trkpt><trkpt lat="46.1819229" lon="11.3259783"><ele>1104.0</ele><time>2026-04-26T13:15:50.034Z</time></trkpt><trkpt lat="46.1820326" lon="11.3259622"><ele>1104.0</ele><time>2026-04-26T13:15:51.034Z</time></trkpt><trkpt lat="46.1821353" lon="11.3259492"><ele>1104.0</ele><time>2026-04-26T13:15:52.034Z</time></trkpt><trkpt lat="46.1822387" lon="11.3259545"><ele>1104.0</ele><time>2026-04-26T13:15:53.034Z</time></trkpt><trkpt lat="46.1823377" lon="11.3259627"><ele>1104.0</ele><time>2026-04-26T13:15:54.034Z</time></trkpt><trkpt lat="46.1824325" lon="11.3259688"><ele>1104.0</ele><time>2026-04-26T13:15:55.034Z</time></trkpt><trkpt lat="46.1825252" lon="11.3259805"><ele>1105.0</ele><time>2026-04-26T13:15:56.034Z</time></trkpt><trkpt lat="46.1826172" lon="11.3259991"><ele>1106.0</ele><time>2026-04-26T13:15:57.034Z</time></trkpt><trkpt lat="46.1827171" lon="11.3260192"><ele>1107.0</ele><time>2026-04-26T13:15:58.035Z</time></trkpt><trkpt lat="46.1828203" lon="11.3260348"><ele>1108.0</ele><time>2026-04-26T13:15:59.034Z</time></trkpt><trkpt lat="46.1829257" lon="11.3260488"><ele>1109.0</ele><time>2026-04-26T13:16:00.034Z</time></trkpt><trkpt lat="46.1830357" lon="11.3260619"><ele>1109.0</ele><time>2026-04-26T13:16:01.034Z</time></trkpt><trkpt lat="46.1831467" lon="11.3260934"><ele>1109.0</ele><time>2026-04-26T13:16:02.034Z</time></trkpt><trkpt lat="46.1832551" lon="11.3261425"><ele>1109.0</ele><time>2026-04-26T13:16:03.034Z</time></trkpt><trkpt lat="46.1833624" lon="11.3262259"><ele>1109.0</ele><time>2026-04-26T13:16:04.034Z</time></trkpt><trkpt lat="46.1834713" lon="11.3263255"><ele>1109.0</ele><time>2026-04-26T13:16:05.034Z</time></trkpt><trkpt lat="46.1835607" lon="11.3264489"><ele>1109.0</ele><time>2026-04-26T13:16:06.034Z</time></trkpt><trkpt lat="46.1836382" lon="11.3265757"><ele>1109.0</ele><time>2026-04-26T13:16:07.034Z</time></trkpt><trkpt lat="46.183702" lon="11.3267247"><ele>1109.0</ele><time>2026-04-26T13:16:08.034Z</time></trkpt><trkpt lat="46.1837453" lon="11.3268849"><ele>1109.0</ele><time>2026-04-26T13:16:09.034Z</time></trkpt><trkpt lat="46.183773" lon="11.3270485"><ele>1109.0</ele><time>2026-04-26T13:16:10.034Z</time></trkpt><trkpt lat="46.1837791" lon="11.3272112"><ele>1109.0</ele><time>2026-04-26T13:16:11.034Z</time></trkpt><trkpt lat="46.1837715" lon="11.3273919"><ele>1109.0</ele><time>2026-04-26T13:16:12.034Z</time></trkpt><trkpt lat="46.1837471" lon="11.3275695"><ele>1109.5</ele><time>2026-04-26T13:16:13.034Z</time></trkpt><trkpt lat="46.1837101" lon="11.3277349"><ele>1110.0</ele><time>2026-04-26T13:16:14.034Z</time></trkpt><trkpt lat="46.1836509" lon="11.3278945"><ele>1110.5</ele><time>2026-04-26T13:16:15.034Z</time></trkpt><trkpt lat="46.1835842" lon="11.3280499"><ele>1111.0</ele><time>2026-04-26T13:16:16.034Z</time></trkpt><trkpt lat="46.1835179" lon="11.3281981"><ele>1109.75</ele><time>2026-04-26T13:16:17.034Z</time></trkpt><trkpt lat="46.1834479" lon="11.3283477"><ele>1108.5</ele><time>2026-04-26T13:16:18.034Z</time></trkpt><trkpt lat="46.1833782" lon="11.3284921"><ele>1107.25</ele><time>2026-04-26T13:16:19.034Z</time></trkpt><trkpt lat="46.1833093" lon="11.3286354"><ele>1106.0</ele><time>2026-04-26T13:16:20.034Z</time></trkpt><trkpt lat="46.1832425" lon="11.3287823"><ele>1111.25</ele><time>2026-04-26T13:16:21.034Z</time></trkpt><trkpt lat="46.1831798" lon="11.3289341"><ele>1116.5</ele><time>2026-04-26T13:16:22.034Z</time></trkpt><trkpt lat="46.1831287" lon="11.3290905"><ele>1121.75</ele><time>2026-04-26T13:16:23.034Z</time></trkpt><trkpt lat="46.183097" lon="11.3292522"><ele>1127.0</ele><time>2026-04-26T13:16:24.034Z</time></trkpt><trkpt lat="46.1830846" lon="11.3294164"><ele>1127.0</ele><time>2026-04-26T13:16:25.034Z</time></trkpt><trkpt lat="46.1830934" lon="11.3295777"><ele>1127.0</ele><time>2026-04-26T13:16:26.034Z</time></trkpt><trkpt lat="46.183126" lon="11.3297565"><ele>1127.0</ele><time>2026-04-26T13:16:27.034Z</time></trkpt><trkpt lat="46.1831781" lon="11.3299234"><ele>1127.0</ele><time>2026-04-26T13:16:28.034Z</time></trkpt><trkpt lat="46.1832495" lon="11.3300931"><ele>1121.25</ele><time>2026-04-26T13:16:29.034Z</time></trkpt><trkpt lat="46.1833379" lon="11.3302524"><ele>1115.5</ele><time>2026-04-26T13:16:30.035Z</time></trkpt><trkpt lat="46.1834289" lon="11.3304093"><ele>1109.75</ele><time>2026-04-26T13:16:31.034Z</time></trkpt><trkpt lat="46.1835163" lon="11.3305674"><ele>1104.0</ele><time>2026-04-26T13:16:32.034Z</time></trkpt><trkpt lat="46.1836047" lon="11.3307188"><ele>1104.0</ele><time>2026-04-26T13:16:33.034Z</time></trkpt><trkpt lat="46.1836904" lon="11.3308631"><ele>1104.0</ele><time>2026-04-26T13:16:34.034Z</time></trkpt><trkpt lat="46.1837744" lon="11.3309992"><ele>1104.0</ele><time>2026-04-26T13:16:35.034Z</time></trkpt><trkpt lat="46.1838663" lon="11.3311175"><ele>1104.0</ele><time>2026-04-26T13:16:36.034Z</time></trkpt><trkpt lat="46.1839768" lon="11.3312114"><ele>1105.0</ele><time>2026-04-26T13:16:37.034Z</time></trkpt><trkpt lat="46.1841053" lon="11.3312776"><ele>1106.0</ele><time>2026-04-26T13:16:38.035Z</time></trkpt><trkpt lat="46.1842417" lon="11.3313128"><ele>1107.0</ele><time>2026-04-26T13:16:39.034Z</time></trkpt><trkpt lat="46.1843805" lon="11.3313102"><ele>1108.0</ele><time>2026-04-26T13:16:40.034Z</time></trkpt><trkpt lat="46.1845142" lon="11.3312754"><ele>1108.0</ele><time>2026-04-26T13:16:41.034Z</time></trkpt><trkpt lat="46.1846376" lon="11.3312127"><ele>1108.0</ele><time>2026-04-26T13:16:42.034Z</time></trkpt><trkpt lat="46.1847552" lon="11.3311118"><ele>1108.0</ele><time>2026-04-26T13:16:43.034Z</time></trkpt><trkpt lat="46.184859" lon="11.3309793"><ele>1108.0</ele><time>2026-04-26T13:16:44.034Z</time></trkpt><trkpt lat="46.1849463" lon="11.3308168"><ele>1109.5</ele><time>2026-04-26T13:16:45.034Z</time></trkpt><trkpt lat="46.185024" lon="11.3306579"><ele>1111.0</ele><time>2026-04-26T13:16:46.034Z</time></trkpt><trkpt lat="46.1851014" lon="11.3304938"><ele>1112.5</ele><time>2026-04-26T13:16:47.034Z</time></trkpt><trkpt lat="46.1851737" lon="11.3303285"><ele>1114.0</ele><time>2026-04-26T13:16:48.034Z</time></trkpt><trkpt lat="46.1852511" lon="11.3301661"><ele>1110.25</ele><time>2026-04-26T13:16:49.034Z</time></trkpt><trkpt lat="46.1853372" lon="11.3300133"><ele>1106.5</ele><time>2026-04-26T13:16:50.034Z</time></trkpt><trkpt lat="46.185433" lon="11.3298758"><ele>1102.75</ele><time>2026-04-26T13:16:51.034Z</time></trkpt><trkpt lat="46.185542" lon="11.3297535"><ele>1099.0</ele><time>2026-04-26T13:16:52.034Z</time></trkpt><trkpt lat="46.185659" lon="11.3296495"><ele>1097.0</ele><time>2026-04-26T13:16:53.034Z</time></trkpt><trkpt lat="46.1857866" lon="11.3295731"><ele>1095.0</ele><time>2026-04-26T13:16:54.034Z</time></trkpt><trkpt lat="46.1859233" lon="11.3295074"><ele>1093.0</ele><time>2026-04-26T13:16:55.034Z</time></trkpt><trkpt lat="46.1860646" lon="11.3294741"><ele>1091.0</ele><time>2026-04-26T13:16:56.034Z</time></trkpt><trkpt lat="46.1862036" lon="11.3294739"><ele>1091.0</ele><time>2026-04-26T13:16:57.034Z</time></trkpt><trkpt lat="46.1863424" lon="11.3294928"><ele>1091.0</ele><time>2026-04-26T13:16:58.034Z</time></trkpt><trkpt lat="46.1864742" lon="11.3295401"><ele>1091.0</ele><time>2026-04-26T13:16:59.034Z</time></trkpt><trkpt lat="46.1866057" lon="11.3296106"><ele>1091.0</ele><time>2026-04-26T13:17:00.035Z</time></trkpt><trkpt lat="46.1867256" lon="11.3297029"><ele>1094.75</ele><time>2026-04-26T13:17:01.034Z</time></trkpt><trkpt lat="46.1868454" lon="11.3298061"><ele>1098.5</ele><time>2026-04-26T13:17:02.034Z</time></trkpt><trkpt lat="46.186965" lon="11.3298955"><ele>1102.25</ele><time>2026-04-26T13:17:03.034Z</time></trkpt><trkpt lat="46.1870892" lon="11.329963"><ele>1106.0</ele><time>2026-04-26T13:17:04.034Z</time></trkpt><trkpt lat="46.1872152" lon="11.3300142"><ele>1107.5</ele><time>2026-04-26T13:17:05.034Z</time></trkpt><trkpt lat="46.1873519" lon="11.3300325"><ele>1109.0</ele><time>2026-04-26T13:17:06.034Z</time></trkpt><trkpt lat="46.1874926" lon="11.3300079"><ele>1110.5</ele><time>2026-04-26T13:17:07.034Z</time></trkpt><trkpt lat="46.1876327" lon="11.329929"><ele>1112.0</ele><time>2026-04-26T13:17:08.034Z</time></trkpt><trkpt lat="46.1877825" lon="11.3298103"><ele>1110.0</ele><time>2026-04-26T13:17:09.034Z</time></trkpt><trkpt lat="46.187943" lon="11.3296695"><ele>1108.0</ele><time>2026-04-26T13:17:10.034Z</time></trkpt><trkpt lat="46.1881118" lon="11.3295155"><ele>1106.0</ele><time>2026-04-26T13:17:11.034Z</time></trkpt><trkpt lat="46.1882778" lon="11.3293681"><ele>1106.0</ele><time>2026-04-26T13:17:12.034Z</time></trkpt><trkpt lat="46.1884374" lon="11.3292345"><ele>1106.0</ele><time>2026-04-26T13:17:13.034Z</time></trkpt><trkpt lat="46.1885884" lon="11.3291001"><ele>1106.0</ele><time>2026-04-26T13:17:14.034Z</time></trkpt><trkpt lat="46.1887347" lon="11.3289809"><ele>1106.0</ele><time>2026-04-26T13:17:15.034Z</time></trkpt><trkpt lat="46.1888861" lon="11.3288941"><ele>1106.0</ele><time>2026-04-26T13:17:16.034Z</time></trkpt><trkpt lat="46.1890415" lon="11.3288518"><ele>1106.0</ele><time>2026-04-26T13:17:17.034Z</time></trkpt><trkpt lat="46.1891967" lon="11.3288522"><ele>1102.3333333333335</ele><time>2026-04-26T13:17:18.034Z</time></trkpt><trkpt lat="46.1893529" lon="11.3288816"><ele>1098.6666666666667</ele><time>2026-04-26T13:17:19.034Z</time></trkpt><trkpt lat="46.1895094" lon="11.3289097"><ele>1095.0</ele><time>2026-04-26T13:17:20.034Z</time></trkpt><trkpt lat="46.1896579" lon="11.3289235"><ele>1095.0</ele><time>2026-04-26T13:17:21.034Z</time></trkpt><trkpt lat="46.1897974" lon="11.3288819"><ele>1095.0</ele><time>2026-04-26T13:17:22.034Z</time></trkpt><trkpt lat="46.1899403" lon="11.328788"><ele>1095.0</ele><time>2026-04-26T13:17:23.034Z</time></trkpt><trkpt lat="46.1900827" lon="11.3286691"><ele>1094.6666666666667</ele><time>2026-04-26T13:17:24.034Z</time></trkpt><trkpt lat="46.1902313" lon="11.3285456"><ele>1094.3333333333335</ele><time>2026-04-26T13:17:25.034Z</time></trkpt><trkpt lat="46.1903862" lon="11.328442"><ele>1094.0</ele><time>2026-04-26T13:17:26.034Z</time></trkpt><trkpt lat="46.1905508" lon="11.3283533"><ele>1099.6666666666667</ele><time>2026-04-26T13:17:27.034Z</time></trkpt><trkpt lat="46.1907214" lon="11.3282664"><ele>1105.3333333333333</ele><time>2026-04-26T13:17:28.034Z</time></trkpt><trkpt lat="46.1908956" lon="11.328183"><ele>1111.0</ele><time>2026-04-26T13:17:29.034Z</time></trkpt><trkpt lat="46.1910702" lon="11.3280975"><ele>1101.3333333333333</ele><time>2026-04-26T13:17:30.034Z</time></trkpt><trkpt lat="46.1912375" lon="11.328012"><ele>1091.6666666666667</ele><time>2026-04-26T13:17:31.034Z</time></trkpt><trkpt lat="46.1914059" lon="11.3279214"><ele>1082.0</ele><time>2026-04-26T13:17:32.034Z</time></trkpt><trkpt lat="46.1915744" lon="11.3278279"><ele>1082.0</ele><time>2026-04-26T13:17:33.034Z</time></trkpt><trkpt lat="46.1917365" lon="11.3277636"><ele>1082.0</ele><time>2026-04-26T13:17:34.034Z</time></trkpt><trkpt lat="46.1918931" lon="11.327724"><ele>1082.0</ele><time>2026-04-26T13:17:35.034Z</time></trkpt><trkpt lat="46.1920374" lon="11.3277201"><ele>1082.0</ele><time>2026-04-26T13:17:36.034Z</time></trkpt><trkpt lat="46.1921938" lon="11.3277682"><ele>1082.0</ele><time>2026-04-26T13:17:37.034Z</time></trkpt><trkpt lat="46.1923251" lon="11.3278003"><ele>1082.0</ele><time>2026-04-26T13:17:38.034Z</time></trkpt><trkpt lat="46.1924728" lon="11.3278805"><ele>1083.5</ele><time>2026-04-26T13:17:39.035Z</time></trkpt><trkpt lat="46.1926196" lon="11.327914"><ele>1085.0</ele><time>2026-04-26T13:17:40.034Z</time></trkpt><trkpt lat="46.1927661" lon="11.3278806"><ele>1086.5</ele><time>2026-04-26T13:17:41.033Z</time></trkpt><trkpt lat="46.1929131" lon="11.3278283"><ele>1088.0</ele><time>2026-04-26T13:17:42.033Z</time></trkpt><trkpt lat="46.1930585" lon="11.3277695"><ele>1090.3333333333335</ele><time>2026-04-26T13:17:43.033Z</time></trkpt><trkpt lat="46.1932028" lon="11.3277334"><ele>1092.6666666666667</ele><time>2026-04-26T13:17:44.033Z</time></trkpt><trkpt lat="46.1933577" lon="11.3277141"><ele>1095.0</ele><time>2026-04-26T13:17:45.033Z</time></trkpt><trkpt lat="46.1935389" lon="11.3277316"><ele>1095.0</ele><time>2026-04-26T13:17:46.033Z</time></trkpt><trkpt lat="46.1937233" lon="11.3277502"><ele>1095.0</ele><time>2026-04-26T13:17:47.033Z</time></trkpt><trkpt lat="46.1939317" lon="11.3277767"><ele>1095.0</ele><time>2026-04-26T13:17:48.033Z</time></trkpt><trkpt lat="46.1941464" lon="11.3278002"><ele>1095.3333333333333</ele><time>2026-04-26T13:17:49.034Z</time></trkpt><trkpt lat="46.194357" lon="11.3278322"><ele>1095.6666666666665</ele><time>2026-04-26T13:17:50.033Z</time></trkpt><trkpt lat="46.1945647" lon="11.3278586"><ele>1096.0</ele><time>2026-04-26T13:17:51.033Z</time></trkpt><trkpt lat="46.1947635" lon="11.3278826"><ele>1095.0</ele><time>2026-04-26T13:17:52.033Z</time></trkpt><trkpt lat="46.1949498" lon="11.3279229"><ele>1094.0</ele><time>2026-04-26T13:17:53.033Z</time></trkpt><trkpt lat="46.195125" lon="11.3279906"><ele>1093.0</ele><time>2026-04-26T13:17:54.033Z</time></trkpt><trkpt lat="46.1952789" lon="11.3280995"><ele>1093.0</ele><time>2026-04-26T13:17:55.033Z</time></trkpt><trkpt lat="46.1954236" lon="11.3282371"><ele>1093.0</ele><time>2026-04-26T13:17:56.033Z</time></trkpt><trkpt lat="46.1955702" lon="11.3283783"><ele>1093.0</ele><time>2026-04-26T13:17:57.033Z</time></trkpt><trkpt lat="46.1957302" lon="11.3285161"><ele>1093.0</ele><time>2026-04-26T13:17:58.033Z</time></trkpt><trkpt lat="46.1958986" lon="11.3286004"><ele>1093.0</ele><time>2026-04-26T13:17:59.033Z</time></trkpt><trkpt lat="46.1960715" lon="11.3286471"><ele>1093.0</ele><time>2026-04-26T13:18:00.033Z</time></trkpt><trkpt lat="46.1962532" lon="11.3286785"><ele>1093.0</ele><time>2026-04-26T13:18:01.033Z</time></trkpt><trkpt lat="46.1964369" lon="11.3287046"><ele>1093.0</ele><time>2026-04-26T13:18:02.033Z</time></trkpt><trkpt lat="46.196624" lon="11.3287346"><ele>1093.0</ele><time>2026-04-26T13:18:03.033Z</time></trkpt><trkpt lat="46.1968131" lon="11.32877"><ele>1077.6666666666665</ele><time>2026-04-26T13:18:04.033Z</time></trkpt><trkpt lat="46.1969912" lon="11.3288124"><ele>1062.3333333333333</ele><time>2026-04-26T13:18:05.033Z</time></trkpt><trkpt lat="46.1971655" lon="11.3288445"><ele>1047.0</ele><time>2026-04-26T13:18:06.033Z</time></trkpt><trkpt lat="46.1973358" lon="11.3288787"><ele>1057.6666666666667</ele><time>2026-04-26T13:18:07.033Z</time></trkpt><trkpt lat="46.1974979" lon="11.3289169"><ele>1068.3333333333335</ele><time>2026-04-26T13:18:08.033Z</time></trkpt><trkpt lat="46.1976493" lon="11.3289407"><ele>1079.0</ele><time>2026-04-26T13:18:09.033Z</time></trkpt><trkpt lat="46.1977955" lon="11.3289657"><ele>1079.0</ele><time>2026-04-26T13:18:10.033Z</time></trkpt><trkpt lat="46.1979373" lon="11.328966"><ele>1079.0</ele><time>2026-04-26T13:18:11.033Z</time></trkpt><trkpt lat="46.1980802" lon="11.3289292"><ele>1079.0</ele><time>2026-04-26T13:18:12.033Z</time></trkpt><trkpt lat="46.1982134" lon="11.3288648"><ele>1079.0</ele><time>2026-04-26T13:18:13.033Z</time></trkpt><trkpt lat="46.1983436" lon="11.3287708"><ele>1080.6666666666667</ele><time>2026-04-26T13:18:14.034Z</time></trkpt><trkpt lat="46.198472" lon="11.328632"><ele>1082.3333333333333</ele><time>2026-04-26T13:18:15.033Z</time></trkpt><trkpt lat="46.1985968" lon="11.3284615"><ele>1084.0</ele><time>2026-04-26T13:18:16.033Z</time></trkpt><trkpt lat="46.1987127" lon="11.3282706"><ele>1084.0</ele><time>2026-04-26T13:18:17.033Z</time></trkpt><trkpt lat="46.1988247" lon="11.328068"><ele>1084.0</ele><time>2026-04-26T13:18:18.033Z</time></trkpt><trkpt lat="46.1989392" lon="11.3278707"><ele>1084.0</ele><time>2026-04-26T13:18:19.033Z</time></trkpt><trkpt lat="46.1990514" lon="11.327681"><ele>1083.3333333333333</ele><time>2026-04-26T13:18:20.033Z</time></trkpt><trkpt lat="46.1991595" lon="11.3274918"><ele>1082.6666666666667</ele><time>2026-04-26T13:18:21.033Z</time></trkpt><trkpt lat="46.1992652" lon="11.3273143"><ele>1082.0</ele><time>2026-04-26T13:18:22.033Z</time></trkpt><trkpt lat="46.1993587" lon="11.3271391"><ele>1082.0</ele><time>2026-04-26T13:18:23.033Z</time></trkpt><trkpt lat="46.1994257" lon="11.3269589"><ele>1082.0</ele><time>2026-04-26T13:18:24.033Z</time></trkpt><trkpt lat="46.1994648" lon="11.3267543"><ele>1082.0</ele><time>2026-04-26T13:18:25.033Z</time></trkpt><trkpt lat="46.1994905" lon="11.326553"><ele>1082.0</ele><time>2026-04-26T13:18:26.033Z</time></trkpt><trkpt lat="46.1995132" lon="11.3263594"><ele>1078.75</ele><time>2026-04-26T13:18:27.033Z</time></trkpt><trkpt lat="46.1995454" lon="11.326178"><ele>1075.5</ele><time>2026-04-26T13:18:28.033Z</time></trkpt><trkpt lat="46.1995945" lon="11.3260176"><ele>1072.25</ele><time>2026-04-26T13:18:29.033Z</time></trkpt><trkpt lat="46.1996632" lon="11.3258792"><ele>1069.0</ele><time>2026-04-26T13:18:30.033Z</time></trkpt><trkpt lat="46.1997549" lon="11.3257714"><ele>1075.5</ele><time>2026-04-26T13:18:31.033Z</time></trkpt><trkpt lat="46.1998584" lon="11.3257005"><ele>1082.0</ele><time>2026-04-26T13:18:32.033Z</time></trkpt><trkpt lat="46.1999834" lon="11.3256679"><ele>1088.5</ele><time>2026-04-26T13:18:33.033Z</time></trkpt><trkpt lat="46.2001157" lon="11.3256604"><ele>1095.0</ele><time>2026-04-26T13:18:34.034Z</time></trkpt><trkpt lat="46.2002429" lon="11.325664"><ele>1095.0</ele><time>2026-04-26T13:18:35.033Z</time></trkpt><trkpt lat="46.2003753" lon="11.3256537"><ele>1095.0</ele><time>2026-04-26T13:18:36.033Z</time></trkpt><trkpt lat="46.2005002" lon="11.325613"><ele>1095.0</ele><time>2026-04-26T13:18:37.033Z</time></trkpt><trkpt lat="46.2006192" lon="11.3255245"><ele>1095.0</ele><time>2026-04-26T13:18:38.033Z</time></trkpt><trkpt lat="46.2007317" lon="11.3253941"><ele>1094.0</ele><time>2026-04-26T13:18:39.033Z</time></trkpt><trkpt lat="46.2008419" lon="11.325249"><ele>1093.0</ele><time>2026-04-26T13:18:40.034Z</time></trkpt><trkpt lat="46.2009551" lon="11.325105"><ele>1092.0</ele><time>2026-04-26T13:18:41.033Z</time></trkpt><trkpt lat="46.2010666" lon="11.3249563"><ele>1092.0</ele><time>2026-04-26T13:18:42.033Z</time></trkpt><trkpt lat="46.2011809" lon="11.3248113"><ele>1092.0</ele><time>2026-04-26T13:18:43.033Z</time></trkpt><trkpt lat="46.2012957" lon="11.3246614"><ele>1092.0</ele><time>2026-04-26T13:18:44.033Z</time></trkpt><trkpt lat="46.2014076" lon="11.3245135"><ele>1094.25</ele><time>2026-04-26T13:18:45.033Z</time></trkpt><trkpt lat="46.2015255" lon="11.3243837"><ele>1096.5</ele><time>2026-04-26T13:18:46.033Z</time></trkpt><trkpt lat="46.2016571" lon="11.3242702"><ele>1098.75</ele><time>2026-04-26T13:18:47.033Z</time></trkpt><trkpt lat="46.2017899" lon="11.3241865"><ele>1101.0</ele><time>2026-04-26T13:18:48.033Z</time></trkpt><trkpt lat="46.2019298" lon="11.3241283"><ele>1101.0</ele><time>2026-04-26T13:18:49.033Z</time></trkpt><trkpt lat="46.2020884" lon="11.3240974"><ele>1101.0</ele><time>2026-04-26T13:18:50.034Z</time></trkpt><trkpt lat="46.2022469" lon="11.3240814"><ele>1101.0</ele><time>2026-04-26T13:18:51.033Z</time></trkpt><trkpt lat="46.2024044" lon="11.3240695"><ele>1105.6666666666667</ele><time>2026-04-26T13:18:52.033Z</time></trkpt><trkpt lat="46.2025734" lon="11.3240722"><ele>1110.3333333333335</ele><time>2026-04-26T13:18:53.033Z</time></trkpt><trkpt lat="46.2027458" lon="11.3240681"><ele>1115.0</ele><time>2026-04-26T13:18:54.033Z</time></trkpt><trkpt lat="46.202926" lon="11.3240681"><ele>1115.0</ele><time>2026-04-26T13:18:55.033Z</time></trkpt><trkpt lat="46.2031051" lon="11.3240727"><ele>1115.0</ele><time>2026-04-26T13:18:56.033Z</time></trkpt><trkpt lat="46.2032895" lon="11.3240705"><ele>1115.0</ele><time>2026-04-26T13:18:57.033Z</time></trkpt><trkpt lat="46.2034664" lon="11.3240591"><ele>1114.6666666666667</ele><time>2026-04-26T13:18:58.033Z</time></trkpt><trkpt lat="46.2036485" lon="11.3240484"><ele>1114.3333333333333</ele><time>2026-04-26T13:18:59.033Z</time></trkpt><trkpt lat="46.2038292" lon="11.324037"><ele>1114.0</ele><time>2026-04-26T13:19:00.033Z</time></trkpt><trkpt lat="46.2040104" lon="11.3240296"><ele>1113.6666666666665</ele><time>2026-04-26T13:19:01.033Z</time></trkpt><trkpt lat="46.2041942" lon="11.3240245"><ele>1113.3333333333333</ele><time>2026-04-26T13:19:02.033Z</time></trkpt><trkpt lat="46.204374" lon="11.3240041"><ele>1113.0</ele><time>2026-04-26T13:19:03.033Z</time></trkpt><trkpt lat="46.2045509" lon="11.3239497"><ele>1103.6666666666667</ele><time>2026-04-26T13:19:04.033Z</time></trkpt><trkpt lat="46.2047186" lon="11.3238646"><ele>1094.3333333333335</ele><time>2026-04-26T13:19:05.033Z</time></trkpt><trkpt lat="46.2048829" lon="11.3237674"><ele>1085.0</ele><time>2026-04-26T13:19:06.033Z</time></trkpt><trkpt lat="46.2050439" lon="11.323667"><ele>1085.0</ele><time>2026-04-26T13:19:07.033Z</time></trkpt><trkpt lat="46.2052076" lon="11.3235874"><ele>1085.0</ele><time>2026-04-26T13:19:08.033Z</time></trkpt><trkpt lat="46.2053676" lon="11.3235409"><ele>1085.0</ele><time>2026-04-26T13:19:09.033Z</time></trkpt><trkpt lat="46.2055341" lon="11.3235124"><ele>1086.0</ele><time>2026-04-26T13:19:10.033Z</time></trkpt><trkpt lat="46.205703" lon="11.3235104"><ele>1087.0</ele><time>2026-04-26T13:19:11.033Z</time></trkpt><trkpt lat="46.2058711" lon="11.3235349"><ele>1088.0</ele><time>2026-04-26T13:19:12.033Z</time></trkpt><trkpt lat="46.2060392" lon="11.3235745"><ele>1088.0</ele><time>2026-04-26T13:19:13.033Z</time></trkpt><trkpt lat="46.2062065" lon="11.3236261"><ele>1088.0</ele><time>2026-04-26T13:19:14.033Z</time></trkpt><trkpt lat="46.2063655" lon="11.3236727"><ele>1088.0</ele><time>2026-04-26T13:19:15.033Z</time></trkpt><trkpt lat="46.2065104" lon="11.3237158"><ele>1085.25</ele><time>2026-04-26T13:19:16.033Z</time></trkpt><trkpt lat="46.2066519" lon="11.3238006"><ele>1082.5</ele><time>2026-04-26T13:19:17.033Z</time></trkpt><trkpt lat="46.2067727" lon="11.3239102"><ele>1079.75</ele><time>2026-04-26T13:19:18.033Z</time></trkpt><trkpt lat="46.2068857" lon="11.3240597"><ele>1077.0</ele><time>2026-04-26T13:19:19.033Z</time></trkpt><trkpt lat="46.2069766" lon="11.3242187"><ele>1083.0</ele><time>2026-04-26T13:19:20.033Z</time></trkpt><trkpt lat="46.2070653" lon="11.3243702"><ele>1089.0</ele><time>2026-04-26T13:19:21.033Z</time></trkpt><trkpt lat="46.2071316" lon="11.3245379"><ele>1095.0</ele><time>2026-04-26T13:19:22.033Z</time></trkpt><trkpt lat="46.2071701" lon="11.3247109"><ele>1101.0</ele><time>2026-04-26T13:19:23.033Z</time></trkpt><trkpt lat="46.2071809" lon="11.3248862"><ele>1105.5</ele><time>2026-04-26T13:19:24.033Z</time></trkpt><trkpt lat="46.2071666" lon="11.325063"><ele>1110.0</ele><time>2026-04-26T13:19:25.033Z</time></trkpt><trkpt lat="46.2071269" lon="11.3252437"><ele>1114.5</ele><time>2026-04-26T13:19:26.034Z</time></trkpt><trkpt lat="46.2070873" lon="11.3254272"><ele>1119.0</ele><time>2026-04-26T13:19:27.034Z</time></trkpt><trkpt lat="46.2070454" lon="11.3256093"><ele>1121.25</ele><time>2026-04-26T13:19:28.033Z</time></trkpt><trkpt lat="46.2070054" lon="11.3257835"><ele>1123.5</ele><time>2026-04-26T13:19:29.033Z</time></trkpt><trkpt lat="46.2069726" lon="11.3259515"><ele>1125.75</ele><time>2026-04-26T13:19:30.033Z</time></trkpt><trkpt lat="46.2069494" lon="11.3261125"><ele>1128.0</ele><time>2026-04-26T13:19:31.033Z</time></trkpt><trkpt lat="46.2069368" lon="11.3262797"><ele>1131.0</ele><time>2026-04-26T13:19:32.033Z</time></trkpt><trkpt lat="46.2069506" lon="11.3264418"><ele>1134.0</ele><time>2026-04-26T13:19:33.033Z</time></trkpt><trkpt lat="46.2069818" lon="11.3266026"><ele>1137.0</ele><time>2026-04-26T13:19:34.033Z</time></trkpt><trkpt lat="46.2070311" lon="11.3267647"><ele>1140.0</ele><time>2026-04-26T13:19:35.033Z</time></trkpt><trkpt lat="46.207095" lon="11.3269214"><ele>1140.0</ele><time>2026-04-26T13:19:36.033Z</time></trkpt><trkpt lat="46.2071811" lon="11.3270659"><ele>1140.0</ele><time>2026-04-26T13:19:37.033Z</time></trkpt><trkpt lat="46.2072841" lon="11.3272045"><ele>1140.0</ele><time>2026-04-26T13:19:38.033Z</time></trkpt><trkpt lat="46.2073844" lon="11.3273412"><ele>1140.0</ele><time>2026-04-26T13:19:39.033Z</time></trkpt><trkpt lat="46.207483" lon="11.3274764"><ele>1127.5</ele><time>2026-04-26T13:19:40.033Z</time></trkpt><trkpt lat="46.2075862" lon="11.3276079"><ele>1115.0</ele><time>2026-04-26T13:19:41.033Z</time></trkpt><trkpt lat="46.2076988" lon="11.3277172"><ele>1102.5</ele><time>2026-04-26T13:19:42.033Z</time></trkpt><trkpt lat="46.2078193" lon="11.327808"><ele>1090.0</ele><time>2026-04-26T13:19:43.033Z</time></trkpt><trkpt lat="46.2079558" lon="11.3278789"><ele>1090.0</ele><time>2026-04-26T13:19:44.034Z</time></trkpt><trkpt lat="46.2081034" lon="11.3279213"><ele>1090.0</ele><time>2026-04-26T13:19:45.033Z</time></trkpt><trkpt lat="46.2082565" lon="11.3279318"><ele>1090.0</ele><time>2026-04-26T13:19:46.033Z</time></trkpt><trkpt lat="46.2084138" lon="11.3279226"><ele>1085.0</ele><time>2026-04-26T13:19:47.033Z</time></trkpt><trkpt lat="46.2085747" lon="11.3278995"><ele>1080.0</ele><time>2026-04-26T13:19:48.033Z</time></trkpt><trkpt lat="46.2087361" lon="11.3278679"><ele>1075.0</ele><time>2026-04-26T13:19:49.033Z</time></trkpt><trkpt lat="46.2088994" lon="11.327838"><ele>1073.0</ele><time>2026-04-26T13:19:50.033Z</time></trkpt><trkpt lat="46.2090672" lon="11.3278214"><ele>1071.0</ele><time>2026-04-26T13:19:51.033Z</time></trkpt><trkpt lat="46.2092371" lon="11.3278194"><ele>1069.0</ele><time>2026-04-26T13:19:52.033Z</time></trkpt><trkpt lat="46.209413" lon="11.3278318"><ele>1069.0</ele><time>2026-04-26T13:19:53.033Z</time></trkpt><trkpt lat="46.2095833" lon="11.3278304"><ele>1069.0</ele><time>2026-04-26T13:19:54.034Z</time></trkpt><trkpt lat="46.2097593" lon="11.3278428"><ele>1069.0</ele><time>2026-04-26T13:19:55.034Z</time></trkpt><trkpt lat="46.2099321" lon="11.327852"><ele>1068.3333333333333</ele><time>2026-04-26T13:19:56.033Z</time></trkpt><trkpt lat="46.2101076" lon="11.3278582"><ele>1067.6666666666667</ele><time>2026-04-26T13:19:57.033Z</time></trkpt><trkpt lat="46.2102785" lon="11.3278777"><ele>1067.0</ele><time>2026-04-26T13:19:58.033Z</time></trkpt><trkpt lat="46.2104419" lon="11.327911"><ele>1067.0</ele><time>2026-04-26T13:19:59.033Z</time></trkpt><trkpt lat="46.2106045" lon="11.3279519"><ele>1067.0</ele><time>2026-04-26T13:20:00.033Z</time></trkpt><trkpt lat="46.2107598" lon="11.3279965"><ele>1067.0</ele><time>2026-04-26T13:20:01.033Z</time></trkpt><trkpt lat="46.2109054" lon="11.3280587"><ele>1069.25</ele><time>2026-04-26T13:20:02.033Z</time></trkpt><trkpt lat="46.2110311" lon="11.3281553"><ele>1071.5</ele><time>2026-04-26T13:20:03.033Z</time></trkpt><trkpt lat="46.2111418" lon="11.3282597"><ele>1073.75</ele><time>2026-04-26T13:20:04.033Z</time></trkpt><trkpt lat="46.2112448" lon="11.3283433"><ele>1076.0</ele><time>2026-04-26T13:20:05.033Z</time></trkpt><trkpt lat="46.2113617" lon="11.3283722"><ele>1076.0</ele><time>2026-04-26T13:20:06.033Z</time></trkpt><trkpt lat="46.2114847" lon="11.3283642"><ele>1076.0</ele><time>2026-04-26T13:20:07.033Z</time></trkpt><trkpt lat="46.2116039" lon="11.328326"><ele>1076.0</ele><time>2026-04-26T13:20:08.033Z</time></trkpt><trkpt lat="46.2117255" lon="11.3282581"><ele>1076.0</ele><time>2026-04-26T13:20:09.033Z</time></trkpt><trkpt lat="46.2118454" lon="11.3281908"><ele>1071.25</ele><time>2026-04-26T13:20:10.033Z</time></trkpt><trkpt lat="46.2119685" lon="11.3281219"><ele>1066.5</ele><time>2026-04-26T13:20:11.033Z</time></trkpt><trkpt lat="46.2120871" lon="11.3280493"><ele>1061.75</ele><time>2026-04-26T13:20:12.033Z</time></trkpt><trkpt lat="46.2122059" lon="11.3279925"><ele>1057.0</ele><time>2026-04-26T13:20:13.033Z</time></trkpt><trkpt lat="46.2123304" lon="11.327971"><ele>1055.75</ele><time>2026-04-26T13:20:14.033Z</time></trkpt><trkpt lat="46.2124483" lon="11.3279822"><ele>1054.5</ele><time>2026-04-26T13:20:15.033Z</time></trkpt><trkpt lat="46.2125593" lon="11.3280277"><ele>1053.25</ele><time>2026-04-26T13:20:16.033Z</time></trkpt><trkpt lat="46.2126591" lon="11.3281099"><ele>1052.0</ele><time>2026-04-26T13:20:17.033Z</time></trkpt><trkpt lat="46.2127553" lon="11.3282289"><ele>1052.0</ele><time>2026-04-26T13:20:18.033Z</time></trkpt><trkpt lat="46.2128494" lon="11.3283579"><ele>1052.0</ele><time>2026-04-26T13:20:19.033Z</time></trkpt><trkpt lat="46.2129516" lon="11.3284647"><ele>1052.0</ele><time>2026-04-26T13:20:20.033Z</time></trkpt><trkpt lat="46.2130653" lon="11.3285376"><ele>1052.0</ele><time>2026-04-26T13:20:21.033Z</time></trkpt><trkpt lat="46.2131911" lon="11.3285607"><ele>1045.75</ele><time>2026-04-26T13:20:22.033Z</time></trkpt><trkpt lat="46.2133172" lon="11.3285398"><ele>1039.5</ele><time>2026-04-26T13:20:23.034Z</time></trkpt><trkpt lat="46.213435" lon="11.3284734"><ele>1033.25</ele><time>2026-04-26T13:20:24.033Z</time></trkpt><trkpt lat="46.213528" lon="11.3283785"><ele>1027.0</ele><time>2026-04-26T13:20:25.033Z</time></trkpt><trkpt lat="46.2136106" lon="11.3282492"><ele>1027.0</ele><time>2026-04-26T13:20:26.033Z</time></trkpt><trkpt lat="46.2136685" lon="11.3280947"><ele>1027.0</ele><time>2026-04-26T13:20:27.033Z</time></trkpt><trkpt lat="46.213703" lon="11.3279148"><ele>1027.0</ele><time>2026-04-26T13:20:28.033Z</time></trkpt><trkpt lat="46.2137028" lon="11.3277262"><ele>1027.0</ele><time>2026-04-26T13:20:29.033Z</time></trkpt><trkpt lat="46.2136697" lon="11.3275401"><ele>1021.25</ele><time>2026-04-26T13:20:30.033Z</time></trkpt><trkpt lat="46.2136241" lon="11.3273657"><ele>1015.5</ele><time>2026-04-26T13:20:31.033Z</time></trkpt><trkpt lat="46.2135698" lon="11.3271949"><ele>1009.75</ele><time>2026-04-26T13:20:32.033Z</time></trkpt><trkpt lat="46.2135335" lon="11.327018"><ele>1004.0</ele><time>2026-04-26T13:20:33.033Z</time></trkpt><trkpt lat="46.213511" lon="11.3268412"><ele>1000.5</ele><time>2026-04-26T13:20:34.033Z</time></trkpt><trkpt lat="46.2135215" lon="11.3266554"><ele>997.0</ele><time>2026-04-26T13:20:35.033Z</time></trkpt><trkpt lat="46.2135544" lon="11.3264778"><ele>993.5</ele><time>2026-04-26T13:20:36.033Z</time></trkpt><trkpt lat="46.2136148" lon="11.3262996"><ele>990.0</ele><time>2026-04-26T13:20:37.033Z</time></trkpt><trkpt lat="46.2136777" lon="11.3261252"><ele>984.75</ele><time>2026-04-26T13:20:38.033Z</time></trkpt><trkpt lat="46.2137486" lon="11.3259467"><ele>979.5</ele><time>2026-04-26T13:20:39.033Z</time></trkpt><trkpt lat="46.2138136" lon="11.3257736"><ele>974.25</ele><time>2026-04-26T13:20:40.033Z</time></trkpt><trkpt lat="46.2138766" lon="11.3255986"><ele>969.0</ele><time>2026-04-26T13:20:41.033Z</time></trkpt><trkpt lat="46.2139274" lon="11.3254204"><ele>971.75</ele><time>2026-04-26T13:20:42.033Z</time></trkpt><trkpt lat="46.2139589" lon="11.3252292"><ele>974.5</ele><time>2026-04-26T13:20:43.033Z</time></trkpt><trkpt lat="46.213974" lon="11.3250309"><ele>977.25</ele><time>2026-04-26T13:20:44.033Z</time></trkpt><trkpt lat="46.2139859" lon="11.3248304"><ele>980.0</ele><time>2026-04-26T13:20:45.033Z</time></trkpt><trkpt lat="46.2140008" lon="11.3246449"><ele>980.0</ele><time>2026-04-26T13:20:46.033Z</time></trkpt><trkpt lat="46.2140248" lon="11.3244684"><ele>980.0</ele><time>2026-04-26T13:20:47.033Z</time></trkpt><trkpt lat="46.2140647" lon="11.3243025"><ele>980.0</ele><time>2026-04-26T13:20:48.033Z</time></trkpt><trkpt lat="46.2141257" lon="11.3241315"><ele>980.0</ele><time>2026-04-26T13:20:49.033Z</time></trkpt><trkpt lat="46.2141939" lon="11.3239645"><ele>974.75</ele><time>2026-04-26T13:20:50.033Z</time></trkpt><trkpt lat="46.2142657" lon="11.323814"><ele>969.5</ele><time>2026-04-26T13:20:51.033Z</time></trkpt><trkpt lat="46.214348" lon="11.3236666"><ele>964.25</ele><time>2026-04-26T13:20:52.033Z</time></trkpt><trkpt lat="46.214433" lon="11.3235221"><ele>959.0</ele><time>2026-04-26T13:20:53.033Z</time></trkpt><trkpt lat="46.2145192" lon="11.3233698"><ele>959.0</ele><time>2026-04-26T13:20:54.033Z</time></trkpt><trkpt lat="46.2145853" lon="11.3232013"><ele>959.0</ele><time>2026-04-26T13:20:55.033Z</time></trkpt><trkpt lat="46.2146267" lon="11.3230158"><ele>959.0</ele><time>2026-04-26T13:20:56.033Z</time></trkpt><trkpt lat="46.2146447" lon="11.3228294"><ele>959.0</ele><time>2026-04-26T13:20:57.033Z</time></trkpt><trkpt lat="46.2146583" lon="11.322633"><ele>954.5</ele><time>2026-04-26T13:20:58.033Z</time></trkpt><trkpt lat="46.2146666" lon="11.322448"><ele>950.0</ele><time>2026-04-26T13:20:59.033Z</time></trkpt><trkpt lat="46.2146844" lon="11.3222639"><ele>945.5</ele><time>2026-04-26T13:21:00.034Z</time></trkpt><trkpt lat="46.2147024" lon="11.3220753"><ele>941.0</ele><time>2026-04-26T13:21:01.033Z</time></trkpt><trkpt lat="46.2147237" lon="11.3218892"><ele>943.0</ele><time>2026-04-26T13:21:02.033Z</time></trkpt><trkpt lat="46.2147521" lon="11.3217053"><ele>945.0</ele><time>2026-04-26T13:21:03.033Z</time></trkpt><trkpt lat="46.2147842" lon="11.3215213"><ele>947.0</ele><time>2026-04-26T13:21:04.033Z</time></trkpt><trkpt lat="46.2148278" lon="11.3213367"><ele>949.0</ele><time>2026-04-26T13:21:05.033Z</time></trkpt><trkpt lat="46.2148675" lon="11.3211564"><ele>949.0</ele><time>2026-04-26T13:21:06.033Z</time></trkpt><trkpt lat="46.2149142" lon="11.3209771"><ele>949.0</ele><time>2026-04-26T13:21:07.033Z</time></trkpt><trkpt lat="46.2149642" lon="11.3208091"><ele>949.0</ele><time>2026-04-26T13:21:08.034Z</time></trkpt><trkpt lat="46.2150301" lon="11.3206514"><ele>949.0</ele><time>2026-04-26T13:21:09.034Z</time></trkpt><trkpt lat="46.2151108" lon="11.3205098"><ele>942.5</ele><time>2026-04-26T13:21:10.033Z</time></trkpt><trkpt lat="46.2152178" lon="11.3203837"><ele>936.0</ele><time>2026-04-26T13:21:11.033Z</time></trkpt><trkpt lat="46.2153391" lon="11.3203186"><ele>929.5</ele><time>2026-04-26T13:21:12.033Z</time></trkpt><trkpt lat="46.215473" lon="11.3202781"><ele>923.0</ele><time>2026-04-26T13:21:13.033Z</time></trkpt><trkpt lat="46.2156143" lon="11.3202505"><ele>927.3333333333334</ele><time>2026-04-26T13:21:14.033Z</time></trkpt><trkpt lat="46.215764" lon="11.3202201"><ele>931.6666666666667</ele><time>2026-04-26T13:21:15.033Z</time></trkpt><trkpt lat="46.2159107" lon="11.3201904"><ele>936.0</ele><time>2026-04-26T13:21:16.033Z</time></trkpt><trkpt lat="46.2160604" lon="11.3201404"><ele>936.0</ele><time>2026-04-26T13:21:17.033Z</time></trkpt><trkpt lat="46.2162052" lon="11.3200668"><ele>936.0</ele><time>2026-04-26T13:21:18.033Z</time></trkpt><trkpt lat="46.2163529" lon="11.3199601"><ele>936.0</ele><time>2026-04-26T13:21:19.033Z</time></trkpt><trkpt lat="46.2164926" lon="11.3198428"><ele>927.6666666666667</ele><time>2026-04-26T13:21:20.033Z</time></trkpt><trkpt lat="46.2166339" lon="11.3197274"><ele>919.3333333333334</ele><time>2026-04-26T13:21:21.033Z</time></trkpt><trkpt lat="46.2167713" lon="11.3196135"><ele>911.0</ele><time>2026-04-26T13:21:22.033Z</time></trkpt><trkpt lat="46.2169137" lon="11.3195205"><ele>911.0</ele><time>2026-04-26T13:21:23.033Z</time></trkpt><trkpt lat="46.2170584" lon="11.3194483"><ele>911.0</ele><time>2026-04-26T13:21:24.033Z</time></trkpt><trkpt lat="46.217216" lon="11.3193926"><ele>911.0</ele><time>2026-04-26T13:21:25.033Z</time></trkpt><trkpt lat="46.2173758" lon="11.3193413"><ele>911.3333333333334</ele><time>2026-04-26T13:21:26.033Z</time></trkpt><trkpt lat="46.2175361" lon="11.3192903"><ele>911.6666666666667</ele><time>2026-04-26T13:21:27.033Z</time></trkpt><trkpt lat="46.217695" lon="11.3192472"><ele>912.0</ele><time>2026-04-26T13:21:28.033Z</time></trkpt><trkpt lat="46.2178462" lon="11.3191957"><ele>912.0</ele><time>2026-04-26T13:21:29.033Z</time></trkpt><trkpt lat="46.2179902" lon="11.3191459"><ele>912.0</ele><time>2026-04-26T13:21:30.033Z</time></trkpt><trkpt lat="46.2181309" lon="11.3190974"><ele>912.0</ele><time>2026-04-26T13:21:31.033Z</time></trkpt><trkpt lat="46.2182661" lon="11.3190523"><ele>912.0</ele><time>2026-04-26T13:21:32.033Z</time></trkpt><trkpt lat="46.2183937" lon="11.3190088"><ele>912.5</ele><time>2026-04-26T13:21:33.033Z</time></trkpt><trkpt lat="46.2185162" lon="11.3189974"><ele>913.0</ele><time>2026-04-26T13:21:34.033Z</time></trkpt><trkpt lat="46.2186382" lon="11.3190112"><ele>913.5</ele><time>2026-04-26T13:21:35.033Z</time></trkpt><trkpt lat="46.2187609" lon="11.3190494"><ele>914.0</ele><time>2026-04-26T13:21:36.033Z</time></trkpt><trkpt lat="46.218885" lon="11.319109"><ele>913.4000000000001</ele><time>2026-04-26T13:21:37.033Z</time></trkpt><trkpt lat="46.2189997" lon="11.3191506"><ele>912.8000000000001</ele><time>2026-04-26T13:21:38.033Z</time></trkpt><trkpt lat="46.2191087" lon="11.319171"><ele>912.1999999999999</ele><time>2026-04-26T13:21:39.033Z</time></trkpt><trkpt lat="46.219213" lon="11.3191655"><ele>911.5999999999999</ele><time>2026-04-26T13:21:40.033Z</time></trkpt><trkpt lat="46.2193137" lon="11.3191292"><ele>911.0</ele><time>2026-04-26T13:21:41.033Z</time></trkpt><trkpt lat="46.2194098" lon="11.3190621"><ele>911.0</ele><time>2026-04-26T13:21:42.033Z</time></trkpt><trkpt lat="46.2194959" lon="11.3189773"><ele>910.9999999999999</ele><time>2026-04-26T13:21:43.033Z</time></trkpt><trkpt lat="46.2195881" lon="11.3188874"><ele>910.9999999999999</ele><time>2026-04-26T13:21:44.033Z</time></trkpt><trkpt lat="46.2196813" lon="11.3188204"><ele>911.0</ele><time>2026-04-26T13:21:45.033Z</time></trkpt><trkpt lat="46.219768" lon="11.3187861"><ele>911.0</ele><time>2026-04-26T13:21:46.033Z</time></trkpt><trkpt lat="46.2198645" lon="11.3187221"><ele>905.8</ele><time>2026-04-26T13:21:47.033Z</time></trkpt><trkpt lat="46.2199386" lon="11.3186208"><ele>900.5999999999999</ele><time>2026-04-26T13:21:48.033Z</time></trkpt><trkpt lat="46.2199973" lon="11.3184949"><ele>895.4</ele><time>2026-04-26T13:21:49.033Z</time></trkpt><trkpt lat="46.2200418" lon="11.3183635"><ele>890.2</ele><time>2026-04-26T13:21:50.034Z</time></trkpt><trkpt lat="46.2200951" lon="11.3182591"><ele>885.0</ele><time>2026-04-26T13:21:51.033Z</time></trkpt><trkpt lat="46.2201627" lon="11.3181618"><ele>885.0</ele><time>2026-04-26T13:21:52.033Z</time></trkpt><trkpt lat="46.2202494" lon="11.3180896"><ele>885.0</ele><time>2026-04-26T13:21:53.033Z</time></trkpt><trkpt lat="46.2203577" lon="11.3180611"><ele>885.0</ele><time>2026-04-26T13:21:54.033Z</time></trkpt><trkpt lat="46.2204637" lon="11.3180337"><ele>885.0</ele><time>2026-04-26T13:21:55.033Z</time></trkpt><trkpt lat="46.2205779" lon="11.3180077"><ele>885.0</ele><time>2026-04-26T13:21:56.033Z</time></trkpt><trkpt lat="46.2206961" lon="11.3179875"><ele>880.75</ele><time>2026-04-26T13:21:57.033Z</time></trkpt><trkpt lat="46.2208224" lon="11.3179621"><ele>876.5</ele><time>2026-04-26T13:21:58.034Z</time></trkpt><trkpt lat="46.2209507" lon="11.3179261"><ele>872.25</ele><time>2026-04-26T13:21:59.033Z</time></trkpt><trkpt lat="46.2210797" lon="11.3178901"><ele>868.0</ele><time>2026-04-26T13:22:00.033Z</time></trkpt><trkpt lat="46.2212102" lon="11.3178548"><ele>868.0</ele><time>2026-04-26T13:22:01.033Z</time></trkpt><trkpt lat="46.2213443" lon="11.3178166"><ele>868.0</ele><time>2026-04-26T13:22:02.033Z</time></trkpt><trkpt lat="46.2214793" lon="11.3177869"><ele>868.0</ele><time>2026-04-26T13:22:03.033Z</time></trkpt><trkpt lat="46.2216065" lon="11.317763"><ele>868.0</ele><time>2026-04-26T13:22:04.033Z</time></trkpt><trkpt lat="46.2217234" lon="11.3177366"><ele>870.4</ele><time>2026-04-26T13:22:05.033Z</time></trkpt><trkpt lat="46.221837" lon="11.3177078"><ele>872.8</ele><time>2026-04-26T13:22:06.033Z</time></trkpt><trkpt lat="46.2219357" lon="11.3176772"><ele>875.2</ele><time>2026-04-26T13:22:07.033Z</time></trkpt><trkpt lat="46.2220295" lon="11.3176348"><ele>877.6</ele><time>2026-04-26T13:22:08.033Z</time></trkpt><trkpt lat="46.222111" lon="11.3175674"><ele>880.0</ele><time>2026-04-26T13:22:09.033Z</time></trkpt><trkpt lat="46.2221852" lon="11.3174607"><ele>880.0</ele><time>2026-04-26T13:22:10.034Z</time></trkpt><trkpt lat="46.2222405" lon="11.3173342"><ele>880.0</ele><time>2026-04-26T13:22:11.033Z</time></trkpt><trkpt lat="46.2222803" lon="11.3171862"><ele>880.0</ele><time>2026-04-26T13:22:12.033Z</time></trkpt><trkpt lat="46.2223258" lon="11.3170406"><ele>880.0</ele><time>2026-04-26T13:22:13.033Z</time></trkpt><trkpt lat="46.2223685" lon="11.3169028"><ele>880.0</ele><time>2026-04-26T13:22:14.033Z</time></trkpt><trkpt lat="46.2224206" lon="11.3167779"><ele>880.6</ele><time>2026-04-26T13:22:15.034Z</time></trkpt><trkpt lat="46.2224836" lon="11.316661"><ele>881.2</ele><time>2026-04-26T13:22:16.034Z</time></trkpt><trkpt lat="46.2225597" lon="11.3165583"><ele>881.8</ele><time>2026-04-26T13:22:17.033Z</time></trkpt><trkpt lat="46.2226474" lon="11.3164681"><ele>882.4</ele><time>2026-04-26T13:22:18.033Z</time></trkpt><trkpt lat="46.222739" lon="11.316382"><ele>883.0</ele><time>2026-04-26T13:22:19.032Z</time></trkpt><trkpt lat="46.2228224" lon="11.3162929"><ele>877.5</ele><time>2026-04-26T13:22:20.033Z</time></trkpt><trkpt lat="46.2228982" lon="11.3161859"><ele>872.0</ele><time>2026-04-26T13:22:21.032Z</time></trkpt><trkpt lat="46.2229646" lon="11.3160497"><ele>866.5</ele><time>2026-04-26T13:22:22.032Z</time></trkpt><trkpt lat="46.223008" lon="11.3158996"><ele>861.0</ele><time>2026-04-26T13:22:23.032Z</time></trkpt><trkpt lat="46.2230415" lon="11.3157378"><ele>861.0</ele><time>2026-04-26T13:22:24.032Z</time></trkpt><trkpt lat="46.2230726" lon="11.3155706"><ele>861.0</ele><time>2026-04-26T13:22:25.032Z</time></trkpt><trkpt lat="46.2231074" lon="11.3154031"><ele>861.0</ele><time>2026-04-26T13:22:26.032Z</time></trkpt><trkpt lat="46.2231441" lon="11.3152315"><ele>861.0</ele><time>2026-04-26T13:22:27.032Z</time></trkpt><trkpt lat="46.2231777" lon="11.3150506"><ele>858.75</ele><time>2026-04-26T13:22:28.032Z</time></trkpt><trkpt lat="46.2232204" lon="11.3148758"><ele>856.5</ele><time>2026-04-26T13:22:29.032Z</time></trkpt><trkpt lat="46.2232653" lon="11.314703"><ele>854.25</ele><time>2026-04-26T13:22:30.032Z</time></trkpt><trkpt lat="46.2233206" lon="11.3145416"><ele>852.0</ele><time>2026-04-26T13:22:31.032Z</time></trkpt><trkpt lat="46.223392" lon="11.3143864"><ele>852.0</ele><time>2026-04-26T13:22:32.032Z</time></trkpt><trkpt lat="46.2234735" lon="11.3142403"><ele>852.0</ele><time>2026-04-26T13:22:33.032Z</time></trkpt><trkpt lat="46.2235584" lon="11.3141019"><ele>852.0</ele><time>2026-04-26T13:22:34.032Z</time></trkpt><trkpt lat="46.2236497" lon="11.3139641"><ele>852.0</ele><time>2026-04-26T13:22:35.032Z</time></trkpt><trkpt lat="46.2237427" lon="11.3138292"><ele>850.0</ele><time>2026-04-26T13:22:36.032Z</time></trkpt><trkpt lat="46.2238345" lon="11.3136965"><ele>848.0</ele><time>2026-04-26T13:22:37.032Z</time></trkpt><trkpt lat="46.2239292" lon="11.3135658"><ele>846.0</ele><time>2026-04-26T13:22:38.032Z</time></trkpt><trkpt lat="46.2240202" lon="11.313445"><ele>844.0</ele><time>2026-04-26T13:22:39.032Z</time></trkpt><trkpt lat="46.2241042" lon="11.3133348"><ele>844.0</ele><time>2026-04-26T13:22:40.032Z</time></trkpt><trkpt lat="46.2241845" lon="11.3132363"><ele>844.0</ele><time>2026-04-26T13:22:41.032Z</time></trkpt><trkpt lat="46.2242694" lon="11.3131464"><ele>844.0</ele><time>2026-04-26T13:22:42.032Z</time></trkpt><trkpt lat="46.224362" lon="11.3131037"><ele>844.0</ele><time>2026-04-26T13:22:43.032Z</time></trkpt><trkpt lat="46.2244619" lon="11.3131105"><ele>844.0</ele><time>2026-04-26T13:22:44.032Z</time></trkpt><trkpt lat="46.2245673" lon="11.3131351"><ele>844.0</ele><time>2026-04-26T13:22:45.032Z</time></trkpt><trkpt lat="46.2246763" lon="11.3131529"><ele>844.0</ele><time>2026-04-26T13:22:46.032Z</time></trkpt><trkpt lat="46.2247956" lon="11.3131685"><ele>844.0</ele><time>2026-04-26T13:22:47.032Z</time></trkpt><trkpt lat="46.2249217" lon="11.3131695"><ele>844.0</ele><time>2026-04-26T13:22:48.032Z</time></trkpt><trkpt lat="46.2250503" lon="11.3131613"><ele>845.0</ele><time>2026-04-26T13:22:49.032Z</time></trkpt><trkpt lat="46.2251786" lon="11.3131483"><ele>846.0</ele><time>2026-04-26T13:22:50.032Z</time></trkpt><trkpt lat="46.2253125" lon="11.3131316"><ele>847.0</ele><time>2026-04-26T13:22:51.032Z</time></trkpt><trkpt lat="46.225444" lon="11.313124"><ele>848.0</ele><time>2026-04-26T13:22:52.032Z</time></trkpt><trkpt lat="46.2255769" lon="11.3131277"><ele>848.0</ele><time>2026-04-26T13:22:53.032Z</time></trkpt><trkpt lat="46.225708" lon="11.3131489"><ele>848.0</ele><time>2026-04-26T13:22:54.033Z</time></trkpt><trkpt lat="46.2258286" lon="11.3131987"><ele>848.0</ele><time>2026-04-26T13:22:55.032Z</time></trkpt><trkpt lat="46.2259309" lon="11.3132655"><ele>848.0</ele><time>2026-04-26T13:22:56.032Z</time></trkpt><trkpt lat="46.2260249" lon="11.3133248"><ele>848.0000000000001</ele><time>2026-04-26T13:22:57.032Z</time></trkpt><trkpt lat="46.2261035" lon="11.3133595"><ele>848.0</ele><time>2026-04-26T13:22:58.032Z</time></trkpt><trkpt lat="46.2261781" lon="11.3133669"><ele>848.0</ele><time>2026-04-26T13:22:59.032Z</time></trkpt><trkpt lat="46.2262768" lon="11.313257"><ele>848.0</ele><time>2026-04-26T13:23:01.032Z</time></trkpt><trkpt lat="46.2263142" lon="11.3131799"><ele>848.0000000000001</ele><time>2026-04-26T13:23:02.032Z</time></trkpt><trkpt lat="46.2263647" lon="11.3131075"><ele>848.0</ele><time>2026-04-26T13:23:03.032Z</time></trkpt><trkpt lat="46.2264326" lon="11.3130441"><ele>840.2</ele><time>2026-04-26T13:23:04.032Z</time></trkpt><trkpt lat="46.2265136" lon="11.3129982"><ele>832.4</ele><time>2026-04-26T13:23:05.032Z</time></trkpt><trkpt lat="46.2266142" lon="11.3129649"><ele>824.6</ele><time>2026-04-26T13:23:06.032Z</time></trkpt><trkpt lat="46.226721" lon="11.3129354"><ele>816.8000000000001</ele><time>2026-04-26T13:23:07.032Z</time></trkpt><trkpt lat="46.2268422" lon="11.3129235"><ele>809.0</ele><time>2026-04-26T13:23:08.032Z</time></trkpt><trkpt lat="46.2269673" lon="11.3129283"><ele>809.0</ele><time>2026-04-26T13:23:09.032Z</time></trkpt><trkpt lat="46.2270952" lon="11.3129473"><ele>809.0</ele><time>2026-04-26T13:23:10.033Z</time></trkpt><trkpt lat="46.2272287" lon="11.3129696"><ele>809.0</ele><time>2026-04-26T13:23:11.032Z</time></trkpt><trkpt lat="46.2273741" lon="11.3129918"><ele>809.0</ele><time>2026-04-26T13:23:12.032Z</time></trkpt><trkpt lat="46.2275162" lon="11.3130102"><ele>808.5</ele><time>2026-04-26T13:23:13.032Z</time></trkpt><trkpt lat="46.2276597" lon="11.3130249"><ele>808.0</ele><time>2026-04-26T13:23:14.032Z</time></trkpt><trkpt lat="46.2277998" lon="11.3130343"><ele>807.5</ele><time>2026-04-26T13:23:15.032Z</time></trkpt><trkpt lat="46.2279448" lon="11.3130554"><ele>807.0</ele><time>2026-04-26T13:23:16.032Z</time></trkpt><trkpt lat="46.2280758" lon="11.3130955"><ele>812.5</ele><time>2026-04-26T13:23:17.032Z</time></trkpt><trkpt lat="46.2282046" lon="11.3131912"><ele>818.0</ele><time>2026-04-26T13:23:18.032Z</time></trkpt><trkpt lat="46.2283239" lon="11.3133135"><ele>823.5</ele><time>2026-04-26T13:23:19.032Z</time></trkpt><trkpt lat="46.2284258" lon="11.3134727"><ele>829.0</ele><time>2026-04-26T13:23:20.032Z</time></trkpt><trkpt lat="46.228502" lon="11.3136643"><ele>829.0</ele><time>2026-04-26T13:23:21.032Z</time></trkpt><trkpt lat="46.2285739" lon="11.3138631"><ele>829.0</ele><time>2026-04-26T13:23:22.032Z</time></trkpt><trkpt lat="46.2286479" lon="11.3140595"><ele>829.0</ele><time>2026-04-26T13:23:23.032Z</time></trkpt><trkpt lat="46.2287237" lon="11.3142542"><ele>833.75</ele><time>2026-04-26T13:23:24.032Z</time></trkpt><trkpt lat="46.2287955" lon="11.3144437"><ele>838.5</ele><time>2026-04-26T13:23:25.032Z</time></trkpt><trkpt lat="46.2288654" lon="11.3146339"><ele>843.25</ele><time>2026-04-26T13:23:26.032Z</time></trkpt><trkpt lat="46.228922" lon="11.3148223"><ele>848.0</ele><time>2026-04-26T13:23:27.032Z</time></trkpt><trkpt lat="46.2289606" lon="11.3150242"><ele>852.75</ele><time>2026-04-26T13:23:28.032Z</time></trkpt><trkpt lat="46.2289781" lon="11.3152311"><ele>857.5</ele><time>2026-04-26T13:23:29.032Z</time></trkpt><trkpt lat="46.2289815" lon="11.315448"><ele>862.25</ele><time>2026-04-26T13:23:30.032Z</time></trkpt><trkpt lat="46.2289486" lon="11.3156616"><ele>867.0</ele><time>2026-04-26T13:23:31.032Z</time></trkpt><trkpt lat="46.2289025" lon="11.3158724"><ele>867.0</ele><time>2026-04-26T13:23:32.032Z</time></trkpt><trkpt lat="46.2288426" lon="11.3160987"><ele>867.0</ele><time>2026-04-26T13:23:33.032Z</time></trkpt><trkpt lat="46.228788" lon="11.316319"><ele>867.0</ele><time>2026-04-26T13:23:34.032Z</time></trkpt><trkpt lat="46.2287339" lon="11.3165441"><ele>868.0</ele><time>2026-04-26T13:23:35.032Z</time></trkpt><trkpt lat="46.2286802" lon="11.31677"><ele>869.0</ele><time>2026-04-26T13:23:36.032Z</time></trkpt><trkpt lat="46.2286287" lon="11.3169964"><ele>870.0</ele><time>2026-04-26T13:23:37.032Z</time></trkpt><trkpt lat="46.2285783" lon="11.3172183"><ele>868.0</ele><time>2026-04-26T13:23:38.032Z</time></trkpt><trkpt lat="46.2285241" lon="11.3174417"><ele>866.0</ele><time>2026-04-26T13:23:39.033Z</time></trkpt><trkpt lat="46.2284682" lon="11.3176627"><ele>864.0</ele><time>2026-04-26T13:23:40.032Z</time></trkpt><trkpt lat="46.2284247" lon="11.3178866"><ele>861.3333333333333</ele><time>2026-04-26T13:23:41.032Z</time></trkpt><trkpt lat="46.2283829" lon="11.3181028"><ele>858.6666666666666</ele><time>2026-04-26T13:23:42.032Z</time></trkpt><trkpt lat="46.2283379" lon="11.3183176"><ele>856.0</ele><time>2026-04-26T13:23:43.032Z</time></trkpt><trkpt lat="46.2282989" lon="11.3185221"><ele>856.0</ele><time>2026-04-26T13:23:44.032Z</time></trkpt><trkpt lat="46.2282617" lon="11.3187132"><ele>856.0</ele><time>2026-04-26T13:23:45.032Z</time></trkpt><trkpt lat="46.2282334" lon="11.3188956"><ele>856.0</ele><time>2026-04-26T13:23:46.032Z</time></trkpt><trkpt lat="46.2282074" lon="11.3190633"><ele>856.0</ele><time>2026-04-26T13:23:47.032Z</time></trkpt><trkpt lat="46.2281968" lon="11.3192276"><ele>855.5999999999999</ele><time>2026-04-26T13:23:48.032Z</time></trkpt><trkpt lat="46.2282062" lon="11.3193898"><ele>855.1999999999999</ele><time>2026-04-26T13:23:49.032Z</time></trkpt><trkpt lat="46.2282401" lon="11.3195373"><ele>854.8000000000001</ele><time>2026-04-26T13:23:50.032Z</time></trkpt><trkpt lat="46.2282976" lon="11.319677"><ele>854.4000000000001</ele><time>2026-04-26T13:23:51.032Z</time></trkpt><trkpt lat="46.2283786" lon="11.3197872"><ele>854.0</ele><time>2026-04-26T13:23:52.032Z</time></trkpt><trkpt lat="46.2284789" lon="11.3198749"><ele>856.0</ele><time>2026-04-26T13:23:53.032Z</time></trkpt><trkpt lat="46.2285956" lon="11.3199437"><ele>858.0</ele><time>2026-04-26T13:23:54.032Z</time></trkpt><trkpt lat="46.2287255" lon="11.3199787"><ele>860.0</ele><time>2026-04-26T13:23:55.032Z</time></trkpt><trkpt lat="46.228862" lon="11.3199772"><ele>862.0</ele><time>2026-04-26T13:23:56.032Z</time></trkpt><trkpt lat="46.228995" lon="11.3199482"><ele>862.0</ele><time>2026-04-26T13:23:57.032Z</time></trkpt><trkpt lat="46.2291367" lon="11.319897"><ele>862.0</ele><time>2026-04-26T13:23:58.032Z</time></trkpt><trkpt lat="46.2292808" lon="11.3198466"><ele>862.0</ele><time>2026-04-26T13:23:59.033Z</time></trkpt><trkpt lat="46.2294303" lon="11.3197894"><ele>862.0</ele><time>2026-04-26T13:24:00.032Z</time></trkpt><trkpt lat="46.2295864" lon="11.3197339"><ele>852.3333333333333</ele><time>2026-04-26T13:24:01.032Z</time></trkpt><trkpt lat="46.2297485" lon="11.3196836"><ele>842.6666666666667</ele><time>2026-04-26T13:24:02.032Z</time></trkpt><trkpt lat="46.2299146" lon="11.3196257"><ele>833.0</ele><time>2026-04-26T13:24:03.032Z</time></trkpt><trkpt lat="46.2300771" lon="11.3195552"><ele>833.0</ele><time>2026-04-26T13:24:04.032Z</time></trkpt><trkpt lat="46.2302363" lon="11.3194718"><ele>833.0</ele><time>2026-04-26T13:24:05.032Z</time></trkpt><trkpt lat="46.2303923" lon="11.3193794"><ele>833.0</ele><time>2026-04-26T13:24:06.032Z</time></trkpt><trkpt lat="46.2305397" lon="11.3192744"><ele>834.75</ele><time>2026-04-26T13:24:07.033Z</time></trkpt><trkpt lat="46.2306874" lon="11.3191805"><ele>836.5</ele><time>2026-04-26T13:24:08.032Z</time></trkpt><trkpt lat="46.230827" lon="11.3191044"><ele>838.25</ele><time>2026-04-26T13:24:09.032Z</time></trkpt><trkpt lat="46.2309553" lon="11.319061"><ele>840.0</ele><time>2026-04-26T13:24:10.033Z</time></trkpt><trkpt lat="46.2310798" lon="11.3190791"><ele>840.0</ele><time>2026-04-26T13:24:11.032Z</time></trkpt><trkpt lat="46.2311815" lon="11.3191375"><ele>840.0</ele><time>2026-04-26T13:24:12.032Z</time></trkpt><trkpt lat="46.231263" lon="11.3192437"><ele>840.0</ele><time>2026-04-26T13:24:13.032Z</time></trkpt><trkpt lat="46.231329" lon="11.3193886"><ele>840.0</ele><time>2026-04-26T13:24:14.032Z</time></trkpt><trkpt lat="46.2313916" lon="11.3195581"><ele>844.0</ele><time>2026-04-26T13:24:15.032Z</time></trkpt><trkpt lat="46.2314594" lon="11.319742"><ele>848.0</ele><time>2026-04-26T13:24:16.032Z</time></trkpt><trkpt lat="46.2315417" lon="11.3199259"><ele>852.0</ele><time>2026-04-26T13:24:17.032Z</time></trkpt><trkpt lat="46.2316358" lon="11.3200926"><ele>856.0</ele><time>2026-04-26T13:24:18.032Z</time></trkpt><trkpt lat="46.2317444" lon="11.3202482"><ele>856.0</ele><time>2026-04-26T13:24:19.032Z</time></trkpt><trkpt lat="46.2318567" lon="11.3204017"><ele>856.0</ele><time>2026-04-26T13:24:20.032Z</time></trkpt><trkpt lat="46.2319697" lon="11.3205595"><ele>856.0</ele><time>2026-04-26T13:24:21.032Z</time></trkpt><trkpt lat="46.2320751" lon="11.3207236"><ele>851.0</ele><time>2026-04-26T13:24:22.032Z</time></trkpt><trkpt lat="46.2321715" lon="11.3208925"><ele>846.0</ele><time>2026-04-26T13:24:23.032Z</time></trkpt><trkpt lat="46.2322548" lon="11.3210856"><ele>841.0</ele><time>2026-04-26T13:24:24.032Z</time></trkpt><trkpt lat="46.2323264" lon="11.3212872"><ele>847.6666666666666</ele><time>2026-04-26T13:24:25.032Z</time></trkpt><trkpt lat="46.2323988" lon="11.3214963"><ele>854.3333333333333</ele><time>2026-04-26T13:24:26.032Z</time></trkpt><trkpt lat="46.232473" lon="11.3217069"><ele>861.0</ele><time>2026-04-26T13:24:27.032Z</time></trkpt><trkpt lat="46.232546" lon="11.3219063"><ele>861.0</ele><time>2026-04-26T13:24:28.032Z</time></trkpt><trkpt lat="46.2326055" lon="11.3221175"><ele>861.0</ele><time>2026-04-26T13:24:29.032Z</time></trkpt><trkpt lat="46.2326581" lon="11.3223335"><ele>861.0</ele><time>2026-04-26T13:24:30.033Z</time></trkpt><trkpt lat="46.2327008" lon="11.3225561"><ele>868.0</ele><time>2026-04-26T13:24:31.032Z</time></trkpt><trkpt lat="46.2327376" lon="11.322787"><ele>875.0</ele><time>2026-04-26T13:24:32.032Z</time></trkpt><trkpt lat="46.2327758" lon="11.3230193"><ele>882.0</ele><time>2026-04-26T13:24:33.032Z</time></trkpt><trkpt lat="46.2328131" lon="11.3232531"><ele>887.0</ele><time>2026-04-26T13:24:34.032Z</time></trkpt><trkpt lat="46.2328483" lon="11.3234872"><ele>892.0</ele><time>2026-04-26T13:24:35.032Z</time></trkpt><trkpt lat="46.2328843" lon="11.3237177"><ele>897.0</ele><time>2026-04-26T13:24:36.032Z</time></trkpt><trkpt lat="46.2329214" lon="11.3239353"><ele>898.75</ele><time>2026-04-26T13:24:37.032Z</time></trkpt><trkpt lat="46.2329545" lon="11.3241521"><ele>900.5</ele><time>2026-04-26T13:24:38.033Z</time></trkpt><trkpt lat="46.2329771" lon="11.3243595"><ele>902.25</ele><time>2026-04-26T13:24:39.032Z</time></trkpt><trkpt lat="46.2329762" lon="11.3245626"><ele>904.0</ele><time>2026-04-26T13:24:40.032Z</time></trkpt><trkpt lat="46.23296" lon="11.3247588"><ele>904.5</ele><time>2026-04-26T13:24:41.032Z</time></trkpt><trkpt lat="46.2329238" lon="11.3249419"><ele>905.0</ele><time>2026-04-26T13:24:42.032Z</time></trkpt><trkpt lat="46.2328805" lon="11.3251076"><ele>905.5</ele><time>2026-04-26T13:24:43.032Z</time></trkpt><trkpt lat="46.232835" lon="11.3252632"><ele>906.0</ele><time>2026-04-26T13:24:44.032Z</time></trkpt><trkpt lat="46.2327985" lon="11.3254001"><ele>906.0</ele><time>2026-04-26T13:24:45.032Z</time></trkpt><trkpt lat="46.2327838" lon="11.3255234"><ele>906.0</ele><time>2026-04-26T13:24:46.032Z</time></trkpt><trkpt lat="46.2327935" lon="11.3256313"><ele>906.0</ele><time>2026-04-26T13:24:47.032Z</time></trkpt><trkpt lat="46.2328317" lon="11.3257358"><ele>906.0</ele><time>2026-04-26T13:24:48.032Z</time></trkpt><trkpt lat="46.2328882" lon="11.3258057"><ele>906.0</ele><time>2026-04-26T13:24:49.032Z</time></trkpt><trkpt lat="46.2329606" lon="11.325867"><ele>906.0</ele><time>2026-04-26T13:24:50.032Z</time></trkpt><trkpt lat="46.233042" lon="11.3258957"><ele>904.25</ele><time>2026-04-26T13:24:51.032Z</time></trkpt><trkpt lat="46.2331384" lon="11.325886"><ele>902.5</ele><time>2026-04-26T13:24:52.032Z</time></trkpt><trkpt lat="46.2332474" lon="11.3258329"><ele>900.75</ele><time>2026-04-26T13:24:53.032Z</time></trkpt><trkpt lat="46.2333559" lon="11.3257631"><ele>899.0</ele><time>2026-04-26T13:24:54.032Z</time></trkpt><trkpt lat="46.2334741" lon="11.325681"><ele>892.25</ele><time>2026-04-26T13:24:55.032Z</time></trkpt><trkpt lat="46.2335936" lon="11.3255963"><ele>885.5</ele><time>2026-04-26T13:24:56.032Z</time></trkpt><trkpt lat="46.2337179" lon="11.325505"><ele>878.75</ele><time>2026-04-26T13:24:57.032Z</time></trkpt><trkpt lat="46.2338284" lon="11.325407"><ele>872.0</ele><time>2026-04-26T13:24:58.032Z</time></trkpt><trkpt lat="46.2339345" lon="11.3252877"><ele>871.5</ele><time>2026-04-26T13:24:59.032Z</time></trkpt><trkpt lat="46.234021" lon="11.325135"><ele>871.0</ele><time>2026-04-26T13:25:00.033Z</time></trkpt><trkpt lat="46.2340949" lon="11.3249703"><ele>870.5</ele><time>2026-04-26T13:25:01.032Z</time></trkpt><trkpt lat="46.2341793" lon="11.3248048"><ele>870.0</ele><time>2026-04-26T13:25:02.033Z</time></trkpt><trkpt lat="46.2342754" lon="11.32466"><ele>861.0</ele><time>2026-04-26T13:25:03.032Z</time></trkpt><trkpt lat="46.2343838" lon="11.3245239"><ele>852.0</ele><time>2026-04-26T13:25:04.033Z</time></trkpt><trkpt lat="46.2344952" lon="11.3243926"><ele>843.0</ele><time>2026-04-26T13:25:05.032Z</time></trkpt><trkpt lat="46.2346102" lon="11.3242601"><ele>834.0</ele><time>2026-04-26T13:25:06.032Z</time></trkpt><trkpt lat="46.2347283" lon="11.3241346"><ele>831.75</ele><time>2026-04-26T13:25:07.032Z</time></trkpt><trkpt lat="46.2348434" lon="11.3240207"><ele>829.5</ele><time>2026-04-26T13:25:08.032Z</time></trkpt><trkpt lat="46.2349627" lon="11.3239158"><ele>827.25</ele><time>2026-04-26T13:25:09.032Z</time></trkpt><trkpt lat="46.23509" lon="11.3238333"><ele>825.0</ele><time>2026-04-26T13:25:10.032Z</time></trkpt><trkpt lat="46.2352243" lon="11.3237759"><ele>825.0</ele><time>2026-04-26T13:25:11.032Z</time></trkpt><trkpt lat="46.2353626" lon="11.3237519"><ele>825.0</ele><time>2026-04-26T13:25:12.032Z</time></trkpt><trkpt lat="46.2355119" lon="11.3237383"><ele>825.0</ele><time>2026-04-26T13:25:13.033Z</time></trkpt><trkpt lat="46.2356613" lon="11.3237403"><ele>825.0</ele><time>2026-04-26T13:25:14.032Z</time></trkpt><trkpt lat="46.2358175" lon="11.3237465"><ele>833.6666666666667</ele><time>2026-04-26T13:25:15.032Z</time></trkpt><trkpt lat="46.2359709" lon="11.3237588"><ele>842.3333333333334</ele><time>2026-04-26T13:25:16.032Z</time></trkpt><trkpt lat="46.2361249" lon="11.3237623"><ele>851.0</ele><time>2026-04-26T13:25:17.032Z</time></trkpt><trkpt lat="46.2362739" lon="11.3237744"><ele>851.0</ele><time>2026-04-26T13:25:18.032Z</time></trkpt><trkpt lat="46.2364046" lon="11.3238071"><ele>851.0</ele><time>2026-04-26T13:25:19.032Z</time></trkpt><trkpt lat="46.2365336" lon="11.3238783"><ele>851.0</ele><time>2026-04-26T13:25:20.032Z</time></trkpt><trkpt lat="46.2366647" lon="11.3239742"><ele>851.0</ele><time>2026-04-26T13:25:21.032Z</time></trkpt><trkpt lat="46.2367922" lon="11.3240956"><ele>852.75</ele><time>2026-04-26T13:25:22.032Z</time></trkpt><trkpt lat="46.2369119" lon="11.3242122"><ele>854.5</ele><time>2026-04-26T13:25:23.032Z</time></trkpt><trkpt lat="46.2370403" lon="11.3243111"><ele>856.25</ele><time>2026-04-26T13:25:24.032Z</time></trkpt><trkpt lat="46.2371781" lon="11.324405"><ele>858.0</ele><time>2026-04-26T13:25:25.032Z</time></trkpt><trkpt lat="46.2373216" lon="11.3244755"><ele>858.0</ele><time>2026-04-26T13:25:26.032Z</time></trkpt><trkpt lat="46.2374741" lon="11.3245273"><ele>858.0</ele><time>2026-04-26T13:25:27.032Z</time></trkpt><trkpt lat="46.2376268" lon="11.3245774"><ele>858.0</ele><time>2026-04-26T13:25:28.032Z</time></trkpt><trkpt lat="46.2377781" lon="11.3246274"><ele>858.0</ele><time>2026-04-26T13:25:29.032Z</time></trkpt><trkpt lat="46.2379258" lon="11.3246773"><ele>858.0</ele><time>2026-04-26T13:25:30.032Z</time></trkpt><trkpt lat="46.2380801" lon="11.3247253"><ele>858.0</ele><time>2026-04-26T13:25:31.032Z</time></trkpt><trkpt lat="46.2382296" lon="11.3247793"><ele>862.0</ele><time>2026-04-26T13:25:32.032Z</time></trkpt><trkpt lat="46.2383705" lon="11.324836"><ele>866.0</ele><time>2026-04-26T13:25:33.032Z</time></trkpt><trkpt lat="46.2385117" lon="11.3248864"><ele>870.0</ele><time>2026-04-26T13:25:34.032Z</time></trkpt><trkpt lat="46.238656" lon="11.3249308"><ele>874.0</ele><time>2026-04-26T13:25:35.032Z</time></trkpt><trkpt lat="46.2387984" lon="11.3249456"><ele>874.0</ele><time>2026-04-26T13:25:36.033Z</time></trkpt><trkpt lat="46.2389431" lon="11.3249282"><ele>874.0</ele><time>2026-04-26T13:25:37.032Z</time></trkpt><trkpt lat="46.2390835" lon="11.3248927"><ele>874.0</ele><time>2026-04-26T13:25:38.032Z</time></trkpt><trkpt lat="46.2392135" lon="11.3248537"><ele>874.0</ele><time>2026-04-26T13:25:39.032Z</time></trkpt><trkpt lat="46.2393441" lon="11.3248063"><ele>873.5</ele><time>2026-04-26T13:25:40.032Z</time></trkpt><trkpt lat="46.2394756" lon="11.3247703"><ele>873.0</ele><time>2026-04-26T13:25:41.032Z</time></trkpt><trkpt lat="46.2395925" lon="11.32474"><ele>872.5</ele><time>2026-04-26T13:25:42.032Z</time></trkpt><trkpt lat="46.2397048" lon="11.3247102"><ele>872.0</ele><time>2026-04-26T13:25:43.032Z</time></trkpt><trkpt lat="46.2398101" lon="11.3247014"><ele>873.6</ele><time>2026-04-26T13:25:44.032Z</time></trkpt><trkpt lat="46.2399082" lon="11.3247076"><ele>875.2</ele><time>2026-04-26T13:25:45.032Z</time></trkpt><trkpt lat="46.2400056" lon="11.3247198"><ele>876.8</ele><time>2026-04-26T13:25:46.032Z</time></trkpt><trkpt lat="46.2401072" lon="11.324738"><ele>878.4</ele><time>2026-04-26T13:25:47.032Z</time></trkpt><trkpt lat="46.2402208" lon="11.3247683"><ele>880.0</ele><time>2026-04-26T13:25:48.032Z</time></trkpt><trkpt lat="46.2403408" lon="11.3248101"><ele>880.0</ele><time>2026-04-26T13:25:49.032Z</time></trkpt><trkpt lat="46.2404669" lon="11.3248616"><ele>880.0</ele><time>2026-04-26T13:25:50.032Z</time></trkpt><trkpt lat="46.2405876" lon="11.324918"><ele>880.0</ele><time>2026-04-26T13:25:51.032Z</time></trkpt><trkpt lat="46.2407068" lon="11.3249718"><ele>880.0</ele><time>2026-04-26T13:25:52.032Z</time></trkpt><trkpt lat="46.2408183" lon="11.3250427"><ele>879.25</ele><time>2026-04-26T13:25:53.032Z</time></trkpt><trkpt lat="46.2409198" lon="11.3251406"><ele>878.5</ele><time>2026-04-26T13:25:54.032Z</time></trkpt><trkpt lat="46.2410102" lon="11.3252671"><ele>877.75</ele><time>2026-04-26T13:25:55.032Z</time></trkpt><trkpt lat="46.2410807" lon="11.3254128"><ele>877.0</ele><time>2026-04-26T13:25:56.032Z</time></trkpt><trkpt lat="46.2411389" lon="11.3255939"><ele>881.5</ele><time>2026-04-26T13:25:57.032Z</time></trkpt><trkpt lat="46.2411698" lon="11.3257786"><ele>886.0</ele><time>2026-04-26T13:25:58.032Z</time></trkpt><trkpt lat="46.2412019" lon="11.3259503"><ele>890.5</ele><time>2026-04-26T13:25:59.032Z</time></trkpt><trkpt lat="46.2412473" lon="11.3260993"><ele>895.0</ele><time>2026-04-26T13:26:00.033Z</time></trkpt><trkpt lat="46.2413151" lon="11.3262259"><ele>895.0</ele><time>2026-04-26T13:26:01.032Z</time></trkpt><trkpt lat="46.2414031" lon="11.326342"><ele>895.0</ele><time>2026-04-26T13:26:02.033Z</time></trkpt><trkpt lat="46.2415025" lon="11.3264272"><ele>895.0</ele><time>2026-04-26T13:26:03.032Z</time></trkpt><trkpt lat="46.2416184" lon="11.3265129"><ele>895.0</ele><time>2026-04-26T13:26:04.032Z</time></trkpt><trkpt lat="46.2417324" lon="11.3265992"><ele>893.75</ele><time>2026-04-26T13:26:05.032Z</time></trkpt><trkpt lat="46.2418409" lon="11.3267076"><ele>892.5</ele><time>2026-04-26T13:26:06.032Z</time></trkpt><trkpt lat="46.2419405" lon="11.3268551"><ele>891.25</ele><time>2026-04-26T13:26:07.033Z</time></trkpt><trkpt lat="46.2420271" lon="11.3270231"><ele>890.0</ele><time>2026-04-26T13:26:08.032Z</time></trkpt><trkpt lat="46.2421043" lon="11.3272018"><ele>886.3333333333334</ele><time>2026-04-26T13:26:09.032Z</time></trkpt><trkpt lat="46.242189" lon="11.3273795"><ele>882.6666666666667</ele><time>2026-04-26T13:26:10.032Z</time></trkpt><trkpt lat="46.2422792" lon="11.3275545"><ele>879.0</ele><time>2026-04-26T13:26:11.032Z</time></trkpt><trkpt lat="46.2423819" lon="11.3277194"><ele>879.0</ele><time>2026-04-26T13:26:12.032Z</time></trkpt><trkpt lat="46.2424946" lon="11.3278716"><ele>879.0</ele><time>2026-04-26T13:26:13.032Z</time></trkpt><trkpt lat="46.2426089" lon="11.3280183"><ele>879.0</ele><time>2026-04-26T13:26:14.032Z</time></trkpt><trkpt lat="46.2427131" lon="11.3281494"><ele>879.0</ele><time>2026-04-26T13:26:15.032Z</time></trkpt><trkpt lat="46.2427956" lon="11.3282888"><ele>885.5</ele><time>2026-04-26T13:26:16.032Z</time></trkpt><trkpt lat="46.2428474" lon="11.3284432"><ele>892.0</ele><time>2026-04-26T13:26:17.032Z</time></trkpt><trkpt lat="46.2428698" lon="11.328617"><ele>898.5</ele><time>2026-04-26T13:26:18.032Z</time></trkpt><trkpt lat="46.2428746" lon="11.3287987"><ele>905.0</ele><time>2026-04-26T13:26:19.032Z</time></trkpt><trkpt lat="46.2428808" lon="11.3289906"><ele>908.75</ele><time>2026-04-26T13:26:20.032Z</time></trkpt><trkpt lat="46.2428965" lon="11.3291822"><ele>912.5</ele><time>2026-04-26T13:26:21.032Z</time></trkpt><trkpt lat="46.2429388" lon="11.3293748"><ele>916.25</ele><time>2026-04-26T13:26:22.032Z</time></trkpt><trkpt lat="46.2430084" lon="11.3295611"><ele>920.0</ele><time>2026-04-26T13:26:23.032Z</time></trkpt><trkpt lat="46.2430871" lon="11.3297349"><ele>909.25</ele><time>2026-04-26T13:26:24.032Z</time></trkpt><trkpt lat="46.2431618" lon="11.3299205"><ele>898.5</ele><time>2026-04-26T13:26:25.032Z</time></trkpt><trkpt lat="46.2432222" lon="11.3301084"><ele>887.75</ele><time>2026-04-26T13:26:26.032Z</time></trkpt><trkpt lat="46.2432807" lon="11.3303018"><ele>877.0</ele><time>2026-04-26T13:26:27.032Z</time></trkpt><trkpt lat="46.2433454" lon="11.3305021"><ele>882.0</ele><time>2026-04-26T13:26:28.032Z</time></trkpt><trkpt lat="46.2434069" lon="11.3306953"><ele>887.0</ele><time>2026-04-26T13:26:29.032Z</time></trkpt><trkpt lat="46.24347" lon="11.3308668"><ele>892.0</ele><time>2026-04-26T13:26:30.032Z</time></trkpt><trkpt lat="46.2435425" lon="11.3310177"><ele>897.0</ele><time>2026-04-26T13:26:31.032Z</time></trkpt><trkpt lat="46.2436211" lon="11.3311465"><ele>897.0</ele><time>2026-04-26T13:26:32.032Z</time></trkpt><trkpt lat="46.2437194" lon="11.3312212"><ele>897.0</ele><time>2026-04-26T13:26:33.032Z</time></trkpt><trkpt lat="46.2438307" lon="11.3312455"><ele>897.0</ele><time>2026-04-26T13:26:34.032Z</time></trkpt><trkpt lat="46.2439694" lon="11.3312474"><ele>897.0</ele><time>2026-04-26T13:26:35.032Z</time></trkpt><trkpt lat="46.2440997" lon="11.3312243"><ele>889.0</ele><time>2026-04-26T13:26:36.032Z</time></trkpt><trkpt lat="46.2442283" lon="11.3311916"><ele>881.0</ele><time>2026-04-26T13:26:37.033Z</time></trkpt><trkpt lat="46.24435" lon="11.3311664"><ele>873.0</ele><time>2026-04-26T13:26:38.032Z</time></trkpt><trkpt lat="46.2444637" lon="11.3311647"><ele>865.0</ele><time>2026-04-26T13:26:39.032Z</time></trkpt><trkpt lat="46.2445909" lon="11.3312057"><ele>865.0</ele><time>2026-04-26T13:26:40.032Z</time></trkpt><trkpt lat="46.2447135" lon="11.3312813"><ele>865.0</ele><time>2026-04-26T13:26:41.032Z</time></trkpt><trkpt lat="46.244837" lon="11.3314003"><ele>865.0</ele><time>2026-04-26T13:26:42.032Z</time></trkpt><trkpt lat="46.2449645" lon="11.3315338"><ele>865.0</ele><time>2026-04-26T13:26:43.032Z</time></trkpt><trkpt lat="46.2450943" lon="11.3316518"><ele>870.6666666666666</ele><time>2026-04-26T13:26:44.032Z</time></trkpt><trkpt lat="46.2452357" lon="11.3317707"><ele>876.3333333333333</ele><time>2026-04-26T13:26:45.032Z</time></trkpt><trkpt lat="46.2453841" lon="11.3318716"><ele>882.0</ele><time>2026-04-26T13:26:46.032Z</time></trkpt><trkpt lat="46.2455397" lon="11.3319654"><ele>889.0</ele><time>2026-04-26T13:26:47.032Z</time></trkpt><trkpt lat="46.2456971" lon="11.3320656"><ele>896.0</ele><time>2026-04-26T13:26:48.032Z</time></trkpt><trkpt lat="46.245855" lon="11.3321743"><ele>903.0</ele><time>2026-04-26T13:26:49.032Z</time></trkpt><trkpt lat="46.2460102" lon="11.3322893"><ele>903.0</ele><time>2026-04-26T13:26:50.032Z</time></trkpt><trkpt lat="46.2461711" lon="11.3324098"><ele>903.0</ele><time>2026-04-26T13:26:51.032Z</time></trkpt><trkpt lat="46.2463305" lon="11.3325056"><ele>903.0</ele><time>2026-04-26T13:26:52.032Z</time></trkpt><trkpt lat="46.2465024" lon="11.3325841"><ele>893.0</ele><time>2026-04-26T13:26:53.032Z</time></trkpt><trkpt lat="46.2466695" lon="11.3326426"><ele>883.0</ele><time>2026-04-26T13:26:54.032Z</time></trkpt><trkpt lat="46.2468284" lon="11.3326834"><ele>873.0</ele><time>2026-04-26T13:26:55.033Z</time></trkpt><trkpt lat="46.2469905" lon="11.3327109"><ele>873.0</ele><time>2026-04-26T13:26:56.032Z</time></trkpt><trkpt lat="46.2471453" lon="11.3327513"><ele>873.0</ele><time>2026-04-26T13:26:57.032Z</time></trkpt><trkpt lat="46.2472929" lon="11.3328141"><ele>873.0</ele><time>2026-04-26T13:26:58.031Z</time></trkpt><trkpt lat="46.2474333" lon="11.3328938"><ele>876.5</ele><time>2026-04-26T13:26:59.031Z</time></trkpt><trkpt lat="46.2475607" lon="11.3329996"><ele>880.0</ele><time>2026-04-26T13:27:00.032Z</time></trkpt><trkpt lat="46.2476616" lon="11.3331392"><ele>883.5</ele><time>2026-04-26T13:27:01.031Z</time></trkpt><trkpt lat="46.2477416" lon="11.33331"><ele>887.0</ele><time>2026-04-26T13:27:02.031Z</time></trkpt><trkpt lat="46.2477899" lon="11.3335062"><ele>887.0</ele><time>2026-04-26T13:27:03.031Z</time></trkpt><trkpt lat="46.2478112" lon="11.3337149"><ele>887.0</ele><time>2026-04-26T13:27:04.031Z</time></trkpt><trkpt lat="46.2477924" lon="11.3339303"><ele>887.0</ele><time>2026-04-26T13:27:05.031Z</time></trkpt><trkpt lat="46.2477534" lon="11.33414"><ele>887.0</ele><time>2026-04-26T13:27:06.031Z</time></trkpt><trkpt lat="46.2477035" lon="11.3343558"><ele>887.3333333333334</ele><time>2026-04-26T13:27:07.031Z</time></trkpt><trkpt lat="46.2476471" lon="11.3345729"><ele>887.6666666666667</ele><time>2026-04-26T13:27:08.031Z</time></trkpt><trkpt lat="46.2475871" lon="11.3347845"><ele>888.0</ele><time>2026-04-26T13:27:09.031Z</time></trkpt><trkpt lat="46.2475286" lon="11.3349802"><ele>887.5999999999999</ele><time>2026-04-26T13:27:10.031Z</time></trkpt><trkpt lat="46.2474692" lon="11.3351578"><ele>887.1999999999999</ele><time>2026-04-26T13:27:11.031Z</time></trkpt><trkpt lat="46.2474275" lon="11.3353175"><ele>886.8</ele><time>2026-04-26T13:27:12.031Z</time></trkpt><trkpt lat="46.2474098" lon="11.3354627"><ele>886.4</ele><time>2026-04-26T13:27:13.031Z</time></trkpt><trkpt lat="46.2474211" lon="11.3355961"><ele>886.0</ele><time>2026-04-26T13:27:14.031Z</time></trkpt><trkpt lat="46.2474628" lon="11.3357008"><ele>887.75</ele><time>2026-04-26T13:27:15.031Z</time></trkpt><trkpt lat="46.2475364" lon="11.3358097"><ele>889.5</ele><time>2026-04-26T13:27:16.031Z</time></trkpt><trkpt lat="46.2476324" lon="11.335923"><ele>891.25</ele><time>2026-04-26T13:27:17.031Z</time></trkpt><trkpt lat="46.2477327" lon="11.3360506"><ele>893.0</ele><time>2026-04-26T13:27:18.031Z</time></trkpt><trkpt lat="46.2478393" lon="11.3361805"><ele>893.0</ele><time>2026-04-26T13:27:19.031Z</time></trkpt><trkpt lat="46.2479454" lon="11.336319"><ele>893.0</ele><time>2026-04-26T13:27:20.031Z</time></trkpt><trkpt lat="46.2480578" lon="11.3364585"><ele>893.0</ele><time>2026-04-26T13:27:21.031Z</time></trkpt><trkpt lat="46.2481695" lon="11.3365979"><ele>893.0</ele><time>2026-04-26T13:27:22.031Z</time></trkpt><trkpt lat="46.2482761" lon="11.3367354"><ele>886.75</ele><time>2026-04-26T13:27:23.031Z</time></trkpt><trkpt lat="46.2483724" lon="11.3368685"><ele>880.5</ele><time>2026-04-26T13:27:24.032Z</time></trkpt><trkpt lat="46.2484614" lon="11.3369947"><ele>874.25</ele><time>2026-04-26T13:27:25.031Z</time></trkpt><trkpt lat="46.2485378" lon="11.3371041"><ele>868.0</ele><time>2026-04-26T13:27:26.031Z</time></trkpt><trkpt lat="46.2486037" lon="11.3372042"><ele>867.1666666666666</ele><time>2026-04-26T13:27:27.031Z</time></trkpt><trkpt lat="46.2486351" lon="11.3373124"><ele>866.3333333333333</ele><time>2026-04-26T13:27:28.031Z</time></trkpt><trkpt lat="46.2486399" lon="11.3374155"><ele>865.5</ele><time>2026-04-26T13:27:29.031Z</time></trkpt><trkpt lat="46.2486104" lon="11.3375244"><ele>864.6666666666667</ele><time>2026-04-26T13:27:30.031Z</time></trkpt><trkpt lat="46.248545" lon="11.3376196"><ele>863.8333333333334</ele><time>2026-04-26T13:27:31.031Z</time></trkpt><trkpt lat="46.2484644" lon="11.3376842"><ele>863.0</ele><time>2026-04-26T13:27:32.032Z</time></trkpt><trkpt lat="46.2483656" lon="11.3377197"><ele>863.0</ele><time>2026-04-26T13:27:33.031Z</time></trkpt><trkpt lat="46.2482563" lon="11.3377553"><ele>863.0</ele><time>2026-04-26T13:27:34.031Z</time></trkpt><trkpt lat="46.2481359" lon="11.3377995"><ele>863.0</ele><time>2026-04-26T13:27:35.031Z</time></trkpt><trkpt lat="46.2480143" lon="11.3378568"><ele>863.0</ele><time>2026-04-26T13:27:36.031Z</time></trkpt><trkpt lat="46.2478939" lon="11.3379135"><ele>862.0</ele><time>2026-04-26T13:27:37.031Z</time></trkpt><trkpt lat="46.2477817" lon="11.3379829"><ele>861.0</ele><time>2026-04-26T13:27:38.032Z</time></trkpt><trkpt lat="46.2476716" lon="11.3380679"><ele>860.0</ele><time>2026-04-26T13:27:39.031Z</time></trkpt><trkpt lat="46.247567" lon="11.3381604"><ele>859.0</ele><time>2026-04-26T13:27:40.031Z</time></trkpt><trkpt lat="46.2474616" lon="11.3382556"><ele>859.0</ele><time>2026-04-26T13:27:41.031Z</time></trkpt><trkpt lat="46.2473514" lon="11.3383187"><ele>859.0</ele><time>2026-04-26T13:27:42.031Z</time></trkpt><trkpt lat="46.2472387" lon="11.3383556"><ele>859.0</ele><time>2026-04-26T13:27:43.031Z</time></trkpt><trkpt lat="46.2471232" lon="11.3383453"><ele>859.0</ele><time>2026-04-26T13:27:44.031Z</time></trkpt><trkpt lat="46.2470125" lon="11.3383184"><ele>863.25</ele><time>2026-04-26T13:27:45.031Z</time></trkpt><trkpt lat="46.2468975" lon="11.338292"><ele>867.5</ele><time>2026-04-26T13:27:46.031Z</time></trkpt><trkpt lat="46.2467794" lon="11.3382955"><ele>871.75</ele><time>2026-04-26T13:27:47.031Z</time></trkpt><trkpt lat="46.2466595" lon="11.3383314"><ele>876.0</ele><time>2026-04-26T13:27:48.031Z</time></trkpt><trkpt lat="46.246541" lon="11.3384039"><ele>883.75</ele><time>2026-04-26T13:27:49.032Z</time></trkpt><trkpt lat="46.2464255" lon="11.3384978"><ele>891.5</ele><time>2026-04-26T13:27:50.031Z</time></trkpt><trkpt lat="46.246308" lon="11.3386098"><ele>899.25</ele><time>2026-04-26T13:27:51.031Z</time></trkpt><trkpt lat="46.246185" lon="11.338716"><ele>907.0</ele><time>2026-04-26T13:27:52.031Z</time></trkpt><trkpt lat="46.246057" lon="11.3388252"><ele>893.0</ele><time>2026-04-26T13:27:53.031Z</time></trkpt><trkpt lat="46.2459256" lon="11.3389377"><ele>879.0</ele><time>2026-04-26T13:27:54.031Z</time></trkpt><trkpt lat="46.245792" lon="11.3390553"><ele>865.0</ele><time>2026-04-26T13:27:55.031Z</time></trkpt><trkpt lat="46.245653" lon="11.3391665"><ele>879.6666666666666</ele><time>2026-04-26T13:27:56.031Z</time></trkpt><trkpt lat="46.2455185" lon="11.3392757"><ele>894.3333333333333</ele><time>2026-04-26T13:27:57.031Z</time></trkpt><trkpt lat="46.2453893" lon="11.3393931"><ele>909.0</ele><time>2026-04-26T13:27:58.031Z</time></trkpt><trkpt lat="46.2452652" lon="11.3395264"><ele>909.0</ele><time>2026-04-26T13:27:59.031Z</time></trkpt><trkpt lat="46.2451514" lon="11.3396718"><ele>909.0</ele><time>2026-04-26T13:28:00.031Z</time></trkpt><trkpt lat="46.245053" lon="11.3398323"><ele>909.0</ele><time>2026-04-26T13:28:01.031Z</time></trkpt><trkpt lat="46.244951" lon="11.3399924"><ele>908.0</ele><time>2026-04-26T13:28:02.031Z</time></trkpt><trkpt lat="46.2448541" lon="11.3401403"><ele>907.0</ele><time>2026-04-26T13:28:03.031Z</time></trkpt><trkpt lat="46.2447594" lon="11.3402789"><ele>906.0</ele><time>2026-04-26T13:28:04.031Z</time></trkpt><trkpt lat="46.2446604" lon="11.3404144"><ele>905.0</ele><time>2026-04-26T13:28:05.031Z</time></trkpt><trkpt lat="46.2445612" lon="11.3405372"><ele>896.75</ele><time>2026-04-26T13:28:06.031Z</time></trkpt><trkpt lat="46.2444474" lon="11.3406489"><ele>888.5</ele><time>2026-04-26T13:28:07.031Z</time></trkpt><trkpt lat="46.24432" lon="11.340739"><ele>880.25</ele><time>2026-04-26T13:28:08.032Z</time></trkpt><trkpt lat="46.2441857" lon="11.3408009"><ele>872.0</ele><time>2026-04-26T13:28:09.031Z</time></trkpt><trkpt lat="46.2440431" lon="11.3408474"><ele>877.0</ele><time>2026-04-26T13:28:10.031Z</time></trkpt><trkpt lat="46.243896" lon="11.3408954"><ele>882.0</ele><time>2026-04-26T13:28:11.031Z</time></trkpt><trkpt lat="46.2437572" lon="11.3409644"><ele>887.0</ele><time>2026-04-26T13:28:12.031Z</time></trkpt><trkpt lat="46.2436287" lon="11.3410651"><ele>892.0</ele><time>2026-04-26T13:28:13.031Z</time></trkpt><trkpt lat="46.2435015" lon="11.3411888"><ele>892.0</ele><time>2026-04-26T13:28:14.031Z</time></trkpt><trkpt lat="46.2433727" lon="11.3413345"><ele>892.0</ele><time>2026-04-26T13:28:15.031Z</time></trkpt><trkpt lat="46.2432512" lon="11.3414859"><ele>892.0</ele><time>2026-04-26T13:28:16.031Z</time></trkpt><trkpt lat="46.2431356" lon="11.3416295"><ele>891.5</ele><time>2026-04-26T13:28:17.031Z</time></trkpt><trkpt lat="46.243024" lon="11.3417676"><ele>891.0</ele><time>2026-04-26T13:28:18.031Z</time></trkpt><trkpt lat="46.2429165" lon="11.3419047"><ele>890.5</ele><time>2026-04-26T13:28:19.031Z</time></trkpt><trkpt lat="46.2428151" lon="11.3420398"><ele>890.0</ele><time>2026-04-26T13:28:20.031Z</time></trkpt><trkpt lat="46.2427254" lon="11.3421767"><ele>885.25</ele><time>2026-04-26T13:28:21.031Z</time></trkpt><trkpt lat="46.2426534" lon="11.3423295"><ele>880.5</ele><time>2026-04-26T13:28:22.031Z</time></trkpt><trkpt lat="46.2426095" lon="11.3425009"><ele>875.75</ele><time>2026-04-26T13:28:23.031Z</time></trkpt><trkpt lat="46.2425809" lon="11.3426738"><ele>871.0</ele><time>2026-04-26T13:28:24.031Z</time></trkpt><trkpt lat="46.2425871" lon="11.3428649"><ele>867.75</ele><time>2026-04-26T13:28:25.031Z</time></trkpt><trkpt lat="46.2426191" lon="11.3430547"><ele>864.5</ele><time>2026-04-26T13:28:26.031Z</time></trkpt><trkpt lat="46.2426794" lon="11.3432383"><ele>861.25</ele><time>2026-04-26T13:28:27.031Z</time></trkpt><trkpt lat="46.2427534" lon="11.3434149"><ele>858.0</ele><time>2026-04-26T13:28:28.031Z</time></trkpt><trkpt lat="46.2428277" lon="11.3435892"><ele>858.0</ele><time>2026-04-26T13:28:29.031Z</time></trkpt><trkpt lat="46.2429031" lon="11.3437702"><ele>858.0</ele><time>2026-04-26T13:28:30.031Z</time></trkpt><trkpt lat="46.242978" lon="11.3439367"><ele>858.0</ele><time>2026-04-26T13:28:31.031Z</time></trkpt><trkpt lat="46.2430728" lon="11.3440798"><ele>858.0</ele><time>2026-04-26T13:28:32.031Z</time></trkpt><trkpt lat="46.2431885" lon="11.3441985"><ele>859.25</ele><time>2026-04-26T13:28:33.031Z</time></trkpt><trkpt lat="46.2433188" lon="11.3442655"><ele>860.5</ele><time>2026-04-26T13:28:34.031Z</time></trkpt><trkpt lat="46.2434654" lon="11.344296"><ele>861.75</ele><time>2026-04-26T13:28:35.031Z</time></trkpt><trkpt lat="46.2436111" lon="11.34429"><ele>863.0</ele><time>2026-04-26T13:28:36.031Z</time></trkpt><trkpt lat="46.243769" lon="11.344239"><ele>863.0</ele><time>2026-04-26T13:28:37.031Z</time></trkpt><trkpt lat="46.2439268" lon="11.344162"><ele>863.0</ele><time>2026-04-26T13:28:38.031Z</time></trkpt><trkpt lat="46.2440835" lon="11.3440705"><ele>863.0</ele><time>2026-04-26T13:28:39.031Z</time></trkpt><trkpt lat="46.2442371" lon="11.3439824"><ele>867.0</ele><time>2026-04-26T13:28:40.031Z</time></trkpt><trkpt lat="46.2443892" lon="11.3438955"><ele>871.0</ele><time>2026-04-26T13:28:41.031Z</time></trkpt><trkpt lat="46.2445447" lon="11.3438025"><ele>875.0</ele><time>2026-04-26T13:28:42.031Z</time></trkpt><trkpt lat="46.2447039" lon="11.3437027"><ele>867.6666666666667</ele><time>2026-04-26T13:28:43.031Z</time></trkpt><trkpt lat="46.2448529" lon="11.3435957"><ele>860.3333333333333</ele><time>2026-04-26T13:28:44.031Z</time></trkpt><trkpt lat="46.2450046" lon="11.3434847"><ele>853.0</ele><time>2026-04-26T13:28:45.031Z</time></trkpt><trkpt lat="46.245152" lon="11.3433772"><ele>853.0</ele><time>2026-04-26T13:28:46.031Z</time></trkpt><trkpt lat="46.2452988" lon="11.3432646"><ele>853.0</ele><time>2026-04-26T13:28:47.031Z</time></trkpt><trkpt lat="46.2454492" lon="11.3431806"><ele>853.0</ele><time>2026-04-26T13:28:48.031Z</time></trkpt><trkpt lat="46.2456015" lon="11.3431286"><ele>858.6666666666666</ele><time>2026-04-26T13:28:49.031Z</time></trkpt><trkpt lat="46.2457583" lon="11.3430971"><ele>864.3333333333333</ele><time>2026-04-26T13:28:50.031Z</time></trkpt><trkpt lat="46.2459162" lon="11.3430937"><ele>870.0</ele><time>2026-04-26T13:28:51.031Z</time></trkpt><trkpt lat="46.2460682" lon="11.3431001"><ele>870.0</ele><time>2026-04-26T13:28:52.031Z</time></trkpt><trkpt lat="46.2462302" lon="11.3431291"><ele>870.0</ele><time>2026-04-26T13:28:53.031Z</time></trkpt><trkpt lat="46.2463911" lon="11.3431597"><ele>870.0</ele><time>2026-04-26T13:28:54.031Z</time></trkpt><trkpt lat="46.2465522" lon="11.3431787"><ele>870.6666666666667</ele><time>2026-04-26T13:28:55.031Z</time></trkpt><trkpt lat="46.2467135" lon="11.3431809"><ele>871.3333333333334</ele><time>2026-04-26T13:28:56.031Z</time></trkpt><trkpt lat="46.246875" lon="11.3431654"><ele>872.0</ele><time>2026-04-26T13:28:57.031Z</time></trkpt><trkpt lat="46.2470387" lon="11.3431461"><ele>872.0</ele><time>2026-04-26T13:28:58.031Z</time></trkpt><trkpt lat="46.2471995" lon="11.3431242"><ele>872.0</ele><time>2026-04-26T13:28:59.031Z</time></trkpt><trkpt lat="46.2473615" lon="11.3431077"><ele>872.0</ele><time>2026-04-26T13:29:00.031Z</time></trkpt><trkpt lat="46.247515" lon="11.3430896"><ele>873.25</ele><time>2026-04-26T13:29:01.031Z</time></trkpt><trkpt lat="46.2476617" lon="11.3430712"><ele>874.5</ele><time>2026-04-26T13:29:02.031Z</time></trkpt><trkpt lat="46.2478047" lon="11.343049"><ele>875.75</ele><time>2026-04-26T13:29:03.031Z</time></trkpt><trkpt lat="46.2479474" lon="11.3430313"><ele>877.0</ele><time>2026-04-26T13:29:04.031Z</time></trkpt><trkpt lat="46.2480954" lon="11.3430206"><ele>874.5</ele><time>2026-04-26T13:29:05.031Z</time></trkpt><trkpt lat="46.2482379" lon="11.3430172"><ele>872.0</ele><time>2026-04-26T13:29:06.031Z</time></trkpt><trkpt lat="46.2483789" lon="11.3430358"><ele>869.5</ele><time>2026-04-26T13:29:07.032Z</time></trkpt><trkpt lat="46.2485237" lon="11.343075"><ele>867.0</ele><time>2026-04-26T13:29:08.031Z</time></trkpt><trkpt lat="46.2486662" lon="11.343126"><ele>867.0</ele><time>2026-04-26T13:29:09.031Z</time></trkpt><trkpt lat="46.2488089" lon="11.34318"><ele>867.0</ele><time>2026-04-26T13:29:10.031Z</time></trkpt><trkpt lat="46.2489505" lon="11.3432387"><ele>867.0</ele><time>2026-04-26T13:29:11.031Z</time></trkpt><trkpt lat="46.249095" lon="11.3432923"><ele>867.0</ele><time>2026-04-26T13:29:12.031Z</time></trkpt><trkpt lat="46.2492367" lon="11.3433394"><ele>865.75</ele><time>2026-04-26T13:29:13.031Z</time></trkpt><trkpt lat="46.2493736" lon="11.3433967"><ele>864.5</ele><time>2026-04-26T13:29:14.031Z</time></trkpt><trkpt lat="46.2495049" lon="11.3434687"><ele>863.25</ele><time>2026-04-26T13:29:15.031Z</time></trkpt><trkpt lat="46.2496323" lon="11.3435605"><ele>862.0</ele><time>2026-04-26T13:29:16.031Z</time></trkpt><trkpt lat="46.2497545" lon="11.3436653"><ele>864.0</ele><time>2026-04-26T13:29:17.031Z</time></trkpt><trkpt lat="46.2498646" lon="11.3437829"><ele>866.0</ele><time>2026-04-26T13:29:18.031Z</time></trkpt><trkpt lat="46.2499778" lon="11.343903"><ele>868.0</ele><time>2026-04-26T13:29:19.031Z</time></trkpt><trkpt lat="46.2500941" lon="11.3440384"><ele>870.0</ele><time>2026-04-26T13:29:20.031Z</time></trkpt><trkpt lat="46.2502003" lon="11.3441854"><ele>870.0</ele><time>2026-04-26T13:29:21.031Z</time></trkpt><trkpt lat="46.2503029" lon="11.3443462"><ele>870.0</ele><time>2026-04-26T13:29:22.031Z</time></trkpt><trkpt lat="46.2504002" lon="11.3445277"><ele>870.0</ele><time>2026-04-26T13:29:23.031Z</time></trkpt><trkpt lat="46.2504897" lon="11.344718"><ele>865.0</ele><time>2026-04-26T13:29:24.031Z</time></trkpt><trkpt lat="46.2505658" lon="11.3449103"><ele>860.0</ele><time>2026-04-26T13:29:25.031Z</time></trkpt><trkpt lat="46.250632" lon="11.3451207"><ele>855.0</ele><time>2026-04-26T13:29:26.031Z</time></trkpt><trkpt lat="46.2506841" lon="11.3453404"><ele>858.6666666666667</ele><time>2026-04-26T13:29:27.031Z</time></trkpt><trkpt lat="46.2507251" lon="11.3455544"><ele>862.3333333333334</ele><time>2026-04-26T13:29:28.032Z</time></trkpt><trkpt lat="46.2507576" lon="11.3457707"><ele>866.0</ele><time>2026-04-26T13:29:29.031Z</time></trkpt><trkpt lat="46.2507701" lon="11.3459964"><ele>866.0</ele><time>2026-04-26T13:29:30.031Z</time></trkpt><trkpt lat="46.2507804" lon="11.3462256"><ele>866.0</ele><time>2026-04-26T13:29:31.031Z</time></trkpt><trkpt lat="46.2507798" lon="11.3464501"><ele>866.0</ele><time>2026-04-26T13:29:32.031Z</time></trkpt><trkpt lat="46.2507748" lon="11.3466753"><ele>866.25</ele><time>2026-04-26T13:29:33.031Z</time></trkpt><trkpt lat="46.2507623" lon="11.3469046"><ele>866.5</ele><time>2026-04-26T13:29:34.031Z</time></trkpt><trkpt lat="46.2507497" lon="11.3471124"><ele>866.75</ele><time>2026-04-26T13:29:35.031Z</time></trkpt><trkpt lat="46.2507482" lon="11.3473168"><ele>867.0</ele><time>2026-04-26T13:29:36.031Z</time></trkpt><trkpt lat="46.2507576" lon="11.3475069"><ele>868.5</ele><time>2026-04-26T13:29:37.031Z</time></trkpt><trkpt lat="46.2507753" lon="11.3476975"><ele>870.0</ele><time>2026-04-26T13:29:38.031Z</time></trkpt><trkpt lat="46.2508084" lon="11.3478812"><ele>871.5</ele><time>2026-04-26T13:29:39.031Z</time></trkpt><trkpt lat="46.2508529" lon="11.3480605"><ele>873.0</ele><time>2026-04-26T13:29:40.031Z</time></trkpt><trkpt lat="46.2509292" lon="11.3482173"><ele>876.5</ele><time>2026-04-26T13:29:41.031Z</time></trkpt><trkpt lat="46.2510252" lon="11.3483724"><ele>880.0</ele><time>2026-04-26T13:29:42.031Z</time></trkpt><trkpt lat="46.2511327" lon="11.3485097"><ele>883.5</ele><time>2026-04-26T13:29:43.031Z</time></trkpt><trkpt lat="46.2512542" lon="11.3486329"><ele>887.0</ele><time>2026-04-26T13:29:44.031Z</time></trkpt><trkpt lat="46.2513954" lon="11.3487304"><ele>888.6666666666667</ele><time>2026-04-26T13:29:45.031Z</time></trkpt><trkpt lat="46.2515414" lon="11.3488065"><ele>890.3333333333333</ele><time>2026-04-26T13:29:46.031Z</time></trkpt><trkpt lat="46.251693" lon="11.3488562"><ele>892.0</ele><time>2026-04-26T13:29:47.031Z</time></trkpt><trkpt lat="46.2518562" lon="11.348883"><ele>892.0</ele><time>2026-04-26T13:29:48.031Z</time></trkpt><trkpt lat="46.2520294" lon="11.3488865"><ele>892.0</ele><time>2026-04-26T13:29:49.031Z</time></trkpt><trkpt lat="46.2522056" lon="11.3488893"><ele>892.0</ele><time>2026-04-26T13:29:50.031Z</time></trkpt><trkpt lat="46.2523742" lon="11.3488899"><ele>890.6666666666666</ele><time>2026-04-26T13:29:51.031Z</time></trkpt><trkpt lat="46.2525456" lon="11.3488927"><ele>889.3333333333333</ele><time>2026-04-26T13:29:52.031Z</time></trkpt><trkpt lat="46.2527175" lon="11.3488962"><ele>888.0</ele><time>2026-04-26T13:29:53.031Z</time></trkpt><trkpt lat="46.2528907" lon="11.3488969"><ele>888.0</ele><time>2026-04-26T13:29:54.031Z</time></trkpt><trkpt lat="46.2530609" lon="11.3489017"><ele>888.0</ele><time>2026-04-26T13:29:55.031Z</time></trkpt><trkpt lat="46.2532254" lon="11.3489147"><ele>888.0</ele><time>2026-04-26T13:29:56.031Z</time></trkpt><trkpt lat="46.2533817" lon="11.348945"><ele>886.3333333333333</ele><time>2026-04-26T13:29:57.031Z</time></trkpt><trkpt lat="46.2535347" lon="11.3490113"><ele>884.6666666666666</ele><time>2026-04-26T13:29:58.031Z</time></trkpt><trkpt lat="46.2536873" lon="11.3491199"><ele>883.0</ele><time>2026-04-26T13:29:59.031Z</time></trkpt><trkpt lat="46.2538452" lon="11.349238"><ele>881.3333333333333</ele><time>2026-04-26T13:30:00.031Z</time></trkpt><trkpt lat="46.2540014" lon="11.34935"><ele>879.6666666666667</ele><time>2026-04-26T13:30:01.032Z</time></trkpt><trkpt lat="46.2541585" lon="11.3494483"><ele>878.0</ele><time>2026-04-26T13:30:02.031Z</time></trkpt><trkpt lat="46.2543202" lon="11.3495219"><ele>878.0</ele><time>2026-04-26T13:30:03.031Z</time></trkpt><trkpt lat="46.2544843" lon="11.3495649"><ele>878.0</ele><time>2026-04-26T13:30:04.031Z</time></trkpt><trkpt lat="46.2546471" lon="11.3495674"><ele>878.0</ele><time>2026-04-26T13:30:05.031Z</time></trkpt><trkpt lat="46.2548016" lon="11.3495646"><ele>874.0</ele><time>2026-04-26T13:30:06.031Z</time></trkpt><trkpt lat="46.2549558" lon="11.3495732"><ele>870.0</ele><time>2026-04-26T13:30:07.031Z</time></trkpt><trkpt lat="46.2551045" lon="11.3495913"><ele>866.0</ele><time>2026-04-26T13:30:08.031Z</time></trkpt><trkpt lat="46.2552511" lon="11.3496451"><ele>872.0</ele><time>2026-04-26T13:30:09.031Z</time></trkpt><trkpt lat="46.2553975" lon="11.3497294"><ele>878.0</ele><time>2026-04-26T13:30:10.031Z</time></trkpt><trkpt lat="46.2555422" lon="11.3498428"><ele>884.0</ele><time>2026-04-26T13:30:11.031Z</time></trkpt><trkpt lat="46.2556846" lon="11.349976"><ele>884.0</ele><time>2026-04-26T13:30:12.031Z</time></trkpt><trkpt lat="46.2558307" lon="11.3500979"><ele>884.0</ele><time>2026-04-26T13:30:13.031Z</time></trkpt><trkpt lat="46.2559733" lon="11.3502196"><ele>884.0</ele><time>2026-04-26T13:30:14.031Z</time></trkpt><trkpt lat="46.2561151" lon="11.3503409"><ele>884.0</ele><time>2026-04-26T13:30:15.031Z</time></trkpt><trkpt lat="46.2562546" lon="11.3504653"><ele>884.0</ele><time>2026-04-26T13:30:16.031Z</time></trkpt><trkpt lat="46.2563887" lon="11.3505916"><ele>884.0</ele><time>2026-04-26T13:30:17.031Z</time></trkpt><trkpt lat="46.2565119" lon="11.3507437"><ele>884.0</ele><time>2026-04-26T13:30:18.031Z</time></trkpt><trkpt lat="46.256629" lon="11.3509285"><ele>884.0</ele><time>2026-04-26T13:30:19.031Z</time></trkpt><trkpt lat="46.2567473" lon="11.3511154"><ele>884.0</ele><time>2026-04-26T13:30:20.031Z</time></trkpt><trkpt lat="46.256864" lon="11.3512942"><ele>893.6666666666667</ele><time>2026-04-26T13:30:21.031Z</time></trkpt><trkpt lat="46.2569867" lon="11.3514603"><ele>903.3333333333333</ele><time>2026-04-26T13:30:22.031Z</time></trkpt><trkpt lat="46.2571204" lon="11.3516102"><ele>913.0</ele><time>2026-04-26T13:30:23.031Z</time></trkpt><trkpt lat="46.2572552" lon="11.3517151"><ele>903.5</ele><time>2026-04-26T13:30:24.031Z</time></trkpt><trkpt lat="46.2573909" lon="11.3518147"><ele>894.0</ele><time>2026-04-26T13:30:25.031Z</time></trkpt><trkpt lat="46.2575136" lon="11.3519063"><ele>884.5</ele><time>2026-04-26T13:30:26.031Z</time></trkpt><trkpt lat="46.25762" lon="11.3520142"><ele>875.0</ele><time>2026-04-26T13:30:27.031Z</time></trkpt><trkpt lat="46.2577016" lon="11.3521389"><ele>881.0</ele><time>2026-04-26T13:30:28.032Z</time></trkpt><trkpt lat="46.2577533" lon="11.3522926"><ele>887.0</ele><time>2026-04-26T13:30:29.031Z</time></trkpt><trkpt lat="46.2577749" lon="11.3524557"><ele>893.0</ele><time>2026-04-26T13:30:30.031Z</time></trkpt><trkpt lat="46.2577681" lon="11.3526523"><ele>899.0</ele><time>2026-04-26T13:30:31.031Z</time></trkpt><trkpt lat="46.2577502" lon="11.3528462"><ele>904.0</ele><time>2026-04-26T13:30:32.031Z</time></trkpt><trkpt lat="46.2577407" lon="11.3530634"><ele>909.0</ele><time>2026-04-26T13:30:33.031Z</time></trkpt><trkpt lat="46.2577415" lon="11.3532823"><ele>914.0</ele><time>2026-04-26T13:30:34.031Z</time></trkpt><trkpt lat="46.2577608" lon="11.3535035"><ele>914.0</ele><time>2026-04-26T13:30:35.031Z</time></trkpt><trkpt lat="46.2577982" lon="11.3537245"><ele>914.0</ele><time>2026-04-26T13:30:36.031Z</time></trkpt><trkpt lat="46.2578439" lon="11.35395"><ele>914.0</ele><time>2026-04-26T13:30:37.031Z</time></trkpt><trkpt lat="46.2578861" lon="11.3541806"><ele>913.6666666666667</ele><time>2026-04-26T13:30:38.031Z</time></trkpt><trkpt lat="46.2579298" lon="11.3544064"><ele>913.3333333333333</ele><time>2026-04-26T13:30:39.031Z</time></trkpt><trkpt lat="46.2579687" lon="11.3546215"><ele>913.0</ele><time>2026-04-26T13:30:40.032Z</time></trkpt><trkpt lat="46.258007" lon="11.3548353"><ele>913.0</ele><time>2026-04-26T13:30:41.031Z</time></trkpt><trkpt lat="46.2580453" lon="11.3550363"><ele>913.0</ele><time>2026-04-26T13:30:42.031Z</time></trkpt><trkpt lat="46.2580863" lon="11.3552196"><ele>913.0</ele><time>2026-04-26T13:30:43.031Z</time></trkpt><trkpt lat="46.2581393" lon="11.3553945"><ele>913.0</ele><time>2026-04-26T13:30:44.031Z</time></trkpt><trkpt lat="46.2582005" lon="11.3555387"><ele>907.25</ele><time>2026-04-26T13:30:45.031Z</time></trkpt><trkpt lat="46.2582837" lon="11.3556641"><ele>901.5</ele><time>2026-04-26T13:30:46.031Z</time></trkpt><trkpt lat="46.2583881" lon="11.3557465"><ele>895.75</ele><time>2026-04-26T13:30:47.031Z</time></trkpt><trkpt lat="46.258498" lon="11.3557971"><ele>890.0</ele><time>2026-04-26T13:30:48.031Z</time></trkpt><trkpt lat="46.2586162" lon="11.3558159"><ele>890.0</ele><time>2026-04-26T13:30:49.031Z</time></trkpt><trkpt lat="46.2587519" lon="11.3557882"><ele>890.0</ele><time>2026-04-26T13:30:50.031Z</time></trkpt><trkpt lat="46.258899" lon="11.3557605"><ele>890.0</ele><time>2026-04-26T13:30:51.032Z</time></trkpt><trkpt lat="46.2590419" lon="11.3557437"><ele>890.0</ele><time>2026-04-26T13:30:52.031Z</time></trkpt><trkpt lat="46.2591846" lon="11.3557244"><ele>887.0</ele><time>2026-04-26T13:30:53.031Z</time></trkpt><trkpt lat="46.259329" lon="11.3557094"><ele>884.0</ele><time>2026-04-26T13:30:54.031Z</time></trkpt><trkpt lat="46.2594844" lon="11.3556934"><ele>881.0</ele><time>2026-04-26T13:30:55.031Z</time></trkpt><trkpt lat="46.2596356" lon="11.3556772"><ele>881.0</ele><time>2026-04-26T13:30:56.031Z</time></trkpt><trkpt lat="46.2597827" lon="11.3556608"><ele>881.0</ele><time>2026-04-26T13:30:57.03Z</time></trkpt><trkpt lat="46.2599315" lon="11.3556604"><ele>881.0</ele><time>2026-04-26T13:30:58.03Z</time></trkpt><trkpt lat="46.2600689" lon="11.3556475"><ele>881.0</ele><time>2026-04-26T13:30:59.03Z</time></trkpt><trkpt lat="46.2602036" lon="11.3556155"><ele>881.75</ele><time>2026-04-26T13:31:00.03Z</time></trkpt><trkpt lat="46.2603356" lon="11.3555546"><ele>882.5</ele><time>2026-04-26T13:31:01.03Z</time></trkpt><trkpt lat="46.2604525" lon="11.3554539"><ele>883.25</ele><time>2026-04-26T13:31:02.031Z</time></trkpt><trkpt lat="46.2605573" lon="11.3553134"><ele>884.0</ele><time>2026-04-26T13:31:03.03Z</time></trkpt><trkpt lat="46.260655" lon="11.3551726"><ele>880.5</ele><time>2026-04-26T13:31:04.03Z</time></trkpt><trkpt lat="46.2607524" lon="11.3550474"><ele>877.0</ele><time>2026-04-26T13:31:05.03Z</time></trkpt><trkpt lat="46.2608537" lon="11.3549352"><ele>873.5</ele><time>2026-04-26T13:31:06.03Z</time></trkpt><trkpt lat="46.2609621" lon="11.3548536"><ele>870.0</ele><time>2026-04-26T13:31:07.03Z</time></trkpt><trkpt lat="46.2610838" lon="11.3548017"><ele>870.0</ele><time>2026-04-26T13:31:08.03Z</time></trkpt><trkpt lat="46.261217" lon="11.3547846"><ele>870.0</ele><time>2026-04-26T13:31:09.03Z</time></trkpt><trkpt lat="46.2613558" lon="11.3547732"><ele>870.0</ele><time>2026-04-26T13:31:10.031Z</time></trkpt><trkpt lat="46.2614953" lon="11.3547622"><ele>870.0</ele><time>2026-04-26T13:31:11.031Z</time></trkpt><trkpt lat="46.2616331" lon="11.3547452"><ele>870.25</ele><time>2026-04-26T13:31:12.031Z</time></trkpt><trkpt lat="46.2617643" lon="11.3547319"><ele>870.5</ele><time>2026-04-26T13:31:13.03Z</time></trkpt><trkpt lat="46.2618904" lon="11.3547394"><ele>870.75</ele><time>2026-04-26T13:31:14.03Z</time></trkpt><trkpt lat="46.2620044" lon="11.3547902"><ele>871.0</ele><time>2026-04-26T13:31:15.03Z</time></trkpt><trkpt lat="46.2621166" lon="11.3548812"><ele>871.0</ele><time>2026-04-26T13:31:16.03Z</time></trkpt><trkpt lat="46.262214" lon="11.3550203"><ele>871.0</ele><time>2026-04-26T13:31:17.03Z</time></trkpt><trkpt lat="46.262291" lon="11.3551813"><ele>871.0</ele><time>2026-04-26T13:31:18.03Z</time></trkpt><trkpt lat="46.2623605" lon="11.355365"><ele>871.0</ele><time>2026-04-26T13:31:19.031Z</time></trkpt><trkpt lat="46.2624289" lon="11.3555586"><ele>872.3333333333333</ele><time>2026-04-26T13:31:20.03Z</time></trkpt><trkpt lat="46.262502" lon="11.355751"><ele>873.6666666666667</ele><time>2026-04-26T13:31:21.03Z</time></trkpt><trkpt lat="46.2625749" lon="11.3559394"><ele>875.0</ele><time>2026-04-26T13:31:22.03Z</time></trkpt><trkpt lat="46.262645" lon="11.3561441"><ele>875.0</ele><time>2026-04-26T13:31:23.03Z</time></trkpt><trkpt lat="46.262701" lon="11.3563623"><ele>875.0</ele><time>2026-04-26T13:31:24.03Z</time></trkpt><trkpt lat="46.2627339" lon="11.3565774"><ele>875.0</ele><time>2026-04-26T13:31:25.03Z</time></trkpt><trkpt lat="46.2627439" lon="11.356815"><ele>877.0</ele><time>2026-04-26T13:31:26.03Z</time></trkpt><trkpt lat="46.2627403" lon="11.3570541"><ele>879.0</ele><time>2026-04-26T13:31:27.03Z</time></trkpt><trkpt lat="46.2627328" lon="11.3572921"><ele>881.0</ele><time>2026-04-26T13:31:28.03Z</time></trkpt><trkpt lat="46.2623209" lon="11.3589841"><ele>881.0</ele><time>2026-04-26T13:31:36.03Z</time></trkpt><trkpt lat="46.2623401" lon="11.3592082"><ele>881.0</ele><time>2026-04-26T13:31:37.031Z</time></trkpt><trkpt lat="46.2623132" lon="11.3594268"><ele>881.0</ele><time>2026-04-26T13:31:38.03Z</time></trkpt><trkpt lat="46.2623238" lon="11.3596963"><ele>874.6666666666667</ele><time>2026-04-26T13:31:39.03Z</time></trkpt><trkpt lat="46.2623384" lon="11.3599657"><ele>868.3333333333333</ele><time>2026-04-26T13:31:40.03Z</time></trkpt><trkpt lat="46.262361" lon="11.3602102"><ele>862.0</ele><time>2026-04-26T13:31:41.03Z</time></trkpt><trkpt lat="46.262409" lon="11.3604727"><ele>861.0</ele><time>2026-04-26T13:31:42.03Z</time></trkpt><trkpt lat="46.262434" lon="11.360714"><ele>860.0</ele><time>2026-04-26T13:31:43.03Z</time></trkpt><trkpt lat="46.2624454" lon="11.3609506"><ele>859.0</ele><time>2026-04-26T13:31:44.03Z</time></trkpt><trkpt lat="46.2624623" lon="11.3611759"><ele>860.0</ele><time>2026-04-26T13:31:45.03Z</time></trkpt><trkpt lat="46.2624732" lon="11.3614014"><ele>861.0</ele><time>2026-04-26T13:31:46.03Z</time></trkpt><trkpt lat="46.2624659" lon="11.3616124"><ele>862.0</ele><time>2026-04-26T13:31:47.03Z</time></trkpt><trkpt lat="46.2624393" lon="11.3618272"><ele>862.0</ele><time>2026-04-26T13:31:48.03Z</time></trkpt><trkpt lat="46.262395" lon="11.3620368"><ele>862.0</ele><time>2026-04-26T13:31:49.03Z</time></trkpt><trkpt lat="46.2623284" lon="11.3622462"><ele>862.0</ele><time>2026-04-26T13:31:50.03Z</time></trkpt><trkpt lat="46.2622573" lon="11.3624422"><ele>875.0</ele><time>2026-04-26T13:31:51.03Z</time></trkpt><trkpt lat="46.2621716" lon="11.3626532"><ele>888.0</ele><time>2026-04-26T13:31:52.031Z</time></trkpt><trkpt lat="46.2620841" lon="11.3628741"><ele>901.0</ele><time>2026-04-26T13:31:53.03Z</time></trkpt><trkpt lat="46.2620112" lon="11.3631141"><ele>901.0</ele><time>2026-04-26T13:31:54.03Z</time></trkpt><trkpt lat="46.2619417" lon="11.3633738"><ele>901.0</ele><time>2026-04-26T13:31:55.03Z</time></trkpt><trkpt lat="46.2618769" lon="11.3636416"><ele>901.0</ele><time>2026-04-26T13:31:56.03Z</time></trkpt><trkpt lat="46.2618187" lon="11.3639184"><ele>895.6666666666666</ele><time>2026-04-26T13:31:57.03Z</time></trkpt><trkpt lat="46.2617605" lon="11.3641942"><ele>890.3333333333333</ele><time>2026-04-26T13:31:58.03Z</time></trkpt><trkpt lat="46.2617062" lon="11.3644633"><ele>885.0</ele><time>2026-04-26T13:31:59.03Z</time></trkpt><trkpt lat="46.2616512" lon="11.3647239"><ele>883.3333333333333</ele><time>2026-04-26T13:32:00.03Z</time></trkpt><trkpt lat="46.2615922" lon="11.3649933"><ele>881.6666666666666</ele><time>2026-04-26T13:32:01.03Z</time></trkpt><trkpt lat="46.2615348" lon="11.3652652"><ele>880.0</ele><time>2026-04-26T13:32:02.03Z</time></trkpt><trkpt lat="46.2614721" lon="11.3655289"><ele>899.6666666666666</ele><time>2026-04-26T13:32:03.03Z</time></trkpt><trkpt lat="46.2614255" lon="11.365785"><ele>919.3333333333333</ele><time>2026-04-26T13:32:04.03Z</time></trkpt><trkpt lat="46.2613447" lon="11.3660267"><ele>939.0</ele><time>2026-04-26T13:32:05.03Z</time></trkpt><trkpt lat="46.2612929" lon="11.366294"><ele>884.0</ele><time>2026-04-26T13:32:06.03Z</time></trkpt><trkpt lat="46.2608301" lon="11.3684442"><ele>884.0</ele><time>2026-04-26T13:32:14.03Z</time></trkpt><trkpt lat="46.2607931" lon="11.3686668"><ele>884.0</ele><time>2026-04-26T13:32:15.03Z</time></trkpt><trkpt lat="46.2607873" lon="11.368897"><ele>884.0</ele><time>2026-04-26T13:32:16.031Z</time></trkpt><trkpt lat="46.2607906" lon="11.3691364"><ele>875.6666666666667</ele><time>2026-04-26T13:32:17.03Z</time></trkpt><trkpt lat="46.2608122" lon="11.3693538"><ele>867.3333333333333</ele><time>2026-04-26T13:32:18.031Z</time></trkpt><trkpt lat="46.2608265" lon="11.3695829"><ele>859.0</ele><time>2026-04-26T13:32:19.03Z</time></trkpt><trkpt lat="46.2608341" lon="11.3697943"><ele>857.0</ele><time>2026-04-26T13:32:20.03Z</time></trkpt><trkpt lat="46.2608304" lon="11.3699962"><ele>855.0</ele><time>2026-04-26T13:32:21.03Z</time></trkpt><trkpt lat="46.2607968" lon="11.3702052"><ele>853.0</ele><time>2026-04-26T13:32:22.03Z</time></trkpt><trkpt lat="46.2607502" lon="11.3704064"><ele>851.0</ele><time>2026-04-26T13:32:23.03Z</time></trkpt><trkpt lat="46.2606809" lon="11.3706157"><ele>868.0</ele><time>2026-04-26T13:32:24.03Z</time></trkpt><trkpt lat="46.2606" lon="11.3708143"><ele>885.0</ele><time>2026-04-26T13:32:25.03Z</time></trkpt><trkpt lat="46.260511" lon="11.3710284"><ele>902.0</ele><time>2026-04-26T13:32:26.031Z</time></trkpt><trkpt lat="46.2604219" lon="11.3712432"><ele>882.0</ele><time>2026-04-26T13:32:27.03Z</time></trkpt><trkpt lat="46.2603237" lon="11.3714633"><ele>862.0</ele><time>2026-04-26T13:32:28.03Z</time></trkpt><trkpt lat="46.2602352" lon="11.3716751"><ele>842.0</ele><time>2026-04-26T13:32:29.03Z</time></trkpt><trkpt lat="46.2601461" lon="11.3718859"><ele>842.0</ele><time>2026-04-26T13:32:30.03Z</time></trkpt><trkpt lat="46.2600686" lon="11.3720898"><ele>842.0</ele><time>2026-04-26T13:32:31.03Z</time></trkpt><trkpt lat="46.2599893" lon="11.3722784"><ele>842.0</ele><time>2026-04-26T13:32:32.03Z</time></trkpt><trkpt lat="46.2599204" lon="11.3724659"><ele>841.25</ele><time>2026-04-26T13:32:33.03Z</time></trkpt><trkpt lat="46.2598494" lon="11.3726378"><ele>840.5</ele><time>2026-04-26T13:32:34.03Z</time></trkpt><trkpt lat="46.2597842" lon="11.3728019"><ele>839.75</ele><time>2026-04-26T13:32:35.03Z</time></trkpt><trkpt lat="46.259727" lon="11.3729629"><ele>839.0</ele><time>2026-04-26T13:32:36.03Z</time></trkpt><trkpt lat="46.2596933" lon="11.3731247"><ele>838.0</ele><time>2026-04-26T13:32:37.03Z</time></trkpt><trkpt lat="46.2596897" lon="11.3732903"><ele>837.0</ele><time>2026-04-26T13:32:38.03Z</time></trkpt><trkpt lat="46.2597139" lon="11.3734505"><ele>836.0</ele><time>2026-04-26T13:32:39.03Z</time></trkpt><trkpt lat="46.259772" lon="11.3736092"><ele>835.0</ele><time>2026-04-26T13:32:40.03Z</time></trkpt><trkpt lat="46.2598583" lon="11.3737549"><ele>841.75</ele><time>2026-04-26T13:32:41.03Z</time></trkpt><trkpt lat="46.2599689" lon="11.3738598"><ele>848.5</ele><time>2026-04-26T13:32:42.03Z</time></trkpt><trkpt lat="46.2600944" lon="11.3739432"><ele>855.25</ele><time>2026-04-26T13:32:43.03Z</time></trkpt><trkpt lat="46.260229" lon="11.3740012"><ele>862.0</ele><time>2026-04-26T13:32:44.03Z</time></trkpt><trkpt lat="46.2603645" lon="11.3740613"><ele>862.0</ele><time>2026-04-26T13:32:45.03Z</time></trkpt><trkpt lat="46.2604954" lon="11.3741257"><ele>862.0</ele><time>2026-04-26T13:32:46.03Z</time></trkpt><trkpt lat="46.260612" lon="11.374222"><ele>862.0</ele><time>2026-04-26T13:32:47.03Z</time></trkpt><trkpt lat="46.2607144" lon="11.3743517"><ele>862.0</ele><time>2026-04-26T13:32:48.031Z</time></trkpt><trkpt lat="46.2607964" lon="11.3745291"><ele>857.5</ele><time>2026-04-26T13:32:49.03Z</time></trkpt><trkpt lat="46.2608404" lon="11.3747277"><ele>853.0</ele><time>2026-04-26T13:32:50.03Z</time></trkpt><trkpt lat="46.2608551" lon="11.3749357"><ele>848.5</ele><time>2026-04-26T13:32:51.03Z</time></trkpt><trkpt lat="46.2608425" lon="11.3751659"><ele>844.0</ele><time>2026-04-26T13:32:52.03Z</time></trkpt><trkpt lat="46.2608113" lon="11.3753952"><ele>843.6666666666666</ele><time>2026-04-26T13:32:53.03Z</time></trkpt><trkpt lat="46.2607798" lon="11.3756386"><ele>843.3333333333333</ele><time>2026-04-26T13:32:54.031Z</time></trkpt><trkpt lat="46.2607569" lon="11.3758863"><ele>843.0</ele><time>2026-04-26T13:32:55.031Z</time></trkpt><trkpt lat="46.2607363" lon="11.3761347"><ele>839.0</ele><time>2026-04-26T13:32:56.03Z</time></trkpt><trkpt lat="46.2607119" lon="11.3763879"><ele>835.0</ele><time>2026-04-26T13:32:57.03Z</time></trkpt><trkpt lat="46.2606874" lon="11.3766328"><ele>831.0</ele><time>2026-04-26T13:32:58.03Z</time></trkpt><trkpt lat="46.2606584" lon="11.376887"><ele>831.0</ele><time>2026-04-26T13:32:59.03Z</time></trkpt><trkpt lat="46.2606339" lon="11.3771395"><ele>831.0</ele><time>2026-04-26T13:33:00.03Z</time></trkpt><trkpt lat="46.2605995" lon="11.3773843"><ele>831.0</ele><time>2026-04-26T13:33:01.03Z</time></trkpt><trkpt lat="46.2605512" lon="11.3776276"><ele>845.0</ele><time>2026-04-26T13:33:02.03Z</time></trkpt><trkpt lat="46.2604859" lon="11.3778688"><ele>859.0</ele><time>2026-04-26T13:33:03.03Z</time></trkpt><trkpt lat="46.2604141" lon="11.3781"><ele>873.0</ele><time>2026-04-26T13:33:04.03Z</time></trkpt><trkpt lat="46.2603408" lon="11.3783321"><ele>873.0</ele><time>2026-04-26T13:33:05.03Z</time></trkpt><trkpt lat="46.260262" lon="11.3785647"><ele>873.0</ele><time>2026-04-26T13:33:06.03Z</time></trkpt><trkpt lat="46.2601785" lon="11.3787941"><ele>873.0</ele><time>2026-04-26T13:33:07.03Z</time></trkpt><trkpt lat="46.2601005" lon="11.3790229"><ele>867.3333333333333</ele><time>2026-04-26T13:33:08.03Z</time></trkpt><trkpt lat="46.2600228" lon="11.3792527"><ele>861.6666666666666</ele><time>2026-04-26T13:33:09.03Z</time></trkpt><trkpt lat="46.2599531" lon="11.3794821"><ele>856.0</ele><time>2026-04-26T13:33:10.03Z</time></trkpt><trkpt lat="46.2598976" lon="11.3797038"><ele>849.6666666666666</ele><time>2026-04-26T13:33:11.03Z</time></trkpt><trkpt lat="46.2598676" lon="11.3799326"><ele>843.3333333333333</ele><time>2026-04-26T13:33:12.03Z</time></trkpt><trkpt lat="46.2598669" lon="11.380167"><ele>837.0</ele><time>2026-04-26T13:33:13.03Z</time></trkpt><trkpt lat="46.2598961" lon="11.3804065"><ele>835.3333333333333</ele><time>2026-04-26T13:33:14.031Z</time></trkpt><trkpt lat="46.2599432" lon="11.3806476"><ele>833.6666666666666</ele><time>2026-04-26T13:33:15.03Z</time></trkpt><trkpt lat="46.2599998" lon="11.3808952"><ele>832.0</ele><time>2026-04-26T13:33:16.03Z</time></trkpt><trkpt lat="46.2600543" lon="11.3811476"><ele>828.3333333333333</ele><time>2026-04-26T13:33:17.03Z</time></trkpt><trkpt lat="46.2601107" lon="11.3814129"><ele>824.6666666666667</ele><time>2026-04-26T13:33:18.03Z</time></trkpt><trkpt lat="46.2601704" lon="11.3816846"><ele>821.0</ele><time>2026-04-26T13:33:19.03Z</time></trkpt><trkpt lat="46.2602258" lon="11.3819503"><ele>817.3333333333334</ele><time>2026-04-26T13:33:20.03Z</time></trkpt><trkpt lat="46.2602811" lon="11.3822138"><ele>813.6666666666667</ele><time>2026-04-26T13:33:21.03Z</time></trkpt><trkpt lat="46.260327" lon="11.382485"><ele>810.0</ele><time>2026-04-26T13:33:22.03Z</time></trkpt><trkpt lat="46.2603489" lon="11.382759"><ele>811.6666666666667</ele><time>2026-04-26T13:33:23.03Z</time></trkpt><trkpt lat="46.2603532" lon="11.3830313"><ele>813.3333333333334</ele><time>2026-04-26T13:33:24.03Z</time></trkpt><trkpt lat="46.2603391" lon="11.3833065"><ele>815.0</ele><time>2026-04-26T13:33:25.03Z</time></trkpt><trkpt lat="46.2603185" lon="11.3835816"><ele>817.6666666666667</ele><time>2026-04-26T13:33:26.03Z</time></trkpt><trkpt lat="46.2603162" lon="11.3838474"><ele>820.3333333333333</ele><time>2026-04-26T13:33:27.03Z</time></trkpt><trkpt lat="46.2603249" lon="11.384118"><ele>823.0</ele><time>2026-04-26T13:33:28.03Z</time></trkpt><trkpt lat="46.2603543" lon="11.3843754"><ele>823.0</ele><time>2026-04-26T13:33:29.03Z</time></trkpt><trkpt lat="46.2603933" lon="11.3846305"><ele>823.0</ele><time>2026-04-26T13:33:30.03Z</time></trkpt><trkpt lat="46.2604401" lon="11.3848874"><ele>823.0</ele><time>2026-04-26T13:33:31.03Z</time></trkpt><trkpt lat="46.2604758" lon="11.3851519"><ele>832.0</ele><time>2026-04-26T13:33:32.03Z</time></trkpt><trkpt lat="46.2604848" lon="11.3854068"><ele>841.0</ele><time>2026-04-26T13:33:33.03Z</time></trkpt><trkpt lat="46.2604693" lon="11.3856642"><ele>850.0</ele><time>2026-04-26T13:33:34.03Z</time></trkpt><trkpt lat="46.2604423" lon="11.3859255"><ele>855.3333333333333</ele><time>2026-04-26T13:33:35.03Z</time></trkpt><trkpt lat="46.2604113" lon="11.3861747"><ele>860.6666666666667</ele><time>2026-04-26T13:33:36.031Z</time></trkpt><trkpt lat="46.2603859" lon="11.3864163"><ele>866.0</ele><time>2026-04-26T13:33:37.03Z</time></trkpt><trkpt lat="46.260374" lon="11.3866487"><ele>866.0</ele><time>2026-04-26T13:33:38.03Z</time></trkpt><trkpt lat="46.2603862" lon="11.3868686"><ele>866.0</ele><time>2026-04-26T13:33:39.03Z</time></trkpt><trkpt lat="46.260431" lon="11.3870674"><ele>866.0</ele><time>2026-04-26T13:33:40.03Z</time></trkpt><trkpt lat="46.2605037" lon="11.3872671"><ele>867.6666666666667</ele><time>2026-04-26T13:33:41.03Z</time></trkpt><trkpt lat="46.2605882" lon="11.3874562"><ele>869.3333333333333</ele><time>2026-04-26T13:33:42.03Z</time></trkpt><trkpt lat="46.2606823" lon="11.3876578"><ele>871.0</ele><time>2026-04-26T13:33:43.03Z</time></trkpt><trkpt lat="46.2607581" lon="11.3878536"><ele>847.3333333333333</ele><time>2026-04-26T13:33:44.03Z</time></trkpt><trkpt lat="46.2607885" lon="11.3880682"><ele>823.6666666666667</ele><time>2026-04-26T13:33:45.03Z</time></trkpt><trkpt lat="46.2607981" lon="11.3882851"><ele>800.0</ele><time>2026-04-26T13:33:46.03Z</time></trkpt><trkpt lat="46.2607735" lon="11.3885212"><ele>800.0</ele><time>2026-04-26T13:33:47.03Z</time></trkpt><trkpt lat="46.2607348" lon="11.3887425"><ele>800.0</ele><time>2026-04-26T13:33:48.03Z</time></trkpt><trkpt lat="46.2606998" lon="11.3889822"><ele>800.0</ele><time>2026-04-26T13:33:49.03Z</time></trkpt><trkpt lat="46.2606876" lon="11.3892253"><ele>804.6666666666667</ele><time>2026-04-26T13:33:50.03Z</time></trkpt><trkpt lat="46.2606955" lon="11.3894591"><ele>809.3333333333333</ele><time>2026-04-26T13:33:51.03Z</time></trkpt><trkpt lat="46.2607345" lon="11.3897023"><ele>814.0</ele><time>2026-04-26T13:33:52.03Z</time></trkpt><trkpt lat="46.2607963" lon="11.3899372"><ele>816.6666666666666</ele><time>2026-04-26T13:33:53.03Z</time></trkpt><trkpt lat="46.2608562" lon="11.3901846"><ele>819.3333333333333</ele><time>2026-04-26T13:33:54.03Z</time></trkpt><trkpt lat="46.260925" lon="11.3904239"><ele>822.0</ele><time>2026-04-26T13:33:55.03Z</time></trkpt><trkpt lat="46.2609879" lon="11.3906695"><ele>828.6666666666667</ele><time>2026-04-26T13:33:56.03Z</time></trkpt><trkpt lat="46.2610549" lon="11.3909229"><ele>835.3333333333334</ele><time>2026-04-26T13:33:57.03Z</time></trkpt><trkpt lat="46.2611222" lon="11.3911772"><ele>842.0</ele><time>2026-04-26T13:33:58.031Z</time></trkpt><trkpt lat="46.2612026" lon="11.3914238"><ele>847.6666666666667</ele><time>2026-04-26T13:33:59.03Z</time></trkpt><trkpt lat="46.2612943" lon="11.3916643"><ele>853.3333333333333</ele><time>2026-04-26T13:34:00.03Z</time></trkpt><trkpt lat="46.2614082" lon="11.3918822"><ele>859.0</ele><time>2026-04-26T13:34:01.03Z</time></trkpt><trkpt lat="46.2615271" lon="11.3921087"><ele>851.6666666666666</ele><time>2026-04-26T13:34:02.03Z</time></trkpt><trkpt lat="46.261653" lon="11.3923245"><ele>844.3333333333333</ele><time>2026-04-26T13:34:03.03Z</time></trkpt><trkpt lat="46.261776" lon="11.3925383"><ele>837.0</ele><time>2026-04-26T13:34:04.03Z</time></trkpt><trkpt lat="46.2618936" lon="11.3927542"><ele>837.0</ele><time>2026-04-26T13:34:05.03Z</time></trkpt><trkpt lat="46.262013" lon="11.3929736"><ele>837.0</ele><time>2026-04-26T13:34:06.03Z</time></trkpt><trkpt lat="46.2621427" lon="11.3931937"><ele>837.0</ele><time>2026-04-26T13:34:07.03Z</time></trkpt><trkpt lat="46.2622636" lon="11.3933956"><ele>834.0</ele><time>2026-04-26T13:34:08.03Z</time></trkpt><trkpt lat="46.2623897" lon="11.3935936"><ele>831.0</ele><time>2026-04-26T13:34:09.03Z</time></trkpt><trkpt lat="46.2625113" lon="11.3938013"><ele>828.0</ele><time>2026-04-26T13:34:10.03Z</time></trkpt><trkpt lat="46.2626223" lon="11.3940065"><ele>828.0</ele><time>2026-04-26T13:34:11.03Z</time></trkpt><trkpt lat="46.2627117" lon="11.394216"><ele>828.0</ele><time>2026-04-26T13:34:12.03Z</time></trkpt><trkpt lat="46.2627712" lon="11.3944349"><ele>828.0</ele><time>2026-04-26T13:34:13.03Z</time></trkpt><trkpt lat="46.2627841" lon="11.3946692"><ele>832.0</ele><time>2026-04-26T13:34:14.03Z</time></trkpt><trkpt lat="46.2627604" lon="11.3949002"><ele>836.0</ele><time>2026-04-26T13:34:15.03Z</time></trkpt><trkpt lat="46.2627232" lon="11.3951278"><ele>840.0</ele><time>2026-04-26T13:34:16.03Z</time></trkpt><trkpt lat="46.2627059" lon="11.395363"><ele>839.6666666666667</ele><time>2026-04-26T13:34:17.03Z</time></trkpt><trkpt lat="46.2627131" lon="11.3956054"><ele>839.3333333333334</ele><time>2026-04-26T13:34:18.03Z</time></trkpt><trkpt lat="46.2627429" lon="11.3958404"><ele>839.0</ele><time>2026-04-26T13:34:19.03Z</time></trkpt><trkpt lat="46.2627915" lon="11.3960902"><ele>832.6666666666667</ele><time>2026-04-26T13:34:20.03Z</time></trkpt><trkpt lat="46.2628439" lon="11.3963448"><ele>826.3333333333333</ele><time>2026-04-26T13:34:21.03Z</time></trkpt><trkpt lat="46.2628962" lon="11.396595"><ele>820.0</ele><time>2026-04-26T13:34:22.03Z</time></trkpt><trkpt lat="46.262947" lon="11.39685"><ele>820.0</ele><time>2026-04-26T13:34:23.03Z</time></trkpt><trkpt lat="46.2630014" lon="11.3971099"><ele>820.0</ele><time>2026-04-26T13:34:24.03Z</time></trkpt><trkpt lat="46.2630626" lon="11.3973676"><ele>820.0</ele><time>2026-04-26T13:34:25.03Z</time></trkpt><trkpt lat="46.2631146" lon="11.3976205"><ele>811.6666666666666</ele><time>2026-04-26T13:34:26.03Z</time></trkpt><trkpt lat="46.2631665" lon="11.3978798"><ele>803.3333333333333</ele><time>2026-04-26T13:34:27.03Z</time></trkpt><trkpt lat="46.2632163" lon="11.398139"><ele>795.0</ele><time>2026-04-26T13:34:28.03Z</time></trkpt><trkpt lat="46.2632673" lon="11.3983988"><ele>795.0</ele><time>2026-04-26T13:34:29.03Z</time></trkpt><trkpt lat="46.2633195" lon="11.3986585"><ele>795.0</ele><time>2026-04-26T13:34:30.03Z</time></trkpt><trkpt lat="46.2633733" lon="11.3989124"><ele>795.0</ele><time>2026-04-26T13:34:31.03Z</time></trkpt><trkpt lat="46.2634244" lon="11.3991614"><ele>804.0</ele><time>2026-04-26T13:34:32.03Z</time></trkpt><trkpt lat="46.2634761" lon="11.399404"><ele>813.0</ele><time>2026-04-26T13:34:33.03Z</time></trkpt><trkpt lat="46.2635339" lon="11.3996354"><ele>822.0</ele><time>2026-04-26T13:34:34.03Z</time></trkpt><trkpt lat="46.2636046" lon="11.399847"><ele>832.3333333333333</ele><time>2026-04-26T13:34:35.03Z</time></trkpt><trkpt lat="46.2636944" lon="11.4000367"><ele>842.6666666666666</ele><time>2026-04-26T13:34:36.03Z</time></trkpt><trkpt lat="46.2637995" lon="11.4002279"><ele>853.0</ele><time>2026-04-26T13:34:37.03Z</time></trkpt><trkpt lat="46.2639048" lon="11.4004016"><ele>835.3333333333333</ele><time>2026-04-26T13:34:38.03Z</time></trkpt><trkpt lat="46.2640114" lon="11.4005768"><ele>817.6666666666667</ele><time>2026-04-26T13:34:39.03Z</time></trkpt><trkpt lat="46.2641156" lon="11.4007435"><ele>800.0</ele><time>2026-04-26T13:34:40.03Z</time></trkpt><trkpt lat="46.2642123" lon="11.4009028"><ele>800.0</ele><time>2026-04-26T13:34:41.03Z</time></trkpt><trkpt lat="46.2642958" lon="11.4010737"><ele>800.0</ele><time>2026-04-26T13:34:42.03Z</time></trkpt><trkpt lat="46.264355" lon="11.4012539"><ele>800.0</ele><time>2026-04-26T13:34:43.03Z</time></trkpt><trkpt lat="46.2643997" lon="11.4014449"><ele>800.0</ele><time>2026-04-26T13:34:44.031Z</time></trkpt><trkpt lat="46.2644338" lon="11.4016452"><ele>805.75</ele><time>2026-04-26T13:34:45.03Z</time></trkpt><trkpt lat="46.2644665" lon="11.4018536"><ele>811.5</ele><time>2026-04-26T13:34:46.03Z</time></trkpt><trkpt lat="46.2645048" lon="11.402063"><ele>817.25</ele><time>2026-04-26T13:34:47.03Z</time></trkpt><trkpt lat="46.2645373" lon="11.4022729"><ele>823.0</ele><time>2026-04-26T13:34:48.03Z</time></trkpt><trkpt lat="46.2645904" lon="11.4024744"><ele>825.3333333333333</ele><time>2026-04-26T13:34:49.031Z</time></trkpt><trkpt lat="46.264661" lon="11.4026664"><ele>827.6666666666667</ele><time>2026-04-26T13:34:50.03Z</time></trkpt><trkpt lat="46.2647528" lon="11.4028464"><ele>830.0</ele><time>2026-04-26T13:34:51.031Z</time></trkpt><trkpt lat="46.2648541" lon="11.4030178"><ele>814.3333333333334</ele><time>2026-04-26T13:34:52.03Z</time></trkpt><trkpt lat="46.2649558" lon="11.4032032"><ele>798.6666666666667</ele><time>2026-04-26T13:34:53.03Z</time></trkpt><trkpt lat="46.2650638" lon="11.4033866"><ele>783.0</ele><time>2026-04-26T13:34:54.03Z</time></trkpt><trkpt lat="46.265171" lon="11.4035804"><ele>783.0</ele><time>2026-04-26T13:34:55.03Z</time></trkpt><trkpt lat="46.2652818" lon="11.4037731"><ele>783.0</ele><time>2026-04-26T13:34:56.03Z</time></trkpt><trkpt lat="46.2653865" lon="11.4039653"><ele>783.0</ele><time>2026-04-26T13:34:57.03Z</time></trkpt><trkpt lat="46.2654944" lon="11.4041586"><ele>783.3333333333333</ele><time>2026-04-26T13:34:58.031Z</time></trkpt><trkpt lat="46.2656021" lon="11.4043536"><ele>783.6666666666666</ele><time>2026-04-26T13:34:59.03Z</time></trkpt><trkpt lat="46.2657068" lon="11.4045596"><ele>784.0</ele><time>2026-04-26T13:35:00.03Z</time></trkpt><trkpt lat="46.2658015" lon="11.4047709"><ele>784.6666666666666</ele><time>2026-04-26T13:35:01.03Z</time></trkpt><trkpt lat="46.2658857" lon="11.4049997"><ele>785.3333333333333</ele><time>2026-04-26T13:35:02.03Z</time></trkpt><trkpt lat="46.2659614" lon="11.4052271"><ele>786.0</ele><time>2026-04-26T13:35:03.03Z</time></trkpt><trkpt lat="46.266032" lon="11.4054475"><ele>787.6666666666667</ele><time>2026-04-26T13:35:04.031Z</time></trkpt><trkpt lat="46.2660977" lon="11.4056539"><ele>789.3333333333334</ele><time>2026-04-26T13:35:05.03Z</time></trkpt><trkpt lat="46.266163" lon="11.4058586"><ele>791.0</ele><time>2026-04-26T13:35:06.03Z</time></trkpt><trkpt lat="46.2662256" lon="11.4060595"><ele>791.0</ele><time>2026-04-26T13:35:07.03Z</time></trkpt><trkpt lat="46.2662892" lon="11.4062564"><ele>791.0</ele><time>2026-04-26T13:35:08.03Z</time></trkpt><trkpt lat="46.266351" lon="11.4064535"><ele>791.0</ele><time>2026-04-26T13:35:09.03Z</time></trkpt><trkpt lat="46.2664131" lon="11.4066366"><ele>791.0</ele><time>2026-04-26T13:35:10.03Z</time></trkpt><trkpt lat="46.2664661" lon="11.4068082"><ele>793.0</ele><time>2026-04-26T13:35:11.03Z</time></trkpt><trkpt lat="46.2665156" lon="11.4069623"><ele>795.0</ele><time>2026-04-26T13:35:12.03Z</time></trkpt><trkpt lat="46.2665624" lon="11.4071091"><ele>797.0</ele><time>2026-04-26T13:35:13.03Z</time></trkpt><trkpt lat="46.2666065" lon="11.4072363"><ele>799.0</ele><time>2026-04-26T13:35:14.031Z</time></trkpt><trkpt lat="46.2666448" lon="11.4073536"><ele>801.0</ele><time>2026-04-26T13:35:15.03Z</time></trkpt><trkpt lat="46.2666766" lon="11.4074594"><ele>801.0</ele><time>2026-04-26T13:35:16.03Z</time></trkpt><trkpt lat="46.2667082" lon="11.4075676"><ele>801.0</ele><time>2026-04-26T13:35:17.03Z</time></trkpt><trkpt lat="46.2667404" lon="11.4076865"><ele>801.0</ele><time>2026-04-26T13:35:18.031Z</time></trkpt><trkpt lat="46.2667843" lon="11.4078338"><ele>801.0</ele><time>2026-04-26T13:35:19.03Z</time></trkpt><trkpt lat="46.2668324" lon="11.4079846"><ele>801.0</ele><time>2026-04-26T13:35:20.03Z</time></trkpt><trkpt lat="46.2668904" lon="11.4081505"><ele>801.0</ele><time>2026-04-26T13:35:21.03Z</time></trkpt><trkpt lat="46.2669676" lon="11.4083114"><ele>801.0</ele><time>2026-04-26T13:35:22.03Z</time></trkpt><trkpt lat="46.2670742" lon="11.4084585"><ele>801.0</ele><time>2026-04-26T13:35:23.03Z</time></trkpt><trkpt lat="46.2672026" lon="11.4085732"><ele>801.0</ele><time>2026-04-26T13:35:24.03Z</time></trkpt><trkpt lat="46.2673459" lon="11.4086571"><ele>800.6666666666667</ele><time>2026-04-26T13:35:25.03Z</time></trkpt><trkpt lat="46.2674986" lon="11.4087455"><ele>800.3333333333334</ele><time>2026-04-26T13:35:26.031Z</time></trkpt><trkpt lat="46.2676445" lon="11.4088547"><ele>800.0</ele><time>2026-04-26T13:35:27.03Z</time></trkpt><trkpt lat="46.2677819" lon="11.4090062"><ele>800.0</ele><time>2026-04-26T13:35:28.03Z</time></trkpt><trkpt lat="46.267909" lon="11.4091752"><ele>800.0</ele><time>2026-04-26T13:35:29.03Z</time></trkpt><trkpt lat="46.2680272" lon="11.4093635"><ele>800.0</ele><time>2026-04-26T13:35:30.03Z</time></trkpt><trkpt lat="46.2681392" lon="11.4095492"><ele>803.3333333333334</ele><time>2026-04-26T13:35:31.03Z</time></trkpt><trkpt lat="46.2682418" lon="11.4097335"><ele>806.6666666666667</ele><time>2026-04-26T13:35:32.03Z</time></trkpt><trkpt lat="46.2683412" lon="11.409912"><ele>810.0</ele><time>2026-04-26T13:35:33.03Z</time></trkpt><trkpt lat="46.2684414" lon="11.4100666"><ele>810.0</ele><time>2026-04-26T13:35:34.03Z</time></trkpt><trkpt lat="46.2685521" lon="11.4102075"><ele>810.0</ele><time>2026-04-26T13:35:35.03Z</time></trkpt><trkpt lat="46.2686778" lon="11.4103099"><ele>810.0</ele><time>2026-04-26T13:35:36.03Z</time></trkpt><trkpt lat="46.2688124" lon="11.4103919"><ele>810.0</ele><time>2026-04-26T13:35:37.03Z</time></trkpt><trkpt lat="46.2689553" lon="11.4104523"><ele>807.0</ele><time>2026-04-26T13:35:38.03Z</time></trkpt><trkpt lat="46.2690991" lon="11.4104979"><ele>804.0</ele><time>2026-04-26T13:35:39.031Z</time></trkpt><trkpt lat="46.2692495" lon="11.4105482"><ele>801.0</ele><time>2026-04-26T13:35:40.031Z</time></trkpt><trkpt lat="46.2693995" lon="11.4106029"><ele>801.0</ele><time>2026-04-26T13:35:41.03Z</time></trkpt><trkpt lat="46.2695521" lon="11.4106674"><ele>801.0</ele><time>2026-04-26T13:35:42.029Z</time></trkpt><trkpt lat="46.2697033" lon="11.4107466"><ele>801.0</ele><time>2026-04-26T13:35:43.029Z</time></trkpt><trkpt lat="46.2698496" lon="11.4108354"><ele>808.3333333333333</ele><time>2026-04-26T13:35:44.029Z</time></trkpt><trkpt lat="46.269996" lon="11.4109328"><ele>815.6666666666666</ele><time>2026-04-26T13:35:45.029Z</time></trkpt><trkpt lat="46.2701481" lon="11.4110468"><ele>823.0</ele><time>2026-04-26T13:35:46.029Z</time></trkpt><trkpt lat="46.2702941" lon="11.4111702"><ele>823.0</ele><time>2026-04-26T13:35:47.029Z</time></trkpt><trkpt lat="46.2704322" lon="11.4113135"><ele>823.0</ele><time>2026-04-26T13:35:48.029Z</time></trkpt><trkpt lat="46.2705581" lon="11.4114816"><ele>823.0</ele><time>2026-04-26T13:35:49.029Z</time></trkpt><trkpt lat="46.2706757" lon="11.4116638"><ele>822.3333333333333</ele><time>2026-04-26T13:35:50.029Z</time></trkpt><trkpt lat="46.2707752" lon="11.411867"><ele>821.6666666666667</ele><time>2026-04-26T13:35:51.029Z</time></trkpt><trkpt lat="46.2708699" lon="11.4120788"><ele>821.0</ele><time>2026-04-26T13:35:52.029Z</time></trkpt><trkpt lat="46.2709522" lon="11.4123115"><ele>816.0</ele><time>2026-04-26T13:35:53.029Z</time></trkpt><trkpt lat="46.2710215" lon="11.4125525"><ele>811.0</ele><time>2026-04-26T13:35:54.029Z</time></trkpt><trkpt lat="46.2710738" lon="11.4128111"><ele>806.0</ele><time>2026-04-26T13:35:55.029Z</time></trkpt><trkpt lat="46.2711122" lon="11.413078"><ele>804.6666666666667</ele><time>2026-04-26T13:35:56.03Z</time></trkpt><trkpt lat="46.2711282" lon="11.413352"><ele>803.3333333333333</ele><time>2026-04-26T13:35:57.029Z</time></trkpt><trkpt lat="46.2711314" lon="11.4136175"><ele>802.0</ele><time>2026-04-26T13:35:58.03Z</time></trkpt><trkpt lat="46.2711309" lon="11.4138826"><ele>802.0</ele><time>2026-04-26T13:35:59.029Z</time></trkpt><trkpt lat="46.2711197" lon="11.4141425"><ele>802.0</ele><time>2026-04-26T13:36:00.029Z</time></trkpt><trkpt lat="46.2711038" lon="11.4144058"><ele>802.0</ele><time>2026-04-26T13:36:01.029Z</time></trkpt><trkpt lat="46.2710718" lon="11.4146738"><ele>800.6666666666666</ele><time>2026-04-26T13:36:02.029Z</time></trkpt><trkpt lat="46.2710256" lon="11.4149423"><ele>799.3333333333333</ele><time>2026-04-26T13:36:03.029Z</time></trkpt><trkpt lat="46.2709689" lon="11.4152108"><ele>798.0</ele><time>2026-04-26T13:36:04.029Z</time></trkpt><trkpt lat="46.2709074" lon="11.4154759"><ele>797.6666666666667</ele><time>2026-04-26T13:36:05.029Z</time></trkpt><trkpt lat="46.2708413" lon="11.4157432"><ele>797.3333333333334</ele><time>2026-04-26T13:36:06.029Z</time></trkpt><trkpt lat="46.2707813" lon="11.416004"><ele>797.0</ele><time>2026-04-26T13:36:07.029Z</time></trkpt><trkpt lat="46.2707312" lon="11.4162712"><ele>798.3333333333334</ele><time>2026-04-26T13:36:08.029Z</time></trkpt><trkpt lat="46.2707012" lon="11.4165407"><ele>799.6666666666667</ele><time>2026-04-26T13:36:09.029Z</time></trkpt><trkpt lat="46.2706876" lon="11.4168114"><ele>801.0</ele><time>2026-04-26T13:36:10.03Z</time></trkpt><trkpt lat="46.2706894" lon="11.4170833"><ele>801.6666666666667</ele><time>2026-04-26T13:36:11.029Z</time></trkpt><trkpt lat="46.2707065" lon="11.4173548"><ele>802.3333333333334</ele><time>2026-04-26T13:36:12.03Z</time></trkpt><trkpt lat="46.2707293" lon="11.417631"><ele>803.0</ele><time>2026-04-26T13:36:13.029Z</time></trkpt><trkpt lat="46.2707548" lon="11.4178941"><ele>802.3333333333334</ele><time>2026-04-26T13:36:14.029Z</time></trkpt><trkpt lat="46.2707831" lon="11.4181556"><ele>801.6666666666667</ele><time>2026-04-26T13:36:15.029Z</time></trkpt><trkpt lat="46.2708103" lon="11.4184155"><ele>801.0</ele><time>2026-04-26T13:36:16.029Z</time></trkpt><trkpt lat="46.2708445" lon="11.4186713"><ele>801.3333333333333</ele><time>2026-04-26T13:36:17.029Z</time></trkpt><trkpt lat="46.2708849" lon="11.4189254"><ele>801.6666666666666</ele><time>2026-04-26T13:36:18.029Z</time></trkpt><trkpt lat="46.2709389" lon="11.4191835"><ele>802.0</ele><time>2026-04-26T13:36:19.029Z</time></trkpt><trkpt lat="46.2709968" lon="11.4194424"><ele>801.3333333333333</ele><time>2026-04-26T13:36:20.029Z</time></trkpt><trkpt lat="46.2710528" lon="11.4197067"><ele>800.6666666666667</ele><time>2026-04-26T13:36:21.029Z</time></trkpt><trkpt lat="46.2711038" lon="11.4199805"><ele>800.0</ele><time>2026-04-26T13:36:22.029Z</time></trkpt><trkpt lat="46.2711544" lon="11.4202555"><ele>801.0</ele><time>2026-04-26T13:36:23.029Z</time></trkpt><trkpt lat="46.2711924" lon="11.4205163"><ele>802.0</ele><time>2026-04-26T13:36:24.029Z</time></trkpt><trkpt lat="46.2712237" lon="11.4207711"><ele>803.0</ele><time>2026-04-26T13:36:25.029Z</time></trkpt><trkpt lat="46.2712449" lon="11.4210295"><ele>803.0</ele><time>2026-04-26T13:36:26.029Z</time></trkpt><trkpt lat="46.2712661" lon="11.4212826"><ele>803.0</ele><time>2026-04-26T13:36:27.029Z</time></trkpt><trkpt lat="46.27129" lon="11.4215318"><ele>803.0</ele><time>2026-04-26T13:36:28.029Z</time></trkpt><trkpt lat="46.2713159" lon="11.4217634"><ele>803.25</ele><time>2026-04-26T13:36:29.029Z</time></trkpt><trkpt lat="46.2713439" lon="11.4219785"><ele>803.5</ele><time>2026-04-26T13:36:30.029Z</time></trkpt><trkpt lat="46.2713768" lon="11.4221701"><ele>803.75</ele><time>2026-04-26T13:36:31.03Z</time></trkpt><trkpt lat="46.271413" lon="11.4223567"><ele>804.0</ele><time>2026-04-26T13:36:32.029Z</time></trkpt><trkpt lat="46.2714504" lon="11.4225125"><ele>804.0</ele><time>2026-04-26T13:36:33.029Z</time></trkpt><trkpt lat="46.2714846" lon="11.4226513"><ele>804.0</ele><time>2026-04-26T13:36:34.029Z</time></trkpt><trkpt lat="46.2715089" lon="11.4227807"><ele>804.0</ele><time>2026-04-26T13:36:35.029Z</time></trkpt><trkpt lat="46.2715088" lon="11.4229115"><ele>804.0</ele><time>2026-04-26T13:36:36.029Z</time></trkpt><trkpt lat="46.2715072" lon="11.4230603"><ele>804.0</ele><time>2026-04-26T13:36:37.029Z</time></trkpt><trkpt lat="46.2715086" lon="11.4232247"><ele>803.75</ele><time>2026-04-26T13:36:38.029Z</time></trkpt><trkpt lat="46.2715131" lon="11.4234103"><ele>803.5</ele><time>2026-04-26T13:36:39.029Z</time></trkpt><trkpt lat="46.2715181" lon="11.4236097"><ele>803.25</ele><time>2026-04-26T13:36:40.029Z</time></trkpt><trkpt lat="46.2715172" lon="11.4238329"><ele>803.0</ele><time>2026-04-26T13:36:41.029Z</time></trkpt><trkpt lat="46.2715134" lon="11.4240634"><ele>803.3333333333334</ele><time>2026-04-26T13:36:42.029Z</time></trkpt><trkpt lat="46.2715142" lon="11.424305"><ele>803.6666666666667</ele><time>2026-04-26T13:36:43.029Z</time></trkpt><trkpt lat="46.2715264" lon="11.4245473"><ele>804.0</ele><time>2026-04-26T13:36:44.029Z</time></trkpt><trkpt lat="46.2715504" lon="11.4247886"><ele>804.0</ele><time>2026-04-26T13:36:45.029Z</time></trkpt><trkpt lat="46.2715787" lon="11.425039"><ele>804.0</ele><time>2026-04-26T13:36:46.029Z</time></trkpt><trkpt lat="46.2716084" lon="11.4252853"><ele>804.0</ele><time>2026-04-26T13:36:47.029Z</time></trkpt><trkpt lat="46.2716564" lon="11.4255366"><ele>803.6666666666667</ele><time>2026-04-26T13:36:48.029Z</time></trkpt><trkpt lat="46.2717071" lon="11.4257871"><ele>803.3333333333334</ele><time>2026-04-26T13:36:49.029Z</time></trkpt><trkpt lat="46.2717631" lon="11.4260337"><ele>803.0</ele><time>2026-04-26T13:36:50.029Z</time></trkpt><trkpt lat="46.2718293" lon="11.4262807"><ele>804.0</ele><time>2026-04-26T13:36:51.029Z</time></trkpt><trkpt lat="46.2718999" lon="11.4265286"><ele>805.0</ele><time>2026-04-26T13:36:52.029Z</time></trkpt><trkpt lat="46.2719805" lon="11.4267717"><ele>806.0</ele><time>2026-04-26T13:36:53.029Z</time></trkpt><trkpt lat="46.2720719" lon="11.4270104"><ele>806.0</ele><time>2026-04-26T13:36:54.029Z</time></trkpt><trkpt lat="46.2721636" lon="11.4272507"><ele>806.0</ele><time>2026-04-26T13:36:55.029Z</time></trkpt><trkpt lat="46.2722545" lon="11.4274808"><ele>806.0</ele><time>2026-04-26T13:36:56.029Z</time></trkpt><trkpt lat="46.2723471" lon="11.4277119"><ele>806.0</ele><time>2026-04-26T13:36:57.029Z</time></trkpt><trkpt lat="46.2724348" lon="11.4279388"><ele>806.0</ele><time>2026-04-26T13:36:58.03Z</time></trkpt><trkpt lat="46.2725234" lon="11.4281676"><ele>806.0</ele><time>2026-04-26T13:36:59.029Z</time></trkpt><trkpt lat="46.2726125" lon="11.4283937"><ele>806.0</ele><time>2026-04-26T13:37:00.029Z</time></trkpt><trkpt lat="46.2727059" lon="11.4286252"><ele>806.0</ele><time>2026-04-26T13:37:01.029Z</time></trkpt><trkpt lat="46.2727996" lon="11.4288515"><ele>806.0</ele><time>2026-04-26T13:37:02.029Z</time></trkpt><trkpt lat="46.2728954" lon="11.4290808"><ele>806.6666666666667</ele><time>2026-04-26T13:37:03.029Z</time></trkpt><trkpt lat="46.2729907" lon="11.4293147"><ele>807.3333333333333</ele><time>2026-04-26T13:37:04.029Z</time></trkpt><trkpt lat="46.2730829" lon="11.4295478"><ele>808.0</ele><time>2026-04-26T13:37:05.029Z</time></trkpt><trkpt lat="46.2731713" lon="11.4297787"><ele>809.0</ele><time>2026-04-26T13:37:06.029Z</time></trkpt><trkpt lat="46.2732676" lon="11.4300151"><ele>810.0</ele><time>2026-04-26T13:37:07.029Z</time></trkpt><trkpt lat="46.2733652" lon="11.4302555"><ele>811.0</ele><time>2026-04-26T13:37:08.03Z</time></trkpt><trkpt lat="46.2734582" lon="11.4304937"><ele>811.0</ele><time>2026-04-26T13:37:09.029Z</time></trkpt><trkpt lat="46.2735524" lon="11.4307308"><ele>811.0</ele><time>2026-04-26T13:37:10.029Z</time></trkpt><trkpt lat="46.2736501" lon="11.4309727"><ele>811.0</ele><time>2026-04-26T13:37:11.029Z</time></trkpt><trkpt lat="46.2737482" lon="11.4312053"><ele>811.3333333333333</ele><time>2026-04-26T13:37:12.029Z</time></trkpt><trkpt lat="46.2738433" lon="11.4314493"><ele>811.6666666666667</ele><time>2026-04-26T13:37:13.029Z</time></trkpt><trkpt lat="46.273942" lon="11.4316953"><ele>812.0</ele><time>2026-04-26T13:37:14.029Z</time></trkpt><trkpt lat="46.2740422" lon="11.4319413"><ele>813.3333333333334</ele><time>2026-04-26T13:37:15.029Z</time></trkpt><trkpt lat="46.274149" lon="11.4321839"><ele>814.6666666666667</ele><time>2026-04-26T13:37:16.029Z</time></trkpt><trkpt lat="46.2742685" lon="11.4324228"><ele>816.0</ele><time>2026-04-26T13:37:17.03Z</time></trkpt><trkpt lat="46.2743945" lon="11.4326527"><ele>816.0</ele><time>2026-04-26T13:37:18.03Z</time></trkpt><trkpt lat="46.2745312" lon="11.4328757"><ele>816.0</ele><time>2026-04-26T13:37:19.029Z</time></trkpt><trkpt lat="46.2746665" lon="11.4330966"><ele>816.0</ele><time>2026-04-26T13:37:20.029Z</time></trkpt><trkpt lat="46.2748073" lon="11.4333152"><ele>815.3333333333333</ele><time>2026-04-26T13:37:21.029Z</time></trkpt><trkpt lat="46.2749467" lon="11.433541"><ele>814.6666666666666</ele><time>2026-04-26T13:37:22.029Z</time></trkpt><trkpt lat="46.27508" lon="11.4337648"><ele>814.0</ele><time>2026-04-26T13:37:23.029Z</time></trkpt><trkpt lat="46.2752167" lon="11.4339932"><ele>814.0</ele><time>2026-04-26T13:37:24.029Z</time></trkpt><trkpt lat="46.2753513" lon="11.4342241"><ele>814.0</ele><time>2026-04-26T13:37:25.029Z</time></trkpt><trkpt lat="46.2754784" lon="11.4344597"><ele>814.0</ele><time>2026-04-26T13:37:26.029Z</time></trkpt><trkpt lat="46.2756003" lon="11.4347074"><ele>815.3333333333333</ele><time>2026-04-26T13:37:27.03Z</time></trkpt><trkpt lat="46.2757093" lon="11.4349641"><ele>816.6666666666667</ele><time>2026-04-26T13:37:28.029Z</time></trkpt><trkpt lat="46.2758096" lon="11.4352282"><ele>818.0</ele><time>2026-04-26T13:37:29.029Z</time></trkpt><trkpt lat="46.275906" lon="11.435497"><ele>818.0</ele><time>2026-04-26T13:37:30.029Z</time></trkpt><trkpt lat="46.2760031" lon="11.4357634"><ele>818.0</ele><time>2026-04-26T13:37:31.029Z</time></trkpt><trkpt lat="46.2761044" lon="11.436032"><ele>818.0</ele><time>2026-04-26T13:37:32.029Z</time></trkpt><trkpt lat="46.2762058" lon="11.4362995"><ele>817.0</ele><time>2026-04-26T13:37:33.029Z</time></trkpt><trkpt lat="46.2763047" lon="11.4365691"><ele>816.0</ele><time>2026-04-26T13:37:34.029Z</time></trkpt><trkpt lat="46.2764031" lon="11.4368358"><ele>815.0</ele><time>2026-04-26T13:37:35.029Z</time></trkpt><trkpt lat="46.2765077" lon="11.4371096"><ele>817.3333333333334</ele><time>2026-04-26T13:37:36.029Z</time></trkpt><trkpt lat="46.2766117" lon="11.4373804"><ele>819.6666666666667</ele><time>2026-04-26T13:37:37.029Z</time></trkpt><trkpt lat="46.2767147" lon="11.4376499"><ele>822.0</ele><time>2026-04-26T13:37:38.029Z</time></trkpt><trkpt lat="46.2768179" lon="11.4379206"><ele>821.6666666666667</ele><time>2026-04-26T13:37:39.03Z</time></trkpt><trkpt lat="46.276925" lon="11.4381939"><ele>821.3333333333334</ele><time>2026-04-26T13:37:40.029Z</time></trkpt><trkpt lat="46.2770389" lon="11.4384619"><ele>821.0</ele><time>2026-04-26T13:37:41.029Z</time></trkpt><trkpt lat="46.2771541" lon="11.4387216"><ele>826.0</ele><time>2026-04-26T13:37:42.029Z</time></trkpt><trkpt lat="46.277279" lon="11.4389781"><ele>831.0</ele><time>2026-04-26T13:37:43.029Z</time></trkpt><trkpt lat="46.2774093" lon="11.4392361"><ele>836.0</ele><time>2026-04-26T13:37:44.029Z</time></trkpt><trkpt lat="46.2775391" lon="11.4394928"><ele>831.6666666666667</ele><time>2026-04-26T13:37:45.029Z</time></trkpt><trkpt lat="46.2776665" lon="11.439749"><ele>827.3333333333333</ele><time>2026-04-26T13:37:46.029Z</time></trkpt><trkpt lat="46.2777887" lon="11.4400118"><ele>823.0</ele><time>2026-04-26T13:37:47.029Z</time></trkpt><trkpt lat="46.2779032" lon="11.4402868"><ele>822.3333333333333</ele><time>2026-04-26T13:37:48.029Z</time></trkpt><trkpt lat="46.2780068" lon="11.4405629"><ele>821.6666666666667</ele><time>2026-04-26T13:37:49.029Z</time></trkpt><trkpt lat="46.2781103" lon="11.4408388"><ele>821.0</ele><time>2026-04-26T13:37:50.029Z</time></trkpt><trkpt lat="46.2782174" lon="11.4411175"><ele>824.0</ele><time>2026-04-26T13:37:51.029Z</time></trkpt><trkpt lat="46.278321" lon="11.441388"><ele>827.0</ele><time>2026-04-26T13:37:52.029Z</time></trkpt><trkpt lat="46.2784265" lon="11.4416588"><ele>830.0</ele><time>2026-04-26T13:37:53.029Z</time></trkpt><trkpt lat="46.2785358" lon="11.4419294"><ele>828.0</ele><time>2026-04-26T13:37:54.029Z</time></trkpt><trkpt lat="46.278647" lon="11.4421907"><ele>826.0</ele><time>2026-04-26T13:37:55.029Z</time></trkpt><trkpt lat="46.278762" lon="11.4424453"><ele>824.0</ele><time>2026-04-26T13:37:56.029Z</time></trkpt><trkpt lat="46.2788777" lon="11.4426779"><ele>827.6666666666667</ele><time>2026-04-26T13:37:57.029Z</time></trkpt><trkpt lat="46.2789878" lon="11.4428953"><ele>831.3333333333333</ele><time>2026-04-26T13:37:58.029Z</time></trkpt><trkpt lat="46.2790992" lon="11.4431024"><ele>835.0</ele><time>2026-04-26T13:37:59.029Z</time></trkpt><trkpt lat="46.2792091" lon="11.4433067"><ele>835.0</ele><time>2026-04-26T13:38:00.029Z</time></trkpt><trkpt lat="46.279317" lon="11.443512"><ele>835.0</ele><time>2026-04-26T13:38:01.029Z</time></trkpt><trkpt lat="46.2794143" lon="11.4437085"><ele>835.0</ele><time>2026-04-26T13:38:02.029Z</time></trkpt><trkpt lat="46.2794997" lon="11.4439046"><ele>833.25</ele><time>2026-04-26T13:38:03.029Z</time></trkpt><trkpt lat="46.2795722" lon="11.4440854"><ele>831.5</ele><time>2026-04-26T13:38:04.029Z</time></trkpt><trkpt lat="46.2796405" lon="11.4442571"><ele>829.75</ele><time>2026-04-26T13:38:05.029Z</time></trkpt><trkpt lat="46.2796966" lon="11.4444128"><ele>828.0</ele><time>2026-04-26T13:38:06.029Z</time></trkpt><trkpt lat="46.2797409" lon="11.4445591"><ele>829.0</ele><time>2026-04-26T13:38:07.029Z</time></trkpt><trkpt lat="46.2797774" lon="11.4446912"><ele>830.0</ele><time>2026-04-26T13:38:08.029Z</time></trkpt><trkpt lat="46.2798043" lon="11.4448155"><ele>831.0</ele><time>2026-04-26T13:38:09.029Z</time></trkpt><trkpt lat="46.2798256" lon="11.4449228"><ele>832.0</ele><time>2026-04-26T13:38:10.029Z</time></trkpt><trkpt lat="46.2798405" lon="11.4450181"><ele>833.0</ele><time>2026-04-26T13:38:11.029Z</time></trkpt><trkpt lat="46.279864" lon="11.4451812"><ele>834.0</ele><time>2026-04-26T13:38:13.029Z</time></trkpt><trkpt lat="46.2798741" lon="11.4453471"><ele>833.5</ele><time>2026-04-26T13:38:15.029Z</time></trkpt><trkpt lat="46.2799268" lon="11.4455047"><ele>833.0</ele><time>2026-04-26T13:38:17.029Z</time></trkpt><trkpt lat="46.2799762" lon="11.4455775"><ele>832.5</ele><time>2026-04-26T13:38:18.029Z</time></trkpt><trkpt lat="46.2800264" lon="11.4456565"><ele>832.0</ele><time>2026-04-26T13:38:19.029Z</time></trkpt><trkpt lat="46.2800732" lon="11.4457555"><ele>831.5</ele><time>2026-04-26T13:38:20.03Z</time></trkpt><trkpt lat="46.2801149" lon="11.4458733"><ele>831.0</ele><time>2026-04-26T13:38:21.029Z</time></trkpt><trkpt lat="46.2801506" lon="11.4460104"><ele>831.0</ele><time>2026-04-26T13:38:22.029Z</time></trkpt><trkpt lat="46.2801882" lon="11.4461581"><ele>831.0</ele><time>2026-04-26T13:38:23.029Z</time></trkpt><trkpt lat="46.2802239" lon="11.4463203"><ele>831.0</ele><time>2026-04-26T13:38:24.029Z</time></trkpt><trkpt lat="46.2802513" lon="11.4464882"><ele>831.0</ele><time>2026-04-26T13:38:25.029Z</time></trkpt><trkpt lat="46.2802682" lon="11.4466641"><ele>831.0</ele><time>2026-04-26T13:38:26.029Z</time></trkpt><trkpt lat="46.2802803" lon="11.4468568"><ele>831.0</ele><time>2026-04-26T13:38:27.029Z</time></trkpt><trkpt lat="46.2802884" lon="11.4470624"><ele>831.0</ele><time>2026-04-26T13:38:28.029Z</time></trkpt><trkpt lat="46.2802952" lon="11.4472668"><ele>831.0</ele><time>2026-04-26T13:38:29.029Z</time></trkpt><trkpt lat="46.2803018" lon="11.4474772"><ele>831.6666666666667</ele><time>2026-04-26T13:38:30.029Z</time></trkpt><trkpt lat="46.2803017" lon="11.4476924"><ele>832.3333333333334</ele><time>2026-04-26T13:38:31.029Z</time></trkpt><trkpt lat="46.2802995" lon="11.4479137"><ele>833.0</ele><time>2026-04-26T13:38:32.03Z</time></trkpt><trkpt lat="46.2802901" lon="11.4481332"><ele>833.3333333333334</ele><time>2026-04-26T13:38:33.029Z</time></trkpt><trkpt lat="46.2802718" lon="11.4483584"><ele>833.6666666666667</ele><time>2026-04-26T13:38:34.029Z</time></trkpt><trkpt lat="46.2802499" lon="11.4485868"><ele>834.0</ele><time>2026-04-26T13:38:35.029Z</time></trkpt><trkpt lat="46.2802274" lon="11.4488235"><ele>833.3333333333333</ele><time>2026-04-26T13:38:36.029Z</time></trkpt><trkpt lat="46.2802053" lon="11.4490658"><ele>832.6666666666666</ele><time>2026-04-26T13:38:37.029Z</time></trkpt><trkpt lat="46.2801827" lon="11.4493082"><ele>832.0</ele><time>2026-04-26T13:38:38.029Z</time></trkpt><trkpt lat="46.280157" lon="11.4495601"><ele>832.6666666666666</ele><time>2026-04-26T13:38:39.029Z</time></trkpt><trkpt lat="46.2801318" lon="11.4498064"><ele>833.3333333333333</ele><time>2026-04-26T13:38:40.029Z</time></trkpt><trkpt lat="46.2801151" lon="11.4500468"><ele>834.0</ele><time>2026-04-26T13:38:41.029Z</time></trkpt><trkpt lat="46.2801177" lon="11.450276"><ele>835.0</ele><time>2026-04-26T13:38:42.029Z</time></trkpt><trkpt lat="46.2801322" lon="11.4504991"><ele>836.0</ele><time>2026-04-26T13:38:43.029Z</time></trkpt><trkpt lat="46.2801572" lon="11.4507199"><ele>837.0</ele><time>2026-04-26T13:38:44.029Z</time></trkpt><trkpt lat="46.2801939" lon="11.4509391"><ele>837.0</ele><time>2026-04-26T13:38:45.029Z</time></trkpt><trkpt lat="46.2802414" lon="11.451151"><ele>837.0</ele><time>2026-04-26T13:38:46.029Z</time></trkpt><trkpt lat="46.2802985" lon="11.4513548"><ele>837.0</ele><time>2026-04-26T13:38:47.029Z</time></trkpt><trkpt lat="46.2803531" lon="11.4515597"><ele>836.6666666666667</ele><time>2026-04-26T13:38:48.029Z</time></trkpt><trkpt lat="46.2804076" lon="11.4517657"><ele>836.3333333333334</ele><time>2026-04-26T13:38:49.029Z</time></trkpt><trkpt lat="46.2804603" lon="11.4519749"><ele>836.0</ele><time>2026-04-26T13:38:50.029Z</time></trkpt><trkpt lat="46.2805116" lon="11.452187"><ele>835.3333333333334</ele><time>2026-04-26T13:38:51.029Z</time></trkpt><trkpt lat="46.2805578" lon="11.4523982"><ele>834.6666666666667</ele><time>2026-04-26T13:38:52.029Z</time></trkpt><trkpt lat="46.280593" lon="11.4526188"><ele>834.0</ele><time>2026-04-26T13:38:53.029Z</time></trkpt><trkpt lat="46.2806242" lon="11.4528381"><ele>839.0</ele><time>2026-04-26T13:38:54.029Z</time></trkpt><trkpt lat="46.2806434" lon="11.4530618"><ele>844.0</ele><time>2026-04-26T13:38:55.029Z</time></trkpt><trkpt lat="46.280647" lon="11.453293"><ele>849.0</ele><time>2026-04-26T13:38:56.029Z</time></trkpt><trkpt lat="46.2806438" lon="11.453529"><ele>849.0</ele><time>2026-04-26T13:38:57.029Z</time></trkpt><trkpt lat="46.2806342" lon="11.4537662"><ele>849.0</ele><time>2026-04-26T13:38:58.029Z</time></trkpt><trkpt lat="46.2806179" lon="11.4540059"><ele>849.0</ele><time>2026-04-26T13:38:59.029Z</time></trkpt><trkpt lat="46.2805949" lon="11.4542414"><ele>844.0</ele><time>2026-04-26T13:39:00.03Z</time></trkpt><trkpt lat="46.2805728" lon="11.4544847"><ele>839.0</ele><time>2026-04-26T13:39:01.029Z</time></trkpt><trkpt lat="46.2805541" lon="11.4547279"><ele>834.0</ele><time>2026-04-26T13:39:02.029Z</time></trkpt><trkpt lat="46.2805305" lon="11.4549662"><ele>834.0</ele><time>2026-04-26T13:39:03.029Z</time></trkpt><trkpt lat="46.2805061" lon="11.4552166"><ele>834.0</ele><time>2026-04-26T13:39:04.029Z</time></trkpt><trkpt lat="46.2804836" lon="11.4554678"><ele>834.0</ele><time>2026-04-26T13:39:05.029Z</time></trkpt><trkpt lat="46.2804585" lon="11.4557093"><ele>834.3333333333333</ele><time>2026-04-26T13:39:06.029Z</time></trkpt><trkpt lat="46.2804355" lon="11.4559553"><ele>834.6666666666666</ele><time>2026-04-26T13:39:07.029Z</time></trkpt><trkpt lat="46.2804072" lon="11.4562046"><ele>835.0</ele><time>2026-04-26T13:39:08.029Z</time></trkpt><trkpt lat="46.280383" lon="11.45645"><ele>836.0</ele><time>2026-04-26T13:39:09.029Z</time></trkpt><trkpt lat="46.2803574" lon="11.4567011"><ele>837.0</ele><time>2026-04-26T13:39:10.029Z</time></trkpt><trkpt lat="46.2803328" lon="11.4569536"><ele>838.0</ele><time>2026-04-26T13:39:11.029Z</time></trkpt><trkpt lat="46.2803063" lon="11.4572042"><ele>839.3333333333333</ele><time>2026-04-26T13:39:12.029Z</time></trkpt><trkpt lat="46.2802809" lon="11.4574607"><ele>840.6666666666667</ele><time>2026-04-26T13:39:13.029Z</time></trkpt><trkpt lat="46.2802635" lon="11.4577234"><ele>842.0</ele><time>2026-04-26T13:39:14.029Z</time></trkpt><trkpt lat="46.2802616" lon="11.4579883"><ele>843.3333333333334</ele><time>2026-04-26T13:39:15.029Z</time></trkpt><trkpt lat="46.2802694" lon="11.4582569"><ele>844.6666666666667</ele><time>2026-04-26T13:39:16.03Z</time></trkpt><trkpt lat="46.280293" lon="11.4585237"><ele>846.0</ele><time>2026-04-26T13:39:17.029Z</time></trkpt><trkpt lat="46.2803291" lon="11.4587831"><ele>845.0</ele><time>2026-04-26T13:39:18.029Z</time></trkpt><trkpt lat="46.2803803" lon="11.4590364"><ele>844.0</ele><time>2026-04-26T13:39:19.029Z</time></trkpt><trkpt lat="46.2804396" lon="11.4592859"><ele>843.0</ele><time>2026-04-26T13:39:20.029Z</time></trkpt><trkpt lat="46.2805083" lon="11.4595384"><ele>842.0</ele><time>2026-04-26T13:39:21.029Z</time></trkpt><trkpt lat="46.2805876" lon="11.4597777"><ele>841.0</ele><time>2026-04-26T13:39:22.029Z</time></trkpt><trkpt lat="46.280677" lon="11.4600073"><ele>840.0</ele><time>2026-04-26T13:39:23.029Z</time></trkpt><trkpt lat="46.2807786" lon="11.4602223"><ele>840.6666666666667</ele><time>2026-04-26T13:39:24.029Z</time></trkpt><trkpt lat="46.2808876" lon="11.4604182"><ele>841.3333333333334</ele><time>2026-04-26T13:39:25.029Z</time></trkpt><trkpt lat="46.2809981" lon="11.4605991"><ele>842.0</ele><time>2026-04-26T13:39:26.029Z</time></trkpt><trkpt lat="46.2811136" lon="11.4607613"><ele>842.0</ele><time>2026-04-26T13:39:27.029Z</time></trkpt><trkpt lat="46.2812257" lon="11.4609148"><ele>842.0</ele><time>2026-04-26T13:39:28.029Z</time></trkpt><trkpt lat="46.2813376" lon="11.4610555"><ele>842.0</ele><time>2026-04-26T13:39:29.029Z</time></trkpt><trkpt lat="46.2814478" lon="11.4611888"><ele>842.0</ele><time>2026-04-26T13:39:30.029Z</time></trkpt><trkpt lat="46.2815487" lon="11.461317"><ele>842.25</ele><time>2026-04-26T13:39:31.029Z</time></trkpt><trkpt lat="46.2816523" lon="11.4614432"><ele>842.5</ele><time>2026-04-26T13:39:32.029Z</time></trkpt><trkpt lat="46.2817541" lon="11.4615722"><ele>842.75</ele><time>2026-04-26T13:39:33.029Z</time></trkpt><trkpt lat="46.2818579" lon="11.461705"><ele>843.0</ele><time>2026-04-26T13:39:34.029Z</time></trkpt><trkpt lat="46.2819619" lon="11.4618358"><ele>843.0</ele><time>2026-04-26T13:39:35.029Z</time></trkpt><trkpt lat="46.2820714" lon="11.4619708"><ele>843.0</ele><time>2026-04-26T13:39:36.029Z</time></trkpt><trkpt lat="46.2821812" lon="11.4621039"><ele>843.0</ele><time>2026-04-26T13:39:37.029Z</time></trkpt><trkpt lat="46.2822897" lon="11.4622346"><ele>843.0</ele><time>2026-04-26T13:39:38.029Z</time></trkpt><trkpt lat="46.282399" lon="11.4623752"><ele>843.6666666666667</ele><time>2026-04-26T13:39:39.029Z</time></trkpt><trkpt lat="46.2825119" lon="11.4625192"><ele>844.3333333333334</ele><time>2026-04-26T13:39:40.029Z</time></trkpt><trkpt lat="46.2826247" lon="11.462663"><ele>845.0</ele><time>2026-04-26T13:39:41.029Z</time></trkpt><trkpt lat="46.2827384" lon="11.4628111"><ele>843.6666666666667</ele><time>2026-04-26T13:39:42.029Z</time></trkpt><trkpt lat="46.2828472" lon="11.4629652"><ele>842.3333333333333</ele><time>2026-04-26T13:39:43.029Z</time></trkpt><trkpt lat="46.2829517" lon="11.4631278"><ele>841.0</ele><time>2026-04-26T13:39:44.029Z</time></trkpt><trkpt lat="46.2830495" lon="11.4632966"><ele>845.0</ele><time>2026-04-26T13:39:45.029Z</time></trkpt><trkpt lat="46.2831471" lon="11.4634807"><ele>849.0</ele><time>2026-04-26T13:39:46.029Z</time></trkpt><trkpt lat="46.283239" lon="11.4636868"><ele>853.0</ele><time>2026-04-26T13:39:47.029Z</time></trkpt><trkpt lat="46.2833242" lon="11.4639021"><ele>853.0</ele><time>2026-04-26T13:39:48.029Z</time></trkpt><trkpt lat="46.2834003" lon="11.4641226"><ele>853.0</ele><time>2026-04-26T13:39:49.03Z</time></trkpt><trkpt lat="46.2834753" lon="11.4643412"><ele>853.0</ele><time>2026-04-26T13:39:50.029Z</time></trkpt><trkpt lat="46.283547" lon="11.464566"><ele>851.6666666666666</ele><time>2026-04-26T13:39:51.029Z</time></trkpt><trkpt lat="46.2836185" lon="11.4647917"><ele>850.3333333333333</ele><time>2026-04-26T13:39:52.029Z</time></trkpt><trkpt lat="46.2836925" lon="11.4650195"><ele>849.0</ele><time>2026-04-26T13:39:53.029Z</time></trkpt><trkpt lat="46.2837696" lon="11.4652486"><ele>848.0</ele><time>2026-04-26T13:39:54.029Z</time></trkpt><trkpt lat="46.2838496" lon="11.4654798"><ele>847.0</ele><time>2026-04-26T13:39:55.029Z</time></trkpt><trkpt lat="46.2839283" lon="11.4657113"><ele>846.0</ele><time>2026-04-26T13:39:56.029Z</time></trkpt><trkpt lat="46.284002" lon="11.465942"><ele>848.0</ele><time>2026-04-26T13:39:57.029Z</time></trkpt><trkpt lat="46.2840744" lon="11.4661725"><ele>850.0</ele><time>2026-04-26T13:39:58.029Z</time></trkpt><trkpt lat="46.2841493" lon="11.4664035"><ele>852.0</ele><time>2026-04-26T13:39:59.029Z</time></trkpt><trkpt lat="46.2842257" lon="11.4666335"><ele>852.0</ele><time>2026-04-26T13:40:00.029Z</time></trkpt><trkpt lat="46.2843021" lon="11.466858"><ele>852.0</ele><time>2026-04-26T13:40:01.029Z</time></trkpt><trkpt lat="46.2843775" lon="11.4670853"><ele>852.0</ele><time>2026-04-26T13:40:02.029Z</time></trkpt><trkpt lat="46.2844503" lon="11.4673105"><ele>850.6666666666667</ele><time>2026-04-26T13:40:03.029Z</time></trkpt><trkpt lat="46.2845242" lon="11.467534"><ele>849.3333333333334</ele><time>2026-04-26T13:40:04.029Z</time></trkpt><trkpt lat="46.2845961" lon="11.4677486"><ele>848.0</ele><time>2026-04-26T13:40:05.029Z</time></trkpt><trkpt lat="46.2846668" lon="11.4679602"><ele>847.3333333333334</ele><time>2026-04-26T13:40:06.029Z</time></trkpt><trkpt lat="46.2847344" lon="11.4681621"><ele>846.6666666666667</ele><time>2026-04-26T13:40:07.029Z</time></trkpt><trkpt lat="46.2847967" lon="11.4683643"><ele>846.0</ele><time>2026-04-26T13:40:08.029Z</time></trkpt><trkpt lat="46.2848559" lon="11.4685754"><ele>848.6666666666667</ele><time>2026-04-26T13:40:09.029Z</time></trkpt><trkpt lat="46.2849043" lon="11.4687859"><ele>851.3333333333334</ele><time>2026-04-26T13:40:10.029Z</time></trkpt><trkpt lat="46.2849414" lon="11.4689985"><ele>854.0</ele><time>2026-04-26T13:40:11.029Z</time></trkpt><trkpt lat="46.2849693" lon="11.4692142"><ele>854.0</ele><time>2026-04-26T13:40:12.029Z</time></trkpt><trkpt lat="46.2849901" lon="11.4694384"><ele>854.0</ele><time>2026-04-26T13:40:13.03Z</time></trkpt><trkpt lat="46.285002" lon="11.4696624"><ele>854.0</ele><time>2026-04-26T13:40:14.029Z</time></trkpt><trkpt lat="46.285004" lon="11.4698815"><ele>853.3333333333334</ele><time>2026-04-26T13:40:15.029Z</time></trkpt><trkpt lat="46.2849989" lon="11.4701008"><ele>852.6666666666667</ele><time>2026-04-26T13:40:16.029Z</time></trkpt><trkpt lat="46.2849897" lon="11.4703197"><ele>852.0</ele><time>2026-04-26T13:40:17.029Z</time></trkpt><trkpt lat="46.2849789" lon="11.4705423"><ele>852.0</ele><time>2026-04-26T13:40:18.029Z</time></trkpt><trkpt lat="46.2849646" lon="11.4707664"><ele>852.0</ele><time>2026-04-26T13:40:19.029Z</time></trkpt><trkpt lat="46.2849467" lon="11.4709854"><ele>852.0</ele><time>2026-04-26T13:40:20.029Z</time></trkpt><trkpt lat="46.2849274" lon="11.4712022"><ele>852.5</ele><time>2026-04-26T13:40:21.028Z</time></trkpt><trkpt lat="46.2849155" lon="11.4714167"><ele>853.0</ele><time>2026-04-26T13:40:22.028Z</time></trkpt><trkpt lat="46.2848996" lon="11.4716315"><ele>853.5</ele><time>2026-04-26T13:40:23.028Z</time></trkpt><trkpt lat="46.2848902" lon="11.4718476"><ele>854.0</ele><time>2026-04-26T13:40:24.028Z</time></trkpt><trkpt lat="46.2848708" lon="11.472069"><ele>855.0</ele><time>2026-04-26T13:40:25.028Z</time></trkpt><trkpt lat="46.2848492" lon="11.4722908"><ele>856.0</ele><time>2026-04-26T13:40:26.028Z</time></trkpt><trkpt lat="46.2848341" lon="11.4725124"><ele>857.0</ele><time>2026-04-26T13:40:27.028Z</time></trkpt><trkpt lat="46.2848189" lon="11.4727405"><ele>856.3333333333334</ele><time>2026-04-26T13:40:28.028Z</time></trkpt><trkpt lat="46.2848028" lon="11.4729735"><ele>855.6666666666667</ele><time>2026-04-26T13:40:29.028Z</time></trkpt><trkpt lat="46.284786" lon="11.4732091"><ele>855.0</ele><time>2026-04-26T13:40:30.028Z</time></trkpt><trkpt lat="46.2847666" lon="11.4734461"><ele>854.6666666666667</ele><time>2026-04-26T13:40:31.028Z</time></trkpt><trkpt lat="46.2847469" lon="11.4736877"><ele>854.3333333333334</ele><time>2026-04-26T13:40:32.028Z</time></trkpt><trkpt lat="46.2847303" lon="11.4739372"><ele>854.0</ele><time>2026-04-26T13:40:33.028Z</time></trkpt><trkpt lat="46.2847173" lon="11.4741902"><ele>853.6666666666667</ele><time>2026-04-26T13:40:34.029Z</time></trkpt><trkpt lat="46.2847109" lon="11.4744413"><ele>853.3333333333333</ele><time>2026-04-26T13:40:35.028Z</time></trkpt><trkpt lat="46.2847139" lon="11.4746906"><ele>853.0</ele><time>2026-04-26T13:40:36.028Z</time></trkpt><trkpt lat="46.2847253" lon="11.4749373"><ele>853.0</ele><time>2026-04-26T13:40:37.028Z</time></trkpt><trkpt lat="46.2847527" lon="11.4751762"><ele>853.0</ele><time>2026-04-26T13:40:38.028Z</time></trkpt><trkpt lat="46.2847873" lon="11.4754033"><ele>853.0</ele><time>2026-04-26T13:40:39.029Z</time></trkpt><trkpt lat="46.2848181" lon="11.4756185"><ele>853.25</ele><time>2026-04-26T13:40:40.028Z</time></trkpt><trkpt lat="46.2848523" lon="11.4758221"><ele>853.5</ele><time>2026-04-26T13:40:41.028Z</time></trkpt><trkpt lat="46.2848941" lon="11.4760302"><ele>853.75</ele><time>2026-04-26T13:40:42.028Z</time></trkpt><trkpt lat="46.2849312" lon="11.4762416"><ele>854.0</ele><time>2026-04-26T13:40:43.028Z</time></trkpt><trkpt lat="46.2849691" lon="11.4764603"><ele>854.0</ele><time>2026-04-26T13:40:44.028Z</time></trkpt><trkpt lat="46.2850101" lon="11.4766802"><ele>854.0</ele><time>2026-04-26T13:40:45.028Z</time></trkpt><trkpt lat="46.2850464" lon="11.4769056"><ele>854.0</ele><time>2026-04-26T13:40:46.028Z</time></trkpt><trkpt lat="46.2850822" lon="11.4771285"><ele>854.0</ele><time>2026-04-26T13:40:47.028Z</time></trkpt><trkpt lat="46.2851174" lon="11.4773506"><ele>854.0</ele><time>2026-04-26T13:40:48.028Z</time></trkpt><trkpt lat="46.2851564" lon="11.4775698"><ele>854.0</ele><time>2026-04-26T13:40:49.028Z</time></trkpt><trkpt lat="46.2851965" lon="11.4777958"><ele>854.3333333333334</ele><time>2026-04-26T13:40:50.028Z</time></trkpt><trkpt lat="46.2852355" lon="11.4780159"><ele>854.6666666666667</ele><time>2026-04-26T13:40:51.028Z</time></trkpt><trkpt lat="46.2852731" lon="11.4782279"><ele>855.0</ele><time>2026-04-26T13:40:52.028Z</time></trkpt><trkpt lat="46.2853095" lon="11.4784377"><ele>855.0</ele><time>2026-04-26T13:40:53.028Z</time></trkpt><trkpt lat="46.2853423" lon="11.4786307"><ele>855.0</ele><time>2026-04-26T13:40:54.028Z</time></trkpt><trkpt lat="46.285375" lon="11.4788144"><ele>855.0</ele><time>2026-04-26T13:40:55.028Z</time></trkpt><trkpt lat="46.2854012" lon="11.478982"><ele>855.0</ele><time>2026-04-26T13:40:56.028Z</time></trkpt><trkpt lat="46.2854304" lon="11.4791441"><ele>855.0</ele><time>2026-04-26T13:40:57.028Z</time></trkpt><trkpt lat="46.2854536" lon="11.4792862"><ele>855.0</ele><time>2026-04-26T13:40:58.028Z</time></trkpt><trkpt lat="46.2854693" lon="11.4794063"><ele>855.0</ele><time>2026-04-26T13:40:59.028Z</time></trkpt><trkpt lat="46.2854891" lon="11.4795059"><ele>855.0</ele><time>2026-04-26T13:41:00.028Z</time></trkpt><trkpt lat="46.2855122" lon="11.4796041"><ele>855.0</ele><time>2026-04-26T13:41:01.028Z</time></trkpt><trkpt lat="46.2855333" lon="11.4797348"><ele>855.0</ele><time>2026-04-26T13:41:02.028Z</time></trkpt><trkpt lat="46.2855599" lon="11.4798951"><ele>855.3333333333333</ele><time>2026-04-26T13:41:03.028Z</time></trkpt><trkpt lat="46.2855887" lon="11.4800879"><ele>855.6666666666666</ele><time>2026-04-26T13:41:04.028Z</time></trkpt><trkpt lat="46.2856132" lon="11.4803085"><ele>856.0</ele><time>2026-04-26T13:41:05.028Z</time></trkpt><trkpt lat="46.285645" lon="11.4805455"><ele>857.3333333333333</ele><time>2026-04-26T13:41:06.028Z</time></trkpt><trkpt lat="46.285678" lon="11.4807966"><ele>858.6666666666667</ele><time>2026-04-26T13:41:07.028Z</time></trkpt><trkpt lat="46.2857113" lon="11.4810678"><ele>860.0</ele><time>2026-04-26T13:41:08.028Z</time></trkpt><trkpt lat="46.2857482" lon="11.4813534"><ele>860.0</ele><time>2026-04-26T13:41:09.028Z</time></trkpt><trkpt lat="46.2857837" lon="11.4816474"><ele>860.0</ele><time>2026-04-26T13:41:10.028Z</time></trkpt><trkpt lat="46.2858213" lon="11.4819528"><ele>860.0</ele><time>2026-04-26T13:41:11.028Z</time></trkpt><trkpt lat="46.2858581" lon="11.4822617"><ele>859.5</ele><time>2026-04-26T13:41:12.028Z</time></trkpt><trkpt lat="46.2858921" lon="11.4825862"><ele>859.0</ele><time>2026-04-26T13:41:13.028Z</time></trkpt><trkpt lat="46.2859323" lon="11.4829219"><ele>859.5</ele><time>2026-04-26T13:41:14.028Z</time></trkpt><trkpt lat="46.2859761" lon="11.4832577"><ele>860.0</ele><time>2026-04-26T13:41:15.028Z</time></trkpt><trkpt lat="46.2860222" lon="11.4835989"><ele>861.0</ele><time>2026-04-26T13:41:16.028Z</time></trkpt><trkpt lat="46.2860715" lon="11.4839455"><ele>862.0</ele><time>2026-04-26T13:41:17.028Z</time></trkpt><trkpt lat="46.2861171" lon="11.4842986"><ele>861.0</ele><time>2026-04-26T13:41:18.028Z</time></trkpt><trkpt lat="46.2861582" lon="11.4846645"><ele>860.0</ele><time>2026-04-26T13:41:19.028Z</time></trkpt><trkpt lat="46.2861992" lon="11.485025"><ele>860.0</ele><time>2026-04-26T13:41:20.028Z</time></trkpt><trkpt lat="46.286235" lon="11.4853723"><ele>860.0</ele><time>2026-04-26T13:41:21.028Z</time></trkpt><trkpt lat="46.2862732" lon="11.485703"><ele>860.0</ele><time>2026-04-26T13:41:22.028Z</time></trkpt><trkpt lat="46.2863076" lon="11.4860224"><ele>860.0</ele><time>2026-04-26T13:41:23.028Z</time></trkpt><trkpt lat="46.286338" lon="11.4863349"><ele>860.0</ele><time>2026-04-26T13:41:24.028Z</time></trkpt><trkpt lat="46.2863663" lon="11.4866349"><ele>860.0</ele><time>2026-04-26T13:41:25.028Z</time></trkpt><trkpt lat="46.286392" lon="11.4869132"><ele>860.0</ele><time>2026-04-26T13:41:26.028Z</time></trkpt><trkpt lat="46.2864045" lon="11.4871843"><ele>860.0</ele><time>2026-04-26T13:41:27.028Z</time></trkpt><trkpt lat="46.2864116" lon="11.4874465"><ele>861.0</ele><time>2026-04-26T13:41:28.028Z</time></trkpt><trkpt lat="46.2864154" lon="11.4876952"><ele>862.0</ele><time>2026-04-26T13:41:29.028Z</time></trkpt><trkpt lat="46.2864141" lon="11.4879371"><ele>863.0</ele><time>2026-04-26T13:41:30.028Z</time></trkpt><trkpt lat="46.2864089" lon="11.4881704"><ele>863.3333333333334</ele><time>2026-04-26T13:41:31.028Z</time></trkpt><trkpt lat="46.2864048" lon="11.4884062"><ele>863.6666666666667</ele><time>2026-04-26T13:41:32.028Z</time></trkpt><trkpt lat="46.2863944" lon="11.4886415"><ele>864.0</ele><time>2026-04-26T13:41:33.028Z</time></trkpt><trkpt lat="46.2863754" lon="11.4888788"><ele>863.0</ele><time>2026-04-26T13:41:34.028Z</time></trkpt><trkpt lat="46.2863578" lon="11.4891127"><ele>862.0</ele><time>2026-04-26T13:41:35.028Z</time></trkpt><trkpt lat="46.2863378" lon="11.4893505"><ele>861.0</ele><time>2026-04-26T13:41:36.028Z</time></trkpt><trkpt lat="46.2863119" lon="11.489584"><ele>862.3333333333333</ele><time>2026-04-26T13:41:37.029Z</time></trkpt><trkpt lat="46.2862863" lon="11.4898178"><ele>863.6666666666666</ele><time>2026-04-26T13:41:38.028Z</time></trkpt><trkpt lat="46.2862571" lon="11.4900453"><ele>865.0</ele><time>2026-04-26T13:41:39.028Z</time></trkpt><trkpt lat="46.2862293" lon="11.4902776"><ele>866.0</ele><time>2026-04-26T13:41:40.028Z</time></trkpt><trkpt lat="46.2861974" lon="11.4905072"><ele>867.0</ele><time>2026-04-26T13:41:41.029Z</time></trkpt><trkpt lat="46.286166" lon="11.4907419"><ele>868.0</ele><time>2026-04-26T13:41:42.028Z</time></trkpt><trkpt lat="46.2861371" lon="11.4909796"><ele>868.0</ele><time>2026-04-26T13:41:43.028Z</time></trkpt><trkpt lat="46.2861124" lon="11.4912208"><ele>868.0</ele><time>2026-04-26T13:41:44.029Z</time></trkpt><trkpt lat="46.2860815" lon="11.4914588"><ele>868.0</ele><time>2026-04-26T13:41:45.028Z</time></trkpt><trkpt lat="46.286053" lon="11.4916934"><ele>869.3333333333333</ele><time>2026-04-26T13:41:46.028Z</time></trkpt><trkpt lat="46.286028" lon="11.49193"><ele>870.6666666666667</ele><time>2026-04-26T13:41:47.028Z</time></trkpt><trkpt lat="46.2860037" lon="11.4921698"><ele>872.0</ele><time>2026-04-26T13:41:48.028Z</time></trkpt><trkpt lat="46.2859658" lon="11.4946638"><ele>872.0</ele><time>2026-04-26T13:41:58.028Z</time></trkpt><trkpt lat="46.2859655" lon="11.4948987"><ele>872.0</ele><time>2026-04-26T13:41:59.028Z</time></trkpt><trkpt lat="46.2859626" lon="11.4951397"><ele>872.0</ele><time>2026-04-26T13:42:00.028Z</time></trkpt><trkpt lat="46.2859828" lon="11.4953713"><ele>871.6666666666667</ele><time>2026-04-26T13:42:01.028Z</time></trkpt><trkpt lat="46.2859964" lon="11.4956042"><ele>871.3333333333333</ele><time>2026-04-26T13:42:02.028Z</time></trkpt><trkpt lat="46.2860205" lon="11.4958359"><ele>871.0</ele><time>2026-04-26T13:42:03.028Z</time></trkpt><trkpt lat="46.2860352" lon="11.4960468"><ele>870.6666666666666</ele><time>2026-04-26T13:42:04.028Z</time></trkpt><trkpt lat="46.2860594" lon="11.4962808"><ele>870.3333333333333</ele><time>2026-04-26T13:42:05.028Z</time></trkpt><trkpt lat="46.2860852" lon="11.4965253"><ele>870.0</ele><time>2026-04-26T13:42:06.028Z</time></trkpt><trkpt lat="46.286117" lon="11.496771"><ele>870.0</ele><time>2026-04-26T13:42:07.028Z</time></trkpt><trkpt lat="46.2861488" lon="11.4970171"><ele>870.0</ele><time>2026-04-26T13:42:08.028Z</time></trkpt><trkpt lat="46.2861872" lon="11.4972682"><ele>870.0</ele><time>2026-04-26T13:42:09.028Z</time></trkpt><trkpt lat="46.2862391" lon="11.4975401"><ele>870.0</ele><time>2026-04-26T13:42:10.028Z</time></trkpt><trkpt lat="46.2862954" lon="11.4978344"><ele>870.0</ele><time>2026-04-26T13:42:11.028Z</time></trkpt><trkpt lat="46.286349" lon="11.4981442"><ele>870.0</ele><time>2026-04-26T13:42:12.028Z</time></trkpt><trkpt lat="46.2864106" lon="11.4984801"><ele>873.5</ele><time>2026-04-26T13:42:13.028Z</time></trkpt><trkpt lat="46.286474" lon="11.4988356"><ele>877.0</ele><time>2026-04-26T13:42:14.028Z</time></trkpt><trkpt lat="46.2865464" lon="11.499218"><ele>876.0</ele><time>2026-04-26T13:42:15.028Z</time></trkpt><trkpt lat="46.2866107" lon="11.4996029"><ele>875.0</ele><time>2026-04-26T13:42:16.028Z</time></trkpt><trkpt lat="46.2866765" lon="11.4999954"><ele>875.0</ele><time>2026-04-26T13:42:17.028Z</time></trkpt><trkpt lat="46.2867354" lon="11.5003927"><ele>875.0</ele><time>2026-04-26T13:42:18.028Z</time></trkpt><trkpt lat="46.2867852" lon="11.5007767"><ele>875.5</ele><time>2026-04-26T13:42:19.029Z</time></trkpt><trkpt lat="46.2868171" lon="11.5011448"><ele>876.0</ele><time>2026-04-26T13:42:20.028Z</time></trkpt><trkpt lat="46.286841" lon="11.5015121"><ele>876.5</ele><time>2026-04-26T13:42:21.028Z</time></trkpt><trkpt lat="46.2868502" lon="11.5018761"><ele>877.0</ele><time>2026-04-26T13:42:22.028Z</time></trkpt><trkpt lat="46.2868437" lon="11.5022286"><ele>879.5</ele><time>2026-04-26T13:42:23.028Z</time></trkpt><trkpt lat="46.2868233" lon="11.5025856"><ele>882.0</ele><time>2026-04-26T13:42:24.028Z</time></trkpt><trkpt lat="46.2867881" lon="11.5029302"><ele>882.5</ele><time>2026-04-26T13:42:25.028Z</time></trkpt><trkpt lat="46.2867385" lon="11.5032727"><ele>883.0</ele><time>2026-04-26T13:42:26.028Z</time></trkpt><trkpt lat="46.2866809" lon="11.503609"><ele>887.5</ele><time>2026-04-26T13:42:27.028Z</time></trkpt><trkpt lat="46.2866041" lon="11.5039427"><ele>892.0</ele><time>2026-04-26T13:42:28.028Z</time></trkpt><trkpt lat="46.2865177" lon="11.5042669"><ele>884.5</ele><time>2026-04-26T13:42:29.028Z</time></trkpt><trkpt lat="46.2864226" lon="11.5045931"><ele>877.0</ele><time>2026-04-26T13:42:30.028Z</time></trkpt><trkpt lat="46.2863114" lon="11.50491"><ele>877.0</ele><time>2026-04-26T13:42:31.028Z</time></trkpt><trkpt lat="46.2861836" lon="11.5052205"><ele>877.0</ele><time>2026-04-26T13:42:32.028Z</time></trkpt><trkpt lat="46.2860463" lon="11.5055202"><ele>880.0</ele><time>2026-04-26T13:42:33.028Z</time></trkpt><trkpt lat="46.2858873" lon="11.5058094"><ele>883.0</ele><time>2026-04-26T13:42:34.028Z</time></trkpt><trkpt lat="46.2857201" lon="11.5060959"><ele>883.0</ele><time>2026-04-26T13:42:35.028Z</time></trkpt><trkpt lat="46.2855455" lon="11.5063639"><ele>883.0</ele><time>2026-04-26T13:42:36.028Z</time></trkpt><trkpt lat="46.2853714" lon="11.5066213"><ele>883.0</ele><time>2026-04-26T13:42:37.028Z</time></trkpt><trkpt lat="46.2851987" lon="11.5068779"><ele>883.0</ele><time>2026-04-26T13:42:38.028Z</time></trkpt><trkpt lat="46.2850279" lon="11.507131"><ele>883.0</ele><time>2026-04-26T13:42:39.028Z</time></trkpt><trkpt lat="46.2848601" lon="11.5074"><ele>883.0</ele><time>2026-04-26T13:42:40.028Z</time></trkpt><trkpt lat="46.2847153" lon="11.5076853"><ele>883.0</ele><time>2026-04-26T13:42:41.028Z</time></trkpt><trkpt lat="46.2845885" lon="11.5079936"><ele>883.0</ele><time>2026-04-26T13:42:42.028Z</time></trkpt><trkpt lat="46.284494" lon="11.5083153"><ele>883.0</ele><time>2026-04-26T13:42:43.028Z</time></trkpt><trkpt lat="46.2844183" lon="11.5086595"><ele>883.0</ele><time>2026-04-26T13:42:44.028Z</time></trkpt><trkpt lat="46.2843628" lon="11.509012"><ele>884.0</ele><time>2026-04-26T13:42:45.028Z</time></trkpt><trkpt lat="46.2843189" lon="11.5093648"><ele>885.0</ele><time>2026-04-26T13:42:46.028Z</time></trkpt><trkpt lat="46.2842932" lon="11.5097216"><ele>885.5</ele><time>2026-04-26T13:42:47.028Z</time></trkpt><trkpt lat="46.2842741" lon="11.5100812"><ele>886.0</ele><time>2026-04-26T13:42:48.028Z</time></trkpt><trkpt lat="46.2842461" lon="11.5104298"><ele>883.5</ele><time>2026-04-26T13:42:49.028Z</time></trkpt><trkpt lat="46.2842193" lon="11.5107776"><ele>881.0</ele><time>2026-04-26T13:42:50.028Z</time></trkpt><trkpt lat="46.2841989" lon="11.5111241"><ele>880.5</ele><time>2026-04-26T13:42:51.028Z</time></trkpt><trkpt lat="46.2841895" lon="11.5114629"><ele>880.0</ele><time>2026-04-26T13:42:52.028Z</time></trkpt><trkpt lat="46.2841965" lon="11.511798"><ele>881.0</ele><time>2026-04-26T13:42:53.028Z</time></trkpt><trkpt lat="46.2842126" lon="11.5121387"><ele>882.0</ele><time>2026-04-26T13:42:54.028Z</time></trkpt><trkpt lat="46.2842413" lon="11.5124769"><ele>882.0</ele><time>2026-04-26T13:42:55.028Z</time></trkpt><trkpt lat="46.2842696" lon="11.512809"><ele>882.0</ele><time>2026-04-26T13:42:56.028Z</time></trkpt><trkpt lat="46.2842997" lon="11.5131432"><ele>882.5</ele><time>2026-04-26T13:42:57.028Z</time></trkpt><trkpt lat="46.2843329" lon="11.5134715"><ele>883.0</ele><time>2026-04-26T13:42:58.028Z</time></trkpt><trkpt lat="46.2843617" lon="11.5138071"><ele>883.0</ele><time>2026-04-26T13:42:59.028Z</time></trkpt><trkpt lat="46.2843874" lon="11.5141326"><ele>883.0</ele><time>2026-04-26T13:43:00.028Z</time></trkpt><trkpt lat="46.2844232" lon="11.5144626"><ele>883.0</ele><time>2026-04-26T13:43:01.028Z</time></trkpt><trkpt lat="46.2844588" lon="11.5147979"><ele>883.0</ele><time>2026-04-26T13:43:02.029Z</time></trkpt><trkpt lat="46.2844943" lon="11.5151315"><ele>883.5</ele><time>2026-04-26T13:43:03.028Z</time></trkpt><trkpt lat="46.2845264" lon="11.5154601"><ele>884.0</ele><time>2026-04-26T13:43:04.028Z</time></trkpt><trkpt lat="46.2845538" lon="11.5157927"><ele>884.0</ele><time>2026-04-26T13:43:05.028Z</time></trkpt><trkpt lat="46.28458" lon="11.5161244"><ele>884.0</ele><time>2026-04-26T13:43:06.029Z</time></trkpt><trkpt lat="46.2846088" lon="11.5164511"><ele>885.0</ele><time>2026-04-26T13:43:07.028Z</time></trkpt><trkpt lat="46.2846413" lon="11.5167799"><ele>886.0</ele><time>2026-04-26T13:43:08.029Z</time></trkpt><trkpt lat="46.2846731" lon="11.517112"><ele>887.0</ele><time>2026-04-26T13:43:09.028Z</time></trkpt><trkpt lat="46.2847075" lon="11.517446"><ele>888.0</ele><time>2026-04-26T13:43:10.028Z</time></trkpt><trkpt lat="46.2847401" lon="11.517774"><ele>890.0</ele><time>2026-04-26T13:43:11.028Z</time></trkpt><trkpt lat="46.2847675" lon="11.5181113"><ele>892.0</ele><time>2026-04-26T13:43:12.028Z</time></trkpt><trkpt lat="46.2847994" lon="11.5184427"><ele>894.0</ele><time>2026-04-26T13:43:13.029Z</time></trkpt><trkpt lat="46.2848294" lon="11.5187796"><ele>896.0</ele><time>2026-04-26T13:43:14.028Z</time></trkpt><trkpt lat="46.2848571" lon="11.5191128"><ele>896.0</ele><time>2026-04-26T13:43:15.028Z</time></trkpt><trkpt lat="46.2848856" lon="11.5194431"><ele>896.0</ele><time>2026-04-26T13:43:16.028Z</time></trkpt><trkpt lat="46.2849176" lon="11.5197713"><ele>896.3333333333334</ele><time>2026-04-26T13:43:17.028Z</time></trkpt><trkpt lat="46.2849466" lon="11.5200935"><ele>896.6666666666667</ele><time>2026-04-26T13:43:18.028Z</time></trkpt><trkpt lat="46.28498" lon="11.5204118"><ele>897.0</ele><time>2026-04-26T13:43:19.028Z</time></trkpt><trkpt lat="46.2850178" lon="11.5207142"><ele>897.0</ele><time>2026-04-26T13:43:20.028Z</time></trkpt><trkpt lat="46.2850513" lon="11.5209986"><ele>897.0</ele><time>2026-04-26T13:43:21.028Z</time></trkpt><trkpt lat="46.2850794" lon="11.5212767"><ele>897.0</ele><time>2026-04-26T13:43:22.028Z</time></trkpt><trkpt lat="46.2851058" lon="11.5215423"><ele>896.6666666666667</ele><time>2026-04-26T13:43:23.028Z</time></trkpt><trkpt lat="46.2851322" lon="11.5217953"><ele>896.3333333333334</ele><time>2026-04-26T13:43:24.028Z</time></trkpt><trkpt lat="46.2851438" lon="11.5220324"><ele>896.0</ele><time>2026-04-26T13:43:25.028Z</time></trkpt><trkpt lat="46.2851597" lon="11.52226"><ele>895.75</ele><time>2026-04-26T13:43:26.028Z</time></trkpt><trkpt lat="46.2851687" lon="11.5224763"><ele>895.5</ele><time>2026-04-26T13:43:27.028Z</time></trkpt><trkpt lat="46.2851703" lon="11.5226766"><ele>895.25</ele><time>2026-04-26T13:43:28.028Z</time></trkpt><trkpt lat="46.2851657" lon="11.5228778"><ele>895.0</ele><time>2026-04-26T13:43:29.028Z</time></trkpt><trkpt lat="46.2851449" lon="11.5230791"><ele>895.0</ele><time>2026-04-26T13:43:30.028Z</time></trkpt><trkpt lat="46.2851038" lon="11.5232718"><ele>895.0</ele><time>2026-04-26T13:43:31.028Z</time></trkpt><trkpt lat="46.2850576" lon="11.5234696"><ele>895.0</ele><time>2026-04-26T13:43:32.028Z</time></trkpt><trkpt lat="46.2850165" lon="11.5236789"><ele>895.0</ele><time>2026-04-26T13:43:33.029Z</time></trkpt><trkpt lat="46.2849907" lon="11.5239063"><ele>895.6666666666666</ele><time>2026-04-26T13:43:34.028Z</time></trkpt><trkpt lat="46.2849617" lon="11.5241514"><ele>896.3333333333333</ele><time>2026-04-26T13:43:35.028Z</time></trkpt><trkpt lat="46.2849189" lon="11.5243998"><ele>897.0</ele><time>2026-04-26T13:43:36.029Z</time></trkpt><trkpt lat="46.2848564" lon="11.5246616"><ele>897.0</ele><time>2026-04-26T13:43:37.028Z</time></trkpt><trkpt lat="46.2847733" lon="11.5249152"><ele>897.0</ele><time>2026-04-26T13:43:38.028Z</time></trkpt><trkpt lat="46.2846881" lon="11.5251805"><ele>897.0</ele><time>2026-04-26T13:43:39.028Z</time></trkpt><trkpt lat="46.284593" lon="11.5254401"><ele>897.0</ele><time>2026-04-26T13:43:40.028Z</time></trkpt><trkpt lat="46.2844951" lon="11.5257038"><ele>897.0</ele><time>2026-04-26T13:43:41.028Z</time></trkpt><trkpt lat="46.2844008" lon="11.52597"><ele>897.0</ele><time>2026-04-26T13:43:42.028Z</time></trkpt><trkpt lat="46.284307" lon="11.526236"><ele>897.3333333333333</ele><time>2026-04-26T13:43:43.028Z</time></trkpt><trkpt lat="46.2842106" lon="11.5264959"><ele>897.6666666666666</ele><time>2026-04-26T13:43:44.028Z</time></trkpt><trkpt lat="46.2841148" lon="11.5267506"><ele>898.0</ele><time>2026-04-26T13:43:45.028Z</time></trkpt><trkpt lat="46.2840193" lon="11.5270076"><ele>898.0</ele><time>2026-04-26T13:43:46.028Z</time></trkpt><trkpt lat="46.2839205" lon="11.5272656"><ele>898.0</ele><time>2026-04-26T13:43:47.028Z</time></trkpt><trkpt lat="46.2838149" lon="11.527512"><ele>898.0</ele><time>2026-04-26T13:43:48.028Z</time></trkpt><trkpt lat="46.2837101" lon="11.527755"><ele>898.3333333333333</ele><time>2026-04-26T13:43:49.028Z</time></trkpt><trkpt lat="46.2836071" lon="11.5280011"><ele>898.6666666666667</ele><time>2026-04-26T13:43:50.028Z</time></trkpt><trkpt lat="46.2835138" lon="11.5282527"><ele>899.0</ele><time>2026-04-26T13:43:51.028Z</time></trkpt><trkpt lat="46.2834312" lon="11.528513"><ele>900.3333333333334</ele><time>2026-04-26T13:43:52.028Z</time></trkpt><trkpt lat="46.2833611" lon="11.5287834"><ele>901.6666666666667</ele><time>2026-04-26T13:43:53.029Z</time></trkpt><trkpt lat="46.283311" lon="11.5290642"><ele>903.0</ele><time>2026-04-26T13:43:54.028Z</time></trkpt><trkpt lat="46.2832719" lon="11.5293462"><ele>904.0</ele><time>2026-04-26T13:43:55.028Z</time></trkpt><trkpt lat="46.2832451" lon="11.5296391"><ele>905.0</ele><time>2026-04-26T13:43:56.028Z</time></trkpt><trkpt lat="46.2832257" lon="11.5299379"><ele>906.0</ele><time>2026-04-26T13:43:57.028Z</time></trkpt><trkpt lat="46.2832099" lon="11.5302378"><ele>906.6666666666667</ele><time>2026-04-26T13:43:58.028Z</time></trkpt><trkpt lat="46.2831962" lon="11.5305423"><ele>907.3333333333334</ele><time>2026-04-26T13:43:59.028Z</time></trkpt><trkpt lat="46.2831792" lon="11.5308434"><ele>908.0</ele><time>2026-04-26T13:44:00.028Z</time></trkpt><trkpt lat="46.2831549" lon="11.5311527"><ele>908.3333333333334</ele><time>2026-04-26T13:44:01.028Z</time></trkpt><trkpt lat="46.2831132" lon="11.531461"><ele>908.6666666666667</ele><time>2026-04-26T13:44:02.028Z</time></trkpt><trkpt lat="46.2830549" lon="11.5317646"><ele>909.0</ele><time>2026-04-26T13:44:03.028Z</time></trkpt><trkpt lat="46.2829776" lon="11.5320619"><ele>907.3333333333333</ele><time>2026-04-26T13:44:04.028Z</time></trkpt><trkpt lat="46.2828916" lon="11.532354"><ele>905.6666666666666</ele><time>2026-04-26T13:44:05.028Z</time></trkpt><trkpt lat="46.2828054" lon="11.532645"><ele>904.0</ele><time>2026-04-26T13:44:06.028Z</time></trkpt><trkpt lat="46.2827222" lon="11.5329453"><ele>903.5</ele><time>2026-04-26T13:44:07.028Z</time></trkpt><trkpt lat="46.2826536" lon="11.533255"><ele>903.0</ele><time>2026-04-26T13:44:08.028Z</time></trkpt><trkpt lat="46.2825896" lon="11.5335686"><ele>905.5</ele><time>2026-04-26T13:44:09.028Z</time></trkpt><trkpt lat="46.2825258" lon="11.5338851"><ele>908.0</ele><time>2026-04-26T13:44:10.028Z</time></trkpt><trkpt lat="46.2824653" lon="11.5342064"><ele>908.0</ele><time>2026-04-26T13:44:11.028Z</time></trkpt><trkpt lat="46.282407" lon="11.534525"><ele>908.0</ele><time>2026-04-26T13:44:12.028Z</time></trkpt><trkpt lat="46.2823457" lon="11.5348389"><ele>909.0</ele><time>2026-04-26T13:44:13.029Z</time></trkpt><trkpt lat="46.2822824" lon="11.5351546"><ele>910.0</ele><time>2026-04-26T13:44:14.028Z</time></trkpt><trkpt lat="46.2822215" lon="11.5354678"><ele>909.0</ele><time>2026-04-26T13:44:15.028Z</time></trkpt><trkpt lat="46.2821636" lon="11.5357826"><ele>908.0</ele><time>2026-04-26T13:44:16.028Z</time></trkpt><trkpt lat="46.2821114" lon="11.5360972"><ele>907.0</ele><time>2026-04-26T13:44:17.028Z</time></trkpt><trkpt lat="46.2820663" lon="11.5364126"><ele>907.0</ele><time>2026-04-26T13:44:18.028Z</time></trkpt><trkpt lat="46.2820219" lon="11.5367268"><ele>907.0</ele><time>2026-04-26T13:44:19.028Z</time></trkpt><trkpt lat="46.2819784" lon="11.537041"><ele>907.0</ele><time>2026-04-26T13:44:20.028Z</time></trkpt><trkpt lat="46.2819405" lon="11.5373575"><ele>907.6666666666666</ele><time>2026-04-26T13:44:21.028Z</time></trkpt><trkpt lat="46.2819028" lon="11.5376691"><ele>908.3333333333333</ele><time>2026-04-26T13:44:22.028Z</time></trkpt><trkpt lat="46.2818683" lon="11.5379848"><ele>909.0</ele><time>2026-04-26T13:44:23.028Z</time></trkpt><trkpt lat="46.2818383" lon="11.5382953"><ele>909.0</ele><time>2026-04-26T13:44:24.028Z</time></trkpt><trkpt lat="46.2818253" lon="11.5386116"><ele>909.0</ele><time>2026-04-26T13:44:25.028Z</time></trkpt><trkpt lat="46.2818245" lon="11.5389267"><ele>909.0</ele><time>2026-04-26T13:44:26.028Z</time></trkpt><trkpt lat="46.281838" lon="11.5392396"><ele>912.0</ele><time>2026-04-26T13:44:27.028Z</time></trkpt><trkpt lat="46.281862" lon="11.5395547"><ele>915.0</ele><time>2026-04-26T13:44:28.028Z</time></trkpt><trkpt lat="46.2818963" lon="11.5398584"><ele>918.0</ele><time>2026-04-26T13:44:29.028Z</time></trkpt><trkpt lat="46.2819322" lon="11.540163"><ele>921.3333333333333</ele><time>2026-04-26T13:44:30.028Z</time></trkpt><trkpt lat="46.2819797" lon="11.5404645"><ele>924.6666666666666</ele><time>2026-04-26T13:44:31.029Z</time></trkpt><trkpt lat="46.2820223" lon="11.5407606"><ele>928.0</ele><time>2026-04-26T13:44:32.028Z</time></trkpt><trkpt lat="46.2820625" lon="11.5410552"><ele>929.6666666666666</ele><time>2026-04-26T13:44:33.028Z</time></trkpt><trkpt lat="46.2820918" lon="11.5413483"><ele>931.3333333333333</ele><time>2026-04-26T13:44:34.028Z</time></trkpt><trkpt lat="46.2821092" lon="11.5416399"><ele>933.0</ele><time>2026-04-26T13:44:35.028Z</time></trkpt><trkpt lat="46.2821094" lon="11.5419265"><ele>932.0</ele><time>2026-04-26T13:44:36.028Z</time></trkpt><trkpt lat="46.2820936" lon="11.5422114"><ele>931.0</ele><time>2026-04-26T13:44:37.029Z</time></trkpt><trkpt lat="46.282064" lon="11.5424916"><ele>930.0</ele><time>2026-04-26T13:44:38.028Z</time></trkpt><trkpt lat="46.2820188" lon="11.5427644"><ele>931.6666666666667</ele><time>2026-04-26T13:44:39.028Z</time></trkpt><trkpt lat="46.2819724" lon="11.5430437"><ele>933.3333333333334</ele><time>2026-04-26T13:44:40.029Z</time></trkpt><trkpt lat="46.2819271" lon="11.5433152"><ele>935.0</ele><time>2026-04-26T13:44:41.028Z</time></trkpt><trkpt lat="46.2812079" lon="11.5472563"><ele>935.0</ele><time>2026-04-26T13:44:55.027Z</time></trkpt><trkpt lat="46.2811684" lon="11.5475208"><ele>935.0</ele><time>2026-04-26T13:44:56.027Z</time></trkpt><trkpt lat="46.2811586" lon="11.547813"><ele>935.0</ele><time>2026-04-26T13:44:57.027Z</time></trkpt><trkpt lat="46.2811742" lon="11.5480693"><ele>934.0</ele><time>2026-04-26T13:44:58.027Z</time></trkpt><trkpt lat="46.2811817" lon="11.5483199"><ele>933.0</ele><time>2026-04-26T13:44:59.027Z</time></trkpt><trkpt lat="46.2812055" lon="11.5485854"><ele>932.0</ele><time>2026-04-26T13:45:00.027Z</time></trkpt><trkpt lat="46.2812675" lon="11.5488578"><ele>932.0</ele><time>2026-04-26T13:45:01.027Z</time></trkpt><trkpt lat="46.2813255" lon="11.5491122"><ele>932.0</ele><time>2026-04-26T13:45:02.027Z</time></trkpt><trkpt lat="46.2813881" lon="11.5493404"><ele>932.0</ele><time>2026-04-26T13:45:03.027Z</time></trkpt><trkpt lat="46.2814604" lon="11.5495686"><ele>930.6666666666667</ele><time>2026-04-26T13:45:04.027Z</time></trkpt><trkpt lat="46.2815317" lon="11.5497851"><ele>929.3333333333333</ele><time>2026-04-26T13:45:05.027Z</time></trkpt><trkpt lat="46.2816185" lon="11.5499936"><ele>928.0</ele><time>2026-04-26T13:45:06.027Z</time></trkpt><trkpt lat="46.28171" lon="11.5501951"><ele>928.3333333333333</ele><time>2026-04-26T13:45:07.027Z</time></trkpt><trkpt lat="46.2818133" lon="11.5503913"><ele>928.6666666666667</ele><time>2026-04-26T13:45:08.027Z</time></trkpt><trkpt lat="46.2819235" lon="11.5505871"><ele>929.0</ele><time>2026-04-26T13:45:09.027Z</time></trkpt><trkpt lat="46.2820394" lon="11.5507753"><ele>929.0</ele><time>2026-04-26T13:45:10.027Z</time></trkpt><trkpt lat="46.2821568" lon="11.5509628"><ele>929.0</ele><time>2026-04-26T13:45:11.027Z</time></trkpt><trkpt lat="46.282276" lon="11.5511483"><ele>929.0</ele><time>2026-04-26T13:45:12.027Z</time></trkpt><trkpt lat="46.2823923" lon="11.5513282"><ele>929.6666666666667</ele><time>2026-04-26T13:45:13.027Z</time></trkpt><trkpt lat="46.2825083" lon="11.5515077"><ele>930.3333333333333</ele><time>2026-04-26T13:45:14.027Z</time></trkpt><trkpt lat="46.28262" lon="11.5516865"><ele>931.0</ele><time>2026-04-26T13:45:15.027Z</time></trkpt><trkpt lat="46.2827367" lon="11.5518566"><ele>931.0</ele><time>2026-04-26T13:45:16.027Z</time></trkpt><trkpt lat="46.2828598" lon="11.5520246"><ele>931.0</ele><time>2026-04-26T13:45:17.027Z</time></trkpt><trkpt lat="46.282991" lon="11.5521811"><ele>931.0</ele><time>2026-04-26T13:45:18.027Z</time></trkpt><trkpt lat="46.2831325" lon="11.5523225"><ele>931.6666666666666</ele><time>2026-04-26T13:45:19.027Z</time></trkpt><trkpt lat="46.2832806" lon="11.5524587"><ele>932.3333333333333</ele><time>2026-04-26T13:45:20.027Z</time></trkpt><trkpt lat="46.2834352" lon="11.5525877"><ele>933.0</ele><time>2026-04-26T13:45:21.027Z</time></trkpt><trkpt lat="46.2835887" lon="11.5527144"><ele>933.0</ele><time>2026-04-26T13:45:22.027Z</time></trkpt><trkpt lat="46.2837417" lon="11.5528521"><ele>933.0</ele><time>2026-04-26T13:45:23.027Z</time></trkpt><trkpt lat="46.2838921" lon="11.5530029"><ele>933.0</ele><time>2026-04-26T13:45:24.027Z</time></trkpt><trkpt lat="46.2840369" lon="11.5531599"><ele>932.3333333333333</ele><time>2026-04-26T13:45:25.027Z</time></trkpt><trkpt lat="46.2841771" lon="11.5533332"><ele>931.6666666666666</ele><time>2026-04-26T13:45:26.027Z</time></trkpt><trkpt lat="46.2843148" lon="11.5535172"><ele>931.0</ele><time>2026-04-26T13:45:27.027Z</time></trkpt><trkpt lat="46.2844491" lon="11.5537038"><ele>931.3333333333333</ele><time>2026-04-26T13:45:28.027Z</time></trkpt><trkpt lat="46.2845772" lon="11.5539071"><ele>931.6666666666667</ele><time>2026-04-26T13:45:29.027Z</time></trkpt><trkpt lat="46.2847011" lon="11.554116"><ele>932.0</ele><time>2026-04-26T13:45:30.027Z</time></trkpt><trkpt lat="46.2848175" lon="11.5543359"><ele>935.6666666666667</ele><time>2026-04-26T13:45:31.028Z</time></trkpt><trkpt lat="46.2849238" lon="11.5545728"><ele>939.3333333333333</ele><time>2026-04-26T13:45:32.027Z</time></trkpt><trkpt lat="46.285021" lon="11.554819"><ele>943.0</ele><time>2026-04-26T13:45:33.027Z</time></trkpt><trkpt lat="46.2851154" lon="11.5550632"><ele>943.0</ele><time>2026-04-26T13:45:34.027Z</time></trkpt><trkpt lat="46.2852003" lon="11.5553133"><ele>943.0</ele><time>2026-04-26T13:45:35.027Z</time></trkpt><trkpt lat="46.2852764" lon="11.5555645"><ele>943.0</ele><time>2026-04-26T13:45:36.027Z</time></trkpt><trkpt lat="46.2853483" lon="11.5558203"><ele>941.3333333333333</ele><time>2026-04-26T13:45:37.027Z</time></trkpt><trkpt lat="46.285421" lon="11.5560775"><ele>939.6666666666667</ele><time>2026-04-26T13:45:38.027Z</time></trkpt><trkpt lat="46.2854985" lon="11.5563311"><ele>938.0</ele><time>2026-04-26T13:45:39.027Z</time></trkpt><trkpt lat="46.2855772" lon="11.5565845"><ele>941.3333333333334</ele><time>2026-04-26T13:45:40.027Z</time></trkpt><trkpt lat="46.285656" lon="11.556829"><ele>944.6666666666667</ele><time>2026-04-26T13:45:41.027Z</time></trkpt><trkpt lat="46.2857443" lon="11.5570719"><ele>948.0</ele><time>2026-04-26T13:45:42.027Z</time></trkpt><trkpt lat="46.2858406" lon="11.5573089"><ele>1001.0</ele><time>2026-04-26T13:45:43.027Z</time></trkpt><trkpt lat="46.2956144" lon="11.5804638"><ele>987.5</ele><time>2026-04-26T13:47:06.669Z</time></trkpt><trkpt lat="46.2954176" lon="11.5800367"><ele>974.0</ele><time>2026-04-26T13:47:18.027Z</time></trkpt><trkpt lat="46.2954616" lon="11.5802621"><ele>973.6666666666667</ele><time>2026-04-26T13:47:19.027Z</time></trkpt><trkpt lat="46.2955077" lon="11.580485"><ele>973.3333333333333</ele><time>2026-04-26T13:47:20.028Z</time></trkpt><trkpt lat="46.2955593" lon="11.5806947"><ele>973.0</ele><time>2026-04-26T13:47:21.027Z</time></trkpt><trkpt lat="46.2956134" lon="11.5808951"><ele>976.0</ele><time>2026-04-26T13:47:22.027Z</time></trkpt><trkpt lat="46.2956724" lon="11.5810867"><ele>979.0</ele><time>2026-04-26T13:47:23.027Z</time></trkpt><trkpt lat="46.2957298" lon="11.5812792"><ele>982.0</ele><time>2026-04-26T13:47:24.027Z</time></trkpt><trkpt lat="46.2957849" lon="11.5814669"><ele>985.0</ele><time>2026-04-26T13:47:25.028Z</time></trkpt><trkpt lat="46.2958323" lon="11.5816486"><ele>985.0</ele><time>2026-04-26T13:47:26.027Z</time></trkpt><trkpt lat="46.2958784" lon="11.5818232"><ele>985.0</ele><time>2026-04-26T13:47:27.027Z</time></trkpt><trkpt lat="46.2959134" lon="11.5819926"><ele>985.0</ele><time>2026-04-26T13:47:28.028Z</time></trkpt><trkpt lat="46.2959338" lon="11.5821505"><ele>985.0</ele><time>2026-04-26T13:47:29.027Z</time></trkpt><trkpt lat="46.2959326" lon="11.5822785"><ele>983.4999999999999</ele><time>2026-04-26T13:47:30.027Z</time></trkpt><trkpt lat="46.2959211" lon="11.5823815"><ele>982.0</ele><time>2026-04-26T13:47:31.027Z</time></trkpt><trkpt lat="46.2959059" lon="11.5824782"><ele>980.5</ele><time>2026-04-26T13:47:32.027Z</time></trkpt><trkpt lat="46.2958682" lon="11.5825681"><ele>979.0</ele><time>2026-04-26T13:47:33.027Z</time></trkpt><trkpt lat="46.2958208" lon="11.5826603"><ele>977.4999999999999</ele><time>2026-04-26T13:47:34.027Z</time></trkpt><trkpt lat="46.295778" lon="11.5827668"><ele>976.0</ele><time>2026-04-26T13:47:35.027Z</time></trkpt><trkpt lat="46.2957555" lon="11.5828974"><ele>975.0</ele><time>2026-04-26T13:47:36.027Z</time></trkpt><trkpt lat="46.2957568" lon="11.5830203"><ele>973.9999999999999</ele><time>2026-04-26T13:47:37.027Z</time></trkpt><trkpt lat="46.2958011" lon="11.5831563"><ele>972.9999999999999</ele><time>2026-04-26T13:47:38.027Z</time></trkpt><trkpt lat="46.2958657" lon="11.5832964"><ele>972.0</ele><time>2026-04-26T13:47:39.027Z</time></trkpt><trkpt lat="46.2959412" lon="11.5834397"><ele>971.0</ele><time>2026-04-26T13:47:40.027Z</time></trkpt><trkpt lat="46.296029" lon="11.583586"><ele>970.5</ele><time>2026-04-26T13:47:41.028Z</time></trkpt><trkpt lat="46.2961219" lon="11.5837429"><ele>970.0</ele><time>2026-04-26T13:47:42.027Z</time></trkpt><trkpt lat="46.296219" lon="11.5839003"><ele>969.5</ele><time>2026-04-26T13:47:43.027Z</time></trkpt><trkpt lat="46.2963171" lon="11.5840704"><ele>969.0</ele><time>2026-04-26T13:47:44.027Z</time></trkpt><trkpt lat="46.2964174" lon="11.5842404"><ele>970.6666666666667</ele><time>2026-04-26T13:47:45.027Z</time></trkpt><trkpt lat="46.2965228" lon="11.5844063"><ele>972.3333333333334</ele><time>2026-04-26T13:47:46.027Z</time></trkpt><trkpt lat="46.2966284" lon="11.5845722"><ele>974.0</ele><time>2026-04-26T13:47:47.027Z</time></trkpt><trkpt lat="46.2967405" lon="11.5847202"><ele>974.0</ele><time>2026-04-26T13:47:48.028Z</time></trkpt><trkpt lat="46.2968474" lon="11.5848609"><ele>974.0</ele><time>2026-04-26T13:47:49.027Z</time></trkpt><trkpt lat="46.2969575" lon="11.5849907"><ele>974.0</ele><time>2026-04-26T13:47:50.027Z</time></trkpt><trkpt lat="46.2970726" lon="11.5851148"><ele>974.0</ele><time>2026-04-26T13:47:51.027Z</time></trkpt><trkpt lat="46.297187" lon="11.5852293"><ele>973.75</ele><time>2026-04-26T13:47:52.027Z</time></trkpt><trkpt lat="46.2973028" lon="11.5853423"><ele>973.5</ele><time>2026-04-26T13:47:53.027Z</time></trkpt><trkpt lat="46.2974176" lon="11.5854566"><ele>973.25</ele><time>2026-04-26T13:47:54.027Z</time></trkpt><trkpt lat="46.2975347" lon="11.5855658"><ele>973.0</ele><time>2026-04-26T13:47:55.027Z</time></trkpt><trkpt lat="46.2976531" lon="11.5856753"><ele>973.0</ele><time>2026-04-26T13:47:56.027Z</time></trkpt><trkpt lat="46.2977702" lon="11.5857831"><ele>973.0</ele><time>2026-04-26T13:47:57.027Z</time></trkpt><trkpt lat="46.2978897" lon="11.5858937"><ele>973.0</ele><time>2026-04-26T13:47:58.027Z</time></trkpt><trkpt lat="46.298007" lon="11.5860017"><ele>973.0</ele><time>2026-04-26T13:47:59.027Z</time></trkpt><trkpt lat="46.2981227" lon="11.5861127"><ele>975.0</ele><time>2026-04-26T13:48:00.027Z</time></trkpt><trkpt lat="46.2982368" lon="11.5862224"><ele>977.0</ele><time>2026-04-26T13:48:01.027Z</time></trkpt><trkpt lat="46.2983524" lon="11.5863386"><ele>979.0</ele><time>2026-04-26T13:48:02.027Z</time></trkpt><trkpt lat="46.2984684" lon="11.5864586"><ele>981.0</ele><time>2026-04-26T13:48:03.027Z</time></trkpt><trkpt lat="46.2985815" lon="11.5865769"><ele>981.0</ele><time>2026-04-26T13:48:04.027Z</time></trkpt><trkpt lat="46.298686" lon="11.5866993"><ele>981.0</ele><time>2026-04-26T13:48:05.027Z</time></trkpt><trkpt lat="46.2987928" lon="11.5868299"><ele>981.0</ele><time>2026-04-26T13:48:06.027Z</time></trkpt><trkpt lat="46.2988945" lon="11.5869625"><ele>981.0</ele><time>2026-04-26T13:48:07.027Z</time></trkpt><trkpt lat="46.2989955" lon="11.587094"><ele>983.75</ele><time>2026-04-26T13:48:08.027Z</time></trkpt><trkpt lat="46.2990903" lon="11.587229"><ele>986.5</ele><time>2026-04-26T13:48:09.027Z</time></trkpt><trkpt lat="46.2991875" lon="11.5873628"><ele>989.25</ele><time>2026-04-26T13:48:10.027Z</time></trkpt><trkpt lat="46.2992843" lon="11.5874921"><ele>992.0</ele><time>2026-04-26T13:48:11.027Z</time></trkpt><trkpt lat="46.2993841" lon="11.5876231"><ele>992.0</ele><time>2026-04-26T13:48:12.027Z</time></trkpt><trkpt lat="46.2994839" lon="11.5877534"><ele>992.0</ele><time>2026-04-26T13:48:13.027Z</time></trkpt><trkpt lat="46.2995833" lon="11.5878874"><ele>992.0</ele><time>2026-04-26T13:48:14.027Z</time></trkpt><trkpt lat="46.2996795" lon="11.5880178"><ele>992.0</ele><time>2026-04-26T13:48:15.027Z</time></trkpt><trkpt lat="46.2997754" lon="11.5881442"><ele>991.75</ele><time>2026-04-26T13:48:16.027Z</time></trkpt><trkpt lat="46.299865" lon="11.5882644"><ele>991.5</ele><time>2026-04-26T13:48:17.027Z</time></trkpt><trkpt lat="46.2999523" lon="11.5883903"><ele>991.25</ele><time>2026-04-26T13:48:18.027Z</time></trkpt><trkpt lat="46.3000439" lon="11.5885146"><ele>991.0</ele><time>2026-04-26T13:48:19.027Z</time></trkpt><trkpt lat="46.3001371" lon="11.5886405"><ele>989.75</ele><time>2026-04-26T13:48:20.027Z</time></trkpt><trkpt lat="46.3002321" lon="11.5887635"><ele>988.5</ele><time>2026-04-26T13:48:21.027Z</time></trkpt><trkpt lat="46.300325" lon="11.5888848"><ele>987.25</ele><time>2026-04-26T13:48:22.027Z</time></trkpt><trkpt lat="46.3004185" lon="11.5890099"><ele>986.0</ele><time>2026-04-26T13:48:23.027Z</time></trkpt><trkpt lat="46.3005093" lon="11.5891327"><ele>985.75</ele><time>2026-04-26T13:48:24.027Z</time></trkpt><trkpt lat="46.3005991" lon="11.5892605"><ele>985.5</ele><time>2026-04-26T13:48:25.027Z</time></trkpt><trkpt lat="46.3006873" lon="11.5893836"><ele>985.25</ele><time>2026-04-26T13:48:26.027Z</time></trkpt><trkpt lat="46.3007801" lon="11.5895057"><ele>985.0</ele><time>2026-04-26T13:48:27.027Z</time></trkpt><trkpt lat="46.3008673" lon="11.5896203"><ele>985.0</ele><time>2026-04-26T13:48:28.027Z</time></trkpt><trkpt lat="46.3009586" lon="11.589732"><ele>985.0</ele><time>2026-04-26T13:48:29.027Z</time></trkpt><trkpt lat="46.3010439" lon="11.5898431"><ele>985.0</ele><time>2026-04-26T13:48:30.027Z</time></trkpt><trkpt lat="46.3011274" lon="11.5899494"><ele>985.0</ele><time>2026-04-26T13:48:31.027Z</time></trkpt><trkpt lat="46.301206" lon="11.5900401"><ele>985.0</ele><time>2026-04-26T13:48:32.027Z</time></trkpt><trkpt lat="46.3012827" lon="11.5901222"><ele>984.9999999999999</ele><time>2026-04-26T13:48:33.027Z</time></trkpt><trkpt lat="46.3013611" lon="11.590178"><ele>985.0</ele><time>2026-04-26T13:48:34.027Z</time></trkpt><trkpt lat="46.3014326" lon="11.5901901"><ele>985.0</ele><time>2026-04-26T13:48:35.027Z</time></trkpt><trkpt lat="46.3015074" lon="11.5901774"><ele>985.0</ele><time>2026-04-26T13:48:36.027Z</time></trkpt><trkpt lat="46.3015799" lon="11.5901334"><ele>984.9999999999999</ele><time>2026-04-26T13:48:37.027Z</time></trkpt><trkpt lat="46.3016657" lon="11.5901112"><ele>985.0</ele><time>2026-04-26T13:48:38.027Z</time></trkpt><trkpt lat="46.3017568" lon="11.5901276"><ele>984.75</ele><time>2026-04-26T13:48:39.027Z</time></trkpt><trkpt lat="46.3018571" lon="11.5901774"><ele>984.5</ele><time>2026-04-26T13:48:40.027Z</time></trkpt><trkpt lat="46.3019724" lon="11.590229"><ele>984.25</ele><time>2026-04-26T13:48:41.027Z</time></trkpt><trkpt lat="46.3020968" lon="11.5902942"><ele>984.0</ele><time>2026-04-26T13:48:42.027Z</time></trkpt><trkpt lat="46.3022267" lon="11.5903582"><ele>985.5</ele><time>2026-04-26T13:48:43.027Z</time></trkpt><trkpt lat="46.3023582" lon="11.5904331"><ele>987.0</ele><time>2026-04-26T13:48:44.027Z</time></trkpt><trkpt lat="46.3024959" lon="11.5905116"><ele>988.5</ele><time>2026-04-26T13:48:45.027Z</time></trkpt><trkpt lat="46.302632" lon="11.5905917"><ele>990.0</ele><time>2026-04-26T13:48:46.027Z</time></trkpt><trkpt lat="46.3027682" lon="11.5906597"><ele>990.0</ele><time>2026-04-26T13:48:47.027Z</time></trkpt><trkpt lat="46.3029109" lon="11.5907287"><ele>990.0</ele><time>2026-04-26T13:48:48.027Z</time></trkpt><trkpt lat="46.303052" lon="11.5907915"><ele>990.0</ele><time>2026-04-26T13:48:49.027Z</time></trkpt><trkpt lat="46.3031959" lon="11.5908496"><ele>990.0</ele><time>2026-04-26T13:48:50.027Z</time></trkpt><trkpt lat="46.3033402" lon="11.590915"><ele>993.3333333333333</ele><time>2026-04-26T13:48:51.027Z</time></trkpt><trkpt lat="46.3034957" lon="11.5909695"><ele>996.6666666666666</ele><time>2026-04-26T13:48:52.027Z</time></trkpt><trkpt lat="46.3036604" lon="11.5910284"><ele>1000.0</ele><time>2026-04-26T13:48:53.028Z</time></trkpt><trkpt lat="46.3038345" lon="11.5910963"><ele>997.0</ele><time>2026-04-26T13:48:54.027Z</time></trkpt><trkpt lat="46.3040104" lon="11.5911707"><ele>994.0</ele><time>2026-04-26T13:48:55.027Z</time></trkpt><trkpt lat="46.3041891" lon="11.5912485"><ele>991.0</ele><time>2026-04-26T13:48:56.027Z</time></trkpt><trkpt lat="46.3043704" lon="11.5913175"><ele>991.0</ele><time>2026-04-26T13:48:57.027Z</time></trkpt><trkpt lat="46.3045487" lon="11.5913893"><ele>991.0</ele><time>2026-04-26T13:48:58.027Z</time></trkpt><trkpt lat="46.3047304" lon="11.5914597"><ele>991.0</ele><time>2026-04-26T13:48:59.027Z</time></trkpt><trkpt lat="46.3049126" lon="11.5915271"><ele>992.6666666666666</ele><time>2026-04-26T13:49:00.027Z</time></trkpt><trkpt lat="46.305095" lon="11.5915902"><ele>994.3333333333333</ele><time>2026-04-26T13:49:01.027Z</time></trkpt><trkpt lat="46.3052773" lon="11.591653"><ele>996.0</ele><time>2026-04-26T13:49:02.027Z</time></trkpt><trkpt lat="46.305456" lon="11.591718"><ele>999.0</ele><time>2026-04-26T13:49:03.027Z</time></trkpt><trkpt lat="46.3056325" lon="11.5917725"><ele>1002.0</ele><time>2026-04-26T13:49:04.027Z</time></trkpt><trkpt lat="46.3058042" lon="11.591835"><ele>1005.0</ele><time>2026-04-26T13:49:05.027Z</time></trkpt><trkpt lat="46.3059749" lon="11.5918952"><ele>1005.0</ele><time>2026-04-26T13:49:06.027Z</time></trkpt><trkpt lat="46.306146" lon="11.5919561"><ele>1005.0</ele><time>2026-04-26T13:49:07.027Z</time></trkpt><trkpt lat="46.3063145" lon="11.5920178"><ele>1005.0</ele><time>2026-04-26T13:49:08.027Z</time></trkpt><trkpt lat="46.3064827" lon="11.5920744"><ele>1001.0</ele><time>2026-04-26T13:49:09.027Z</time></trkpt><trkpt lat="46.3066512" lon="11.5921458"><ele>997.0</ele><time>2026-04-26T13:49:10.027Z</time></trkpt><trkpt lat="46.3068137" lon="11.5922288"><ele>993.0</ele><time>2026-04-26T13:49:11.027Z</time></trkpt><trkpt lat="46.3069755" lon="11.5923214"><ele>993.0</ele><time>2026-04-26T13:49:12.027Z</time></trkpt><trkpt lat="46.3071334" lon="11.5924307"><ele>993.0</ele><time>2026-04-26T13:49:13.027Z</time></trkpt><trkpt lat="46.3072907" lon="11.5925643"><ele>993.0</ele><time>2026-04-26T13:49:14.027Z</time></trkpt><trkpt lat="46.3074322" lon="11.592724"><ele>994.0</ele><time>2026-04-26T13:49:15.027Z</time></trkpt><trkpt lat="46.3075687" lon="11.5928968"><ele>995.0</ele><time>2026-04-26T13:49:16.027Z</time></trkpt><trkpt lat="46.3077066" lon="11.5930747"><ele>996.0</ele><time>2026-04-26T13:49:17.027Z</time></trkpt><trkpt lat="46.307839" lon="11.593258"><ele>996.0</ele><time>2026-04-26T13:49:18.027Z</time></trkpt><trkpt lat="46.3079677" lon="11.5934348"><ele>996.0</ele><time>2026-04-26T13:49:19.027Z</time></trkpt><trkpt lat="46.3080938" lon="11.5936196"><ele>996.0</ele><time>2026-04-26T13:49:20.027Z</time></trkpt><trkpt lat="46.3082213" lon="11.593793"><ele>995.6666666666667</ele><time>2026-04-26T13:49:21.027Z</time></trkpt><trkpt lat="46.3083459" lon="11.5939625"><ele>995.3333333333334</ele><time>2026-04-26T13:49:22.027Z</time></trkpt><trkpt lat="46.3084665" lon="11.5941283"><ele>995.0</ele><time>2026-04-26T13:49:23.027Z</time></trkpt><trkpt lat="46.3085864" lon="11.5942946"><ele>995.0</ele><time>2026-04-26T13:49:24.027Z</time></trkpt><trkpt lat="46.3087106" lon="11.5944506"><ele>995.0</ele><time>2026-04-26T13:49:25.027Z</time></trkpt><trkpt lat="46.3088401" lon="11.5946009"><ele>995.0</ele><time>2026-04-26T13:49:26.027Z</time></trkpt><trkpt lat="46.308969" lon="11.5947362"><ele>996.0</ele><time>2026-04-26T13:49:27.027Z</time></trkpt><trkpt lat="46.309102" lon="11.5948579"><ele>997.0</ele><time>2026-04-26T13:49:28.027Z</time></trkpt><trkpt lat="46.3092363" lon="11.5949643"><ele>998.0</ele><time>2026-04-26T13:49:29.027Z</time></trkpt><trkpt lat="46.3093694" lon="11.595066"><ele>998.0</ele><time>2026-04-26T13:49:30.027Z</time></trkpt><trkpt lat="46.3095" lon="11.5951451"><ele>998.0</ele><time>2026-04-26T13:49:31.027Z</time></trkpt><trkpt lat="46.309619" lon="11.5952249"><ele>998.0</ele><time>2026-04-26T13:49:32.026Z</time></trkpt><trkpt lat="46.3097294" lon="11.5953083"><ele>998.0</ele><time>2026-04-26T13:49:33.026Z</time></trkpt><trkpt lat="46.3098279" lon="11.5953809"><ele>999.0</ele><time>2026-04-26T13:49:34.026Z</time></trkpt><trkpt lat="46.3099245" lon="11.5954456"><ele>1000.0</ele><time>2026-04-26T13:49:35.026Z</time></trkpt><trkpt lat="46.3100167" lon="11.5955143"><ele>1001.0</ele><time>2026-04-26T13:49:36.026Z</time></trkpt><trkpt lat="46.3101033" lon="11.5955794"><ele>1002.0</ele><time>2026-04-26T13:49:37.026Z</time></trkpt><trkpt lat="46.3101908" lon="11.5956502"><ele>1003.0</ele><time>2026-04-26T13:49:38.026Z</time></trkpt><trkpt lat="46.3102863" lon="11.595716"><ele>1003.0</ele><time>2026-04-26T13:49:39.026Z</time></trkpt><trkpt lat="46.3103948" lon="11.5957711"><ele>1003.0</ele><time>2026-04-26T13:49:40.026Z</time></trkpt><trkpt lat="46.3105093" lon="11.5958305"><ele>1003.0</ele><time>2026-04-26T13:49:41.026Z</time></trkpt><trkpt lat="46.3106275" lon="11.5958983"><ele>1003.0</ele><time>2026-04-26T13:49:42.026Z</time></trkpt><trkpt lat="46.3107523" lon="11.5959672"><ele>1005.0</ele><time>2026-04-26T13:49:43.026Z</time></trkpt><trkpt lat="46.310881" lon="11.5960286"><ele>1007.0</ele><time>2026-04-26T13:49:44.026Z</time></trkpt><trkpt lat="46.3110095" lon="11.5960789"><ele>1009.0</ele><time>2026-04-26T13:49:45.026Z</time></trkpt><trkpt lat="46.3111468" lon="11.5961185"><ele>1011.0</ele><time>2026-04-26T13:49:46.026Z</time></trkpt><trkpt lat="46.31129" lon="11.5961397"><ele>1012.0</ele><time>2026-04-26T13:49:47.026Z</time></trkpt><trkpt lat="46.3114347" lon="11.5961476"><ele>1013.0</ele><time>2026-04-26T13:49:48.026Z</time></trkpt><trkpt lat="46.311585" lon="11.5961511"><ele>1014.0</ele><time>2026-04-26T13:49:49.026Z</time></trkpt><trkpt lat="46.3117378" lon="11.5961435"><ele>1015.0</ele><time>2026-04-26T13:49:50.027Z</time></trkpt><trkpt lat="46.3118918" lon="11.5961309"><ele>1015.0</ele><time>2026-04-26T13:49:51.026Z</time></trkpt><trkpt lat="46.312048" lon="11.5961093"><ele>1015.0</ele><time>2026-04-26T13:49:52.026Z</time></trkpt><trkpt lat="46.312208" lon="11.596091"><ele>1015.0</ele><time>2026-04-26T13:49:53.026Z</time></trkpt><trkpt lat="46.3123703" lon="11.5960806"><ele>1014.3333333333333</ele><time>2026-04-26T13:49:54.026Z</time></trkpt><trkpt lat="46.3125339" lon="11.5960671"><ele>1013.6666666666667</ele><time>2026-04-26T13:49:55.026Z</time></trkpt><trkpt lat="46.3127015" lon="11.5960531"><ele>1013.0</ele><time>2026-04-26T13:49:56.026Z</time></trkpt><trkpt lat="46.3128694" lon="11.5960394"><ele>1013.0</ele><time>2026-04-26T13:49:57.026Z</time></trkpt><trkpt lat="46.3130427" lon="11.5960257"><ele>1013.0</ele><time>2026-04-26T13:49:58.027Z</time></trkpt><trkpt lat="46.3132227" lon="11.596007"><ele>1013.0</ele><time>2026-04-26T13:49:59.026Z</time></trkpt><trkpt lat="46.3134114" lon="11.5959906"><ele>1013.0</ele><time>2026-04-26T13:50:00.026Z</time></trkpt><trkpt lat="46.3136027" lon="11.5959742"><ele>1013.0</ele><time>2026-04-26T13:50:01.026Z</time></trkpt><trkpt lat="46.3138054" lon="11.5959569"><ele>1013.0</ele><time>2026-04-26T13:50:02.026Z</time></trkpt><trkpt lat="46.314007" lon="11.5959372"><ele>1013.0</ele><time>2026-04-26T13:50:03.026Z</time></trkpt><trkpt lat="46.3142147" lon="11.5959147"><ele>1013.0</ele><time>2026-04-26T13:50:04.026Z</time></trkpt><trkpt lat="46.314422" lon="11.5958844"><ele>1013.0</ele><time>2026-04-26T13:50:05.026Z</time></trkpt><trkpt lat="46.31463" lon="11.5958468"><ele>1011.6666666666667</ele><time>2026-04-26T13:50:06.026Z</time></trkpt><trkpt lat="46.3148365" lon="11.5958085"><ele>1010.3333333333333</ele><time>2026-04-26T13:50:07.026Z</time></trkpt><trkpt lat="46.3150351" lon="11.5957735"><ele>1009.0</ele><time>2026-04-26T13:50:08.026Z</time></trkpt><trkpt lat="46.3152306" lon="11.5957415"><ele>1009.0</ele><time>2026-04-26T13:50:09.026Z</time></trkpt><trkpt lat="46.3154239" lon="11.5957099"><ele>1009.0</ele><time>2026-04-26T13:50:10.026Z</time></trkpt><trkpt lat="46.3156184" lon="11.5956752"><ele>1009.0</ele><time>2026-04-26T13:50:11.026Z</time></trkpt><trkpt lat="46.3158112" lon="11.5956418"><ele>1010.3333333333333</ele><time>2026-04-26T13:50:12.026Z</time></trkpt><trkpt lat="46.3160069" lon="11.5956029"><ele>1011.6666666666667</ele><time>2026-04-26T13:50:13.026Z</time></trkpt><trkpt lat="46.3162014" lon="11.5955583"><ele>1013.0</ele><time>2026-04-26T13:50:14.026Z</time></trkpt><trkpt lat="46.3163941" lon="11.5955243"><ele>1013.3333333333334</ele><time>2026-04-26T13:50:15.026Z</time></trkpt><trkpt lat="46.3165864" lon="11.5954886"><ele>1013.6666666666667</ele><time>2026-04-26T13:50:16.026Z</time></trkpt><trkpt lat="46.3167741" lon="11.5954477"><ele>1014.0</ele><time>2026-04-26T13:50:17.026Z</time></trkpt><trkpt lat="46.3169605" lon="11.5954009"><ele>1014.0</ele><time>2026-04-26T13:50:18.026Z</time></trkpt><trkpt lat="46.3171455" lon="11.5953427"><ele>1014.0</ele><time>2026-04-26T13:50:19.026Z</time></trkpt><trkpt lat="46.3173279" lon="11.5952719"><ele>1014.0</ele><time>2026-04-26T13:50:20.026Z</time></trkpt><trkpt lat="46.3175056" lon="11.5951972"><ele>1019.6666666666667</ele><time>2026-04-26T13:50:21.026Z</time></trkpt><trkpt lat="46.3176805" lon="11.5951215"><ele>1025.3333333333335</ele><time>2026-04-26T13:50:22.026Z</time></trkpt><trkpt lat="46.3178533" lon="11.5950534"><ele>1031.0</ele><time>2026-04-26T13:50:23.026Z</time></trkpt><trkpt lat="46.3180119" lon="11.5949899"><ele>1029.3333333333335</ele><time>2026-04-26T13:50:24.026Z</time></trkpt><trkpt lat="46.3181669" lon="11.5949282"><ele>1027.6666666666667</ele><time>2026-04-26T13:50:25.026Z</time></trkpt><trkpt lat="46.3183161" lon="11.594869"><ele>1026.0</ele><time>2026-04-26T13:50:26.026Z</time></trkpt><trkpt lat="46.3184571" lon="11.5948131"><ele>1026.0</ele><time>2026-04-26T13:50:27.026Z</time></trkpt><trkpt lat="46.3186088" lon="11.5947651"><ele>1026.0</ele><time>2026-04-26T13:50:28.026Z</time></trkpt><trkpt lat="46.3187601" lon="11.5947473"><ele>1026.0</ele><time>2026-04-26T13:50:29.026Z</time></trkpt><trkpt lat="46.3189088" lon="11.5947531"><ele>1026.75</ele><time>2026-04-26T13:50:30.026Z</time></trkpt><trkpt lat="46.3190518" lon="11.5947931"><ele>1027.5</ele><time>2026-04-26T13:50:31.026Z</time></trkpt><trkpt lat="46.3191914" lon="11.594853"><ele>1028.25</ele><time>2026-04-26T13:50:32.026Z</time></trkpt><trkpt lat="46.3193069" lon="11.594923"><ele>1029.0</ele><time>2026-04-26T13:50:33.026Z</time></trkpt><trkpt lat="46.3194061" lon="11.5950019"><ele>1029.0</ele><time>2026-04-26T13:50:34.026Z</time></trkpt><trkpt lat="46.3194795" lon="11.5950784"><ele>1029.0</ele><time>2026-04-26T13:50:35.026Z</time></trkpt><trkpt lat="46.3195237" lon="11.5951776"><ele>1029.0</ele><time>2026-04-26T13:50:36.026Z</time></trkpt><trkpt lat="46.3195415" lon="11.5952854"><ele>1029.0</ele><time>2026-04-26T13:50:37.027Z</time></trkpt><trkpt lat="46.3195523" lon="11.5953964"><ele>1029.0</ele><time>2026-04-26T13:50:38.026Z</time></trkpt><trkpt lat="46.3195828" lon="11.5954881"><ele>1029.0</ele><time>2026-04-26T13:50:39.026Z</time></trkpt><trkpt lat="46.3196432" lon="11.5955435"><ele>1027.8</ele><time>2026-04-26T13:50:40.026Z</time></trkpt><trkpt lat="46.3197162" lon="11.5955713"><ele>1026.6000000000001</ele><time>2026-04-26T13:50:41.026Z</time></trkpt><trkpt lat="46.3198061" lon="11.5955948"><ele>1025.4</ele><time>2026-04-26T13:50:42.026Z</time></trkpt><trkpt lat="46.3199011" lon="11.5956388"><ele>1024.2</ele><time>2026-04-26T13:50:43.026Z</time></trkpt><trkpt lat="46.319992" lon="11.5957191"><ele>1023.0</ele><time>2026-04-26T13:50:44.026Z</time></trkpt><trkpt lat="46.3200829" lon="11.5958428"><ele>1023.0</ele><time>2026-04-26T13:50:45.027Z</time></trkpt><trkpt lat="46.3201805" lon="11.5959778"><ele>1023.0</ele><time>2026-04-26T13:50:46.026Z</time></trkpt><trkpt lat="46.3202793" lon="11.5961156"><ele>1023.0</ele><time>2026-04-26T13:50:47.026Z</time></trkpt><trkpt lat="46.320378" lon="11.5962742"><ele>1023.0</ele><time>2026-04-26T13:50:48.026Z</time></trkpt><trkpt lat="46.3204775" lon="11.5964288"><ele>1024.75</ele><time>2026-04-26T13:50:49.026Z</time></trkpt><trkpt lat="46.3205769" lon="11.5965848"><ele>1026.5</ele><time>2026-04-26T13:50:50.026Z</time></trkpt><trkpt lat="46.3206767" lon="11.5967379"><ele>1028.25</ele><time>2026-04-26T13:50:51.026Z</time></trkpt><trkpt lat="46.3207737" lon="11.5968978"><ele>1030.0</ele><time>2026-04-26T13:50:52.026Z</time></trkpt><trkpt lat="46.3208779" lon="11.5970602"><ele>1030.3333333333333</ele><time>2026-04-26T13:50:53.026Z</time></trkpt><trkpt lat="46.3209876" lon="11.5972183"><ele>1030.6666666666667</ele><time>2026-04-26T13:50:54.026Z</time></trkpt><trkpt lat="46.3211057" lon="11.5973676"><ele>1031.0</ele><time>2026-04-26T13:50:55.026Z</time></trkpt><trkpt lat="46.3212368" lon="11.5974975"><ele>1031.0</ele><time>2026-04-26T13:50:56.026Z</time></trkpt><trkpt lat="46.32138" lon="11.597602"><ele>1031.0</ele><time>2026-04-26T13:50:57.026Z</time></trkpt><trkpt lat="46.3215273" lon="11.5976838"><ele>1031.0</ele><time>2026-04-26T13:50:58.026Z</time></trkpt><trkpt lat="46.3216772" lon="11.5977521"><ele>1032.0</ele><time>2026-04-26T13:50:59.026Z</time></trkpt><trkpt lat="46.3218205" lon="11.5978098"><ele>1033.0</ele><time>2026-04-26T13:51:00.027Z</time></trkpt><trkpt lat="46.3219617" lon="11.5978678"><ele>1034.0</ele><time>2026-04-26T13:51:01.026Z</time></trkpt><trkpt lat="46.3221033" lon="11.5979328"><ele>1035.0</ele><time>2026-04-26T13:51:02.026Z</time></trkpt><trkpt lat="46.3222422" lon="11.5979968"><ele>1035.0</ele><time>2026-04-26T13:51:03.026Z</time></trkpt><trkpt lat="46.3223817" lon="11.5980605"><ele>1035.0</ele><time>2026-04-26T13:51:04.026Z</time></trkpt><trkpt lat="46.3225242" lon="11.598131"><ele>1035.0</ele><time>2026-04-26T13:51:05.026Z</time></trkpt><trkpt lat="46.322667" lon="11.5981971"><ele>1035.0</ele><time>2026-04-26T13:51:06.026Z</time></trkpt><trkpt lat="46.3228138" lon="11.5982637"><ele>1035.0</ele><time>2026-04-26T13:51:07.026Z</time></trkpt><trkpt lat="46.3229691" lon="11.5983313"><ele>1035.0</ele><time>2026-04-26T13:51:08.026Z</time></trkpt><trkpt lat="46.3231309" lon="11.5984125"><ele>1035.0</ele><time>2026-04-26T13:51:09.026Z</time></trkpt><trkpt lat="46.3232943" lon="11.5984867"><ele>1037.6666666666667</ele><time>2026-04-26T13:51:10.026Z</time></trkpt><trkpt lat="46.3234581" lon="11.598564"><ele>1040.3333333333335</ele><time>2026-04-26T13:51:11.026Z</time></trkpt><trkpt lat="46.3236277" lon="11.5986412"><ele>1043.0</ele><time>2026-04-26T13:51:12.026Z</time></trkpt><trkpt lat="46.3238009" lon="11.5987087"><ele>1042.6666666666667</ele><time>2026-04-26T13:51:13.027Z</time></trkpt><trkpt lat="46.3239768" lon="11.5987661"><ele>1042.3333333333333</ele><time>2026-04-26T13:51:14.026Z</time></trkpt><trkpt lat="46.3241558" lon="11.5988102"><ele>1042.0</ele><time>2026-04-26T13:51:15.026Z</time></trkpt><trkpt lat="46.3243372" lon="11.5988453"><ele>1042.0</ele><time>2026-04-26T13:51:16.026Z</time></trkpt><trkpt lat="46.3245181" lon="11.5988734"><ele>1042.0</ele><time>2026-04-26T13:51:17.026Z</time></trkpt><trkpt lat="46.3246967" lon="11.5988962"><ele>1042.0</ele><time>2026-04-26T13:51:18.026Z</time></trkpt><trkpt lat="46.3248734" lon="11.5989239"><ele>1042.0</ele><time>2026-04-26T13:51:19.026Z</time></trkpt><trkpt lat="46.325049" lon="11.5989551"><ele>1042.0</ele><time>2026-04-26T13:51:20.026Z</time></trkpt><trkpt lat="46.3252222" lon="11.5989929"><ele>1042.0</ele><time>2026-04-26T13:51:21.026Z</time></trkpt><trkpt lat="46.3253927" lon="11.5990366"><ele>1042.3333333333333</ele><time>2026-04-26T13:51:22.026Z</time></trkpt><trkpt lat="46.3255661" lon="11.5990915"><ele>1042.6666666666667</ele><time>2026-04-26T13:51:23.026Z</time></trkpt><trkpt lat="46.3257384" lon="11.5991503"><ele>1043.0</ele><time>2026-04-26T13:51:24.026Z</time></trkpt><trkpt lat="46.325908" lon="11.5992147"><ele>1043.0</ele><time>2026-04-26T13:51:25.026Z</time></trkpt><trkpt lat="46.3260747" lon="11.5992822"><ele>1043.0</ele><time>2026-04-26T13:51:26.026Z</time></trkpt><trkpt lat="46.32624" lon="11.5993537"><ele>1043.0</ele><time>2026-04-26T13:51:27.026Z</time></trkpt><trkpt lat="46.3264089" lon="11.5994233"><ele>1044.3333333333335</ele><time>2026-04-26T13:51:28.026Z</time></trkpt><trkpt lat="46.3265741" lon="11.5994916"><ele>1045.6666666666667</ele><time>2026-04-26T13:51:29.027Z</time></trkpt><trkpt lat="46.3267417" lon="11.5995549"><ele>1047.0</ele><time>2026-04-26T13:51:30.026Z</time></trkpt><trkpt lat="46.3269103" lon="11.5996174"><ele>1046.3333333333333</ele><time>2026-04-26T13:51:31.026Z</time></trkpt><trkpt lat="46.3270752" lon="11.5996876"><ele>1045.6666666666665</ele><time>2026-04-26T13:51:32.026Z</time></trkpt><trkpt lat="46.3272418" lon="11.5997542"><ele>1045.0</ele><time>2026-04-26T13:51:33.026Z</time></trkpt><trkpt lat="46.3274084" lon="11.5998191"><ele>1045.0</ele><time>2026-04-26T13:51:34.026Z</time></trkpt><trkpt lat="46.3275723" lon="11.5998818"><ele>1045.0</ele><time>2026-04-26T13:51:35.026Z</time></trkpt><trkpt lat="46.3277336" lon="11.5999482"><ele>1045.0</ele><time>2026-04-26T13:51:36.026Z</time></trkpt><trkpt lat="46.3278968" lon="11.6000141"><ele>1045.0</ele><time>2026-04-26T13:51:37.026Z</time></trkpt><trkpt lat="46.3280572" lon="11.6000732"><ele>1045.0</ele><time>2026-04-26T13:51:38.026Z</time></trkpt><trkpt lat="46.3282183" lon="11.6001351"><ele>1045.0</ele><time>2026-04-26T13:51:39.026Z</time></trkpt><trkpt lat="46.3283803" lon="11.6001955"><ele>1044.3333333333333</ele><time>2026-04-26T13:51:40.026Z</time></trkpt><trkpt lat="46.3285447" lon="11.6002587"><ele>1043.6666666666667</ele><time>2026-04-26T13:51:41.027Z</time></trkpt><trkpt lat="46.3287102" lon="11.6003264"><ele>1043.0</ele><time>2026-04-26T13:51:42.026Z</time></trkpt><trkpt lat="46.3288754" lon="11.6003972"><ele>1044.6666666666667</ele><time>2026-04-26T13:51:43.026Z</time></trkpt><trkpt lat="46.3290447" lon="11.6004729"><ele>1046.3333333333333</ele><time>2026-04-26T13:51:44.026Z</time></trkpt><trkpt lat="46.3292132" lon="11.6005617"><ele>1048.0</ele><time>2026-04-26T13:51:45.026Z</time></trkpt><trkpt lat="46.3293768" lon="11.6006605"><ele>1048.0</ele><time>2026-04-26T13:51:46.027Z</time></trkpt><trkpt lat="46.3295389" lon="11.6007728"><ele>1048.0</ele><time>2026-04-26T13:51:47.026Z</time></trkpt><trkpt lat="46.3296984" lon="11.600901"><ele>1048.0</ele><time>2026-04-26T13:51:48.026Z</time></trkpt><trkpt lat="46.3298536" lon="11.6010504"><ele>1048.3333333333333</ele><time>2026-04-26T13:51:49.026Z</time></trkpt><trkpt lat="46.3300028" lon="11.6012146"><ele>1048.6666666666667</ele><time>2026-04-26T13:51:50.026Z</time></trkpt><trkpt lat="46.3301509" lon="11.6013885"><ele>1049.0</ele><time>2026-04-26T13:51:51.026Z</time></trkpt><trkpt lat="46.3302941" lon="11.6015688"><ele>1049.0</ele><time>2026-04-26T13:51:52.026Z</time></trkpt><trkpt lat="46.3304365" lon="11.6017526"><ele>1049.0</ele><time>2026-04-26T13:51:53.026Z</time></trkpt><trkpt lat="46.3305713" lon="11.6019358"><ele>1049.0</ele><time>2026-04-26T13:51:54.026Z</time></trkpt><trkpt lat="46.3307127" lon="11.6021201"><ele>1051.6666666666667</ele><time>2026-04-26T13:51:55.026Z</time></trkpt><trkpt lat="46.3308496" lon="11.6023006"><ele>1054.3333333333333</ele><time>2026-04-26T13:51:56.026Z</time></trkpt><trkpt lat="46.3309938" lon="11.6024819"><ele>1057.0</ele><time>2026-04-26T13:51:57.026Z</time></trkpt><trkpt lat="46.3311347" lon="11.6026664"><ele>1056.6666666666665</ele><time>2026-04-26T13:51:58.026Z</time></trkpt><trkpt lat="46.3312747" lon="11.602851"><ele>1056.3333333333333</ele><time>2026-04-26T13:51:59.026Z</time></trkpt><trkpt lat="46.3314137" lon="11.6030346"><ele>1056.0</ele><time>2026-04-26T13:52:00.026Z</time></trkpt><trkpt lat="46.3315579" lon="11.6032234"><ele>1056.0</ele><time>2026-04-26T13:52:01.026Z</time></trkpt><trkpt lat="46.3316993" lon="11.6034061"><ele>1056.0</ele><time>2026-04-26T13:52:02.026Z</time></trkpt><trkpt lat="46.3318368" lon="11.6035914"><ele>1056.0</ele><time>2026-04-26T13:52:03.026Z</time></trkpt><trkpt lat="46.3319771" lon="11.6037749"><ele>1056.0</ele><time>2026-04-26T13:52:04.026Z</time></trkpt><trkpt lat="46.3321211" lon="11.6039486"><ele>1056.0</ele><time>2026-04-26T13:52:05.026Z</time></trkpt><trkpt lat="46.3322701" lon="11.6041005"><ele>1056.0</ele><time>2026-04-26T13:52:06.026Z</time></trkpt><trkpt lat="46.3324308" lon="11.604226"><ele>1056.0</ele><time>2026-04-26T13:52:07.026Z</time></trkpt><trkpt lat="46.332596" lon="11.6043213"><ele>1056.0</ele><time>2026-04-26T13:52:08.026Z</time></trkpt><trkpt lat="46.33277" lon="11.6043933"><ele>1056.0</ele><time>2026-04-26T13:52:09.026Z</time></trkpt><trkpt lat="46.332949" lon="11.6044389"><ele>1055.3333333333333</ele><time>2026-04-26T13:52:10.026Z</time></trkpt><trkpt lat="46.3331275" lon="11.6044642"><ele>1054.6666666666665</ele><time>2026-04-26T13:52:11.026Z</time></trkpt><trkpt lat="46.3332977" lon="11.6044976"><ele>1054.0</ele><time>2026-04-26T13:52:12.026Z</time></trkpt><trkpt lat="46.3334722" lon="11.604543"><ele>1054.0</ele><time>2026-04-26T13:52:13.026Z</time></trkpt><trkpt lat="46.3336444" lon="11.604598"><ele>1054.0</ele><time>2026-04-26T13:52:14.026Z</time></trkpt><trkpt lat="46.3338125" lon="11.6046686"><ele>1054.0</ele><time>2026-04-26T13:52:15.026Z</time></trkpt><trkpt lat="46.3339786" lon="11.6047518"><ele>1055.6666666666665</ele><time>2026-04-26T13:52:16.026Z</time></trkpt><trkpt lat="46.3341461" lon="11.6048387"><ele>1057.3333333333333</ele><time>2026-04-26T13:52:17.026Z</time></trkpt><trkpt lat="46.3343089" lon="11.6049319"><ele>1059.0</ele><time>2026-04-26T13:52:18.026Z</time></trkpt><trkpt lat="46.3344727" lon="11.6050361"><ele>1059.0</ele><time>2026-04-26T13:52:19.026Z</time></trkpt><trkpt lat="46.3346369" lon="11.6051569"><ele>1059.0</ele><time>2026-04-26T13:52:20.026Z</time></trkpt><trkpt lat="46.3347989" lon="11.6052839"><ele>1059.0</ele><time>2026-04-26T13:52:21.026Z</time></trkpt><trkpt lat="46.3349589" lon="11.6054225"><ele>1059.3333333333333</ele><time>2026-04-26T13:52:22.026Z</time></trkpt><trkpt lat="46.3351153" lon="11.6055664"><ele>1059.6666666666665</ele><time>2026-04-26T13:52:23.026Z</time></trkpt><trkpt lat="46.3352693" lon="11.6057115"><ele>1060.0</ele><time>2026-04-26T13:52:24.026Z</time></trkpt><trkpt lat="46.335419" lon="11.6058651"><ele>1061.6666666666665</ele><time>2026-04-26T13:52:25.026Z</time></trkpt><trkpt lat="46.3355608" lon="11.6060215"><ele>1063.3333333333333</ele><time>2026-04-26T13:52:26.026Z</time></trkpt><trkpt lat="46.3356988" lon="11.6061787"><ele>1065.0</ele><time>2026-04-26T13:52:27.026Z</time></trkpt><trkpt lat="46.3358337" lon="11.6063307"><ele>1065.0</ele><time>2026-04-26T13:52:28.026Z</time></trkpt><trkpt lat="46.3359652" lon="11.6064875"><ele>1065.0</ele><time>2026-04-26T13:52:29.026Z</time></trkpt><trkpt lat="46.3360852" lon="11.606656"><ele>1065.0</ele><time>2026-04-26T13:52:30.026Z</time></trkpt><trkpt lat="46.3361844" lon="11.6068454"><ele>1065.3333333333333</ele><time>2026-04-26T13:52:31.027Z</time></trkpt><trkpt lat="46.3362724" lon="11.6070481"><ele>1065.6666666666665</ele><time>2026-04-26T13:52:32.026Z</time></trkpt><trkpt lat="46.3363459" lon="11.607259"><ele>1066.0</ele><time>2026-04-26T13:52:33.026Z</time></trkpt><trkpt lat="46.3364101" lon="11.6074718"><ele>1066.0</ele><time>2026-04-26T13:52:34.026Z</time></trkpt><trkpt lat="46.3364753" lon="11.607691"><ele>1066.0</ele><time>2026-04-26T13:52:35.026Z</time></trkpt><trkpt lat="46.3365362" lon="11.6079068"><ele>1066.0</ele><time>2026-04-26T13:52:36.026Z</time></trkpt><trkpt lat="46.3366056" lon="11.608112"><ele>1066.0</ele><time>2026-04-26T13:52:37.027Z</time></trkpt><trkpt lat="46.3366851" lon="11.6083149"><ele>1066.0</ele><time>2026-04-26T13:52:38.026Z</time></trkpt><trkpt lat="46.3367667" lon="11.6085127"><ele>1066.0</ele><time>2026-04-26T13:52:39.026Z</time></trkpt><trkpt lat="46.3368599" lon="11.6087146"><ele>1065.3333333333333</ele><time>2026-04-26T13:52:40.026Z</time></trkpt><trkpt lat="46.3369537" lon="11.6089105"><ele>1064.6666666666667</ele><time>2026-04-26T13:52:41.026Z</time></trkpt><trkpt lat="46.337051" lon="11.6090951"><ele>1064.0</ele><time>2026-04-26T13:52:42.026Z</time></trkpt><trkpt lat="46.3371425" lon="11.6092617"><ele>1064.75</ele><time>2026-04-26T13:52:43.026Z</time></trkpt><trkpt lat="46.3372314" lon="11.609421"><ele>1065.5</ele><time>2026-04-26T13:52:44.026Z</time></trkpt><trkpt lat="46.3373145" lon="11.6095601"><ele>1066.25</ele><time>2026-04-26T13:52:45.026Z</time></trkpt><trkpt lat="46.3373923" lon="11.609686"><ele>1067.0</ele><time>2026-04-26T13:52:46.026Z</time></trkpt><trkpt lat="46.3374665" lon="11.6098031"><ele>1067.0</ele><time>2026-04-26T13:52:47.026Z</time></trkpt><trkpt lat="46.3375375" lon="11.6099131"><ele>1067.0</ele><time>2026-04-26T13:52:48.026Z</time></trkpt><trkpt lat="46.3376121" lon="11.6100209"><ele>1067.0</ele><time>2026-04-26T13:52:49.026Z</time></trkpt><trkpt lat="46.3376927" lon="11.6101205"><ele>1067.0</ele><time>2026-04-26T13:52:50.026Z</time></trkpt><trkpt lat="46.3377777" lon="11.6102141"><ele>1067.0</ele><time>2026-04-26T13:52:51.027Z</time></trkpt><trkpt lat="46.3378707" lon="11.6103012"><ele>1067.5</ele><time>2026-04-26T13:52:52.026Z</time></trkpt><trkpt lat="46.3379674" lon="11.6103833"><ele>1068.0</ele><time>2026-04-26T13:52:53.026Z</time></trkpt><trkpt lat="46.3380669" lon="11.6104654"><ele>1068.5</ele><time>2026-04-26T13:52:54.026Z</time></trkpt><trkpt lat="46.3381702" lon="11.6105465"><ele>1069.0</ele><time>2026-04-26T13:52:55.026Z</time></trkpt><trkpt lat="46.3382748" lon="11.6106312"><ele>1070.5</ele><time>2026-04-26T13:52:56.026Z</time></trkpt><trkpt lat="46.3383783" lon="11.610721"><ele>1072.0</ele><time>2026-04-26T13:52:57.026Z</time></trkpt><trkpt lat="46.3384867" lon="11.6108095"><ele>1073.5</ele><time>2026-04-26T13:52:58.026Z</time></trkpt><trkpt lat="46.3385984" lon="11.6109012"><ele>1075.0</ele><time>2026-04-26T13:52:59.026Z</time></trkpt><trkpt lat="46.3387143" lon="11.6109929"><ele>1075.0</ele><time>2026-04-26T13:53:00.026Z</time></trkpt><trkpt lat="46.3388348" lon="11.6110925"><ele>1075.0</ele><time>2026-04-26T13:53:01.026Z</time></trkpt><trkpt lat="46.3389553" lon="11.6111887"><ele>1075.0</ele><time>2026-04-26T13:53:02.026Z</time></trkpt><trkpt lat="46.3390735" lon="11.6112746"><ele>1075.0</ele><time>2026-04-26T13:53:03.026Z</time></trkpt><trkpt lat="46.3391905" lon="11.6113612"><ele>1074.25</ele><time>2026-04-26T13:53:04.026Z</time></trkpt><trkpt lat="46.339311" lon="11.6114579"><ele>1073.5</ele><time>2026-04-26T13:53:05.026Z</time></trkpt><trkpt lat="46.33944" lon="11.6115674"><ele>1072.75</ele><time>2026-04-26T13:53:06.026Z</time></trkpt><trkpt lat="46.3395786" lon="11.6116873"><ele>1072.0</ele><time>2026-04-26T13:53:07.026Z</time></trkpt><trkpt lat="46.3397336" lon="11.6118152"><ele>1075.0</ele><time>2026-04-26T13:53:08.026Z</time></trkpt><trkpt lat="46.3399076" lon="11.6119574"><ele>1078.0</ele><time>2026-04-26T13:53:09.026Z</time></trkpt><trkpt lat="46.3400913" lon="11.6121176"><ele>1081.0</ele><time>2026-04-26T13:53:10.026Z</time></trkpt><trkpt lat="46.3402805" lon="11.6122993"><ele>1081.3333333333333</ele><time>2026-04-26T13:53:11.026Z</time></trkpt><trkpt lat="46.3404667" lon="11.6124796"><ele>1081.6666666666667</ele><time>2026-04-26T13:53:12.026Z</time></trkpt><trkpt lat="46.3406521" lon="11.6126599"><ele>1082.0</ele><time>2026-04-26T13:53:13.026Z</time></trkpt><trkpt lat="46.3408432" lon="11.6128335"><ele>1084.3333333333335</ele><time>2026-04-26T13:53:14.026Z</time></trkpt><trkpt lat="46.3410309" lon="11.612999"><ele>1086.6666666666667</ele><time>2026-04-26T13:53:15.026Z</time></trkpt><trkpt lat="46.3412104" lon="11.6131611"><ele>1089.0</ele><time>2026-04-26T13:53:16.026Z</time></trkpt><trkpt lat="46.3413718" lon="11.6133347"><ele>1088.0</ele><time>2026-04-26T13:53:17.027Z</time></trkpt><trkpt lat="46.3415197" lon="11.6135244"><ele>1087.0</ele><time>2026-04-26T13:53:18.026Z</time></trkpt><trkpt lat="46.3416344" lon="11.6137302"><ele>1086.0</ele><time>2026-04-26T13:53:19.027Z</time></trkpt><trkpt lat="46.3417326" lon="11.613961"><ele>1086.0</ele><time>2026-04-26T13:53:20.026Z</time></trkpt><trkpt lat="46.341799" lon="11.614197"><ele>1086.0</ele><time>2026-04-26T13:53:21.027Z</time></trkpt><trkpt lat="46.3418551" lon="11.6144514"><ele>1086.0</ele><time>2026-04-26T13:53:22.026Z</time></trkpt><trkpt lat="46.341909" lon="11.6146964"><ele>1089.3333333333333</ele><time>2026-04-26T13:53:23.026Z</time></trkpt><trkpt lat="46.3419677" lon="11.6149253"><ele>1092.6666666666665</ele><time>2026-04-26T13:53:24.026Z</time></trkpt><trkpt lat="46.3420405" lon="11.6151201"><ele>1096.0</ele><time>2026-04-26T13:53:25.026Z</time></trkpt><trkpt lat="46.3421393" lon="11.6152897"><ele>1097.6666666666665</ele><time>2026-04-26T13:53:26.026Z</time></trkpt><trkpt lat="46.3422647" lon="11.615428"><ele>1099.3333333333333</ele><time>2026-04-26T13:53:27.026Z</time></trkpt><trkpt lat="46.3424088" lon="11.6155382"><ele>1101.0</ele><time>2026-04-26T13:53:28.026Z</time></trkpt><trkpt lat="46.3425664" lon="11.6156354"><ele>1101.0</ele><time>2026-04-26T13:53:29.026Z</time></trkpt><trkpt lat="46.3427233" lon="11.6157417"><ele>1101.0</ele><time>2026-04-26T13:53:30.026Z</time></trkpt><trkpt lat="46.3428585" lon="11.6158666"><ele>1101.0</ele><time>2026-04-26T13:53:31.026Z</time></trkpt><trkpt lat="46.3429871" lon="11.6160241"><ele>1102.0</ele><time>2026-04-26T13:53:32.027Z</time></trkpt><trkpt lat="46.3430905" lon="11.6162097"><ele>1103.0</ele><time>2026-04-26T13:53:33.026Z</time></trkpt><trkpt lat="46.3431681" lon="11.6164271"><ele>1104.0</ele><time>2026-04-26T13:53:34.026Z</time></trkpt><trkpt lat="46.3432177" lon="11.6166781"><ele>1104.0</ele><time>2026-04-26T13:53:35.027Z</time></trkpt><trkpt lat="46.3432589" lon="11.6169466"><ele>1104.0</ele><time>2026-04-26T13:53:36.027Z</time></trkpt><trkpt lat="46.343289" lon="11.6172221"><ele>1104.0</ele><time>2026-04-26T13:53:37.026Z</time></trkpt><trkpt lat="46.3433147" lon="11.6174965"><ele>1105.6666666666667</ele><time>2026-04-26T13:53:38.026Z</time></trkpt><trkpt lat="46.3433609" lon="11.6177576"><ele>1107.3333333333335</ele><time>2026-04-26T13:53:39.026Z</time></trkpt><trkpt lat="46.3434136" lon="11.6179823"><ele>1109.0</ele><time>2026-04-26T13:53:40.026Z</time></trkpt><trkpt lat="46.3434916" lon="11.6181911"><ele>1111.6666666666667</ele><time>2026-04-26T13:53:41.026Z</time></trkpt><trkpt lat="46.3435822" lon="11.6183827"><ele>1114.3333333333333</ele><time>2026-04-26T13:53:42.026Z</time></trkpt><trkpt lat="46.3436895" lon="11.618552"><ele>1117.0</ele><time>2026-04-26T13:53:43.026Z</time></trkpt><trkpt lat="46.3438128" lon="11.6186941"><ele>1109.6666666666665</ele><time>2026-04-26T13:53:44.026Z</time></trkpt><trkpt lat="46.3439586" lon="11.6188291"><ele>1102.3333333333333</ele><time>2026-04-26T13:53:45.026Z</time></trkpt><trkpt lat="46.3441243" lon="11.6189481"><ele>1095.0</ele><time>2026-04-26T13:53:46.026Z</time></trkpt><trkpt lat="46.3443014" lon="11.6190754"><ele>1095.0</ele><time>2026-04-26T13:53:47.025Z</time></trkpt><trkpt lat="46.3444825" lon="11.619215"><ele>1095.0</ele><time>2026-04-26T13:53:48.026Z</time></trkpt><trkpt lat="46.3446615" lon="11.6193599"><ele>1095.0</ele><time>2026-04-26T13:53:49.025Z</time></trkpt><trkpt lat="46.3448433" lon="11.6195151"><ele>1096.0</ele><time>2026-04-26T13:53:50.025Z</time></trkpt><trkpt lat="46.3450305" lon="11.6196698"><ele>1097.0</ele><time>2026-04-26T13:53:51.025Z</time></trkpt><trkpt lat="46.3452192" lon="11.6198167"><ele>1098.0</ele><time>2026-04-26T13:53:52.025Z</time></trkpt><trkpt lat="46.3454102" lon="11.6199608"><ele>1100.6666666666667</ele><time>2026-04-26T13:53:53.025Z</time></trkpt><trkpt lat="46.3455977" lon="11.6201125"><ele>1103.3333333333335</ele><time>2026-04-26T13:53:54.025Z</time></trkpt><trkpt lat="46.3457729" lon="11.6202926"><ele>1106.0</ele><time>2026-04-26T13:53:55.025Z</time></trkpt><trkpt lat="46.3459345" lon="11.6205008"><ele>1106.0</ele><time>2026-04-26T13:53:56.025Z</time></trkpt><trkpt lat="46.3460823" lon="11.6207427"><ele>1106.0</ele><time>2026-04-26T13:53:57.025Z</time></trkpt><trkpt lat="46.3462239" lon="11.6209983"><ele>1106.0</ele><time>2026-04-26T13:53:58.025Z</time></trkpt><trkpt lat="46.3463546" lon="11.621269"><ele>1115.5</ele><time>2026-04-26T13:53:59.025Z</time></trkpt><trkpt lat="46.3464848" lon="11.6215395"><ele>1125.0</ele><time>2026-04-26T13:54:00.025Z</time></trkpt><trkpt lat="46.3466175" lon="11.6218059"><ele>1119.0</ele><time>2026-04-26T13:54:01.025Z</time></trkpt><trkpt lat="46.346748" lon="11.6220569"><ele>1113.0</ele><time>2026-04-26T13:54:02.025Z</time></trkpt><trkpt lat="46.3468751" lon="11.6223026"><ele>1107.0</ele><time>2026-04-26T13:54:03.025Z</time></trkpt><trkpt lat="46.3469896" lon="11.6225331"><ele>1107.0</ele><time>2026-04-26T13:54:04.025Z</time></trkpt><trkpt lat="46.3470883" lon="11.6227667"><ele>1107.0</ele><time>2026-04-26T13:54:05.025Z</time></trkpt><trkpt lat="46.3471598" lon="11.622999"><ele>1107.0</ele><time>2026-04-26T13:54:06.025Z</time></trkpt><trkpt lat="46.3472116" lon="11.6232416"><ele>1108.6666666666667</ele><time>2026-04-26T13:54:07.025Z</time></trkpt><trkpt lat="46.3472423" lon="11.6234746"><ele>1110.3333333333335</ele><time>2026-04-26T13:54:08.025Z</time></trkpt><trkpt lat="46.3472554" lon="11.6236897"><ele>1112.0</ele><time>2026-04-26T13:54:09.026Z</time></trkpt><trkpt lat="46.3472587" lon="11.6238983"><ele>1112.0</ele><time>2026-04-26T13:54:10.025Z</time></trkpt><trkpt lat="46.3472584" lon="11.6240962"><ele>1112.0</ele><time>2026-04-26T13:54:11.025Z</time></trkpt><trkpt lat="46.347258" lon="11.6242906"><ele>1112.0</ele><time>2026-04-26T13:54:12.025Z</time></trkpt><trkpt lat="46.3472595" lon="11.624479"><ele>1112.0</ele><time>2026-04-26T13:54:13.025Z</time></trkpt><trkpt lat="46.3472632" lon="11.624661"><ele>1110.75</ele><time>2026-04-26T13:54:14.025Z</time></trkpt><trkpt lat="46.347267" lon="11.6248407"><ele>1109.5</ele><time>2026-04-26T13:54:15.026Z</time></trkpt><trkpt lat="46.34728" lon="11.6250307"><ele>1108.25</ele><time>2026-04-26T13:54:16.025Z</time></trkpt><trkpt lat="46.3473008" lon="11.6252173"><ele>1107.0</ele><time>2026-04-26T13:54:17.025Z</time></trkpt><trkpt lat="46.3473255" lon="11.6254072"><ele>1107.0</ele><time>2026-04-26T13:54:18.025Z</time></trkpt><trkpt lat="46.3473547" lon="11.6256068"><ele>1107.0</ele><time>2026-04-26T13:54:19.025Z</time></trkpt><trkpt lat="46.347382" lon="11.625811"><ele>1107.0</ele><time>2026-04-26T13:54:20.025Z</time></trkpt><trkpt lat="46.3474172" lon="11.6260271"><ele>1107.0</ele><time>2026-04-26T13:54:21.025Z</time></trkpt><trkpt lat="46.3474528" lon="11.6262475"><ele>1106.6666666666667</ele><time>2026-04-26T13:54:22.025Z</time></trkpt><trkpt lat="46.347491" lon="11.6264816"><ele>1106.3333333333335</ele><time>2026-04-26T13:54:23.025Z</time></trkpt><trkpt lat="46.3475397" lon="11.6267169"><ele>1106.0</ele><time>2026-04-26T13:54:24.025Z</time></trkpt><trkpt lat="46.3475972" lon="11.6269416"><ele>1106.6666666666667</ele><time>2026-04-26T13:54:25.025Z</time></trkpt><trkpt lat="46.3476708" lon="11.6271619"><ele>1107.3333333333333</ele><time>2026-04-26T13:54:26.025Z</time></trkpt><trkpt lat="46.3477634" lon="11.6273791"><ele>1108.0</ele><time>2026-04-26T13:54:27.025Z</time></trkpt><trkpt lat="46.3478758" lon="11.6275813"><ele>1108.0</ele><time>2026-04-26T13:54:28.026Z</time></trkpt><trkpt lat="46.3480017" lon="11.6277647"><ele>1108.0</ele><time>2026-04-26T13:54:29.025Z</time></trkpt><trkpt lat="46.3481379" lon="11.627934"><ele>1108.0</ele><time>2026-04-26T13:54:30.025Z</time></trkpt><trkpt lat="46.3482847" lon="11.6280897"><ele>1109.6666666666665</ele><time>2026-04-26T13:54:31.025Z</time></trkpt><trkpt lat="46.3484363" lon="11.6282452"><ele>1111.3333333333333</ele><time>2026-04-26T13:54:32.025Z</time></trkpt><trkpt lat="46.3485885" lon="11.6284071"><ele>1113.0</ele><time>2026-04-26T13:54:33.025Z</time></trkpt><trkpt lat="46.3487416" lon="11.6285691"><ele>1114.3333333333333</ele><time>2026-04-26T13:54:34.025Z</time></trkpt><trkpt lat="46.348897" lon="11.6287327"><ele>1115.6666666666665</ele><time>2026-04-26T13:54:35.025Z</time></trkpt><trkpt lat="46.349051" lon="11.6288933"><ele>1117.0</ele><time>2026-04-26T13:54:36.025Z</time></trkpt><trkpt lat="46.3492033" lon="11.629049"><ele>1117.0</ele><time>2026-04-26T13:54:37.025Z</time></trkpt><trkpt lat="46.349362" lon="11.629187"><ele>1117.0</ele><time>2026-04-26T13:54:38.025Z</time></trkpt><trkpt lat="46.3495326" lon="11.6292988"><ele>1117.0</ele><time>2026-04-26T13:54:39.025Z</time></trkpt><trkpt lat="46.349712" lon="11.6293914"><ele>1116.3333333333333</ele><time>2026-04-26T13:54:40.025Z</time></trkpt><trkpt lat="46.3498997" lon="11.6294606"><ele>1115.6666666666667</ele><time>2026-04-26T13:54:41.025Z</time></trkpt><trkpt lat="46.3500944" lon="11.6295117"><ele>1115.0</ele><time>2026-04-26T13:54:42.025Z</time></trkpt><trkpt lat="46.3502932" lon="11.6295525"><ele>1114.6666666666667</ele><time>2026-04-26T13:54:43.025Z</time></trkpt><trkpt lat="46.3504895" lon="11.6295964"><ele>1114.3333333333333</ele><time>2026-04-26T13:54:44.025Z</time></trkpt><trkpt lat="46.3506864" lon="11.6296578"><ele>1114.0</ele><time>2026-04-26T13:54:45.025Z</time></trkpt><trkpt lat="46.3508804" lon="11.629734"><ele>1115.6666666666665</ele><time>2026-04-26T13:54:46.025Z</time></trkpt><trkpt lat="46.3510662" lon="11.6298459"><ele>1117.3333333333333</ele><time>2026-04-26T13:54:47.025Z</time></trkpt><trkpt lat="46.3512332" lon="11.6299885"><ele>1119.0</ele><time>2026-04-26T13:54:48.025Z</time></trkpt><trkpt lat="46.3513952" lon="11.6301458"><ele>1117.0</ele><time>2026-04-26T13:54:49.025Z</time></trkpt><trkpt lat="46.3515459" lon="11.6303225"><ele>1115.0</ele><time>2026-04-26T13:54:50.025Z</time></trkpt><trkpt lat="46.3516917" lon="11.6305012"><ele>1113.0</ele><time>2026-04-26T13:54:51.026Z</time></trkpt><trkpt lat="46.3518347" lon="11.6306718"><ele>1113.0</ele><time>2026-04-26T13:54:52.025Z</time></trkpt><trkpt lat="46.3519726" lon="11.6308355"><ele>1113.0</ele><time>2026-04-26T13:54:53.025Z</time></trkpt><trkpt lat="46.3521105" lon="11.6310015"><ele>1113.0</ele><time>2026-04-26T13:54:54.025Z</time></trkpt><trkpt lat="46.3522484" lon="11.631172"><ele>1116.0</ele><time>2026-04-26T13:54:55.025Z</time></trkpt><trkpt lat="46.3523872" lon="11.6313426"><ele>1119.0</ele><time>2026-04-26T13:54:56.026Z</time></trkpt><trkpt lat="46.3525272" lon="11.631513"><ele>1122.0</ele><time>2026-04-26T13:54:57.025Z</time></trkpt><trkpt lat="46.3526683" lon="11.6316826"><ele>1122.0</ele><time>2026-04-26T13:54:58.025Z</time></trkpt><trkpt lat="46.3528106" lon="11.6318536"><ele>1122.0</ele><time>2026-04-26T13:54:59.025Z</time></trkpt><trkpt lat="46.3529539" lon="11.6320171"><ele>1122.0</ele><time>2026-04-26T13:55:00.025Z</time></trkpt><trkpt lat="46.3530985" lon="11.6321849"><ele>1124.0</ele><time>2026-04-26T13:55:01.025Z</time></trkpt><trkpt lat="46.3532466" lon="11.6323445"><ele>1126.0</ele><time>2026-04-26T13:55:02.025Z</time></trkpt><trkpt lat="46.3533922" lon="11.632517"><ele>1128.0</ele><time>2026-04-26T13:55:03.025Z</time></trkpt><trkpt lat="46.353531" lon="11.6326846"><ele>1129.3333333333333</ele><time>2026-04-26T13:55:04.025Z</time></trkpt><trkpt lat="46.3536709" lon="11.6328522"><ele>1130.6666666666665</ele><time>2026-04-26T13:55:05.025Z</time></trkpt><trkpt lat="46.3538134" lon="11.6330199"><ele>1132.0</ele><time>2026-04-26T13:55:06.025Z</time></trkpt><trkpt lat="46.3539553" lon="11.6331846"><ele>1132.0</ele><time>2026-04-26T13:55:07.025Z</time></trkpt><trkpt lat="46.3540999" lon="11.6333515"><ele>1132.0</ele><time>2026-04-26T13:55:08.025Z</time></trkpt><trkpt lat="46.3542415" lon="11.6335166"><ele>1132.0</ele><time>2026-04-26T13:55:09.025Z</time></trkpt><trkpt lat="46.3543846" lon="11.6336812"><ele>1129.6666666666665</ele><time>2026-04-26T13:55:10.025Z</time></trkpt><trkpt lat="46.3545255" lon="11.6338433"><ele>1127.3333333333333</ele><time>2026-04-26T13:55:11.025Z</time></trkpt><trkpt lat="46.354665" lon="11.6340043"><ele>1125.0</ele><time>2026-04-26T13:55:12.025Z</time></trkpt><trkpt lat="46.3548052" lon="11.6341668"><ele>1125.0</ele><time>2026-04-26T13:55:13.025Z</time></trkpt><trkpt lat="46.3549434" lon="11.6343337"><ele>1125.0</ele><time>2026-04-26T13:55:14.025Z</time></trkpt><trkpt lat="46.3550845" lon="11.6344951"><ele>1125.0</ele><time>2026-04-26T13:55:15.025Z</time></trkpt><trkpt lat="46.3552263" lon="11.634657"><ele>1124.3333333333333</ele><time>2026-04-26T13:55:16.025Z</time></trkpt><trkpt lat="46.3553709" lon="11.6348247"><ele>1123.6666666666665</ele><time>2026-04-26T13:55:17.025Z</time></trkpt><trkpt lat="46.3555101" lon="11.6349987"><ele>1123.0</ele><time>2026-04-26T13:55:18.025Z</time></trkpt><trkpt lat="46.3556447" lon="11.6351817"><ele>1126.6666666666665</ele><time>2026-04-26T13:55:19.025Z</time></trkpt><trkpt lat="46.3557683" lon="11.6353876"><ele>1130.3333333333333</ele><time>2026-04-26T13:55:20.025Z</time></trkpt><trkpt lat="46.3558876" lon="11.6356178"><ele>1134.0</ele><time>2026-04-26T13:55:21.025Z</time></trkpt><trkpt lat="46.3559922" lon="11.635865"><ele>1134.0</ele><time>2026-04-26T13:55:22.025Z</time></trkpt><trkpt lat="46.3560884" lon="11.636129"><ele>1134.0</ele><time>2026-04-26T13:55:23.025Z</time></trkpt><trkpt lat="46.3561704" lon="11.6364257"><ele>1134.0</ele><time>2026-04-26T13:55:24.025Z</time></trkpt><trkpt lat="46.3562487" lon="11.6367258"><ele>1131.3333333333333</ele><time>2026-04-26T13:55:25.026Z</time></trkpt><trkpt lat="46.3563226" lon="11.6370273"><ele>1128.6666666666665</ele><time>2026-04-26T13:55:26.025Z</time></trkpt><trkpt lat="46.3564007" lon="11.6373215"><ele>1126.0</ele><time>2026-04-26T13:55:27.025Z</time></trkpt><trkpt lat="46.3564819" lon="11.6376143"><ele>1130.3333333333333</ele><time>2026-04-26T13:55:28.025Z</time></trkpt><trkpt lat="46.3565599" lon="11.6379092"><ele>1134.6666666666667</ele><time>2026-04-26T13:55:29.025Z</time></trkpt><trkpt lat="46.3566355" lon="11.6382014"><ele>1139.0</ele><time>2026-04-26T13:55:30.025Z</time></trkpt><trkpt lat="46.3567109" lon="11.6384907"><ele>1138.6666666666667</ele><time>2026-04-26T13:55:31.025Z</time></trkpt><trkpt lat="46.3567884" lon="11.6387825"><ele>1138.3333333333333</ele><time>2026-04-26T13:55:32.025Z</time></trkpt><trkpt lat="46.3568603" lon="11.6390738"><ele>1138.0</ele><time>2026-04-26T13:55:33.025Z</time></trkpt><trkpt lat="46.3569375" lon="11.6393546"><ele>1136.6666666666665</ele><time>2026-04-26T13:55:34.025Z</time></trkpt><trkpt lat="46.3570138" lon="11.6396329"><ele>1135.3333333333333</ele><time>2026-04-26T13:55:35.025Z</time></trkpt><trkpt lat="46.357087" lon="11.6399069"><ele>1134.0</ele><time>2026-04-26T13:55:36.025Z</time></trkpt><trkpt lat="46.3571693" lon="11.6401726"><ele>1135.6666666666667</ele><time>2026-04-26T13:55:37.025Z</time></trkpt><trkpt lat="46.3572683" lon="11.6404274"><ele>1137.3333333333335</ele><time>2026-04-26T13:55:38.026Z</time></trkpt><trkpt lat="46.3573876" lon="11.6406579"><ele>1139.0</ele><time>2026-04-26T13:55:39.025Z</time></trkpt><trkpt lat="46.3575281" lon="11.640869"><ele>1139.0</ele><time>2026-04-26T13:55:40.025Z</time></trkpt><trkpt lat="46.3576767" lon="11.6410783"><ele>1139.0</ele><time>2026-04-26T13:55:41.025Z</time></trkpt><trkpt lat="46.3578279" lon="11.6412876"><ele>1139.0</ele><time>2026-04-26T13:55:42.025Z</time></trkpt><trkpt lat="46.3579849" lon="11.6414943"><ele>1137.3333333333335</ele><time>2026-04-26T13:55:43.025Z</time></trkpt><trkpt lat="46.3581405" lon="11.6417047"><ele>1135.6666666666667</ele><time>2026-04-26T13:55:44.025Z</time></trkpt><trkpt lat="46.3582947" lon="11.6419167"><ele>1134.0</ele><time>2026-04-26T13:55:45.025Z</time></trkpt><trkpt lat="46.3584544" lon="11.6421281"><ele>1134.0</ele><time>2026-04-26T13:55:46.025Z</time></trkpt><trkpt lat="46.3586143" lon="11.6423414"><ele>1134.0</ele><time>2026-04-26T13:55:47.025Z</time></trkpt><trkpt lat="46.3587727" lon="11.6425533"><ele>1134.0</ele><time>2026-04-26T13:55:48.025Z</time></trkpt><trkpt lat="46.3589321" lon="11.6427689"><ele>1134.3333333333333</ele><time>2026-04-26T13:55:49.025Z</time></trkpt><trkpt lat="46.3590965" lon="11.6429778"><ele>1134.6666666666665</ele><time>2026-04-26T13:55:50.025Z</time></trkpt><trkpt lat="46.3592627" lon="11.6431798"><ele>1135.0</ele><time>2026-04-26T13:55:51.025Z</time></trkpt><trkpt lat="46.3594364" lon="11.6433685"><ele>1135.0</ele><time>2026-04-26T13:55:52.025Z</time></trkpt><trkpt lat="46.3596201" lon="11.6435373"><ele>1135.0</ele><time>2026-04-26T13:55:53.025Z</time></trkpt><trkpt lat="46.359807" lon="11.643693"><ele>1135.0</ele><time>2026-04-26T13:55:54.025Z</time></trkpt><trkpt lat="46.3599929" lon="11.6438491"><ele>1135.0</ele><time>2026-04-26T13:55:55.025Z</time></trkpt><trkpt lat="46.3601795" lon="11.644015"><ele>1135.0</ele><time>2026-04-26T13:55:56.025Z</time></trkpt><trkpt lat="46.3603589" lon="11.6441779"><ele>1135.0</ele><time>2026-04-26T13:55:57.025Z</time></trkpt><trkpt lat="46.3605387" lon="11.6443366"><ele>1135.3333333333333</ele><time>2026-04-26T13:55:58.025Z</time></trkpt><trkpt lat="46.3607175" lon="11.6444934"><ele>1135.6666666666667</ele><time>2026-04-26T13:55:59.025Z</time></trkpt><trkpt lat="46.3608938" lon="11.6446472"><ele>1136.0</ele><time>2026-04-26T13:56:00.025Z</time></trkpt><trkpt lat="46.3610635" lon="11.6447967"><ele>1136.0</ele><time>2026-04-26T13:56:01.025Z</time></trkpt><trkpt lat="46.361228" lon="11.6449447"><ele>1136.0</ele><time>2026-04-26T13:56:02.025Z</time></trkpt><trkpt lat="46.3613911" lon="11.6450916"><ele>1136.0</ele><time>2026-04-26T13:56:03.025Z</time></trkpt><trkpt lat="46.3615513" lon="11.6452339"><ele>1137.3333333333335</ele><time>2026-04-26T13:56:04.025Z</time></trkpt><trkpt lat="46.3617036" lon="11.6453735"><ele>1138.6666666666667</ele><time>2026-04-26T13:56:05.025Z</time></trkpt><trkpt lat="46.3618557" lon="11.6455164"><ele>1140.0</ele><time>2026-04-26T13:56:06.025Z</time></trkpt><trkpt lat="46.3619974" lon="11.6456602"><ele>1140.0</ele><time>2026-04-26T13:56:07.025Z</time></trkpt><trkpt lat="46.3621369" lon="11.6458003"><ele>1140.0</ele><time>2026-04-26T13:56:08.025Z</time></trkpt><trkpt lat="46.3622771" lon="11.6459402"><ele>1140.0</ele><time>2026-04-26T13:56:09.026Z</time></trkpt><trkpt lat="46.3624089" lon="11.6460664"><ele>1141.75</ele><time>2026-04-26T13:56:10.025Z</time></trkpt><trkpt lat="46.3625398" lon="11.6461933"><ele>1143.5</ele><time>2026-04-26T13:56:11.026Z</time></trkpt><trkpt lat="46.3626599" lon="11.6463139"><ele>1145.25</ele><time>2026-04-26T13:56:12.025Z</time></trkpt><trkpt lat="46.3627757" lon="11.6464221"><ele>1147.0</ele><time>2026-04-26T13:56:13.025Z</time></trkpt><trkpt lat="46.3628838" lon="11.6465248"><ele>1147.0</ele><time>2026-04-26T13:56:14.025Z</time></trkpt><trkpt lat="46.362976" lon="11.6466215"><ele>1147.0</ele><time>2026-04-26T13:56:15.026Z</time></trkpt><trkpt lat="46.3630515" lon="11.646723"><ele>1147.0</ele><time>2026-04-26T13:56:16.025Z</time></trkpt><trkpt lat="46.3631062" lon="11.6468357"><ele>1147.0</ele><time>2026-04-26T13:56:17.025Z</time></trkpt><trkpt lat="46.3631523" lon="11.6469494"><ele>1147.0</ele><time>2026-04-26T13:56:18.025Z</time></trkpt><trkpt lat="46.3632025" lon="11.6470431"><ele>1146.2</ele><time>2026-04-26T13:56:19.025Z</time></trkpt><trkpt lat="46.3632648" lon="11.6471108"><ele>1145.4</ele><time>2026-04-26T13:56:20.025Z</time></trkpt><trkpt lat="46.3633436" lon="11.6471542"><ele>1144.6</ele><time>2026-04-26T13:56:21.025Z</time></trkpt><trkpt lat="46.3634318" lon="11.6471922"><ele>1143.8</ele><time>2026-04-26T13:56:22.025Z</time></trkpt><trkpt lat="46.3635304" lon="11.6472237"><ele>1143.0</ele><time>2026-04-26T13:56:23.025Z</time></trkpt><trkpt lat="46.3636396" lon="11.6472761"><ele>1143.0</ele><time>2026-04-26T13:56:24.025Z</time></trkpt><trkpt lat="46.3637569" lon="11.6473559"><ele>1143.0</ele><time>2026-04-26T13:56:25.025Z</time></trkpt><trkpt lat="46.3638763" lon="11.647457"><ele>1143.0</ele><time>2026-04-26T13:56:26.025Z</time></trkpt><trkpt lat="46.3639921" lon="11.647576"><ele>1143.0</ele><time>2026-04-26T13:56:27.025Z</time></trkpt><trkpt lat="46.3641048" lon="11.6477115"><ele>1143.0</ele><time>2026-04-26T13:56:28.025Z</time></trkpt><trkpt lat="46.3642063" lon="11.6478759"><ele>1143.0</ele><time>2026-04-26T13:56:29.025Z</time></trkpt><trkpt lat="46.3642979" lon="11.648051"><ele>1143.0</ele><time>2026-04-26T13:56:30.025Z</time></trkpt><trkpt lat="46.3643787" lon="11.6482485"><ele>1143.0</ele><time>2026-04-26T13:56:31.025Z</time></trkpt><trkpt lat="46.3644512" lon="11.6484625"><ele>1143.0</ele><time>2026-04-26T13:56:32.025Z</time></trkpt><trkpt lat="46.3645245" lon="11.6486767"><ele>1143.0</ele><time>2026-04-26T13:56:33.025Z</time></trkpt><trkpt lat="46.3645989" lon="11.6488958"><ele>1146.3333333333333</ele><time>2026-04-26T13:56:34.025Z</time></trkpt><trkpt lat="46.3646735" lon="11.6491212"><ele>1149.6666666666665</ele><time>2026-04-26T13:56:35.026Z</time></trkpt><trkpt lat="46.364755" lon="11.6493424"><ele>1153.0</ele><time>2026-04-26T13:56:36.025Z</time></trkpt><trkpt lat="46.364848" lon="11.6495585"><ele>1161.3333333333333</ele><time>2026-04-26T13:56:37.025Z</time></trkpt><trkpt lat="46.3649498" lon="11.6497667"><ele>1169.6666666666667</ele><time>2026-04-26T13:56:38.025Z</time></trkpt><trkpt lat="46.3650649" lon="11.6499641"><ele>1178.0</ele><time>2026-04-26T13:56:39.026Z</time></trkpt><trkpt lat="46.3651919" lon="11.65015"><ele>1178.0</ele><time>2026-04-26T13:56:40.025Z</time></trkpt><trkpt lat="46.365333" lon="11.6503271"><ele>1178.0</ele><time>2026-04-26T13:56:41.025Z</time></trkpt><trkpt lat="46.3654777" lon="11.6504875"><ele>1178.0</ele><time>2026-04-26T13:56:42.025Z</time></trkpt><trkpt lat="46.3656243" lon="11.6506431"><ele>1178.0</ele><time>2026-04-26T13:56:43.025Z</time></trkpt><trkpt lat="46.3657746" lon="11.6507968"><ele>1178.0</ele><time>2026-04-26T13:56:44.025Z</time></trkpt><trkpt lat="46.3659274" lon="11.6509492"><ele>1178.0</ele><time>2026-04-26T13:56:45.025Z</time></trkpt><trkpt lat="46.3660797" lon="11.6511047"><ele>1177.3333333333335</ele><time>2026-04-26T13:56:46.025Z</time></trkpt><trkpt lat="46.366228" lon="11.651268"><ele>1176.6666666666667</ele><time>2026-04-26T13:56:47.025Z</time></trkpt><trkpt lat="46.3663746" lon="11.6514389"><ele>1176.0</ele><time>2026-04-26T13:56:48.025Z</time></trkpt><trkpt lat="46.366517" lon="11.6516115"><ele>1176.0</ele><time>2026-04-26T13:56:49.025Z</time></trkpt><trkpt lat="46.3666619" lon="11.6517906"><ele>1176.0</ele><time>2026-04-26T13:56:50.025Z</time></trkpt><trkpt lat="46.3668073" lon="11.6519703"><ele>1176.0</ele><time>2026-04-26T13:56:51.025Z</time></trkpt><trkpt lat="46.3669521" lon="11.6521513"><ele>1178.0</ele><time>2026-04-26T13:56:52.025Z</time></trkpt><trkpt lat="46.3671008" lon="11.6523261"><ele>1180.0</ele><time>2026-04-26T13:56:53.025Z</time></trkpt><trkpt lat="46.3672491" lon="11.6525048"><ele>1182.0</ele><time>2026-04-26T13:56:54.025Z</time></trkpt><trkpt lat="46.3674026" lon="11.6526824"><ele>1192.0</ele><time>2026-04-26T13:56:55.025Z</time></trkpt><trkpt lat="46.3675534" lon="11.6528569"><ele>1202.0</ele><time>2026-04-26T13:56:56.025Z</time></trkpt><trkpt lat="46.3677028" lon="11.653029"><ele>1212.0</ele><time>2026-04-26T13:56:57.025Z</time></trkpt><trkpt lat="46.3678551" lon="11.6532025"><ele>1212.0</ele><time>2026-04-26T13:56:58.025Z</time></trkpt><trkpt lat="46.368003" lon="11.6533721"><ele>1212.0</ele><time>2026-04-26T13:56:59.025Z</time></trkpt><trkpt lat="46.3681509" lon="11.6535418"><ele>1212.0</ele><time>2026-04-26T13:57:00.025Z</time></trkpt><trkpt lat="46.3682939" lon="11.6537126"><ele>1213.0</ele><time>2026-04-26T13:57:01.025Z</time></trkpt><trkpt lat="46.3684371" lon="11.6538831"><ele>1214.0</ele><time>2026-04-26T13:57:02.025Z</time></trkpt><trkpt lat="46.3685729" lon="11.6540628"><ele>1215.0</ele><time>2026-04-26T13:57:03.025Z</time></trkpt><trkpt lat="46.3687044" lon="11.6542475"><ele>1215.0</ele><time>2026-04-26T13:57:04.025Z</time></trkpt><trkpt lat="46.3688306" lon="11.6544483"><ele>1215.0</ele><time>2026-04-26T13:57:05.026Z</time></trkpt><trkpt lat="46.3689529" lon="11.654651"><ele>1215.0</ele><time>2026-04-26T13:57:06.025Z</time></trkpt><trkpt lat="46.3690727" lon="11.6548525"><ele>1210.6666666666667</ele><time>2026-04-26T13:57:07.025Z</time></trkpt><trkpt lat="46.3691967" lon="11.6550549"><ele>1206.3333333333335</ele><time>2026-04-26T13:57:08.026Z</time></trkpt><trkpt lat="46.3693182" lon="11.6552585"><ele>1202.0</ele><time>2026-04-26T13:57:09.025Z</time></trkpt><trkpt lat="46.3694385" lon="11.6554612"><ele>1198.6666666666667</ele><time>2026-04-26T13:57:10.025Z</time></trkpt><trkpt lat="46.3695586" lon="11.6556616"><ele>1195.3333333333333</ele><time>2026-04-26T13:57:11.025Z</time></trkpt><trkpt lat="46.3696759" lon="11.6558622"><ele>1192.0</ele><time>2026-04-26T13:57:12.026Z</time></trkpt><trkpt lat="46.369793" lon="11.6560634"><ele>1199.0</ele><time>2026-04-26T13:57:13.025Z</time></trkpt><trkpt lat="46.3699097" lon="11.6562606"><ele>1206.0</ele><time>2026-04-26T13:57:14.025Z</time></trkpt><trkpt lat="46.3700263" lon="11.6564592"><ele>1213.0</ele><time>2026-04-26T13:57:15.025Z</time></trkpt><trkpt lat="46.3701398" lon="11.6566586"><ele>1213.0</ele><time>2026-04-26T13:57:16.025Z</time></trkpt><trkpt lat="46.3702509" lon="11.6568546"><ele>1213.0</ele><time>2026-04-26T13:57:17.025Z</time></trkpt><trkpt lat="46.3703613" lon="11.657051"><ele>1213.0</ele><time>2026-04-26T13:57:18.025Z</time></trkpt><trkpt lat="46.3704673" lon="11.6572533"><ele>1212.3333333333333</ele><time>2026-04-26T13:57:19.025Z</time></trkpt><trkpt lat="46.3705771" lon="11.6574525"><ele>1211.6666666666667</ele><time>2026-04-26T13:57:20.025Z</time></trkpt><trkpt lat="46.370685" lon="11.6576491"><ele>1211.0</ele><time>2026-04-26T13:57:21.025Z</time></trkpt><trkpt lat="46.3707943" lon="11.6578435"><ele>1219.6666666666667</ele><time>2026-04-26T13:57:22.025Z</time></trkpt><trkpt lat="46.3709012" lon="11.6580318"><ele>1228.3333333333333</ele><time>2026-04-26T13:57:23.025Z</time></trkpt><trkpt lat="46.3710064" lon="11.6582188"><ele>1237.0</ele><time>2026-04-26T13:57:24.026Z</time></trkpt><trkpt lat="46.3711101" lon="11.6584007"><ele>1237.0</ele><time>2026-04-26T13:57:25.025Z</time></trkpt><trkpt lat="46.3712109" lon="11.6585912"><ele>1237.0</ele><time>2026-04-26T13:57:26.025Z</time></trkpt><trkpt lat="46.371313" lon="11.6587839"><ele>1237.0</ele><time>2026-04-26T13:57:27.025Z</time></trkpt><trkpt lat="46.3719579" lon="11.6597763"><ele>1239.25</ele><time>2026-04-26T13:57:33.025Z</time></trkpt><trkpt lat="46.3720702" lon="11.6598788"><ele>1241.5</ele><time>2026-04-26T13:57:34.025Z</time></trkpt><trkpt lat="46.3721736" lon="11.6599982"><ele>1243.75</ele><time>2026-04-26T13:57:35.025Z</time></trkpt><trkpt lat="46.3722806" lon="11.6601328"><ele>1246.0</ele><time>2026-04-26T13:57:36.025Z</time></trkpt><trkpt lat="46.3723776" lon="11.6602757"><ele>1245.0</ele><time>2026-04-26T13:57:37.025Z</time></trkpt><trkpt lat="46.3724628" lon="11.6604242"><ele>1244.0</ele><time>2026-04-26T13:57:38.025Z</time></trkpt><trkpt lat="46.3725401" lon="11.6605921"><ele>1243.0</ele><time>2026-04-26T13:57:39.025Z</time></trkpt><trkpt lat="46.3726146" lon="11.6607895"><ele>1242.0</ele><time>2026-04-26T13:57:40.025Z</time></trkpt><trkpt lat="46.3726792" lon="11.6609798"><ele>1247.5</ele><time>2026-04-26T13:57:41.025Z</time></trkpt><trkpt lat="46.372743" lon="11.6611802"><ele>1253.0</ele><time>2026-04-26T13:57:42.025Z</time></trkpt><trkpt lat="46.3728008" lon="11.6613739"><ele>1258.5</ele><time>2026-04-26T13:57:43.025Z</time></trkpt><trkpt lat="46.372858" lon="11.6615762"><ele>1264.0</ele><time>2026-04-26T13:57:44.025Z</time></trkpt><trkpt lat="46.3729139" lon="11.6617676"><ele>1260.5</ele><time>2026-04-26T13:57:45.025Z</time></trkpt><trkpt lat="46.3729712" lon="11.6619585"><ele>1257.0</ele><time>2026-04-26T13:57:46.025Z</time></trkpt><trkpt lat="46.3741424" lon="11.6663378"><ele>1257.0</ele><time>2026-04-26T13:58:10.025Z</time></trkpt><trkpt lat="46.3742077" lon="11.6665538"><ele>1257.0</ele><time>2026-04-26T13:58:11.025Z</time></trkpt><trkpt lat="46.3742278" lon="11.6666681"><ele>1257.0</ele><time>2026-04-26T13:58:12.025Z</time></trkpt><trkpt lat="46.3742812" lon="11.6667894"><ele>1257.0</ele><time>2026-04-26T13:58:13.025Z</time></trkpt><trkpt lat="46.374315" lon="11.6669002"><ele>1257.0</ele><time>2026-04-26T13:58:14.025Z</time></trkpt><trkpt lat="46.37436" lon="11.6669932"><ele>1257.6</ele><time>2026-04-26T13:58:15.025Z</time></trkpt><trkpt lat="46.3744035" lon="11.6671223"><ele>1258.2</ele><time>2026-04-26T13:58:16.025Z</time></trkpt><trkpt lat="46.374421" lon="11.6672709"><ele>1258.8</ele><time>2026-04-26T13:58:17.025Z</time></trkpt><trkpt lat="46.374427" lon="11.6674327"><ele>1259.4</ele><time>2026-04-26T13:58:18.025Z</time></trkpt><trkpt lat="46.3744225" lon="11.667602"><ele>1260.0</ele><time>2026-04-26T13:58:19.025Z</time></trkpt><trkpt lat="46.3744076" lon="11.667782"><ele>1262.5</ele><time>2026-04-26T13:58:20.025Z</time></trkpt><trkpt lat="46.374393" lon="11.6679696"><ele>1265.0</ele><time>2026-04-26T13:58:21.025Z</time></trkpt><trkpt lat="46.3743747" lon="11.6681534"><ele>1267.5</ele><time>2026-04-26T13:58:22.025Z</time></trkpt><trkpt lat="46.3743606" lon="11.6683461"><ele>1270.0</ele><time>2026-04-26T13:58:23.025Z</time></trkpt><trkpt lat="46.3743474" lon="11.6685396"><ele>1271.5</ele><time>2026-04-26T13:58:24.025Z</time></trkpt><trkpt lat="46.3743422" lon="11.6687259"><ele>1273.0</ele><time>2026-04-26T13:58:25.025Z</time></trkpt><trkpt lat="46.3743457" lon="11.6689161"><ele>1274.5</ele><time>2026-04-26T13:58:26.025Z</time></trkpt><trkpt lat="46.3743482" lon="11.6691068"><ele>1276.0</ele><time>2026-04-26T13:58:27.026Z</time></trkpt><trkpt lat="46.3743738" lon="11.6692895"><ele>1274.5</ele><time>2026-04-26T13:58:28.025Z</time></trkpt><trkpt lat="46.3743998" lon="11.6694732"><ele>1273.0</ele><time>2026-04-26T13:58:29.024Z</time></trkpt><trkpt lat="46.3744307" lon="11.6696546"><ele>1271.5</ele><time>2026-04-26T13:58:30.024Z</time></trkpt><trkpt lat="46.3744812" lon="11.6698372"><ele>1270.0</ele><time>2026-04-26T13:58:31.024Z</time></trkpt><trkpt lat="46.3745404" lon="11.6700175"><ele>1270.0</ele><time>2026-04-26T13:58:32.024Z</time></trkpt><trkpt lat="46.3746102" lon="11.6701978"><ele>1270.0</ele><time>2026-04-26T13:58:33.024Z</time></trkpt><trkpt lat="46.3746919" lon="11.670371"><ele>1270.0</ele><time>2026-04-26T13:58:34.024Z</time></trkpt><trkpt lat="46.3747828" lon="11.6705328"><ele>1270.0</ele><time>2026-04-26T13:58:35.025Z</time></trkpt><trkpt lat="46.3748794" lon="11.6706808"><ele>1268.75</ele><time>2026-04-26T13:58:36.024Z</time></trkpt><trkpt lat="46.3749897" lon="11.6708111"><ele>1267.5</ele><time>2026-04-26T13:58:37.024Z</time></trkpt><trkpt lat="46.3751058" lon="11.6709353"><ele>1266.25</ele><time>2026-04-26T13:58:38.024Z</time></trkpt><trkpt lat="46.3752297" lon="11.671053"><ele>1265.0</ele><time>2026-04-26T13:58:39.024Z</time></trkpt><trkpt lat="46.3753629" lon="11.6711543"><ele>1248.0</ele><time>2026-04-26T13:58:40.024Z</time></trkpt><trkpt lat="46.3854127" lon="11.6689586"><ele>1248.0</ele><time>2026-04-26T13:59:42.024Z</time></trkpt><trkpt lat="46.3854998" lon="11.6690159"><ele>1248.0</ele><time>2026-04-26T13:59:43.024Z</time></trkpt><trkpt lat="46.3855759" lon="11.6690072"><ele>1248.0</ele><time>2026-04-26T13:59:44.024Z</time></trkpt><trkpt lat="46.3856495" lon="11.6689451"><ele>1248.0</ele><time>2026-04-26T13:59:45.024Z</time></trkpt><trkpt lat="46.3856982" lon="11.6688491"><ele>1248.0</ele><time>2026-04-26T13:59:46.024Z</time></trkpt><trkpt lat="46.3857399" lon="11.6687699"><ele>1248.0</ele><time>2026-04-26T13:59:47.024Z</time></trkpt><trkpt lat="46.3857901" lon="11.6686492"><ele>1240.8</ele><time>2026-04-26T13:59:48.024Z</time></trkpt><trkpt lat="46.3858502" lon="11.6685415"><ele>1233.6</ele><time>2026-04-26T13:59:49.024Z</time></trkpt><trkpt lat="46.3859298" lon="11.6684596"><ele>1226.4</ele><time>2026-04-26T13:59:50.024Z</time></trkpt><trkpt lat="46.3860204" lon="11.6683917"><ele>1219.2</ele><time>2026-04-26T13:59:51.024Z</time></trkpt><trkpt lat="46.3861214" lon="11.6683263"><ele>1212.0</ele><time>2026-04-26T13:59:52.024Z</time></trkpt><trkpt lat="46.3862246" lon="11.668249"><ele>1212.0</ele><time>2026-04-26T13:59:53.024Z</time></trkpt><trkpt lat="46.3863274" lon="11.6681652"><ele>1212.0</ele><time>2026-04-26T13:59:54.024Z</time></trkpt><trkpt lat="46.3864303" lon="11.6680598"><ele>1212.0</ele><time>2026-04-26T13:59:55.024Z</time></trkpt><trkpt lat="46.3865347" lon="11.6679413"><ele>1212.0</ele><time>2026-04-26T13:59:56.025Z</time></trkpt><trkpt lat="46.3866489" lon="11.6678163"><ele>1210.75</ele><time>2026-04-26T13:59:57.024Z</time></trkpt><trkpt lat="46.3867638" lon="11.6676901"><ele>1209.5</ele><time>2026-04-26T13:59:58.024Z</time></trkpt><trkpt lat="46.3868753" lon="11.6675624"><ele>1208.25</ele><time>2026-04-26T13:59:59.024Z</time></trkpt><trkpt lat="46.3869844" lon="11.667439"><ele>1207.0</ele><time>2026-04-26T14:00:00.024Z</time></trkpt><trkpt lat="46.3870886" lon="11.667319"><ele>1209.25</ele><time>2026-04-26T14:00:01.024Z</time></trkpt><trkpt lat="46.3871922" lon="11.6672148"><ele>1211.5</ele><time>2026-04-26T14:00:02.024Z</time></trkpt><trkpt lat="46.3873043" lon="11.6671494"><ele>1213.75</ele><time>2026-04-26T14:00:03.024Z</time></trkpt><trkpt lat="46.3874174" lon="11.6671085"><ele>1216.0</ele><time>2026-04-26T14:00:04.024Z</time></trkpt><trkpt lat="46.3875387" lon="11.6670905"><ele>1216.0</ele><time>2026-04-26T14:00:05.025Z</time></trkpt><trkpt lat="46.3876692" lon="11.6670922"><ele>1216.0</ele><time>2026-04-26T14:00:06.024Z</time></trkpt><trkpt lat="46.3877952" lon="11.6671252"><ele>1216.0</ele><time>2026-04-26T14:00:07.024Z</time></trkpt><trkpt lat="46.3879146" lon="11.6671863"><ele>1216.0</ele><time>2026-04-26T14:00:08.024Z</time></trkpt><trkpt lat="46.3880341" lon="11.6672637"><ele>1217.5</ele><time>2026-04-26T14:00:09.024Z</time></trkpt><trkpt lat="46.3881637" lon="11.6673472"><ele>1219.0</ele><time>2026-04-26T14:00:10.024Z</time></trkpt><trkpt lat="46.3882991" lon="11.6674225"><ele>1220.5</ele><time>2026-04-26T14:00:11.024Z</time></trkpt><trkpt lat="46.388449" lon="11.6674757"><ele>1222.0</ele><time>2026-04-26T14:00:12.024Z</time></trkpt><trkpt lat="46.3885956" lon="11.6675183"><ele>1222.0</ele><time>2026-04-26T14:00:13.025Z</time></trkpt><trkpt lat="46.3887464" lon="11.667562"><ele>1222.0</ele><time>2026-04-26T14:00:14.024Z</time></trkpt><trkpt lat="46.3888988" lon="11.6676037"><ele>1222.0</ele><time>2026-04-26T14:00:15.024Z</time></trkpt><trkpt lat="46.3890526" lon="11.667651"><ele>1221.75</ele><time>2026-04-26T14:00:16.024Z</time></trkpt><trkpt lat="46.3891984" lon="11.6676961"><ele>1221.5</ele><time>2026-04-26T14:00:17.024Z</time></trkpt><trkpt lat="46.3893394" lon="11.6677341"><ele>1221.25</ele><time>2026-04-26T14:00:18.024Z</time></trkpt><trkpt lat="46.3894789" lon="11.6677456"><ele>1221.0</ele><time>2026-04-26T14:00:19.024Z</time></trkpt><trkpt lat="46.3896154" lon="11.6677147"><ele>1219.5</ele><time>2026-04-26T14:00:20.024Z</time></trkpt><trkpt lat="46.389754" lon="11.6676605"><ele>1218.0</ele><time>2026-04-26T14:00:21.024Z</time></trkpt><trkpt lat="46.389887" lon="11.6675803"><ele>1216.5</ele><time>2026-04-26T14:00:22.024Z</time></trkpt><trkpt lat="46.3900166" lon="11.6674882"><ele>1215.0</ele><time>2026-04-26T14:00:23.024Z</time></trkpt><trkpt lat="46.3901502" lon="11.6673842"><ele>1215.0</ele><time>2026-04-26T14:00:24.024Z</time></trkpt><trkpt lat="46.3902844" lon="11.6672868"><ele>1215.0</ele><time>2026-04-26T14:00:25.024Z</time></trkpt><trkpt lat="46.3904155" lon="11.667193"><ele>1215.0</ele><time>2026-04-26T14:00:26.024Z</time></trkpt><trkpt lat="46.3905415" lon="11.667104"><ele>1215.0</ele><time>2026-04-26T14:00:27.024Z</time></trkpt><trkpt lat="46.3906653" lon="11.6670323"><ele>1217.25</ele><time>2026-04-26T14:00:28.024Z</time></trkpt><trkpt lat="46.3907926" lon="11.6669645"><ele>1219.5</ele><time>2026-04-26T14:00:29.024Z</time></trkpt><trkpt lat="46.3909166" lon="11.6669092"><ele>1221.75</ele><time>2026-04-26T14:00:30.024Z</time></trkpt><trkpt lat="46.3910386" lon="11.6668628"><ele>1224.0</ele><time>2026-04-26T14:00:31.024Z</time></trkpt><trkpt lat="46.3911607" lon="11.6668287"><ele>1219.5</ele><time>2026-04-26T14:00:32.024Z</time></trkpt><trkpt lat="46.3912832" lon="11.6668041"><ele>1215.0</ele><time>2026-04-26T14:00:33.024Z</time></trkpt><trkpt lat="46.3914047" lon="11.6667875"><ele>1210.5</ele><time>2026-04-26T14:00:34.024Z</time></trkpt><trkpt lat="46.3915281" lon="11.6667768"><ele>1206.0</ele><time>2026-04-26T14:00:35.024Z</time></trkpt><trkpt lat="46.3916571" lon="11.6667803"><ele>1206.0</ele><time>2026-04-26T14:00:36.024Z</time></trkpt><trkpt lat="46.3917845" lon="11.6667881"><ele>1206.0</ele><time>2026-04-26T14:00:37.024Z</time></trkpt><trkpt lat="46.3919142" lon="11.6667807"><ele>1206.0</ele><time>2026-04-26T14:00:38.024Z</time></trkpt><trkpt lat="46.3920379" lon="11.6667798"><ele>1206.0</ele><time>2026-04-26T14:00:39.024Z</time></trkpt><trkpt lat="46.3921547" lon="11.6667739"><ele>1206.0</ele><time>2026-04-26T14:00:40.024Z</time></trkpt><trkpt lat="46.3922749" lon="11.6667759"><ele>1206.0</ele><time>2026-04-26T14:00:41.024Z</time></trkpt><trkpt lat="46.3923904" lon="11.666774"><ele>1206.0</ele><time>2026-04-26T14:00:42.024Z</time></trkpt><trkpt lat="46.3925082" lon="11.6667673"><ele>1206.0</ele><time>2026-04-26T14:00:43.024Z</time></trkpt><trkpt lat="46.3926285" lon="11.6667676"><ele>1206.0</ele><time>2026-04-26T14:00:44.024Z</time></trkpt><trkpt lat="46.3927485" lon="11.6667663"><ele>1206.0</ele><time>2026-04-26T14:00:45.024Z</time></trkpt><trkpt lat="46.3928706" lon="11.6667607"><ele>1206.0</ele><time>2026-04-26T14:00:46.024Z</time></trkpt><trkpt lat="46.3929903" lon="11.666744"><ele>1206.0</ele><time>2026-04-26T14:00:47.024Z</time></trkpt><trkpt lat="46.3931083" lon="11.6667051"><ele>1206.25</ele><time>2026-04-26T14:00:48.024Z</time></trkpt><trkpt lat="46.3932163" lon="11.6666445"><ele>1206.5</ele><time>2026-04-26T14:00:49.024Z</time></trkpt><trkpt lat="46.393325" lon="11.6665641"><ele>1206.75</ele><time>2026-04-26T14:00:50.024Z</time></trkpt><trkpt lat="46.3934299" lon="11.6664893"><ele>1207.0</ele><time>2026-04-26T14:00:51.024Z</time></trkpt><trkpt lat="46.3935368" lon="11.6664196"><ele>1207.0</ele><time>2026-04-26T14:00:52.024Z</time></trkpt><trkpt lat="46.3936477" lon="11.6663736"><ele>1207.0</ele><time>2026-04-26T14:00:53.024Z</time></trkpt><trkpt lat="46.3937574" lon="11.6663672"><ele>1207.0</ele><time>2026-04-26T14:00:54.024Z</time></trkpt><trkpt lat="46.3938808" lon="11.6663783"><ele>1207.0</ele><time>2026-04-26T14:00:55.024Z</time></trkpt><trkpt lat="46.3939987" lon="11.6664204"><ele>1207.5</ele><time>2026-04-26T14:00:56.024Z</time></trkpt><trkpt lat="46.3941085" lon="11.6664841"><ele>1208.0</ele><time>2026-04-26T14:00:57.024Z</time></trkpt><trkpt lat="46.3942139" lon="11.6665669"><ele>1208.5</ele><time>2026-04-26T14:00:58.024Z</time></trkpt><trkpt lat="46.3943211" lon="11.6666516"><ele>1209.0</ele><time>2026-04-26T14:00:59.024Z</time></trkpt><trkpt lat="46.3944267" lon="11.6667394"><ele>1209.0</ele><time>2026-04-26T14:01:00.024Z</time></trkpt><trkpt lat="46.3945281" lon="11.6668328"><ele>1209.0</ele><time>2026-04-26T14:01:01.024Z</time></trkpt><trkpt lat="46.39463" lon="11.6669195"><ele>1209.0</ele><time>2026-04-26T14:01:02.024Z</time></trkpt><trkpt lat="46.3947228" lon="11.6669988"><ele>1209.0</ele><time>2026-04-26T14:01:03.025Z</time></trkpt><trkpt lat="46.3948199" lon="11.6670835"><ele>1209.5</ele><time>2026-04-26T14:01:04.024Z</time></trkpt><trkpt lat="46.3949156" lon="11.6671673"><ele>1210.0</ele><time>2026-04-26T14:01:05.024Z</time></trkpt><trkpt lat="46.395017" lon="11.6672475"><ele>1210.5</ele><time>2026-04-26T14:01:06.024Z</time></trkpt><trkpt lat="46.3951186" lon="11.6673248"><ele>1211.0</ele><time>2026-04-26T14:01:07.024Z</time></trkpt><trkpt lat="46.3952231" lon="11.6674043"><ele>1211.0</ele><time>2026-04-26T14:01:08.024Z</time></trkpt><trkpt lat="46.3953263" lon="11.6674877"><ele>1211.0</ele><time>2026-04-26T14:01:09.025Z</time></trkpt><trkpt lat="46.395428" lon="11.6675738"><ele>1211.0</ele><time>2026-04-26T14:01:10.024Z</time></trkpt><trkpt lat="46.3955222" lon="11.6676794"><ele>1211.0</ele><time>2026-04-26T14:01:11.024Z</time></trkpt><trkpt lat="46.395606" lon="11.6677954"><ele>1211.8</ele><time>2026-04-26T14:01:12.024Z</time></trkpt><trkpt lat="46.395673" lon="11.667927"><ele>1212.6</ele><time>2026-04-26T14:01:13.024Z</time></trkpt><trkpt lat="46.395722" lon="11.6680721"><ele>1213.4</ele><time>2026-04-26T14:01:14.024Z</time></trkpt><trkpt lat="46.3957587" lon="11.6682202"><ele>1214.2</ele><time>2026-04-26T14:01:15.024Z</time></trkpt><trkpt lat="46.3957839" lon="11.6683722"><ele>1215.0</ele><time>2026-04-26T14:01:16.024Z</time></trkpt><trkpt lat="46.3958211" lon="11.6685161"><ele>1214.6</ele><time>2026-04-26T14:01:17.024Z</time></trkpt><trkpt lat="46.3958764" lon="11.6686461"><ele>1214.2</ele><time>2026-04-26T14:01:18.024Z</time></trkpt><trkpt lat="46.3959493" lon="11.6687694"><ele>1213.8</ele><time>2026-04-26T14:01:19.024Z</time></trkpt><trkpt lat="46.3960303" lon="11.6688814"><ele>1213.4</ele><time>2026-04-26T14:01:20.024Z</time></trkpt><trkpt lat="46.3961211" lon="11.6689948"><ele>1213.0</ele><time>2026-04-26T14:01:21.024Z</time></trkpt><trkpt lat="46.3962119" lon="11.6691087"><ele>1213.0</ele><time>2026-04-26T14:01:22.024Z</time></trkpt><trkpt lat="46.3963029" lon="11.6692122"><ele>1213.0</ele><time>2026-04-26T14:01:23.024Z</time></trkpt><trkpt lat="46.3964078" lon="11.6693003"><ele>1213.0</ele><time>2026-04-26T14:01:24.024Z</time></trkpt><trkpt lat="46.3965179" lon="11.669377"><ele>1213.0</ele><time>2026-04-26T14:01:25.024Z</time></trkpt><trkpt lat="46.3966333" lon="11.66944"><ele>1213.0</ele><time>2026-04-26T14:01:26.024Z</time></trkpt><trkpt lat="46.3967552" lon="11.6694797"><ele>1213.0</ele><time>2026-04-26T14:01:27.024Z</time></trkpt><trkpt lat="46.3968787" lon="11.6694809"><ele>1213.0</ele><time>2026-04-26T14:01:28.024Z</time></trkpt><trkpt lat="46.3970022" lon="11.6694564"><ele>1213.0</ele><time>2026-04-26T14:01:29.024Z</time></trkpt><trkpt lat="46.3971254" lon="11.6694149"><ele>1214.5</ele><time>2026-04-26T14:01:30.024Z</time></trkpt><trkpt lat="46.3972457" lon="11.6693469"><ele>1216.0</ele><time>2026-04-26T14:01:31.024Z</time></trkpt><trkpt lat="46.3973638" lon="11.6692802"><ele>1217.5</ele><time>2026-04-26T14:01:32.024Z</time></trkpt><trkpt lat="46.3974882" lon="11.6692213"><ele>1219.0</ele><time>2026-04-26T14:01:33.024Z</time></trkpt><trkpt lat="46.3976202" lon="11.6691589"><ele>1219.0</ele><time>2026-04-26T14:01:34.024Z</time></trkpt><trkpt lat="46.3977544" lon="11.6691089"><ele>1219.0</ele><time>2026-04-26T14:01:35.024Z</time></trkpt><trkpt lat="46.397887" lon="11.6690706"><ele>1219.0</ele><time>2026-04-26T14:01:36.024Z</time></trkpt><trkpt lat="46.3980213" lon="11.6690657"><ele>1219.0</ele><time>2026-04-26T14:01:37.024Z</time></trkpt><trkpt lat="46.398153" lon="11.6690697"><ele>1220.0</ele><time>2026-04-26T14:01:38.024Z</time></trkpt><trkpt lat="46.3982912" lon="11.669075"><ele>1221.0</ele><time>2026-04-26T14:01:39.024Z</time></trkpt><trkpt lat="46.3984253" lon="11.6690745"><ele>1222.0</ele><time>2026-04-26T14:01:40.024Z</time></trkpt><trkpt lat="46.3985632" lon="11.6690714"><ele>1223.0</ele><time>2026-04-26T14:01:41.024Z</time></trkpt><trkpt lat="46.3987052" lon="11.6690812"><ele>1222.5</ele><time>2026-04-26T14:01:42.024Z</time></trkpt><trkpt lat="46.3988492" lon="11.6690969"><ele>1222.0</ele><time>2026-04-26T14:01:43.025Z</time></trkpt><trkpt lat="46.3989891" lon="11.6691295"><ele>1221.5</ele><time>2026-04-26T14:01:44.024Z</time></trkpt><trkpt lat="46.3991315" lon="11.669178"><ele>1221.0</ele><time>2026-04-26T14:01:45.024Z</time></trkpt><trkpt lat="46.3992657" lon="11.6692522"><ele>1221.0</ele><time>2026-04-26T14:01:46.024Z</time></trkpt><trkpt lat="46.3993932" lon="11.6693492"><ele>1221.0</ele><time>2026-04-26T14:01:47.024Z</time></trkpt><trkpt lat="46.3995192" lon="11.6694607"><ele>1221.0</ele><time>2026-04-26T14:01:48.024Z</time></trkpt><trkpt lat="46.3996333" lon="11.6695826"><ele>1221.0</ele><time>2026-04-26T14:01:49.024Z</time></trkpt><trkpt lat="46.3997485" lon="11.6697159"><ele>1220.3333333333333</ele><time>2026-04-26T14:01:50.024Z</time></trkpt><trkpt lat="46.3998657" lon="11.669845"><ele>1219.6666666666665</ele><time>2026-04-26T14:01:51.024Z</time></trkpt><trkpt lat="46.3999882" lon="11.669979"><ele>1219.0</ele><time>2026-04-26T14:01:52.024Z</time></trkpt><trkpt lat="46.4001195" lon="11.6701162"><ele>1219.0</ele><time>2026-04-26T14:01:53.024Z</time></trkpt><trkpt lat="46.4002515" lon="11.6702612"><ele>1219.0</ele><time>2026-04-26T14:01:54.024Z</time></trkpt><trkpt lat="46.4003875" lon="11.6704156"><ele>1219.0</ele><time>2026-04-26T14:01:55.024Z</time></trkpt><trkpt lat="46.4005249" lon="11.6705652"><ele>1221.6666666666665</ele><time>2026-04-26T14:01:56.024Z</time></trkpt><trkpt lat="46.4006646" lon="11.6707155"><ele>1224.3333333333333</ele><time>2026-04-26T14:01:57.024Z</time></trkpt><trkpt lat="46.4008068" lon="11.6708643"><ele>1227.0</ele><time>2026-04-26T14:01:58.024Z</time></trkpt><trkpt lat="46.4009509" lon="11.6710215"><ele>1226.3333333333333</ele><time>2026-04-26T14:01:59.024Z</time></trkpt><trkpt lat="46.4010934" lon="11.6711744"><ele>1225.6666666666665</ele><time>2026-04-26T14:02:00.024Z</time></trkpt><trkpt lat="46.4012376" lon="11.6713265"><ele>1225.0</ele><time>2026-04-26T14:02:01.024Z</time></trkpt><trkpt lat="46.4013833" lon="11.6714755"><ele>1225.0</ele><time>2026-04-26T14:02:02.025Z</time></trkpt><trkpt lat="46.4015239" lon="11.6716265"><ele>1225.0</ele><time>2026-04-26T14:02:03.024Z</time></trkpt><trkpt lat="46.4016677" lon="11.6717786"><ele>1225.0</ele><time>2026-04-26T14:02:04.024Z</time></trkpt><trkpt lat="46.4018042" lon="11.6719333"><ele>1225.3333333333333</ele><time>2026-04-26T14:02:05.024Z</time></trkpt><trkpt lat="46.4019292" lon="11.6720833"><ele>1225.6666666666667</ele><time>2026-04-26T14:02:06.024Z</time></trkpt><trkpt lat="46.4020493" lon="11.6722322"><ele>1226.0</ele><time>2026-04-26T14:02:07.024Z</time></trkpt><trkpt lat="46.4021573" lon="11.6723794"><ele>1227.25</ele><time>2026-04-26T14:02:08.024Z</time></trkpt><trkpt lat="46.4022568" lon="11.6725151"><ele>1228.5</ele><time>2026-04-26T14:02:09.024Z</time></trkpt><trkpt lat="46.4023487" lon="11.6726461"><ele>1229.75</ele><time>2026-04-26T14:02:10.024Z</time></trkpt><trkpt lat="46.4024205" lon="11.6727723"><ele>1231.0</ele><time>2026-04-26T14:02:11.024Z</time></trkpt><trkpt lat="46.40247" lon="11.6729027"><ele>1231.0</ele><time>2026-04-26T14:02:12.025Z</time></trkpt><trkpt lat="46.4024952" lon="11.6730357"><ele>1231.0</ele><time>2026-04-26T14:02:13.024Z</time></trkpt><trkpt lat="46.4025109" lon="11.6731461"><ele>1231.0</ele><time>2026-04-26T14:02:14.024Z</time></trkpt><trkpt lat="46.4025394" lon="11.6732445"><ele>1231.0</ele><time>2026-04-26T14:02:15.024Z</time></trkpt><trkpt lat="46.4025863" lon="11.6733292"><ele>1231.0</ele><time>2026-04-26T14:02:16.024Z</time></trkpt><trkpt lat="46.4026552" lon="11.6733936"><ele>1231.0</ele><time>2026-04-26T14:02:17.025Z</time></trkpt><trkpt lat="46.402741" lon="11.673446"><ele>1231.0</ele><time>2026-04-26T14:02:18.024Z</time></trkpt><trkpt lat="46.4028427" lon="11.6735035"><ele>1231.0</ele><time>2026-04-26T14:02:19.024Z</time></trkpt><trkpt lat="46.4029479" lon="11.6735834"><ele>1231.0</ele><time>2026-04-26T14:02:20.024Z</time></trkpt><trkpt lat="46.4030465" lon="11.6736996"><ele>1231.0</ele><time>2026-04-26T14:02:21.024Z</time></trkpt><trkpt lat="46.4031454" lon="11.6738338"><ele>1230.6666666666665</ele><time>2026-04-26T14:02:22.024Z</time></trkpt><trkpt lat="46.403244" lon="11.6739885"><ele>1230.3333333333333</ele><time>2026-04-26T14:02:23.024Z</time></trkpt><trkpt lat="46.4033546" lon="11.674155"><ele>1230.0</ele><time>2026-04-26T14:02:24.024Z</time></trkpt><trkpt lat="46.4034638" lon="11.6743238"><ele>1230.0</ele><time>2026-04-26T14:02:25.024Z</time></trkpt><trkpt lat="46.403572" lon="11.674496"><ele>1230.0</ele><time>2026-04-26T14:02:26.024Z</time></trkpt><trkpt lat="46.4036834" lon="11.6746878"><ele>1230.0</ele><time>2026-04-26T14:02:27.024Z</time></trkpt><trkpt lat="46.4037928" lon="11.6748752"><ele>1231.3333333333333</ele><time>2026-04-26T14:02:28.024Z</time></trkpt><trkpt lat="46.4039042" lon="11.6750601"><ele>1232.6666666666665</ele><time>2026-04-26T14:02:29.024Z</time></trkpt><trkpt lat="46.4040246" lon="11.6752431"><ele>1234.0</ele><time>2026-04-26T14:02:30.024Z</time></trkpt><trkpt lat="46.4041565" lon="11.6754021"><ele>1234.0</ele><time>2026-04-26T14:02:31.024Z</time></trkpt><trkpt lat="46.4042961" lon="11.6755387"><ele>1234.0</ele><time>2026-04-26T14:02:32.024Z</time></trkpt><trkpt lat="46.4044442" lon="11.6756403"><ele>1234.0</ele><time>2026-04-26T14:02:33.024Z</time></trkpt><trkpt lat="46.4045988" lon="11.6757304"><ele>1235.6666666666665</ele><time>2026-04-26T14:02:34.024Z</time></trkpt><trkpt lat="46.4047653" lon="11.6757859"><ele>1237.3333333333333</ele><time>2026-04-26T14:02:35.024Z</time></trkpt><trkpt lat="46.4049264" lon="11.6758191"><ele>1239.0</ele><time>2026-04-26T14:02:36.024Z</time></trkpt><trkpt lat="46.4050989" lon="11.6758366"><ele>1239.0</ele><time>2026-04-26T14:02:37.024Z</time></trkpt><trkpt lat="46.4052666" lon="11.6758617"><ele>1239.0</ele><time>2026-04-26T14:02:38.024Z</time></trkpt><trkpt lat="46.405436" lon="11.6758882"><ele>1239.0</ele><time>2026-04-26T14:02:39.024Z</time></trkpt><trkpt lat="46.4056051" lon="11.6759342"><ele>1240.3333333333333</ele><time>2026-04-26T14:02:40.024Z</time></trkpt><trkpt lat="46.405768" lon="11.6760014"><ele>1241.6666666666665</ele><time>2026-04-26T14:02:41.024Z</time></trkpt><trkpt lat="46.4059247" lon="11.6760888"><ele>1243.0</ele><time>2026-04-26T14:02:42.024Z</time></trkpt><trkpt lat="46.4060745" lon="11.6761969"><ele>1243.0</ele><time>2026-04-26T14:02:43.024Z</time></trkpt><trkpt lat="46.4062015" lon="11.6763167"><ele>1243.0</ele><time>2026-04-26T14:02:44.024Z</time></trkpt><trkpt lat="46.4063222" lon="11.6764373"><ele>1243.0</ele><time>2026-04-26T14:02:45.024Z</time></trkpt><trkpt lat="46.406439" lon="11.6765268"><ele>1243.0</ele><time>2026-04-26T14:02:46.024Z</time></trkpt><trkpt lat="46.4065686" lon="11.6765825"><ele>1245.25</ele><time>2026-04-26T14:02:47.024Z</time></trkpt><trkpt lat="46.4067004" lon="11.6766174"><ele>1247.5</ele><time>2026-04-26T14:02:48.024Z</time></trkpt><trkpt lat="46.4068328" lon="11.6766354"><ele>1249.75</ele><time>2026-04-26T14:02:49.024Z</time></trkpt><trkpt lat="46.4069667" lon="11.6766456"><ele>1252.0</ele><time>2026-04-26T14:02:50.024Z</time></trkpt><trkpt lat="46.407098" lon="11.6766582"><ele>1253.5</ele><time>2026-04-26T14:02:51.024Z</time></trkpt><trkpt lat="46.4072327" lon="11.6766871"><ele>1255.0</ele><time>2026-04-26T14:02:52.024Z</time></trkpt><trkpt lat="46.4073526" lon="11.6767234"><ele>1256.5</ele><time>2026-04-26T14:02:53.024Z</time></trkpt><trkpt lat="46.4074647" lon="11.6767715"><ele>1258.0</ele><time>2026-04-26T14:02:54.024Z</time></trkpt><trkpt lat="46.4075779" lon="11.6768136"><ele>1258.0</ele><time>2026-04-26T14:02:55.024Z</time></trkpt><trkpt lat="46.4076921" lon="11.6768395"><ele>1258.0</ele><time>2026-04-26T14:02:56.024Z</time></trkpt><trkpt lat="46.4078171" lon="11.6768296"><ele>1258.0</ele><time>2026-04-26T14:02:57.024Z</time></trkpt><trkpt lat="46.407947" lon="11.6768081"><ele>1258.0</ele><time>2026-04-26T14:02:58.024Z</time></trkpt><trkpt lat="46.4080863" lon="11.6767716"><ele>1258.75</ele><time>2026-04-26T14:02:59.024Z</time></trkpt><trkpt lat="46.4082255" lon="11.6767458"><ele>1259.5</ele><time>2026-04-26T14:03:00.024Z</time></trkpt><trkpt lat="46.4083669" lon="11.6767097"><ele>1260.25</ele><time>2026-04-26T14:03:01.024Z</time></trkpt><trkpt lat="46.4085145" lon="11.6766733"><ele>1261.0</ele><time>2026-04-26T14:03:02.024Z</time></trkpt><trkpt lat="46.408665" lon="11.6766343"><ele>1261.0</ele><time>2026-04-26T14:03:03.024Z</time></trkpt><trkpt lat="46.4088174" lon="11.6765985"><ele>1261.0</ele><time>2026-04-26T14:03:04.024Z</time></trkpt><trkpt lat="46.4089696" lon="11.6765874"><ele>1261.0</ele><time>2026-04-26T14:03:05.024Z</time></trkpt><trkpt lat="46.4091274" lon="11.6766041"><ele>1258.6666666666665</ele><time>2026-04-26T14:03:06.024Z</time></trkpt><trkpt lat="46.4092843" lon="11.6766415"><ele>1256.3333333333333</ele><time>2026-04-26T14:03:07.024Z</time></trkpt><trkpt lat="46.4094532" lon="11.6766861"><ele>1254.0</ele><time>2026-04-26T14:03:08.024Z</time></trkpt><trkpt lat="46.4096301" lon="11.6767275"><ele>1254.6666666666667</ele><time>2026-04-26T14:03:09.024Z</time></trkpt><trkpt lat="46.4098123" lon="11.6767783"><ele>1255.3333333333335</ele><time>2026-04-26T14:03:10.024Z</time></trkpt><trkpt lat="46.4100016" lon="11.6768337"><ele>1256.0</ele><time>2026-04-26T14:03:11.024Z</time></trkpt><trkpt lat="46.4101971" lon="11.6768951"><ele>1255.0</ele><time>2026-04-26T14:03:12.024Z</time></trkpt><trkpt lat="46.4104105" lon="11.6769459"><ele>1254.0</ele><time>2026-04-26T14:03:13.024Z</time></trkpt><trkpt lat="46.4106264" lon="11.6770044"><ele>1253.0</ele><time>2026-04-26T14:03:14.024Z</time></trkpt><trkpt lat="46.4108454" lon="11.6770729"><ele>1256.0</ele><time>2026-04-26T14:03:15.024Z</time></trkpt><trkpt lat="46.4110646" lon="11.6771513"><ele>1259.0</ele><time>2026-04-26T14:03:16.024Z</time></trkpt><trkpt lat="46.4112866" lon="11.677233"><ele>1260.6666666666667</ele><time>2026-04-26T14:03:17.024Z</time></trkpt><trkpt lat="46.4115067" lon="11.677306"><ele>1262.3333333333333</ele><time>2026-04-26T14:03:18.024Z</time></trkpt><trkpt lat="46.4117222" lon="11.6773821"><ele>1264.0</ele><time>2026-04-26T14:03:19.024Z</time></trkpt><trkpt lat="46.4119422" lon="11.6774583"><ele>1267.0</ele><time>2026-04-26T14:03:20.024Z</time></trkpt><trkpt lat="46.4121621" lon="11.6775257"><ele>1270.0</ele><time>2026-04-26T14:03:21.024Z</time></trkpt><trkpt lat="46.4123844" lon="11.6775952"><ele>1270.0</ele><time>2026-04-26T14:03:22.024Z</time></trkpt><trkpt lat="46.4126068" lon="11.6776666"><ele>1270.0</ele><time>2026-04-26T14:03:23.024Z</time></trkpt><trkpt lat="46.4128293" lon="11.6777345"><ele>1271.0</ele><time>2026-04-26T14:03:24.024Z</time></trkpt><trkpt lat="46.4130458" lon="11.6778028"><ele>1272.0</ele><time>2026-04-26T14:03:25.024Z</time></trkpt><trkpt lat="46.4132636" lon="11.6778713"><ele>1273.0</ele><time>2026-04-26T14:03:26.024Z</time></trkpt><trkpt lat="46.4134756" lon="11.6779299"><ele>1273.0</ele><time>2026-04-26T14:03:27.024Z</time></trkpt><trkpt lat="46.4136817" lon="11.6779921"><ele>1273.0</ele><time>2026-04-26T14:03:28.024Z</time></trkpt><trkpt lat="46.4138754" lon="11.678053"><ele>1273.0</ele><time>2026-04-26T14:03:29.024Z</time></trkpt><trkpt lat="46.4140574" lon="11.6781002"><ele>1276.0</ele><time>2026-04-26T14:03:30.024Z</time></trkpt><trkpt lat="46.4142213" lon="11.6781469"><ele>1279.0</ele><time>2026-04-26T14:03:31.024Z</time></trkpt><trkpt lat="46.4143702" lon="11.6781921"><ele>1282.0</ele><time>2026-04-26T14:03:32.024Z</time></trkpt><trkpt lat="46.414505" lon="11.6782352"><ele>1282.0</ele><time>2026-04-26T14:03:33.024Z</time></trkpt><trkpt lat="46.4146293" lon="11.6782883"><ele>1282.0</ele><time>2026-04-26T14:03:34.024Z</time></trkpt><trkpt lat="46.4147429" lon="11.678364"><ele>1282.0</ele><time>2026-04-26T14:03:35.024Z</time></trkpt><trkpt lat="46.4148306" lon="11.6784763"><ele>1282.0</ele><time>2026-04-26T14:03:36.024Z</time></trkpt><trkpt lat="46.4148951" lon="11.6786246"><ele>1283.25</ele><time>2026-04-26T14:03:37.024Z</time></trkpt><trkpt lat="46.4149604" lon="11.678766"><ele>1284.5</ele><time>2026-04-26T14:03:38.024Z</time></trkpt><trkpt lat="46.4150466" lon="11.6789046"><ele>1285.75</ele><time>2026-04-26T14:03:39.024Z</time></trkpt><trkpt lat="46.4151438" lon="11.6790156"><ele>1287.0</ele><time>2026-04-26T14:03:40.024Z</time></trkpt><trkpt lat="46.4152621" lon="11.6791152"><ele>1287.0</ele><time>2026-04-26T14:03:41.024Z</time></trkpt><trkpt lat="46.415399" lon="11.6791956"><ele>1287.0</ele><time>2026-04-26T14:03:42.024Z</time></trkpt><trkpt lat="46.4155444" lon="11.6792732"><ele>1287.0</ele><time>2026-04-26T14:03:43.024Z</time></trkpt><trkpt lat="46.4157007" lon="11.6793347"><ele>1288.0</ele><time>2026-04-26T14:03:44.024Z</time></trkpt><trkpt lat="46.415854" lon="11.6794057"><ele>1289.0</ele><time>2026-04-26T14:03:45.024Z</time></trkpt><trkpt lat="46.4160042" lon="11.6794685"><ele>1290.0</ele><time>2026-04-26T14:03:46.024Z</time></trkpt><trkpt lat="46.416151" lon="11.6795329"><ele>1290.0</ele><time>2026-04-26T14:03:47.024Z</time></trkpt><trkpt lat="46.4163001" lon="11.6796084"><ele>1290.0</ele><time>2026-04-26T14:03:48.024Z</time></trkpt><trkpt lat="46.4164507" lon="11.6796798"><ele>1290.0</ele><time>2026-04-26T14:03:49.024Z</time></trkpt><trkpt lat="46.4166047" lon="11.6797452"><ele>1292.6666666666667</ele><time>2026-04-26T14:03:50.024Z</time></trkpt><trkpt lat="46.4167584" lon="11.6798128"><ele>1295.3333333333335</ele><time>2026-04-26T14:03:51.023Z</time></trkpt><trkpt lat="46.4169149" lon="11.6798801"><ele>1298.0</ele><time>2026-04-26T14:03:52.023Z</time></trkpt><trkpt lat="46.4170701" lon="11.6799485"><ele>1301.3333333333335</ele><time>2026-04-26T14:03:53.023Z</time></trkpt><trkpt lat="46.417221" lon="11.6800077"><ele>1304.6666666666667</ele><time>2026-04-26T14:03:54.023Z</time></trkpt><trkpt lat="46.4173698" lon="11.6800702"><ele>1308.0</ele><time>2026-04-26T14:03:55.023Z</time></trkpt><trkpt lat="46.4175229" lon="11.6801249"><ele>1308.0</ele><time>2026-04-26T14:03:56.023Z</time></trkpt><trkpt lat="46.4176714" lon="11.680176"><ele>1308.0</ele><time>2026-04-26T14:03:57.023Z</time></trkpt><trkpt lat="46.4178195" lon="11.6802221"><ele>1308.0</ele><time>2026-04-26T14:03:58.024Z</time></trkpt><trkpt lat="46.4179609" lon="11.6802638"><ele>1308.0</ele><time>2026-04-26T14:03:59.023Z</time></trkpt><trkpt lat="46.4180953" lon="11.6803056"><ele>1308.25</ele><time>2026-04-26T14:04:00.023Z</time></trkpt><trkpt lat="46.4182272" lon="11.6803444"><ele>1308.5</ele><time>2026-04-26T14:04:01.023Z</time></trkpt><trkpt lat="46.4183562" lon="11.6803857"><ele>1308.75</ele><time>2026-04-26T14:04:02.023Z</time></trkpt><trkpt lat="46.4184817" lon="11.6804321"><ele>1309.0</ele><time>2026-04-26T14:04:03.023Z</time></trkpt><trkpt lat="46.4185982" lon="11.6804691"><ele>1309.0</ele><time>2026-04-26T14:04:04.023Z</time></trkpt><trkpt lat="46.4187012" lon="11.6805013"><ele>1309.0</ele><time>2026-04-26T14:04:05.023Z</time></trkpt><trkpt lat="46.418795" lon="11.6805165"><ele>1309.0</ele><time>2026-04-26T14:04:06.023Z</time></trkpt><trkpt lat="46.4188869" lon="11.6805287"><ele>1309.0</ele><time>2026-04-26T14:04:07.023Z</time></trkpt><trkpt lat="46.4189689" lon="11.6805446"><ele>1309.0</ele><time>2026-04-26T14:04:08.024Z</time></trkpt><trkpt lat="46.4190508" lon="11.6805709"><ele>1311.2</ele><time>2026-04-26T14:04:09.023Z</time></trkpt><trkpt lat="46.41913" lon="11.6806079"><ele>1313.4</ele><time>2026-04-26T14:04:10.023Z</time></trkpt><trkpt lat="46.4192137" lon="11.6806515"><ele>1315.6</ele><time>2026-04-26T14:04:11.023Z</time></trkpt><trkpt lat="46.4193106" lon="11.6806888"><ele>1317.8</ele><time>2026-04-26T14:04:12.023Z</time></trkpt><trkpt lat="46.4194108" lon="11.6807363"><ele>1320.0</ele><time>2026-04-26T14:04:13.023Z</time></trkpt><trkpt lat="46.4195125" lon="11.6807802"><ele>1320.0</ele><time>2026-04-26T14:04:14.023Z</time></trkpt><trkpt lat="46.419614" lon="11.6808295"><ele>1320.0</ele><time>2026-04-26T14:04:15.023Z</time></trkpt><trkpt lat="46.4197196" lon="11.6808871"><ele>1320.0</ele><time>2026-04-26T14:04:16.024Z</time></trkpt><trkpt lat="46.419825" lon="11.6809509"><ele>1320.0</ele><time>2026-04-26T14:04:17.024Z</time></trkpt><trkpt lat="46.4199317" lon="11.6810256"><ele>1320.0</ele><time>2026-04-26T14:04:18.023Z</time></trkpt><trkpt lat="46.4200355" lon="11.6811173"><ele>1320.0</ele><time>2026-04-26T14:04:19.023Z</time></trkpt><trkpt lat="46.4201319" lon="11.6812063"><ele>1320.0</ele><time>2026-04-26T14:04:20.023Z</time></trkpt><trkpt lat="46.4202267" lon="11.6812913"><ele>1320.0</ele><time>2026-04-26T14:04:21.023Z</time></trkpt><trkpt lat="46.4203224" lon="11.6813793"><ele>1320.0</ele><time>2026-04-26T14:04:22.024Z</time></trkpt><trkpt lat="46.4204183" lon="11.6814687"><ele>1320.0</ele><time>2026-04-26T14:04:23.023Z</time></trkpt><trkpt lat="46.4205163" lon="11.681557"><ele>1320.0</ele><time>2026-04-26T14:04:24.023Z</time></trkpt><trkpt lat="46.4206172" lon="11.6816458"><ele>1320.0</ele><time>2026-04-26T14:04:25.023Z</time></trkpt><trkpt lat="46.4207139" lon="11.6817375"><ele>1319.5</ele><time>2026-04-26T14:04:26.023Z</time></trkpt><trkpt lat="46.42081" lon="11.6818312"><ele>1319.0</ele><time>2026-04-26T14:04:27.023Z</time></trkpt><trkpt lat="46.4209037" lon="11.6819152"><ele>1318.5</ele><time>2026-04-26T14:04:28.023Z</time></trkpt><trkpt lat="46.4210047" lon="11.6819967"><ele>1318.0</ele><time>2026-04-26T14:04:29.023Z</time></trkpt><trkpt lat="46.4211144" lon="11.682086"><ele>1318.0</ele><time>2026-04-26T14:04:30.023Z</time></trkpt><trkpt lat="46.4212253" lon="11.6821614"><ele>1318.0</ele><time>2026-04-26T14:04:31.023Z</time></trkpt><trkpt lat="46.4213395" lon="11.6822367"><ele>1318.0</ele><time>2026-04-26T14:04:32.023Z</time></trkpt><trkpt lat="46.4214511" lon="11.6823009"><ele>1318.0</ele><time>2026-04-26T14:04:33.023Z</time></trkpt><trkpt lat="46.4215667" lon="11.6823604"><ele>1318.0</ele><time>2026-04-26T14:04:34.023Z</time></trkpt><trkpt lat="46.4216942" lon="11.6824021"><ele>1318.0</ele><time>2026-04-26T14:04:35.023Z</time></trkpt><trkpt lat="46.4218157" lon="11.6824339"><ele>1318.0</ele><time>2026-04-26T14:04:36.023Z</time></trkpt><trkpt lat="46.4219404" lon="11.6824621"><ele>1318.0</ele><time>2026-04-26T14:04:37.023Z</time></trkpt><trkpt lat="46.4220659" lon="11.6824808"><ele>1319.5</ele><time>2026-04-26T14:04:38.023Z</time></trkpt><trkpt lat="46.4221905" lon="11.6824949"><ele>1321.0</ele><time>2026-04-26T14:04:39.023Z</time></trkpt><trkpt lat="46.4223149" lon="11.682507"><ele>1322.5</ele><time>2026-04-26T14:04:40.023Z</time></trkpt><trkpt lat="46.422436" lon="11.6825217"><ele>1324.0</ele><time>2026-04-26T14:04:41.023Z</time></trkpt><trkpt lat="46.4225603" lon="11.6825356"><ele>1324.0</ele><time>2026-04-26T14:04:42.023Z</time></trkpt><trkpt lat="46.4226837" lon="11.6825557"><ele>1324.0</ele><time>2026-04-26T14:04:43.023Z</time></trkpt><trkpt lat="46.4228058" lon="11.6825787"><ele>1324.0</ele><time>2026-04-26T14:04:44.023Z</time></trkpt><trkpt lat="46.4229227" lon="11.6826026"><ele>1324.0</ele><time>2026-04-26T14:04:45.023Z</time></trkpt><trkpt lat="46.4230435" lon="11.6826206"><ele>1323.0</ele><time>2026-04-26T14:04:46.023Z</time></trkpt><trkpt lat="46.4231682" lon="11.6826417"><ele>1322.0</ele><time>2026-04-26T14:04:47.023Z</time></trkpt><trkpt lat="46.4232905" lon="11.6826648"><ele>1321.0</ele><time>2026-04-26T14:04:48.023Z</time></trkpt><trkpt lat="46.4234074" lon="11.682689"><ele>1320.0</ele><time>2026-04-26T14:04:49.023Z</time></trkpt><trkpt lat="46.4235287" lon="11.6827074"><ele>1320.0</ele><time>2026-04-26T14:04:50.023Z</time></trkpt><trkpt lat="46.4236524" lon="11.6827251"><ele>1320.0</ele><time>2026-04-26T14:04:51.023Z</time></trkpt><trkpt lat="46.4237757" lon="11.6827463"><ele>1320.0</ele><time>2026-04-26T14:04:52.023Z</time></trkpt><trkpt lat="46.4238987" lon="11.6827596"><ele>1320.0</ele><time>2026-04-26T14:04:53.023Z</time></trkpt><trkpt lat="46.4240214" lon="11.6827803"><ele>1318.25</ele><time>2026-04-26T14:04:54.023Z</time></trkpt><trkpt lat="46.4241426" lon="11.6827935"><ele>1316.5</ele><time>2026-04-26T14:04:55.023Z</time></trkpt><trkpt lat="46.4242639" lon="11.6828095"><ele>1314.75</ele><time>2026-04-26T14:04:56.023Z</time></trkpt><trkpt lat="46.4243835" lon="11.6828279"><ele>1313.0</ele><time>2026-04-26T14:04:57.023Z</time></trkpt><trkpt lat="46.4245005" lon="11.6828463"><ele>1313.0</ele><time>2026-04-26T14:04:58.023Z</time></trkpt><trkpt lat="46.4246174" lon="11.6828554"><ele>1313.0</ele><time>2026-04-26T14:04:59.023Z</time></trkpt><trkpt lat="46.4247355" lon="11.6828634"><ele>1313.0</ele><time>2026-04-26T14:05:00.023Z</time></trkpt><trkpt lat="46.4248536" lon="11.6828604"><ele>1313.0</ele><time>2026-04-26T14:05:01.023Z</time></trkpt><trkpt lat="46.4249744" lon="11.6828592"><ele>1312.75</ele><time>2026-04-26T14:05:02.023Z</time></trkpt><trkpt lat="46.4250968" lon="11.6828523"><ele>1312.5</ele><time>2026-04-26T14:05:03.023Z</time></trkpt><trkpt lat="46.4252182" lon="11.6828394"><ele>1312.25</ele><time>2026-04-26T14:05:04.023Z</time></trkpt><trkpt lat="46.4253379" lon="11.6828272"><ele>1312.0</ele><time>2026-04-26T14:05:05.023Z</time></trkpt><trkpt lat="46.4254668" lon="11.682808"><ele>1313.25</ele><time>2026-04-26T14:05:06.023Z</time></trkpt><trkpt lat="46.4255954" lon="11.6827936"><ele>1314.5</ele><time>2026-04-26T14:05:07.023Z</time></trkpt><trkpt lat="46.4257262" lon="11.6827787"><ele>1315.75</ele><time>2026-04-26T14:05:08.023Z</time></trkpt><trkpt lat="46.4258561" lon="11.682765"><ele>1317.0</ele><time>2026-04-26T14:05:09.023Z</time></trkpt><trkpt lat="46.4259859" lon="11.6827509"><ele>1317.0</ele><time>2026-04-26T14:05:10.023Z</time></trkpt><trkpt lat="46.4261171" lon="11.6827354"><ele>1317.0</ele><time>2026-04-26T14:05:11.023Z</time></trkpt><trkpt lat="46.4262494" lon="11.6827226"><ele>1317.0</ele><time>2026-04-26T14:05:12.023Z</time></trkpt><trkpt lat="46.4263687" lon="11.6827149"><ele>1317.0</ele><time>2026-04-26T14:05:13.023Z</time></trkpt><trkpt lat="46.4264913" lon="11.6827201"><ele>1316.5</ele><time>2026-04-26T14:05:14.023Z</time></trkpt><trkpt lat="46.426612" lon="11.6827453"><ele>1316.0</ele><time>2026-04-26T14:05:15.023Z</time></trkpt><trkpt lat="46.4267278" lon="11.6827743"><ele>1315.5</ele><time>2026-04-26T14:05:16.023Z</time></trkpt><trkpt lat="46.4268413" lon="11.6828043"><ele>1315.0</ele><time>2026-04-26T14:05:17.023Z</time></trkpt><trkpt lat="46.4269572" lon="11.6828342"><ele>1313.6</ele><time>2026-04-26T14:05:18.023Z</time></trkpt><trkpt lat="46.4270684" lon="11.6828763"><ele>1312.2</ele><time>2026-04-26T14:05:19.023Z</time></trkpt><trkpt lat="46.4271794" lon="11.6829069"><ele>1310.8000000000002</ele><time>2026-04-26T14:05:20.023Z</time></trkpt><trkpt lat="46.4272919" lon="11.6829307"><ele>1309.4</ele><time>2026-04-26T14:05:21.023Z</time></trkpt><trkpt lat="46.4273966" lon="11.6829521"><ele>1308.0</ele><time>2026-04-26T14:05:22.023Z</time></trkpt><trkpt lat="46.4275019" lon="11.6829722"><ele>1307.8000000000002</ele><time>2026-04-26T14:05:23.023Z</time></trkpt><trkpt lat="46.4276036" lon="11.6830151"><ele>1307.6</ele><time>2026-04-26T14:05:24.023Z</time></trkpt><trkpt lat="46.4277041" lon="11.6830773"><ele>1307.4</ele><time>2026-04-26T14:05:25.023Z</time></trkpt><trkpt lat="46.4277909" lon="11.6831767"><ele>1307.1999999999998</ele><time>2026-04-26T14:05:26.023Z</time></trkpt><trkpt lat="46.4278655" lon="11.6833054"><ele>1307.0</ele><time>2026-04-26T14:05:27.023Z</time></trkpt><trkpt lat="46.4279419" lon="11.6834225"><ele>1307.25</ele><time>2026-04-26T14:05:28.023Z</time></trkpt><trkpt lat="46.428018" lon="11.6835539"><ele>1307.5</ele><time>2026-04-26T14:05:29.024Z</time></trkpt><trkpt lat="46.4280917" lon="11.6836845"><ele>1307.75</ele><time>2026-04-26T14:05:30.024Z</time></trkpt><trkpt lat="46.4281686" lon="11.6838255"><ele>1308.0</ele><time>2026-04-26T14:05:31.023Z</time></trkpt><trkpt lat="46.4282369" lon="11.6839681"><ele>1308.0</ele><time>2026-04-26T14:05:32.023Z</time></trkpt><trkpt lat="46.4282997" lon="11.6841078"><ele>1308.0</ele><time>2026-04-26T14:05:33.023Z</time></trkpt><trkpt lat="46.4283567" lon="11.6842431"><ele>1308.0</ele><time>2026-04-26T14:05:34.023Z</time></trkpt><trkpt lat="46.4284219" lon="11.6843805"><ele>1308.0</ele><time>2026-04-26T14:05:35.023Z</time></trkpt><trkpt lat="46.428483" lon="11.6845208"><ele>1307.0</ele><time>2026-04-26T14:05:36.023Z</time></trkpt><trkpt lat="46.4285432" lon="11.6846569"><ele>1306.0</ele><time>2026-04-26T14:05:37.023Z</time></trkpt><trkpt lat="46.4286078" lon="11.6847915"><ele>1305.0</ele><time>2026-04-26T14:05:38.023Z</time></trkpt><trkpt lat="46.4286817" lon="11.6849201"><ele>1304.0</ele><time>2026-04-26T14:05:39.023Z</time></trkpt><trkpt lat="46.4287612" lon="11.6850375"><ele>1304.0</ele><time>2026-04-26T14:05:40.023Z</time></trkpt><trkpt lat="46.4288489" lon="11.685153"><ele>1304.0</ele><time>2026-04-26T14:05:41.024Z</time></trkpt><trkpt lat="46.4289466" lon="11.6852508"><ele>1304.0</ele><time>2026-04-26T14:05:42.023Z</time></trkpt><trkpt lat="46.4290501" lon="11.6853451"><ele>1304.0</ele><time>2026-04-26T14:05:43.023Z</time></trkpt><trkpt lat="46.4291586" lon="11.6854327"><ele>1304.0</ele><time>2026-04-26T14:05:44.023Z</time></trkpt><trkpt lat="46.4292653" lon="11.6855092"><ele>1304.0</ele><time>2026-04-26T14:05:45.023Z</time></trkpt><trkpt lat="46.4293657" lon="11.6855704"><ele>1304.0</ele><time>2026-04-26T14:05:46.023Z</time></trkpt><trkpt lat="46.4294619" lon="11.6856379"><ele>1304.0</ele><time>2026-04-26T14:05:47.023Z</time></trkpt><trkpt lat="46.4295536" lon="11.6857077"><ele>1304.0</ele><time>2026-04-26T14:05:48.023Z</time></trkpt><trkpt lat="46.4296522" lon="11.6857681"><ele>1304.8333333333335</ele><time>2026-04-26T14:05:49.023Z</time></trkpt><trkpt lat="46.4297434" lon="11.6858163"><ele>1305.6666666666667</ele><time>2026-04-26T14:05:50.023Z</time></trkpt><trkpt lat="46.4298425" lon="11.6858176"><ele>1306.5</ele><time>2026-04-26T14:05:51.023Z</time></trkpt><trkpt lat="46.4299329" lon="11.6858084"><ele>1307.3333333333333</ele><time>2026-04-26T14:05:52.023Z</time></trkpt><trkpt lat="46.4300178" lon="11.6857912"><ele>1308.1666666666665</ele><time>2026-04-26T14:05:53.023Z</time></trkpt><trkpt lat="46.4300884" lon="11.6857942"><ele>1309.0</ele><time>2026-04-26T14:05:54.024Z</time></trkpt><trkpt lat="46.4301926" lon="11.6858833"><ele>1309.0</ele><time>2026-04-26T14:05:56.023Z</time></trkpt><trkpt lat="46.4302198" lon="11.6859743"><ele>1309.0</ele><time>2026-04-26T14:05:57.024Z</time></trkpt><trkpt lat="46.4302453" lon="11.6860754"><ele>1309.0</ele><time>2026-04-26T14:05:58.023Z</time></trkpt><trkpt lat="46.4302695" lon="11.6861712"><ele>1309.0</ele><time>2026-04-26T14:05:59.023Z</time></trkpt><trkpt lat="46.4303005" lon="11.6862615"><ele>1309.0</ele><time>2026-04-26T14:06:00.023Z</time></trkpt><trkpt lat="46.4303333" lon="11.6863505"><ele>1309.0</ele><time>2026-04-26T14:06:01.023Z</time></trkpt><trkpt lat="46.4303675" lon="11.6864349"><ele>1309.0</ele><time>2026-04-26T14:06:02.023Z</time></trkpt><trkpt lat="46.430408" lon="11.6865249"><ele>1309.0</ele><time>2026-04-26T14:06:03.023Z</time></trkpt><trkpt lat="46.4304384" lon="11.6866185"><ele>1309.0</ele><time>2026-04-26T14:06:04.023Z</time></trkpt><trkpt lat="46.4304665" lon="11.6867189"><ele>1309.0</ele><time>2026-04-26T14:06:05.023Z</time></trkpt><trkpt lat="46.4304912" lon="11.6868205"><ele>1309.0</ele><time>2026-04-26T14:06:06.023Z</time></trkpt><trkpt lat="46.4305082" lon="11.6869244"><ele>1309.0</ele><time>2026-04-26T14:06:07.023Z</time></trkpt><trkpt lat="46.4305185" lon="11.6870318"><ele>1309.0</ele><time>2026-04-26T14:06:08.023Z</time></trkpt><trkpt lat="46.4305274" lon="11.6871375"><ele>1309.0</ele><time>2026-04-26T14:06:09.023Z</time></trkpt><trkpt lat="46.4305355" lon="11.6872433"><ele>1309.1666666666665</ele><time>2026-04-26T14:06:10.023Z</time></trkpt><trkpt lat="46.4305333" lon="11.6873628"><ele>1309.3333333333333</ele><time>2026-04-26T14:06:11.023Z</time></trkpt><trkpt lat="46.4305185" lon="11.687483"><ele>1309.5</ele><time>2026-04-26T14:06:12.023Z</time></trkpt><trkpt lat="46.4304955" lon="11.687609"><ele>1309.6666666666667</ele><time>2026-04-26T14:06:13.023Z</time></trkpt><trkpt lat="46.4304709" lon="11.6877333"><ele>1309.8333333333335</ele><time>2026-04-26T14:06:14.023Z</time></trkpt><trkpt lat="46.4304433" lon="11.6878586"><ele>1310.0</ele><time>2026-04-26T14:06:15.023Z</time></trkpt><trkpt lat="46.4304202" lon="11.6879875"><ele>1311.0</ele><time>2026-04-26T14:06:16.023Z</time></trkpt><trkpt lat="46.4303976" lon="11.688124"><ele>1312.0</ele><time>2026-04-26T14:06:17.023Z</time></trkpt><trkpt lat="46.4303685" lon="11.6882584"><ele>1313.0</ele><time>2026-04-26T14:06:18.023Z</time></trkpt><trkpt lat="46.4303328" lon="11.6883885"><ele>1314.0</ele><time>2026-04-26T14:06:19.023Z</time></trkpt><trkpt lat="46.4303004" lon="11.6885143"><ele>1315.0</ele><time>2026-04-26T14:06:20.023Z</time></trkpt><trkpt lat="46.4302622" lon="11.6886344"><ele>1315.6</ele><time>2026-04-26T14:06:21.023Z</time></trkpt><trkpt lat="46.4302178" lon="11.6887425"><ele>1316.2</ele><time>2026-04-26T14:06:22.023Z</time></trkpt><trkpt lat="46.4301689" lon="11.6888591"><ele>1316.8000000000002</ele><time>2026-04-26T14:06:23.024Z</time></trkpt><trkpt lat="46.4301183" lon="11.6889795"><ele>1317.4</ele><time>2026-04-26T14:06:24.023Z</time></trkpt><trkpt lat="46.430065" lon="11.6890899"><ele>1318.0</ele><time>2026-04-26T14:06:25.023Z</time></trkpt><trkpt lat="46.4300119" lon="11.6891809"><ele>1318.0</ele><time>2026-04-26T14:06:26.023Z</time></trkpt><trkpt lat="46.4299642" lon="11.6892578"><ele>1318.0</ele><time>2026-04-26T14:06:27.024Z</time></trkpt><trkpt lat="46.4299249" lon="11.6893378"><ele>1318.0</ele><time>2026-04-26T14:06:28.023Z</time></trkpt><trkpt lat="46.4299215" lon="11.6895202"><ele>1318.0</ele><time>2026-04-26T14:06:30.023Z</time></trkpt><trkpt lat="46.4299366" lon="11.689611"><ele>1318.0</ele><time>2026-04-26T14:06:31.023Z</time></trkpt><trkpt lat="46.4299617" lon="11.6896953"><ele>1318.0</ele><time>2026-04-26T14:06:32.023Z</time></trkpt><trkpt lat="46.4300108" lon="11.6897991"><ele>1318.0</ele><time>2026-04-26T14:06:34.023Z</time></trkpt><trkpt lat="46.4300754" lon="11.6898118"><ele>1318.0</ele><time>2026-04-26T14:06:36.023Z</time></trkpt><trkpt lat="46.4301396" lon="11.6898457"><ele>1318.0</ele><time>2026-04-26T14:06:39.023Z</time></trkpt><trkpt lat="46.4300968" lon="11.68982"><ele>1318.0</ele><time>2026-04-26T14:10:23.022Z</time></trkpt><trkpt lat="46.4300132" lon="11.689767"><ele>1318.0</ele><time>2026-04-26T14:10:26.022Z</time></trkpt><trkpt lat="46.4299752" lon="11.6896628"><ele>1318.0</ele><time>2026-04-26T14:10:28.022Z</time></trkpt><trkpt lat="46.429951" lon="11.6895203"><ele>1318.0</ele><time>2026-04-26T14:10:30.022Z</time></trkpt><trkpt lat="46.4299552" lon="11.6893686"><ele>1318.0</ele><time>2026-04-26T14:10:32.022Z</time></trkpt><trkpt lat="46.4300028" lon="11.6892188"><ele>1318.0</ele><time>2026-04-26T14:10:34.022Z</time></trkpt><trkpt lat="46.430072" lon="11.6890955"><ele>1318.0</ele><time>2026-04-26T14:10:36.022Z</time></trkpt><trkpt lat="46.4301125" lon="11.6890248"><ele>1318.0</ele><time>2026-04-26T14:10:37.022Z</time></trkpt><trkpt lat="46.4301835" lon="11.6888933"><ele>1318.0</ele><time>2026-04-26T14:10:39.022Z</time></trkpt><trkpt lat="46.4302175" lon="11.6888126"><ele>1318.0</ele><time>2026-04-26T14:10:40.022Z</time></trkpt><trkpt lat="46.43028" lon="11.6886677"><ele>1318.0</ele><time>2026-04-26T14:10:42.022Z</time></trkpt><trkpt lat="46.4303112" lon="11.6885883"><ele>1318.0</ele><time>2026-04-26T14:10:43.023Z</time></trkpt><trkpt lat="46.4303569" lon="11.6884325"><ele>1318.0</ele><time>2026-04-26T14:10:45.022Z</time></trkpt><trkpt lat="46.4303927" lon="11.6882643"><ele>1317.5</ele><time>2026-04-26T14:10:47.022Z</time></trkpt><trkpt lat="46.4304284" lon="11.6880936"><ele>1317.0</ele><time>2026-04-26T14:10:49.023Z</time></trkpt><trkpt lat="46.4304595" lon="11.6879294"><ele>1316.5</ele><time>2026-04-26T14:10:51.022Z</time></trkpt><trkpt lat="46.4304826" lon="11.6877701"><ele>1316.0</ele><time>2026-04-26T14:10:53.022Z</time></trkpt><trkpt lat="46.4305305" lon="11.687597"><ele>1314.8</ele><time>2026-04-26T14:10:55.022Z</time></trkpt><trkpt lat="46.4305615" lon="11.6874165"><ele>1313.6</ele><time>2026-04-26T14:10:57.022Z</time></trkpt><trkpt lat="46.4305701" lon="11.6873198"><ele>1312.4</ele><time>2026-04-26T14:10:58.022Z</time></trkpt><trkpt lat="46.4305748" lon="11.6871379"><ele>1311.2</ele><time>2026-04-26T14:11:00.022Z</time></trkpt><trkpt lat="46.4305635" lon="11.6870474"><ele>1310.0</ele><time>2026-04-26T14:11:01.022Z</time></trkpt><trkpt lat="46.4305521" lon="11.6869194"><ele>1309.8333333333335</ele><time>2026-04-26T14:11:03.022Z</time></trkpt><trkpt lat="46.4305343" lon="11.6867906"><ele>1309.6666666666667</ele><time>2026-04-26T14:11:05.022Z</time></trkpt><trkpt lat="46.4305106" lon="11.6866713"><ele>1309.5</ele><time>2026-04-26T14:11:07.022Z</time></trkpt><trkpt lat="46.430482" lon="11.686571"><ele>1309.3333333333333</ele><time>2026-04-26T14:11:09.022Z</time></trkpt><trkpt lat="46.4304445" lon="11.6864893"><ele>1309.1666666666665</ele><time>2026-04-26T14:11:11.022Z</time></trkpt><trkpt lat="46.4303959" lon="11.6864048"><ele>1309.0</ele><time>2026-04-26T14:11:13.022Z</time></trkpt><trkpt lat="46.430356" lon="11.6863273"><ele>1308.6666666666665</ele><time>2026-04-26T14:11:15.023Z</time></trkpt><trkpt lat="46.4303122" lon="11.6862579"><ele>1308.3333333333333</ele><time>2026-04-26T14:11:17.022Z</time></trkpt><trkpt lat="46.4302475" lon="11.686222"><ele>1308.0</ele><time>2026-04-26T14:11:19.022Z</time></trkpt><trkpt lat="46.4301713" lon="11.6862462"><ele>1307.6666666666667</ele><time>2026-04-26T14:11:23.022Z</time></trkpt><trkpt lat="46.4301151" lon="11.6862996"><ele>1307.3333333333335</ele><time>2026-04-26T14:11:26.022Z</time></trkpt><trkpt lat="46.4300339" lon="11.6863545"><ele>1307.0</ele><time>2026-04-26T14:11:29.022Z</time></trkpt><trkpt lat="46.4299506" lon="11.6863941"><ele>1307.0</ele><time>2026-04-26T14:11:31.022Z</time></trkpt><trkpt lat="46.4298757" lon="11.6864357"><ele>1307.0</ele><time>2026-04-26T14:11:33.023Z</time></trkpt><trkpt lat="46.4298107" lon="11.6864632"><ele>1307.0</ele><time>2026-04-26T14:11:35.022Z</time></trkpt><trkpt lat="46.4297482" lon="11.6864915"><ele>1307.0</ele><time>2026-04-26T14:11:37.022Z</time></trkpt><trkpt lat="46.4296707" lon="11.6865416"><ele>1307.0</ele><time>2026-04-26T14:11:39.022Z</time></trkpt><trkpt lat="46.4295884" lon="11.6866218"><ele>1307.0</ele><time>2026-04-26T14:11:41.022Z</time></trkpt><trkpt lat="46.4294813" lon="11.6866702"><ele>1306.0</ele><time>2026-04-26T14:11:43.022Z</time></trkpt><trkpt lat="46.4293983" lon="11.686685"><ele>1305.0</ele><time>2026-04-26T14:11:44.022Z</time></trkpt><trkpt lat="46.4293312" lon="11.6867169"><ele>1304.0</ele><time>2026-04-26T14:11:45.022Z</time></trkpt><trkpt lat="46.429234" lon="11.6867657"><ele>1303.0</ele><time>2026-04-26T14:11:47.022Z</time></trkpt><trkpt lat="46.4291425" lon="11.6867958"><ele>1302.0</ele><time>2026-04-26T14:11:49.022Z</time></trkpt><trkpt lat="46.4290824" lon="11.686751"><ele>1301.0</ele><time>2026-04-26T14:11:51.022Z</time></trkpt><trkpt lat="46.4291857" lon="11.6868169"><ele>1301.0</ele><time>2026-04-26T14:12:40.021Z</time></trkpt><trkpt lat="46.4292847" lon="11.6867842"><ele>1301.0</ele><time>2026-04-26T14:12:42.021Z</time></trkpt><trkpt lat="46.4293496" lon="11.6867483"><ele>1301.0</ele><time>2026-04-26T14:12:43.022Z</time></trkpt><trkpt lat="46.4294142" lon="11.6867032"><ele>1301.0</ele><time>2026-04-26T14:12:44.021Z</time></trkpt><trkpt lat="46.4294776" lon="11.6866537"><ele>1301.0</ele><time>2026-04-26T14:12:45.021Z</time></trkpt><trkpt lat="46.4295393" lon="11.6866082"><ele>1301.0</ele><time>2026-04-26T14:12:46.021Z</time></trkpt><trkpt lat="46.4296468" lon="11.6865641"><ele>1302.0</ele><time>2026-04-26T14:12:48.021Z</time></trkpt><trkpt lat="46.4297103" lon="11.6865273"><ele>1303.0</ele><time>2026-04-26T14:12:49.021Z</time></trkpt><trkpt lat="46.4298267" lon="11.6865111"><ele>1304.0</ele><time>2026-04-26T14:12:51.021Z</time></trkpt><trkpt lat="46.4299303" lon="11.6864787"><ele>1305.0</ele><time>2026-04-26T14:12:53.021Z</time></trkpt><trkpt lat="46.4299989" lon="11.686436"><ele>1306.0</ele><time>2026-04-26T14:12:54.021Z</time></trkpt><trkpt lat="46.430066" lon="11.686399"><ele>1307.0</ele><time>2026-04-26T14:12:55.021Z</time></trkpt><trkpt lat="46.430124" lon="11.6863568"><ele>1307.0</ele><time>2026-04-26T14:12:56.021Z</time></trkpt><trkpt lat="46.4302072" lon="11.686309"><ele>1307.0</ele><time>2026-04-26T14:12:58.021Z</time></trkpt><trkpt lat="46.4302826" lon="11.6862921"><ele>1307.0</ele><time>2026-04-26T14:13:00.021Z</time></trkpt><trkpt lat="46.4303475" lon="11.6863493"><ele>1307.0</ele><time>2026-04-26T14:13:02.021Z</time></trkpt><trkpt lat="46.4303745" lon="11.6864367"><ele>1307.0</ele><time>2026-04-26T14:13:04.021Z</time></trkpt><trkpt lat="46.4303948" lon="11.6865278"><ele>1307.0</ele><time>2026-04-26T14:13:06.021Z</time></trkpt><trkpt lat="46.4304403" lon="11.6866275"><ele>1307.0</ele><time>2026-04-26T14:13:09.021Z</time></trkpt><trkpt lat="46.4304601" lon="11.6865257"><ele>1307.0</ele><time>2026-04-26T14:13:13.021Z</time></trkpt><trkpt lat="46.4304109" lon="11.6864168"><ele>1307.0</ele><time>2026-04-26T14:13:15.021Z</time></trkpt><trkpt lat="46.4303589" lon="11.6863258"><ele>1307.0</ele><time>2026-04-26T14:13:17.021Z</time></trkpt><trkpt lat="46.4303236" lon="11.6862082"><ele>1307.0</ele><time>2026-04-26T14:13:19.022Z</time></trkpt><trkpt lat="46.4303007" lon="11.6860785"><ele>1307.0</ele><time>2026-04-26T14:13:21.021Z</time></trkpt><trkpt lat="46.4303077" lon="11.685961"><ele>1307.2857142857142</ele><time>2026-04-26T14:13:23.021Z</time></trkpt><trkpt lat="46.4303096" lon="11.685869"><ele>1307.5714285714287</ele><time>2026-04-26T14:13:26.021Z</time></trkpt><trkpt lat="46.4303128" lon="11.6857753"><ele>1307.857142857143</ele><time>2026-04-26T14:13:28.021Z</time></trkpt><trkpt lat="46.4302509" lon="11.6856746"><ele>1308.142857142857</ele><time>2026-04-26T14:13:30.022Z</time></trkpt><trkpt lat="46.4301825" lon="11.6856414"><ele>1308.4285714285716</ele><time>2026-04-26T14:13:31.021Z</time></trkpt><trkpt lat="46.4301135" lon="11.6856477"><ele>1308.7142857142858</ele><time>2026-04-26T14:13:32.021Z</time></trkpt><trkpt lat="46.4300457" lon="11.6856539"><ele>1309.0</ele><time>2026-04-26T14:13:33.021Z</time></trkpt><trkpt lat="46.4299827" lon="11.6856816"><ele>1309.0</ele><time>2026-04-26T14:13:34.021Z</time></trkpt><trkpt lat="46.4299139" lon="11.6856933"><ele>1309.0</ele><time>2026-04-26T14:13:35.021Z</time></trkpt><trkpt lat="46.4298471" lon="11.6856995"><ele>1309.0</ele><time>2026-04-26T14:13:36.021Z</time></trkpt><trkpt lat="46.4297828" lon="11.6856895"><ele>1309.0</ele><time>2026-04-26T14:13:37.021Z</time></trkpt><trkpt lat="46.4297124" lon="11.6856811"><ele>1309.0</ele><time>2026-04-26T14:13:38.021Z</time></trkpt><trkpt lat="46.4296459" lon="11.6856492"><ele>1309.0</ele><time>2026-04-26T14:13:39.022Z</time></trkpt><trkpt lat="46.4295809" lon="11.6856147"><ele>1309.0</ele><time>2026-04-26T14:13:40.021Z</time></trkpt><trkpt lat="46.4295158" lon="11.6855661"><ele>1308.857142857143</ele><time>2026-04-26T14:13:41.021Z</time></trkpt><trkpt lat="46.4294513" lon="11.6855172"><ele>1308.7142857142858</ele><time>2026-04-26T14:13:42.021Z</time></trkpt><trkpt lat="46.4293832" lon="11.6854754"><ele>1308.5714285714284</ele><time>2026-04-26T14:13:43.021Z</time></trkpt><trkpt lat="46.429311" lon="11.6854295"><ele>1308.4285714285716</ele><time>2026-04-26T14:13:44.021Z</time></trkpt><trkpt lat="46.4292441" lon="11.685385"><ele>1308.2857142857142</ele><time>2026-04-26T14:13:45.021Z</time></trkpt><trkpt lat="46.4291741" lon="11.6853377"><ele>1308.142857142857</ele><time>2026-04-26T14:13:46.021Z</time></trkpt><trkpt lat="46.4291084" lon="11.685293"><ele>1308.0</ele><time>2026-04-26T14:13:47.022Z</time></trkpt><trkpt lat="46.4290384" lon="11.6852567"><ele>1308.0</ele><time>2026-04-26T14:13:48.021Z</time></trkpt><trkpt lat="46.4289624" lon="11.6852022"><ele>1308.0</ele><time>2026-04-26T14:13:49.021Z</time></trkpt><trkpt lat="46.4288939" lon="11.6851314"><ele>1308.0</ele><time>2026-04-26T14:13:50.021Z</time></trkpt><trkpt lat="46.4288244" lon="11.6850614"><ele>1308.0</ele><time>2026-04-26T14:13:51.021Z</time></trkpt><trkpt lat="46.4287563" lon="11.6849877"><ele>1308.0</ele><time>2026-04-26T14:13:52.021Z</time></trkpt><trkpt lat="46.4286871" lon="11.6849078"><ele>1308.0</ele><time>2026-04-26T14:13:53.021Z</time></trkpt><trkpt lat="46.4286325" lon="11.6848266"><ele>1308.0</ele><time>2026-04-26T14:13:54.021Z</time></trkpt><trkpt lat="46.4285797" lon="11.6847365"><ele>1308.0</ele><time>2026-04-26T14:13:55.021Z</time></trkpt><trkpt lat="46.4285306" lon="11.6846287"><ele>1308.0</ele><time>2026-04-26T14:13:56.021Z</time></trkpt><trkpt lat="46.4284881" lon="11.6845233"><ele>1308.0</ele><time>2026-04-26T14:13:57.021Z</time></trkpt><trkpt lat="46.4284415" lon="11.6844143"><ele>1308.0</ele><time>2026-04-26T14:13:58.021Z</time></trkpt><trkpt lat="46.4283943" lon="11.6843058"><ele>1308.0</ele><time>2026-04-26T14:13:59.021Z</time></trkpt><trkpt lat="46.4283514" lon="11.6842056"><ele>1308.0</ele><time>2026-04-26T14:14:00.021Z</time></trkpt><trkpt lat="46.4283091" lon="11.6841068"><ele>1308.0</ele><time>2026-04-26T14:14:01.021Z</time></trkpt><trkpt lat="46.4282685" lon="11.6840064"><ele>1308.0</ele><time>2026-04-26T14:14:02.021Z</time></trkpt><trkpt lat="46.4282241" lon="11.6839018"><ele>1308.0</ele><time>2026-04-26T14:14:03.021Z</time></trkpt><trkpt lat="46.4281767" lon="11.6837987"><ele>1308.0</ele><time>2026-04-26T14:14:04.021Z</time></trkpt><trkpt lat="46.4281268" lon="11.6836995"><ele>1308.0</ele><time>2026-04-26T14:14:05.021Z</time></trkpt><trkpt lat="46.4280786" lon="11.6835982"><ele>1307.8333333333333</ele><time>2026-04-26T14:14:06.021Z</time></trkpt><trkpt lat="46.4280207" lon="11.6834982"><ele>1307.6666666666667</ele><time>2026-04-26T14:14:07.021Z</time></trkpt><trkpt lat="46.4279639" lon="11.6834026"><ele>1307.5</ele><time>2026-04-26T14:14:08.021Z</time></trkpt><trkpt lat="46.4279073" lon="11.6833051"><ele>1307.3333333333335</ele><time>2026-04-26T14:14:09.021Z</time></trkpt><trkpt lat="46.4278438" lon="11.6832194"><ele>1307.1666666666667</ele><time>2026-04-26T14:14:10.021Z</time></trkpt><trkpt lat="46.4277822" lon="11.6831262"><ele>1307.0</ele><time>2026-04-26T14:14:11.021Z</time></trkpt><trkpt lat="46.4277267" lon="11.6830494"><ele>1307.0</ele><time>2026-04-26T14:14:12.021Z</time></trkpt><trkpt lat="46.4276735" lon="11.6829805"><ele>1307.0</ele><time>2026-04-26T14:14:13.021Z</time></trkpt><trkpt lat="46.4276093" lon="11.6829278"><ele>1307.0</ele><time>2026-04-26T14:14:14.021Z</time></trkpt><trkpt lat="46.4275459" lon="11.6828919"><ele>1307.0</ele><time>2026-04-26T14:14:15.021Z</time></trkpt><trkpt lat="46.4274758" lon="11.6828684"><ele>1307.0</ele><time>2026-04-26T14:14:16.021Z</time></trkpt><trkpt lat="46.4273921" lon="11.6828587"><ele>1307.0</ele><time>2026-04-26T14:14:17.021Z</time></trkpt><trkpt lat="46.4273053" lon="11.6828476"><ele>1307.0</ele><time>2026-04-26T14:14:18.021Z</time></trkpt><trkpt lat="46.4272211" lon="11.6828375"><ele>1307.0</ele><time>2026-04-26T14:14:19.021Z</time></trkpt><trkpt lat="46.4271273" lon="11.6828211"><ele>1307.0</ele><time>2026-04-26T14:14:20.021Z</time></trkpt><trkpt lat="46.4270338" lon="11.6827997"><ele>1307.0</ele><time>2026-04-26T14:14:21.021Z</time></trkpt><trkpt lat="46.4269453" lon="11.6827692"><ele>1307.0</ele><time>2026-04-26T14:14:22.021Z</time></trkpt><trkpt lat="46.4268487" lon="11.6827313"><ele>1308.6</ele><time>2026-04-26T14:14:23.021Z</time></trkpt><trkpt lat="46.4267528" lon="11.6827042"><ele>1310.1999999999998</ele><time>2026-04-26T14:14:24.021Z</time></trkpt><trkpt lat="46.426661" lon="11.682674"><ele>1311.8</ele><time>2026-04-26T14:14:25.021Z</time></trkpt><trkpt lat="46.426565" lon="11.6826571"><ele>1313.4</ele><time>2026-04-26T14:14:26.021Z</time></trkpt><trkpt lat="46.4264594" lon="11.6826426"><ele>1315.0</ele><time>2026-04-26T14:14:27.021Z</time></trkpt><trkpt lat="46.4263503" lon="11.6826417"><ele>1315.5</ele><time>2026-04-26T14:14:28.021Z</time></trkpt><trkpt lat="46.4262351" lon="11.6826452"><ele>1316.0</ele><time>2026-04-26T14:14:29.021Z</time></trkpt><trkpt lat="46.4261178" lon="11.6826589"><ele>1316.5</ele><time>2026-04-26T14:14:30.021Z</time></trkpt><trkpt lat="46.4259948" lon="11.6826757"><ele>1317.0</ele><time>2026-04-26T14:14:31.021Z</time></trkpt><trkpt lat="46.4258768" lon="11.6826946"><ele>1317.0</ele><time>2026-04-26T14:14:32.021Z</time></trkpt><trkpt lat="46.4257536" lon="11.6827096"><ele>1317.0</ele><time>2026-04-26T14:14:33.021Z</time></trkpt><trkpt lat="46.4256292" lon="11.6827235"><ele>1317.0</ele><time>2026-04-26T14:14:34.021Z</time></trkpt><trkpt lat="46.4255038" lon="11.6827384"><ele>1317.0</ele><time>2026-04-26T14:14:35.021Z</time></trkpt><trkpt lat="46.4253805" lon="11.6827607"><ele>1315.75</ele><time>2026-04-26T14:14:36.021Z</time></trkpt><trkpt lat="46.4252592" lon="11.6827781"><ele>1314.5</ele><time>2026-04-26T14:14:37.021Z</time></trkpt><trkpt lat="46.4251412" lon="11.6827914"><ele>1313.25</ele><time>2026-04-26T14:14:38.021Z</time></trkpt><trkpt lat="46.4250196" lon="11.6828007"><ele>1312.0</ele><time>2026-04-26T14:14:39.021Z</time></trkpt><trkpt lat="46.4249027" lon="11.6827998"><ele>1312.0</ele><time>2026-04-26T14:14:40.021Z</time></trkpt><trkpt lat="46.4247817" lon="11.6827937"><ele>1312.0</ele><time>2026-04-26T14:14:41.021Z</time></trkpt><trkpt lat="46.4246633" lon="11.6827872"><ele>1312.0</ele><time>2026-04-26T14:14:42.021Z</time></trkpt><trkpt lat="46.4245464" lon="11.6827766"><ele>1312.0</ele><time>2026-04-26T14:14:43.022Z</time></trkpt><trkpt lat="46.424426" lon="11.6827632"><ele>1313.75</ele><time>2026-04-26T14:14:44.021Z</time></trkpt><trkpt lat="46.4243059" lon="11.6827493"><ele>1315.5</ele><time>2026-04-26T14:14:45.021Z</time></trkpt><trkpt lat="46.4241797" lon="11.6827288"><ele>1317.25</ele><time>2026-04-26T14:14:46.021Z</time></trkpt><trkpt lat="46.4240539" lon="11.6827136"><ele>1319.0</ele><time>2026-04-26T14:14:47.021Z</time></trkpt><trkpt lat="46.4239268" lon="11.6826981"><ele>1319.25</ele><time>2026-04-26T14:14:48.021Z</time></trkpt><trkpt lat="46.4238098" lon="11.6826755"><ele>1319.5</ele><time>2026-04-26T14:14:49.021Z</time></trkpt><trkpt lat="46.4236915" lon="11.682653"><ele>1319.75</ele><time>2026-04-26T14:14:50.022Z</time></trkpt><trkpt lat="46.423577" lon="11.6826347"><ele>1320.0</ele><time>2026-04-26T14:14:51.021Z</time></trkpt><trkpt lat="46.4234642" lon="11.6826211"><ele>1320.0</ele><time>2026-04-26T14:14:52.021Z</time></trkpt><trkpt lat="46.423349" lon="11.6826023"><ele>1320.0</ele><time>2026-04-26T14:14:53.021Z</time></trkpt><trkpt lat="46.4232313" lon="11.6825824"><ele>1320.0</ele><time>2026-04-26T14:14:54.021Z</time></trkpt><trkpt lat="46.4231117" lon="11.6825694"><ele>1320.0</ele><time>2026-04-26T14:14:55.021Z</time></trkpt><trkpt lat="46.4229927" lon="11.6825516"><ele>1321.0</ele><time>2026-04-26T14:14:56.021Z</time></trkpt><trkpt lat="46.4228733" lon="11.6825282"><ele>1322.0</ele><time>2026-04-26T14:14:57.021Z</time></trkpt><trkpt lat="46.4227591" lon="11.6825139"><ele>1323.0</ele><time>2026-04-26T14:14:58.021Z</time></trkpt><trkpt lat="46.4226493" lon="11.6824977"><ele>1324.0</ele><time>2026-04-26T14:14:59.021Z</time></trkpt><trkpt lat="46.4225426" lon="11.6824816"><ele>1324.0</ele><time>2026-04-26T14:15:00.021Z</time></trkpt><trkpt lat="46.4224325" lon="11.6824656"><ele>1324.0</ele><time>2026-04-26T14:15:01.021Z</time></trkpt><trkpt lat="46.4223188" lon="11.6824445"><ele>1324.0</ele><time>2026-04-26T14:15:02.021Z</time></trkpt><trkpt lat="46.4222042" lon="11.6824246"><ele>1324.0</ele><time>2026-04-26T14:15:03.022Z</time></trkpt><trkpt lat="46.4220904" lon="11.6824087"><ele>1322.8000000000002</ele><time>2026-04-26T14:15:04.021Z</time></trkpt><trkpt lat="46.4219763" lon="11.6823958"><ele>1321.6000000000001</ele><time>2026-04-26T14:15:05.021Z</time></trkpt><trkpt lat="46.4218642" lon="11.6823774"><ele>1320.4</ele><time>2026-04-26T14:15:06.021Z</time></trkpt><trkpt lat="46.4217579" lon="11.682355"><ele>1319.2</ele><time>2026-04-26T14:15:07.021Z</time></trkpt><trkpt lat="46.4216484" lon="11.682322"><ele>1318.0</ele><time>2026-04-26T14:15:08.021Z</time></trkpt><trkpt lat="46.4215455" lon="11.6822931"><ele>1318.0</ele><time>2026-04-26T14:15:09.021Z</time></trkpt><trkpt lat="46.4214444" lon="11.6822569"><ele>1318.0</ele><time>2026-04-26T14:15:10.021Z</time></trkpt><trkpt lat="46.4213423" lon="11.6822081"><ele>1318.0</ele><time>2026-04-26T14:15:11.021Z</time></trkpt><trkpt lat="46.421244" lon="11.6821438"><ele>1318.0</ele><time>2026-04-26T14:15:12.021Z</time></trkpt><trkpt lat="46.4211472" lon="11.682072"><ele>1318.0</ele><time>2026-04-26T14:15:13.021Z</time></trkpt><trkpt lat="46.4210535" lon="11.681995"><ele>1319.6666666666665</ele><time>2026-04-26T14:15:14.021Z</time></trkpt><trkpt lat="46.4209667" lon="11.6819183"><ele>1321.3333333333333</ele><time>2026-04-26T14:15:15.021Z</time></trkpt><trkpt lat="46.4208853" lon="11.6818457"><ele>1323.0</ele><time>2026-04-26T14:15:16.021Z</time></trkpt><trkpt lat="46.42081" lon="11.681771"><ele>1324.6666666666667</ele><time>2026-04-26T14:15:17.021Z</time></trkpt><trkpt lat="46.4207559" lon="11.6817024"><ele>1326.3333333333335</ele><time>2026-04-26T14:15:18.021Z</time></trkpt><trkpt lat="46.42072" lon="11.6815906"><ele>1328.0</ele><time>2026-04-26T14:15:20.021Z</time></trkpt><trkpt lat="46.4207423" lon="11.6814908"><ele>1328.0</ele><time>2026-04-26T14:15:22.021Z</time></trkpt><trkpt lat="46.4208561" lon="11.681443"><ele>1328.0</ele><time>2026-04-26T14:15:24.021Z</time></trkpt><trkpt lat="46.4209285" lon="11.6814612"><ele>1328.0</ele><time>2026-04-26T14:15:25.021Z</time></trkpt><trkpt lat="46.4210119" lon="11.6814699"><ele>1328.0</ele><time>2026-04-26T14:15:26.021Z</time></trkpt><trkpt lat="46.4210977" lon="11.681471"><ele>1328.0</ele><time>2026-04-26T14:15:27.021Z</time></trkpt><trkpt lat="46.4211891" lon="11.6814876"><ele>1328.0</ele><time>2026-04-26T14:15:28.021Z</time></trkpt><trkpt lat="46.4212698" lon="11.6815019"><ele>1328.0</ele><time>2026-04-26T14:15:29.021Z</time></trkpt><trkpt lat="46.4213518" lon="11.6815067"><ele>1328.0</ele><time>2026-04-26T14:15:30.021Z</time></trkpt><trkpt lat="46.4214339" lon="11.6815007"><ele>1328.0</ele><time>2026-04-26T14:15:31.021Z</time></trkpt><trkpt lat="46.4215169" lon="11.6814905"><ele>1328.0</ele><time>2026-04-26T14:15:32.021Z</time></trkpt><trkpt lat="46.421598" lon="11.6814837"><ele>1328.0</ele><time>2026-04-26T14:15:33.021Z</time></trkpt><trkpt lat="46.4216815" lon="11.6814704"><ele>1328.3333333333335</ele><time>2026-04-26T14:15:34.021Z</time></trkpt><trkpt lat="46.4217615" lon="11.681429"><ele>1328.6666666666667</ele><time>2026-04-26T14:15:35.021Z</time></trkpt><trkpt lat="46.4218367" lon="11.6813783"><ele>1329.0</ele><time>2026-04-26T14:15:36.021Z</time></trkpt><trkpt lat="46.4219022" lon="11.681327"><ele>1329.3333333333333</ele><time>2026-04-26T14:15:37.021Z</time></trkpt><trkpt lat="46.4219631" lon="11.6812648"><ele>1329.6666666666665</ele><time>2026-04-26T14:15:38.021Z</time></trkpt><trkpt lat="46.4220236" lon="11.6812089"><ele>1330.0</ele><time>2026-04-26T14:15:39.022Z</time></trkpt><trkpt lat="46.4220858" lon="11.6811527"><ele>1331.0</ele><time>2026-04-26T14:15:40.021Z</time></trkpt><trkpt lat="46.4221518" lon="11.6810912"><ele>1332.0</ele><time>2026-04-26T14:15:41.021Z</time></trkpt><trkpt lat="46.4222192" lon="11.6810316"><ele>1333.0</ele><time>2026-04-26T14:15:42.021Z</time></trkpt><trkpt lat="46.4222862" lon="11.6809704"><ele>1334.0</ele><time>2026-04-26T14:15:43.021Z</time></trkpt><trkpt lat="46.4223543" lon="11.6809056"><ele>1335.0</ele><time>2026-04-26T14:15:44.021Z</time></trkpt><trkpt lat="46.4224241" lon="11.6808399"><ele>1336.0</ele><time>2026-04-26T14:15:45.021Z</time></trkpt><trkpt lat="46.4224973" lon="11.6807724"><ele>1336.0</ele><time>2026-04-26T14:15:46.021Z</time></trkpt><trkpt lat="46.4225675" lon="11.6806994"><ele>1336.0</ele><time>2026-04-26T14:15:47.021Z</time></trkpt><trkpt lat="46.4226382" lon="11.6806355"><ele>1336.0</ele><time>2026-04-26T14:15:48.021Z</time></trkpt><trkpt lat="46.4227094" lon="11.6805697"><ele>1336.0</ele><time>2026-04-26T14:15:49.021Z</time></trkpt><trkpt lat="46.4227846" lon="11.6805009"><ele>1336.0</ele><time>2026-04-26T14:15:50.021Z</time></trkpt><trkpt lat="46.4228593" lon="11.680428"><ele>1336.0</ele><time>2026-04-26T14:15:51.021Z</time></trkpt><trkpt lat="46.4229325" lon="11.6803495"><ele>1336.0</ele><time>2026-04-26T14:15:52.021Z</time></trkpt><trkpt lat="46.423008" lon="11.6802702"><ele>1336.0</ele><time>2026-04-26T14:15:53.021Z</time></trkpt><trkpt lat="46.423083" lon="11.6801955"><ele>1336.0</ele><time>2026-04-26T14:15:54.021Z</time></trkpt><trkpt lat="46.4231617" lon="11.6801262"><ele>1336.0</ele><time>2026-04-26T14:15:55.021Z</time></trkpt><trkpt lat="46.42324" lon="11.6800527"><ele>1336.0</ele><time>2026-04-26T14:15:56.021Z</time></trkpt><trkpt lat="46.4233188" lon="11.6799804"><ele>1337.4</ele><time>2026-04-26T14:15:57.021Z</time></trkpt><trkpt lat="46.4233981" lon="11.6799101"><ele>1338.8</ele><time>2026-04-26T14:15:58.021Z</time></trkpt><trkpt lat="46.4234794" lon="11.6798273"><ele>1340.2</ele><time>2026-04-26T14:15:59.021Z</time></trkpt><trkpt lat="46.4235574" lon="11.6797509"><ele>1341.6000000000001</ele><time>2026-04-26T14:16:00.021Z</time></trkpt><trkpt lat="46.4236337" lon="11.6796593"><ele>1343.0</ele><time>2026-04-26T14:16:01.021Z</time></trkpt><trkpt lat="46.4237019" lon="11.6795663"><ele>1343.0</ele><time>2026-04-26T14:16:02.021Z</time></trkpt><trkpt lat="46.4237647" lon="11.6794658"><ele>1343.0</ele><time>2026-04-26T14:16:03.021Z</time></trkpt><trkpt lat="46.4238276" lon="11.6793694"><ele>1343.0</ele><time>2026-04-26T14:16:04.021Z</time></trkpt><trkpt lat="46.4238945" lon="11.6792768"><ele>1343.0</ele><time>2026-04-26T14:16:05.021Z</time></trkpt><trkpt lat="46.4239555" lon="11.6791762"><ele>1343.0</ele><time>2026-04-26T14:16:06.021Z</time></trkpt><trkpt lat="46.424016" lon="11.6790782"><ele>1344.3333333333335</ele><time>2026-04-26T14:16:07.021Z</time></trkpt><trkpt lat="46.424078" lon="11.6789801"><ele>1345.6666666666667</ele><time>2026-04-26T14:16:08.022Z</time></trkpt><trkpt lat="46.4241383" lon="11.6788931"><ele>1347.0</ele><time>2026-04-26T14:16:09.021Z</time></trkpt><trkpt lat="46.4241991" lon="11.6788084"><ele>1348.3333333333333</ele><time>2026-04-26T14:16:10.021Z</time></trkpt><trkpt lat="46.4242597" lon="11.6787151"><ele>1349.6666666666665</ele><time>2026-04-26T14:16:11.021Z</time></trkpt><trkpt lat="46.4243123" lon="11.6786195"><ele>1351.0</ele><time>2026-04-26T14:16:12.021Z</time></trkpt><trkpt lat="46.4243498" lon="11.678509"><ele>1352.8333333333333</ele><time>2026-04-26T14:16:13.021Z</time></trkpt><trkpt lat="46.4243667" lon="11.6783889"><ele>1354.6666666666665</ele><time>2026-04-26T14:16:14.021Z</time></trkpt><trkpt lat="46.4243608" lon="11.6782675"><ele>1356.5</ele><time>2026-04-26T14:16:15.021Z</time></trkpt><trkpt lat="46.424328" lon="11.6781535"><ele>1358.3333333333333</ele><time>2026-04-26T14:16:16.021Z</time></trkpt><trkpt lat="46.4242757" lon="11.6780569"><ele>1360.1666666666667</ele><time>2026-04-26T14:16:17.021Z</time></trkpt><trkpt lat="46.4242073" lon="11.6779827"><ele>1362.0</ele><time>2026-04-26T14:16:18.021Z</time></trkpt><trkpt lat="46.4241271" lon="11.6779252"><ele>1362.0</ele><time>2026-04-26T14:16:19.021Z</time></trkpt><trkpt lat="46.4240419" lon="11.6778932"><ele>1362.0</ele><time>2026-04-26T14:16:20.022Z</time></trkpt><trkpt lat="46.4239535" lon="11.6778709"><ele>1362.0</ele><time>2026-04-26T14:16:21.021Z</time></trkpt><trkpt lat="46.4238731" lon="11.6778414"><ele>1362.0</ele><time>2026-04-26T14:16:22.021Z</time></trkpt><trkpt lat="46.4237945" lon="11.6778194"><ele>1362.0</ele><time>2026-04-26T14:16:23.022Z</time></trkpt><trkpt lat="46.4237127" lon="11.6777989"><ele>1362.0</ele><time>2026-04-26T14:16:24.022Z</time></trkpt><trkpt lat="46.4236297" lon="11.6777811"><ele>1363.3333333333333</ele><time>2026-04-26T14:16:25.021Z</time></trkpt><trkpt lat="46.4235511" lon="11.6777652"><ele>1364.6666666666667</ele><time>2026-04-26T14:16:26.021Z</time></trkpt><trkpt lat="46.4234771" lon="11.6777432"><ele>1366.0</ele><time>2026-04-26T14:16:27.021Z</time></trkpt><trkpt lat="46.4234016" lon="11.6777204"><ele>1367.3333333333335</ele><time>2026-04-26T14:16:28.022Z</time></trkpt><trkpt lat="46.4233317" lon="11.6776977"><ele>1368.6666666666667</ele><time>2026-04-26T14:16:29.021Z</time></trkpt><trkpt lat="46.4232598" lon="11.6776729"><ele>1370.0</ele><time>2026-04-26T14:16:30.021Z</time></trkpt><trkpt lat="46.4231879" lon="11.6776488"><ele>1370.0</ele><time>2026-04-26T14:16:31.021Z</time></trkpt><trkpt lat="46.423119" lon="11.677618"><ele>1370.0</ele><time>2026-04-26T14:16:32.021Z</time></trkpt><trkpt lat="46.4230536" lon="11.6775882"><ele>1370.0</ele><time>2026-04-26T14:16:33.021Z</time></trkpt><trkpt lat="46.4229877" lon="11.6775537"><ele>1370.0</ele><time>2026-04-26T14:16:34.021Z</time></trkpt><trkpt lat="46.4229211" lon="11.6775199"><ele>1370.0</ele><time>2026-04-26T14:16:35.022Z</time></trkpt><trkpt lat="46.4228584" lon="11.6774805"><ele>1370.0</ele><time>2026-04-26T14:16:36.021Z</time></trkpt><trkpt lat="46.4228007" lon="11.6774416"><ele>1370.0</ele><time>2026-04-26T14:16:37.021Z</time></trkpt><trkpt lat="46.42274" lon="11.6774004"><ele>1371.2</ele><time>2026-04-26T14:16:38.022Z</time></trkpt><trkpt lat="46.4226296" lon="11.677303"><ele>1372.4</ele><time>2026-04-26T14:16:40.021Z</time></trkpt><trkpt lat="46.4225716" lon="11.677244"><ele>1373.6</ele><time>2026-04-26T14:16:41.021Z</time></trkpt><trkpt lat="46.4225166" lon="11.6771954"><ele>1374.8</ele><time>2026-04-26T14:16:42.021Z</time></trkpt><trkpt lat="46.4224622" lon="11.6771447"><ele>1376.0</ele><time>2026-04-26T14:16:43.021Z</time></trkpt><trkpt lat="46.4223566" lon="11.6770557"><ele>1376.0</ele><time>2026-04-26T14:16:45.021Z</time></trkpt><trkpt lat="46.4223" lon="11.6769991"><ele>1376.0</ele><time>2026-04-26T14:16:46.021Z</time></trkpt><trkpt lat="46.4222423" lon="11.6769459"><ele>1376.0</ele><time>2026-04-26T14:16:47.021Z</time></trkpt><trkpt lat="46.4221871" lon="11.6768778"><ele>1376.0</ele><time>2026-04-26T14:16:48.021Z</time></trkpt><trkpt lat="46.4207095" lon="11.6759937"><ele>1375.4</ele><time>2026-04-26T14:17:14.021Z</time></trkpt><trkpt lat="46.4205703" lon="11.6759167"><ele>1374.8</ele><time>2026-04-26T14:17:16.021Z</time></trkpt><trkpt lat="46.4205026" lon="11.6758823"><ele>1374.2</ele><time>2026-04-26T14:17:17.021Z</time></trkpt><trkpt lat="46.4203993" lon="11.6758298"><ele>1373.6000000000001</ele><time>2026-04-26T14:17:19.021Z</time></trkpt><trkpt lat="46.4203354" lon="11.6757825"><ele>1373.0</ele><time>2026-04-26T14:17:23.021Z</time></trkpt><trkpt lat="46.4203613" lon="11.6756939"><ele>1373.0</ele><time>2026-04-26T14:17:27.021Z</time></trkpt><trkpt lat="46.4204316" lon="11.6757241"><ele>1373.0</ele><time>2026-04-26T14:17:52.021Z</time></trkpt></trkseg><trkseg><trkpt lat="46.4204048" lon="11.6757609"><ele>1373.0</ele><time>2026-04-26T14:40:21.019Z</time></trkpt><trkpt lat="46.4203156" lon="11.6757817"><ele>1373.0</ele><time>2026-04-26T14:40:49.019Z</time></trkpt><trkpt lat="46.4202424" lon="11.6758161"><ele>1373.0</ele><time>2026-04-26T14:40:51.102Z</time></trkpt><trkpt lat="46.4201471" lon="11.6757106"><ele>1373.0</ele><time>2026-04-26T14:40:53.019Z</time></trkpt><trkpt lat="46.4200895" lon="11.6756728"><ele>1373.0</ele><time>2026-04-26T14:40:54.019Z</time></trkpt><trkpt lat="46.4200267" lon="11.6756375"><ele>1373.0</ele><time>2026-04-26T14:40:55.019Z</time></trkpt><trkpt lat="46.4199591" lon="11.6755996"><ele>1373.0</ele><time>2026-04-26T14:40:56.019Z</time></trkpt><trkpt lat="46.4198876" lon="11.675561"><ele>1373.0</ele><time>2026-04-26T14:40:57.019Z</time></trkpt><trkpt lat="46.4198132" lon="11.6755227"><ele>1373.0</ele><time>2026-04-26T14:40:58.019Z</time></trkpt><trkpt lat="46.4197351" lon="11.6754843"><ele>1373.0</ele><time>2026-04-26T14:40:59.019Z</time></trkpt><trkpt lat="46.4196556" lon="11.6754422"><ele>1373.0</ele><time>2026-04-26T14:41:00.019Z</time></trkpt><trkpt lat="46.4195786" lon="11.6754027"><ele>1373.0</ele><time>2026-04-26T14:41:01.019Z</time></trkpt><trkpt lat="46.419503" lon="11.6753644"><ele>1372.5</ele><time>2026-04-26T14:41:02.019Z</time></trkpt><trkpt lat="46.4194272" lon="11.6753218"><ele>1372.0</ele><time>2026-04-26T14:41:03.019Z</time></trkpt><trkpt lat="46.4193523" lon="11.6752848"><ele>1371.5</ele><time>2026-04-26T14:41:04.019Z</time></trkpt><trkpt lat="46.4192771" lon="11.6752467"><ele>1371.0</ele><time>2026-04-26T14:41:05.019Z</time></trkpt><trkpt lat="46.4192029" lon="11.6752031"><ele>1370.5</ele><time>2026-04-26T14:41:06.019Z</time></trkpt><trkpt lat="46.4191303" lon="11.6751624"><ele>1370.0</ele><time>2026-04-26T14:41:07.019Z</time></trkpt><trkpt lat="46.4190583" lon="11.675125"><ele>1370.0</ele><time>2026-04-26T14:41:08.019Z</time></trkpt><trkpt lat="46.418986" lon="11.6750888"><ele>1370.0</ele><time>2026-04-26T14:41:09.019Z</time></trkpt><trkpt lat="46.4189142" lon="11.6750493"><ele>1370.0</ele><time>2026-04-26T14:41:10.019Z</time></trkpt><trkpt lat="46.4188439" lon="11.6750061"><ele>1370.0</ele><time>2026-04-26T14:41:11.019Z</time></trkpt><trkpt lat="46.4187753" lon="11.674959"><ele>1370.0</ele><time>2026-04-26T14:41:12.019Z</time></trkpt><trkpt lat="46.4187105" lon="11.6749072"><ele>1370.0</ele><time>2026-04-26T14:41:13.019Z</time></trkpt><trkpt lat="46.4186436" lon="11.6748542"><ele>1367.5</ele><time>2026-04-26T14:41:14.019Z</time></trkpt><trkpt lat="46.4185743" lon="11.6748085"><ele>1365.0</ele><time>2026-04-26T14:41:15.019Z</time></trkpt><trkpt lat="46.4185027" lon="11.6747663"><ele>1362.5</ele><time>2026-04-26T14:41:16.02Z</time></trkpt><trkpt lat="46.4184247" lon="11.6747332"><ele>1360.0</ele><time>2026-04-26T14:41:17.019Z</time></trkpt><trkpt lat="46.418344" lon="11.6747039"><ele>1357.5</ele><time>2026-04-26T14:41:18.019Z</time></trkpt><trkpt lat="46.4182691" lon="11.674676"><ele>1355.0</ele><time>2026-04-26T14:41:19.019Z</time></trkpt><trkpt lat="46.4182059" lon="11.674652"><ele>1355.0</ele><time>2026-04-26T14:41:20.019Z</time></trkpt><trkpt lat="46.4181392" lon="11.6745971"><ele>1355.0</ele><time>2026-04-26T14:41:22.019Z</time></trkpt><trkpt lat="46.4180732" lon="11.6744974"><ele>1355.0</ele><time>2026-04-26T14:41:25.019Z</time></trkpt><trkpt lat="46.4180329" lon="11.674373"><ele>1355.0</ele><time>2026-04-26T14:41:27.019Z</time></trkpt><trkpt lat="46.4180285" lon="11.6742222"><ele>1355.0</ele><time>2026-04-26T14:41:29.019Z</time></trkpt><trkpt lat="46.4180548" lon="11.6741306"><ele>1355.0</ele><time>2026-04-26T14:41:30.019Z</time></trkpt><trkpt lat="46.4180963" lon="11.6740273"><ele>1356.1666666666667</ele><time>2026-04-26T14:41:31.019Z</time></trkpt><trkpt lat="46.4181345" lon="11.6739242"><ele>1357.3333333333335</ele><time>2026-04-26T14:41:32.019Z</time></trkpt><trkpt lat="46.4181633" lon="11.6738095"><ele>1358.5</ele><time>2026-04-26T14:41:33.019Z</time></trkpt><trkpt lat="46.4181864" lon="11.6736936"><ele>1359.6666666666667</ele><time>2026-04-26T14:41:34.019Z</time></trkpt><trkpt lat="46.4181904" lon="11.6735615"><ele>1360.8333333333333</ele><time>2026-04-26T14:41:35.019Z</time></trkpt><trkpt lat="46.4181824" lon="11.6734307"><ele>1362.0</ele><time>2026-04-26T14:41:36.019Z</time></trkpt><trkpt lat="46.4181601" lon="11.6733055"><ele>1362.0</ele><time>2026-04-26T14:41:37.019Z</time></trkpt><trkpt lat="46.4181126" lon="11.6731863"><ele>1362.0</ele><time>2026-04-26T14:41:38.019Z</time></trkpt><trkpt lat="46.418056" lon="11.6730673"><ele>1362.0</ele><time>2026-04-26T14:41:39.019Z</time></trkpt><trkpt lat="46.4179955" lon="11.672954"><ele>1362.0</ele><time>2026-04-26T14:41:40.019Z</time></trkpt><trkpt lat="46.4179362" lon="11.672841"><ele>1362.0</ele><time>2026-04-26T14:41:41.019Z</time></trkpt><trkpt lat="46.4178752" lon="11.6727287"><ele>1363.1999999999998</ele><time>2026-04-26T14:41:42.019Z</time></trkpt><trkpt lat="46.4178145" lon="11.6726186"><ele>1364.4</ele><time>2026-04-26T14:41:43.02Z</time></trkpt><trkpt lat="46.4177499" lon="11.6725035"><ele>1365.6</ele><time>2026-04-26T14:41:44.019Z</time></trkpt><trkpt lat="46.4176917" lon="11.672382"><ele>1366.8000000000002</ele><time>2026-04-26T14:41:45.019Z</time></trkpt><trkpt lat="46.4176336" lon="11.6722608"><ele>1368.0</ele><time>2026-04-26T14:41:46.02Z</time></trkpt><trkpt lat="46.4175761" lon="11.6721387"><ele>1368.0</ele><time>2026-04-26T14:41:47.019Z</time></trkpt><trkpt lat="46.4175165" lon="11.6720163"><ele>1368.0</ele><time>2026-04-26T14:41:48.019Z</time></trkpt><trkpt lat="46.417466" lon="11.671891"><ele>1368.0</ele><time>2026-04-26T14:41:49.019Z</time></trkpt><trkpt lat="46.4174307" lon="11.6717615"><ele>1368.0</ele><time>2026-04-26T14:41:50.02Z</time></trkpt><trkpt lat="46.4179746" lon="11.6708554"><ele>1370.75</ele><time>2026-04-26T14:41:59.019Z</time></trkpt><trkpt lat="46.418087" lon="11.6709137"><ele>1373.5</ele><time>2026-04-26T14:42:00.019Z</time></trkpt><trkpt lat="46.4181966" lon="11.6709672"><ele>1376.25</ele><time>2026-04-26T14:42:01.019Z</time></trkpt><trkpt lat="46.418307" lon="11.670996"><ele>1379.0</ele><time>2026-04-26T14:42:02.019Z</time></trkpt><trkpt lat="46.4184158" lon="11.6710469"><ele>1379.0</ele><time>2026-04-26T14:42:03.019Z</time></trkpt><trkpt lat="46.4185291" lon="11.6710813"><ele>1379.0</ele><time>2026-04-26T14:42:04.019Z</time></trkpt><trkpt lat="46.4186322" lon="11.671099"><ele>1379.0</ele><time>2026-04-26T14:42:05.019Z</time></trkpt><trkpt lat="46.418748" lon="11.6711227"><ele>1379.0</ele><time>2026-04-26T14:42:06.019Z</time></trkpt><trkpt lat="46.4188414" lon="11.671088"><ele>1379.0</ele><time>2026-04-26T14:42:07.019Z</time></trkpt><trkpt lat="46.4189271" lon="11.6710296"><ele>1381.25</ele><time>2026-04-26T14:42:08.019Z</time></trkpt><trkpt lat="46.4190083" lon="11.6709431"><ele>1383.5</ele><time>2026-04-26T14:42:09.019Z</time></trkpt><trkpt lat="46.419083" lon="11.670814"><ele>1385.75</ele><time>2026-04-26T14:42:10.019Z</time></trkpt><trkpt lat="46.4191406" lon="11.6706609"><ele>1388.0</ele><time>2026-04-26T14:42:11.019Z</time></trkpt><trkpt lat="46.4191942" lon="11.6705099"><ele>1388.0</ele><time>2026-04-26T14:42:12.019Z</time></trkpt><trkpt lat="46.41924" lon="11.6703659"><ele>1388.0</ele><time>2026-04-26T14:42:13.019Z</time></trkpt><trkpt lat="46.4192811" lon="11.6702271"><ele>1388.0</ele><time>2026-04-26T14:42:14.019Z</time></trkpt><trkpt lat="46.4193176" lon="11.6701048"><ele>1388.0</ele><time>2026-04-26T14:42:15.019Z</time></trkpt><trkpt lat="46.4193577" lon="11.6699859"><ele>1388.0</ele><time>2026-04-26T14:42:16.019Z</time></trkpt><trkpt lat="46.4193957" lon="11.6698682"><ele>1389.1666666666667</ele><time>2026-04-26T14:42:17.019Z</time></trkpt><trkpt lat="46.4194399" lon="11.6697533"><ele>1390.3333333333335</ele><time>2026-04-26T14:42:18.019Z</time></trkpt><trkpt lat="46.419474" lon="11.6696381"><ele>1391.5</ele><time>2026-04-26T14:42:19.019Z</time></trkpt><trkpt lat="46.4195055" lon="11.6695197"><ele>1392.6666666666667</ele><time>2026-04-26T14:42:20.02Z</time></trkpt><trkpt lat="46.4195277" lon="11.6694048"><ele>1393.8333333333333</ele><time>2026-04-26T14:42:21.019Z</time></trkpt><trkpt lat="46.4195258" lon="11.6692973"><ele>1395.0</ele><time>2026-04-26T14:42:22.019Z</time></trkpt><trkpt lat="46.4195028" lon="11.6691967"><ele>1395.6666666666667</ele><time>2026-04-26T14:42:23.019Z</time></trkpt><trkpt lat="46.4194572" lon="11.6691042"><ele>1396.3333333333333</ele><time>2026-04-26T14:42:24.019Z</time></trkpt><trkpt lat="46.4193942" lon="11.6690307"><ele>1397.0</ele><time>2026-04-26T14:42:25.019Z</time></trkpt><trkpt lat="46.4193156" lon="11.6689685"><ele>1397.6666666666665</ele><time>2026-04-26T14:42:26.019Z</time></trkpt><trkpt lat="46.4192343" lon="11.6689196"><ele>1398.3333333333333</ele><time>2026-04-26T14:42:27.019Z</time></trkpt><trkpt lat="46.4191484" lon="11.6688587"><ele>1399.0</ele><time>2026-04-26T14:42:28.019Z</time></trkpt><trkpt lat="46.4190639" lon="11.6688018"><ele>1399.0</ele><time>2026-04-26T14:42:29.019Z</time></trkpt><trkpt lat="46.4189861" lon="11.6687476"><ele>1399.0</ele><time>2026-04-26T14:42:30.019Z</time></trkpt><trkpt lat="46.4189044" lon="11.6687067"><ele>1399.0</ele><time>2026-04-26T14:42:31.019Z</time></trkpt><trkpt lat="46.4188178" lon="11.6686749"><ele>1399.0</ele><time>2026-04-26T14:42:32.019Z</time></trkpt><trkpt lat="46.4187234" lon="11.668657"><ele>1399.0</ele><time>2026-04-26T14:42:33.019Z</time></trkpt><trkpt lat="46.4186269" lon="11.6686597"><ele>1399.4</ele><time>2026-04-26T14:42:34.019Z</time></trkpt><trkpt lat="46.418527" lon="11.6686739"><ele>1399.8000000000002</ele><time>2026-04-26T14:42:35.019Z</time></trkpt><trkpt lat="46.4184275" lon="11.668719"><ele>1400.1999999999998</ele><time>2026-04-26T14:42:36.019Z</time></trkpt><trkpt lat="46.4183369" lon="11.6687813"><ele>1400.6</ele><time>2026-04-26T14:42:37.019Z</time></trkpt><trkpt lat="46.4182474" lon="11.6688722"><ele>1401.0</ele><time>2026-04-26T14:42:38.019Z</time></trkpt><trkpt lat="46.4181589" lon="11.6689869"><ele>1401.0</ele><time>2026-04-26T14:42:39.019Z</time></trkpt><trkpt lat="46.4180665" lon="11.669107"><ele>1401.0</ele><time>2026-04-26T14:42:40.019Z</time></trkpt><trkpt lat="46.4179675" lon="11.6692347"><ele>1401.0</ele><time>2026-04-26T14:42:41.019Z</time></trkpt><trkpt lat="46.417867" lon="11.6693726"><ele>1401.0</ele><time>2026-04-26T14:42:42.019Z</time></trkpt><trkpt lat="46.417767" lon="11.6695093"><ele>1400.5</ele><time>2026-04-26T14:42:43.019Z</time></trkpt><trkpt lat="46.4176697" lon="11.6696329"><ele>1400.0</ele><time>2026-04-26T14:42:44.019Z</time></trkpt><trkpt lat="46.4175682" lon="11.6697406"><ele>1399.5</ele><time>2026-04-26T14:42:45.019Z</time></trkpt><trkpt lat="46.4174684" lon="11.6698263"><ele>1399.0</ele><time>2026-04-26T14:42:46.019Z</time></trkpt><trkpt lat="46.4173787" lon="11.6698809"><ele>1399.0</ele><time>2026-04-26T14:42:47.019Z</time></trkpt><trkpt lat="46.4172749" lon="11.6699024"><ele>1399.0</ele><time>2026-04-26T14:42:48.019Z</time></trkpt><trkpt lat="46.4171629" lon="11.6698975"><ele>1399.0</ele><time>2026-04-26T14:42:49.019Z</time></trkpt><trkpt lat="46.4170463" lon="11.6698813"><ele>1399.0</ele><time>2026-04-26T14:42:50.019Z</time></trkpt><trkpt lat="46.4169257" lon="11.6698479"><ele>1401.5</ele><time>2026-04-26T14:42:51.02Z</time></trkpt><trkpt lat="46.4167972" lon="11.6698166"><ele>1404.0</ele><time>2026-04-26T14:42:52.019Z</time></trkpt><trkpt lat="46.4166744" lon="11.6697741"><ele>1406.5</ele><time>2026-04-26T14:42:53.019Z</time></trkpt><trkpt lat="46.4165495" lon="11.6697333"><ele>1409.0</ele><time>2026-04-26T14:42:54.019Z</time></trkpt><trkpt lat="46.4164285" lon="11.669685"><ele>1408.8000000000002</ele><time>2026-04-26T14:42:55.019Z</time></trkpt><trkpt lat="46.416314" lon="11.6696225"><ele>1408.6000000000001</ele><time>2026-04-26T14:42:56.02Z</time></trkpt><trkpt lat="46.4162114" lon="11.6695428"><ele>1408.4</ele><time>2026-04-26T14:42:57.019Z</time></trkpt><trkpt lat="46.4161209" lon="11.6694728"><ele>1408.2</ele><time>2026-04-26T14:42:58.019Z</time></trkpt><trkpt lat="46.4160513" lon="11.6694127"><ele>1408.0</ele><time>2026-04-26T14:42:59.019Z</time></trkpt><trkpt lat="46.4159947" lon="11.6693641"><ele>1410.0</ele><time>2026-04-26T14:43:00.018Z</time></trkpt><trkpt lat="46.4159021" lon="11.6692965"><ele>1412.0</ele><time>2026-04-26T14:43:02.019Z</time></trkpt><trkpt lat="46.4157943" lon="11.6692061"><ele>1414.0</ele><time>2026-04-26T14:43:04.018Z</time></trkpt><trkpt lat="46.4157191" lon="11.6691389"><ele>1416.0</ele><time>2026-04-26T14:43:05.018Z</time></trkpt><trkpt lat="46.4156298" lon="11.66906"><ele>1418.0</ele><time>2026-04-26T14:43:06.018Z</time></trkpt><trkpt lat="46.4155308" lon="11.6689745"><ele>1417.5</ele><time>2026-04-26T14:43:07.018Z</time></trkpt><trkpt lat="46.4154183" lon="11.6688821"><ele>1417.0</ele><time>2026-04-26T14:43:08.018Z</time></trkpt><trkpt lat="46.4152937" lon="11.6687807"><ele>1416.5</ele><time>2026-04-26T14:43:09.018Z</time></trkpt><trkpt lat="46.4151555" lon="11.6686773"><ele>1416.0</ele><time>2026-04-26T14:43:10.018Z</time></trkpt><trkpt lat="46.4150106" lon="11.6685641"><ele>1419.0</ele><time>2026-04-26T14:43:11.018Z</time></trkpt><trkpt lat="46.4148629" lon="11.6684291"><ele>1422.0</ele><time>2026-04-26T14:43:12.018Z</time></trkpt><trkpt lat="46.4147113" lon="11.668279"><ele>1425.0</ele><time>2026-04-26T14:43:13.018Z</time></trkpt><trkpt lat="46.4145566" lon="11.6681068"><ele>1425.0</ele><time>2026-04-26T14:43:14.018Z</time></trkpt><trkpt lat="46.4143901" lon="11.6679279"><ele>1425.0</ele><time>2026-04-26T14:43:15.018Z</time></trkpt><trkpt lat="46.4142171" lon="11.6677443"><ele>1425.0</ele><time>2026-04-26T14:43:16.018Z</time></trkpt><trkpt lat="46.4140315" lon="11.6675607"><ele>1429.5</ele><time>2026-04-26T14:43:17.019Z</time></trkpt><trkpt lat="46.4138418" lon="11.6673742"><ele>1434.0</ele><time>2026-04-26T14:43:18.018Z</time></trkpt><trkpt lat="46.4136578" lon="11.6671924"><ele>1434.0</ele><time>2026-04-26T14:43:19.019Z</time></trkpt><trkpt lat="46.4134925" lon="11.6670294"><ele>1434.0</ele><time>2026-04-26T14:43:20.018Z</time></trkpt><trkpt lat="46.41334" lon="11.6668772"><ele>1434.0</ele><time>2026-04-26T14:43:21.018Z</time></trkpt><trkpt lat="46.4131927" lon="11.6667363"><ele>1434.6666666666667</ele><time>2026-04-26T14:43:22.018Z</time></trkpt><trkpt lat="46.4130582" lon="11.6665914"><ele>1435.3333333333335</ele><time>2026-04-26T14:43:23.018Z</time></trkpt><trkpt lat="46.4129297" lon="11.666428"><ele>1436.0</ele><time>2026-04-26T14:43:24.018Z</time></trkpt><trkpt lat="46.4128064" lon="11.6662492"><ele>1443.0</ele><time>2026-04-26T14:43:25.018Z</time></trkpt><trkpt lat="46.4126922" lon="11.6660543"><ele>1450.0</ele><time>2026-04-26T14:43:26.018Z</time></trkpt><trkpt lat="46.4125809" lon="11.6658537"><ele>1457.0</ele><time>2026-04-26T14:43:27.018Z</time></trkpt><trkpt lat="46.4124767" lon="11.665648"><ele>1457.0</ele><time>2026-04-26T14:43:28.018Z</time></trkpt><trkpt lat="46.4123708" lon="11.6654521"><ele>1457.0</ele><time>2026-04-26T14:43:29.018Z</time></trkpt><trkpt lat="46.4122687" lon="11.665265"><ele>1457.0</ele><time>2026-04-26T14:43:30.018Z</time></trkpt><trkpt lat="46.4121693" lon="11.6650895"><ele>1454.0</ele><time>2026-04-26T14:43:31.018Z</time></trkpt><trkpt lat="46.4120785" lon="11.6649237"><ele>1451.0</ele><time>2026-04-26T14:43:32.018Z</time></trkpt><trkpt lat="46.4120065" lon="11.6647779"><ele>1448.0</ele><time>2026-04-26T14:43:33.018Z</time></trkpt><trkpt lat="46.4119534" lon="11.6646311"><ele>1445.0</ele><time>2026-04-26T14:43:34.018Z</time></trkpt><trkpt lat="46.4119308" lon="11.6644877"><ele>1446.5</ele><time>2026-04-26T14:43:35.018Z</time></trkpt><trkpt lat="46.4119362" lon="11.6643335"><ele>1448.0</ele><time>2026-04-26T14:43:36.018Z</time></trkpt><trkpt lat="46.4119774" lon="11.6641881"><ele>1449.5</ele><time>2026-04-26T14:43:37.018Z</time></trkpt><trkpt lat="46.4120494" lon="11.6640332"><ele>1451.0</ele><time>2026-04-26T14:43:38.018Z</time></trkpt><trkpt lat="46.4121412" lon="11.6638813"><ele>1458.6666666666667</ele><time>2026-04-26T14:43:39.018Z</time></trkpt><trkpt lat="46.4122387" lon="11.6637374"><ele>1466.3333333333333</ele><time>2026-04-26T14:43:40.018Z</time></trkpt><trkpt lat="46.4123419" lon="11.6635689"><ele>1474.0</ele><time>2026-04-26T14:43:41.018Z</time></trkpt><trkpt lat="46.4124429" lon="11.6633913"><ele>1474.0</ele><time>2026-04-26T14:43:42.018Z</time></trkpt><trkpt lat="46.4125419" lon="11.6632217"><ele>1474.0</ele><time>2026-04-26T14:43:43.018Z</time></trkpt><trkpt lat="46.412623" lon="11.6630412"><ele>1474.0</ele><time>2026-04-26T14:43:44.018Z</time></trkpt><trkpt lat="46.4126839" lon="11.6628566"><ele>1474.0</ele><time>2026-04-26T14:43:45.018Z</time></trkpt><trkpt lat="46.4127206" lon="11.6626739"><ele>1474.5</ele><time>2026-04-26T14:43:46.018Z</time></trkpt><trkpt lat="46.4127338" lon="11.6624857"><ele>1475.0</ele><time>2026-04-26T14:43:47.018Z</time></trkpt><trkpt lat="46.412725" lon="11.662301"><ele>1475.5</ele><time>2026-04-26T14:43:48.018Z</time></trkpt><trkpt lat="46.4126979" lon="11.6621212"><ele>1476.0</ele><time>2026-04-26T14:43:49.018Z</time></trkpt><trkpt lat="46.4126595" lon="11.6619344"><ele>1478.0</ele><time>2026-04-26T14:43:50.018Z</time></trkpt><trkpt lat="46.412624" lon="11.6617425"><ele>1480.0</ele><time>2026-04-26T14:43:51.018Z</time></trkpt><trkpt lat="46.4125889" lon="11.6615416"><ele>1482.0</ele><time>2026-04-26T14:43:52.018Z</time></trkpt><trkpt lat="46.4125478" lon="11.6613403"><ele>1484.0</ele><time>2026-04-26T14:43:53.018Z</time></trkpt><trkpt lat="46.4125018" lon="11.6611427"><ele>1487.3333333333335</ele><time>2026-04-26T14:43:54.018Z</time></trkpt><trkpt lat="46.4124353" lon="11.6609497"><ele>1490.6666666666667</ele><time>2026-04-26T14:43:55.018Z</time></trkpt><trkpt lat="46.4123471" lon="11.66077"><ele>1494.0</ele><time>2026-04-26T14:43:56.018Z</time></trkpt><trkpt lat="46.412245" lon="11.6606043"><ele>1493.3333333333333</ele><time>2026-04-26T14:43:57.018Z</time></trkpt><trkpt lat="46.4121277" lon="11.6604584"><ele>1492.6666666666665</ele><time>2026-04-26T14:43:58.018Z</time></trkpt><trkpt lat="46.4120009" lon="11.6603346"><ele>1492.0</ele><time>2026-04-26T14:43:59.018Z</time></trkpt><trkpt lat="46.4118693" lon="11.6602101"><ele>1492.0</ele><time>2026-04-26T14:44:00.018Z</time></trkpt><trkpt lat="46.411742" lon="11.6600912"><ele>1492.0</ele><time>2026-04-26T14:44:01.018Z</time></trkpt><trkpt lat="46.4116285" lon="11.6599761"><ele>1492.0</ele><time>2026-04-26T14:44:02.018Z</time></trkpt><trkpt lat="46.4115397" lon="11.6598776"><ele>1492.0</ele><time>2026-04-26T14:44:03.018Z</time></trkpt><trkpt lat="46.4114747" lon="11.6597704"><ele>1492.0</ele><time>2026-04-26T14:44:04.018Z</time></trkpt><trkpt lat="46.4114386" lon="11.6596571"><ele>1492.0</ele><time>2026-04-26T14:44:05.018Z</time></trkpt><trkpt lat="46.4114428" lon="11.6595282"><ele>1492.0</ele><time>2026-04-26T14:44:06.018Z</time></trkpt><trkpt lat="46.4114689" lon="11.6594"><ele>1492.0</ele><time>2026-04-26T14:44:07.018Z</time></trkpt><trkpt lat="46.4115498" lon="11.6592771"><ele>1492.0</ele><time>2026-04-26T14:44:08.019Z</time></trkpt><trkpt lat="46.4116357" lon="11.6591658"><ele>1494.0</ele><time>2026-04-26T14:44:09.018Z</time></trkpt><trkpt lat="46.4117119" lon="11.6590555"><ele>1496.0</ele><time>2026-04-26T14:44:10.018Z</time></trkpt><trkpt lat="46.4117818" lon="11.6589484"><ele>1498.0</ele><time>2026-04-26T14:44:11.018Z</time></trkpt><trkpt lat="46.4118199" lon="11.6588365"><ele>1500.0</ele><time>2026-04-26T14:44:12.018Z</time></trkpt><trkpt lat="46.4118305" lon="11.65872"><ele>1502.0</ele><time>2026-04-26T14:44:13.018Z</time></trkpt><trkpt lat="46.411791" lon="11.6585966"><ele>1502.3999999999999</ele><time>2026-04-26T14:44:14.018Z</time></trkpt><trkpt lat="46.4117181" lon="11.6584882"><ele>1502.8</ele><time>2026-04-26T14:44:15.018Z</time></trkpt><trkpt lat="46.4116462" lon="11.6583843"><ele>1503.2</ele><time>2026-04-26T14:44:16.018Z</time></trkpt><trkpt lat="46.4115937" lon="11.6582794"><ele>1503.6</ele><time>2026-04-26T14:44:17.018Z</time></trkpt><trkpt lat="46.4115692" lon="11.6581549"><ele>1504.0</ele><time>2026-04-26T14:44:18.018Z</time></trkpt><trkpt lat="46.4115868" lon="11.6580279"><ele>1504.0</ele><time>2026-04-26T14:44:19.018Z</time></trkpt><trkpt lat="46.4116497" lon="11.6579075"><ele>1504.0</ele><time>2026-04-26T14:44:20.018Z</time></trkpt><trkpt lat="46.4117304" lon="11.6577935"><ele>1504.0</ele><time>2026-04-26T14:44:21.018Z</time></trkpt><trkpt lat="46.4118261" lon="11.6576746"><ele>1504.0</ele><time>2026-04-26T14:44:22.018Z</time></trkpt><trkpt lat="46.411923" lon="11.6575534"><ele>1504.0</ele><time>2026-04-26T14:44:23.018Z</time></trkpt><trkpt lat="46.4120168" lon="11.6574275"><ele>1504.0</ele><time>2026-04-26T14:44:24.018Z</time></trkpt><trkpt lat="46.4120991" lon="11.6572918"><ele>1504.0</ele><time>2026-04-26T14:44:25.019Z</time></trkpt><trkpt lat="46.4121708" lon="11.6571421"><ele>1504.0</ele><time>2026-04-26T14:44:26.018Z</time></trkpt><trkpt lat="46.4122224" lon="11.65698"><ele>1513.25</ele><time>2026-04-26T14:44:27.018Z</time></trkpt><trkpt lat="46.4122573" lon="11.6568121"><ele>1522.5</ele><time>2026-04-26T14:44:28.018Z</time></trkpt><trkpt lat="46.4122828" lon="11.6566339"><ele>1531.75</ele><time>2026-04-26T14:44:29.018Z</time></trkpt><trkpt lat="46.4123021" lon="11.6564578"><ele>1541.0</ele><time>2026-04-26T14:44:30.018Z</time></trkpt><trkpt lat="46.4123228" lon="11.6562896"><ele>1541.0</ele><time>2026-04-26T14:44:31.018Z</time></trkpt><trkpt lat="46.4123547" lon="11.6561363"><ele>1541.0</ele><time>2026-04-26T14:44:32.018Z</time></trkpt><trkpt lat="46.4123973" lon="11.6559926"><ele>1541.0</ele><time>2026-04-26T14:44:33.018Z</time></trkpt><trkpt lat="46.4124624" lon="11.6558647"><ele>1541.0</ele><time>2026-04-26T14:44:34.019Z</time></trkpt><trkpt lat="46.4125414" lon="11.6557461"><ele>1541.0</ele><time>2026-04-26T14:44:35.018Z</time></trkpt><trkpt lat="46.4126187" lon="11.6556352"><ele>1540.8</ele><time>2026-04-26T14:44:36.018Z</time></trkpt><trkpt lat="46.4126834" lon="11.6555134"><ele>1540.6</ele><time>2026-04-26T14:44:37.018Z</time></trkpt><trkpt lat="46.4127154" lon="11.6553679"><ele>1540.4</ele><time>2026-04-26T14:44:38.018Z</time></trkpt><trkpt lat="46.4127226" lon="11.6552149"><ele>1540.2</ele><time>2026-04-26T14:44:39.018Z</time></trkpt><trkpt lat="46.4126981" lon="11.6550562"><ele>1540.0</ele><time>2026-04-26T14:44:40.018Z</time></trkpt><trkpt lat="46.4126471" lon="11.6549121"><ele>1540.0</ele><time>2026-04-26T14:44:41.018Z</time></trkpt><trkpt lat="46.4125959" lon="11.6547598"><ele>1540.0</ele><time>2026-04-26T14:44:42.018Z</time></trkpt><trkpt lat="46.4125412" lon="11.6546147"><ele>1540.0</ele><time>2026-04-26T14:44:43.018Z</time></trkpt><trkpt lat="46.4124996" lon="11.6544907"><ele>1540.0</ele><time>2026-04-26T14:44:44.018Z</time></trkpt><trkpt lat="46.4124905" lon="11.654361"><ele>1540.0</ele><time>2026-04-26T14:44:45.018Z</time></trkpt><trkpt lat="46.4125212" lon="11.654244"><ele>1542.0000000000002</ele><time>2026-04-26T14:44:46.018Z</time></trkpt><trkpt lat="46.4125753" lon="11.6541382"><ele>1544.0</ele><time>2026-04-26T14:44:47.018Z</time></trkpt><trkpt lat="46.4126463" lon="11.6540612"><ele>1546.0</ele><time>2026-04-26T14:44:48.019Z</time></trkpt><trkpt lat="46.4127248" lon="11.6539918"><ele>1548.0</ele><time>2026-04-26T14:44:49.018Z</time></trkpt><trkpt lat="46.4127909" lon="11.6539256"><ele>1550.0000000000002</ele><time>2026-04-26T14:44:50.018Z</time></trkpt><trkpt lat="46.4128414" lon="11.6538488"><ele>1552.0</ele><time>2026-04-26T14:44:51.018Z</time></trkpt><trkpt lat="46.4128663" lon="11.6537551"><ele>1552.0000000000002</ele><time>2026-04-26T14:44:52.018Z</time></trkpt><trkpt lat="46.4128656" lon="11.6536502"><ele>1552.0</ele><time>2026-04-26T14:44:53.018Z</time></trkpt><trkpt lat="46.4128378" lon="11.6535493"><ele>1552.0</ele><time>2026-04-26T14:44:54.018Z</time></trkpt><trkpt lat="46.4127903" lon="11.6534697"><ele>1552.0</ele><time>2026-04-26T14:44:55.019Z</time></trkpt><trkpt lat="46.4127175" lon="11.6534135"><ele>1552.0000000000002</ele><time>2026-04-26T14:44:56.018Z</time></trkpt><trkpt lat="46.4126308" lon="11.6533758"><ele>1552.0</ele><time>2026-04-26T14:44:57.018Z</time></trkpt><trkpt lat="46.4125366" lon="11.653346"><ele>1552.6</ele><time>2026-04-26T14:44:58.018Z</time></trkpt><trkpt lat="46.4124338" lon="11.6533145"><ele>1553.1999999999998</ele><time>2026-04-26T14:44:59.018Z</time></trkpt><trkpt lat="46.4123283" lon="11.6532856"><ele>1553.8</ele><time>2026-04-26T14:45:00.018Z</time></trkpt><trkpt lat="46.4122222" lon="11.6532425"><ele>1554.4</ele><time>2026-04-26T14:45:01.018Z</time></trkpt><trkpt lat="46.4121271" lon="11.6532047"><ele>1555.0</ele><time>2026-04-26T14:45:02.019Z</time></trkpt><trkpt lat="46.4120362" lon="11.653166"><ele>1555.0</ele><time>2026-04-26T14:45:03.018Z</time></trkpt><trkpt lat="46.4119675" lon="11.6531053"><ele>1555.0</ele><time>2026-04-26T14:45:04.018Z</time></trkpt><trkpt lat="46.4119186" lon="11.6530059"><ele>1555.0</ele><time>2026-04-26T14:45:05.018Z</time></trkpt><trkpt lat="46.4119033" lon="11.6528736"><ele>1555.0</ele><time>2026-04-26T14:45:06.018Z</time></trkpt><trkpt lat="46.4119104" lon="11.6527251"><ele>1555.0</ele><time>2026-04-26T14:45:07.018Z</time></trkpt><trkpt lat="46.4119462" lon="11.6525684"><ele>1557.0</ele><time>2026-04-26T14:45:08.018Z</time></trkpt><trkpt lat="46.4119862" lon="11.652413"><ele>1559.0</ele><time>2026-04-26T14:45:09.018Z</time></trkpt><trkpt lat="46.4120171" lon="11.6522758"><ele>1561.0</ele><time>2026-04-26T14:45:10.018Z</time></trkpt><trkpt lat="46.4120419" lon="11.6521547"><ele>1563.0</ele><time>2026-04-26T14:45:11.018Z</time></trkpt><trkpt lat="46.4120511" lon="11.652035"><ele>1565.0</ele><time>2026-04-26T14:45:12.019Z</time></trkpt><trkpt lat="46.4120367" lon="11.6519171"><ele>1570.4999999999998</ele><time>2026-04-26T14:45:13.018Z</time></trkpt><trkpt lat="46.4120051" lon="11.6518103"><ele>1576.0</ele><time>2026-04-26T14:45:14.018Z</time></trkpt><trkpt lat="46.4119627" lon="11.6517256"><ele>1581.5</ele><time>2026-04-26T14:45:15.018Z</time></trkpt><trkpt lat="46.4119083" lon="11.651677"><ele>1587.0</ele><time>2026-04-26T14:45:16.018Z</time></trkpt><trkpt lat="46.4118367" lon="11.6516498"><ele>1592.4999999999998</ele><time>2026-04-26T14:45:17.018Z</time></trkpt><trkpt lat="46.4117637" lon="11.6516626"><ele>1598.0</ele><time>2026-04-26T14:45:18.018Z</time></trkpt><trkpt lat="46.4116811" lon="11.6517207"><ele>1598.0</ele><time>2026-04-26T14:45:19.018Z</time></trkpt><trkpt lat="46.4116097" lon="11.6518096"><ele>1598.0</ele><time>2026-04-26T14:45:20.018Z</time></trkpt><trkpt lat="46.4115441" lon="11.6519123"><ele>1598.0</ele><time>2026-04-26T14:45:21.018Z</time></trkpt><trkpt lat="46.4114736" lon="11.6520273"><ele>1598.0</ele><time>2026-04-26T14:45:22.019Z</time></trkpt><trkpt lat="46.411401" lon="11.6521517"><ele>1598.0</ele><time>2026-04-26T14:45:23.018Z</time></trkpt><trkpt lat="46.4113209" lon="11.6522796"><ele>1596.5</ele><time>2026-04-26T14:45:24.018Z</time></trkpt><trkpt lat="46.4112428" lon="11.6524039"><ele>1595.0</ele><time>2026-04-26T14:45:25.018Z</time></trkpt><trkpt lat="46.4111543" lon="11.652537"><ele>1593.5</ele><time>2026-04-26T14:45:26.018Z</time></trkpt><trkpt lat="46.4110571" lon="11.6526618"><ele>1592.0</ele><time>2026-04-26T14:45:27.018Z</time></trkpt><trkpt lat="46.4109522" lon="11.6527786"><ele>1586.0</ele><time>2026-04-26T14:45:28.018Z</time></trkpt><trkpt lat="46.4108376" lon="11.6528881"><ele>1580.0</ele><time>2026-04-26T14:45:29.018Z</time></trkpt><trkpt lat="46.4107237" lon="11.6529968"><ele>1574.0</ele><time>2026-04-26T14:45:30.018Z</time></trkpt><trkpt lat="46.4106084" lon="11.6531099"><ele>1568.0</ele><time>2026-04-26T14:45:31.019Z</time></trkpt><trkpt lat="46.4104967" lon="11.6532233"><ele>1573.2</ele><time>2026-04-26T14:45:32.018Z</time></trkpt><trkpt lat="46.4103932" lon="11.6533326"><ele>1578.4</ele><time>2026-04-26T14:45:33.018Z</time></trkpt><trkpt lat="46.4102981" lon="11.6534273"><ele>1583.6000000000001</ele><time>2026-04-26T14:45:34.018Z</time></trkpt><trkpt lat="46.4102134" lon="11.6535119"><ele>1588.8000000000002</ele><time>2026-04-26T14:45:35.018Z</time></trkpt><trkpt lat="46.4101299" lon="11.6535714"><ele>1594.0</ele><time>2026-04-26T14:45:36.018Z</time></trkpt><trkpt lat="46.410032" lon="11.6536045"><ele>1594.0</ele><time>2026-04-26T14:45:37.018Z</time></trkpt><trkpt lat="46.409933" lon="11.6535975"><ele>1594.0</ele><time>2026-04-26T14:45:38.018Z</time></trkpt><trkpt lat="46.4098187" lon="11.6535568"><ele>1594.0</ele><time>2026-04-26T14:45:39.018Z</time></trkpt><trkpt lat="46.409702" lon="11.6534924"><ele>1594.0</ele><time>2026-04-26T14:45:40.018Z</time></trkpt><trkpt lat="46.4095835" lon="11.6534116"><ele>1593.75</ele><time>2026-04-26T14:45:41.018Z</time></trkpt><trkpt lat="46.4094584" lon="11.6533282"><ele>1593.5</ele><time>2026-04-26T14:45:42.018Z</time></trkpt><trkpt lat="46.4093339" lon="11.6532442"><ele>1593.25</ele><time>2026-04-26T14:45:43.018Z</time></trkpt><trkpt lat="46.4092126" lon="11.6531532"><ele>1593.0</ele><time>2026-04-26T14:45:44.018Z</time></trkpt><trkpt lat="46.4090913" lon="11.6530515"><ele>1593.0</ele><time>2026-04-26T14:45:45.018Z</time></trkpt><trkpt lat="46.4089758" lon="11.6529341"><ele>1593.0</ele><time>2026-04-26T14:45:46.019Z</time></trkpt><trkpt lat="46.4088781" lon="11.6527973"><ele>1593.0</ele><time>2026-04-26T14:45:47.018Z</time></trkpt><trkpt lat="46.4087905" lon="11.6526373"><ele>1593.0</ele><time>2026-04-26T14:45:48.018Z</time></trkpt><trkpt lat="46.4087086" lon="11.6524671"><ele>1593.75</ele><time>2026-04-26T14:45:49.018Z</time></trkpt><trkpt lat="46.408622" lon="11.6522982"><ele>1594.5</ele><time>2026-04-26T14:45:50.018Z</time></trkpt><trkpt lat="46.4085348" lon="11.6521231"><ele>1595.25</ele><time>2026-04-26T14:45:51.018Z</time></trkpt><trkpt lat="46.4084474" lon="11.6519436"><ele>1596.0</ele><time>2026-04-26T14:45:52.019Z</time></trkpt><trkpt lat="46.4083639" lon="11.6517735"><ele>1599.0</ele><time>2026-04-26T14:45:53.018Z</time></trkpt><trkpt lat="46.4082815" lon="11.6516145"><ele>1602.0</ele><time>2026-04-26T14:45:54.018Z</time></trkpt><trkpt lat="46.4082013" lon="11.6514695"><ele>1605.0</ele><time>2026-04-26T14:45:55.018Z</time></trkpt><trkpt lat="46.4081353" lon="11.6513262"><ele>1608.0</ele><time>2026-04-26T14:45:56.018Z</time></trkpt><trkpt lat="46.4080903" lon="11.6511922"><ele>1610.8000000000002</ele><time>2026-04-26T14:45:57.018Z</time></trkpt><trkpt lat="46.4080791" lon="11.6510599"><ele>1613.6</ele><time>2026-04-26T14:45:58.018Z</time></trkpt><trkpt lat="46.4081025" lon="11.6509217"><ele>1616.4</ele><time>2026-04-26T14:45:59.018Z</time></trkpt><trkpt lat="46.4081438" lon="11.6507948"><ele>1619.1999999999998</ele><time>2026-04-26T14:46:00.019Z</time></trkpt><trkpt lat="46.4081941" lon="11.6506553"><ele>1622.0</ele><time>2026-04-26T14:46:01.018Z</time></trkpt><trkpt lat="46.4082385" lon="11.6505144"><ele>1621.9999999999998</ele><time>2026-04-26T14:46:02.018Z</time></trkpt><trkpt lat="46.4082688" lon="11.6503923"><ele>1622.0</ele><time>2026-04-26T14:46:03.018Z</time></trkpt><trkpt lat="46.4082956" lon="11.6502803"><ele>1622.0</ele><time>2026-04-26T14:46:04.018Z</time></trkpt><trkpt lat="46.4082956" lon="11.650177"><ele>1622.0</ele><time>2026-04-26T14:46:05.018Z</time></trkpt><trkpt lat="46.4082614" lon="11.650085"><ele>1621.9999999999998</ele><time>2026-04-26T14:46:06.018Z</time></trkpt><trkpt lat="46.4081918" lon="11.6500129"><ele>1622.0</ele><time>2026-04-26T14:46:07.018Z</time></trkpt><trkpt lat="46.408112" lon="11.6499506"><ele>1622.6</ele><time>2026-04-26T14:46:08.019Z</time></trkpt><trkpt lat="46.4080178" lon="11.6498921"><ele>1623.1999999999998</ele><time>2026-04-26T14:46:09.018Z</time></trkpt><trkpt lat="46.4079111" lon="11.6498376"><ele>1623.8</ele><time>2026-04-26T14:46:10.019Z</time></trkpt><trkpt lat="46.407801" lon="11.6497841"><ele>1624.4</ele><time>2026-04-26T14:46:11.018Z</time></trkpt><trkpt lat="46.4076949" lon="11.6497235"><ele>1625.0</ele><time>2026-04-26T14:46:12.018Z</time></trkpt><trkpt lat="46.4075904" lon="11.6496623"><ele>1625.0</ele><time>2026-04-26T14:46:13.018Z</time></trkpt><trkpt lat="46.4074913" lon="11.6496132"><ele>1625.0</ele><time>2026-04-26T14:46:14.018Z</time></trkpt><trkpt lat="46.4073946" lon="11.6495951"><ele>1625.0</ele><time>2026-04-26T14:46:15.018Z</time></trkpt><trkpt lat="46.4073071" lon="11.6496232"><ele>1625.0</ele><time>2026-04-26T14:46:16.018Z</time></trkpt><trkpt lat="46.4072176" lon="11.6496917"><ele>1625.0</ele><time>2026-04-26T14:46:17.019Z</time></trkpt><trkpt lat="46.4071361" lon="11.6498012"><ele>1625.0</ele><time>2026-04-26T14:46:18.018Z</time></trkpt><trkpt lat="46.4070661" lon="11.6499237"><ele>1625.0</ele><time>2026-04-26T14:46:19.018Z</time></trkpt><trkpt lat="46.4069951" lon="11.6500615"><ele>1625.0</ele><time>2026-04-26T14:46:20.018Z</time></trkpt><trkpt lat="46.4069176" lon="11.6501936"><ele>1625.0</ele><time>2026-04-26T14:46:21.018Z</time></trkpt><trkpt lat="46.4068314" lon="11.6503065"><ele>1625.0</ele><time>2026-04-26T14:46:22.018Z</time></trkpt><trkpt lat="46.4067359" lon="11.6503813"><ele>1625.0</ele><time>2026-04-26T14:46:23.019Z</time></trkpt><trkpt lat="46.4066365" lon="11.6504163"><ele>1625.0</ele><time>2026-04-26T14:46:24.018Z</time></trkpt><trkpt lat="46.4065318" lon="11.6504119"><ele>1625.0</ele><time>2026-04-26T14:46:25.018Z</time></trkpt><trkpt lat="46.406429" lon="11.650365"><ele>1625.0</ele><time>2026-04-26T14:46:26.018Z</time></trkpt><trkpt lat="46.4063239" lon="11.6502894"><ele>1627.75</ele><time>2026-04-26T14:46:27.018Z</time></trkpt><trkpt lat="46.4062186" lon="11.6502039"><ele>1630.5</ele><time>2026-04-26T14:46:28.018Z</time></trkpt><trkpt lat="46.4061174" lon="11.6501186"><ele>1633.25</ele><time>2026-04-26T14:46:29.018Z</time></trkpt><trkpt lat="46.4060188" lon="11.6500381"><ele>1636.0</ele><time>2026-04-26T14:46:30.018Z</time></trkpt><trkpt lat="46.4059364" lon="11.6499371"><ele>1636.0</ele><time>2026-04-26T14:46:31.018Z</time></trkpt><trkpt lat="46.4058825" lon="11.6498062"><ele>1636.0</ele><time>2026-04-26T14:46:32.018Z</time></trkpt><trkpt lat="46.4058514" lon="11.649646"><ele>1636.0</ele><time>2026-04-26T14:46:33.018Z</time></trkpt><trkpt lat="46.4058234" lon="11.6494523"><ele>1636.0</ele><time>2026-04-26T14:46:34.018Z</time></trkpt><trkpt lat="46.4057978" lon="11.64926"><ele>1638.0</ele><time>2026-04-26T14:46:35.018Z</time></trkpt><trkpt lat="46.4057787" lon="11.6490591"><ele>1640.0</ele><time>2026-04-26T14:46:36.018Z</time></trkpt><trkpt lat="46.4057593" lon="11.648866"><ele>1642.0</ele><time>2026-04-26T14:46:37.018Z</time></trkpt><trkpt lat="46.4057389" lon="11.6486759"><ele>1644.0</ele><time>2026-04-26T14:46:38.018Z</time></trkpt><trkpt lat="46.4057136" lon="11.6484738"><ele>1645.25</ele><time>2026-04-26T14:46:39.018Z</time></trkpt><trkpt lat="46.4056946" lon="11.6482786"><ele>1646.5</ele><time>2026-04-26T14:46:40.018Z</time></trkpt><trkpt lat="46.4056805" lon="11.6480883"><ele>1647.75</ele><time>2026-04-26T14:46:41.018Z</time></trkpt><trkpt lat="46.4056773" lon="11.6479003"><ele>1649.0</ele><time>2026-04-26T14:46:42.018Z</time></trkpt><trkpt lat="46.4056906" lon="11.6477271"><ele>1649.0</ele><time>2026-04-26T14:46:43.018Z</time></trkpt><trkpt lat="46.4057295" lon="11.6475568"><ele>1649.0</ele><time>2026-04-26T14:46:44.018Z</time></trkpt><trkpt lat="46.4057905" lon="11.647412"><ele>1649.0</ele><time>2026-04-26T14:46:45.018Z</time></trkpt><trkpt lat="46.4058729" lon="11.6472828"><ele>1649.0</ele><time>2026-04-26T14:46:46.018Z</time></trkpt><trkpt lat="46.4059626" lon="11.6471779"><ele>1649.0</ele><time>2026-04-26T14:46:47.019Z</time></trkpt><trkpt lat="46.406042" lon="11.6470726"><ele>1649.0</ele><time>2026-04-26T14:46:48.018Z</time></trkpt><trkpt lat="46.4061057" lon="11.646956"><ele>1649.0</ele><time>2026-04-26T14:46:49.018Z</time></trkpt><trkpt lat="46.4061455" lon="11.6468257"><ele>1649.0</ele><time>2026-04-26T14:46:50.018Z</time></trkpt><trkpt lat="46.4061573" lon="11.6466653"><ele>1649.0</ele><time>2026-04-26T14:46:51.018Z</time></trkpt><trkpt lat="46.40616" lon="11.6464823"><ele>1648.25</ele><time>2026-04-26T14:46:52.018Z</time></trkpt><trkpt lat="46.4061634" lon="11.6462906"><ele>1647.5</ele><time>2026-04-26T14:46:53.018Z</time></trkpt><trkpt lat="46.406168" lon="11.6461085"><ele>1646.75</ele><time>2026-04-26T14:46:54.018Z</time></trkpt><trkpt lat="46.4061711" lon="11.6459231"><ele>1646.0</ele><time>2026-04-26T14:46:55.018Z</time></trkpt><trkpt lat="46.4061775" lon="11.6457443"><ele>1645.75</ele><time>2026-04-26T14:46:56.018Z</time></trkpt><trkpt lat="46.4061831" lon="11.6455641"><ele>1645.5</ele><time>2026-04-26T14:46:57.018Z</time></trkpt><trkpt lat="46.4061902" lon="11.6453792"><ele>1645.25</ele><time>2026-04-26T14:46:58.019Z</time></trkpt><trkpt lat="46.4062009" lon="11.64519"><ele>1645.0</ele><time>2026-04-26T14:46:59.018Z</time></trkpt><trkpt lat="46.406214" lon="11.645"><ele>1646.5</ele><time>2026-04-26T14:47:00.018Z</time></trkpt><trkpt lat="46.4062358" lon="11.6448181"><ele>1648.0</ele><time>2026-04-26T14:47:01.018Z</time></trkpt><trkpt lat="46.4062792" lon="11.6446602"><ele>1649.5</ele><time>2026-04-26T14:47:02.018Z</time></trkpt><trkpt lat="46.4063413" lon="11.6445255"><ele>1651.0</ele><time>2026-04-26T14:47:03.018Z</time></trkpt><trkpt lat="46.4063925" lon="11.6443976"><ele>1659.8</ele><time>2026-04-26T14:47:04.018Z</time></trkpt><trkpt lat="46.4064234" lon="11.6442709"><ele>1668.6</ele><time>2026-04-26T14:47:05.018Z</time></trkpt><trkpt lat="46.4064264" lon="11.6441365"><ele>1677.4</ele><time>2026-04-26T14:47:06.018Z</time></trkpt><trkpt lat="46.4064083" lon="11.6440132"><ele>1686.2</ele><time>2026-04-26T14:47:07.018Z</time></trkpt><trkpt lat="46.4063707" lon="11.6438973"><ele>1695.0</ele><time>2026-04-26T14:47:08.018Z</time></trkpt><trkpt lat="46.4063304" lon="11.6437785"><ele>1695.4</ele><time>2026-04-26T14:47:09.018Z</time></trkpt><trkpt lat="46.4063168" lon="11.6436548"><ele>1695.8</ele><time>2026-04-26T14:47:10.018Z</time></trkpt><trkpt lat="46.4063364" lon="11.6435249"><ele>1696.1999999999998</ele><time>2026-04-26T14:47:11.018Z</time></trkpt><trkpt lat="46.4063753" lon="11.6434071"><ele>1696.6</ele><time>2026-04-26T14:47:12.018Z</time></trkpt><trkpt lat="46.4064241" lon="11.6432821"><ele>1697.0</ele><time>2026-04-26T14:47:13.018Z</time></trkpt><trkpt lat="46.4064647" lon="11.6431592"><ele>1696.9999999999998</ele><time>2026-04-26T14:47:14.018Z</time></trkpt><trkpt lat="46.4065013" lon="11.6430377"><ele>1697.0</ele><time>2026-04-26T14:47:15.018Z</time></trkpt><trkpt lat="46.4065107" lon="11.6429172"><ele>1697.0</ele><time>2026-04-26T14:47:16.018Z</time></trkpt><trkpt lat="46.4064932" lon="11.6428041"><ele>1697.0</ele><time>2026-04-26T14:47:17.018Z</time></trkpt><trkpt lat="46.4064563" lon="11.6426848"><ele>1696.9999999999998</ele><time>2026-04-26T14:47:18.019Z</time></trkpt><trkpt lat="46.4064116" lon="11.6425815"><ele>1697.0</ele><time>2026-04-26T14:47:19.018Z</time></trkpt><trkpt lat="46.4063469" lon="11.6424992"><ele>1700.3999999999999</ele><time>2026-04-26T14:47:20.018Z</time></trkpt><trkpt lat="46.4062654" lon="11.6424411"><ele>1703.8</ele><time>2026-04-26T14:47:21.018Z</time></trkpt><trkpt lat="46.4061739" lon="11.6424175"><ele>1707.2</ele><time>2026-04-26T14:47:22.019Z</time></trkpt><trkpt lat="46.4060703" lon="11.6424275"><ele>1710.6</ele><time>2026-04-26T14:47:23.018Z</time></trkpt><trkpt lat="46.4059678" lon="11.6424778"><ele>1714.0</ele><time>2026-04-26T14:47:24.018Z</time></trkpt><trkpt lat="46.4058637" lon="11.6425596"><ele>1714.0</ele><time>2026-04-26T14:47:25.018Z</time></trkpt><trkpt lat="46.4057682" lon="11.6426576"><ele>1714.0</ele><time>2026-04-26T14:47:26.018Z</time></trkpt><trkpt lat="46.4056728" lon="11.6427782"><ele>1714.0</ele><time>2026-04-26T14:47:27.018Z</time></trkpt><trkpt lat="46.40558" lon="11.642917"><ele>1714.0</ele><time>2026-04-26T14:47:28.018Z</time></trkpt><trkpt lat="46.4054899" lon="11.6430596"><ele>1712.8000000000002</ele><time>2026-04-26T14:47:29.018Z</time></trkpt><trkpt lat="46.4054047" lon="11.6431911"><ele>1711.6000000000001</ele><time>2026-04-26T14:47:30.018Z</time></trkpt><trkpt lat="46.4053279" lon="11.6433033"><ele>1710.4</ele><time>2026-04-26T14:47:31.018Z</time></trkpt><trkpt lat="46.4052632" lon="11.6434024"><ele>1709.2</ele><time>2026-04-26T14:47:32.018Z</time></trkpt><trkpt lat="46.4051912" lon="11.6434853"><ele>1708.0</ele><time>2026-04-26T14:47:33.018Z</time></trkpt><trkpt lat="46.4051163" lon="11.6435444"><ele>1708.0</ele><time>2026-04-26T14:47:34.018Z</time></trkpt><trkpt lat="46.4050324" lon="11.6435669"><ele>1708.0000000000002</ele><time>2026-04-26T14:47:35.018Z</time></trkpt><trkpt lat="46.404925" lon="11.6435544"><ele>1708.0000000000002</ele><time>2026-04-26T14:47:36.018Z</time></trkpt><trkpt lat="46.404804" lon="11.6435227"><ele>1708.0</ele><time>2026-04-26T14:47:37.019Z</time></trkpt><trkpt lat="46.4046789" lon="11.6434892"><ele>1708.0</ele><time>2026-04-26T14:47:38.018Z</time></trkpt><trkpt lat="46.4045548" lon="11.6434656"><ele>1708.5</ele><time>2026-04-26T14:47:39.018Z</time></trkpt><trkpt lat="46.4044253" lon="11.6434354"><ele>1709.0</ele><time>2026-04-26T14:47:40.018Z</time></trkpt><trkpt lat="46.4042987" lon="11.6433855"><ele>1709.5</ele><time>2026-04-26T14:47:41.018Z</time></trkpt><trkpt lat="46.4041746" lon="11.6433201"><ele>1710.0</ele><time>2026-04-26T14:47:42.018Z</time></trkpt><trkpt lat="46.4040509" lon="11.643244"><ele>1710.0</ele><time>2026-04-26T14:47:43.018Z</time></trkpt><trkpt lat="46.4039399" lon="11.6431496"><ele>1710.0</ele><time>2026-04-26T14:47:44.018Z</time></trkpt><trkpt lat="46.4038465" lon="11.6430452"><ele>1710.0</ele><time>2026-04-26T14:47:45.018Z</time></trkpt><trkpt lat="46.4037646" lon="11.6429474"><ele>1710.0</ele><time>2026-04-26T14:47:46.018Z</time></trkpt><trkpt lat="46.4036992" lon="11.6428579"><ele>1710.0</ele><time>2026-04-26T14:47:47.018Z</time></trkpt><trkpt lat="46.4036626" lon="11.6427415"><ele>1710.2</ele><time>2026-04-26T14:47:48.018Z</time></trkpt><trkpt lat="46.4036505" lon="11.6426117"><ele>1710.4</ele><time>2026-04-26T14:47:49.018Z</time></trkpt><trkpt lat="46.4036621" lon="11.6424634"><ele>1710.6</ele><time>2026-04-26T14:47:50.018Z</time></trkpt><trkpt lat="46.4036967" lon="11.6423073"><ele>1710.8</ele><time>2026-04-26T14:47:51.018Z</time></trkpt><trkpt lat="46.403741" lon="11.6421475"><ele>1711.0</ele><time>2026-04-26T14:47:52.018Z</time></trkpt><trkpt lat="46.4037945" lon="11.6419805"><ele>1713.5</ele><time>2026-04-26T14:47:53.018Z</time></trkpt><trkpt lat="46.4038571" lon="11.6418261"><ele>1716.0</ele><time>2026-04-26T14:47:54.018Z</time></trkpt><trkpt lat="46.4039262" lon="11.6416767"><ele>1718.5</ele><time>2026-04-26T14:47:55.018Z</time></trkpt><trkpt lat="46.4040126" lon="11.6415243"><ele>1721.0</ele><time>2026-04-26T14:47:56.018Z</time></trkpt><trkpt lat="46.4041042" lon="11.6413863"><ele>1721.0</ele><time>2026-04-26T14:47:57.018Z</time></trkpt><trkpt lat="46.4042097" lon="11.641243"><ele>1721.0</ele><time>2026-04-26T14:47:58.018Z</time></trkpt><trkpt lat="46.4043238" lon="11.6411178"><ele>1721.0</ele><time>2026-04-26T14:47:59.018Z</time></trkpt><trkpt lat="46.4044538" lon="11.6410181"><ele>1721.0</ele><time>2026-04-26T14:48:00.018Z</time></trkpt><trkpt lat="46.4045863" lon="11.640946"><ele>1720.5</ele><time>2026-04-26T14:48:01.018Z</time></trkpt><trkpt lat="46.4047268" lon="11.640899"><ele>1720.0</ele><time>2026-04-26T14:48:02.018Z</time></trkpt><trkpt lat="46.4048571" lon="11.6408549"><ele>1719.5</ele><time>2026-04-26T14:48:03.019Z</time></trkpt><trkpt lat="46.4049812" lon="11.6408205"><ele>1719.0</ele><time>2026-04-26T14:48:04.018Z</time></trkpt><trkpt lat="46.4051067" lon="11.640815"><ele>1719.0</ele><time>2026-04-26T14:48:05.018Z</time></trkpt><trkpt lat="46.4052177" lon="11.6408574"><ele>1719.0</ele><time>2026-04-26T14:48:06.018Z</time></trkpt><trkpt lat="46.4053207" lon="11.6409524"><ele>1719.0</ele><time>2026-04-26T14:48:07.018Z</time></trkpt><trkpt lat="46.4054252" lon="11.6410682"><ele>1719.0</ele><time>2026-04-26T14:48:08.018Z</time></trkpt><trkpt lat="46.4055326" lon="11.641149"><ele>1720.5</ele><time>2026-04-26T14:48:09.018Z</time></trkpt><trkpt lat="46.4056442" lon="11.6412066"><ele>1722.0</ele><time>2026-04-26T14:48:10.018Z</time></trkpt><trkpt lat="46.4057645" lon="11.6412175"><ele>1723.5</ele><time>2026-04-26T14:48:11.018Z</time></trkpt><trkpt lat="46.4058858" lon="11.6412155"><ele>1725.0</ele><time>2026-04-26T14:48:12.018Z</time></trkpt><trkpt lat="46.4060047" lon="11.6412164"><ele>1725.0</ele><time>2026-04-26T14:48:13.018Z</time></trkpt><trkpt lat="46.4061228" lon="11.6412326"><ele>1725.0</ele><time>2026-04-26T14:48:14.018Z</time></trkpt><trkpt lat="46.406245" lon="11.6412647"><ele>1725.0</ele><time>2026-04-26T14:48:15.018Z</time></trkpt><trkpt lat="46.4063728" lon="11.6413034"><ele>1725.0</ele><time>2026-04-26T14:48:16.018Z</time></trkpt><trkpt lat="46.4064985" lon="11.6413601"><ele>1723.75</ele><time>2026-04-26T14:48:17.018Z</time></trkpt><trkpt lat="46.4066219" lon="11.6414065"><ele>1722.5</ele><time>2026-04-26T14:48:18.018Z</time></trkpt><trkpt lat="46.4067427" lon="11.6414544"><ele>1721.25</ele><time>2026-04-26T14:48:19.019Z</time></trkpt><trkpt lat="46.4068552" lon="11.6414997"><ele>1720.0</ele><time>2026-04-26T14:48:20.018Z</time></trkpt><trkpt lat="46.4069554" lon="11.6415397"><ele>1720.0000000000002</ele><time>2026-04-26T14:48:21.018Z</time></trkpt><trkpt lat="46.4070453" lon="11.6415743"><ele>1720.0</ele><time>2026-04-26T14:48:22.018Z</time></trkpt><trkpt lat="46.4071346" lon="11.6415986"><ele>1720.0</ele><time>2026-04-26T14:48:23.018Z</time></trkpt><trkpt lat="46.4072167" lon="11.6415788"><ele>1720.0</ele><time>2026-04-26T14:48:24.018Z</time></trkpt><trkpt lat="46.407285" lon="11.641518"><ele>1720.0000000000002</ele><time>2026-04-26T14:48:25.019Z</time></trkpt><trkpt lat="46.4073298" lon="11.641416"><ele>1720.0</ele><time>2026-04-26T14:48:26.018Z</time></trkpt><trkpt lat="46.4073546" lon="11.6412936"><ele>1724.4</ele><time>2026-04-26T14:48:27.018Z</time></trkpt><trkpt lat="46.4073519" lon="11.6411489"><ele>1728.8</ele><time>2026-04-26T14:48:28.018Z</time></trkpt><trkpt lat="46.4073338" lon="11.641003"><ele>1733.1999999999998</ele><time>2026-04-26T14:48:29.018Z</time></trkpt><trkpt lat="46.407306" lon="11.640842"><ele>1737.6</ele><time>2026-04-26T14:48:30.018Z</time></trkpt><trkpt lat="46.4072731" lon="11.6406782"><ele>1742.0</ele><time>2026-04-26T14:48:31.018Z</time></trkpt><trkpt lat="46.407244" lon="11.6405213"><ele>1742.8</ele><time>2026-04-26T14:48:32.018Z</time></trkpt><trkpt lat="46.4072148" lon="11.6403674"><ele>1743.6</ele><time>2026-04-26T14:48:33.018Z</time></trkpt><trkpt lat="46.4071963" lon="11.6402281"><ele>1744.3999999999999</ele><time>2026-04-26T14:48:34.018Z</time></trkpt><trkpt lat="46.4071824" lon="11.6400965"><ele>1745.1999999999998</ele><time>2026-04-26T14:48:35.018Z</time></trkpt><trkpt lat="46.4071881" lon="11.6399775"><ele>1746.0</ele><time>2026-04-26T14:48:36.018Z</time></trkpt><trkpt lat="46.4072155" lon="11.6398566"><ele>1746.0</ele><time>2026-04-26T14:48:37.018Z</time></trkpt><trkpt lat="46.4072627" lon="11.6397323"><ele>1746.0</ele><time>2026-04-26T14:48:38.018Z</time></trkpt><trkpt lat="46.4073148" lon="11.6396063"><ele>1746.0</ele><time>2026-04-26T14:48:39.018Z</time></trkpt><trkpt lat="46.4073775" lon="11.6394872"><ele>1746.0</ele><time>2026-04-26T14:48:40.019Z</time></trkpt><trkpt lat="46.4074378" lon="11.6393678"><ele>1746.0</ele><time>2026-04-26T14:48:41.018Z</time></trkpt><trkpt lat="46.4074998" lon="11.6392524"><ele>1743.4</ele><time>2026-04-26T14:48:42.018Z</time></trkpt><trkpt lat="46.4075616" lon="11.6391402"><ele>1740.8</ele><time>2026-04-26T14:48:43.018Z</time></trkpt><trkpt lat="46.4076228" lon="11.6390292"><ele>1738.2000000000003</ele><time>2026-04-26T14:48:44.018Z</time></trkpt><trkpt lat="46.407682" lon="11.6389132"><ele>1735.6000000000001</ele><time>2026-04-26T14:48:45.018Z</time></trkpt><trkpt lat="46.407741" lon="11.638793"><ele>1733.0</ele><time>2026-04-26T14:48:46.018Z</time></trkpt><trkpt lat="46.4077948" lon="11.6386706"><ele>1732.2</ele><time>2026-04-26T14:48:47.018Z</time></trkpt><trkpt lat="46.407831" lon="11.6385429"><ele>1731.4</ele><time>2026-04-26T14:48:48.018Z</time></trkpt><trkpt lat="46.4078478" lon="11.6384119"><ele>1730.6000000000001</ele><time>2026-04-26T14:48:49.018Z</time></trkpt><trkpt lat="46.4078515" lon="11.638278"><ele>1729.8000000000002</ele><time>2026-04-26T14:48:50.018Z</time></trkpt><trkpt lat="46.4078455" lon="11.6381448"><ele>1729.0</ele><time>2026-04-26T14:48:51.018Z</time></trkpt><trkpt lat="46.407835" lon="11.6380241"><ele>1729.0000000000002</ele><time>2026-04-26T14:48:52.018Z</time></trkpt><trkpt lat="46.4078191" lon="11.6379079"><ele>1729.0</ele><time>2026-04-26T14:48:53.018Z</time></trkpt><trkpt lat="46.4077895" lon="11.6378109"><ele>1729.0</ele><time>2026-04-26T14:48:54.018Z</time></trkpt><trkpt lat="46.4077435" lon="11.6377345"><ele>1729.0</ele><time>2026-04-26T14:48:55.018Z</time></trkpt><trkpt lat="46.4076818" lon="11.6376757"><ele>1729.0000000000002</ele><time>2026-04-26T14:48:56.018Z</time></trkpt><trkpt lat="46.4076125" lon="11.6376358"><ele>1729.0</ele><time>2026-04-26T14:48:57.018Z</time></trkpt><trkpt lat="46.4075301" lon="11.6376136"><ele>1729.8000000000002</ele><time>2026-04-26T14:48:58.018Z</time></trkpt><trkpt lat="46.4074402" lon="11.6376018"><ele>1730.6000000000001</ele><time>2026-04-26T14:48:59.018Z</time></trkpt><trkpt lat="46.4073433" lon="11.6375845"><ele>1731.4</ele><time>2026-04-26T14:49:00.018Z</time></trkpt><trkpt lat="46.4072482" lon="11.6375672"><ele>1732.2</ele><time>2026-04-26T14:49:01.018Z</time></trkpt><trkpt lat="46.4071535" lon="11.6375544"><ele>1733.0</ele><time>2026-04-26T14:49:02.018Z</time></trkpt><trkpt lat="46.4070601" lon="11.6375433"><ele>1732.9999999999998</ele><time>2026-04-26T14:49:03.018Z</time></trkpt><trkpt lat="46.4069681" lon="11.6375185"><ele>1733.0</ele><time>2026-04-26T14:49:04.018Z</time></trkpt><trkpt lat="46.4068823" lon="11.6374972"><ele>1733.0</ele><time>2026-04-26T14:49:05.018Z</time></trkpt><trkpt lat="46.4068087" lon="11.6374728"><ele>1733.0</ele><time>2026-04-26T14:49:06.018Z</time></trkpt><trkpt lat="46.4067416" lon="11.6374392"><ele>1732.9999999999998</ele><time>2026-04-26T14:49:07.018Z</time></trkpt><trkpt lat="46.4066806" lon="11.6373936"><ele>1733.0</ele><time>2026-04-26T14:49:08.018Z</time></trkpt><trkpt lat="46.406616" lon="11.6372637"><ele>1732.9999999999998</ele><time>2026-04-26T14:49:10.018Z</time></trkpt><trkpt lat="46.4066001" lon="11.6371148"><ele>1733.0</ele><time>2026-04-26T14:49:12.018Z</time></trkpt><trkpt lat="46.4066199" lon="11.6369583"><ele>1733.0</ele><time>2026-04-26T14:49:14.017Z</time></trkpt><trkpt lat="46.4066465" lon="11.6368718"><ele>1733.0</ele><time>2026-04-26T14:49:15.017Z</time></trkpt><trkpt lat="46.406674" lon="11.6367875"><ele>1732.9999999999998</ele><time>2026-04-26T14:49:16.017Z</time></trkpt><trkpt lat="46.4067068" lon="11.6366982"><ele>1733.0</ele><time>2026-04-26T14:49:17.017Z</time></trkpt><trkpt lat="46.4067375" lon="11.6366121"><ele>1734.9999999999998</ele><time>2026-04-26T14:49:18.017Z</time></trkpt><trkpt lat="46.4067795" lon="11.6365279"><ele>1737.0</ele><time>2026-04-26T14:49:19.017Z</time></trkpt><trkpt lat="46.4068289" lon="11.6363913"><ele>1739.0</ele><time>2026-04-26T14:49:21.017Z</time></trkpt><trkpt lat="46.4068349" lon="11.636269"><ele>1741.0</ele><time>2026-04-26T14:49:23.017Z</time></trkpt><trkpt lat="46.4068043" lon="11.636174"><ele>1742.9999999999998</ele><time>2026-04-26T14:49:26.017Z</time></trkpt><trkpt lat="46.4067717" lon="11.6360923"><ele>1745.0</ele><time>2026-04-26T14:49:33.017Z</time></trkpt><trkpt lat="46.4067219" lon="11.6360265"><ele>1746.8</ele><time>2026-04-26T14:49:36.017Z</time></trkpt><trkpt lat="46.4066345" lon="11.6359731"><ele>1748.6</ele><time>2026-04-26T14:49:38.017Z</time></trkpt><trkpt lat="46.4065533" lon="11.6359639"><ele>1750.4</ele><time>2026-04-26T14:49:39.017Z</time></trkpt><trkpt lat="46.4064597" lon="11.6359606"><ele>1752.2</ele><time>2026-04-26T14:49:40.017Z</time></trkpt><trkpt lat="46.4063539" lon="11.635957"><ele>1754.0</ele><time>2026-04-26T14:49:41.017Z</time></trkpt><trkpt lat="46.406232" lon="11.6359356"><ele>1754.0</ele><time>2026-04-26T14:49:42.017Z</time></trkpt><trkpt lat="46.4060904" lon="11.635901"><ele>1754.0</ele><time>2026-04-26T14:49:43.017Z</time></trkpt><trkpt lat="46.405956" lon="11.6358628"><ele>1754.0</ele><time>2026-04-26T14:49:44.017Z</time></trkpt><trkpt lat="46.4058237" lon="11.6358506"><ele>1754.0</ele><time>2026-04-26T14:49:45.017Z</time></trkpt><trkpt lat="46.4056945" lon="11.6358832"><ele>1754.0</ele><time>2026-04-26T14:49:46.017Z</time></trkpt><trkpt lat="46.4055578" lon="11.6359439"><ele>1754.0</ele><time>2026-04-26T14:49:47.017Z</time></trkpt><trkpt lat="46.4054293" lon="11.6360087"><ele>1754.0</ele><time>2026-04-26T14:49:48.017Z</time></trkpt><trkpt lat="46.4053149" lon="11.63607"><ele>1754.0</ele><time>2026-04-26T14:49:49.017Z</time></trkpt><trkpt lat="46.4052063" lon="11.6361306"><ele>1753.0</ele><time>2026-04-26T14:49:50.017Z</time></trkpt><trkpt lat="46.4051014" lon="11.6361819"><ele>1752.0</ele><time>2026-04-26T14:49:51.017Z</time></trkpt><trkpt lat="46.4050026" lon="11.6362176"><ele>1751.0</ele><time>2026-04-26T14:49:52.017Z</time></trkpt><trkpt lat="46.404907" lon="11.6362183"><ele>1750.0</ele><time>2026-04-26T14:49:53.017Z</time></trkpt><trkpt lat="46.4048099" lon="11.6361915"><ele>1749.0</ele><time>2026-04-26T14:49:54.017Z</time></trkpt><trkpt lat="46.4047157" lon="11.6361317"><ele>1746.8000000000002</ele><time>2026-04-26T14:49:55.017Z</time></trkpt><trkpt lat="46.4046212" lon="11.6360757"><ele>1744.6000000000001</ele><time>2026-04-26T14:49:56.017Z</time></trkpt><trkpt lat="46.4045265" lon="11.6360203"><ele>1742.4</ele><time>2026-04-26T14:49:57.017Z</time></trkpt><trkpt lat="46.4044351" lon="11.6359721"><ele>1740.2</ele><time>2026-04-26T14:49:58.017Z</time></trkpt><trkpt lat="46.4043454" lon="11.6359229"><ele>1738.0</ele><time>2026-04-26T14:49:59.017Z</time></trkpt><trkpt lat="46.4042511" lon="11.6358684"><ele>1738.0</ele><time>2026-04-26T14:50:00.017Z</time></trkpt><trkpt lat="46.4041606" lon="11.6358134"><ele>1738.0000000000002</ele><time>2026-04-26T14:50:01.017Z</time></trkpt><trkpt lat="46.4040698" lon="11.6357638"><ele>1738.0000000000002</ele><time>2026-04-26T14:50:02.017Z</time></trkpt><trkpt lat="46.4039778" lon="11.6357134"><ele>1738.0</ele><time>2026-04-26T14:50:03.017Z</time></trkpt><trkpt lat="46.403885" lon="11.6356689"><ele>1738.0</ele><time>2026-04-26T14:50:04.017Z</time></trkpt><trkpt lat="46.4037929" lon="11.6356206"><ele>1736.8000000000002</ele><time>2026-04-26T14:50:05.017Z</time></trkpt><trkpt lat="46.4037033" lon="11.6355639"><ele>1735.6000000000001</ele><time>2026-04-26T14:50:06.017Z</time></trkpt><trkpt lat="46.4036151" lon="11.6354994"><ele>1734.3999999999999</ele><time>2026-04-26T14:50:07.017Z</time></trkpt><trkpt lat="46.4035399" lon="11.6354202"><ele>1733.1999999999998</ele><time>2026-04-26T14:50:08.017Z</time></trkpt><trkpt lat="46.4034735" lon="11.6353195"><ele>1732.0</ele><time>2026-04-26T14:50:09.017Z</time></trkpt><trkpt lat="46.4034194" lon="11.6351946"><ele>1732.0</ele><time>2026-04-26T14:50:10.017Z</time></trkpt><trkpt lat="46.4033793" lon="11.6350571"><ele>1731.9999999999998</ele><time>2026-04-26T14:50:11.017Z</time></trkpt><trkpt lat="46.4033524" lon="11.6349148"><ele>1731.9999999999998</ele><time>2026-04-26T14:50:12.017Z</time></trkpt><trkpt lat="46.4033334" lon="11.6347641"><ele>1732.0</ele><time>2026-04-26T14:50:13.017Z</time></trkpt><trkpt lat="46.4033317" lon="11.6345976"><ele>1732.0</ele><time>2026-04-26T14:50:14.017Z</time></trkpt><trkpt lat="46.4033463" lon="11.6343896"><ele>1733.3333333333335</ele><time>2026-04-26T14:50:15.018Z</time></trkpt><trkpt lat="46.4033746" lon="11.6341669"><ele>1734.6666666666665</ele><time>2026-04-26T14:50:16.017Z</time></trkpt><trkpt lat="46.4034152" lon="11.6339369"><ele>1736.0</ele><time>2026-04-26T14:50:17.017Z</time></trkpt><trkpt lat="46.4034488" lon="11.6337301"><ele>1738.0</ele><time>2026-04-26T14:50:18.017Z</time></trkpt><trkpt lat="46.4034712" lon="11.6335418"><ele>1740.0</ele><time>2026-04-26T14:50:19.017Z</time></trkpt><trkpt lat="46.4034758" lon="11.6333636"><ele>1742.0</ele><time>2026-04-26T14:50:20.017Z</time></trkpt><trkpt lat="46.4034494" lon="11.6331999"><ele>1744.0</ele><time>2026-04-26T14:50:21.017Z</time></trkpt><trkpt lat="46.4034071" lon="11.6330527"><ele>1744.0</ele><time>2026-04-26T14:50:22.017Z</time></trkpt><trkpt lat="46.4033424" lon="11.6329025"><ele>1744.0</ele><time>2026-04-26T14:50:23.017Z</time></trkpt><trkpt lat="46.4032572" lon="11.6327677"><ele>1744.0</ele><time>2026-04-26T14:50:24.017Z</time></trkpt><trkpt lat="46.4031506" lon="11.6326357"><ele>1744.0</ele><time>2026-04-26T14:50:25.017Z</time></trkpt><trkpt lat="46.4030309" lon="11.6324755"><ele>1743.6666666666667</ele><time>2026-04-26T14:50:26.018Z</time></trkpt><trkpt lat="46.4028917" lon="11.63229"><ele>1743.3333333333335</ele><time>2026-04-26T14:50:27.017Z</time></trkpt><trkpt lat="46.4027572" lon="11.6320871"><ele>1743.0</ele><time>2026-04-26T14:50:28.018Z</time></trkpt><trkpt lat="46.4026191" lon="11.6318727"><ele>1743.0</ele><time>2026-04-26T14:50:29.017Z</time></trkpt><trkpt lat="46.4024884" lon="11.6316682"><ele>1743.0</ele><time>2026-04-26T14:50:30.017Z</time></trkpt><trkpt lat="46.4023678" lon="11.6314784"><ele>1743.0</ele><time>2026-04-26T14:50:31.017Z</time></trkpt><trkpt lat="46.4022564" lon="11.6312914"><ele>1739.3333333333335</ele><time>2026-04-26T14:50:32.018Z</time></trkpt><trkpt lat="46.4021705" lon="11.6311051"><ele>1735.6666666666667</ele><time>2026-04-26T14:50:33.017Z</time></trkpt><trkpt lat="46.402101" lon="11.6309042"><ele>1732.0</ele><time>2026-04-26T14:50:34.017Z</time></trkpt><trkpt lat="46.4020629" lon="11.6306941"><ele>1732.0</ele><time>2026-04-26T14:50:35.017Z</time></trkpt><trkpt lat="46.4020444" lon="11.6304797"><ele>1732.0</ele><time>2026-04-26T14:50:36.017Z</time></trkpt><trkpt lat="46.4020459" lon="11.6302553"><ele>1732.0</ele><time>2026-04-26T14:50:37.017Z</time></trkpt><trkpt lat="46.402074" lon="11.6300502"><ele>1732.0</ele><time>2026-04-26T14:50:38.017Z</time></trkpt><trkpt lat="46.4021331" lon="11.6298539"><ele>1735.6666666666667</ele><time>2026-04-26T14:50:39.017Z</time></trkpt><trkpt lat="46.4022191" lon="11.629642"><ele>1739.3333333333335</ele><time>2026-04-26T14:50:40.018Z</time></trkpt><trkpt lat="46.4023092" lon="11.6294218"><ele>1743.0</ele><time>2026-04-26T14:50:41.017Z</time></trkpt><trkpt lat="46.4024043" lon="11.6292031"><ele>1743.0</ele><time>2026-04-26T14:50:42.017Z</time></trkpt><trkpt lat="46.4025013" lon="11.6289868"><ele>1743.0</ele><time>2026-04-26T14:50:43.017Z</time></trkpt><trkpt lat="46.402594" lon="11.628797"><ele>1743.0</ele><time>2026-04-26T14:50:44.017Z</time></trkpt><trkpt lat="46.4026913" lon="11.628635"><ele>1741.25</ele><time>2026-04-26T14:50:45.017Z</time></trkpt><trkpt lat="46.4028012" lon="11.6284954"><ele>1739.5</ele><time>2026-04-26T14:50:46.017Z</time></trkpt><trkpt lat="46.4029011" lon="11.6283744"><ele>1737.75</ele><time>2026-04-26T14:50:47.017Z</time></trkpt><trkpt lat="46.4029865" lon="11.6282408"><ele>1736.0</ele><time>2026-04-26T14:50:48.018Z</time></trkpt><trkpt lat="46.4030399" lon="11.6280727"><ele>1742.25</ele><time>2026-04-26T14:50:49.017Z</time></trkpt><trkpt lat="46.403072" lon="11.6278824"><ele>1748.5</ele><time>2026-04-26T14:50:50.017Z</time></trkpt><trkpt lat="46.4030849" lon="11.6276689"><ele>1754.75</ele><time>2026-04-26T14:50:51.017Z</time></trkpt><trkpt lat="46.4030943" lon="11.6274532"><ele>1761.0</ele><time>2026-04-26T14:50:52.017Z</time></trkpt><trkpt lat="46.4031018" lon="11.6272511"><ele>1761.0</ele><time>2026-04-26T14:50:53.018Z</time></trkpt><trkpt lat="46.4031101" lon="11.6270789"><ele>1761.0</ele><time>2026-04-26T14:50:54.017Z</time></trkpt><trkpt lat="46.403109" lon="11.6269302"><ele>1761.0</ele><time>2026-04-26T14:50:55.017Z</time></trkpt><trkpt lat="46.4030901" lon="11.6268065"><ele>1761.0</ele><time>2026-04-26T14:50:56.017Z</time></trkpt><trkpt lat="46.4030495" lon="11.6267087"><ele>1761.0</ele><time>2026-04-26T14:50:57.017Z</time></trkpt><trkpt lat="46.4029871" lon="11.6266269"><ele>1756.5</ele><time>2026-04-26T14:50:58.017Z</time></trkpt><trkpt lat="46.4029004" lon="11.6265764"><ele>1752.0</ele><time>2026-04-26T14:50:59.017Z</time></trkpt><trkpt lat="46.4027924" lon="11.6265616"><ele>1747.5</ele><time>2026-04-26T14:51:00.017Z</time></trkpt><trkpt lat="46.402662" lon="11.6265726"><ele>1743.0</ele><time>2026-04-26T14:51:01.017Z</time></trkpt><trkpt lat="46.4025259" lon="11.6266021"><ele>1743.0</ele><time>2026-04-26T14:51:02.018Z</time></trkpt><trkpt lat="46.4023922" lon="11.6266286"><ele>1743.0</ele><time>2026-04-26T14:51:03.017Z</time></trkpt><trkpt lat="46.402266" lon="11.62663"><ele>1743.0</ele><time>2026-04-26T14:51:04.017Z</time></trkpt><trkpt lat="46.4021518" lon="11.6265963"><ele>1743.0</ele><time>2026-04-26T14:51:05.018Z</time></trkpt><trkpt lat="46.4020616" lon="11.6265252"><ele>1740.4</ele><time>2026-04-26T14:51:06.017Z</time></trkpt><trkpt lat="46.4020044" lon="11.6264103"><ele>1737.8000000000002</ele><time>2026-04-26T14:51:07.017Z</time></trkpt><trkpt lat="46.4019573" lon="11.6262755"><ele>1735.2</ele><time>2026-04-26T14:51:08.017Z</time></trkpt><trkpt lat="46.4019403" lon="11.6261091"><ele>1732.6</ele><time>2026-04-26T14:51:09.017Z</time></trkpt><trkpt lat="46.4019376" lon="11.6259185"><ele>1730.0</ele><time>2026-04-26T14:51:10.017Z</time></trkpt><trkpt lat="46.4019763" lon="11.6257015"><ele>1730.3333333333333</ele><time>2026-04-26T14:51:11.017Z</time></trkpt><trkpt lat="46.4020289" lon="11.6254671"><ele>1730.6666666666665</ele><time>2026-04-26T14:51:12.017Z</time></trkpt><trkpt lat="46.4020788" lon="11.6252192"><ele>1731.0</ele><time>2026-04-26T14:51:13.017Z</time></trkpt><trkpt lat="46.4021257" lon="11.6249584"><ele>1737.6666666666665</ele><time>2026-04-26T14:51:14.017Z</time></trkpt><trkpt lat="46.4021712" lon="11.6246984"><ele>1744.3333333333333</ele><time>2026-04-26T14:51:15.017Z</time></trkpt><trkpt lat="46.4022131" lon="11.6244481"><ele>1751.0</ele><time>2026-04-26T14:51:16.017Z</time></trkpt><trkpt lat="46.4022497" lon="11.6242126"><ele>1751.0</ele><time>2026-04-26T14:51:17.017Z</time></trkpt><trkpt lat="46.4022845" lon="11.624016"><ele>1751.0</ele><time>2026-04-26T14:51:18.017Z</time></trkpt><trkpt lat="46.4023342" lon="11.6238649"><ele>1751.0</ele><time>2026-04-26T14:51:19.017Z</time></trkpt><trkpt lat="46.4023954" lon="11.6237347"><ele>1751.0</ele><time>2026-04-26T14:51:20.017Z</time></trkpt><trkpt lat="46.4024836" lon="11.6236379"><ele>1747.0</ele><time>2026-04-26T14:51:21.017Z</time></trkpt><trkpt lat="46.4026069" lon="11.6235787"><ele>1743.0</ele><time>2026-04-26T14:51:22.018Z</time></trkpt><trkpt lat="46.4027357" lon="11.6235055"><ele>1739.0</ele><time>2026-04-26T14:51:23.017Z</time></trkpt><trkpt lat="46.4028605" lon="11.6233974"><ele>1735.0</ele><time>2026-04-26T14:51:24.017Z</time></trkpt><trkpt lat="46.4029666" lon="11.6232661"><ele>1742.0</ele><time>2026-04-26T14:51:25.017Z</time></trkpt><trkpt lat="46.403064" lon="11.6231167"><ele>1749.0</ele><time>2026-04-26T14:51:26.017Z</time></trkpt><trkpt lat="46.4031634" lon="11.6229922"><ele>1756.0</ele><time>2026-04-26T14:51:27.017Z</time></trkpt><trkpt lat="46.4032838" lon="11.6228949"><ele>1763.0</ele><time>2026-04-26T14:51:28.017Z</time></trkpt><trkpt lat="46.4034169" lon="11.6228191"><ele>1765.5</ele><time>2026-04-26T14:51:29.017Z</time></trkpt><trkpt lat="46.4035487" lon="11.6227451"><ele>1768.0</ele><time>2026-04-26T14:51:30.017Z</time></trkpt><trkpt lat="46.4036716" lon="11.6226724"><ele>1770.5</ele><time>2026-04-26T14:51:31.017Z</time></trkpt><trkpt lat="46.4037879" lon="11.6225878"><ele>1773.0</ele><time>2026-04-26T14:51:32.017Z</time></trkpt><trkpt lat="46.4038841" lon="11.6224757"><ele>1773.0</ele><time>2026-04-26T14:51:33.017Z</time></trkpt><trkpt lat="46.4039555" lon="11.6223435"><ele>1773.0</ele><time>2026-04-26T14:51:34.017Z</time></trkpt><trkpt lat="46.4040044" lon="11.6221816"><ele>1773.0</ele><time>2026-04-26T14:51:35.017Z</time></trkpt><trkpt lat="46.4040248" lon="11.6219941"><ele>1773.0</ele><time>2026-04-26T14:51:36.018Z</time></trkpt><trkpt lat="46.4040213" lon="11.621803"><ele>1770.75</ele><time>2026-04-26T14:51:37.017Z</time></trkpt><trkpt lat="46.4040027" lon="11.6216049"><ele>1768.5</ele><time>2026-04-26T14:51:38.018Z</time></trkpt><trkpt lat="46.4039675" lon="11.6214041"><ele>1766.25</ele><time>2026-04-26T14:51:39.017Z</time></trkpt><trkpt lat="46.4039159" lon="11.6212114"><ele>1764.0</ele><time>2026-04-26T14:51:40.017Z</time></trkpt><trkpt lat="46.4038379" lon="11.6210401"><ele>1760.0</ele><time>2026-04-26T14:51:41.017Z</time></trkpt><trkpt lat="46.4037431" lon="11.6208862"><ele>1756.0</ele><time>2026-04-26T14:51:42.017Z</time></trkpt><trkpt lat="46.4036398" lon="11.6207451"><ele>1752.0</ele><time>2026-04-26T14:51:43.017Z</time></trkpt><trkpt lat="46.4035152" lon="11.6206178"><ele>1748.0</ele><time>2026-04-26T14:51:44.017Z</time></trkpt><trkpt lat="46.4033838" lon="11.6205364"><ele>1748.0</ele><time>2026-04-26T14:51:45.017Z</time></trkpt><trkpt lat="46.4032431" lon="11.6204854"><ele>1748.0</ele><time>2026-04-26T14:51:46.017Z</time></trkpt><trkpt lat="46.4030985" lon="11.6204691"><ele>1748.0</ele><time>2026-04-26T14:51:47.017Z</time></trkpt><trkpt lat="46.4029593" lon="11.6204841"><ele>1748.0</ele><time>2026-04-26T14:51:48.017Z</time></trkpt><trkpt lat="46.4028301" lon="11.6204924"><ele>1748.2</ele><time>2026-04-26T14:51:49.017Z</time></trkpt><trkpt lat="46.402719" lon="11.6204848"><ele>1748.4</ele><time>2026-04-26T14:51:50.017Z</time></trkpt><trkpt lat="46.4026299" lon="11.6204315"><ele>1748.6000000000001</ele><time>2026-04-26T14:51:51.017Z</time></trkpt><trkpt lat="46.4025675" lon="11.6203388"><ele>1748.8000000000002</ele><time>2026-04-26T14:51:52.017Z</time></trkpt><trkpt lat="46.4025247" lon="11.6202013"><ele>1749.0</ele><time>2026-04-26T14:51:53.017Z</time></trkpt><trkpt lat="46.4025202" lon="11.6200118"><ele>1749.0</ele><time>2026-04-26T14:51:54.017Z</time></trkpt><trkpt lat="46.4025425" lon="11.6197994"><ele>1749.0</ele><time>2026-04-26T14:51:55.017Z</time></trkpt><trkpt lat="46.4025649" lon="11.6195477"><ele>1749.0</ele><time>2026-04-26T14:51:56.017Z</time></trkpt><trkpt lat="46.4025845" lon="11.619278"><ele>1749.0</ele><time>2026-04-26T14:51:57.017Z</time></trkpt><trkpt lat="46.4026101" lon="11.6189788"><ele>1749.0</ele><time>2026-04-26T14:51:58.017Z</time></trkpt><trkpt lat="46.4026344" lon="11.6186592"><ele>1749.0</ele><time>2026-04-26T14:51:59.018Z</time></trkpt><trkpt lat="46.4026536" lon="11.6183289"><ele>1749.0</ele><time>2026-04-26T14:52:00.017Z</time></trkpt><trkpt lat="46.4026777" lon="11.6180059"><ele>1749.0</ele><time>2026-04-26T14:52:01.018Z</time></trkpt><trkpt lat="46.4027042" lon="11.6177086"><ele>1749.0</ele><time>2026-04-26T14:52:02.017Z</time></trkpt><trkpt lat="46.4027228" lon="11.6174458"><ele>1749.0</ele><time>2026-04-26T14:52:03.017Z</time></trkpt><trkpt lat="46.4027366" lon="11.6172198"><ele>1749.0</ele><time>2026-04-26T14:52:04.017Z</time></trkpt><trkpt lat="46.4027493" lon="11.6170292"><ele>1749.0</ele><time>2026-04-26T14:52:05.017Z</time></trkpt><trkpt lat="46.4027927" lon="11.6168622"><ele>1749.0</ele><time>2026-04-26T14:52:06.018Z</time></trkpt><trkpt lat="46.4028605" lon="11.6167197"><ele>1748.25</ele><time>2026-04-26T14:52:07.017Z</time></trkpt><trkpt lat="46.4029536" lon="11.6166089"><ele>1747.5</ele><time>2026-04-26T14:52:08.017Z</time></trkpt><trkpt lat="46.4030873" lon="11.6165067"><ele>1746.75</ele><time>2026-04-26T14:52:09.017Z</time></trkpt><trkpt lat="46.4032351" lon="11.6164067"><ele>1746.0</ele><time>2026-04-26T14:52:10.017Z</time></trkpt><trkpt lat="46.403389" lon="11.6162992"><ele>1747.0</ele><time>2026-04-26T14:52:11.017Z</time></trkpt><trkpt lat="46.4035416" lon="11.6161862"><ele>1748.0</ele><time>2026-04-26T14:52:12.017Z</time></trkpt><trkpt lat="46.4036903" lon="11.6160708"><ele>1749.0</ele><time>2026-04-26T14:52:13.017Z</time></trkpt><trkpt lat="46.4038428" lon="11.6159548"><ele>1750.6666666666665</ele><time>2026-04-26T14:52:14.017Z</time></trkpt><trkpt lat="46.4039916" lon="11.6158339"><ele>1752.3333333333333</ele><time>2026-04-26T14:52:15.017Z</time></trkpt><trkpt lat="46.4041339" lon="11.6157341"><ele>1754.0</ele><time>2026-04-26T14:52:16.017Z</time></trkpt><trkpt lat="46.4042647" lon="11.6156223"><ele>1754.0</ele><time>2026-04-26T14:52:17.018Z</time></trkpt><trkpt lat="46.4043836" lon="11.6154926"><ele>1754.0</ele><time>2026-04-26T14:52:18.017Z</time></trkpt><trkpt lat="46.4044811" lon="11.6153383"><ele>1754.0</ele><time>2026-04-26T14:52:19.017Z</time></trkpt><trkpt lat="46.4045605" lon="11.615173"><ele>1754.0</ele><time>2026-04-26T14:52:20.017Z</time></trkpt><trkpt lat="46.4046194" lon="11.6149958"><ele>1754.25</ele><time>2026-04-26T14:52:21.017Z</time></trkpt><trkpt lat="46.4046498" lon="11.6148168"><ele>1754.5</ele><time>2026-04-26T14:52:22.017Z</time></trkpt><trkpt lat="46.4046612" lon="11.6146411"><ele>1754.75</ele><time>2026-04-26T14:52:23.017Z</time></trkpt><trkpt lat="46.4046428" lon="11.6144547"><ele>1755.0</ele><time>2026-04-26T14:52:24.017Z</time></trkpt><trkpt lat="46.4045995" lon="11.6142641"><ele>1755.0</ele><time>2026-04-26T14:52:25.017Z</time></trkpt><trkpt lat="46.4045434" lon="11.6140695"><ele>1755.0</ele><time>2026-04-26T14:52:26.017Z</time></trkpt><trkpt lat="46.4044745" lon="11.6138715"><ele>1755.0</ele><time>2026-04-26T14:52:27.017Z</time></trkpt><trkpt lat="46.4044033" lon="11.613663"><ele>1753.3333333333335</ele><time>2026-04-26T14:52:28.018Z</time></trkpt><trkpt lat="46.4043328" lon="11.6134501"><ele>1751.6666666666667</ele><time>2026-04-26T14:52:29.017Z</time></trkpt><trkpt lat="46.40426" lon="11.6132351"><ele>1750.0</ele><time>2026-04-26T14:52:30.017Z</time></trkpt><trkpt lat="46.4041895" lon="11.6130182"><ele>1750.0</ele><time>2026-04-26T14:52:31.017Z</time></trkpt><trkpt lat="46.4041221" lon="11.6128117"><ele>1750.0</ele><time>2026-04-26T14:52:32.017Z</time></trkpt><trkpt lat="46.4040689" lon="11.6126106"><ele>1750.0</ele><time>2026-04-26T14:52:33.017Z</time></trkpt><trkpt lat="46.4040326" lon="11.6124104"><ele>1750.0</ele><time>2026-04-26T14:52:34.018Z</time></trkpt><trkpt lat="46.4040208" lon="11.6121962"><ele>1750.3333333333335</ele><time>2026-04-26T14:52:35.017Z</time></trkpt><trkpt lat="46.4040318" lon="11.6119729"><ele>1750.6666666666665</ele><time>2026-04-26T14:52:36.017Z</time></trkpt><trkpt lat="46.4040499" lon="11.611745"><ele>1751.0</ele><time>2026-04-26T14:52:37.017Z</time></trkpt><trkpt lat="46.4040663" lon="11.6115163"><ele>1751.0</ele><time>2026-04-26T14:52:38.018Z</time></trkpt><trkpt lat="46.4040835" lon="11.6112899"><ele>1751.0</ele><time>2026-04-26T14:52:39.017Z</time></trkpt><trkpt lat="46.4041039" lon="11.6110622"><ele>1751.0</ele><time>2026-04-26T14:52:40.017Z</time></trkpt><trkpt lat="46.4041223" lon="11.6108392"><ele>1751.0</ele><time>2026-04-26T14:52:41.017Z</time></trkpt><trkpt lat="46.4041376" lon="11.610622"><ele>1751.0</ele><time>2026-04-26T14:52:42.017Z</time></trkpt><trkpt lat="46.4041564" lon="11.6104016"><ele>1751.0</ele><time>2026-04-26T14:52:43.017Z</time></trkpt><trkpt lat="46.4041725" lon="11.6101861"><ele>1751.25</ele><time>2026-04-26T14:52:44.017Z</time></trkpt><trkpt lat="46.4041885" lon="11.6099768"><ele>1751.5</ele><time>2026-04-26T14:52:45.017Z</time></trkpt><trkpt lat="46.4042024" lon="11.6097729"><ele>1751.75</ele><time>2026-04-26T14:52:46.017Z</time></trkpt><trkpt lat="46.4042198" lon="11.6095779"><ele>1752.0</ele><time>2026-04-26T14:52:47.017Z</time></trkpt><trkpt lat="46.4042372" lon="11.6093901"><ele>1752.0</ele><time>2026-04-26T14:52:48.016Z</time></trkpt><trkpt lat="46.4042554" lon="11.6092022"><ele>1752.0</ele><time>2026-04-26T14:52:49.018Z</time></trkpt><trkpt lat="46.4042872" lon="11.6090231"><ele>1752.0</ele><time>2026-04-26T14:52:50.017Z</time></trkpt><trkpt lat="46.4043305" lon="11.6088541"><ele>1752.0</ele><time>2026-04-26T14:52:51.017Z</time></trkpt><trkpt lat="46.4043878" lon="11.6086942"><ele>1752.5</ele><time>2026-04-26T14:52:52.017Z</time></trkpt><trkpt lat="46.4044512" lon="11.6085371"><ele>1753.0</ele><time>2026-04-26T14:52:53.017Z</time></trkpt><trkpt lat="46.4045147" lon="11.6083842"><ele>1753.5</ele><time>2026-04-26T14:52:54.017Z</time></trkpt><trkpt lat="46.4045817" lon="11.6082431"><ele>1754.0</ele><time>2026-04-26T14:52:55.017Z</time></trkpt><trkpt lat="46.4046519" lon="11.6081019"><ele>1753.5</ele><time>2026-04-26T14:52:56.017Z</time></trkpt><trkpt lat="46.4047207" lon="11.6079645"><ele>1753.0</ele><time>2026-04-26T14:52:57.017Z</time></trkpt><trkpt lat="46.4047956" lon="11.6078359"><ele>1752.5</ele><time>2026-04-26T14:52:58.017Z</time></trkpt><trkpt lat="46.404867" lon="11.6077136"><ele>1752.0</ele><time>2026-04-26T14:52:59.018Z</time></trkpt><trkpt lat="46.4049381" lon="11.6075995"><ele>1751.6</ele><time>2026-04-26T14:53:00.017Z</time></trkpt><trkpt lat="46.4050104" lon="11.6074903"><ele>1751.1999999999998</ele><time>2026-04-26T14:53:01.017Z</time></trkpt><trkpt lat="46.4050838" lon="11.6073908"><ele>1750.8</ele><time>2026-04-26T14:53:02.018Z</time></trkpt><trkpt lat="46.4051598" lon="11.6073001"><ele>1750.4</ele><time>2026-04-26T14:53:03.017Z</time></trkpt><trkpt lat="46.4052471" lon="11.6072136"><ele>1750.0</ele><time>2026-04-26T14:53:04.018Z</time></trkpt><trkpt lat="46.4053499" lon="11.6071338"><ele>1750.0</ele><time>2026-04-26T14:53:05.018Z</time></trkpt><trkpt lat="46.4054674" lon="11.6070497"><ele>1750.0</ele><time>2026-04-26T14:53:06.017Z</time></trkpt><trkpt lat="46.4055856" lon="11.6069626"><ele>1750.0</ele><time>2026-04-26T14:53:07.017Z</time></trkpt><trkpt lat="46.4056949" lon="11.6068444"><ele>1750.0</ele><time>2026-04-26T14:53:08.017Z</time></trkpt><trkpt lat="46.4057884" lon="11.6067053"><ele>1748.5</ele><time>2026-04-26T14:53:09.017Z</time></trkpt><trkpt lat="46.4058737" lon="11.6065331"><ele>1747.0</ele><time>2026-04-26T14:53:10.017Z</time></trkpt><trkpt lat="46.405949" lon="11.606363"><ele>1745.5</ele><time>2026-04-26T14:53:11.017Z</time></trkpt><trkpt lat="46.4060269" lon="11.6062056"><ele>1744.0</ele><time>2026-04-26T14:53:12.017Z</time></trkpt><trkpt lat="46.4061134" lon="11.6060657"><ele>1742.75</ele><time>2026-04-26T14:53:13.017Z</time></trkpt><trkpt lat="46.40621" lon="11.6059391"><ele>1741.5</ele><time>2026-04-26T14:53:14.017Z</time></trkpt><trkpt lat="46.4063168" lon="11.6058372"><ele>1740.25</ele><time>2026-04-26T14:53:15.017Z</time></trkpt><trkpt lat="46.406438" lon="11.6057644"><ele>1739.0</ele><time>2026-04-26T14:53:16.017Z</time></trkpt><trkpt lat="46.4065592" lon="11.6057049"><ele>1738.4</ele><time>2026-04-26T14:53:17.017Z</time></trkpt><trkpt lat="46.4066732" lon="11.6056409"><ele>1737.8000000000002</ele><time>2026-04-26T14:53:18.017Z</time></trkpt><trkpt lat="46.4067755" lon="11.6055758"><ele>1737.1999999999998</ele><time>2026-04-26T14:53:19.017Z</time></trkpt><trkpt lat="46.4068587" lon="11.6055026"><ele>1736.6</ele><time>2026-04-26T14:53:20.017Z</time></trkpt><trkpt lat="46.4069224" lon="11.6054095"><ele>1736.0</ele><time>2026-04-26T14:53:21.017Z</time></trkpt><trkpt lat="46.4069695" lon="11.6052984"><ele>1734.4</ele><time>2026-04-26T14:53:22.017Z</time></trkpt><trkpt lat="46.4069812" lon="11.6051676"><ele>1732.8</ele><time>2026-04-26T14:53:23.017Z</time></trkpt><trkpt lat="46.4069632" lon="11.6050388"><ele>1731.2000000000003</ele><time>2026-04-26T14:53:24.017Z</time></trkpt><trkpt lat="46.4069139" lon="11.6049195"><ele>1729.6000000000001</ele><time>2026-04-26T14:53:25.017Z</time></trkpt><trkpt lat="46.4068421" lon="11.6047924"><ele>1728.0</ele><time>2026-04-26T14:53:26.017Z</time></trkpt><trkpt lat="46.4067439" lon="11.6046931"><ele>1728.0</ele><time>2026-04-26T14:53:27.017Z</time></trkpt><trkpt lat="46.4066338" lon="11.6046022"><ele>1728.0</ele><time>2026-04-26T14:53:28.017Z</time></trkpt><trkpt lat="46.4065216" lon="11.6045138"><ele>1728.0</ele><time>2026-04-26T14:53:29.017Z</time></trkpt><trkpt lat="46.4064134" lon="11.604432"><ele>1728.0</ele><time>2026-04-26T14:53:30.017Z</time></trkpt><trkpt lat="46.4063305" lon="11.6043465"><ele>1729.2</ele><time>2026-04-26T14:53:31.017Z</time></trkpt><trkpt lat="46.4062835" lon="11.6042424"><ele>1730.4</ele><time>2026-04-26T14:53:32.017Z</time></trkpt><trkpt lat="46.4062705" lon="11.6041164"><ele>1731.6000000000001</ele><time>2026-04-26T14:53:33.017Z</time></trkpt><trkpt lat="46.4063011" lon="11.6039976"><ele>1732.8000000000002</ele><time>2026-04-26T14:53:34.017Z</time></trkpt><trkpt lat="46.4063487" lon="11.6038798"><ele>1734.0</ele><time>2026-04-26T14:53:35.017Z</time></trkpt><trkpt lat="46.4064209" lon="11.6037841"><ele>1731.0</ele><time>2026-04-26T14:53:36.017Z</time></trkpt><trkpt lat="46.406517" lon="11.6037081"><ele>1728.0</ele><time>2026-04-26T14:53:37.018Z</time></trkpt><trkpt lat="46.4066299" lon="11.6036237"><ele>1725.0</ele><time>2026-04-26T14:53:38.017Z</time></trkpt><trkpt lat="46.4067425" lon="11.6035478"><ele>1722.0</ele><time>2026-04-26T14:53:39.017Z</time></trkpt><trkpt lat="46.4068514" lon="11.6034753"><ele>1720.5</ele><time>2026-04-26T14:53:40.017Z</time></trkpt><trkpt lat="46.4069575" lon="11.6034047"><ele>1719.0</ele><time>2026-04-26T14:53:41.017Z</time></trkpt><trkpt lat="46.4070671" lon="11.603339"><ele>1717.5</ele><time>2026-04-26T14:53:42.017Z</time></trkpt><trkpt lat="46.4071684" lon="11.6032837"><ele>1716.0</ele><time>2026-04-26T14:53:43.017Z</time></trkpt><trkpt lat="46.4072674" lon="11.6032203"><ele>1714.6</ele><time>2026-04-26T14:53:44.017Z</time></trkpt><trkpt lat="46.4073534" lon="11.6031456"><ele>1713.1999999999998</ele><time>2026-04-26T14:53:45.017Z</time></trkpt><trkpt lat="46.4074276" lon="11.6030645"><ele>1711.8000000000002</ele><time>2026-04-26T14:53:46.017Z</time></trkpt><trkpt lat="46.4074842" lon="11.6029575"><ele>1710.4</ele><time>2026-04-26T14:53:47.017Z</time></trkpt><trkpt lat="46.4075169" lon="11.6028209"><ele>1709.0</ele><time>2026-04-26T14:53:48.017Z</time></trkpt><trkpt lat="46.4075317" lon="11.6026534"><ele>1707.5</ele><time>2026-04-26T14:53:49.017Z</time></trkpt><trkpt lat="46.4075362" lon="11.6024631"><ele>1706.0</ele><time>2026-04-26T14:53:50.017Z</time></trkpt><trkpt lat="46.4075243" lon="11.6022633"><ele>1704.5</ele><time>2026-04-26T14:53:51.017Z</time></trkpt><trkpt lat="46.4075118" lon="11.6020637"><ele>1703.0</ele><time>2026-04-26T14:53:52.017Z</time></trkpt><trkpt lat="46.4074989" lon="11.6018615"><ele>1701.75</ele><time>2026-04-26T14:53:53.017Z</time></trkpt><trkpt lat="46.4074831" lon="11.601661"><ele>1700.5</ele><time>2026-04-26T14:53:54.017Z</time></trkpt><trkpt lat="46.4074668" lon="11.6014563"><ele>1699.25</ele><time>2026-04-26T14:53:55.017Z</time></trkpt><trkpt lat="46.4074576" lon="11.601254"><ele>1698.0</ele><time>2026-04-26T14:53:56.017Z</time></trkpt><trkpt lat="46.4074477" lon="11.6010538"><ele>1697.25</ele><time>2026-04-26T14:53:57.017Z</time></trkpt><trkpt lat="46.4074347" lon="11.6008526"><ele>1696.5</ele><time>2026-04-26T14:53:58.017Z</time></trkpt><trkpt lat="46.407423" lon="11.6006561"><ele>1695.75</ele><time>2026-04-26T14:53:59.017Z</time></trkpt><trkpt lat="46.4074144" lon="11.6004587"><ele>1695.0</ele><time>2026-04-26T14:54:00.017Z</time></trkpt><trkpt lat="46.4074085" lon="11.6002624"><ele>1694.0</ele><time>2026-04-26T14:54:01.017Z</time></trkpt><trkpt lat="46.4074002" lon="11.6000699"><ele>1693.0</ele><time>2026-04-26T14:54:02.017Z</time></trkpt><trkpt lat="46.4073961" lon="11.5998787"><ele>1692.0</ele><time>2026-04-26T14:54:03.018Z</time></trkpt><trkpt lat="46.4073999" lon="11.5996864"><ele>1691.0</ele><time>2026-04-26T14:54:04.017Z</time></trkpt><trkpt lat="46.407412" lon="11.5994894"><ele>1689.5</ele><time>2026-04-26T14:54:05.017Z</time></trkpt><trkpt lat="46.4074394" lon="11.5992948"><ele>1688.0</ele><time>2026-04-26T14:54:06.017Z</time></trkpt><trkpt lat="46.4074686" lon="11.5991024"><ele>1686.5</ele><time>2026-04-26T14:54:07.017Z</time></trkpt><trkpt lat="46.4074983" lon="11.5989064"><ele>1685.0</ele><time>2026-04-26T14:54:08.017Z</time></trkpt><trkpt lat="46.4075279" lon="11.5987131"><ele>1684.25</ele><time>2026-04-26T14:54:09.017Z</time></trkpt><trkpt lat="46.4075624" lon="11.5985203"><ele>1683.5</ele><time>2026-04-26T14:54:10.017Z</time></trkpt><trkpt lat="46.407591" lon="11.5983271"><ele>1682.75</ele><time>2026-04-26T14:54:11.017Z</time></trkpt><trkpt lat="46.407619" lon="11.5981305"><ele>1682.0</ele><time>2026-04-26T14:54:12.017Z</time></trkpt><trkpt lat="46.4076475" lon="11.5979362"><ele>1680.5</ele><time>2026-04-26T14:54:13.017Z</time></trkpt><trkpt lat="46.4076759" lon="11.5977419"><ele>1679.0</ele><time>2026-04-26T14:54:14.017Z</time></trkpt><trkpt lat="46.4077002" lon="11.5975448"><ele>1677.5</ele><time>2026-04-26T14:54:15.017Z</time></trkpt><trkpt lat="46.4077151" lon="11.5973408"><ele>1676.0</ele><time>2026-04-26T14:54:16.017Z</time></trkpt><trkpt lat="46.4077179" lon="11.5971422"><ele>1674.75</ele><time>2026-04-26T14:54:17.018Z</time></trkpt><trkpt lat="46.4077014" lon="11.5969348"><ele>1673.5</ele><time>2026-04-26T14:54:18.018Z</time></trkpt><trkpt lat="46.4076763" lon="11.596733"><ele>1672.25</ele><time>2026-04-26T14:54:19.017Z</time></trkpt><trkpt lat="46.4076457" lon="11.5965247"><ele>1671.0</ele><time>2026-04-26T14:54:20.017Z</time></trkpt><trkpt lat="46.407614" lon="11.5963241"><ele>1669.25</ele><time>2026-04-26T14:54:21.017Z</time></trkpt><trkpt lat="46.407584" lon="11.5961169"><ele>1667.5</ele><time>2026-04-26T14:54:22.017Z</time></trkpt><trkpt lat="46.4075563" lon="11.5959126"><ele>1665.75</ele><time>2026-04-26T14:54:23.017Z</time></trkpt><trkpt lat="46.4075274" lon="11.5957092"><ele>1664.0</ele><time>2026-04-26T14:54:24.017Z</time></trkpt><trkpt lat="46.4074966" lon="11.5955138"><ele>1662.25</ele><time>2026-04-26T14:54:25.017Z</time></trkpt><trkpt lat="46.4074533" lon="11.5953238"><ele>1660.5</ele><time>2026-04-26T14:54:26.017Z</time></trkpt><trkpt lat="46.4073931" lon="11.5951463"><ele>1658.75</ele><time>2026-04-26T14:54:27.017Z</time></trkpt><trkpt lat="46.4073122" lon="11.5949883"><ele>1657.0</ele><time>2026-04-26T14:54:28.017Z</time></trkpt><trkpt lat="46.4072199" lon="11.5948354"><ele>1657.75</ele><time>2026-04-26T14:54:29.017Z</time></trkpt><trkpt lat="46.4071156" lon="11.5946948"><ele>1658.5</ele><time>2026-04-26T14:54:30.017Z</time></trkpt><trkpt lat="46.4070137" lon="11.5945499"><ele>1659.25</ele><time>2026-04-26T14:54:31.017Z</time></trkpt><trkpt lat="46.4069265" lon="11.5943954"><ele>1660.0</ele><time>2026-04-26T14:54:32.017Z</time></trkpt><trkpt lat="46.4068646" lon="11.5942179"><ele>1660.0</ele><time>2026-04-26T14:54:33.017Z</time></trkpt><trkpt lat="46.4068189" lon="11.5940248"><ele>1660.0</ele><time>2026-04-26T14:54:34.017Z</time></trkpt><trkpt lat="46.4067931" lon="11.5938184"><ele>1660.0</ele><time>2026-04-26T14:54:35.017Z</time></trkpt><trkpt lat="46.40679" lon="11.5936049"><ele>1660.0</ele><time>2026-04-26T14:54:36.017Z</time></trkpt><trkpt lat="46.4067955" lon="11.5933884"><ele>1657.6666666666667</ele><time>2026-04-26T14:54:37.017Z</time></trkpt><trkpt lat="46.406809" lon="11.5931708"><ele>1655.3333333333335</ele><time>2026-04-26T14:54:38.017Z</time></trkpt><trkpt lat="46.4068253" lon="11.5929519"><ele>1653.0</ele><time>2026-04-26T14:54:39.017Z</time></trkpt><trkpt lat="46.4068335" lon="11.5927286"><ele>1650.3333333333335</ele><time>2026-04-26T14:54:40.017Z</time></trkpt><trkpt lat="46.406832" lon="11.5925055"><ele>1647.6666666666667</ele><time>2026-04-26T14:54:41.017Z</time></trkpt><trkpt lat="46.4068186" lon="11.5922792"><ele>1645.0</ele><time>2026-04-26T14:54:42.017Z</time></trkpt><trkpt lat="46.4067977" lon="11.5920519"><ele>1643.0</ele><time>2026-04-26T14:54:43.017Z</time></trkpt><trkpt lat="46.4067783" lon="11.5918202"><ele>1641.0</ele><time>2026-04-26T14:54:44.018Z</time></trkpt><trkpt lat="46.4067582" lon="11.5915921"><ele>1639.0</ele><time>2026-04-26T14:54:45.017Z</time></trkpt><trkpt lat="46.4067377" lon="11.5913693"><ele>1638.3333333333335</ele><time>2026-04-26T14:54:46.017Z</time></trkpt><trkpt lat="46.4067135" lon="11.5911452"><ele>1637.6666666666665</ele><time>2026-04-26T14:54:47.017Z</time></trkpt><trkpt lat="46.406697" lon="11.5909189"><ele>1637.0</ele><time>2026-04-26T14:54:48.017Z</time></trkpt><trkpt lat="46.4066846" lon="11.5906896"><ele>1637.0</ele><time>2026-04-26T14:54:49.017Z</time></trkpt><trkpt lat="46.4066846" lon="11.5904497"><ele>1637.0</ele><time>2026-04-26T14:54:50.017Z</time></trkpt><trkpt lat="46.4067096" lon="11.590217"><ele>1637.0</ele><time>2026-04-26T14:54:51.017Z</time></trkpt><trkpt lat="46.4067519" lon="11.5899848"><ele>1636.3333333333333</ele><time>2026-04-26T14:54:52.017Z</time></trkpt><trkpt lat="46.4067935" lon="11.5897658"><ele>1635.6666666666665</ele><time>2026-04-26T14:54:53.017Z</time></trkpt><trkpt lat="46.4068289" lon="11.5895421"><ele>1635.0</ele><time>2026-04-26T14:54:54.017Z</time></trkpt><trkpt lat="46.4068508" lon="11.5893185"><ele>1634.3333333333335</ele><time>2026-04-26T14:54:55.017Z</time></trkpt><trkpt lat="46.4068623" lon="11.5890935"><ele>1633.6666666666667</ele><time>2026-04-26T14:54:56.017Z</time></trkpt><trkpt lat="46.4068525" lon="11.5888564"><ele>1633.0</ele><time>2026-04-26T14:54:57.017Z</time></trkpt><trkpt lat="46.406832" lon="11.5886213"><ele>1631.3333333333335</ele><time>2026-04-26T14:54:58.017Z</time></trkpt><trkpt lat="46.4067955" lon="11.5883871"><ele>1629.6666666666665</ele><time>2026-04-26T14:54:59.017Z</time></trkpt><trkpt lat="46.4067471" lon="11.5881542"><ele>1628.0</ele><time>2026-04-26T14:55:00.017Z</time></trkpt><trkpt lat="46.406688" lon="11.587934"><ele>1627.0</ele><time>2026-04-26T14:55:01.017Z</time></trkpt><trkpt lat="46.4066131" lon="11.587728"><ele>1626.0</ele><time>2026-04-26T14:55:02.017Z</time></trkpt><trkpt lat="46.4065279" lon="11.5875404"><ele>1625.0</ele><time>2026-04-26T14:55:03.018Z</time></trkpt><trkpt lat="46.4064368" lon="11.5873662"><ele>1625.0</ele><time>2026-04-26T14:55:04.017Z</time></trkpt><trkpt lat="46.4063437" lon="11.5871992"><ele>1625.0</ele><time>2026-04-26T14:55:05.017Z</time></trkpt><trkpt lat="46.4062584" lon="11.5870296"><ele>1625.0</ele><time>2026-04-26T14:55:06.017Z</time></trkpt><trkpt lat="46.4061867" lon="11.5868597"><ele>1625.0</ele><time>2026-04-26T14:55:07.017Z</time></trkpt><trkpt lat="46.406141" lon="11.5866814"><ele>1625.0</ele><time>2026-04-26T14:55:08.017Z</time></trkpt><trkpt lat="46.4061182" lon="11.5864891"><ele>1625.0</ele><time>2026-04-26T14:55:09.017Z</time></trkpt><trkpt lat="46.406125" lon="11.586291"><ele>1625.0</ele><time>2026-04-26T14:55:10.017Z</time></trkpt><trkpt lat="46.4061423" lon="11.5860882"><ele>1625.0</ele><time>2026-04-26T14:55:11.017Z</time></trkpt><trkpt lat="46.406158" lon="11.5858885"><ele>1624.0</ele><time>2026-04-26T14:55:12.017Z</time></trkpt><trkpt lat="46.406173" lon="11.5856922"><ele>1623.0</ele><time>2026-04-26T14:55:13.017Z</time></trkpt><trkpt lat="46.4061814" lon="11.5854855"><ele>1622.0</ele><time>2026-04-26T14:55:14.017Z</time></trkpt><trkpt lat="46.4061933" lon="11.585287"><ele>1621.0</ele><time>2026-04-26T14:55:15.017Z</time></trkpt><trkpt lat="46.4062077" lon="11.5850849"><ele>1621.0</ele><time>2026-04-26T14:55:16.018Z</time></trkpt><trkpt lat="46.4062256" lon="11.5848915"><ele>1621.0</ele><time>2026-04-26T14:55:17.017Z</time></trkpt><trkpt lat="46.406274" lon="11.5847038"><ele>1621.0</ele><time>2026-04-26T14:55:18.017Z</time></trkpt><trkpt lat="46.4063404" lon="11.5845295"><ele>1621.0</ele><time>2026-04-26T14:55:19.017Z</time></trkpt><trkpt lat="46.4064135" lon="11.5843583"><ele>1620.75</ele><time>2026-04-26T14:55:20.017Z</time></trkpt><trkpt lat="46.4064827" lon="11.5841874"><ele>1620.5</ele><time>2026-04-26T14:55:21.017Z</time></trkpt><trkpt lat="46.4065498" lon="11.5840155"><ele>1620.25</ele><time>2026-04-26T14:55:22.017Z</time></trkpt><trkpt lat="46.4066253" lon="11.5838365"><ele>1620.0</ele><time>2026-04-26T14:55:23.017Z</time></trkpt><trkpt lat="46.4067039" lon="11.5836623"><ele>1622.5</ele><time>2026-04-26T14:55:24.017Z</time></trkpt><trkpt lat="46.4067887" lon="11.5834911"><ele>1625.0</ele><time>2026-04-26T14:55:25.017Z</time></trkpt><trkpt lat="46.4068845" lon="11.5833441"><ele>1627.5</ele><time>2026-04-26T14:55:26.017Z</time></trkpt><trkpt lat="46.4070062" lon="11.5832349"><ele>1630.0</ele><time>2026-04-26T14:55:27.017Z</time></trkpt><trkpt lat="46.4071362" lon="11.5831538"><ele>1628.5</ele><time>2026-04-26T14:55:28.017Z</time></trkpt><trkpt lat="46.4072648" lon="11.5830729"><ele>1627.0</ele><time>2026-04-26T14:55:29.018Z</time></trkpt><trkpt lat="46.4073997" lon="11.5829843"><ele>1625.5</ele><time>2026-04-26T14:55:30.017Z</time></trkpt><trkpt lat="46.4075401" lon="11.5828963"><ele>1624.0</ele><time>2026-04-26T14:55:31.017Z</time></trkpt><trkpt lat="46.407681" lon="11.582804"><ele>1624.0</ele><time>2026-04-26T14:55:32.017Z</time></trkpt><trkpt lat="46.4078219" lon="11.5827023"><ele>1624.0</ele><time>2026-04-26T14:55:33.017Z</time></trkpt><trkpt lat="46.4079567" lon="11.5825882"><ele>1624.0</ele><time>2026-04-26T14:55:34.017Z</time></trkpt><trkpt lat="46.4080847" lon="11.5824588"><ele>1620.3333333333335</ele><time>2026-04-26T14:55:35.017Z</time></trkpt><trkpt lat="46.4082065" lon="11.5823145"><ele>1616.6666666666665</ele><time>2026-04-26T14:55:36.017Z</time></trkpt><trkpt lat="46.4083254" lon="11.5821678"><ele>1613.0</ele><time>2026-04-26T14:55:37.017Z</time></trkpt><trkpt lat="46.4084508" lon="11.5820205"><ele>1616.0</ele><time>2026-04-26T14:55:38.017Z</time></trkpt><trkpt lat="46.4085847" lon="11.5818956"><ele>1619.0</ele><time>2026-04-26T14:55:39.017Z</time></trkpt><trkpt lat="46.4087244" lon="11.5817942"><ele>1622.0</ele><time>2026-04-26T14:55:40.017Z</time></trkpt><trkpt lat="46.4088697" lon="11.5816978"><ele>1622.0</ele><time>2026-04-26T14:55:41.017Z</time></trkpt><trkpt lat="46.4090144" lon="11.5816043"><ele>1622.0</ele><time>2026-04-26T14:55:42.017Z</time></trkpt><trkpt lat="46.4091535" lon="11.5815235"><ele>1622.0</ele><time>2026-04-26T14:55:43.017Z</time></trkpt><trkpt lat="46.4092888" lon="11.5814465"><ele>1622.0</ele><time>2026-04-26T14:55:44.017Z</time></trkpt><trkpt lat="46.4094263" lon="11.5813692"><ele>1622.0</ele><time>2026-04-26T14:55:45.017Z</time></trkpt><trkpt lat="46.4095644" lon="11.5812892"><ele>1622.0</ele><time>2026-04-26T14:55:46.017Z</time></trkpt><trkpt lat="46.4096981" lon="11.581209"><ele>1622.0</ele><time>2026-04-26T14:55:47.017Z</time></trkpt><trkpt lat="46.4098315" lon="11.5811096"><ele>1620.25</ele><time>2026-04-26T14:55:48.017Z</time></trkpt><trkpt lat="46.4099504" lon="11.5810032"><ele>1618.5</ele><time>2026-04-26T14:55:49.017Z</time></trkpt><trkpt lat="46.4100631" lon="11.5808613"><ele>1616.75</ele><time>2026-04-26T14:55:50.017Z</time></trkpt><trkpt lat="46.4101684" lon="11.5806992"><ele>1615.0</ele><time>2026-04-26T14:55:51.017Z</time></trkpt><trkpt lat="46.4102653" lon="11.5805217"><ele>1613.0</ele><time>2026-04-26T14:55:52.017Z</time></trkpt><trkpt lat="46.4103657" lon="11.5803445"><ele>1611.0</ele><time>2026-04-26T14:55:53.018Z</time></trkpt><trkpt lat="46.4104696" lon="11.5801638"><ele>1609.0</ele><time>2026-04-26T14:55:54.017Z</time></trkpt><trkpt lat="46.4105738" lon="11.5799852"><ele>1609.0</ele><time>2026-04-26T14:55:55.017Z</time></trkpt><trkpt lat="46.4106706" lon="11.5798052"><ele>1609.0</ele><time>2026-04-26T14:55:56.017Z</time></trkpt><trkpt lat="46.4107687" lon="11.5796261"><ele>1609.0</ele><time>2026-04-26T14:55:57.017Z</time></trkpt><trkpt lat="46.4108647" lon="11.5794484"><ele>1608.3333333333335</ele><time>2026-04-26T14:55:58.017Z</time></trkpt><trkpt lat="46.4109603" lon="11.5792746"><ele>1607.6666666666665</ele><time>2026-04-26T14:55:59.017Z</time></trkpt><trkpt lat="46.4110572" lon="11.5790998"><ele>1607.0</ele><time>2026-04-26T14:56:00.017Z</time></trkpt><trkpt lat="46.4111537" lon="11.5789309"><ele>1607.0</ele><time>2026-04-26T14:56:01.017Z</time></trkpt><trkpt lat="46.4112421" lon="11.5787656"><ele>1607.0</ele><time>2026-04-26T14:56:02.018Z</time></trkpt><trkpt lat="46.411323" lon="11.5786258"><ele>1607.0</ele><time>2026-04-26T14:56:03.017Z</time></trkpt><trkpt lat="46.4113958" lon="11.5784958"><ele>1607.0</ele><time>2026-04-26T14:56:04.017Z</time></trkpt><trkpt lat="46.4114435" lon="11.5783689"><ele>1605.4999999999998</ele><time>2026-04-26T14:56:05.017Z</time></trkpt><trkpt lat="46.4114616" lon="11.5782494"><ele>1604.0</ele><time>2026-04-26T14:56:06.017Z</time></trkpt><trkpt lat="46.4114458" lon="11.5781426"><ele>1602.5</ele><time>2026-04-26T14:56:07.017Z</time></trkpt><trkpt lat="46.4113979" lon="11.5780379"><ele>1601.0</ele><time>2026-04-26T14:56:08.017Z</time></trkpt><trkpt lat="46.4113278" lon="11.5779701"><ele>1599.4999999999998</ele><time>2026-04-26T14:56:09.017Z</time></trkpt><trkpt lat="46.4112375" lon="11.5779545"><ele>1598.0</ele><time>2026-04-26T14:56:10.017Z</time></trkpt><trkpt lat="46.4111348" lon="11.5779923"><ele>1598.0</ele><time>2026-04-26T14:56:11.018Z</time></trkpt><trkpt lat="46.4110271" lon="11.5780414"><ele>1598.0</ele><time>2026-04-26T14:56:12.017Z</time></trkpt><trkpt lat="46.4109174" lon="11.5781086"><ele>1598.0</ele><time>2026-04-26T14:56:13.017Z</time></trkpt><trkpt lat="46.4107923" lon="11.5781668"><ele>1598.0</ele><time>2026-04-26T14:56:14.017Z</time></trkpt><trkpt lat="46.4106572" lon="11.578207"><ele>1598.0</ele><time>2026-04-26T14:56:15.017Z</time></trkpt><trkpt lat="46.4105188" lon="11.5782348"><ele>1598.0</ele><time>2026-04-26T14:56:16.017Z</time></trkpt><trkpt lat="46.4103738" lon="11.578257"><ele>1598.0</ele><time>2026-04-26T14:56:17.017Z</time></trkpt><trkpt lat="46.4102413" lon="11.5782806"><ele>1598.0</ele><time>2026-04-26T14:56:18.017Z</time></trkpt><trkpt lat="46.410105" lon="11.5783082"><ele>1596.8000000000002</ele><time>2026-04-26T14:56:19.017Z</time></trkpt><trkpt lat="46.4099824" lon="11.5783464"><ele>1595.6</ele><time>2026-04-26T14:56:20.017Z</time></trkpt><trkpt lat="46.4098693" lon="11.5783949"><ele>1594.4</ele><time>2026-04-26T14:56:21.017Z</time></trkpt><trkpt lat="46.4097713" lon="11.5784455"><ele>1593.1999999999998</ele><time>2026-04-26T14:56:22.017Z</time></trkpt><trkpt lat="46.4096918" lon="11.5784909"><ele>1592.0</ele><time>2026-04-26T14:56:23.017Z</time></trkpt><trkpt lat="46.409626" lon="11.5785115"><ele>1592.0</ele><time>2026-04-26T14:56:24.017Z</time></trkpt><trkpt lat="46.4095331" lon="11.5784595"><ele>1592.0</ele><time>2026-04-26T14:56:26.017Z</time></trkpt><trkpt lat="46.4095858" lon="11.5782951"><ele>1592.0</ele><time>2026-04-26T14:56:28.017Z</time></trkpt><trkpt lat="46.4096614" lon="11.5782464"><ele>1592.0</ele><time>2026-04-26T14:56:29.017Z</time></trkpt><trkpt lat="46.4097488" lon="11.5782154"><ele>1592.0</ele><time>2026-04-26T14:56:30.017Z</time></trkpt><trkpt lat="46.4098524" lon="11.5781751"><ele>1592.0</ele><time>2026-04-26T14:56:31.017Z</time></trkpt><trkpt lat="46.4099562" lon="11.5781093"><ele>1592.0</ele><time>2026-04-26T14:56:32.017Z</time></trkpt><trkpt lat="46.4100465" lon="11.5779945"><ele>1592.0</ele><time>2026-04-26T14:56:33.017Z</time></trkpt><trkpt lat="46.4101272" lon="11.5778467"><ele>1592.0</ele><time>2026-04-26T14:56:34.017Z</time></trkpt><trkpt lat="46.4101975" lon="11.5776778"><ele>1587.5</ele><time>2026-04-26T14:56:35.017Z</time></trkpt><trkpt lat="46.4102673" lon="11.5775152"><ele>1583.0</ele><time>2026-04-26T14:56:36.017Z</time></trkpt><trkpt lat="46.4103382" lon="11.5773511"><ele>1578.5</ele><time>2026-04-26T14:56:37.018Z</time></trkpt><trkpt lat="46.4104061" lon="11.5771953"><ele>1574.0</ele><time>2026-04-26T14:56:38.017Z</time></trkpt><trkpt lat="46.4104659" lon="11.5770493"><ele>1575.2</ele><time>2026-04-26T14:56:39.017Z</time></trkpt><trkpt lat="46.4105034" lon="11.5769006"><ele>1576.4</ele><time>2026-04-26T14:56:40.017Z</time></trkpt><trkpt lat="46.4105075" lon="11.5767456"><ele>1577.6</ele><time>2026-04-26T14:56:41.017Z</time></trkpt><trkpt lat="46.4105049" lon="11.5765823"><ele>1578.8</ele><time>2026-04-26T14:56:42.017Z</time></trkpt><trkpt lat="46.4105088" lon="11.5764196"><ele>1580.0</ele><time>2026-04-26T14:56:43.017Z</time></trkpt><trkpt lat="46.4105127" lon="11.5762644"><ele>1577.8</ele><time>2026-04-26T14:56:44.017Z</time></trkpt><trkpt lat="46.4105129" lon="11.5761045"><ele>1575.6</ele><time>2026-04-26T14:56:45.017Z</time></trkpt><trkpt lat="46.4105212" lon="11.5759462"><ele>1573.4</ele><time>2026-04-26T14:56:46.017Z</time></trkpt><trkpt lat="46.4105195" lon="11.5757907"><ele>1571.2</ele><time>2026-04-26T14:56:47.017Z</time></trkpt><trkpt lat="46.4104969" lon="11.5756379"><ele>1569.0</ele><time>2026-04-26T14:56:48.017Z</time></trkpt><trkpt lat="46.4104546" lon="11.5754816"><ele>1563.0</ele><time>2026-04-26T14:56:49.017Z</time></trkpt><trkpt lat="46.4104011" lon="11.5753235"><ele>1557.0</ele><time>2026-04-26T14:56:50.017Z</time></trkpt><trkpt lat="46.4103371" lon="11.5751696"><ele>1551.0</ele><time>2026-04-26T14:56:51.017Z</time></trkpt><trkpt lat="46.4102709" lon="11.5750119"><ele>1545.0</ele><time>2026-04-26T14:56:52.017Z</time></trkpt><trkpt lat="46.4102089" lon="11.5748592"><ele>1545.0</ele><time>2026-04-26T14:56:53.017Z</time></trkpt><trkpt lat="46.4101416" lon="11.5747143"><ele>1545.0</ele><time>2026-04-26T14:56:54.017Z</time></trkpt><trkpt lat="46.4100724" lon="11.5745748"><ele>1545.0</ele><time>2026-04-26T14:56:55.017Z</time></trkpt><trkpt lat="46.4099947" lon="11.5744504"><ele>1545.0</ele><time>2026-04-26T14:56:56.017Z</time></trkpt><trkpt lat="46.4099219" lon="11.5743416"><ele>1544.0</ele><time>2026-04-26T14:56:57.017Z</time></trkpt><trkpt lat="46.4098455" lon="11.5742357"><ele>1543.0</ele><time>2026-04-26T14:56:58.017Z</time></trkpt><trkpt lat="46.4097752" lon="11.5741246"><ele>1542.0</ele><time>2026-04-26T14:56:59.017Z</time></trkpt><trkpt lat="46.4097041" lon="11.5740201"><ele>1541.0</ele><time>2026-04-26T14:57:00.017Z</time></trkpt><trkpt lat="46.4096249" lon="11.573917"><ele>1540.0</ele><time>2026-04-26T14:57:01.017Z</time></trkpt><trkpt lat="46.4095376" lon="11.5738264"><ele>1540.0</ele><time>2026-04-26T14:57:02.017Z</time></trkpt><trkpt lat="46.4094492" lon="11.5737365"><ele>1540.0</ele><time>2026-04-26T14:57:03.017Z</time></trkpt><trkpt lat="46.4093646" lon="11.5736451"><ele>1540.0</ele><time>2026-04-26T14:57:04.018Z</time></trkpt><trkpt lat="46.4092869" lon="11.5735384"><ele>1540.0</ele><time>2026-04-26T14:57:05.017Z</time></trkpt><trkpt lat="46.409227" lon="11.5734142"><ele>1540.0</ele><time>2026-04-26T14:57:06.018Z</time></trkpt><trkpt lat="46.4091889" lon="11.5732654"><ele>1542.5</ele><time>2026-04-26T14:57:07.017Z</time></trkpt><trkpt lat="46.4091736" lon="11.5731035"><ele>1545.0</ele><time>2026-04-26T14:57:08.017Z</time></trkpt><trkpt lat="46.409179" lon="11.5729386"><ele>1547.5</ele><time>2026-04-26T14:57:09.017Z</time></trkpt><trkpt lat="46.4092179" lon="11.5727692"><ele>1550.0</ele><time>2026-04-26T14:57:10.017Z</time></trkpt><trkpt lat="46.4092937" lon="11.5726081"><ele>1553.0</ele><time>2026-04-26T14:57:11.017Z</time></trkpt><trkpt lat="46.4093918" lon="11.5724475"><ele>1556.0</ele><time>2026-04-26T14:57:12.017Z</time></trkpt><trkpt lat="46.4095014" lon="11.5722948"><ele>1559.0</ele><time>2026-04-26T14:57:13.018Z</time></trkpt><trkpt lat="46.4096221" lon="11.5721467"><ele>1555.6666666666665</ele><time>2026-04-26T14:57:14.017Z</time></trkpt><trkpt lat="46.4097435" lon="11.571988"><ele>1552.3333333333335</ele><time>2026-04-26T14:57:15.017Z</time></trkpt><trkpt lat="46.4098776" lon="11.5718215"><ele>1549.0</ele><time>2026-04-26T14:57:16.017Z</time></trkpt><trkpt lat="46.4100088" lon="11.5716482"><ele>1549.0</ele><time>2026-04-26T14:57:17.017Z</time></trkpt><trkpt lat="46.4101404" lon="11.5714779"><ele>1549.0</ele><time>2026-04-26T14:57:18.017Z</time></trkpt><trkpt lat="46.4102719" lon="11.5713045"><ele>1549.0</ele><time>2026-04-26T14:57:19.017Z</time></trkpt><trkpt lat="46.4104023" lon="11.5711302"><ele>1545.3333333333335</ele><time>2026-04-26T14:57:20.017Z</time></trkpt><trkpt lat="46.4105294" lon="11.5709587"><ele>1541.6666666666665</ele><time>2026-04-26T14:57:21.017Z</time></trkpt><trkpt lat="46.4106531" lon="11.5707793"><ele>1538.0</ele><time>2026-04-26T14:57:22.017Z</time></trkpt><trkpt lat="46.4107687" lon="11.5705946"><ele>1538.0</ele><time>2026-04-26T14:57:23.017Z</time></trkpt><trkpt lat="46.4108796" lon="11.5704088"><ele>1538.0</ele><time>2026-04-26T14:57:24.017Z</time></trkpt><trkpt lat="46.4109918" lon="11.5702246"><ele>1538.0</ele><time>2026-04-26T14:57:25.017Z</time></trkpt><trkpt lat="46.4111164" lon="11.5700583"><ele>1540.0</ele><time>2026-04-26T14:57:26.017Z</time></trkpt><trkpt lat="46.4112449" lon="11.569908"><ele>1542.0</ele><time>2026-04-26T14:57:27.017Z</time></trkpt><trkpt lat="46.4113725" lon="11.5697644"><ele>1544.0</ele><time>2026-04-26T14:57:28.017Z</time></trkpt><trkpt lat="46.4115034" lon="11.5696244"><ele>1538.3333333333333</ele><time>2026-04-26T14:57:29.017Z</time></trkpt><trkpt lat="46.411629" lon="11.5694798"><ele>1532.6666666666665</ele><time>2026-04-26T14:57:30.018Z</time></trkpt><trkpt lat="46.4117489" lon="11.5693437"><ele>1527.0</ele><time>2026-04-26T14:57:31.017Z</time></trkpt><trkpt lat="46.4118548" lon="11.5692127"><ele>1527.0</ele><time>2026-04-26T14:57:32.017Z</time></trkpt><trkpt lat="46.4119407" lon="11.5690728"><ele>1527.0</ele><time>2026-04-26T14:57:33.018Z</time></trkpt><trkpt lat="46.4119951" lon="11.5689152"><ele>1527.0</ele><time>2026-04-26T14:57:34.017Z</time></trkpt><trkpt lat="46.4120188" lon="11.5687495"><ele>1527.0</ele><time>2026-04-26T14:57:35.017Z</time></trkpt><trkpt lat="46.4120191" lon="11.5685775"><ele>1526.25</ele><time>2026-04-26T14:57:36.017Z</time></trkpt><trkpt lat="46.4119965" lon="11.5684051"><ele>1525.5</ele><time>2026-04-26T14:57:37.018Z</time></trkpt><trkpt lat="46.4119683" lon="11.5682273"><ele>1524.75</ele><time>2026-04-26T14:57:38.017Z</time></trkpt><trkpt lat="46.4119528" lon="11.5680473"><ele>1524.0</ele><time>2026-04-26T14:57:39.017Z</time></trkpt><trkpt lat="46.4119537" lon="11.567857"><ele>1521.75</ele><time>2026-04-26T14:57:40.018Z</time></trkpt><trkpt lat="46.4119758" lon="11.5676649"><ele>1519.5</ele><time>2026-04-26T14:57:41.017Z</time></trkpt><trkpt lat="46.4120188" lon="11.5674769"><ele>1517.25</ele><time>2026-04-26T14:57:42.017Z</time></trkpt><trkpt lat="46.412084" lon="11.5673021"><ele>1515.0</ele><time>2026-04-26T14:57:43.017Z</time></trkpt><trkpt lat="46.412153" lon="11.5671434"><ele>1513.0</ele><time>2026-04-26T14:57:44.017Z</time></trkpt><trkpt lat="46.4122128" lon="11.5670004"><ele>1511.0</ele><time>2026-04-26T14:57:45.017Z</time></trkpt><trkpt lat="46.4122466" lon="11.5668601"><ele>1509.0</ele><time>2026-04-26T14:57:46.017Z</time></trkpt><trkpt lat="46.4122395" lon="11.5667443"><ele>1507.0</ele><time>2026-04-26T14:57:47.017Z</time></trkpt><trkpt lat="46.4122005" lon="11.566654"><ele>1505.0</ele><time>2026-04-26T14:57:48.017Z</time></trkpt><trkpt lat="46.4121399" lon="11.5665893"><ele>1503.0</ele><time>2026-04-26T14:57:49.017Z</time></trkpt><trkpt lat="46.4120586" lon="11.5665614"><ele>1501.5</ele><time>2026-04-26T14:57:50.017Z</time></trkpt><trkpt lat="46.4119618" lon="11.5665728"><ele>1500.0</ele><time>2026-04-26T14:57:51.017Z</time></trkpt><trkpt lat="46.4118474" lon="11.5665891"><ele>1498.5</ele><time>2026-04-26T14:57:52.017Z</time></trkpt><trkpt lat="46.4117322" lon="11.5666142"><ele>1497.0</ele><time>2026-04-26T14:57:53.016Z</time></trkpt><trkpt lat="46.4116073" lon="11.5666347"><ele>1497.0</ele><time>2026-04-26T14:57:54.016Z</time></trkpt><trkpt lat="46.411486" lon="11.5666641"><ele>1497.0</ele><time>2026-04-26T14:57:55.016Z</time></trkpt><trkpt lat="46.4113739" lon="11.5667138"><ele>1497.0</ele><time>2026-04-26T14:57:56.017Z</time></trkpt><trkpt lat="46.4112792" lon="11.5667852"><ele>1497.0</ele><time>2026-04-26T14:57:57.016Z</time></trkpt><trkpt lat="46.411197" lon="11.5668709"><ele>1497.0</ele><time>2026-04-26T14:57:58.016Z</time></trkpt><trkpt lat="46.4111346" lon="11.5669395"><ele>1495.8333333333333</ele><time>2026-04-26T14:57:59.016Z</time></trkpt><trkpt lat="46.4110808" lon="11.5669918"><ele>1494.6666666666667</ele><time>2026-04-26T14:58:00.016Z</time></trkpt><trkpt lat="46.4110038" lon="11.5669686"><ele>1493.5</ele><time>2026-04-26T14:58:02.016Z</time></trkpt><trkpt lat="46.4110181" lon="11.5668248"><ele>1492.3333333333335</ele><time>2026-04-26T14:58:04.016Z</time></trkpt><trkpt lat="46.4110805" lon="11.5667547"><ele>1491.1666666666667</ele><time>2026-04-26T14:58:05.016Z</time></trkpt><trkpt lat="46.4111608" lon="11.5666939"><ele>1490.0</ele><time>2026-04-26T14:58:06.016Z</time></trkpt><trkpt lat="46.4112518" lon="11.5666287"><ele>1491.4</ele><time>2026-04-26T14:58:07.016Z</time></trkpt><trkpt lat="46.4113414" lon="11.5665564"><ele>1492.8</ele><time>2026-04-26T14:58:08.016Z</time></trkpt><trkpt lat="46.4114342" lon="11.5664811"><ele>1494.1999999999998</ele><time>2026-04-26T14:58:09.016Z</time></trkpt><trkpt lat="46.4115275" lon="11.5663868"><ele>1495.6</ele><time>2026-04-26T14:58:10.016Z</time></trkpt><trkpt lat="46.4116215" lon="11.5662728"><ele>1497.0</ele><time>2026-04-26T14:58:11.016Z</time></trkpt><trkpt lat="46.4117073" lon="11.5661479"><ele>1492.5</ele><time>2026-04-26T14:58:12.016Z</time></trkpt><trkpt lat="46.4117987" lon="11.5660221"><ele>1488.0</ele><time>2026-04-26T14:58:13.016Z</time></trkpt><trkpt lat="46.4118981" lon="11.5659203"><ele>1483.5</ele><time>2026-04-26T14:58:14.016Z</time></trkpt><trkpt lat="46.4120103" lon="11.5658327"><ele>1479.0</ele><time>2026-04-26T14:58:15.016Z</time></trkpt><trkpt lat="46.4121356" lon="11.5657634"><ele>1482.0</ele><time>2026-04-26T14:58:16.016Z</time></trkpt><trkpt lat="46.4122684" lon="11.5656861"><ele>1485.0</ele><time>2026-04-26T14:58:17.016Z</time></trkpt><trkpt lat="46.4124029" lon="11.5655831"><ele>1488.0</ele><time>2026-04-26T14:58:18.016Z</time></trkpt><trkpt lat="46.412542" lon="11.5654589"><ele>1482.3333333333333</ele><time>2026-04-26T14:58:19.016Z</time></trkpt><trkpt lat="46.4126695" lon="11.5653181"><ele>1476.6666666666665</ele><time>2026-04-26T14:58:20.016Z</time></trkpt><trkpt lat="46.412798" lon="11.5651693"><ele>1471.0</ele><time>2026-04-26T14:58:21.017Z</time></trkpt><trkpt lat="46.4129299" lon="11.5650263"><ele>1472.3333333333333</ele><time>2026-04-26T14:58:22.016Z</time></trkpt><trkpt lat="46.4130538" lon="11.5648793"><ele>1473.6666666666667</ele><time>2026-04-26T14:58:23.016Z</time></trkpt><trkpt lat="46.4131786" lon="11.5647319"><ele>1475.0</ele><time>2026-04-26T14:58:24.016Z</time></trkpt><trkpt lat="46.4133028" lon="11.5645875"><ele>1471.75</ele><time>2026-04-26T14:58:25.016Z</time></trkpt><trkpt lat="46.4134253" lon="11.5644436"><ele>1468.5</ele><time>2026-04-26T14:58:26.016Z</time></trkpt><trkpt lat="46.4135433" lon="11.5643129"><ele>1465.25</ele><time>2026-04-26T14:58:27.017Z</time></trkpt><trkpt lat="46.4136558" lon="11.5641867"><ele>1462.0</ele><time>2026-04-26T14:58:28.016Z</time></trkpt><trkpt lat="46.4137604" lon="11.5640723"><ele>1462.1999999999998</ele><time>2026-04-26T14:58:29.016Z</time></trkpt><trkpt lat="46.4138549" lon="11.5639849"><ele>1462.4</ele><time>2026-04-26T14:58:30.016Z</time></trkpt><trkpt lat="46.4139514" lon="11.5639242"><ele>1462.6</ele><time>2026-04-26T14:58:31.016Z</time></trkpt><trkpt lat="46.4140519" lon="11.563913"><ele>1462.8000000000002</ele><time>2026-04-26T14:58:32.016Z</time></trkpt><trkpt lat="46.4141454" lon="11.5639589"><ele>1463.0</ele><time>2026-04-26T14:58:33.016Z</time></trkpt><trkpt lat="46.4142403" lon="11.5640548"><ele>1463.0</ele><time>2026-04-26T14:58:34.016Z</time></trkpt><trkpt lat="46.4143276" lon="11.5641916"><ele>1463.0</ele><time>2026-04-26T14:58:35.016Z</time></trkpt><trkpt lat="46.4144122" lon="11.5643295"><ele>1463.0</ele><time>2026-04-26T14:58:36.016Z</time></trkpt><trkpt lat="46.4144914" lon="11.5644743"><ele>1463.0</ele><time>2026-04-26T14:58:37.016Z</time></trkpt><trkpt lat="46.4145635" lon="11.5646214"><ele>1464.0</ele><time>2026-04-26T14:58:38.017Z</time></trkpt><trkpt lat="46.4146122" lon="11.5647699"><ele>1465.0</ele><time>2026-04-26T14:58:39.016Z</time></trkpt><trkpt lat="46.4146288" lon="11.5649473"><ele>1466.0</ele><time>2026-04-26T14:58:40.016Z</time></trkpt><trkpt lat="46.414608" lon="11.5651355"><ele>1467.0</ele><time>2026-04-26T14:58:41.016Z</time></trkpt><trkpt lat="46.4145735" lon="11.5653212"><ele>1466.25</ele><time>2026-04-26T14:58:42.016Z</time></trkpt><trkpt lat="46.4145538" lon="11.5655076"><ele>1465.5</ele><time>2026-04-26T14:58:43.016Z</time></trkpt><trkpt lat="46.4145622" lon="11.5656901"><ele>1464.75</ele><time>2026-04-26T14:58:44.016Z</time></trkpt><trkpt lat="46.4145995" lon="11.5658591"><ele>1464.0</ele><time>2026-04-26T14:58:45.017Z</time></trkpt><trkpt lat="46.4146482" lon="11.5660299"><ele>1455.75</ele><time>2026-04-26T14:58:46.016Z</time></trkpt><trkpt lat="46.4146972" lon="11.5662081"><ele>1447.5</ele><time>2026-04-26T14:58:47.016Z</time></trkpt><trkpt lat="46.4147232" lon="11.5663919"><ele>1439.25</ele><time>2026-04-26T14:58:48.016Z</time></trkpt><trkpt lat="46.4147384" lon="11.5665818"><ele>1431.0</ele><time>2026-04-26T14:58:49.016Z</time></trkpt><trkpt lat="46.4147503" lon="11.5667637"><ele>1431.0</ele><time>2026-04-26T14:58:50.016Z</time></trkpt><trkpt lat="46.4147568" lon="11.5669353"><ele>1431.0</ele><time>2026-04-26T14:58:51.017Z</time></trkpt><trkpt lat="46.4147674" lon="11.5670867"><ele>1431.0</ele><time>2026-04-26T14:58:52.017Z</time></trkpt><trkpt lat="46.4147859" lon="11.5672172"><ele>1431.0</ele><time>2026-04-26T14:58:53.016Z</time></trkpt><trkpt lat="46.4148117" lon="11.5673267"><ele>1431.0</ele><time>2026-04-26T14:58:54.016Z</time></trkpt><trkpt lat="46.4148678" lon="11.5673873"><ele>1431.0</ele><time>2026-04-26T14:58:55.016Z</time></trkpt><trkpt lat="46.4149402" lon="11.5674081"><ele>1431.0</ele><time>2026-04-26T14:58:56.016Z</time></trkpt><trkpt lat="46.4150154" lon="11.5673803"><ele>1431.0</ele><time>2026-04-26T14:58:57.017Z</time></trkpt><trkpt lat="46.4150962" lon="11.5673045"><ele>1431.0</ele><time>2026-04-26T14:58:58.016Z</time></trkpt><trkpt lat="46.4151626" lon="11.567211"><ele>1431.0</ele><time>2026-04-26T14:58:59.016Z</time></trkpt><trkpt lat="46.4152169" lon="11.5670856"><ele>1431.0</ele><time>2026-04-26T14:59:00.016Z</time></trkpt><trkpt lat="46.4152798" lon="11.56697"><ele>1431.0</ele><time>2026-04-26T14:59:01.016Z</time></trkpt><trkpt lat="46.4153631" lon="11.5668739"><ele>1431.0</ele><time>2026-04-26T14:59:02.016Z</time></trkpt><trkpt lat="46.4154687" lon="11.5668042"><ele>1431.0</ele><time>2026-04-26T14:59:03.016Z</time></trkpt><trkpt lat="46.4155828" lon="11.5667447"><ele>1431.0</ele><time>2026-04-26T14:59:04.016Z</time></trkpt><trkpt lat="46.4156986" lon="11.5666931"><ele>1427.75</ele><time>2026-04-26T14:59:05.016Z</time></trkpt><trkpt lat="46.4158146" lon="11.5666432"><ele>1424.5</ele><time>2026-04-26T14:59:06.016Z</time></trkpt><trkpt lat="46.4159285" lon="11.5665822"><ele>1421.25</ele><time>2026-04-26T14:59:07.016Z</time></trkpt><trkpt lat="46.4160331" lon="11.5664994"><ele>1418.0</ele><time>2026-04-26T14:59:08.016Z</time></trkpt><trkpt lat="46.4161266" lon="11.5663946"><ele>1418.0</ele><time>2026-04-26T14:59:09.016Z</time></trkpt><trkpt lat="46.416206" lon="11.5663048"><ele>1418.0</ele><time>2026-04-26T14:59:10.016Z</time></trkpt><trkpt lat="46.4162732" lon="11.5662226"><ele>1418.0</ele><time>2026-04-26T14:59:11.016Z</time></trkpt><trkpt lat="46.4163587" lon="11.5661771"><ele>1418.0</ele><time>2026-04-26T14:59:12.016Z</time></trkpt><trkpt lat="46.4164344" lon="11.5661943"><ele>1418.0</ele><time>2026-04-26T14:59:13.016Z</time></trkpt><trkpt lat="46.4165075" lon="11.56628"><ele>1415.0</ele><time>2026-04-26T14:59:14.016Z</time></trkpt><trkpt lat="46.41655" lon="11.5664013"><ele>1412.0</ele><time>2026-04-26T14:59:15.016Z</time></trkpt><trkpt lat="46.4165486" lon="11.5665778"><ele>1409.0</ele><time>2026-04-26T14:59:16.016Z</time></trkpt><trkpt lat="46.4165249" lon="11.5667622"><ele>1406.0</ele><time>2026-04-26T14:59:17.016Z</time></trkpt><trkpt lat="46.4164874" lon="11.5669448"><ele>1404.75</ele><time>2026-04-26T14:59:18.016Z</time></trkpt><trkpt lat="46.4164446" lon="11.5671345"><ele>1403.5</ele><time>2026-04-26T14:59:19.016Z</time></trkpt><trkpt lat="46.4164009" lon="11.5673355"><ele>1402.25</ele><time>2026-04-26T14:59:20.016Z</time></trkpt><trkpt lat="46.4163519" lon="11.5675491"><ele>1401.0</ele><time>2026-04-26T14:59:21.016Z</time></trkpt><trkpt lat="46.4163028" lon="11.5677684"><ele>1411.0</ele><time>2026-04-26T14:59:22.016Z</time></trkpt><trkpt lat="46.4162528" lon="11.5679913"><ele>1421.0</ele><time>2026-04-26T14:59:23.016Z</time></trkpt><trkpt lat="46.4162057" lon="11.5682073"><ele>1431.0</ele><time>2026-04-26T14:59:24.016Z</time></trkpt><trkpt lat="46.4161627" lon="11.5684126"><ele>1431.0</ele><time>2026-04-26T14:59:25.016Z</time></trkpt><trkpt lat="46.416122" lon="11.5686013"><ele>1431.0</ele><time>2026-04-26T14:59:26.016Z</time></trkpt><trkpt lat="46.4160845" lon="11.5687701"><ele>1431.0</ele><time>2026-04-26T14:59:27.016Z</time></trkpt><trkpt lat="46.4160576" lon="11.5689307"><ele>1431.0</ele><time>2026-04-26T14:59:28.017Z</time></trkpt><trkpt lat="46.4160463" lon="11.5690794"><ele>1429.0</ele><time>2026-04-26T14:59:29.016Z</time></trkpt><trkpt lat="46.4160567" lon="11.5692167"><ele>1427.0</ele><time>2026-04-26T14:59:30.016Z</time></trkpt><trkpt lat="46.4160976" lon="11.569339"><ele>1425.0</ele><time>2026-04-26T14:59:31.016Z</time></trkpt><trkpt lat="46.4161673" lon="11.5694458"><ele>1423.0</ele><time>2026-04-26T14:59:32.016Z</time></trkpt><trkpt lat="46.4162542" lon="11.5695233"><ele>1421.0</ele><time>2026-04-26T14:59:33.016Z</time></trkpt><trkpt lat="46.4163527" lon="11.5695596"><ele>1420.0</ele><time>2026-04-26T14:59:34.016Z</time></trkpt><trkpt lat="46.4164573" lon="11.5695633"><ele>1419.0</ele><time>2026-04-26T14:59:35.016Z</time></trkpt><trkpt lat="46.4165501" lon="11.5695175"><ele>1418.0</ele><time>2026-04-26T14:59:36.016Z</time></trkpt><trkpt lat="46.4166291" lon="11.5694299"><ele>1417.0</ele><time>2026-04-26T14:59:37.016Z</time></trkpt><trkpt lat="46.416695" lon="11.5692946"><ele>1416.0</ele><time>2026-04-26T14:59:38.016Z</time></trkpt><trkpt lat="46.4167516" lon="11.5691393"><ele>1411.25</ele><time>2026-04-26T14:59:39.016Z</time></trkpt><trkpt lat="46.416806" lon="11.5689774"><ele>1406.5</ele><time>2026-04-26T14:59:40.016Z</time></trkpt><trkpt lat="46.4168643" lon="11.5688006"><ele>1401.75</ele><time>2026-04-26T14:59:41.016Z</time></trkpt><trkpt lat="46.4169309" lon="11.5686167"><ele>1397.0</ele><time>2026-04-26T14:59:42.016Z</time></trkpt><trkpt lat="46.4169991" lon="11.5684375"><ele>1396.25</ele><time>2026-04-26T14:59:43.016Z</time></trkpt><trkpt lat="46.4170784" lon="11.5682628"><ele>1395.5</ele><time>2026-04-26T14:59:44.016Z</time></trkpt><trkpt lat="46.4171595" lon="11.5680967"><ele>1394.75</ele><time>2026-04-26T14:59:45.016Z</time></trkpt><trkpt lat="46.4172378" lon="11.5679233"><ele>1394.0</ele><time>2026-04-26T14:59:46.016Z</time></trkpt><trkpt lat="46.4173079" lon="11.5677398"><ele>1394.0</ele><time>2026-04-26T14:59:47.016Z</time></trkpt><trkpt lat="46.4173701" lon="11.5675502"><ele>1394.0</ele><time>2026-04-26T14:59:48.016Z</time></trkpt><trkpt lat="46.417429" lon="11.5673573"><ele>1394.0</ele><time>2026-04-26T14:59:49.016Z</time></trkpt><trkpt lat="46.4174876" lon="11.5671687"><ele>1394.0</ele><time>2026-04-26T14:59:50.017Z</time></trkpt><trkpt lat="46.417552" lon="11.5669849"><ele>1389.0</ele><time>2026-04-26T14:59:51.016Z</time></trkpt><trkpt lat="46.4176252" lon="11.5668086"><ele>1384.0</ele><time>2026-04-26T14:59:52.016Z</time></trkpt><trkpt lat="46.4177103" lon="11.5666398"><ele>1379.0</ele><time>2026-04-26T14:59:53.016Z</time></trkpt><trkpt lat="46.4178022" lon="11.5664753"><ele>1374.0</ele><time>2026-04-26T14:59:54.016Z</time></trkpt><trkpt lat="46.4178956" lon="11.5663098"><ele>1372.25</ele><time>2026-04-26T14:59:55.017Z</time></trkpt><trkpt lat="46.4179935" lon="11.5661522"><ele>1370.5</ele><time>2026-04-26T14:59:56.016Z</time></trkpt><trkpt lat="46.4180991" lon="11.5660003"><ele>1368.75</ele><time>2026-04-26T14:59:57.016Z</time></trkpt><trkpt lat="46.4182083" lon="11.5658606"><ele>1367.0</ele><time>2026-04-26T14:59:58.016Z</time></trkpt><trkpt lat="46.418326" lon="11.5657196"><ele>1367.0</ele><time>2026-04-26T14:59:59.016Z</time></trkpt><trkpt lat="46.4184439" lon="11.5655846"><ele>1367.0</ele><time>2026-04-26T15:00:00.016Z</time></trkpt><trkpt lat="46.4185541" lon="11.5654385"><ele>1367.0</ele><time>2026-04-26T15:00:01.016Z</time></trkpt><trkpt lat="46.4186581" lon="11.5652823"><ele>1367.0</ele><time>2026-04-26T15:00:02.016Z</time></trkpt><trkpt lat="46.4187525" lon="11.5651157"><ele>1368.25</ele><time>2026-04-26T15:00:03.016Z</time></trkpt><trkpt lat="46.4188441" lon="11.564939"><ele>1369.5</ele><time>2026-04-26T15:00:04.016Z</time></trkpt><trkpt lat="46.4189385" lon="11.5647737"><ele>1370.75</ele><time>2026-04-26T15:00:05.016Z</time></trkpt><trkpt lat="46.4190392" lon="11.5646381"><ele>1372.0</ele><time>2026-04-26T15:00:06.016Z</time></trkpt><trkpt lat="46.4191452" lon="11.5645427"><ele>1367.3999999999999</ele><time>2026-04-26T15:00:07.016Z</time></trkpt><trkpt lat="46.4192501" lon="11.5644607"><ele>1362.8</ele><time>2026-04-26T15:00:08.016Z</time></trkpt><trkpt lat="46.4193433" lon="11.5643733"><ele>1358.2</ele><time>2026-04-26T15:00:09.016Z</time></trkpt><trkpt lat="46.4194157" lon="11.5642585"><ele>1353.6</ele><time>2026-04-26T15:00:10.016Z</time></trkpt><trkpt lat="46.4194692" lon="11.5641198"><ele>1349.0</ele><time>2026-04-26T15:00:11.016Z</time></trkpt><trkpt lat="46.4195074" lon="11.5639657"><ele>1349.0</ele><time>2026-04-26T15:00:12.016Z</time></trkpt><trkpt lat="46.419539" lon="11.5638116"><ele>1349.0</ele><time>2026-04-26T15:00:13.016Z</time></trkpt><trkpt lat="46.4195674" lon="11.5636541"><ele>1349.0</ele><time>2026-04-26T15:00:14.016Z</time></trkpt><trkpt lat="46.419597" lon="11.5634937"><ele>1349.0</ele><time>2026-04-26T15:00:15.016Z</time></trkpt><trkpt lat="46.4196429" lon="11.5633402"><ele>1348.5</ele><time>2026-04-26T15:00:16.016Z</time></trkpt><trkpt lat="46.4197035" lon="11.5632066"><ele>1348.0</ele><time>2026-04-26T15:00:17.016Z</time></trkpt><trkpt lat="46.4197846" lon="11.5630819"><ele>1347.5</ele><time>2026-04-26T15:00:18.016Z</time></trkpt><trkpt lat="46.4198631" lon="11.562956"><ele>1347.0</ele><time>2026-04-26T15:00:19.016Z</time></trkpt><trkpt lat="46.4199443" lon="11.5628251"><ele>1347.0</ele><time>2026-04-26T15:00:20.016Z</time></trkpt><trkpt lat="46.4200181" lon="11.5626839"><ele>1347.0</ele><time>2026-04-26T15:00:21.016Z</time></trkpt><trkpt lat="46.4200799" lon="11.5625285"><ele>1347.0</ele><time>2026-04-26T15:00:22.016Z</time></trkpt><trkpt lat="46.4201272" lon="11.5623564"><ele>1347.0</ele><time>2026-04-26T15:00:23.016Z</time></trkpt><trkpt lat="46.4201769" lon="11.5621816"><ele>1340.75</ele><time>2026-04-26T15:00:24.016Z</time></trkpt><trkpt lat="46.4202282" lon="11.5620057"><ele>1334.5</ele><time>2026-04-26T15:00:25.016Z</time></trkpt><trkpt lat="46.4202781" lon="11.5618293"><ele>1328.25</ele><time>2026-04-26T15:00:26.016Z</time></trkpt><trkpt lat="46.4203338" lon="11.5616505"><ele>1322.0</ele><time>2026-04-26T15:00:27.017Z</time></trkpt><trkpt lat="46.420408" lon="11.5614744"><ele>1322.5</ele><time>2026-04-26T15:00:28.016Z</time></trkpt><trkpt lat="46.4204942" lon="11.5613189"><ele>1323.0</ele><time>2026-04-26T15:00:29.016Z</time></trkpt><trkpt lat="46.4205877" lon="11.5611687"><ele>1323.5</ele><time>2026-04-26T15:00:30.016Z</time></trkpt><trkpt lat="46.4206746" lon="11.561018"><ele>1324.0</ele><time>2026-04-26T15:00:31.016Z</time></trkpt><trkpt lat="46.4207631" lon="11.5608736"><ele>1324.0</ele><time>2026-04-26T15:00:32.016Z</time></trkpt><trkpt lat="46.4208496" lon="11.5607441"><ele>1324.0</ele><time>2026-04-26T15:00:33.016Z</time></trkpt><trkpt lat="46.4209221" lon="11.5606225"><ele>1324.0</ele><time>2026-04-26T15:00:34.016Z</time></trkpt><trkpt lat="46.4209825" lon="11.5605114"><ele>1324.0</ele><time>2026-04-26T15:00:35.017Z</time></trkpt><trkpt lat="46.4210159" lon="11.5603997"><ele>1324.0</ele><time>2026-04-26T15:00:36.017Z</time></trkpt><trkpt lat="46.4210187" lon="11.5602732"><ele>1321.6</ele><time>2026-04-26T15:00:37.016Z</time></trkpt><trkpt lat="46.420992" lon="11.5601345"><ele>1319.2</ele><time>2026-04-26T15:00:38.016Z</time></trkpt><trkpt lat="46.4209463" lon="11.5599976"><ele>1316.8</ele><time>2026-04-26T15:00:39.016Z</time></trkpt><trkpt lat="46.4208923" lon="11.5598562"><ele>1314.3999999999999</ele><time>2026-04-26T15:00:40.016Z</time></trkpt><trkpt lat="46.4208341" lon="11.5597018"><ele>1312.0</ele><time>2026-04-26T15:00:41.016Z</time></trkpt><trkpt lat="46.4207719" lon="11.559533"><ele>1308.5</ele><time>2026-04-26T15:00:42.016Z</time></trkpt><trkpt lat="46.4207125" lon="11.559376"><ele>1305.0</ele><time>2026-04-26T15:00:43.016Z</time></trkpt><trkpt lat="46.4206501" lon="11.559217"><ele>1301.5</ele><time>2026-04-26T15:00:44.016Z</time></trkpt><trkpt lat="46.420585" lon="11.5590592"><ele>1298.0</ele><time>2026-04-26T15:00:45.016Z</time></trkpt><trkpt lat="46.4205298" lon="11.5589032"><ele>1296.2</ele><time>2026-04-26T15:00:46.016Z</time></trkpt><trkpt lat="46.4204745" lon="11.5587477"><ele>1294.4</ele><time>2026-04-26T15:00:47.016Z</time></trkpt><trkpt lat="46.4204244" lon="11.5586009"><ele>1292.6000000000001</ele><time>2026-04-26T15:00:48.016Z</time></trkpt><trkpt lat="46.4203846" lon="11.558468"><ele>1290.8000000000002</ele><time>2026-04-26T15:00:49.016Z</time></trkpt><trkpt lat="46.4203538" lon="11.5583405"><ele>1289.0</ele><time>2026-04-26T15:00:50.016Z</time></trkpt><trkpt lat="46.4203447" lon="11.5582123"><ele>1289.5</ele><time>2026-04-26T15:00:51.016Z</time></trkpt><trkpt lat="46.4203689" lon="11.5580929"><ele>1290.0</ele><time>2026-04-26T15:00:52.016Z</time></trkpt><trkpt lat="46.4204221" lon="11.5580097"><ele>1290.5</ele><time>2026-04-26T15:00:53.016Z</time></trkpt><trkpt lat="46.4204993" lon="11.5579674"><ele>1291.0</ele><time>2026-04-26T15:00:54.016Z</time></trkpt><trkpt lat="46.4205779" lon="11.5579477"><ele>1291.5</ele><time>2026-04-26T15:00:55.016Z</time></trkpt><trkpt lat="46.4206591" lon="11.5579836"><ele>1292.0</ele><time>2026-04-26T15:00:56.016Z</time></trkpt><trkpt lat="46.4207503" lon="11.5580578"><ele>1292.0</ele><time>2026-04-26T15:00:57.016Z</time></trkpt><trkpt lat="46.4208403" lon="11.5581507"><ele>1292.0</ele><time>2026-04-26T15:00:58.017Z</time></trkpt><trkpt lat="46.4209173" lon="11.5582536"><ele>1292.0</ele><time>2026-04-26T15:00:59.016Z</time></trkpt><trkpt lat="46.4209889" lon="11.5583618"><ele>1292.0</ele><time>2026-04-26T15:01:00.016Z</time></trkpt><trkpt lat="46.4210679" lon="11.5584698"><ele>1292.0</ele><time>2026-04-26T15:01:01.016Z</time></trkpt><trkpt lat="46.4211528" lon="11.5585586"><ele>1292.0</ele><time>2026-04-26T15:01:02.016Z</time></trkpt><trkpt lat="46.421245" lon="11.5586078"><ele>1292.0</ele><time>2026-04-26T15:01:03.016Z</time></trkpt><trkpt lat="46.4213393" lon="11.5586062"><ele>1292.0</ele><time>2026-04-26T15:01:04.016Z</time></trkpt><trkpt lat="46.4214329" lon="11.5585679"><ele>1292.0</ele><time>2026-04-26T15:01:05.016Z</time></trkpt><trkpt lat="46.4215243" lon="11.5584856"><ele>1292.0</ele><time>2026-04-26T15:01:06.016Z</time></trkpt><trkpt lat="46.4215953" lon="11.558369"><ele>1290.75</ele><time>2026-04-26T15:01:07.016Z</time></trkpt><trkpt lat="46.421654" lon="11.558225"><ele>1289.5</ele><time>2026-04-26T15:01:08.016Z</time></trkpt><trkpt lat="46.4216997" lon="11.5580586"><ele>1288.25</ele><time>2026-04-26T15:01:09.016Z</time></trkpt><trkpt lat="46.4217442" lon="11.5578774"><ele>1287.0</ele><time>2026-04-26T15:01:10.016Z</time></trkpt><trkpt lat="46.4217825" lon="11.5576967"><ele>1284.75</ele><time>2026-04-26T15:01:11.016Z</time></trkpt><trkpt lat="46.4218201" lon="11.5575203"><ele>1282.5</ele><time>2026-04-26T15:01:12.016Z</time></trkpt><trkpt lat="46.421863" lon="11.5573423"><ele>1280.25</ele><time>2026-04-26T15:01:13.016Z</time></trkpt><trkpt lat="46.4219043" lon="11.5571774"><ele>1278.0</ele><time>2026-04-26T15:01:14.016Z</time></trkpt><trkpt lat="46.4219407" lon="11.5570105"><ele>1275.25</ele><time>2026-04-26T15:01:15.016Z</time></trkpt><trkpt lat="46.4219789" lon="11.5568392"><ele>1272.5</ele><time>2026-04-26T15:01:16.017Z</time></trkpt><trkpt lat="46.4220186" lon="11.5566782"><ele>1269.75</ele><time>2026-04-26T15:01:17.016Z</time></trkpt><trkpt lat="46.422062" lon="11.556521"><ele>1267.0</ele><time>2026-04-26T15:01:18.016Z</time></trkpt><trkpt lat="46.422118" lon="11.5563656"><ele>1266.75</ele><time>2026-04-26T15:01:19.016Z</time></trkpt><trkpt lat="46.4221892" lon="11.5562258"><ele>1266.5</ele><time>2026-04-26T15:01:20.016Z</time></trkpt><trkpt lat="46.4222724" lon="11.5561052"><ele>1266.25</ele><time>2026-04-26T15:01:21.017Z</time></trkpt><trkpt lat="46.42237" lon="11.5560033"><ele>1266.0</ele><time>2026-04-26T15:01:22.016Z</time></trkpt><trkpt lat="46.4224754" lon="11.5559117"><ele>1266.0</ele><time>2026-04-26T15:01:23.016Z</time></trkpt><trkpt lat="46.4225842" lon="11.5558233"><ele>1266.0</ele><time>2026-04-26T15:01:24.016Z</time></trkpt><trkpt lat="46.4226931" lon="11.5557381"><ele>1266.0</ele><time>2026-04-26T15:01:25.017Z</time></trkpt><trkpt lat="46.422798" lon="11.5556496"><ele>1266.0</ele><time>2026-04-26T15:01:26.016Z</time></trkpt><trkpt lat="46.4229051" lon="11.5555618"><ele>1266.25</ele><time>2026-04-26T15:01:27.016Z</time></trkpt><trkpt lat="46.4230116" lon="11.555477"><ele>1266.5</ele><time>2026-04-26T15:01:28.016Z</time></trkpt><trkpt lat="46.4231138" lon="11.5553904"><ele>1266.75</ele><time>2026-04-26T15:01:29.016Z</time></trkpt><trkpt lat="46.4232203" lon="11.5553029"><ele>1267.0</ele><time>2026-04-26T15:01:30.016Z</time></trkpt><trkpt lat="46.4233265" lon="11.5552076"><ele>1263.75</ele><time>2026-04-26T15:01:31.016Z</time></trkpt><trkpt lat="46.4234305" lon="11.5551189"><ele>1260.5</ele><time>2026-04-26T15:01:32.016Z</time></trkpt><trkpt lat="46.4235337" lon="11.5550339"><ele>1257.25</ele><time>2026-04-26T15:01:33.016Z</time></trkpt><trkpt lat="46.423636" lon="11.5549481"><ele>1254.0</ele><time>2026-04-26T15:01:34.016Z</time></trkpt><trkpt lat="46.4237261" lon="11.5548486"><ele>1254.0</ele><time>2026-04-26T15:01:35.016Z</time></trkpt><trkpt lat="46.4237994" lon="11.55473"><ele>1254.0</ele><time>2026-04-26T15:01:36.016Z</time></trkpt><trkpt lat="46.423858" lon="11.5545973"><ele>1254.0</ele><time>2026-04-26T15:01:37.016Z</time></trkpt><trkpt lat="46.4239071" lon="11.5544574"><ele>1254.0</ele><time>2026-04-26T15:01:38.016Z</time></trkpt><trkpt lat="46.4239544" lon="11.5543241"><ele>1254.0</ele><time>2026-04-26T15:01:39.016Z</time></trkpt><trkpt lat="46.4240005" lon="11.5541895"><ele>1254.0</ele><time>2026-04-26T15:01:40.016Z</time></trkpt><trkpt lat="46.4240378" lon="11.5540773"><ele>1254.0</ele><time>2026-04-26T15:01:41.016Z</time></trkpt><trkpt lat="46.4240745" lon="11.5539782"><ele>1254.0</ele><time>2026-04-26T15:01:42.016Z</time></trkpt><trkpt lat="46.424111" lon="11.5538752"><ele>1254.0</ele><time>2026-04-26T15:01:43.016Z</time></trkpt><trkpt lat="46.4241506" lon="11.5537705"><ele>1254.0</ele><time>2026-04-26T15:01:44.016Z</time></trkpt><trkpt lat="46.4241879" lon="11.5536634"><ele>1254.0</ele><time>2026-04-26T15:01:45.016Z</time></trkpt><trkpt lat="46.4242291" lon="11.553551"><ele>1251.4</ele><time>2026-04-26T15:01:46.016Z</time></trkpt><trkpt lat="46.4242701" lon="11.5534336"><ele>1248.8000000000002</ele><time>2026-04-26T15:01:47.016Z</time></trkpt><trkpt lat="46.4243173" lon="11.5533179"><ele>1246.1999999999998</ele><time>2026-04-26T15:01:48.016Z</time></trkpt><trkpt lat="46.4243607" lon="11.5532023"><ele>1243.6</ele><time>2026-04-26T15:01:49.016Z</time></trkpt><trkpt lat="46.4244084" lon="11.5530838"><ele>1241.0</ele><time>2026-04-26T15:01:50.016Z</time></trkpt><trkpt lat="46.4244583" lon="11.5529551"><ele>1241.6</ele><time>2026-04-26T15:01:51.017Z</time></trkpt><trkpt lat="46.4245095" lon="11.5528253"><ele>1242.1999999999998</ele><time>2026-04-26T15:01:52.016Z</time></trkpt><trkpt lat="46.4245592" lon="11.5526963"><ele>1242.8000000000002</ele><time>2026-04-26T15:01:53.016Z</time></trkpt><trkpt lat="46.4246109" lon="11.5525663"><ele>1243.4</ele><time>2026-04-26T15:01:54.016Z</time></trkpt><trkpt lat="46.4246723" lon="11.5524381"><ele>1244.0</ele><time>2026-04-26T15:01:55.016Z</time></trkpt><trkpt lat="46.4247389" lon="11.5523156"><ele>1244.0</ele><time>2026-04-26T15:01:56.016Z</time></trkpt><trkpt lat="46.4248129" lon="11.5522018"><ele>1244.0</ele><time>2026-04-26T15:01:57.016Z</time></trkpt><trkpt lat="46.4248906" lon="11.5520918"><ele>1244.0</ele><time>2026-04-26T15:01:58.016Z</time></trkpt><trkpt lat="46.4249692" lon="11.5519761"><ele>1244.0</ele><time>2026-04-26T15:01:59.016Z</time></trkpt><trkpt lat="46.4250413" lon="11.5518565"><ele>1244.0</ele><time>2026-04-26T15:02:00.016Z</time></trkpt><trkpt lat="46.4251049" lon="11.5517239"><ele>1239.75</ele><time>2026-04-26T15:02:01.016Z</time></trkpt><trkpt lat="46.4251608" lon="11.5515793"><ele>1235.5</ele><time>2026-04-26T15:02:02.016Z</time></trkpt><trkpt lat="46.4252142" lon="11.5514316"><ele>1231.25</ele><time>2026-04-26T15:02:03.016Z</time></trkpt><trkpt lat="46.4252618" lon="11.55128"><ele>1227.0</ele><time>2026-04-26T15:02:04.016Z</time></trkpt><trkpt lat="46.4253115" lon="11.5511255"><ele>1229.25</ele><time>2026-04-26T15:02:05.016Z</time></trkpt><trkpt lat="46.4253622" lon="11.5509739"><ele>1231.5</ele><time>2026-04-26T15:02:06.016Z</time></trkpt><trkpt lat="46.4254133" lon="11.5508234"><ele>1233.75</ele><time>2026-04-26T15:02:07.016Z</time></trkpt><trkpt lat="46.4254666" lon="11.5506717"><ele>1236.0</ele><time>2026-04-26T15:02:08.016Z</time></trkpt><trkpt lat="46.4255212" lon="11.550519"><ele>1236.0</ele><time>2026-04-26T15:02:09.016Z</time></trkpt><trkpt lat="46.4255836" lon="11.5503868"><ele>1236.0</ele><time>2026-04-26T15:02:10.016Z</time></trkpt><trkpt lat="46.4256443" lon="11.5502713"><ele>1236.0</ele><time>2026-04-26T15:02:11.016Z</time></trkpt><trkpt lat="46.425706" lon="11.5501798"><ele>1236.0</ele><time>2026-04-26T15:02:12.016Z</time></trkpt><trkpt lat="46.4257547" lon="11.5500984"><ele>1236.0</ele><time>2026-04-26T15:02:13.016Z</time></trkpt><trkpt lat="46.4258046" lon="11.5500165"><ele>1236.0</ele><time>2026-04-26T15:02:14.016Z</time></trkpt><trkpt lat="46.4258564" lon="11.549938"><ele>1232.8333333333333</ele><time>2026-04-26T15:02:15.016Z</time></trkpt><trkpt lat="46.4259054" lon="11.549854"><ele>1229.6666666666667</ele><time>2026-04-26T15:02:16.016Z</time></trkpt><trkpt lat="46.4259564" lon="11.5497625"><ele>1226.5</ele><time>2026-04-26T15:02:17.016Z</time></trkpt><trkpt lat="46.4260089" lon="11.5496665"><ele>1223.3333333333335</ele><time>2026-04-26T15:02:18.016Z</time></trkpt><trkpt lat="46.4260696" lon="11.5495629"><ele>1220.1666666666667</ele><time>2026-04-26T15:02:19.016Z</time></trkpt><trkpt lat="46.4261325" lon="11.5494585"><ele>1217.0</ele><time>2026-04-26T15:02:20.016Z</time></trkpt><trkpt lat="46.4261918" lon="11.549358"><ele>1218.2</ele><time>2026-04-26T15:02:21.017Z</time></trkpt><trkpt lat="46.4262516" lon="11.5492512"><ele>1219.4</ele><time>2026-04-26T15:02:22.016Z</time></trkpt><trkpt lat="46.426313" lon="11.549136"><ele>1220.6</ele><time>2026-04-26T15:02:23.016Z</time></trkpt><trkpt lat="46.4263652" lon="11.5490165"><ele>1221.8</ele><time>2026-04-26T15:02:24.016Z</time></trkpt><trkpt lat="46.4264126" lon="11.5488853"><ele>1223.0</ele><time>2026-04-26T15:02:25.016Z</time></trkpt><trkpt lat="46.4264507" lon="11.5487569"><ele>1221.2</ele><time>2026-04-26T15:02:26.016Z</time></trkpt><trkpt lat="46.426493" lon="11.5486329"><ele>1219.4</ele><time>2026-04-26T15:02:27.016Z</time></trkpt><trkpt lat="46.4265446" lon="11.5485163"><ele>1217.6000000000001</ele><time>2026-04-26T15:02:28.016Z</time></trkpt><trkpt lat="46.4266036" lon="11.548412"><ele>1215.8</ele><time>2026-04-26T15:02:29.016Z</time></trkpt><trkpt lat="46.426665" lon="11.5483103"><ele>1214.0</ele><time>2026-04-26T15:02:30.016Z</time></trkpt><trkpt lat="46.4267304" lon="11.5482129"><ele>1214.0</ele><time>2026-04-26T15:02:31.016Z</time></trkpt><trkpt lat="46.4267958" lon="11.5481092"><ele>1214.0</ele><time>2026-04-26T15:02:32.016Z</time></trkpt><trkpt lat="46.4268603" lon="11.5480069"><ele>1214.0</ele><time>2026-04-26T15:02:33.016Z</time></trkpt><trkpt lat="46.4269297" lon="11.5478953"><ele>1214.0</ele><time>2026-04-26T15:02:34.016Z</time></trkpt><trkpt lat="46.4269991" lon="11.5477827"><ele>1214.0</ele><time>2026-04-26T15:02:35.016Z</time></trkpt><trkpt lat="46.4270695" lon="11.5476612"><ele>1213.2</ele><time>2026-04-26T15:02:36.016Z</time></trkpt><trkpt lat="46.4271391" lon="11.5475374"><ele>1212.4</ele><time>2026-04-26T15:02:37.016Z</time></trkpt><trkpt lat="46.4272085" lon="11.5474146"><ele>1211.6</ele><time>2026-04-26T15:02:38.016Z</time></trkpt><trkpt lat="46.4272791" lon="11.547296"><ele>1210.8</ele><time>2026-04-26T15:02:39.016Z</time></trkpt><trkpt lat="46.4273491" lon="11.5471771"><ele>1210.0</ele><time>2026-04-26T15:02:40.016Z</time></trkpt><trkpt lat="46.4274196" lon="11.5470526"><ele>1208.2</ele><time>2026-04-26T15:02:41.016Z</time></trkpt><trkpt lat="46.427486" lon="11.5469255"><ele>1206.4</ele><time>2026-04-26T15:02:42.017Z</time></trkpt><trkpt lat="46.4275453" lon="11.5467925"><ele>1204.6</ele><time>2026-04-26T15:02:43.016Z</time></trkpt><trkpt lat="46.4275944" lon="11.5466587"><ele>1202.8</ele><time>2026-04-26T15:02:44.016Z</time></trkpt><trkpt lat="46.4276385" lon="11.5465168"><ele>1201.0</ele><time>2026-04-26T15:02:45.016Z</time></trkpt><trkpt lat="46.427679" lon="11.5463707"><ele>1201.0</ele><time>2026-04-26T15:02:46.016Z</time></trkpt><trkpt lat="46.4277301" lon="11.5462251"><ele>1201.0</ele><time>2026-04-26T15:02:47.016Z</time></trkpt><trkpt lat="46.4277922" lon="11.5460808"><ele>1201.0</ele><time>2026-04-26T15:02:48.016Z</time></trkpt><trkpt lat="46.4278637" lon="11.5459441"><ele>1201.0</ele><time>2026-04-26T15:02:49.016Z</time></trkpt><trkpt lat="46.4279366" lon="11.5458078"><ele>1202.75</ele><time>2026-04-26T15:02:50.016Z</time></trkpt><trkpt lat="46.4280148" lon="11.5456741"><ele>1204.5</ele><time>2026-04-26T15:02:51.016Z</time></trkpt><trkpt lat="46.4280908" lon="11.5455315"><ele>1206.25</ele><time>2026-04-26T15:02:52.016Z</time></trkpt><trkpt lat="46.4281657" lon="11.5453918"><ele>1208.0</ele><time>2026-04-26T15:02:53.016Z</time></trkpt><trkpt lat="46.4282405" lon="11.5452478"><ele>1204.0</ele><time>2026-04-26T15:02:54.016Z</time></trkpt><trkpt lat="46.4283128" lon="11.5451043"><ele>1200.0</ele><time>2026-04-26T15:02:55.016Z</time></trkpt><trkpt lat="46.4283793" lon="11.5449619"><ele>1196.0</ele><time>2026-04-26T15:02:56.016Z</time></trkpt><trkpt lat="46.4284443" lon="11.5448086"><ele>1192.0</ele><time>2026-04-26T15:02:57.016Z</time></trkpt><trkpt lat="46.4285017" lon="11.5446606"><ele>1188.5</ele><time>2026-04-26T15:02:58.016Z</time></trkpt><trkpt lat="46.4285614" lon="11.5445159"><ele>1185.0</ele><time>2026-04-26T15:02:59.016Z</time></trkpt><trkpt lat="46.4286254" lon="11.5443808"><ele>1181.5</ele><time>2026-04-26T15:03:00.016Z</time></trkpt><trkpt lat="46.4286903" lon="11.5442472"><ele>1178.0</ele><time>2026-04-26T15:03:01.016Z</time></trkpt><trkpt lat="46.4287577" lon="11.5441233"><ele>1179.4</ele><time>2026-04-26T15:03:02.016Z</time></trkpt><trkpt lat="46.4288192" lon="11.5439907"><ele>1180.8</ele><time>2026-04-26T15:03:03.016Z</time></trkpt><trkpt lat="46.4288779" lon="11.5438623"><ele>1182.2</ele><time>2026-04-26T15:03:04.016Z</time></trkpt><trkpt lat="46.4289409" lon="11.5437377"><ele>1183.6</ele><time>2026-04-26T15:03:05.016Z</time></trkpt><trkpt lat="46.4290029" lon="11.5436202"><ele>1185.0</ele><time>2026-04-26T15:03:06.016Z</time></trkpt><trkpt lat="46.4290616" lon="11.5435051"><ele>1185.0</ele><time>2026-04-26T15:03:07.016Z</time></trkpt><trkpt lat="46.4291159" lon="11.5433995"><ele>1185.0</ele><time>2026-04-26T15:03:08.016Z</time></trkpt><trkpt lat="46.429166" lon="11.5433003"><ele>1185.0</ele><time>2026-04-26T15:03:09.016Z</time></trkpt><trkpt lat="46.4292145" lon="11.5432001"><ele>1185.0</ele><time>2026-04-26T15:03:10.016Z</time></trkpt><trkpt lat="46.4292576" lon="11.5431014"><ele>1185.0</ele><time>2026-04-26T15:03:11.016Z</time></trkpt><trkpt lat="46.4292986" lon="11.5430148"><ele>1185.0</ele><time>2026-04-26T15:03:12.016Z</time></trkpt><trkpt lat="46.4293375" lon="11.542929"><ele>1183.0</ele><time>2026-04-26T15:03:13.017Z</time></trkpt><trkpt lat="46.4293822" lon="11.5428422"><ele>1181.0</ele><time>2026-04-26T15:03:14.016Z</time></trkpt><trkpt lat="46.4294307" lon="11.5427545"><ele>1179.0</ele><time>2026-04-26T15:03:15.016Z</time></trkpt><trkpt lat="46.4294965" lon="11.5426885"><ele>1177.0</ele><time>2026-04-26T15:03:16.016Z</time></trkpt><trkpt lat="46.4295674" lon="11.5426364"><ele>1175.0</ele><time>2026-04-26T15:03:17.016Z</time></trkpt><trkpt lat="46.4296407" lon="11.5426257"><ele>1173.0</ele><time>2026-04-26T15:03:18.016Z</time></trkpt><trkpt lat="46.4297281" lon="11.5426478"><ele>1171.6</ele><time>2026-04-26T15:03:19.017Z</time></trkpt><trkpt lat="46.4298162" lon="11.5427093"><ele>1170.1999999999998</ele><time>2026-04-26T15:03:20.016Z</time></trkpt><trkpt lat="46.4298974" lon="11.5427955"><ele>1168.8</ele><time>2026-04-26T15:03:21.016Z</time></trkpt><trkpt lat="46.4299783" lon="11.5428845"><ele>1167.3999999999999</ele><time>2026-04-26T15:03:22.016Z</time></trkpt><trkpt lat="46.4300632" lon="11.542989"><ele>1166.0</ele><time>2026-04-26T15:03:23.016Z</time></trkpt><trkpt lat="46.4301502" lon="11.5431033"><ele>1165.5</ele><time>2026-04-26T15:03:24.016Z</time></trkpt><trkpt lat="46.4302438" lon="11.5432144"><ele>1165.0</ele><time>2026-04-26T15:03:25.016Z</time></trkpt><trkpt lat="46.4303362" lon="11.5433312"><ele>1164.5</ele><time>2026-04-26T15:03:26.016Z</time></trkpt><trkpt lat="46.4304272" lon="11.543444"><ele>1164.0</ele><time>2026-04-26T15:03:27.016Z</time></trkpt><trkpt lat="46.430517" lon="11.5435501"><ele>1164.0</ele><time>2026-04-26T15:03:28.017Z</time></trkpt><trkpt lat="46.4306035" lon="11.5436492"><ele>1164.0</ele><time>2026-04-26T15:03:29.017Z</time></trkpt><trkpt lat="46.4306845" lon="11.5437325"><ele>1164.0</ele><time>2026-04-26T15:03:30.016Z</time></trkpt><trkpt lat="46.4307655" lon="11.5437796"><ele>1164.0</ele><time>2026-04-26T15:03:31.016Z</time></trkpt><trkpt lat="46.4308443" lon="11.5437663"><ele>1164.0</ele><time>2026-04-26T15:03:32.016Z</time></trkpt><trkpt lat="46.4309214" lon="11.5437215"><ele>1164.0</ele><time>2026-04-26T15:03:33.016Z</time></trkpt><trkpt lat="46.430987" lon="11.5436379"><ele>1164.0</ele><time>2026-04-26T15:03:34.016Z</time></trkpt><trkpt lat="46.4310358" lon="11.5435159"><ele>1164.0</ele><time>2026-04-26T15:03:35.016Z</time></trkpt><trkpt lat="46.4310717" lon="11.5433927"><ele>1164.0</ele><time>2026-04-26T15:03:36.016Z</time></trkpt><trkpt lat="46.4310876" lon="11.5432509"><ele>1164.0</ele><time>2026-04-26T15:03:37.016Z</time></trkpt><trkpt lat="46.4310904" lon="11.5431094"><ele>1164.0</ele><time>2026-04-26T15:03:38.016Z</time></trkpt><trkpt lat="46.4310844" lon="11.5429582"><ele>1164.0</ele><time>2026-04-26T15:03:39.016Z</time></trkpt><trkpt lat="46.4310784" lon="11.5428151"><ele>1164.0</ele><time>2026-04-26T15:03:40.016Z</time></trkpt><trkpt lat="46.4310631" lon="11.5426887"><ele>1164.0</ele><time>2026-04-26T15:03:41.016Z</time></trkpt><trkpt lat="46.4310325" lon="11.5425686"><ele>1164.0</ele><time>2026-04-26T15:03:42.016Z</time></trkpt><trkpt lat="46.4309956" lon="11.5424537"><ele>1163.8333333333333</ele><time>2026-04-26T15:03:43.017Z</time></trkpt><trkpt lat="46.4309542" lon="11.5423472"><ele>1163.6666666666667</ele><time>2026-04-26T15:03:44.016Z</time></trkpt><trkpt lat="46.4309109" lon="11.5422344"><ele>1163.5</ele><time>2026-04-26T15:03:45.016Z</time></trkpt><trkpt lat="46.4308644" lon="11.5421252"><ele>1163.3333333333335</ele><time>2026-04-26T15:03:46.016Z</time></trkpt><trkpt lat="46.4308057" lon="11.542025"><ele>1163.1666666666667</ele><time>2026-04-26T15:03:47.016Z</time></trkpt><trkpt lat="46.4307304" lon="11.5419485"><ele>1163.0</ele><time>2026-04-26T15:03:48.016Z</time></trkpt><trkpt lat="46.4306403" lon="11.5418832"><ele>1163.0</ele><time>2026-04-26T15:03:49.016Z</time></trkpt><trkpt lat="46.4305513" lon="11.541837"><ele>1163.0</ele><time>2026-04-26T15:03:50.016Z</time></trkpt><trkpt lat="46.4304548" lon="11.5417885"><ele>1163.0</ele><time>2026-04-26T15:03:51.016Z</time></trkpt><trkpt lat="46.4303551" lon="11.5417361"><ele>1163.0</ele><time>2026-04-26T15:03:52.016Z</time></trkpt><trkpt lat="46.4302533" lon="11.541687"><ele>1163.0</ele><time>2026-04-26T15:03:53.017Z</time></trkpt><trkpt lat="46.4301533" lon="11.5416339"><ele>1161.25</ele><time>2026-04-26T15:03:54.016Z</time></trkpt><trkpt lat="46.4300445" lon="11.5415797"><ele>1159.5</ele><time>2026-04-26T15:03:55.016Z</time></trkpt><trkpt lat="46.4299376" lon="11.5415224"><ele>1157.75</ele><time>2026-04-26T15:03:56.016Z</time></trkpt><trkpt lat="46.429829" lon="11.5414641"><ele>1156.0</ele><time>2026-04-26T15:03:57.017Z</time></trkpt><trkpt lat="46.4297201" lon="11.5414073"><ele>1155.0</ele><time>2026-04-26T15:03:58.016Z</time></trkpt><trkpt lat="46.4296104" lon="11.5413367"><ele>1154.0</ele><time>2026-04-26T15:03:59.016Z</time></trkpt><trkpt lat="46.4295126" lon="11.5412564"><ele>1153.0</ele><time>2026-04-26T15:04:00.016Z</time></trkpt><trkpt lat="46.4294314" lon="11.5411392"><ele>1152.0</ele><time>2026-04-26T15:04:01.016Z</time></trkpt><trkpt lat="46.4293734" lon="11.5409837"><ele>1149.25</ele><time>2026-04-26T15:04:02.016Z</time></trkpt><trkpt lat="46.42932" lon="11.5408154"><ele>1146.5</ele><time>2026-04-26T15:04:03.017Z</time></trkpt><trkpt lat="46.4292634" lon="11.5406646"><ele>1143.75</ele><time>2026-04-26T15:04:04.016Z</time></trkpt><trkpt lat="46.4292052" lon="11.5405027"><ele>1141.0</ele><time>2026-04-26T15:04:05.016Z</time></trkpt><trkpt lat="46.4291336" lon="11.5403602"><ele>1141.0</ele><time>2026-04-26T15:04:06.016Z</time></trkpt><trkpt lat="46.4290496" lon="11.5402219"><ele>1141.0</ele><time>2026-04-26T15:04:07.016Z</time></trkpt><trkpt lat="46.4289552" lon="11.5400987"><ele>1141.0</ele><time>2026-04-26T15:04:08.016Z</time></trkpt><trkpt lat="46.4288533" lon="11.5399742"><ele>1141.0</ele><time>2026-04-26T15:04:09.016Z</time></trkpt><trkpt lat="46.4287457" lon="11.539849"><ele>1138.0</ele><time>2026-04-26T15:04:10.016Z</time></trkpt><trkpt lat="46.4286384" lon="11.5397243"><ele>1135.0</ele><time>2026-04-26T15:04:11.016Z</time></trkpt><trkpt lat="46.4285292" lon="11.5395927"><ele>1132.0</ele><time>2026-04-26T15:04:12.016Z</time></trkpt><trkpt lat="46.4284219" lon="11.5394623"><ele>1129.0</ele><time>2026-04-26T15:04:13.016Z</time></trkpt><trkpt lat="46.4283131" lon="11.5393282"><ele>1127.0</ele><time>2026-04-26T15:04:14.016Z</time></trkpt><trkpt lat="46.4282086" lon="11.5392006"><ele>1125.0</ele><time>2026-04-26T15:04:15.017Z</time></trkpt><trkpt lat="46.4281005" lon="11.5390776"><ele>1123.0</ele><time>2026-04-26T15:04:16.016Z</time></trkpt><trkpt lat="46.4279942" lon="11.5389552"><ele>1121.0</ele><time>2026-04-26T15:04:17.016Z</time></trkpt><trkpt lat="46.4278904" lon="11.5388418"><ele>1119.5</ele><time>2026-04-26T15:04:18.016Z</time></trkpt><trkpt lat="46.4277911" lon="11.5387294"><ele>1118.0</ele><time>2026-04-26T15:04:19.016Z</time></trkpt><trkpt lat="46.4276957" lon="11.5386187"><ele>1116.5</ele><time>2026-04-26T15:04:20.016Z</time></trkpt><trkpt lat="46.4276078" lon="11.5385181"><ele>1115.0</ele><time>2026-04-26T15:04:21.017Z</time></trkpt><trkpt lat="46.4275276" lon="11.5384131"><ele>1115.0</ele><time>2026-04-26T15:04:22.016Z</time></trkpt><trkpt lat="46.4274613" lon="11.5383023"><ele>1115.0</ele><time>2026-04-26T15:04:23.016Z</time></trkpt><trkpt lat="46.4274118" lon="11.538178"><ele>1115.0</ele><time>2026-04-26T15:04:24.016Z</time></trkpt><trkpt lat="46.427389" lon="11.5380345"><ele>1115.0</ele><time>2026-04-26T15:04:25.016Z</time></trkpt><trkpt lat="46.4273852" lon="11.5378741"><ele>1115.0</ele><time>2026-04-26T15:04:26.016Z</time></trkpt><trkpt lat="46.4274062" lon="11.5377098"><ele>1115.25</ele><time>2026-04-26T15:04:27.017Z</time></trkpt><trkpt lat="46.4274306" lon="11.5375524"><ele>1115.5</ele><time>2026-04-26T15:04:28.016Z</time></trkpt><trkpt lat="46.4274636" lon="11.5373902"><ele>1115.75</ele><time>2026-04-26T15:04:29.016Z</time></trkpt><trkpt lat="46.4274941" lon="11.5372197"><ele>1116.0</ele><time>2026-04-26T15:04:30.016Z</time></trkpt><trkpt lat="46.4275247" lon="11.5370618"><ele>1114.0</ele><time>2026-04-26T15:04:31.016Z</time></trkpt><trkpt lat="46.4275489" lon="11.5369021"><ele>1112.0</ele><time>2026-04-26T15:04:32.016Z</time></trkpt><trkpt lat="46.4275804" lon="11.5367426"><ele>1110.0</ele><time>2026-04-26T15:04:33.016Z</time></trkpt><trkpt lat="46.4276109" lon="11.5365835"><ele>1108.0</ele><time>2026-04-26T15:04:34.016Z</time></trkpt><trkpt lat="46.4276394" lon="11.5364192"><ele>1108.0</ele><time>2026-04-26T15:04:35.016Z</time></trkpt><trkpt lat="46.427666" lon="11.5362503"><ele>1108.0</ele><time>2026-04-26T15:04:36.016Z</time></trkpt><trkpt lat="46.4276884" lon="11.5360779"><ele>1108.0</ele><time>2026-04-26T15:04:37.016Z</time></trkpt><trkpt lat="46.427701" lon="11.5359014"><ele>1108.0</ele><time>2026-04-26T15:04:38.016Z</time></trkpt><trkpt lat="46.4277008" lon="11.5357255"><ele>1107.25</ele><time>2026-04-26T15:04:39.016Z</time></trkpt><trkpt lat="46.4276915" lon="11.5355438"><ele>1106.5</ele><time>2026-04-26T15:04:40.016Z</time></trkpt><trkpt lat="46.427676" lon="11.5353642"><ele>1105.75</ele><time>2026-04-26T15:04:41.016Z</time></trkpt><trkpt lat="46.4276604" lon="11.5351905"><ele>1105.0</ele><time>2026-04-26T15:04:42.016Z</time></trkpt><trkpt lat="46.4276433" lon="11.5350205"><ele>1105.0</ele><time>2026-04-26T15:04:43.016Z</time></trkpt><trkpt lat="46.4276272" lon="11.5348518"><ele>1105.0</ele><time>2026-04-26T15:04:44.016Z</time></trkpt><trkpt lat="46.4276085" lon="11.5346817"><ele>1105.0</ele><time>2026-04-26T15:04:45.016Z</time></trkpt><trkpt lat="46.427593" lon="11.5345086"><ele>1105.0</ele><time>2026-04-26T15:04:46.016Z</time></trkpt><trkpt lat="46.4275866" lon="11.5343365"><ele>1103.75</ele><time>2026-04-26T15:04:47.016Z</time></trkpt><trkpt lat="46.4275964" lon="11.5341655"><ele>1102.5</ele><time>2026-04-26T15:04:48.016Z</time></trkpt><trkpt lat="46.4276224" lon="11.5339925"><ele>1101.25</ele><time>2026-04-26T15:04:49.016Z</time></trkpt><trkpt lat="46.4276557" lon="11.5338179"><ele>1100.0</ele><time>2026-04-26T15:04:50.016Z</time></trkpt><trkpt lat="46.4276857" lon="11.5336393"><ele>1098.25</ele><time>2026-04-26T15:04:51.016Z</time></trkpt><trkpt lat="46.4277076" lon="11.5334481"><ele>1096.5</ele><time>2026-04-26T15:04:52.016Z</time></trkpt><trkpt lat="46.4277259" lon="11.5332526"><ele>1094.75</ele><time>2026-04-26T15:04:53.016Z</time></trkpt><trkpt lat="46.4277358" lon="11.5330457"><ele>1093.0</ele><time>2026-04-26T15:04:54.016Z</time></trkpt><trkpt lat="46.4277415" lon="11.5328383"><ele>1091.75</ele><time>2026-04-26T15:04:55.016Z</time></trkpt><trkpt lat="46.4277443" lon="11.5326264"><ele>1090.5</ele><time>2026-04-26T15:04:56.016Z</time></trkpt><trkpt lat="46.4277467" lon="11.5324232"><ele>1089.25</ele><time>2026-04-26T15:04:57.016Z</time></trkpt><trkpt lat="46.4277509" lon="11.5322228"><ele>1088.0</ele><time>2026-04-26T15:04:58.016Z</time></trkpt><trkpt lat="46.4277544" lon="11.5320318"><ele>1088.0</ele><time>2026-04-26T15:04:59.016Z</time></trkpt><trkpt lat="46.4277573" lon="11.5318474"><ele>1088.0</ele><time>2026-04-26T15:05:00.016Z</time></trkpt><trkpt lat="46.4277638" lon="11.5316611"><ele>1088.0</ele><time>2026-04-26T15:05:01.016Z</time></trkpt><trkpt lat="46.4277671" lon="11.5314793"><ele>1088.0</ele><time>2026-04-26T15:05:02.016Z</time></trkpt><trkpt lat="46.4277677" lon="11.531304"><ele>1087.25</ele><time>2026-04-26T15:05:03.016Z</time></trkpt><trkpt lat="46.4277627" lon="11.5311372"><ele>1086.5</ele><time>2026-04-26T15:05:04.016Z</time></trkpt><trkpt lat="46.4277413" lon="11.5309709"><ele>1085.75</ele><time>2026-04-26T15:05:05.016Z</time></trkpt><trkpt lat="46.4277066" lon="11.5308192"><ele>1085.0</ele><time>2026-04-26T15:05:06.016Z</time></trkpt><trkpt lat="46.4276622" lon="11.5306707"><ele>1085.0</ele><time>2026-04-26T15:05:07.016Z</time></trkpt><trkpt lat="46.4276165" lon="11.5305249"><ele>1085.0</ele><time>2026-04-26T15:05:08.016Z</time></trkpt><trkpt lat="46.4275799" lon="11.530372"><ele>1085.0</ele><time>2026-04-26T15:05:09.016Z</time></trkpt><trkpt lat="46.4275625" lon="11.5302171"><ele>1085.0</ele><time>2026-04-26T15:05:10.016Z</time></trkpt><trkpt lat="46.4275795" lon="11.5300592"><ele>1085.0</ele><time>2026-04-26T15:05:11.016Z</time></trkpt><trkpt lat="46.4276166" lon="11.5299095"><ele>1084.2</ele><time>2026-04-26T15:05:12.016Z</time></trkpt><trkpt lat="46.4276657" lon="11.5297644"><ele>1083.4</ele><time>2026-04-26T15:05:13.016Z</time></trkpt><trkpt lat="46.4277004" lon="11.5296231"><ele>1082.6</ele><time>2026-04-26T15:05:14.016Z</time></trkpt><trkpt lat="46.427713" lon="11.5294853"><ele>1081.8</ele><time>2026-04-26T15:05:15.016Z</time></trkpt><trkpt lat="46.4276963" lon="11.5293346"><ele>1081.0</ele><time>2026-04-26T15:05:16.016Z</time></trkpt><trkpt lat="46.4276641" lon="11.5291883"><ele>1081.0</ele><time>2026-04-26T15:05:17.016Z</time></trkpt><trkpt lat="46.4276275" lon="11.5290456"><ele>1081.0</ele><time>2026-04-26T15:05:18.016Z</time></trkpt><trkpt lat="46.4275848" lon="11.5288932"><ele>1081.0</ele><time>2026-04-26T15:05:19.016Z</time></trkpt><trkpt lat="46.4275385" lon="11.5287539"><ele>1081.0</ele><time>2026-04-26T15:05:20.016Z</time></trkpt><trkpt lat="46.4274946" lon="11.5286097"><ele>1081.0</ele><time>2026-04-26T15:05:21.016Z</time></trkpt><trkpt lat="46.4274574" lon="11.5284599"><ele>1081.0</ele><time>2026-04-26T15:05:22.016Z</time></trkpt><trkpt lat="46.4274129" lon="11.5283099"><ele>1081.0</ele><time>2026-04-26T15:05:23.016Z</time></trkpt><trkpt lat="46.4273661" lon="11.5281728"><ele>1081.0</ele><time>2026-04-26T15:05:24.016Z</time></trkpt><trkpt lat="46.4273237" lon="11.5280219"><ele>1081.0</ele><time>2026-04-26T15:05:25.016Z</time></trkpt><trkpt lat="46.4272797" lon="11.527866"><ele>1081.0</ele><time>2026-04-26T15:05:26.016Z</time></trkpt><trkpt lat="46.4272376" lon="11.527711"><ele>1082.5</ele><time>2026-04-26T15:05:27.015Z</time></trkpt><trkpt lat="46.4271977" lon="11.5275488"><ele>1084.0</ele><time>2026-04-26T15:05:28.016Z</time></trkpt><trkpt lat="46.4271642" lon="11.5273814"><ele>1085.5</ele><time>2026-04-26T15:05:29.015Z</time></trkpt><trkpt lat="46.4271429" lon="11.5272117"><ele>1087.0</ele><time>2026-04-26T15:05:30.015Z</time></trkpt><trkpt lat="46.4271303" lon="11.527038"><ele>1090.0</ele><time>2026-04-26T15:05:31.015Z</time></trkpt><trkpt lat="46.4271221" lon="11.5268704"><ele>1093.0</ele><time>2026-04-26T15:05:32.015Z</time></trkpt><trkpt lat="46.4271209" lon="11.5267138"><ele>1096.0</ele><time>2026-04-26T15:05:33.015Z</time></trkpt><trkpt lat="46.4271147" lon="11.5265534"><ele>1099.0</ele><time>2026-04-26T15:05:34.015Z</time></trkpt><trkpt lat="46.4270974" lon="11.5263975"><ele>1102.0</ele><time>2026-04-26T15:05:35.015Z</time></trkpt><trkpt lat="46.4270575" lon="11.5262493"><ele>1099.0</ele><time>2026-04-26T15:05:36.015Z</time></trkpt><trkpt lat="46.427008" lon="11.52611"><ele>1096.0</ele><time>2026-04-26T15:05:37.015Z</time></trkpt><trkpt lat="46.4269493" lon="11.5259689"><ele>1093.0</ele><time>2026-04-26T15:05:38.015Z</time></trkpt><trkpt lat="46.4269027" lon="11.5258157"><ele>1090.0</ele><time>2026-04-26T15:05:39.015Z</time></trkpt><trkpt lat="46.4268784" lon="11.5256505"><ele>1090.0</ele><time>2026-04-26T15:05:40.015Z</time></trkpt><trkpt lat="46.426869" lon="11.5254826"><ele>1090.0</ele><time>2026-04-26T15:05:41.015Z</time></trkpt><trkpt lat="46.4268483" lon="11.5253118"><ele>1090.0</ele><time>2026-04-26T15:05:42.015Z</time></trkpt><trkpt lat="46.4268129" lon="11.5251432"><ele>1090.0</ele><time>2026-04-26T15:05:43.015Z</time></trkpt><trkpt lat="46.4267741" lon="11.5249789"><ele>1085.0</ele><time>2026-04-26T15:05:44.015Z</time></trkpt><trkpt lat="46.4267305" lon="11.5248185"><ele>1080.0</ele><time>2026-04-26T15:05:45.015Z</time></trkpt><trkpt lat="46.4266869" lon="11.5246616"><ele>1075.0</ele><time>2026-04-26T15:05:46.015Z</time></trkpt><trkpt lat="46.4266547" lon="11.5245083"><ele>1070.0</ele><time>2026-04-26T15:05:47.015Z</time></trkpt><trkpt lat="46.4266283" lon="11.524351"><ele>1069.8</ele><time>2026-04-26T15:05:48.015Z</time></trkpt><trkpt lat="46.4266114" lon="11.5241964"><ele>1069.6</ele><time>2026-04-26T15:05:49.015Z</time></trkpt><trkpt lat="46.4266101" lon="11.5240382"><ele>1069.4</ele><time>2026-04-26T15:05:50.015Z</time></trkpt><trkpt lat="46.4266183" lon="11.523877"><ele>1069.2</ele><time>2026-04-26T15:05:51.015Z</time></trkpt><trkpt lat="46.4266302" lon="11.5237152"><ele>1069.0</ele><time>2026-04-26T15:05:52.015Z</time></trkpt><trkpt lat="46.4266428" lon="11.5235587"><ele>1068.25</ele><time>2026-04-26T15:05:53.015Z</time></trkpt><trkpt lat="46.4266539" lon="11.5233976"><ele>1067.5</ele><time>2026-04-26T15:05:54.015Z</time></trkpt><trkpt lat="46.4266636" lon="11.5232322"><ele>1066.75</ele><time>2026-04-26T15:05:55.015Z</time></trkpt><trkpt lat="46.4266638" lon="11.5230694"><ele>1066.0</ele><time>2026-04-26T15:05:56.015Z</time></trkpt><trkpt lat="46.4266465" lon="11.522903"><ele>1065.25</ele><time>2026-04-26T15:05:57.015Z</time></trkpt><trkpt lat="46.4266088" lon="11.5227369"><ele>1064.5</ele><time>2026-04-26T15:05:58.015Z</time></trkpt><trkpt lat="46.4265581" lon="11.522577"><ele>1063.75</ele><time>2026-04-26T15:05:59.015Z</time></trkpt><trkpt lat="46.4264967" lon="11.5224213"><ele>1063.0</ele><time>2026-04-26T15:06:00.015Z</time></trkpt><trkpt lat="46.4264356" lon="11.5222578"><ele>1063.0</ele><time>2026-04-26T15:06:01.015Z</time></trkpt><trkpt lat="46.4263754" lon="11.522098"><ele>1063.0</ele><time>2026-04-26T15:06:02.015Z</time></trkpt><trkpt lat="46.4263193" lon="11.5219372"><ele>1063.0</ele><time>2026-04-26T15:06:03.016Z</time></trkpt><trkpt lat="46.4262765" lon="11.5217667"><ele>1063.0</ele><time>2026-04-26T15:06:04.015Z</time></trkpt><trkpt lat="46.4262433" lon="11.5215887"><ele>1072.0</ele><time>2026-04-26T15:06:05.015Z</time></trkpt><trkpt lat="46.4262201" lon="11.5213954"><ele>1081.0</ele><time>2026-04-26T15:06:06.015Z</time></trkpt><trkpt lat="46.4262051" lon="11.5212054"><ele>1090.0</ele><time>2026-04-26T15:06:07.015Z</time></trkpt><trkpt lat="46.4262056" lon="11.5210091"><ele>1099.0</ele><time>2026-04-26T15:06:08.015Z</time></trkpt><trkpt lat="46.4262273" lon="11.520818"><ele>1099.0</ele><time>2026-04-26T15:06:09.016Z</time></trkpt><trkpt lat="46.4262658" lon="11.520634"><ele>1099.0</ele><time>2026-04-26T15:06:10.015Z</time></trkpt><trkpt lat="46.4263144" lon="11.5204487"><ele>1099.0</ele><time>2026-04-26T15:06:11.016Z</time></trkpt><trkpt lat="46.4263677" lon="11.5202691"><ele>1099.0</ele><time>2026-04-26T15:06:12.015Z</time></trkpt><trkpt lat="46.4264003" lon="11.5200942"><ele>1093.0</ele><time>2026-04-26T15:06:13.015Z</time></trkpt><trkpt lat="46.4264048" lon="11.5199165"><ele>1087.0</ele><time>2026-04-26T15:06:14.015Z</time></trkpt><trkpt lat="46.4263767" lon="11.5197362"><ele>1081.0</ele><time>2026-04-26T15:06:15.015Z</time></trkpt><trkpt lat="46.4263289" lon="11.5195599"><ele>1075.0</ele><time>2026-04-26T15:06:16.015Z</time></trkpt><trkpt lat="46.4262672" lon="11.5193775"><ele>1075.0</ele><time>2026-04-26T15:06:17.015Z</time></trkpt><trkpt lat="46.4262054" lon="11.5191857"><ele>1075.0</ele><time>2026-04-26T15:06:18.015Z</time></trkpt><trkpt lat="46.4261334" lon="11.5189921"><ele>1075.0</ele><time>2026-04-26T15:06:19.015Z</time></trkpt><trkpt lat="46.4260514" lon="11.5187878"><ele>1070.6666666666665</ele><time>2026-04-26T15:06:20.015Z</time></trkpt><trkpt lat="46.4259723" lon="11.5185813"><ele>1066.3333333333333</ele><time>2026-04-26T15:06:21.016Z</time></trkpt><trkpt lat="46.4258994" lon="11.5183818"><ele>1062.0</ele><time>2026-04-26T15:06:22.015Z</time></trkpt><trkpt lat="46.4258295" lon="11.5181802"><ele>1062.0</ele><time>2026-04-26T15:06:23.015Z</time></trkpt><trkpt lat="46.4257609" lon="11.5179827"><ele>1062.0</ele><time>2026-04-26T15:06:24.015Z</time></trkpt><trkpt lat="46.4256925" lon="11.5177894"><ele>1062.0</ele><time>2026-04-26T15:06:25.015Z</time></trkpt><trkpt lat="46.4256288" lon="11.5176011"><ele>1062.0</ele><time>2026-04-26T15:06:26.016Z</time></trkpt><trkpt lat="46.4255674" lon="11.51743"><ele>1058.75</ele><time>2026-04-26T15:06:27.015Z</time></trkpt><trkpt lat="46.4255121" lon="11.5172649"><ele>1055.5</ele><time>2026-04-26T15:06:28.015Z</time></trkpt><trkpt lat="46.4254576" lon="11.5171043"><ele>1052.25</ele><time>2026-04-26T15:06:29.015Z</time></trkpt><trkpt lat="46.4253987" lon="11.5169457"><ele>1049.0</ele><time>2026-04-26T15:06:30.016Z</time></trkpt><trkpt lat="46.4253508" lon="11.5167718"><ele>1053.0</ele><time>2026-04-26T15:06:31.015Z</time></trkpt><trkpt lat="46.4253056" lon="11.5165894"><ele>1057.0</ele><time>2026-04-26T15:06:32.015Z</time></trkpt><trkpt lat="46.4252809" lon="11.5163978"><ele>1061.0</ele><time>2026-04-26T15:06:33.015Z</time></trkpt><trkpt lat="46.4252755" lon="11.5161938"><ele>1065.0</ele><time>2026-04-26T15:06:34.015Z</time></trkpt><trkpt lat="46.4252813" lon="11.5159901"><ele>1065.0</ele><time>2026-04-26T15:06:35.015Z</time></trkpt><trkpt lat="46.4252939" lon="11.5157896"><ele>1065.0</ele><time>2026-04-26T15:06:36.015Z</time></trkpt><trkpt lat="46.4253055" lon="11.515586"><ele>1065.0</ele><time>2026-04-26T15:06:37.015Z</time></trkpt><trkpt lat="46.4253186" lon="11.5153818"><ele>1065.0</ele><time>2026-04-26T15:06:38.015Z</time></trkpt><trkpt lat="46.4253308" lon="11.5151754"><ele>1066.25</ele><time>2026-04-26T15:06:39.015Z</time></trkpt><trkpt lat="46.4253421" lon="11.5149724"><ele>1067.5</ele><time>2026-04-26T15:06:40.015Z</time></trkpt><trkpt lat="46.4253551" lon="11.5147666"><ele>1068.75</ele><time>2026-04-26T15:06:41.015Z</time></trkpt><trkpt lat="46.4253652" lon="11.5145553"><ele>1070.0</ele><time>2026-04-26T15:06:42.015Z</time></trkpt><trkpt lat="46.4253756" lon="11.5143441"><ele>1071.5</ele><time>2026-04-26T15:06:43.015Z</time></trkpt><trkpt lat="46.4253971" lon="11.5141379"><ele>1073.0</ele><time>2026-04-26T15:06:44.015Z</time></trkpt><trkpt lat="46.4254239" lon="11.5139321"><ele>1074.5</ele><time>2026-04-26T15:06:45.015Z</time></trkpt><trkpt lat="46.4254691" lon="11.5137221"><ele>1076.0</ele><time>2026-04-26T15:06:46.015Z</time></trkpt><trkpt lat="46.4255259" lon="11.513515"><ele>1061.3333333333335</ele><time>2026-04-26T15:06:47.015Z</time></trkpt><trkpt lat="46.4255891" lon="11.5133164"><ele>1046.6666666666667</ele><time>2026-04-26T15:06:48.016Z</time></trkpt><trkpt lat="46.4256578" lon="11.5131193"><ele>1032.0</ele><time>2026-04-26T15:06:49.015Z</time></trkpt><trkpt lat="46.4257295" lon="11.5129259"><ele>1033.75</ele><time>2026-04-26T15:06:50.016Z</time></trkpt><trkpt lat="46.4257965" lon="11.5127391"><ele>1035.5</ele><time>2026-04-26T15:06:51.015Z</time></trkpt><trkpt lat="46.4258519" lon="11.5125506"><ele>1037.25</ele><time>2026-04-26T15:06:52.016Z</time></trkpt><trkpt lat="46.4258993" lon="11.5123534"><ele>1039.0</ele><time>2026-04-26T15:06:53.015Z</time></trkpt><trkpt lat="46.42593" lon="11.5121467"><ele>1038.0</ele><time>2026-04-26T15:06:54.015Z</time></trkpt><trkpt lat="46.4259415" lon="11.5119271"><ele>1037.0</ele><time>2026-04-26T15:06:55.015Z</time></trkpt><trkpt lat="46.4259343" lon="11.5117034"><ele>1036.0</ele><time>2026-04-26T15:06:56.015Z</time></trkpt><trkpt lat="46.4259205" lon="11.5114702"><ele>1035.0</ele><time>2026-04-26T15:06:57.015Z</time></trkpt><trkpt lat="46.4258923" lon="11.5112403"><ele>1034.0</ele><time>2026-04-26T15:06:58.015Z</time></trkpt><trkpt lat="46.4258639" lon="11.5110208"><ele>1033.0</ele><time>2026-04-26T15:06:59.015Z</time></trkpt><trkpt lat="46.4258292" lon="11.5108099"><ele>1033.0</ele><time>2026-04-26T15:07:00.015Z</time></trkpt><trkpt lat="46.4257949" lon="11.5105943"><ele>1033.0</ele><time>2026-04-26T15:07:01.015Z</time></trkpt><trkpt lat="46.4257681" lon="11.5103997"><ele>1033.0</ele><time>2026-04-26T15:07:02.015Z</time></trkpt><trkpt lat="46.4257474" lon="11.5102236"><ele>1033.0</ele><time>2026-04-26T15:07:03.015Z</time></trkpt><trkpt lat="46.4257333" lon="11.5100624"><ele>1032.8</ele><time>2026-04-26T15:07:04.015Z</time></trkpt><trkpt lat="46.4257448" lon="11.5099057"><ele>1032.6</ele><time>2026-04-26T15:07:05.015Z</time></trkpt><trkpt lat="46.4257827" lon="11.5097602"><ele>1032.4</ele><time>2026-04-26T15:07:06.015Z</time></trkpt><trkpt lat="46.4258302" lon="11.5096372"><ele>1032.2</ele><time>2026-04-26T15:07:07.015Z</time></trkpt><trkpt lat="46.4258943" lon="11.5095183"><ele>1032.0</ele><time>2026-04-26T15:07:08.015Z</time></trkpt><trkpt lat="46.4259512" lon="11.5093979"><ele>1029.5</ele><time>2026-04-26T15:07:09.015Z</time></trkpt><trkpt lat="46.4259904" lon="11.5092522"><ele>1027.0</ele><time>2026-04-26T15:07:10.015Z</time></trkpt><trkpt lat="46.4259994" lon="11.5090773"><ele>1024.5</ele><time>2026-04-26T15:07:11.015Z</time></trkpt><trkpt lat="46.4259895" lon="11.5088861"><ele>1022.0</ele><time>2026-04-26T15:07:12.016Z</time></trkpt><trkpt lat="46.4259731" lon="11.508684"><ele>1020.75</ele><time>2026-04-26T15:07:13.015Z</time></trkpt><trkpt lat="46.4259514" lon="11.5084894"><ele>1019.5</ele><time>2026-04-26T15:07:14.015Z</time></trkpt><trkpt lat="46.4259339" lon="11.508288"><ele>1018.25</ele><time>2026-04-26T15:07:15.015Z</time></trkpt><trkpt lat="46.4259305" lon="11.5080925"><ele>1017.0</ele><time>2026-04-26T15:07:16.015Z</time></trkpt><trkpt lat="46.425935" lon="11.5078925"><ele>1016.75</ele><time>2026-04-26T15:07:17.015Z</time></trkpt><trkpt lat="46.4259482" lon="11.5076989"><ele>1016.5</ele><time>2026-04-26T15:07:18.015Z</time></trkpt><trkpt lat="46.4259807" lon="11.507504"><ele>1016.25</ele><time>2026-04-26T15:07:19.015Z</time></trkpt><trkpt lat="46.4260216" lon="11.5073204"><ele>1016.0</ele><time>2026-04-26T15:07:20.015Z</time></trkpt><trkpt lat="46.4260673" lon="11.5071499"><ele>1018.25</ele><time>2026-04-26T15:07:21.015Z</time></trkpt><trkpt lat="46.4261137" lon="11.506976"><ele>1020.5</ele><time>2026-04-26T15:07:22.015Z</time></trkpt><trkpt lat="46.4261674" lon="11.5068067"><ele>1022.75</ele><time>2026-04-26T15:07:23.015Z</time></trkpt><trkpt lat="46.4262156" lon="11.5066327"><ele>1025.0</ele><time>2026-04-26T15:07:24.015Z</time></trkpt><trkpt lat="46.4262535" lon="11.5064478"><ele>1025.0</ele><time>2026-04-26T15:07:25.015Z</time></trkpt><trkpt lat="46.4262799" lon="11.506256"><ele>1025.0</ele><time>2026-04-26T15:07:26.015Z</time></trkpt><trkpt lat="46.4262921" lon="11.5060498"><ele>1025.0</ele><time>2026-04-26T15:07:27.015Z</time></trkpt><trkpt lat="46.4262814" lon="11.5058055"><ele>1025.0</ele><time>2026-04-26T15:07:28.015Z</time></trkpt><trkpt lat="46.4262483" lon="11.5055203"><ele>1017.0</ele><time>2026-04-26T15:07:29.015Z</time></trkpt><trkpt lat="46.4262072" lon="11.5052025"><ele>1009.0</ele><time>2026-04-26T15:07:30.015Z</time></trkpt><trkpt lat="46.42617" lon="11.5048419"><ele>1008.0</ele><time>2026-04-26T15:07:31.015Z</time></trkpt><trkpt lat="46.4261313" lon="11.5044479"><ele>1007.0</ele><time>2026-04-26T15:07:32.015Z</time></trkpt><trkpt lat="46.426088" lon="11.5040324"><ele>1003.0</ele><time>2026-04-26T15:07:33.016Z</time></trkpt><trkpt lat="46.4260393" lon="11.503601"><ele>999.0</ele><time>2026-04-26T15:07:34.015Z</time></trkpt><trkpt lat="46.4260129" lon="11.5031689"><ele>996.0</ele><time>2026-04-26T15:07:35.015Z</time></trkpt><trkpt lat="46.4259862" lon="11.5027519"><ele>993.0</ele><time>2026-04-26T15:07:36.015Z</time></trkpt><trkpt lat="46.4259525" lon="11.5023633"><ele>988.5</ele><time>2026-04-26T15:07:37.015Z</time></trkpt><trkpt lat="46.4259186" lon="11.5020038"><ele>984.0</ele><time>2026-04-26T15:07:38.015Z</time></trkpt><trkpt lat="46.4258806" lon="11.5016543"><ele>984.0</ele><time>2026-04-26T15:07:39.016Z</time></trkpt><trkpt lat="46.4258442" lon="11.501303"><ele>984.0</ele><time>2026-04-26T15:07:40.016Z</time></trkpt><trkpt lat="46.4258071" lon="11.5009613"><ele>987.0</ele><time>2026-04-26T15:07:41.015Z</time></trkpt><trkpt lat="46.4257747" lon="11.5006246"><ele>990.0</ele><time>2026-04-26T15:07:42.015Z</time></trkpt><trkpt lat="46.425749" lon="11.5002863"><ele>967.0</ele><time>2026-04-26T15:07:43.016Z</time></trkpt><trkpt lat="46.4254282" lon="11.4950154"><ele>967.0</ele><time>2026-04-26T15:07:59.015Z</time></trkpt><trkpt lat="46.4253925" lon="11.4947024"><ele>967.0</ele><time>2026-04-26T15:08:00.016Z</time></trkpt><trkpt lat="46.4253599" lon="11.494378"><ele>967.0</ele><time>2026-04-26T15:08:01.015Z</time></trkpt><trkpt lat="46.4253287" lon="11.4940628"><ele>964.6666666666666</ele><time>2026-04-26T15:08:02.015Z</time></trkpt><trkpt lat="46.4253049" lon="11.4937484"><ele>962.3333333333333</ele><time>2026-04-26T15:08:03.015Z</time></trkpt><trkpt lat="46.4252768" lon="11.4934395"><ele>960.0</ele><time>2026-04-26T15:08:04.015Z</time></trkpt><trkpt lat="46.425237" lon="11.4931381"><ele>958.3333333333333</ele><time>2026-04-26T15:08:05.015Z</time></trkpt><trkpt lat="46.4252105" lon="11.4928417"><ele>956.6666666666666</ele><time>2026-04-26T15:08:06.015Z</time></trkpt><trkpt lat="46.4251824" lon="11.4925544"><ele>955.0</ele><time>2026-04-26T15:08:07.015Z</time></trkpt><trkpt lat="46.4251545" lon="11.4922775"><ele>951.6666666666666</ele><time>2026-04-26T15:08:08.015Z</time></trkpt><trkpt lat="46.4251271" lon="11.4920021"><ele>948.3333333333333</ele><time>2026-04-26T15:08:09.015Z</time></trkpt><trkpt lat="46.4251031" lon="11.491726"><ele>945.0</ele><time>2026-04-26T15:08:10.015Z</time></trkpt><trkpt lat="46.4250794" lon="11.4914558"><ele>941.3333333333333</ele><time>2026-04-26T15:08:11.016Z</time></trkpt><trkpt lat="46.4250539" lon="11.4911852"><ele>937.6666666666666</ele><time>2026-04-26T15:08:12.015Z</time></trkpt><trkpt lat="46.4250256" lon="11.4909092"><ele>934.0</ele><time>2026-04-26T15:08:13.015Z</time></trkpt><trkpt lat="46.4249949" lon="11.4906306"><ele>930.6666666666666</ele><time>2026-04-26T15:08:14.015Z</time></trkpt><trkpt lat="46.4249668" lon="11.4903523"><ele>927.3333333333333</ele><time>2026-04-26T15:08:15.015Z</time></trkpt><trkpt lat="46.4249344" lon="11.4900706"><ele>924.0</ele><time>2026-04-26T15:08:16.015Z</time></trkpt><trkpt lat="46.4249036" lon="11.4897892"><ele>918.6666666666667</ele><time>2026-04-26T15:08:17.015Z</time></trkpt><trkpt lat="46.4248727" lon="11.4895122"><ele>913.3333333333334</ele><time>2026-04-26T15:08:18.015Z</time></trkpt><trkpt lat="46.4248413" lon="11.4892281"><ele>908.0</ele><time>2026-04-26T15:08:19.015Z</time></trkpt><trkpt lat="46.4248041" lon="11.4889406"><ele>908.0</ele><time>2026-04-26T15:08:20.015Z</time></trkpt><trkpt lat="46.4247674" lon="11.4886528"><ele>908.0</ele><time>2026-04-26T15:08:21.015Z</time></trkpt><trkpt lat="46.4247305" lon="11.4883632"><ele>908.0</ele><time>2026-04-26T15:08:22.015Z</time></trkpt><trkpt lat="46.4247019" lon="11.4880653"><ele>909.6666666666667</ele><time>2026-04-26T15:08:23.015Z</time></trkpt><trkpt lat="46.4246848" lon="11.4877503"><ele>911.3333333333333</ele><time>2026-04-26T15:08:24.015Z</time></trkpt><trkpt lat="46.4246888" lon="11.4874353"><ele>913.0</ele><time>2026-04-26T15:08:25.015Z</time></trkpt><trkpt lat="46.4247145" lon="11.4871245"><ele>913.3333333333333</ele><time>2026-04-26T15:08:26.015Z</time></trkpt><trkpt lat="46.4247597" lon="11.4868352"><ele>913.6666666666667</ele><time>2026-04-26T15:08:27.015Z</time></trkpt><trkpt lat="46.4248184" lon="11.4865558"><ele>914.0</ele><time>2026-04-26T15:08:28.015Z</time></trkpt><trkpt lat="46.4248777" lon="11.4862916"><ele>914.6666666666667</ele><time>2026-04-26T15:08:29.015Z</time></trkpt><trkpt lat="46.4249341" lon="11.4860323"><ele>915.3333333333333</ele><time>2026-04-26T15:08:30.015Z</time></trkpt><trkpt lat="46.4249777" lon="11.485775"><ele>916.0</ele><time>2026-04-26T15:08:31.015Z</time></trkpt><trkpt lat="46.4249991" lon="11.4855219"><ele>916.0</ele><time>2026-04-26T15:08:32.015Z</time></trkpt><trkpt lat="46.4250092" lon="11.4852691"><ele>916.0</ele><time>2026-04-26T15:08:33.015Z</time></trkpt><trkpt lat="46.4250094" lon="11.4850157"><ele>916.0</ele><time>2026-04-26T15:08:34.015Z</time></trkpt><trkpt lat="46.4250049" lon="11.4847718"><ele>915.0</ele><time>2026-04-26T15:08:35.015Z</time></trkpt><trkpt lat="46.4249923" lon="11.4845443"><ele>914.0</ele><time>2026-04-26T15:08:36.015Z</time></trkpt><trkpt lat="46.4249747" lon="11.4843434"><ele>913.0</ele><time>2026-04-26T15:08:37.015Z</time></trkpt><trkpt lat="46.4249701" lon="11.4841611"><ele>912.0</ele><time>2026-04-26T15:08:38.015Z</time></trkpt><trkpt lat="46.4249929" lon="11.4840123"><ele>912.0</ele><time>2026-04-26T15:08:39.015Z</time></trkpt><trkpt lat="46.4250494" lon="11.4838936"><ele>912.0</ele><time>2026-04-26T15:08:40.015Z</time></trkpt><trkpt lat="46.4251349" lon="11.4837989"><ele>912.0</ele><time>2026-04-26T15:08:41.015Z</time></trkpt><trkpt lat="46.42522" lon="11.4836968"><ele>912.0</ele><time>2026-04-26T15:08:42.015Z</time></trkpt><trkpt lat="46.4252983" lon="11.4835948"><ele>912.0</ele><time>2026-04-26T15:08:43.015Z</time></trkpt><trkpt lat="46.4253545" lon="11.4834835"><ele>907.6</ele><time>2026-04-26T15:08:44.015Z</time></trkpt><trkpt lat="46.4253856" lon="11.483366"><ele>903.2</ele><time>2026-04-26T15:08:45.015Z</time></trkpt><trkpt lat="46.4253774" lon="11.4832284"><ele>898.8</ele><time>2026-04-26T15:08:46.016Z</time></trkpt><trkpt lat="46.4253364" lon="11.4830982"><ele>894.4</ele><time>2026-04-26T15:08:47.015Z</time></trkpt><trkpt lat="46.4252713" lon="11.482958"><ele>890.0</ele><time>2026-04-26T15:08:48.015Z</time></trkpt><trkpt lat="46.4251851" lon="11.482827"><ele>886.0</ele><time>2026-04-26T15:08:49.015Z</time></trkpt><trkpt lat="46.4250855" lon="11.4826897"><ele>882.0</ele><time>2026-04-26T15:08:50.015Z</time></trkpt><trkpt lat="46.4249944" lon="11.4825521"><ele>878.0</ele><time>2026-04-26T15:08:51.015Z</time></trkpt><trkpt lat="46.4249127" lon="11.4824217"><ele>874.0</ele><time>2026-04-26T15:08:52.015Z</time></trkpt><trkpt lat="46.424853" lon="11.4823032"><ele>874.0</ele><time>2026-04-26T15:08:53.015Z</time></trkpt><trkpt lat="46.4248082" lon="11.4821925"><ele>874.0000000000001</ele><time>2026-04-26T15:08:54.015Z</time></trkpt><trkpt lat="46.4247775" lon="11.48209"><ele>874.0000000000001</ele><time>2026-04-26T15:08:55.015Z</time></trkpt><trkpt lat="46.4247093" lon="11.481968"><ele>874.0</ele><time>2026-04-26T15:08:57.015Z</time></trkpt><trkpt lat="46.4246025" lon="11.4820143"><ele>874.0</ele><time>2026-04-26T15:08:59.016Z</time></trkpt><trkpt lat="46.424541" lon="11.4820943"><ele>876.25</ele><time>2026-04-26T15:09:00.015Z</time></trkpt><trkpt lat="46.4244829" lon="11.4822026"><ele>878.5</ele><time>2026-04-26T15:09:01.015Z</time></trkpt><trkpt lat="46.4244334" lon="11.4823394"><ele>880.75</ele><time>2026-04-26T15:09:02.016Z</time></trkpt><trkpt lat="46.4243841" lon="11.4824995"><ele>883.0</ele><time>2026-04-26T15:09:03.015Z</time></trkpt><trkpt lat="46.42433" lon="11.4826747"><ele>883.0</ele><time>2026-04-26T15:09:04.015Z</time></trkpt><trkpt lat="46.4242686" lon="11.4828436"><ele>883.0</ele><time>2026-04-26T15:09:05.015Z</time></trkpt><trkpt lat="46.4242075" lon="11.4830142"><ele>883.0</ele><time>2026-04-26T15:09:06.016Z</time></trkpt><trkpt lat="46.4241423" lon="11.4831855"><ele>883.0</ele><time>2026-04-26T15:09:07.015Z</time></trkpt><trkpt lat="46.4240799" lon="11.4833663"><ele>882.6666666666666</ele><time>2026-04-26T15:09:08.015Z</time></trkpt><trkpt lat="46.4240176" lon="11.4835603"><ele>882.3333333333333</ele><time>2026-04-26T15:09:09.015Z</time></trkpt><trkpt lat="46.4239481" lon="11.4837547"><ele>882.0</ele><time>2026-04-26T15:09:10.015Z</time></trkpt><trkpt lat="46.4238662" lon="11.4839522"><ele>884.6666666666667</ele><time>2026-04-26T15:09:11.016Z</time></trkpt><trkpt lat="46.4237785" lon="11.484147"><ele>887.3333333333334</ele><time>2026-04-26T15:09:12.015Z</time></trkpt><trkpt lat="46.4236763" lon="11.4843192"><ele>890.0</ele><time>2026-04-26T15:09:13.015Z</time></trkpt><trkpt lat="46.4235487" lon="11.4844633"><ele>890.0</ele><time>2026-04-26T15:09:14.015Z</time></trkpt><trkpt lat="46.4233987" lon="11.484579"><ele>890.0</ele><time>2026-04-26T15:09:15.015Z</time></trkpt><trkpt lat="46.4232326" lon="11.4846738"><ele>890.0</ele><time>2026-04-26T15:09:16.015Z</time></trkpt><trkpt lat="46.4230495" lon="11.484761"><ele>894.0</ele><time>2026-04-26T15:09:17.015Z</time></trkpt><trkpt lat="46.4228725" lon="11.4848625"><ele>898.0</ele><time>2026-04-26T15:09:18.015Z</time></trkpt><trkpt lat="46.422711" lon="11.4849909"><ele>902.0</ele><time>2026-04-26T15:09:19.015Z</time></trkpt><trkpt lat="46.4225536" lon="11.4851294"><ele>902.0</ele><time>2026-04-26T15:09:20.015Z</time></trkpt><trkpt lat="46.4224028" lon="11.4852704"><ele>902.0</ele><time>2026-04-26T15:09:21.015Z</time></trkpt><trkpt lat="46.4222482" lon="11.4854083"><ele>902.0</ele><time>2026-04-26T15:09:22.015Z</time></trkpt><trkpt lat="46.4220921" lon="11.4855517"><ele>906.6666666666667</ele><time>2026-04-26T15:09:23.015Z</time></trkpt><trkpt lat="46.4219256" lon="11.4856805"><ele>911.3333333333333</ele><time>2026-04-26T15:09:24.015Z</time></trkpt><trkpt lat="46.4217462" lon="11.4857907"><ele>916.0</ele><time>2026-04-26T15:09:25.015Z</time></trkpt><trkpt lat="46.4215549" lon="11.4858849"><ele>916.0</ele><time>2026-04-26T15:09:26.015Z</time></trkpt><trkpt lat="46.4213583" lon="11.4859699"><ele>916.0</ele><time>2026-04-26T15:09:27.015Z</time></trkpt><trkpt lat="46.4211563" lon="11.4860393"><ele>916.0</ele><time>2026-04-26T15:09:28.015Z</time></trkpt><trkpt lat="46.4209652" lon="11.4860994"><ele>916.0</ele><time>2026-04-26T15:09:29.015Z</time></trkpt><trkpt lat="46.4207889" lon="11.4861678"><ele>916.0</ele><time>2026-04-26T15:09:30.015Z</time></trkpt><trkpt lat="46.4206202" lon="11.4862508"><ele>916.0</ele><time>2026-04-26T15:09:31.015Z</time></trkpt><trkpt lat="46.4204687" lon="11.4863606"><ele>915.6666666666666</ele><time>2026-04-26T15:09:32.015Z</time></trkpt><trkpt lat="46.4203367" lon="11.4865153"><ele>915.3333333333333</ele><time>2026-04-26T15:09:33.015Z</time></trkpt><trkpt lat="46.4202172" lon="11.4867044"><ele>915.0</ele><time>2026-04-26T15:09:34.015Z</time></trkpt><trkpt lat="46.420114" lon="11.4869153"><ele>918.3333333333333</ele><time>2026-04-26T15:09:35.015Z</time></trkpt><trkpt lat="46.4200153" lon="11.4871292"><ele>921.6666666666666</ele><time>2026-04-26T15:09:36.015Z</time></trkpt><trkpt lat="46.4199194" lon="11.4873418"><ele>925.0</ele><time>2026-04-26T15:09:37.015Z</time></trkpt><trkpt lat="46.4198232" lon="11.4875599"><ele>925.0</ele><time>2026-04-26T15:09:38.015Z</time></trkpt><trkpt lat="46.419727" lon="11.4877758"><ele>925.0</ele><time>2026-04-26T15:09:39.015Z</time></trkpt><trkpt lat="46.4196215" lon="11.4879766"><ele>925.0</ele><time>2026-04-26T15:09:40.015Z</time></trkpt><trkpt lat="46.4194994" lon="11.4881555"><ele>924.6666666666666</ele><time>2026-04-26T15:09:41.015Z</time></trkpt><trkpt lat="46.4193678" lon="11.4883031"><ele>924.3333333333333</ele><time>2026-04-26T15:09:42.015Z</time></trkpt><trkpt lat="46.4192295" lon="11.488431"><ele>924.0</ele><time>2026-04-26T15:09:43.015Z</time></trkpt><trkpt lat="46.4190887" lon="11.4885483"><ele>924.0</ele><time>2026-04-26T15:09:44.015Z</time></trkpt><trkpt lat="46.4189462" lon="11.4886644"><ele>924.0</ele><time>2026-04-26T15:09:45.015Z</time></trkpt><trkpt lat="46.418804" lon="11.4887741"><ele>924.0</ele><time>2026-04-26T15:09:46.015Z</time></trkpt><trkpt lat="46.4186627" lon="11.488889"><ele>927.3333333333333</ele><time>2026-04-26T15:09:47.015Z</time></trkpt><trkpt lat="46.4185229" lon="11.4890011"><ele>930.6666666666666</ele><time>2026-04-26T15:09:48.015Z</time></trkpt><trkpt lat="46.4183821" lon="11.4891121"><ele>934.0</ele><time>2026-04-26T15:09:49.015Z</time></trkpt><trkpt lat="46.4182473" lon="11.4892099"><ele>934.0</ele><time>2026-04-26T15:09:50.015Z</time></trkpt><trkpt lat="46.4181235" lon="11.4893148"><ele>934.0</ele><time>2026-04-26T15:09:51.015Z</time></trkpt><trkpt lat="46.417992" lon="11.4893955"><ele>934.0</ele><time>2026-04-26T15:09:52.015Z</time></trkpt><trkpt lat="46.4178521" lon="11.4894616"><ele>934.0</ele><time>2026-04-26T15:09:53.015Z</time></trkpt><trkpt lat="46.4177094" lon="11.4895068"><ele>932.5</ele><time>2026-04-26T15:09:54.015Z</time></trkpt><trkpt lat="46.4175574" lon="11.4895386"><ele>931.0</ele><time>2026-04-26T15:09:55.015Z</time></trkpt><trkpt lat="46.417412" lon="11.4895683"><ele>929.5</ele><time>2026-04-26T15:09:56.015Z</time></trkpt><trkpt lat="46.4172655" lon="11.4896022"><ele>928.0</ele><time>2026-04-26T15:09:57.015Z</time></trkpt><trkpt lat="46.4171253" lon="11.4896258"><ele>929.25</ele><time>2026-04-26T15:09:58.015Z</time></trkpt><trkpt lat="46.4169808" lon="11.4896446"><ele>930.5</ele><time>2026-04-26T15:09:59.015Z</time></trkpt><trkpt lat="46.4168426" lon="11.4896249"><ele>931.75</ele><time>2026-04-26T15:10:00.015Z</time></trkpt><trkpt lat="46.416699" lon="11.4895736"><ele>933.0</ele><time>2026-04-26T15:10:01.015Z</time></trkpt><trkpt lat="46.4165597" lon="11.4894915"><ele>933.0</ele><time>2026-04-26T15:10:02.015Z</time></trkpt><trkpt lat="46.4164209" lon="11.4893814"><ele>933.0</ele><time>2026-04-26T15:10:03.015Z</time></trkpt><trkpt lat="46.4162873" lon="11.4892566"><ele>933.0</ele><time>2026-04-26T15:10:04.015Z</time></trkpt><trkpt lat="46.4161466" lon="11.48913"><ele>938.3333333333333</ele><time>2026-04-26T15:10:05.015Z</time></trkpt><trkpt lat="46.4160003" lon="11.4890058"><ele>943.6666666666666</ele><time>2026-04-26T15:10:06.015Z</time></trkpt><trkpt lat="46.4158663" lon="11.4888799"><ele>949.0</ele><time>2026-04-26T15:10:07.015Z</time></trkpt><trkpt lat="46.4157504" lon="11.4887277"><ele>949.0</ele><time>2026-04-26T15:10:08.015Z</time></trkpt><trkpt lat="46.4156525" lon="11.4885521"><ele>949.0</ele><time>2026-04-26T15:10:09.015Z</time></trkpt><trkpt lat="46.4155636" lon="11.4883567"><ele>949.0</ele><time>2026-04-26T15:10:10.015Z</time></trkpt><trkpt lat="46.4154622" lon="11.4881647"><ele>950.0</ele><time>2026-04-26T15:10:11.015Z</time></trkpt><trkpt lat="46.4153362" lon="11.4880142"><ele>951.0</ele><time>2026-04-26T15:10:12.015Z</time></trkpt><trkpt lat="46.4151779" lon="11.4878862"><ele>952.0</ele><time>2026-04-26T15:10:13.016Z</time></trkpt><trkpt lat="46.4150039" lon="11.4877751"><ele>952.0</ele><time>2026-04-26T15:10:14.015Z</time></trkpt><trkpt lat="46.4148231" lon="11.4876786"><ele>952.0</ele><time>2026-04-26T15:10:15.015Z</time></trkpt><trkpt lat="46.4146389" lon="11.4875773"><ele>952.0</ele><time>2026-04-26T15:10:16.015Z</time></trkpt><trkpt lat="46.4144574" lon="11.487464"><ele>952.0</ele><time>2026-04-26T15:10:17.015Z</time></trkpt><trkpt lat="46.4142811" lon="11.4873292"><ele>952.0</ele><time>2026-04-26T15:10:18.015Z</time></trkpt><trkpt lat="46.4141067" lon="11.4871856"><ele>952.0</ele><time>2026-04-26T15:10:19.015Z</time></trkpt><trkpt lat="46.4139373" lon="11.487034"><ele>956.3333333333333</ele><time>2026-04-26T15:10:20.015Z</time></trkpt><trkpt lat="46.4137724" lon="11.4868701"><ele>960.6666666666667</ele><time>2026-04-26T15:10:21.015Z</time></trkpt><trkpt lat="46.4136046" lon="11.4867058"><ele>965.0</ele><time>2026-04-26T15:10:22.015Z</time></trkpt><trkpt lat="46.4134362" lon="11.4865486"><ele>965.0</ele><time>2026-04-26T15:10:23.015Z</time></trkpt><trkpt lat="46.4132687" lon="11.4863905"><ele>965.0</ele><time>2026-04-26T15:10:24.015Z</time></trkpt><trkpt lat="46.4131046" lon="11.486226"><ele>965.0</ele><time>2026-04-26T15:10:25.015Z</time></trkpt><trkpt lat="46.4129342" lon="11.4860651"><ele>965.6666666666667</ele><time>2026-04-26T15:10:26.015Z</time></trkpt><trkpt lat="46.4127738" lon="11.4859049"><ele>966.3333333333333</ele><time>2026-04-26T15:10:27.015Z</time></trkpt><trkpt lat="46.4126153" lon="11.4857482"><ele>967.0</ele><time>2026-04-26T15:10:28.015Z</time></trkpt><trkpt lat="46.4124521" lon="11.4855922"><ele>967.0</ele><time>2026-04-26T15:10:29.016Z</time></trkpt><trkpt lat="46.4122895" lon="11.4854465"><ele>967.0</ele><time>2026-04-26T15:10:30.015Z</time></trkpt><trkpt lat="46.4121193" lon="11.4853212"><ele>967.0</ele><time>2026-04-26T15:10:31.015Z</time></trkpt><trkpt lat="46.4119447" lon="11.4852264"><ele>972.0</ele><time>2026-04-26T15:10:32.015Z</time></trkpt><trkpt lat="46.4117627" lon="11.4851628"><ele>977.0</ele><time>2026-04-26T15:10:33.015Z</time></trkpt><trkpt lat="46.4115768" lon="11.4851427"><ele>982.0</ele><time>2026-04-26T15:10:34.015Z</time></trkpt><trkpt lat="46.4113905" lon="11.4851451"><ele>985.3333333333333</ele><time>2026-04-26T15:10:35.015Z</time></trkpt><trkpt lat="46.4112021" lon="11.4851599"><ele>988.6666666666667</ele><time>2026-04-26T15:10:36.015Z</time></trkpt><trkpt lat="46.4110102" lon="11.4851639"><ele>992.0</ele><time>2026-04-26T15:10:37.015Z</time></trkpt><trkpt lat="46.410822" lon="11.4851377"><ele>992.0</ele><time>2026-04-26T15:10:38.015Z</time></trkpt><trkpt lat="46.4106377" lon="11.4850839"><ele>992.0</ele><time>2026-04-26T15:10:39.015Z</time></trkpt><trkpt lat="46.4104605" lon="11.4850028"><ele>992.0</ele><time>2026-04-26T15:10:40.016Z</time></trkpt><trkpt lat="46.4102868" lon="11.4848972"><ele>989.0</ele><time>2026-04-26T15:10:41.015Z</time></trkpt><trkpt lat="46.4101182" lon="11.4847769"><ele>986.0</ele><time>2026-04-26T15:10:42.015Z</time></trkpt><trkpt lat="46.4099555" lon="11.484654"><ele>983.0</ele><time>2026-04-26T15:10:43.015Z</time></trkpt><trkpt lat="46.4097962" lon="11.4845266"><ele>991.0</ele><time>2026-04-26T15:10:44.015Z</time></trkpt><trkpt lat="46.4096336" lon="11.4843963"><ele>999.0</ele><time>2026-04-26T15:10:45.015Z</time></trkpt><trkpt lat="46.4094724" lon="11.484268"><ele>1007.0</ele><time>2026-04-26T15:10:46.015Z</time></trkpt><trkpt lat="46.4093125" lon="11.4841403"><ele>1007.0</ele><time>2026-04-26T15:10:47.015Z</time></trkpt><trkpt lat="46.4091518" lon="11.4840113"><ele>1007.0</ele><time>2026-04-26T15:10:48.015Z</time></trkpt><trkpt lat="46.4089949" lon="11.48389"><ele>1007.0</ele><time>2026-04-26T15:10:49.015Z</time></trkpt><trkpt lat="46.4088384" lon="11.4837634"><ele>1008.0</ele><time>2026-04-26T15:10:50.015Z</time></trkpt><trkpt lat="46.408687" lon="11.4836233"><ele>1009.0</ele><time>2026-04-26T15:10:51.015Z</time></trkpt><trkpt lat="46.4085475" lon="11.4834659"><ele>1010.0</ele><time>2026-04-26T15:10:52.016Z</time></trkpt><trkpt lat="46.4084204" lon="11.4832874"><ele>1010.0</ele><time>2026-04-26T15:10:53.015Z</time></trkpt><trkpt lat="46.4083013" lon="11.4830984"><ele>1010.0</ele><time>2026-04-26T15:10:54.015Z</time></trkpt><trkpt lat="46.4081797" lon="11.4829068"><ele>1010.0</ele><time>2026-04-26T15:10:55.015Z</time></trkpt><trkpt lat="46.4080492" lon="11.4827288"><ele>1012.3333333333334</ele><time>2026-04-26T15:10:56.015Z</time></trkpt><trkpt lat="46.4079062" lon="11.4825758"><ele>1014.6666666666667</ele><time>2026-04-26T15:10:57.015Z</time></trkpt><trkpt lat="46.4077505" lon="11.4824552"><ele>1017.0</ele><time>2026-04-26T15:10:58.015Z</time></trkpt><trkpt lat="46.4075885" lon="11.4823603"><ele>1017.0</ele><time>2026-04-26T15:10:59.015Z</time></trkpt><trkpt lat="46.4074207" lon="11.4822899"><ele>1017.0</ele><time>2026-04-26T15:11:00.015Z</time></trkpt><trkpt lat="46.4072526" lon="11.4822227"><ele>1017.0</ele><time>2026-04-26T15:11:01.015Z</time></trkpt><trkpt lat="46.407083" lon="11.4821423"><ele>1026.6666666666667</ele><time>2026-04-26T15:11:02.015Z</time></trkpt><trkpt lat="46.4069215" lon="11.48204"><ele>1036.3333333333335</ele><time>2026-04-26T15:11:03.016Z</time></trkpt><trkpt lat="46.4067693" lon="11.4819257"><ele>1046.0</ele><time>2026-04-26T15:11:04.015Z</time></trkpt><trkpt lat="46.4066282" lon="11.4817841"><ele>1046.0</ele><time>2026-04-26T15:11:05.016Z</time></trkpt><trkpt lat="46.4064956" lon="11.4816199"><ele>1046.0</ele><time>2026-04-26T15:11:06.015Z</time></trkpt><trkpt lat="46.4063756" lon="11.4814341"><ele>1046.0</ele><time>2026-04-26T15:11:07.015Z</time></trkpt><trkpt lat="46.40627" lon="11.4812407"><ele>1055.3333333333335</ele><time>2026-04-26T15:11:08.015Z</time></trkpt><trkpt lat="46.406173" lon="11.481043"><ele>1064.6666666666667</ele><time>2026-04-26T15:11:09.015Z</time></trkpt><trkpt lat="46.4060776" lon="11.4808401"><ele>1074.0</ele><time>2026-04-26T15:11:10.015Z</time></trkpt><trkpt lat="46.4059914" lon="11.4806329"><ele>1068.3333333333333</ele><time>2026-04-26T15:11:11.015Z</time></trkpt><trkpt lat="46.4059077" lon="11.4804294"><ele>1062.6666666666665</ele><time>2026-04-26T15:11:12.015Z</time></trkpt><trkpt lat="46.4058089" lon="11.4802413"><ele>1057.0</ele><time>2026-04-26T15:11:13.015Z</time></trkpt><trkpt lat="46.4056956" lon="11.4800746"><ele>1057.0</ele><time>2026-04-26T15:11:14.015Z</time></trkpt><trkpt lat="46.4055701" lon="11.4799262"><ele>1057.0</ele><time>2026-04-26T15:11:15.015Z</time></trkpt><trkpt lat="46.4054374" lon="11.479787"><ele>1057.0</ele><time>2026-04-26T15:11:16.015Z</time></trkpt><trkpt lat="46.4052953" lon="11.4796585"><ele>1059.3333333333333</ele><time>2026-04-26T15:11:17.015Z</time></trkpt><trkpt lat="46.4051469" lon="11.4795316"><ele>1061.6666666666667</ele><time>2026-04-26T15:11:18.015Z</time></trkpt><trkpt lat="46.4049923" lon="11.4794048"><ele>1064.0</ele><time>2026-04-26T15:11:19.015Z</time></trkpt><trkpt lat="46.4048315" lon="11.4792799"><ele>1064.0</ele><time>2026-04-26T15:11:20.015Z</time></trkpt><trkpt lat="46.4046662" lon="11.4791598"><ele>1064.0</ele><time>2026-04-26T15:11:21.015Z</time></trkpt><trkpt lat="46.404492" lon="11.479047"><ele>1064.0</ele><time>2026-04-26T15:11:22.015Z</time></trkpt><trkpt lat="46.4043123" lon="11.4789457"><ele>1064.3333333333335</ele><time>2026-04-26T15:11:23.015Z</time></trkpt><trkpt lat="46.4041302" lon="11.4788534"><ele>1064.6666666666667</ele><time>2026-04-26T15:11:24.015Z</time></trkpt><trkpt lat="46.4039555" lon="11.4787577"><ele>1065.0</ele><time>2026-04-26T15:11:25.015Z</time></trkpt><trkpt lat="46.4037933" lon="11.47865"><ele>1070.0</ele><time>2026-04-26T15:11:26.015Z</time></trkpt><trkpt lat="46.4036547" lon="11.4785219"><ele>1075.0</ele><time>2026-04-26T15:11:27.015Z</time></trkpt><trkpt lat="46.4035391" lon="11.4783634"><ele>1080.0</ele><time>2026-04-26T15:11:28.015Z</time></trkpt><trkpt lat="46.4034429" lon="11.478175"><ele>1080.0</ele><time>2026-04-26T15:11:29.015Z</time></trkpt><trkpt lat="46.4033642" lon="11.4779584"><ele>1080.0</ele><time>2026-04-26T15:11:30.015Z</time></trkpt><trkpt lat="46.40328" lon="11.4777589"><ele>1080.0</ele><time>2026-04-26T15:11:31.015Z</time></trkpt><trkpt lat="46.4031742" lon="11.4775962"><ele>1080.3333333333333</ele><time>2026-04-26T15:11:32.015Z</time></trkpt><trkpt lat="46.4030479" lon="11.4774751"><ele>1080.6666666666665</ele><time>2026-04-26T15:11:33.015Z</time></trkpt><trkpt lat="46.402904" lon="11.4774029"><ele>1081.0</ele><time>2026-04-26T15:11:34.016Z</time></trkpt><trkpt lat="46.4027522" lon="11.4773566"><ele>1081.6666666666665</ele><time>2026-04-26T15:11:35.016Z</time></trkpt><trkpt lat="46.40259" lon="11.47736"><ele>1082.3333333333333</ele><time>2026-04-26T15:11:36.015Z</time></trkpt><trkpt lat="46.4024134" lon="11.4774026"><ele>1083.0</ele><time>2026-04-26T15:11:37.015Z</time></trkpt><trkpt lat="46.4022275" lon="11.4774652"><ele>1088.3333333333333</ele><time>2026-04-26T15:11:38.015Z</time></trkpt><trkpt lat="46.4020296" lon="11.4775299"><ele>1093.6666666666665</ele><time>2026-04-26T15:11:39.015Z</time></trkpt><trkpt lat="46.4018283" lon="11.477581"><ele>1099.0</ele><time>2026-04-26T15:11:40.015Z</time></trkpt><trkpt lat="46.4016291" lon="11.4776291"><ele>1099.0</ele><time>2026-04-26T15:11:41.015Z</time></trkpt><trkpt lat="46.4014214" lon="11.4776794"><ele>1099.0</ele><time>2026-04-26T15:11:42.015Z</time></trkpt><trkpt lat="46.4012054" lon="11.4777338"><ele>1099.0</ele><time>2026-04-26T15:11:43.015Z</time></trkpt><trkpt lat="46.4009897" lon="11.4777909"><ele>1102.0</ele><time>2026-04-26T15:11:44.015Z</time></trkpt><trkpt lat="46.400777" lon="11.4778494"><ele>1105.0</ele><time>2026-04-26T15:11:45.015Z</time></trkpt><trkpt lat="46.4005665" lon="11.4778983"><ele>1108.0</ele><time>2026-04-26T15:11:46.015Z</time></trkpt><trkpt lat="46.4003614" lon="11.4779442"><ele>1111.6666666666665</ele><time>2026-04-26T15:11:47.015Z</time></trkpt><trkpt lat="46.4001611" lon="11.477984"><ele>1115.3333333333333</ele><time>2026-04-26T15:11:48.015Z</time></trkpt><trkpt lat="46.3999563" lon="11.4780074"><ele>1119.0</ele><time>2026-04-26T15:11:49.015Z</time></trkpt><trkpt lat="46.3997473" lon="11.4780045"><ele>1115.3333333333333</ele><time>2026-04-26T15:11:50.015Z</time></trkpt><trkpt lat="46.3995394" lon="11.4779655"><ele>1111.6666666666665</ele><time>2026-04-26T15:11:51.015Z</time></trkpt><trkpt lat="46.399331" lon="11.4778897"><ele>1108.0</ele><time>2026-04-26T15:11:52.015Z</time></trkpt><trkpt lat="46.3991276" lon="11.4777783"><ele>1108.0</ele><time>2026-04-26T15:11:53.015Z</time></trkpt><trkpt lat="46.3989388" lon="11.4776276"><ele>1108.0</ele><time>2026-04-26T15:11:54.016Z</time></trkpt><trkpt lat="46.3987697" lon="11.477449"><ele>1108.0</ele><time>2026-04-26T15:11:55.015Z</time></trkpt><trkpt lat="46.3986011" lon="11.4773035"><ele>1114.6666666666665</ele><time>2026-04-26T15:11:56.016Z</time></trkpt><trkpt lat="46.3984302" lon="11.4771877"><ele>1121.3333333333333</ele><time>2026-04-26T15:11:57.015Z</time></trkpt><trkpt lat="46.398257" lon="11.4770923"><ele>1128.0</ele><time>2026-04-26T15:11:58.015Z</time></trkpt><trkpt lat="46.398085" lon="11.4770419"><ele>1134.6666666666667</ele><time>2026-04-26T15:11:59.015Z</time></trkpt><trkpt lat="46.397909" lon="11.4770249"><ele>1141.3333333333335</ele><time>2026-04-26T15:12:00.015Z</time></trkpt><trkpt lat="46.3977358" lon="11.4770543"><ele>1148.0</ele><time>2026-04-26T15:12:01.015Z</time></trkpt><trkpt lat="46.3975632" lon="11.4771057"><ele>1148.0</ele><time>2026-04-26T15:12:02.015Z</time></trkpt><trkpt lat="46.3973973" lon="11.4772054"><ele>1148.0</ele><time>2026-04-26T15:12:03.015Z</time></trkpt><trkpt lat="46.397233" lon="11.477332"><ele>1148.0</ele><time>2026-04-26T15:12:04.015Z</time></trkpt><trkpt lat="46.3970815" lon="11.4774598"><ele>1149.6666666666667</ele><time>2026-04-26T15:12:05.015Z</time></trkpt><trkpt lat="46.3969261" lon="11.4775688"><ele>1151.3333333333333</ele><time>2026-04-26T15:12:06.015Z</time></trkpt><trkpt lat="46.3967568" lon="11.4776595"><ele>1153.0</ele><time>2026-04-26T15:12:07.015Z</time></trkpt><trkpt lat="46.3965663" lon="11.477722"><ele>1153.0</ele><time>2026-04-26T15:12:08.015Z</time></trkpt><trkpt lat="46.3963765" lon="11.4777687"><ele>1153.0</ele><time>2026-04-26T15:12:09.015Z</time></trkpt><trkpt lat="46.3961845" lon="11.4778083"><ele>1153.0</ele><time>2026-04-26T15:12:10.015Z</time></trkpt><trkpt lat="46.3959956" lon="11.4778577"><ele>1154.6666666666665</ele><time>2026-04-26T15:12:11.015Z</time></trkpt><trkpt lat="46.3957993" lon="11.477921"><ele>1156.3333333333333</ele><time>2026-04-26T15:12:12.015Z</time></trkpt><trkpt lat="46.3956122" lon="11.4779885"><ele>1158.0</ele><time>2026-04-26T15:12:13.015Z</time></trkpt><trkpt lat="46.3954235" lon="11.4780606"><ele>1152.0</ele><time>2026-04-26T15:12:14.015Z</time></trkpt><trkpt lat="46.39524" lon="11.4781293"><ele>1146.0</ele><time>2026-04-26T15:12:15.015Z</time></trkpt><trkpt lat="46.3950583" lon="11.4782025"><ele>1140.0</ele><time>2026-04-26T15:12:16.015Z</time></trkpt><trkpt lat="46.3948794" lon="11.4782788"><ele>1140.0</ele><time>2026-04-26T15:12:17.016Z</time></trkpt><trkpt lat="46.3947089" lon="11.4783501"><ele>1140.0</ele><time>2026-04-26T15:12:18.015Z</time></trkpt><trkpt lat="46.3945469" lon="11.4784388"><ele>1140.0</ele><time>2026-04-26T15:12:19.015Z</time></trkpt><trkpt lat="46.3944067" lon="11.4785581"><ele>1143.3333333333333</ele><time>2026-04-26T15:12:20.015Z</time></trkpt><trkpt lat="46.3942757" lon="11.4787053"><ele>1146.6666666666665</ele><time>2026-04-26T15:12:21.015Z</time></trkpt><trkpt lat="46.3941437" lon="11.4788607"><ele>1150.0</ele><time>2026-04-26T15:12:22.016Z</time></trkpt><trkpt lat="46.3940115" lon="11.4790224"><ele>1150.0</ele><time>2026-04-26T15:12:23.015Z</time></trkpt><trkpt lat="46.3938841" lon="11.479181"><ele>1150.0</ele><time>2026-04-26T15:12:24.015Z</time></trkpt><trkpt lat="46.3937596" lon="11.4793385"><ele>1150.0</ele><time>2026-04-26T15:12:25.015Z</time></trkpt><trkpt lat="46.3936262" lon="11.4794799"><ele>1155.3333333333333</ele><time>2026-04-26T15:12:26.015Z</time></trkpt><trkpt lat="46.3934815" lon="11.4795935"><ele>1160.6666666666667</ele><time>2026-04-26T15:12:27.014Z</time></trkpt><trkpt lat="46.3933329" lon="11.479682"><ele>1166.0</ele><time>2026-04-26T15:12:28.014Z</time></trkpt><trkpt lat="46.3931759" lon="11.479767"><ele>1166.0</ele><time>2026-04-26T15:12:29.015Z</time></trkpt><trkpt lat="46.3930072" lon="11.4798541"><ele>1166.0</ele><time>2026-04-26T15:12:30.015Z</time></trkpt><trkpt lat="46.3928415" lon="11.4799521"><ele>1166.0</ele><time>2026-04-26T15:12:31.014Z</time></trkpt><trkpt lat="46.3926802" lon="11.4800772"><ele>1169.3333333333335</ele><time>2026-04-26T15:12:32.015Z</time></trkpt><trkpt lat="46.392544" lon="11.4802288"><ele>1172.6666666666667</ele><time>2026-04-26T15:12:33.014Z</time></trkpt><trkpt lat="46.3924115" lon="11.4804004"><ele>1176.0</ele><time>2026-04-26T15:12:34.014Z</time></trkpt><trkpt lat="46.3923081" lon="11.4806069"><ele>1176.0</ele><time>2026-04-26T15:12:35.014Z</time></trkpt><trkpt lat="46.3922274" lon="11.4808218"><ele>1176.0</ele><time>2026-04-26T15:12:36.014Z</time></trkpt><trkpt lat="46.3921658" lon="11.4810518"><ele>1176.0</ele><time>2026-04-26T15:12:37.014Z</time></trkpt><trkpt lat="46.3921296" lon="11.4812817"><ele>1183.0</ele><time>2026-04-26T15:12:38.014Z</time></trkpt><trkpt lat="46.3921091" lon="11.4815248"><ele>1190.0</ele><time>2026-04-26T15:12:39.014Z</time></trkpt><trkpt lat="46.3920991" lon="11.4817734"><ele>1197.0</ele><time>2026-04-26T15:12:40.014Z</time></trkpt><trkpt lat="46.3920791" lon="11.4820047"><ele>1195.0</ele><time>2026-04-26T15:12:41.014Z</time></trkpt><trkpt lat="46.3920516" lon="11.4822285"><ele>1193.0</ele><time>2026-04-26T15:12:42.014Z</time></trkpt><trkpt lat="46.392005" lon="11.4824211"><ele>1191.0</ele><time>2026-04-26T15:12:43.014Z</time></trkpt><trkpt lat="46.391929" lon="11.4825776"><ele>1189.0</ele><time>2026-04-26T15:12:44.014Z</time></trkpt><trkpt lat="46.3918359" lon="11.4826964"><ele>1189.0</ele><time>2026-04-26T15:12:45.014Z</time></trkpt><trkpt lat="46.3917138" lon="11.482801"><ele>1189.0</ele><time>2026-04-26T15:12:46.014Z</time></trkpt><trkpt lat="46.3915766" lon="11.4828834"><ele>1189.0</ele><time>2026-04-26T15:12:47.014Z</time></trkpt><trkpt lat="46.3914356" lon="11.4829582"><ele>1189.0</ele><time>2026-04-26T15:12:48.014Z</time></trkpt><trkpt lat="46.391295" lon="11.4830338"><ele>1194.0</ele><time>2026-04-26T15:12:49.014Z</time></trkpt><trkpt lat="46.3911618" lon="11.483127"><ele>1199.0</ele><time>2026-04-26T15:12:50.014Z</time></trkpt><trkpt lat="46.3910467" lon="11.4832439"><ele>1204.0</ele><time>2026-04-26T15:12:51.015Z</time></trkpt><trkpt lat="46.3909579" lon="11.4834047"><ele>1209.0</ele><time>2026-04-26T15:12:52.015Z</time></trkpt><trkpt lat="46.3909065" lon="11.4835953"><ele>1211.3333333333333</ele><time>2026-04-26T15:12:53.014Z</time></trkpt><trkpt lat="46.3908753" lon="11.4838146"><ele>1213.6666666666665</ele><time>2026-04-26T15:12:54.014Z</time></trkpt><trkpt lat="46.390855" lon="11.4840485"><ele>1216.0</ele><time>2026-04-26T15:12:55.014Z</time></trkpt><trkpt lat="46.3908438" lon="11.4842827"><ele>1216.0</ele><time>2026-04-26T15:12:56.014Z</time></trkpt><trkpt lat="46.3908218" lon="11.4845158"><ele>1216.0</ele><time>2026-04-26T15:12:57.014Z</time></trkpt><trkpt lat="46.3907927" lon="11.4847404"><ele>1216.0</ele><time>2026-04-26T15:12:58.014Z</time></trkpt><trkpt lat="46.390744" lon="11.4849507"><ele>1215.3333333333333</ele><time>2026-04-26T15:12:59.014Z</time></trkpt><trkpt lat="46.3906758" lon="11.485154"><ele>1214.6666666666667</ele><time>2026-04-26T15:13:00.014Z</time></trkpt><trkpt lat="46.3905848" lon="11.4853301"><ele>1214.0</ele><time>2026-04-26T15:13:01.014Z</time></trkpt><trkpt lat="46.3904857" lon="11.4854964"><ele>1219.5</ele><time>2026-04-26T15:13:02.014Z</time></trkpt><trkpt lat="46.3903918" lon="11.4856561"><ele>1225.0</ele><time>2026-04-26T15:13:03.014Z</time></trkpt><trkpt lat="46.3903115" lon="11.4858175"><ele>1230.5</ele><time>2026-04-26T15:13:04.014Z</time></trkpt><trkpt lat="46.3902582" lon="11.4859853"><ele>1236.0</ele><time>2026-04-26T15:13:05.014Z</time></trkpt><trkpt lat="46.3902434" lon="11.4861657"><ele>1237.5</ele><time>2026-04-26T15:13:06.014Z</time></trkpt><trkpt lat="46.3902566" lon="11.4863484"><ele>1239.0</ele><time>2026-04-26T15:13:07.014Z</time></trkpt><trkpt lat="46.3903026" lon="11.4865423"><ele>1240.5</ele><time>2026-04-26T15:13:08.014Z</time></trkpt><trkpt lat="46.3903468" lon="11.4867362"><ele>1242.0</ele><time>2026-04-26T15:13:09.014Z</time></trkpt><trkpt lat="46.3903636" lon="11.4869266"><ele>1243.75</ele><time>2026-04-26T15:13:10.014Z</time></trkpt><trkpt lat="46.3903481" lon="11.4871101"><ele>1245.5</ele><time>2026-04-26T15:13:11.014Z</time></trkpt><trkpt lat="46.3903019" lon="11.4872887"><ele>1247.25</ele><time>2026-04-26T15:13:12.014Z</time></trkpt><trkpt lat="46.3902304" lon="11.48746"><ele>1249.0</ele><time>2026-04-26T15:13:13.014Z</time></trkpt><trkpt lat="46.3901484" lon="11.4876389"><ele>1249.0</ele><time>2026-04-26T15:13:14.014Z</time></trkpt><trkpt lat="46.3900595" lon="11.4878299"><ele>1249.0</ele><time>2026-04-26T15:13:15.015Z</time></trkpt><trkpt lat="46.389983" lon="11.4880237"><ele>1249.0</ele><time>2026-04-26T15:13:16.014Z</time></trkpt><trkpt lat="46.3899262" lon="11.4882163"><ele>1246.25</ele><time>2026-04-26T15:13:17.014Z</time></trkpt><trkpt lat="46.3898674" lon="11.4883914"><ele>1243.5</ele><time>2026-04-26T15:13:18.014Z</time></trkpt><trkpt lat="46.3898097" lon="11.4885625"><ele>1240.75</ele><time>2026-04-26T15:13:19.014Z</time></trkpt><trkpt lat="46.3897369" lon="11.4887269"><ele>1238.0</ele><time>2026-04-26T15:13:20.015Z</time></trkpt><trkpt lat="46.3896524" lon="11.48888"><ele>1245.0</ele><time>2026-04-26T15:13:21.014Z</time></trkpt><trkpt lat="46.3895776" lon="11.4890418"><ele>1252.0</ele><time>2026-04-26T15:13:22.014Z</time></trkpt><trkpt lat="46.3895307" lon="11.4892137"><ele>1259.0</ele><time>2026-04-26T15:13:23.014Z</time></trkpt><trkpt lat="46.3895076" lon="11.4893951"><ele>1266.0</ele><time>2026-04-26T15:13:24.015Z</time></trkpt><trkpt lat="46.3895258" lon="11.4895881"><ele>1265.25</ele><time>2026-04-26T15:13:25.015Z</time></trkpt><trkpt lat="46.3895651" lon="11.4897881"><ele>1264.5</ele><time>2026-04-26T15:13:26.014Z</time></trkpt><trkpt lat="46.3896068" lon="11.4899993"><ele>1263.75</ele><time>2026-04-26T15:13:27.014Z</time></trkpt><trkpt lat="46.3896364" lon="11.4902107"><ele>1263.0</ele><time>2026-04-26T15:13:28.014Z</time></trkpt><trkpt lat="46.3896459" lon="11.4904211"><ele>1265.5</ele><time>2026-04-26T15:13:29.014Z</time></trkpt><trkpt lat="46.3896286" lon="11.4906225"><ele>1268.0</ele><time>2026-04-26T15:13:30.014Z</time></trkpt><trkpt lat="46.3896099" lon="11.490826"><ele>1270.5</ele><time>2026-04-26T15:13:31.014Z</time></trkpt><trkpt lat="46.3895948" lon="11.4910236"><ele>1273.0</ele><time>2026-04-26T15:13:32.014Z</time></trkpt><trkpt lat="46.3895981" lon="11.4912175"><ele>1271.75</ele><time>2026-04-26T15:13:33.014Z</time></trkpt><trkpt lat="46.3896271" lon="11.4914074"><ele>1270.5</ele><time>2026-04-26T15:13:34.014Z</time></trkpt><trkpt lat="46.3896587" lon="11.4915869"><ele>1269.25</ele><time>2026-04-26T15:13:35.014Z</time></trkpt><trkpt lat="46.3896836" lon="11.4917668"><ele>1268.0</ele><time>2026-04-26T15:13:36.014Z</time></trkpt><trkpt lat="46.3896968" lon="11.4919388"><ele>1268.25</ele><time>2026-04-26T15:13:37.015Z</time></trkpt><trkpt lat="46.3896902" lon="11.4921082"><ele>1268.5</ele><time>2026-04-26T15:13:38.014Z</time></trkpt><trkpt lat="46.3896467" lon="11.4922814"><ele>1268.75</ele><time>2026-04-26T15:13:39.014Z</time></trkpt><trkpt lat="46.3895651" lon="11.4924456"><ele>1269.0</ele><time>2026-04-26T15:13:40.014Z</time></trkpt><trkpt lat="46.3894797" lon="11.4926194"><ele>1270.25</ele><time>2026-04-26T15:13:41.014Z</time></trkpt><trkpt lat="46.3894211" lon="11.4927939"><ele>1271.5</ele><time>2026-04-26T15:13:42.014Z</time></trkpt><trkpt lat="46.3893827" lon="11.4929718"><ele>1272.75</ele><time>2026-04-26T15:13:43.014Z</time></trkpt><trkpt lat="46.3893612" lon="11.4931521"><ele>1274.0</ele><time>2026-04-26T15:13:44.014Z</time></trkpt><trkpt lat="46.3893522" lon="11.4933429"><ele>1274.0</ele><time>2026-04-26T15:13:45.014Z</time></trkpt><trkpt lat="46.3893437" lon="11.493533"><ele>1274.0</ele><time>2026-04-26T15:13:46.014Z</time></trkpt><trkpt lat="46.38931" lon="11.493721"><ele>1274.0</ele><time>2026-04-26T15:13:47.014Z</time></trkpt><trkpt lat="46.3892487" lon="11.493911"><ele>1274.0</ele><time>2026-04-26T15:13:48.014Z</time></trkpt><trkpt lat="46.3891638" lon="11.4941012"><ele>1272.6666666666667</ele><time>2026-04-26T15:13:49.014Z</time></trkpt><trkpt lat="46.3890652" lon="11.4942808"><ele>1271.3333333333333</ele><time>2026-04-26T15:13:50.014Z</time></trkpt><trkpt lat="46.3889618" lon="11.4944498"><ele>1270.0</ele><time>2026-04-26T15:13:51.014Z</time></trkpt><trkpt lat="46.3888576" lon="11.4946081"><ele>1273.25</ele><time>2026-04-26T15:13:52.014Z</time></trkpt><trkpt lat="46.3887508" lon="11.4947534"><ele>1276.5</ele><time>2026-04-26T15:13:53.014Z</time></trkpt><trkpt lat="46.3886318" lon="11.4948801"><ele>1279.75</ele><time>2026-04-26T15:13:54.014Z</time></trkpt><trkpt lat="46.3885131" lon="11.4949904"><ele>1283.0</ele><time>2026-04-26T15:13:55.014Z</time></trkpt><trkpt lat="46.3883923" lon="11.4950928"><ele>1283.0</ele><time>2026-04-26T15:13:56.015Z</time></trkpt><trkpt lat="46.3882713" lon="11.4951902"><ele>1283.0</ele><time>2026-04-26T15:13:57.014Z</time></trkpt><trkpt lat="46.3881509" lon="11.4952858"><ele>1283.0</ele><time>2026-04-26T15:13:58.014Z</time></trkpt><trkpt lat="46.3880339" lon="11.4953856"><ele>1283.0</ele><time>2026-04-26T15:13:59.014Z</time></trkpt><trkpt lat="46.3879186" lon="11.4954994"><ele>1283.25</ele><time>2026-04-26T15:14:00.014Z</time></trkpt><trkpt lat="46.3878064" lon="11.4956236"><ele>1283.5</ele><time>2026-04-26T15:14:01.014Z</time></trkpt><trkpt lat="46.3876981" lon="11.4957533"><ele>1283.75</ele><time>2026-04-26T15:14:02.014Z</time></trkpt><trkpt lat="46.3875933" lon="11.4958843"><ele>1284.0</ele><time>2026-04-26T15:14:03.014Z</time></trkpt><trkpt lat="46.3874871" lon="11.4960041"><ele>1284.0</ele><time>2026-04-26T15:14:04.014Z</time></trkpt><trkpt lat="46.3873748" lon="11.496107"><ele>1284.0</ele><time>2026-04-26T15:14:05.014Z</time></trkpt><trkpt lat="46.3872585" lon="11.4961965"><ele>1284.0</ele><time>2026-04-26T15:14:06.014Z</time></trkpt><trkpt lat="46.3871405" lon="11.4962682"><ele>1284.0</ele><time>2026-04-26T15:14:07.014Z</time></trkpt><trkpt lat="46.3870316" lon="11.4963239"><ele>1285.0</ele><time>2026-04-26T15:14:08.014Z</time></trkpt><trkpt lat="46.3869395" lon="11.4963578"><ele>1286.0</ele><time>2026-04-26T15:14:09.014Z</time></trkpt><trkpt lat="46.3868667" lon="11.4963873"><ele>1287.0</ele><time>2026-04-26T15:14:10.014Z</time></trkpt><trkpt lat="46.3867949" lon="11.4964047"><ele>1288.0</ele><time>2026-04-26T15:14:11.014Z</time></trkpt><trkpt lat="46.3867119" lon="11.4964128"><ele>1289.0</ele><time>2026-04-26T15:14:12.014Z</time></trkpt><trkpt lat="46.3866246" lon="11.4964271"><ele>1290.0</ele><time>2026-04-26T15:14:13.015Z</time></trkpt><trkpt lat="46.3865314" lon="11.4964321"><ele>1290.0</ele><time>2026-04-26T15:14:14.014Z</time></trkpt><trkpt lat="46.3864312" lon="11.4964351"><ele>1290.0</ele><time>2026-04-26T15:14:15.014Z</time></trkpt><trkpt lat="46.3863326" lon="11.4964471"><ele>1290.0</ele><time>2026-04-26T15:14:16.014Z</time></trkpt><trkpt lat="46.3862342" lon="11.4964799"><ele>1290.0</ele><time>2026-04-26T15:14:17.014Z</time></trkpt><trkpt lat="46.3861247" lon="11.4965435"><ele>1290.0</ele><time>2026-04-26T15:14:18.014Z</time></trkpt><trkpt lat="46.3860157" lon="11.4966193"><ele>1292.75</ele><time>2026-04-26T15:14:19.014Z</time></trkpt><trkpt lat="46.3859053" lon="11.4966967"><ele>1295.5</ele><time>2026-04-26T15:14:20.014Z</time></trkpt><trkpt lat="46.3857825" lon="11.4967479"><ele>1298.25</ele><time>2026-04-26T15:14:21.014Z</time></trkpt><trkpt lat="46.3856491" lon="11.4967892"><ele>1301.0</ele><time>2026-04-26T15:14:22.014Z</time></trkpt><trkpt lat="46.3855062" lon="11.496814"><ele>1309.6666666666667</ele><time>2026-04-26T15:14:23.014Z</time></trkpt><trkpt lat="46.3853487" lon="11.496831"><ele>1318.3333333333333</ele><time>2026-04-26T15:14:24.014Z</time></trkpt><trkpt lat="46.3851809" lon="11.4968531"><ele>1327.0</ele><time>2026-04-26T15:14:25.014Z</time></trkpt><trkpt lat="46.3849963" lon="11.4968895"><ele>1327.0</ele><time>2026-04-26T15:14:26.014Z</time></trkpt><trkpt lat="46.384786" lon="11.4969372"><ele>1327.0</ele><time>2026-04-26T15:14:27.014Z</time></trkpt><trkpt lat="46.3845702" lon="11.4969904"><ele>1327.0</ele><time>2026-04-26T15:14:28.014Z</time></trkpt><trkpt lat="46.3843409" lon="11.4970575"><ele>1328.5</ele><time>2026-04-26T15:14:29.014Z</time></trkpt><trkpt lat="46.3840966" lon="11.4971286"><ele>1330.0</ele><time>2026-04-26T15:14:30.014Z</time></trkpt><trkpt lat="46.3838403" lon="11.4972182"><ele>1337.5</ele><time>2026-04-26T15:14:31.014Z</time></trkpt><trkpt lat="46.3835903" lon="11.4973241"><ele>1345.0</ele><time>2026-04-26T15:14:32.014Z</time></trkpt><trkpt lat="46.3833408" lon="11.4974526"><ele>1345.0</ele><time>2026-04-26T15:14:33.014Z</time></trkpt><trkpt lat="46.3831011" lon="11.4975977"><ele>1345.0</ele><time>2026-04-26T15:14:34.014Z</time></trkpt><trkpt lat="46.3828576" lon="11.4977581"><ele>1349.5</ele><time>2026-04-26T15:14:35.015Z</time></trkpt><trkpt lat="46.3826174" lon="11.497923"><ele>1354.0</ele><time>2026-04-26T15:14:36.014Z</time></trkpt><trkpt lat="46.3823825" lon="11.4980923"><ele>1363.5</ele><time>2026-04-26T15:14:37.014Z</time></trkpt><trkpt lat="46.3821556" lon="11.4982662"><ele>1373.0</ele><time>2026-04-26T15:14:38.014Z</time></trkpt><trkpt lat="46.3819515" lon="11.49845"><ele>1373.0</ele><time>2026-04-26T15:14:39.014Z</time></trkpt><trkpt lat="46.3817658" lon="11.4986286"><ele>1373.0</ele><time>2026-04-26T15:14:40.014Z</time></trkpt><trkpt lat="46.3815945" lon="11.4988054"><ele>1373.0</ele><time>2026-04-26T15:14:41.014Z</time></trkpt><trkpt lat="46.3814258" lon="11.4989568"><ele>1375.3333333333335</ele><time>2026-04-26T15:14:42.014Z</time></trkpt><trkpt lat="46.3812523" lon="11.4990985"><ele>1377.6666666666667</ele><time>2026-04-26T15:14:43.014Z</time></trkpt><trkpt lat="46.3810747" lon="11.4992326"><ele>1380.0</ele><time>2026-04-26T15:14:44.014Z</time></trkpt><trkpt lat="46.3808894" lon="11.4993468"><ele>1380.0</ele><time>2026-04-26T15:14:45.014Z</time></trkpt><trkpt lat="46.3807041" lon="11.4994589"><ele>1380.0</ele><time>2026-04-26T15:14:46.014Z</time></trkpt><trkpt lat="46.3805161" lon="11.499575"><ele>1380.0</ele><time>2026-04-26T15:14:47.015Z</time></trkpt><trkpt lat="46.3803283" lon="11.4996945"><ele>1377.3333333333333</ele><time>2026-04-26T15:14:48.014Z</time></trkpt><trkpt lat="46.3801346" lon="11.4998067"><ele>1374.6666666666665</ele><time>2026-04-26T15:14:49.014Z</time></trkpt><trkpt lat="46.379936" lon="11.4999108"><ele>1372.0</ele><time>2026-04-26T15:14:50.014Z</time></trkpt><trkpt lat="46.3797297" lon="11.5000112"><ele>1380.0</ele><time>2026-04-26T15:14:51.014Z</time></trkpt><trkpt lat="46.3795237" lon="11.5001112"><ele>1388.0</ele><time>2026-04-26T15:14:52.014Z</time></trkpt><trkpt lat="46.3793109" lon="11.5002088"><ele>1396.0</ele><time>2026-04-26T15:14:53.014Z</time></trkpt><trkpt lat="46.3790966" lon="11.5003075"><ele>1396.0</ele><time>2026-04-26T15:14:54.014Z</time></trkpt><trkpt lat="46.3788785" lon="11.5004067"><ele>1396.0</ele><time>2026-04-26T15:14:55.014Z</time></trkpt><trkpt lat="46.378662" lon="11.5005032"><ele>1400.5</ele><time>2026-04-26T15:14:56.014Z</time></trkpt><trkpt lat="46.3784432" lon="11.5006046"><ele>1405.0</ele><time>2026-04-26T15:14:57.015Z</time></trkpt><trkpt lat="46.3782254" lon="11.5007132"><ele>1415.5</ele><time>2026-04-26T15:14:58.014Z</time></trkpt><trkpt lat="46.3780038" lon="11.5008359"><ele>1426.0</ele><time>2026-04-26T15:14:59.014Z</time></trkpt><trkpt lat="46.3777801" lon="11.5009604"><ele>1426.0</ele><time>2026-04-26T15:15:00.014Z</time></trkpt><trkpt lat="46.3775569" lon="11.5011012"><ele>1426.0</ele><time>2026-04-26T15:15:01.015Z</time></trkpt><trkpt lat="46.377334" lon="11.5012505"><ele>1428.0</ele><time>2026-04-26T15:15:02.014Z</time></trkpt><trkpt lat="46.377113" lon="11.5014046"><ele>1430.0</ele><time>2026-04-26T15:15:03.014Z</time></trkpt><trkpt lat="46.3768864" lon="11.5015573"><ele>1430.0</ele><time>2026-04-26T15:15:04.014Z</time></trkpt><trkpt lat="46.376661" lon="11.5016878"><ele>1430.0</ele><time>2026-04-26T15:15:05.014Z</time></trkpt><trkpt lat="46.3764465" lon="11.501791"><ele>1430.3333333333335</ele><time>2026-04-26T15:15:06.014Z</time></trkpt><trkpt lat="46.3762531" lon="11.501878"><ele>1430.6666666666667</ele><time>2026-04-26T15:15:07.014Z</time></trkpt><trkpt lat="46.3760675" lon="11.5019718"><ele>1431.0</ele><time>2026-04-26T15:15:08.014Z</time></trkpt><trkpt lat="46.3758796" lon="11.5020831"><ele>1431.0</ele><time>2026-04-26T15:15:09.014Z</time></trkpt><trkpt lat="46.3756902" lon="11.5022135"><ele>1431.0</ele><time>2026-04-26T15:15:10.014Z</time></trkpt><trkpt lat="46.375504" lon="11.5023734"><ele>1431.0</ele><time>2026-04-26T15:15:11.014Z</time></trkpt><trkpt lat="46.3753278" lon="11.5025529"><ele>1435.6666666666667</ele><time>2026-04-26T15:15:12.014Z</time></trkpt><trkpt lat="46.3751587" lon="11.5027479"><ele>1440.3333333333335</ele><time>2026-04-26T15:15:13.014Z</time></trkpt><trkpt lat="46.3749933" lon="11.502952"><ele>1445.0</ele><time>2026-04-26T15:15:14.014Z</time></trkpt><trkpt lat="46.3748308" lon="11.5031396"><ele>1454.0</ele><time>2026-04-26T15:15:15.014Z</time></trkpt><trkpt lat="46.3746669" lon="11.5033073"><ele>1463.0</ele><time>2026-04-26T15:15:16.014Z</time></trkpt><trkpt lat="46.3745056" lon="11.5034506"><ele>1472.0</ele><time>2026-04-26T15:15:17.014Z</time></trkpt><trkpt lat="46.3743454" lon="11.5035863"><ele>1472.0</ele><time>2026-04-26T15:15:18.014Z</time></trkpt><trkpt lat="46.3741892" lon="11.5037361"><ele>1472.0</ele><time>2026-04-26T15:15:19.014Z</time></trkpt><trkpt lat="46.3740467" lon="11.5039168"><ele>1472.0</ele><time>2026-04-26T15:15:20.014Z</time></trkpt><trkpt lat="46.3739112" lon="11.5041266"><ele>1474.6666666666667</ele><time>2026-04-26T15:15:21.014Z</time></trkpt><trkpt lat="46.3737951" lon="11.5043639"><ele>1477.3333333333333</ele><time>2026-04-26T15:15:22.014Z</time></trkpt><trkpt lat="46.3736852" lon="11.504596"><ele>1480.0</ele><time>2026-04-26T15:15:23.014Z</time></trkpt><trkpt lat="46.3735582" lon="11.504819"><ele>1479.6666666666665</ele><time>2026-04-26T15:15:24.014Z</time></trkpt><trkpt lat="46.3734234" lon="11.5050368"><ele>1479.3333333333333</ele><time>2026-04-26T15:15:25.014Z</time></trkpt><trkpt lat="46.3732872" lon="11.5052517"><ele>1479.0</ele><time>2026-04-26T15:15:26.014Z</time></trkpt><trkpt lat="46.3731492" lon="11.5054711"><ele>1478.3333333333333</ele><time>2026-04-26T15:15:27.014Z</time></trkpt><trkpt lat="46.3730112" lon="11.505693"><ele>1477.6666666666665</ele><time>2026-04-26T15:15:28.014Z</time></trkpt><trkpt lat="46.3728754" lon="11.5059231"><ele>1477.0</ele><time>2026-04-26T15:15:29.015Z</time></trkpt><trkpt lat="46.3727389" lon="11.5061563"><ele>1481.3333333333333</ele><time>2026-04-26T15:15:30.014Z</time></trkpt><trkpt lat="46.3725991" lon="11.5063795"><ele>1485.6666666666667</ele><time>2026-04-26T15:15:31.014Z</time></trkpt><trkpt lat="46.3724674" lon="11.5066009"><ele>1490.0</ele><time>2026-04-26T15:15:32.014Z</time></trkpt><trkpt lat="46.3723197" lon="11.5067983"><ele>1490.6666666666667</ele><time>2026-04-26T15:15:33.014Z</time></trkpt><trkpt lat="46.3721596" lon="11.5069589"><ele>1491.3333333333333</ele><time>2026-04-26T15:15:34.014Z</time></trkpt><trkpt lat="46.3719907" lon="11.5071119"><ele>1492.0</ele><time>2026-04-26T15:15:35.014Z</time></trkpt><trkpt lat="46.3718244" lon="11.5072756"><ele>1494.6666666666665</ele><time>2026-04-26T15:15:36.014Z</time></trkpt><trkpt lat="46.3716606" lon="11.5074261"><ele>1497.3333333333333</ele><time>2026-04-26T15:15:37.014Z</time></trkpt><trkpt lat="46.3714974" lon="11.5075665"><ele>1500.0</ele><time>2026-04-26T15:15:38.014Z</time></trkpt><trkpt lat="46.3713457" lon="11.507707"><ele>1501.0</ele><time>2026-04-26T15:15:39.014Z</time></trkpt><trkpt lat="46.3712009" lon="11.5078626"><ele>1502.0</ele><time>2026-04-26T15:15:40.014Z</time></trkpt><trkpt lat="46.3710694" lon="11.5080488"><ele>1503.0</ele><time>2026-04-26T15:15:41.014Z</time></trkpt><trkpt lat="46.3709501" lon="11.508258"><ele>1503.3333333333333</ele><time>2026-04-26T15:15:42.014Z</time></trkpt><trkpt lat="46.3708272" lon="11.5084758"><ele>1503.6666666666665</ele><time>2026-04-26T15:15:43.014Z</time></trkpt><trkpt lat="46.3707065" lon="11.5086967"><ele>1504.0</ele><time>2026-04-26T15:15:44.014Z</time></trkpt><trkpt lat="46.3705871" lon="11.5089112"><ele>1511.3333333333333</ele><time>2026-04-26T15:15:45.014Z</time></trkpt><trkpt lat="46.3704692" lon="11.5091217"><ele>1518.6666666666667</ele><time>2026-04-26T15:15:46.014Z</time></trkpt><trkpt lat="46.3703525" lon="11.5093279"><ele>1526.0</ele><time>2026-04-26T15:15:47.014Z</time></trkpt><trkpt lat="46.3702349" lon="11.5095292"><ele>1530.0</ele><time>2026-04-26T15:15:48.015Z</time></trkpt><trkpt lat="46.3701085" lon="11.5097108"><ele>1534.0</ele><time>2026-04-26T15:15:49.015Z</time></trkpt><trkpt lat="46.3699694" lon="11.5098515"><ele>1538.0</ele><time>2026-04-26T15:15:50.014Z</time></trkpt><trkpt lat="46.3698209" lon="11.5099817"><ele>1540.6666666666665</ele><time>2026-04-26T15:15:51.014Z</time></trkpt><trkpt lat="46.3696803" lon="11.5101237"><ele>1543.3333333333335</ele><time>2026-04-26T15:15:52.014Z</time></trkpt><trkpt lat="46.3695497" lon="11.5102894"><ele>1546.0</ele><time>2026-04-26T15:15:53.015Z</time></trkpt><trkpt lat="46.3694229" lon="11.5104666"><ele>1546.0</ele><time>2026-04-26T15:15:54.014Z</time></trkpt><trkpt lat="46.3693014" lon="11.5106515"><ele>1546.0</ele><time>2026-04-26T15:15:55.014Z</time></trkpt><trkpt lat="46.369173" lon="11.510821"><ele>1546.0</ele><time>2026-04-26T15:15:56.015Z</time></trkpt><trkpt lat="46.3690359" lon="11.5109882"><ele>1546.0</ele><time>2026-04-26T15:15:57.014Z</time></trkpt><trkpt lat="46.3688963" lon="11.5111436"><ele>1546.0</ele><time>2026-04-26T15:15:58.014Z</time></trkpt><trkpt lat="46.3687563" lon="11.5112958"><ele>1546.0</ele><time>2026-04-26T15:15:59.014Z</time></trkpt><trkpt lat="46.3686097" lon="11.5114495"><ele>1549.0</ele><time>2026-04-26T15:16:00.014Z</time></trkpt><trkpt lat="46.3684625" lon="11.5115994"><ele>1552.0</ele><time>2026-04-26T15:16:01.014Z</time></trkpt><trkpt lat="46.3683198" lon="11.5117548"><ele>1555.0</ele><time>2026-04-26T15:16:02.014Z</time></trkpt><trkpt lat="46.3681766" lon="11.5119149"><ele>1557.6666666666667</ele><time>2026-04-26T15:16:03.014Z</time></trkpt><trkpt lat="46.3680433" lon="11.5120867"><ele>1560.3333333333335</ele><time>2026-04-26T15:16:04.014Z</time></trkpt><trkpt lat="46.3679219" lon="11.5122739"><ele>1563.0</ele><time>2026-04-26T15:16:05.014Z</time></trkpt><trkpt lat="46.3678046" lon="11.5124696"><ele>1563.0</ele><time>2026-04-26T15:16:06.014Z</time></trkpt><trkpt lat="46.3676966" lon="11.5126668"><ele>1563.0</ele><time>2026-04-26T15:16:07.014Z</time></trkpt><trkpt lat="46.3675889" lon="11.5128727"><ele>1563.0</ele><time>2026-04-26T15:16:08.014Z</time></trkpt><trkpt lat="46.3674955" lon="11.5130899"><ele>1566.0</ele><time>2026-04-26T15:16:09.014Z</time></trkpt><trkpt lat="46.3674198" lon="11.5133131"><ele>1569.0</ele><time>2026-04-26T15:16:10.014Z</time></trkpt><trkpt lat="46.3673612" lon="11.5135311"><ele>1572.0</ele><time>2026-04-26T15:16:11.014Z</time></trkpt><trkpt lat="46.3673109" lon="11.5137443"><ele>1574.5</ele><time>2026-04-26T15:16:12.014Z</time></trkpt><trkpt lat="46.367274" lon="11.513948"><ele>1577.0</ele><time>2026-04-26T15:16:13.015Z</time></trkpt><trkpt lat="46.3672536" lon="11.5141393"><ele>1579.5</ele><time>2026-04-26T15:16:14.014Z</time></trkpt><trkpt lat="46.3672454" lon="11.5143107"><ele>1582.0</ele><time>2026-04-26T15:16:15.015Z</time></trkpt><trkpt lat="46.367242" lon="11.5144754"><ele>1582.6</ele><time>2026-04-26T15:16:16.014Z</time></trkpt><trkpt lat="46.3672304" lon="11.5146268"><ele>1583.1999999999998</ele><time>2026-04-26T15:16:17.014Z</time></trkpt><trkpt lat="46.3672011" lon="11.5147605"><ele>1583.8</ele><time>2026-04-26T15:16:18.014Z</time></trkpt><trkpt lat="46.3671496" lon="11.5148584"><ele>1584.4</ele><time>2026-04-26T15:16:19.014Z</time></trkpt><trkpt lat="46.3670801" lon="11.514928"><ele>1585.0</ele><time>2026-04-26T15:16:20.014Z</time></trkpt><trkpt lat="46.3669916" lon="11.5149632"><ele>1585.0</ele><time>2026-04-26T15:16:21.014Z</time></trkpt><trkpt lat="46.3669026" lon="11.514947"><ele>1585.0</ele><time>2026-04-26T15:16:22.014Z</time></trkpt><trkpt lat="46.3668169" lon="11.5148897"><ele>1585.0</ele><time>2026-04-26T15:16:23.014Z</time></trkpt><trkpt lat="46.3667429" lon="11.5147713"><ele>1585.0</ele><time>2026-04-26T15:16:24.014Z</time></trkpt><trkpt lat="46.3666902" lon="11.5146263"><ele>1585.0</ele><time>2026-04-26T15:16:25.014Z</time></trkpt><trkpt lat="46.3666549" lon="11.5144457"><ele>1584.5</ele><time>2026-04-26T15:16:26.014Z</time></trkpt><trkpt lat="46.366634" lon="11.5142652"><ele>1584.0</ele><time>2026-04-26T15:16:27.014Z</time></trkpt><trkpt lat="46.366623" lon="11.5140779"><ele>1583.5</ele><time>2026-04-26T15:16:28.015Z</time></trkpt><trkpt lat="46.3666043" lon="11.5138858"><ele>1583.0</ele><time>2026-04-26T15:16:29.014Z</time></trkpt><trkpt lat="46.3665737" lon="11.5136874"><ele>1583.0</ele><time>2026-04-26T15:16:30.014Z</time></trkpt><trkpt lat="46.3665325" lon="11.5134864"><ele>1583.0</ele><time>2026-04-26T15:16:31.014Z</time></trkpt><trkpt lat="46.3664733" lon="11.5132916"><ele>1583.0</ele><time>2026-04-26T15:16:32.014Z</time></trkpt><trkpt lat="46.3664067" lon="11.5130982"><ele>1583.0</ele><time>2026-04-26T15:16:33.014Z</time></trkpt><trkpt lat="46.3663528" lon="11.5128999"><ele>1588.75</ele><time>2026-04-26T15:16:34.014Z</time></trkpt><trkpt lat="46.3663176" lon="11.5126956"><ele>1594.5</ele><time>2026-04-26T15:16:35.014Z</time></trkpt><trkpt lat="46.3662869" lon="11.5124811"><ele>1600.25</ele><time>2026-04-26T15:16:36.015Z</time></trkpt><trkpt lat="46.3662621" lon="11.5122629"><ele>1606.0</ele><time>2026-04-26T15:16:37.014Z</time></trkpt><trkpt lat="46.3662536" lon="11.5120361"><ele>1606.0</ele><time>2026-04-26T15:16:38.014Z</time></trkpt><trkpt lat="46.3662718" lon="11.5117995"><ele>1606.0</ele><time>2026-04-26T15:16:39.014Z</time></trkpt><trkpt lat="46.3663068" lon="11.5115608"><ele>1606.0</ele><time>2026-04-26T15:16:40.015Z</time></trkpt><trkpt lat="46.3663383" lon="11.511318"><ele>1609.0</ele><time>2026-04-26T15:16:41.014Z</time></trkpt><trkpt lat="46.3663506" lon="11.5110739"><ele>1612.0</ele><time>2026-04-26T15:16:42.014Z</time></trkpt><trkpt lat="46.3663411" lon="11.5108389"><ele>1615.0</ele><time>2026-04-26T15:16:43.014Z</time></trkpt><trkpt lat="46.3663314" lon="11.5106127"><ele>1612.3333333333335</ele><time>2026-04-26T15:16:44.014Z</time></trkpt><trkpt lat="46.3663348" lon="11.5103987"><ele>1609.6666666666665</ele><time>2026-04-26T15:16:45.014Z</time></trkpt><trkpt lat="46.3663606" lon="11.510187"><ele>1607.0</ele><time>2026-04-26T15:16:46.014Z</time></trkpt><trkpt lat="46.3664037" lon="11.5099667"><ele>1607.0</ele><time>2026-04-26T15:16:47.014Z</time></trkpt><trkpt lat="46.3664716" lon="11.5097389"><ele>1607.0</ele><time>2026-04-26T15:16:48.014Z</time></trkpt><trkpt lat="46.3665487" lon="11.5095124"><ele>1607.0</ele><time>2026-04-26T15:16:49.014Z</time></trkpt><trkpt lat="46.3666386" lon="11.5093098"><ele>1610.75</ele><time>2026-04-26T15:16:50.014Z</time></trkpt><trkpt lat="46.3667492" lon="11.5091544"><ele>1614.5</ele><time>2026-04-26T15:16:51.014Z</time></trkpt><trkpt lat="46.3668673" lon="11.5090264"><ele>1618.25</ele><time>2026-04-26T15:16:52.014Z</time></trkpt><trkpt lat="46.3669888" lon="11.5089336"><ele>1622.0</ele><time>2026-04-26T15:16:53.014Z</time></trkpt><trkpt lat="46.3671022" lon="11.5088505"><ele>1619.6</ele><time>2026-04-26T15:16:54.014Z</time></trkpt><trkpt lat="46.367198" lon="11.5087575"><ele>1617.1999999999998</ele><time>2026-04-26T15:16:55.014Z</time></trkpt><trkpt lat="46.367267" lon="11.5086421"><ele>1614.8</ele><time>2026-04-26T15:16:56.014Z</time></trkpt><trkpt lat="46.3673192" lon="11.5085"><ele>1612.4</ele><time>2026-04-26T15:16:57.014Z</time></trkpt><trkpt lat="46.3673467" lon="11.50835"><ele>1610.0</ele><time>2026-04-26T15:16:58.015Z</time></trkpt><trkpt lat="46.3673473" lon="11.5081562"><ele>1610.0</ele><time>2026-04-26T15:16:59.014Z</time></trkpt><trkpt lat="46.3673356" lon="11.5079411"><ele>1610.0</ele><time>2026-04-26T15:17:00.014Z</time></trkpt><trkpt lat="46.3673117" lon="11.5077225"><ele>1610.0</ele><time>2026-04-26T15:17:01.014Z</time></trkpt><trkpt lat="46.367284" lon="11.5074956"><ele>1610.0</ele><time>2026-04-26T15:17:02.014Z</time></trkpt><trkpt lat="46.3672509" lon="11.5072662"><ele>1610.0</ele><time>2026-04-26T15:17:03.014Z</time></trkpt><trkpt lat="46.3672182" lon="11.5070329"><ele>1610.0</ele><time>2026-04-26T15:17:04.014Z</time></trkpt><trkpt lat="46.3671861" lon="11.506791"><ele>1621.0</ele><time>2026-04-26T15:17:05.014Z</time></trkpt><trkpt lat="46.3671525" lon="11.506546"><ele>1632.0</ele><time>2026-04-26T15:17:06.014Z</time></trkpt><trkpt lat="46.3671131" lon="11.5062965"><ele>1643.0</ele><time>2026-04-26T15:17:07.014Z</time></trkpt><trkpt lat="46.3670651" lon="11.506057"><ele>1643.0</ele><time>2026-04-26T15:17:08.014Z</time></trkpt><trkpt lat="46.3670141" lon="11.5058318"><ele>1643.0</ele><time>2026-04-26T15:17:09.014Z</time></trkpt><trkpt lat="46.3669498" lon="11.5056364"><ele>1643.0</ele><time>2026-04-26T15:17:10.014Z</time></trkpt><trkpt lat="46.3668766" lon="11.5054794"><ele>1643.0</ele><time>2026-04-26T15:17:11.014Z</time></trkpt><trkpt lat="46.366794" lon="11.5053468"><ele>1642.0</ele><time>2026-04-26T15:17:12.014Z</time></trkpt><trkpt lat="46.366724" lon="11.5052306"><ele>1641.0</ele><time>2026-04-26T15:17:13.014Z</time></trkpt><trkpt lat="46.3666748" lon="11.5051116"><ele>1640.0</ele><time>2026-04-26T15:17:14.014Z</time></trkpt><trkpt lat="46.3666652" lon="11.5049907"><ele>1639.0</ele><time>2026-04-26T15:17:15.014Z</time></trkpt><trkpt lat="46.3666946" lon="11.5048626"><ele>1638.0</ele><time>2026-04-26T15:17:16.014Z</time></trkpt><trkpt lat="46.3667644" lon="11.5047488"><ele>1638.0</ele><time>2026-04-26T15:17:17.014Z</time></trkpt><trkpt lat="46.3668765" lon="11.5046704"><ele>1638.0</ele><time>2026-04-26T15:17:18.014Z</time></trkpt><trkpt lat="46.3669832" lon="11.5045621"><ele>1638.0</ele><time>2026-04-26T15:17:19.014Z</time></trkpt><trkpt lat="46.3671032" lon="11.504487"><ele>1638.0</ele><time>2026-04-26T15:17:20.014Z</time></trkpt><trkpt lat="46.3672418" lon="11.504451"><ele>1642.75</ele><time>2026-04-26T15:17:21.014Z</time></trkpt><trkpt lat="46.3673871" lon="11.5044578"><ele>1647.5</ele><time>2026-04-26T15:17:22.015Z</time></trkpt><trkpt lat="46.3675367" lon="11.5044763"><ele>1652.25</ele><time>2026-04-26T15:17:23.014Z</time></trkpt><trkpt lat="46.3676858" lon="11.5044991"><ele>1657.0</ele><time>2026-04-26T15:17:24.014Z</time></trkpt><trkpt lat="46.3678287" lon="11.5045177"><ele>1657.0</ele><time>2026-04-26T15:17:25.014Z</time></trkpt><trkpt lat="46.3679546" lon="11.5045143"><ele>1657.0</ele><time>2026-04-26T15:17:26.014Z</time></trkpt><trkpt lat="46.3680605" lon="11.5044723"><ele>1657.0</ele><time>2026-04-26T15:17:27.015Z</time></trkpt><trkpt lat="46.3681465" lon="11.5043902"><ele>1657.0</ele><time>2026-04-26T15:17:28.014Z</time></trkpt><trkpt lat="46.3682276" lon="11.5042676"><ele>1659.0</ele><time>2026-04-26T15:17:29.014Z</time></trkpt><trkpt lat="46.3683019" lon="11.5040977"><ele>1661.0</ele><time>2026-04-26T15:17:30.014Z</time></trkpt><trkpt lat="46.3683747" lon="11.5039249"><ele>1663.0</ele><time>2026-04-26T15:17:31.014Z</time></trkpt><trkpt lat="46.3684549" lon="11.5037408"><ele>1665.0</ele><time>2026-04-26T15:17:32.014Z</time></trkpt><trkpt lat="46.3685377" lon="11.5035482"><ele>1665.0</ele><time>2026-04-26T15:17:33.014Z</time></trkpt><trkpt lat="46.3686267" lon="11.5033576"><ele>1665.0</ele><time>2026-04-26T15:17:34.014Z</time></trkpt><trkpt lat="46.3687292" lon="11.5031838"><ele>1665.0</ele><time>2026-04-26T15:17:35.014Z</time></trkpt><trkpt lat="46.3688225" lon="11.5030147"><ele>1662.5</ele><time>2026-04-26T15:17:36.014Z</time></trkpt><trkpt lat="46.3689017" lon="11.5028408"><ele>1660.0</ele><time>2026-04-26T15:17:37.014Z</time></trkpt><trkpt lat="46.3689648" lon="11.5026548"><ele>1657.5</ele><time>2026-04-26T15:17:38.014Z</time></trkpt><trkpt lat="46.3690103" lon="11.5024684"><ele>1655.0</ele><time>2026-04-26T15:17:39.014Z</time></trkpt><trkpt lat="46.3690371" lon="11.502279"><ele>1655.0</ele><time>2026-04-26T15:17:40.014Z</time></trkpt><trkpt lat="46.36904" lon="11.5020963"><ele>1655.0</ele><time>2026-04-26T15:17:41.014Z</time></trkpt><trkpt lat="46.3690169" lon="11.5019173"><ele>1655.0</ele><time>2026-04-26T15:17:42.014Z</time></trkpt><trkpt lat="46.3689688" lon="11.5017358"><ele>1655.0</ele><time>2026-04-26T15:17:43.014Z</time></trkpt><trkpt lat="46.3689033" lon="11.5015739"><ele>1659.25</ele><time>2026-04-26T15:17:44.014Z</time></trkpt><trkpt lat="46.3688172" lon="11.5014288"><ele>1663.5</ele><time>2026-04-26T15:17:45.014Z</time></trkpt><trkpt lat="46.3687102" lon="11.5013164"><ele>1667.75</ele><time>2026-04-26T15:17:46.014Z</time></trkpt><trkpt lat="46.3686047" lon="11.5012097"><ele>1672.0</ele><time>2026-04-26T15:17:47.014Z</time></trkpt><trkpt lat="46.3685059" lon="11.5010986"><ele>1673.0</ele><time>2026-04-26T15:17:48.014Z</time></trkpt><trkpt lat="46.3684347" lon="11.5009519"><ele>1674.0</ele><time>2026-04-26T15:17:49.014Z</time></trkpt><trkpt lat="46.3684049" lon="11.5007777"><ele>1675.0</ele><time>2026-04-26T15:17:50.014Z</time></trkpt><trkpt lat="46.3684003" lon="11.500565"><ele>1676.0</ele><time>2026-04-26T15:17:51.014Z</time></trkpt><trkpt lat="46.368404" lon="11.5003623"><ele>1676.0</ele><time>2026-04-26T15:17:52.014Z</time></trkpt><trkpt lat="46.3684077" lon="11.5001345"><ele>1676.0</ele><time>2026-04-26T15:17:53.014Z</time></trkpt><trkpt lat="46.368408" lon="11.4999134"><ele>1676.0</ele><time>2026-04-26T15:17:54.014Z</time></trkpt><trkpt lat="46.3684138" lon="11.4996951"><ele>1674.75</ele><time>2026-04-26T15:17:55.014Z</time></trkpt><trkpt lat="46.368407" lon="11.4994875"><ele>1673.5</ele><time>2026-04-26T15:17:56.014Z</time></trkpt><trkpt lat="46.3683664" lon="11.4993172"><ele>1672.25</ele><time>2026-04-26T15:17:57.014Z</time></trkpt><trkpt lat="46.3683092" lon="11.4991681"><ele>1671.0</ele><time>2026-04-26T15:17:58.014Z</time></trkpt><trkpt lat="46.368226" lon="11.4990463"><ele>1671.0</ele><time>2026-04-26T15:17:59.014Z</time></trkpt><trkpt lat="46.3681166" lon="11.4989575"><ele>1671.0</ele><time>2026-04-26T15:18:00.014Z</time></trkpt><trkpt lat="46.3680007" lon="11.4988933"><ele>1671.0</ele><time>2026-04-26T15:18:01.014Z</time></trkpt><trkpt lat="46.367864" lon="11.4988604"><ele>1671.0</ele><time>2026-04-26T15:18:02.014Z</time></trkpt><trkpt lat="46.3677208" lon="11.4988918"><ele>1675.3333333333335</ele><time>2026-04-26T15:18:03.014Z</time></trkpt><trkpt lat="46.3675683" lon="11.4989363"><ele>1679.6666666666667</ele><time>2026-04-26T15:18:04.014Z</time></trkpt><trkpt lat="46.3674065" lon="11.4989915"><ele>1684.0</ele><time>2026-04-26T15:18:05.014Z</time></trkpt><trkpt lat="46.3672392" lon="11.4990579"><ele>1683.6666666666667</ele><time>2026-04-26T15:18:06.014Z</time></trkpt><trkpt lat="46.3670689" lon="11.4991144"><ele>1683.3333333333335</ele><time>2026-04-26T15:18:07.015Z</time></trkpt><trkpt lat="46.3668923" lon="11.4991743"><ele>1683.0</ele><time>2026-04-26T15:18:08.014Z</time></trkpt><trkpt lat="46.3667228" lon="11.4992211"><ele>1683.0</ele><time>2026-04-26T15:18:09.014Z</time></trkpt><trkpt lat="46.366566" lon="11.4992447"><ele>1683.0</ele><time>2026-04-26T15:18:10.014Z</time></trkpt><trkpt lat="46.3664247" lon="11.49925"><ele>1683.0</ele><time>2026-04-26T15:18:11.014Z</time></trkpt><trkpt lat="46.3662784" lon="11.4992553"><ele>1683.0</ele><time>2026-04-26T15:18:12.014Z</time></trkpt><trkpt lat="46.3661315" lon="11.4992936"><ele>1682.6666666666665</ele><time>2026-04-26T15:18:13.014Z</time></trkpt><trkpt lat="46.3659826" lon="11.4993695"><ele>1682.3333333333333</ele><time>2026-04-26T15:18:14.014Z</time></trkpt><trkpt lat="46.3658313" lon="11.4994692"><ele>1682.0</ele><time>2026-04-26T15:18:15.014Z</time></trkpt><trkpt lat="46.3656828" lon="11.4996125"><ele>1685.0</ele><time>2026-04-26T15:18:16.014Z</time></trkpt><trkpt lat="46.3655429" lon="11.4997862"><ele>1688.0</ele><time>2026-04-26T15:18:17.015Z</time></trkpt><trkpt lat="46.3654059" lon="11.4999712"><ele>1691.0</ele><time>2026-04-26T15:18:18.014Z</time></trkpt><trkpt lat="46.3652714" lon="11.5001488"><ele>1691.0</ele><time>2026-04-26T15:18:19.014Z</time></trkpt><trkpt lat="46.365135" lon="11.5003155"><ele>1691.0</ele><time>2026-04-26T15:18:20.014Z</time></trkpt><trkpt lat="46.3649995" lon="11.5004663"><ele>1691.0</ele><time>2026-04-26T15:18:21.015Z</time></trkpt><trkpt lat="46.3648673" lon="11.5005966"><ele>1694.25</ele><time>2026-04-26T15:18:22.014Z</time></trkpt><trkpt lat="46.3647392" lon="11.5007018"><ele>1697.5</ele><time>2026-04-26T15:18:23.014Z</time></trkpt><trkpt lat="46.3646167" lon="11.5007766"><ele>1700.75</ele><time>2026-04-26T15:18:24.014Z</time></trkpt><trkpt lat="46.3645075" lon="11.5008121"><ele>1704.0</ele><time>2026-04-26T15:18:25.014Z</time></trkpt><trkpt lat="46.3644098" lon="11.5008263"><ele>1704.4</ele><time>2026-04-26T15:18:26.014Z</time></trkpt><trkpt lat="46.3643386" lon="11.5008617"><ele>1704.8000000000002</ele><time>2026-04-26T15:18:27.014Z</time></trkpt><trkpt lat="46.3642713" lon="11.5010381"><ele>1705.1999999999998</ele><time>2026-04-26T15:18:29.015Z</time></trkpt><trkpt lat="46.364257" lon="11.5011863"><ele>1705.6</ele><time>2026-04-26T15:18:30.014Z</time></trkpt><trkpt lat="46.3642564" lon="11.5013532"><ele>1706.0</ele><time>2026-04-26T15:18:31.014Z</time></trkpt><trkpt lat="46.36426" lon="11.5015444"><ele>1709.6666666666665</ele><time>2026-04-26T15:18:32.014Z</time></trkpt><trkpt lat="46.3642492" lon="11.5017616"><ele>1713.3333333333335</ele><time>2026-04-26T15:18:33.014Z</time></trkpt><trkpt lat="46.36422" lon="11.5019702"><ele>1717.0</ele><time>2026-04-26T15:18:34.014Z</time></trkpt><trkpt lat="46.3641796" lon="11.5021981"><ele>1718.75</ele><time>2026-04-26T15:18:35.014Z</time></trkpt><trkpt lat="46.3641493" lon="11.5024171"><ele>1720.5</ele><time>2026-04-26T15:18:36.014Z</time></trkpt><trkpt lat="46.364146" lon="11.5026301"><ele>1722.25</ele><time>2026-04-26T15:18:37.014Z</time></trkpt><trkpt lat="46.3641676" lon="11.5028378"><ele>1724.0</ele><time>2026-04-26T15:18:38.015Z</time></trkpt><trkpt lat="46.3642024" lon="11.5030418"><ele>1724.2</ele><time>2026-04-26T15:18:39.014Z</time></trkpt><trkpt lat="46.364247" lon="11.5032203"><ele>1724.4</ele><time>2026-04-26T15:18:40.014Z</time></trkpt><trkpt lat="46.3642843" lon="11.5033892"><ele>1724.6</ele><time>2026-04-26T15:18:41.014Z</time></trkpt><trkpt lat="46.3643124" lon="11.5035268"><ele>1724.8</ele><time>2026-04-26T15:18:42.014Z</time></trkpt><trkpt lat="46.3643237" lon="11.503648"><ele>1725.0</ele><time>2026-04-26T15:18:43.014Z</time></trkpt><trkpt lat="46.3643114" lon="11.5037635"><ele>1725.2</ele><time>2026-04-26T15:18:44.014Z</time></trkpt><trkpt lat="46.3642783" lon="11.5038682"><ele>1725.4</ele><time>2026-04-26T15:18:45.014Z</time></trkpt><trkpt lat="46.3642336" lon="11.5039607"><ele>1725.6</ele><time>2026-04-26T15:18:46.014Z</time></trkpt><trkpt lat="46.3641727" lon="11.5040532"><ele>1725.8</ele><time>2026-04-26T15:18:47.014Z</time></trkpt><trkpt lat="46.3641078" lon="11.504164"><ele>1726.0</ele><time>2026-04-26T15:18:48.014Z</time></trkpt><trkpt lat="46.3640563" lon="11.5043002"><ele>1726.0</ele><time>2026-04-26T15:18:49.014Z</time></trkpt><trkpt lat="46.3640247" lon="11.5044723"><ele>1726.0</ele><time>2026-04-26T15:18:50.014Z</time></trkpt><trkpt lat="46.3640083" lon="11.5046571"><ele>1726.0</ele><time>2026-04-26T15:18:51.014Z</time></trkpt><trkpt lat="46.3639931" lon="11.5048316"><ele>1726.0</ele><time>2026-04-26T15:18:52.014Z</time></trkpt><trkpt lat="46.3639855" lon="11.5049955"><ele>1726.0</ele><time>2026-04-26T15:18:53.014Z</time></trkpt><trkpt lat="46.3639769" lon="11.505139"><ele>1726.0</ele><time>2026-04-26T15:18:54.014Z</time></trkpt><trkpt lat="46.3639565" lon="11.5052457"><ele>1726.0</ele><time>2026-04-26T15:18:55.014Z</time></trkpt><trkpt lat="46.3638728" lon="11.5053025"><ele>1726.0</ele><time>2026-04-26T15:18:57.014Z</time></trkpt><trkpt lat="46.3637698" lon="11.5052002"><ele>1726.0</ele><time>2026-04-26T15:18:59.014Z</time></trkpt><trkpt lat="46.3637308" lon="11.5050811"><ele>1731.75</ele><time>2026-04-26T15:19:00.014Z</time></trkpt><trkpt lat="46.3637021" lon="11.5049375"><ele>1737.5</ele><time>2026-04-26T15:19:01.015Z</time></trkpt><trkpt lat="46.3636711" lon="11.5047604"><ele>1743.25</ele><time>2026-04-26T15:19:02.014Z</time></trkpt><trkpt lat="46.3636282" lon="11.5045802"><ele>1749.0</ele><time>2026-04-26T15:19:03.015Z</time></trkpt><trkpt lat="46.3635589" lon="11.5043984"><ele>1749.0</ele><time>2026-04-26T15:19:04.014Z</time></trkpt><trkpt lat="46.3634651" lon="11.5042011"><ele>1749.0</ele><time>2026-04-26T15:19:05.014Z</time></trkpt><trkpt lat="46.3633554" lon="11.5040065"><ele>1749.0</ele><time>2026-04-26T15:19:06.014Z</time></trkpt><trkpt lat="46.3632304" lon="11.5038103"><ele>1747.6666666666665</ele><time>2026-04-26T15:19:07.015Z</time></trkpt><trkpt lat="46.3630957" lon="11.5036165"><ele>1746.3333333333333</ele><time>2026-04-26T15:19:08.014Z</time></trkpt><trkpt lat="46.3629574" lon="11.5034341"><ele>1745.0</ele><time>2026-04-26T15:19:09.014Z</time></trkpt><trkpt lat="46.3628305" lon="11.5032635"><ele>1748.75</ele><time>2026-04-26T15:19:10.014Z</time></trkpt><trkpt lat="46.3627308" lon="11.5031125"><ele>1752.5</ele><time>2026-04-26T15:19:11.014Z</time></trkpt><trkpt lat="46.3626647" lon="11.5029799"><ele>1756.25</ele><time>2026-04-26T15:19:12.014Z</time></trkpt><trkpt lat="46.3626351" lon="11.5028315"><ele>1760.0</ele><time>2026-04-26T15:19:13.014Z</time></trkpt><trkpt lat="46.3626339" lon="11.5026783"><ele>1760.0</ele><time>2026-04-26T15:19:14.014Z</time></trkpt><trkpt lat="46.3626483" lon="11.5024883"><ele>1760.0</ele><time>2026-04-26T15:19:15.015Z</time></trkpt><trkpt lat="46.3626731" lon="11.5022973"><ele>1760.0</ele><time>2026-04-26T15:19:16.014Z</time></trkpt><trkpt lat="46.362683" lon="11.5021093"><ele>1760.0</ele><time>2026-04-26T15:19:17.014Z</time></trkpt><trkpt lat="46.3626853" lon="11.5019335"><ele>1759.4</ele><time>2026-04-26T15:19:18.014Z</time></trkpt><trkpt lat="46.362664" lon="11.5017908"><ele>1758.8</ele><time>2026-04-26T15:19:19.014Z</time></trkpt><trkpt lat="46.3626371" lon="11.5016818"><ele>1758.1999999999998</ele><time>2026-04-26T15:19:20.014Z</time></trkpt><trkpt lat="46.362575" lon="11.5016034"><ele>1757.6</ele><time>2026-04-26T15:19:21.014Z</time></trkpt><trkpt lat="46.3624753" lon="11.5015607"><ele>1757.0</ele><time>2026-04-26T15:19:22.014Z</time></trkpt><trkpt lat="46.3623508" lon="11.5015283"><ele>1757.0</ele><time>2026-04-26T15:19:23.014Z</time></trkpt><trkpt lat="46.3622303" lon="11.5015031"><ele>1757.0</ele><time>2026-04-26T15:19:24.014Z</time></trkpt><trkpt lat="46.3620928" lon="11.5014673"><ele>1757.0</ele><time>2026-04-26T15:19:25.014Z</time></trkpt><trkpt lat="46.3619467" lon="11.5014231"><ele>1757.0</ele><time>2026-04-26T15:19:26.014Z</time></trkpt><trkpt lat="46.3617945" lon="11.5013757"><ele>1760.6666666666665</ele><time>2026-04-26T15:19:27.014Z</time></trkpt><trkpt lat="46.3616462" lon="11.5013151"><ele>1764.3333333333335</ele><time>2026-04-26T15:19:28.014Z</time></trkpt><trkpt lat="46.361495" lon="11.5012331"><ele>1768.0</ele><time>2026-04-26T15:19:29.014Z</time></trkpt><trkpt lat="46.3613494" lon="11.5011274"><ele>1775.25</ele><time>2026-04-26T15:19:30.014Z</time></trkpt><trkpt lat="46.3612248" lon="11.5010125"><ele>1782.5</ele><time>2026-04-26T15:19:31.014Z</time></trkpt><trkpt lat="46.3611234" lon="11.5008901"><ele>1789.75</ele><time>2026-04-26T15:19:32.014Z</time></trkpt><trkpt lat="46.3610481" lon="11.5007547"><ele>1797.0</ele><time>2026-04-26T15:19:33.014Z</time></trkpt><trkpt lat="46.3610153" lon="11.5006026"><ele>1797.0</ele><time>2026-04-26T15:19:34.014Z</time></trkpt><trkpt lat="46.361002" lon="11.5004344"><ele>1797.0</ele><time>2026-04-26T15:19:35.014Z</time></trkpt><trkpt lat="46.3610074" lon="11.5002592"><ele>1797.0</ele><time>2026-04-26T15:19:36.014Z</time></trkpt><trkpt lat="46.361016" lon="11.5000648"><ele>1797.0</ele><time>2026-04-26T15:19:37.014Z</time></trkpt><trkpt lat="46.3610171" lon="11.4998667"><ele>1797.0</ele><time>2026-04-26T15:19:38.014Z</time></trkpt><trkpt lat="46.3610157" lon="11.4996576"><ele>1797.0</ele><time>2026-04-26T15:19:39.014Z</time></trkpt><trkpt lat="46.3610125" lon="11.4994482"><ele>1797.0</ele><time>2026-04-26T15:19:40.014Z</time></trkpt><trkpt lat="46.3609976" lon="11.4992507"><ele>1797.0</ele><time>2026-04-26T15:19:41.014Z</time></trkpt><trkpt lat="46.3609631" lon="11.4990689"><ele>1796.5</ele><time>2026-04-26T15:19:42.014Z</time></trkpt><trkpt lat="46.3609117" lon="11.4988916"><ele>1796.0</ele><time>2026-04-26T15:19:43.014Z</time></trkpt><trkpt lat="46.3608364" lon="11.4987084"><ele>1795.5</ele><time>2026-04-26T15:19:44.014Z</time></trkpt><trkpt lat="46.3607532" lon="11.4985257"><ele>1795.0</ele><time>2026-04-26T15:19:45.014Z</time></trkpt><trkpt lat="46.3606584" lon="11.498337"><ele>1795.0</ele><time>2026-04-26T15:19:46.014Z</time></trkpt><trkpt lat="46.3605643" lon="11.4981426"><ele>1795.0</ele><time>2026-04-26T15:19:47.014Z</time></trkpt><trkpt lat="46.3604703" lon="11.4979464"><ele>1795.0</ele><time>2026-04-26T15:19:48.014Z</time></trkpt><trkpt lat="46.3603875" lon="11.497757"><ele>1798.0</ele><time>2026-04-26T15:19:49.014Z</time></trkpt><trkpt lat="46.3603099" lon="11.4975914"><ele>1801.0</ele><time>2026-04-26T15:19:50.015Z</time></trkpt><trkpt lat="46.360241" lon="11.4974413"><ele>1804.0</ele><time>2026-04-26T15:19:51.014Z</time></trkpt><trkpt lat="46.3601766" lon="11.4973091"><ele>1807.0</ele><time>2026-04-26T15:19:52.014Z</time></trkpt><trkpt lat="46.3601087" lon="11.4971786"><ele>1806.6</ele><time>2026-04-26T15:19:53.014Z</time></trkpt><trkpt lat="46.3600392" lon="11.4970679"><ele>1806.1999999999998</ele><time>2026-04-26T15:19:54.014Z</time></trkpt><trkpt lat="46.3599601" lon="11.4969899"><ele>1805.8</ele><time>2026-04-26T15:19:55.014Z</time></trkpt><trkpt lat="46.3598672" lon="11.4969563"><ele>1805.4</ele><time>2026-04-26T15:19:56.014Z</time></trkpt><trkpt lat="46.3597556" lon="11.4969497"><ele>1805.0</ele><time>2026-04-26T15:19:57.014Z</time></trkpt><trkpt lat="46.3596363" lon="11.4969651"><ele>1804.0</ele><time>2026-04-26T15:19:58.014Z</time></trkpt><trkpt lat="46.359509" lon="11.4969952"><ele>1803.0</ele><time>2026-04-26T15:19:59.014Z</time></trkpt><trkpt lat="46.3593683" lon="11.4970268"><ele>1802.0</ele><time>2026-04-26T15:20:00.014Z</time></trkpt><trkpt lat="46.3592328" lon="11.4970757"><ele>1801.0</ele><time>2026-04-26T15:20:01.014Z</time></trkpt><trkpt lat="46.3591061" lon="11.497161"><ele>1803.0</ele><time>2026-04-26T15:20:02.014Z</time></trkpt><trkpt lat="46.3589889" lon="11.4972777"><ele>1805.0</ele><time>2026-04-26T15:20:03.014Z</time></trkpt><trkpt lat="46.3588735" lon="11.4974074"><ele>1807.0</ele><time>2026-04-26T15:20:04.014Z</time></trkpt><trkpt lat="46.3587663" lon="11.4975432"><ele>1809.0</ele><time>2026-04-26T15:20:05.014Z</time></trkpt><trkpt lat="46.3586607" lon="11.4976634"><ele>1809.2</ele><time>2026-04-26T15:20:06.014Z</time></trkpt><trkpt lat="46.3585631" lon="11.4977525"><ele>1809.4</ele><time>2026-04-26T15:20:07.014Z</time></trkpt><trkpt lat="46.3584625" lon="11.497796"><ele>1809.6</ele><time>2026-04-26T15:20:08.014Z</time></trkpt><trkpt lat="46.3583645" lon="11.4977996"><ele>1809.8</ele><time>2026-04-26T15:20:09.014Z</time></trkpt><trkpt lat="46.3582595" lon="11.4977446"><ele>1810.0</ele><time>2026-04-26T15:20:10.014Z</time></trkpt><trkpt lat="46.3581471" lon="11.4976413"><ele>1810.0</ele><time>2026-04-26T15:20:11.014Z</time></trkpt><trkpt lat="46.3580352" lon="11.4975005"><ele>1810.0</ele><time>2026-04-26T15:20:12.014Z</time></trkpt><trkpt lat="46.3579228" lon="11.4973346"><ele>1810.0</ele><time>2026-04-26T15:20:13.014Z</time></trkpt><trkpt lat="46.3578223" lon="11.4971621"><ele>1809.3333333333335</ele><time>2026-04-26T15:20:14.014Z</time></trkpt><trkpt lat="46.3577265" lon="11.4969729"><ele>1808.6666666666665</ele><time>2026-04-26T15:20:15.014Z</time></trkpt><trkpt lat="46.3576402" lon="11.4967723"><ele>1808.0</ele><time>2026-04-26T15:20:16.014Z</time></trkpt><trkpt lat="46.3575645" lon="11.496559"><ele>1808.0</ele><time>2026-04-26T15:20:17.014Z</time></trkpt><trkpt lat="46.3574908" lon="11.4963518"><ele>1808.0</ele><time>2026-04-26T15:20:18.014Z</time></trkpt><trkpt lat="46.3574113" lon="11.4961541"><ele>1808.0</ele><time>2026-04-26T15:20:19.014Z</time></trkpt><trkpt lat="46.3573153" lon="11.4959747"><ele>1808.6666666666665</ele><time>2026-04-26T15:20:20.015Z</time></trkpt><trkpt lat="46.3572087" lon="11.4958036"><ele>1809.3333333333335</ele><time>2026-04-26T15:20:21.014Z</time></trkpt><trkpt lat="46.3570958" lon="11.4956527"><ele>1810.0</ele><time>2026-04-26T15:20:22.014Z</time></trkpt><trkpt lat="46.3569838" lon="11.4955072"><ele>1811.6666666666667</ele><time>2026-04-26T15:20:23.014Z</time></trkpt><trkpt lat="46.3568606" lon="11.4953688"><ele>1813.3333333333335</ele><time>2026-04-26T15:20:24.014Z</time></trkpt><trkpt lat="46.3567417" lon="11.495226"><ele>1815.0</ele><time>2026-04-26T15:20:25.014Z</time></trkpt><trkpt lat="46.3566307" lon="11.4950692"><ele>1815.0</ele><time>2026-04-26T15:20:26.014Z</time></trkpt><trkpt lat="46.3565324" lon="11.4949051"><ele>1815.0</ele><time>2026-04-26T15:20:27.014Z</time></trkpt><trkpt lat="46.3564422" lon="11.4947323"><ele>1815.0</ele><time>2026-04-26T15:20:28.014Z</time></trkpt><trkpt lat="46.3563618" lon="11.4945666"><ele>1815.0</ele><time>2026-04-26T15:20:29.014Z</time></trkpt><trkpt lat="46.3562815" lon="11.494415"><ele>1813.75</ele><time>2026-04-26T15:20:30.014Z</time></trkpt><trkpt lat="46.356196" lon="11.4943113"><ele>1812.5</ele><time>2026-04-26T15:20:31.015Z</time></trkpt><trkpt lat="46.356101" lon="11.4942587"><ele>1811.25</ele><time>2026-04-26T15:20:32.014Z</time></trkpt><trkpt lat="46.3559752" lon="11.4942414"><ele>1810.0</ele><time>2026-04-26T15:20:33.015Z</time></trkpt><trkpt lat="46.3558454" lon="11.4942418"><ele>1810.0</ele><time>2026-04-26T15:20:34.014Z</time></trkpt><trkpt lat="46.3557163" lon="11.4942608"><ele>1810.0</ele><time>2026-04-26T15:20:35.015Z</time></trkpt><trkpt lat="46.35558" lon="11.4942788"><ele>1810.0</ele><time>2026-04-26T15:20:36.014Z</time></trkpt><trkpt lat="46.3554392" lon="11.494292"><ele>1810.0</ele><time>2026-04-26T15:20:37.014Z</time></trkpt><trkpt lat="46.3553047" lon="11.4943103"><ele>1810.0</ele><time>2026-04-26T15:20:38.014Z</time></trkpt><trkpt lat="46.3551732" lon="11.494315"><ele>1810.0</ele><time>2026-04-26T15:20:39.014Z</time></trkpt><trkpt lat="46.3550535" lon="11.4943041"><ele>1810.0</ele><time>2026-04-26T15:20:40.014Z</time></trkpt><trkpt lat="46.3549573" lon="11.4942651"><ele>1810.0</ele><time>2026-04-26T15:20:41.014Z</time></trkpt><trkpt lat="46.3548783" lon="11.4942058"><ele>1810.0</ele><time>2026-04-26T15:20:42.014Z</time></trkpt><trkpt lat="46.3548227" lon="11.4941086"><ele>1810.0</ele><time>2026-04-26T15:20:43.014Z</time></trkpt><trkpt lat="46.3547996" lon="11.4939891"><ele>1810.0</ele><time>2026-04-26T15:20:44.014Z</time></trkpt><trkpt lat="46.3547924" lon="11.493851"><ele>1810.0</ele><time>2026-04-26T15:20:45.014Z</time></trkpt><trkpt lat="46.3547985" lon="11.4936886"><ele>1810.0</ele><time>2026-04-26T15:20:46.014Z</time></trkpt><trkpt lat="46.3548088" lon="11.4935263"><ele>1810.0</ele><time>2026-04-26T15:20:47.014Z</time></trkpt><trkpt lat="46.3548212" lon="11.4933696"><ele>1809.0</ele><time>2026-04-26T15:20:48.015Z</time></trkpt><trkpt lat="46.3548284" lon="11.4932256"><ele>1808.0</ele><time>2026-04-26T15:20:49.014Z</time></trkpt><trkpt lat="46.3548231" lon="11.4931013"><ele>1807.0</ele><time>2026-04-26T15:20:50.015Z</time></trkpt><trkpt lat="46.3548037" lon="11.4930077"><ele>1806.0</ele><time>2026-04-26T15:20:51.014Z</time></trkpt><trkpt lat="46.3547533" lon="11.4928586"><ele>1805.0</ele><time>2026-04-26T15:20:53.014Z</time></trkpt><trkpt lat="46.354675" lon="11.492733"><ele>1804.3333333333333</ele><time>2026-04-26T15:20:55.014Z</time></trkpt><trkpt lat="46.3545642" lon="11.4926625"><ele>1803.6666666666665</ele><time>2026-04-26T15:20:57.014Z</time></trkpt><trkpt lat="46.3544955" lon="11.4926528"><ele>1803.0</ele><time>2026-04-26T15:20:58.014Z</time></trkpt><trkpt lat="46.354428" lon="11.4926651"><ele>1802.3333333333335</ele><time>2026-04-26T15:20:59.014Z</time></trkpt><trkpt lat="46.3543648" lon="11.4926999"><ele>1801.6666666666667</ele><time>2026-04-26T15:21:00.014Z</time></trkpt><trkpt lat="46.354299" lon="11.4927553"><ele>1801.0</ele><time>2026-04-26T15:21:01.014Z</time></trkpt><trkpt lat="46.3542392" lon="11.4928101"><ele>1801.0000000000002</ele><time>2026-04-26T15:21:02.014Z</time></trkpt><trkpt lat="46.3541752" lon="11.4928413"><ele>1801.0</ele><time>2026-04-26T15:21:03.014Z</time></trkpt><trkpt lat="46.3541091" lon="11.4928464"><ele>1801.0</ele><time>2026-04-26T15:21:04.014Z</time></trkpt><trkpt lat="46.3540408" lon="11.4928135"><ele>1801.0</ele><time>2026-04-26T15:21:05.014Z</time></trkpt><trkpt lat="46.3539934" lon="11.4927355"><ele>1801.0000000000002</ele><time>2026-04-26T15:21:06.015Z</time></trkpt><trkpt lat="46.3539605" lon="11.4926238"><ele>1801.0</ele><time>2026-04-26T15:21:07.014Z</time></trkpt><trkpt lat="46.3539377" lon="11.4924989"><ele>1801.0</ele><time>2026-04-26T15:21:08.014Z</time></trkpt><trkpt lat="46.3539152" lon="11.4923683"><ele>1801.0</ele><time>2026-04-26T15:21:09.014Z</time></trkpt><trkpt lat="46.3538964" lon="11.4922221"><ele>1801.0</ele><time>2026-04-26T15:21:10.014Z</time></trkpt><trkpt lat="46.3538783" lon="11.4920807"><ele>1801.0</ele><time>2026-04-26T15:21:11.014Z</time></trkpt><trkpt lat="46.3538539" lon="11.4919292"><ele>1801.0</ele><time>2026-04-26T15:21:12.015Z</time></trkpt><trkpt lat="46.3538181" lon="11.4917868"><ele>1796.0</ele><time>2026-04-26T15:21:13.014Z</time></trkpt><trkpt lat="46.3537593" lon="11.491651"><ele>1791.0</ele><time>2026-04-26T15:21:14.014Z</time></trkpt><trkpt lat="46.3536869" lon="11.4915238"><ele>1786.0</ele><time>2026-04-26T15:21:15.014Z</time></trkpt><trkpt lat="46.3536026" lon="11.491412"><ele>1781.0</ele><time>2026-04-26T15:21:16.014Z</time></trkpt><trkpt lat="46.3535112" lon="11.4913"><ele>1791.75</ele><time>2026-04-26T15:21:17.015Z</time></trkpt><trkpt lat="46.3534042" lon="11.4912023"><ele>1802.5</ele><time>2026-04-26T15:21:18.014Z</time></trkpt><trkpt lat="46.3532907" lon="11.491129"><ele>1813.25</ele><time>2026-04-26T15:21:19.014Z</time></trkpt><trkpt lat="46.353173" lon="11.4910703"><ele>1824.0</ele><time>2026-04-26T15:21:20.015Z</time></trkpt><trkpt lat="46.353054" lon="11.4910264"><ele>1825.0</ele><time>2026-04-26T15:21:21.014Z</time></trkpt><trkpt lat="46.3529365" lon="11.4909932"><ele>1826.0</ele><time>2026-04-26T15:21:22.014Z</time></trkpt><trkpt lat="46.3528124" lon="11.4909842"><ele>1827.0</ele><time>2026-04-26T15:21:23.014Z</time></trkpt><trkpt lat="46.3526664" lon="11.4909992"><ele>1828.0</ele><time>2026-04-26T15:21:24.014Z</time></trkpt><trkpt lat="46.3524993" lon="11.4910463"><ele>1828.0</ele><time>2026-04-26T15:21:25.014Z</time></trkpt><trkpt lat="46.3523198" lon="11.4911062"><ele>1828.0</ele><time>2026-04-26T15:21:26.014Z</time></trkpt><trkpt lat="46.3521272" lon="11.4911571"><ele>1828.0</ele><time>2026-04-26T15:21:27.014Z</time></trkpt><trkpt lat="46.351925" lon="11.4911982"><ele>1825.3333333333335</ele><time>2026-04-26T15:21:28.014Z</time></trkpt><trkpt lat="46.3517287" lon="11.4912448"><ele>1822.6666666666665</ele><time>2026-04-26T15:21:29.014Z</time></trkpt><trkpt lat="46.351536" lon="11.4913037"><ele>1820.0</ele><time>2026-04-26T15:21:30.014Z</time></trkpt><trkpt lat="46.351364" lon="11.4913597"><ele>1799.3333333333333</ele><time>2026-04-26T15:21:31.014Z</time></trkpt><trkpt lat="46.3512033" lon="11.4914188"><ele>1778.6666666666665</ele><time>2026-04-26T15:21:32.014Z</time></trkpt><trkpt lat="46.3510501" lon="11.4914714"><ele>1758.0</ele><time>2026-04-26T15:21:33.014Z</time></trkpt><trkpt lat="46.3508957" lon="11.4915115"><ele>1758.0</ele><time>2026-04-26T15:21:34.014Z</time></trkpt><trkpt lat="46.3507559" lon="11.4915239"><ele>1758.0</ele><time>2026-04-26T15:21:35.014Z</time></trkpt><trkpt lat="46.3506215" lon="11.4915157"><ele>1758.0</ele><time>2026-04-26T15:21:36.014Z</time></trkpt><trkpt lat="46.3504941" lon="11.4915121"><ele>1758.0</ele><time>2026-04-26T15:21:37.015Z</time></trkpt><trkpt lat="46.3503734" lon="11.4915198"><ele>1754.0</ele><time>2026-04-26T15:21:38.014Z</time></trkpt><trkpt lat="46.3502571" lon="11.4915384"><ele>1750.0</ele><time>2026-04-26T15:21:39.014Z</time></trkpt><trkpt lat="46.3501408" lon="11.4915573"><ele>1746.0</ele><time>2026-04-26T15:21:40.014Z</time></trkpt><trkpt lat="46.3500167" lon="11.4915681"><ele>1742.0</ele><time>2026-04-26T15:21:41.014Z</time></trkpt><trkpt lat="46.3498954" lon="11.4915506"><ele>1742.0</ele><time>2026-04-26T15:21:42.014Z</time></trkpt><trkpt lat="46.3497662" lon="11.4915048"><ele>1742.0</ele><time>2026-04-26T15:21:43.014Z</time></trkpt><trkpt lat="46.3496296" lon="11.4914304"><ele>1742.0</ele><time>2026-04-26T15:21:44.014Z</time></trkpt><trkpt lat="46.3494807" lon="11.4913408"><ele>1742.0</ele><time>2026-04-26T15:21:45.014Z</time></trkpt><trkpt lat="46.3493101" lon="11.4912494"><ele>1745.6666666666665</ele><time>2026-04-26T15:21:46.014Z</time></trkpt><trkpt lat="46.3491268" lon="11.4911593"><ele>1749.3333333333335</ele><time>2026-04-26T15:21:47.014Z</time></trkpt><trkpt lat="46.3489404" lon="11.4910584"><ele>1753.0</ele><time>2026-04-26T15:21:48.014Z</time></trkpt><trkpt lat="46.348754" lon="11.490943"><ele>1739.3333333333335</ele><time>2026-04-26T15:21:49.015Z</time></trkpt><trkpt lat="46.3485673" lon="11.4908223"><ele>1725.6666666666665</ele><time>2026-04-26T15:21:50.014Z</time></trkpt><trkpt lat="46.3483867" lon="11.4907081"><ele>1712.0</ele><time>2026-04-26T15:21:51.015Z</time></trkpt><trkpt lat="46.3482109" lon="11.4906091"><ele>1713.3333333333333</ele><time>2026-04-26T15:21:52.014Z</time></trkpt><trkpt lat="46.3480426" lon="11.4905186"><ele>1714.6666666666665</ele><time>2026-04-26T15:21:53.014Z</time></trkpt><trkpt lat="46.3478842" lon="11.4904467"><ele>1716.0</ele><time>2026-04-26T15:21:54.014Z</time></trkpt><trkpt lat="46.3477394" lon="11.4903797"><ele>1716.0</ele><time>2026-04-26T15:21:55.014Z</time></trkpt><trkpt lat="46.3476076" lon="11.4903152"><ele>1716.0</ele><time>2026-04-26T15:21:56.014Z</time></trkpt><trkpt lat="46.3474996" lon="11.4902628"><ele>1716.0</ele><time>2026-04-26T15:21:57.014Z</time></trkpt><trkpt lat="46.3474158" lon="11.4901955"><ele>1716.0</ele><time>2026-04-26T15:21:58.015Z</time></trkpt><trkpt lat="46.3473486" lon="11.4901194"><ele>1716.0</ele><time>2026-04-26T15:21:59.014Z</time></trkpt><trkpt lat="46.3473121" lon="11.490001"><ele>1716.0</ele><time>2026-04-26T15:22:00.014Z</time></trkpt><trkpt lat="46.3472771" lon="11.489847"><ele>1716.0</ele><time>2026-04-26T15:22:01.014Z</time></trkpt><trkpt lat="46.347241" lon="11.4896752"><ele>1716.0</ele><time>2026-04-26T15:22:02.014Z</time></trkpt><trkpt lat="46.3471946" lon="11.4895114"><ele>1716.0</ele><time>2026-04-26T15:22:03.014Z</time></trkpt><trkpt lat="46.3471634" lon="11.4893592"><ele>1715.6</ele><time>2026-04-26T15:22:04.015Z</time></trkpt><trkpt lat="46.3471573" lon="11.4892261"><ele>1715.1999999999998</ele><time>2026-04-26T15:22:05.014Z</time></trkpt><trkpt lat="46.3471841" lon="11.4891002"><ele>1714.8000000000002</ele><time>2026-04-26T15:22:06.014Z</time></trkpt><trkpt lat="46.3472331" lon="11.4889781"><ele>1714.4</ele><time>2026-04-26T15:22:07.014Z</time></trkpt><trkpt lat="46.3472792" lon="11.488856"><ele>1714.0</ele><time>2026-04-26T15:22:08.014Z</time></trkpt><trkpt lat="46.3473039" lon="11.4887314"><ele>1714.0</ele><time>2026-04-26T15:22:09.014Z</time></trkpt><trkpt lat="46.3472996" lon="11.4886095"><ele>1714.0</ele><time>2026-04-26T15:22:10.014Z</time></trkpt><trkpt lat="46.3472486" lon="11.4884943"><ele>1714.0</ele><time>2026-04-26T15:22:11.014Z</time></trkpt><trkpt lat="46.347178" lon="11.4883891"><ele>1714.0</ele><time>2026-04-26T15:22:12.014Z</time></trkpt><trkpt lat="46.3470829" lon="11.4882911"><ele>1714.0</ele><time>2026-04-26T15:22:13.014Z</time></trkpt><trkpt lat="46.3469847" lon="11.4882149"><ele>1707.5</ele><time>2026-04-26T15:22:14.014Z</time></trkpt><trkpt lat="46.3468835" lon="11.4881472"><ele>1701.0</ele><time>2026-04-26T15:22:15.014Z</time></trkpt><trkpt lat="46.3467688" lon="11.4880946"><ele>1694.5</ele><time>2026-04-26T15:22:16.014Z</time></trkpt><trkpt lat="46.3466493" lon="11.4880372"><ele>1688.0</ele><time>2026-04-26T15:22:17.014Z</time></trkpt><trkpt lat="46.3465302" lon="11.4879791"><ele>1691.25</ele><time>2026-04-26T15:22:18.014Z</time></trkpt><trkpt lat="46.3464081" lon="11.4879238"><ele>1694.5</ele><time>2026-04-26T15:22:19.015Z</time></trkpt><trkpt lat="46.3462929" lon="11.4878726"><ele>1697.75</ele><time>2026-04-26T15:22:20.014Z</time></trkpt><trkpt lat="46.3461797" lon="11.4878276"><ele>1701.0</ele><time>2026-04-26T15:22:21.014Z</time></trkpt><trkpt lat="46.3460832" lon="11.4877839"><ele>1701.0</ele><time>2026-04-26T15:22:22.014Z</time></trkpt><trkpt lat="46.3459974" lon="11.4877445"><ele>1701.0</ele><time>2026-04-26T15:22:23.014Z</time></trkpt><trkpt lat="46.3459217" lon="11.4877171"><ele>1701.0</ele><time>2026-04-26T15:22:24.014Z</time></trkpt><trkpt lat="46.345856" lon="11.4876997"><ele>1701.0</ele><time>2026-04-26T15:22:25.014Z</time></trkpt><trkpt lat="46.3457576" lon="11.4876866"><ele>1701.0</ele><time>2026-04-26T15:22:27.014Z</time></trkpt><trkpt lat="46.3456831" lon="11.4876706"><ele>1701.0</ele><time>2026-04-26T15:22:30.014Z</time></trkpt><trkpt lat="46.3456159" lon="11.4877088"><ele>1697.6</ele><time>2026-04-26T15:22:52.014Z</time></trkpt><trkpt lat="46.3454891" lon="11.4877359"><ele>1694.1999999999998</ele><time>2026-04-26T15:22:54.013Z</time></trkpt><trkpt lat="46.3454066" lon="11.487742"><ele>1690.8000000000002</ele><time>2026-04-26T15:22:55.013Z</time></trkpt><trkpt lat="46.3453099" lon="11.4877531"><ele>1687.4</ele><time>2026-04-26T15:22:56.013Z</time></trkpt><trkpt lat="46.3452122" lon="11.4877582"><ele>1684.0</ele><time>2026-04-26T15:22:57.013Z</time></trkpt><trkpt lat="46.3451136" lon="11.4877672"><ele>1684.0</ele><time>2026-04-26T15:22:58.013Z</time></trkpt><trkpt lat="46.345009" lon="11.4877753"><ele>1684.0</ele><time>2026-04-26T15:22:59.013Z</time></trkpt><trkpt lat="46.3449011" lon="11.4877839"><ele>1684.0</ele><time>2026-04-26T15:23:00.013Z</time></trkpt><trkpt lat="46.3447934" lon="11.4877762"><ele>1684.0</ele><time>2026-04-26T15:23:01.013Z</time></trkpt><trkpt lat="46.3446899" lon="11.4877507"><ele>1684.0</ele><time>2026-04-26T15:23:02.013Z</time></trkpt><trkpt lat="46.344583" lon="11.4877036"><ele>1677.0</ele><time>2026-04-26T15:23:03.013Z</time></trkpt><trkpt lat="46.3444765" lon="11.4876348"><ele>1670.0</ele><time>2026-04-26T15:23:04.013Z</time></trkpt><trkpt lat="46.3443631" lon="11.4875486"><ele>1663.0</ele><time>2026-04-26T15:23:05.013Z</time></trkpt><trkpt lat="46.3442375" lon="11.4874659"><ele>1656.0</ele><time>2026-04-26T15:23:06.013Z</time></trkpt><trkpt lat="46.3440835" lon="11.4873757"><ele>1656.0</ele><time>2026-04-26T15:23:07.013Z</time></trkpt><trkpt lat="46.3439092" lon="11.4872886"><ele>1656.0</ele><time>2026-04-26T15:23:08.013Z</time></trkpt><trkpt lat="46.3437264" lon="11.4872275"><ele>1656.0</ele><time>2026-04-26T15:23:09.013Z</time></trkpt><trkpt lat="46.3435407" lon="11.4871661"><ele>1661.0</ele><time>2026-04-26T15:23:10.013Z</time></trkpt><trkpt lat="46.343354" lon="11.4870895"><ele>1666.0</ele><time>2026-04-26T15:23:11.013Z</time></trkpt><trkpt lat="46.3431736" lon="11.487"><ele>1671.0</ele><time>2026-04-26T15:23:12.013Z</time></trkpt><trkpt lat="46.3429944" lon="11.4868909"><ele>1661.0</ele><time>2026-04-26T15:23:13.013Z</time></trkpt><trkpt lat="46.3428176" lon="11.4867769"><ele>1651.0</ele><time>2026-04-26T15:23:14.013Z</time></trkpt><trkpt lat="46.3426396" lon="11.4866602"><ele>1641.0</ele><time>2026-04-26T15:23:15.014Z</time></trkpt><trkpt lat="46.3424606" lon="11.4865599"><ele>1641.0</ele><time>2026-04-26T15:23:16.013Z</time></trkpt><trkpt lat="46.3422793" lon="11.4864642"><ele>1641.0</ele><time>2026-04-26T15:23:17.014Z</time></trkpt><trkpt lat="46.3421072" lon="11.4863908"><ele>1641.0</ele><time>2026-04-26T15:23:18.013Z</time></trkpt><trkpt lat="46.3419436" lon="11.4863077"><ele>1642.3333333333335</ele><time>2026-04-26T15:23:19.013Z</time></trkpt><trkpt lat="46.3417837" lon="11.4862065"><ele>1643.6666666666667</ele><time>2026-04-26T15:23:20.013Z</time></trkpt><trkpt lat="46.3416246" lon="11.4860945"><ele>1645.0</ele><time>2026-04-26T15:23:21.013Z</time></trkpt><trkpt lat="46.3414679" lon="11.485982"><ele>1629.3333333333335</ele><time>2026-04-26T15:23:22.013Z</time></trkpt><trkpt lat="46.3413187" lon="11.4858646"><ele>1613.6666666666665</ele><time>2026-04-26T15:23:23.013Z</time></trkpt><trkpt lat="46.3411875" lon="11.4857233"><ele>1598.0</ele><time>2026-04-26T15:23:24.013Z</time></trkpt><trkpt lat="46.3410571" lon="11.4855648"><ele>1610.6666666666665</ele><time>2026-04-26T15:23:25.013Z</time></trkpt><trkpt lat="46.3409275" lon="11.4854054"><ele>1623.3333333333335</ele><time>2026-04-26T15:23:26.013Z</time></trkpt><trkpt lat="46.3407974" lon="11.4852483"><ele>1636.0</ele><time>2026-04-26T15:23:27.013Z</time></trkpt><trkpt lat="46.340654" lon="11.4850997"><ele>1623.3333333333335</ele><time>2026-04-26T15:23:28.013Z</time></trkpt><trkpt lat="46.340492" lon="11.4849758"><ele>1610.6666666666665</ele><time>2026-04-26T15:23:29.013Z</time></trkpt><trkpt lat="46.3403218" lon="11.4848832"><ele>1598.0</ele><time>2026-04-26T15:23:30.013Z</time></trkpt><trkpt lat="46.3401448" lon="11.484808"><ele>1598.0</ele><time>2026-04-26T15:23:31.013Z</time></trkpt><trkpt lat="46.3399688" lon="11.4847271"><ele>1598.0</ele><time>2026-04-26T15:23:32.013Z</time></trkpt><trkpt lat="46.3398103" lon="11.4846387"><ele>1598.0</ele><time>2026-04-26T15:23:33.013Z</time></trkpt><trkpt lat="46.3396666" lon="11.484562"><ele>1598.75</ele><time>2026-04-26T15:23:34.013Z</time></trkpt><trkpt lat="46.3395347" lon="11.4845092"><ele>1599.5</ele><time>2026-04-26T15:23:35.013Z</time></trkpt><trkpt lat="46.3394005" lon="11.4844931"><ele>1600.25</ele><time>2026-04-26T15:23:36.013Z</time></trkpt><trkpt lat="46.3392594" lon="11.4845235"><ele>1601.0</ele><time>2026-04-26T15:23:37.013Z</time></trkpt><trkpt lat="46.3391073" lon="11.4845896"><ele>1595.6666666666665</ele><time>2026-04-26T15:23:38.013Z</time></trkpt><trkpt lat="46.3389434" lon="11.484688"><ele>1590.3333333333335</ele><time>2026-04-26T15:23:39.013Z</time></trkpt><trkpt lat="46.3387706" lon="11.4847971"><ele>1585.0</ele><time>2026-04-26T15:23:40.013Z</time></trkpt><trkpt lat="46.3385901" lon="11.4849054"><ele>1582.6666666666667</ele><time>2026-04-26T15:23:41.013Z</time></trkpt><trkpt lat="46.3384027" lon="11.48501"><ele>1580.3333333333335</ele><time>2026-04-26T15:23:42.013Z</time></trkpt><trkpt lat="46.3382176" lon="11.4851164"><ele>1578.0</ele><time>2026-04-26T15:23:43.013Z</time></trkpt><trkpt lat="46.3380368" lon="11.4852255"><ele>1577.6666666666665</ele><time>2026-04-26T15:23:44.013Z</time></trkpt><trkpt lat="46.3378615" lon="11.4853257"><ele>1577.3333333333333</ele><time>2026-04-26T15:23:45.013Z</time></trkpt><trkpt lat="46.337696" lon="11.485397"><ele>1577.0</ele><time>2026-04-26T15:23:46.013Z</time></trkpt><trkpt lat="46.3375549" lon="11.4854311"><ele>1577.0</ele><time>2026-04-26T15:23:47.013Z</time></trkpt><trkpt lat="46.3374172" lon="11.4854074"><ele>1577.0</ele><time>2026-04-26T15:23:48.013Z</time></trkpt><trkpt lat="46.3372929" lon="11.4853344"><ele>1577.0</ele><time>2026-04-26T15:23:49.013Z</time></trkpt><trkpt lat="46.3371563" lon="11.4852219"><ele>1577.0</ele><time>2026-04-26T15:23:50.013Z</time></trkpt><trkpt lat="46.3370099" lon="11.4850897"><ele>1570.3333333333333</ele><time>2026-04-26T15:23:51.013Z</time></trkpt><trkpt lat="46.3368594" lon="11.4849556"><ele>1563.6666666666665</ele><time>2026-04-26T15:23:52.013Z</time></trkpt><trkpt lat="46.3366947" lon="11.4848201"><ele>1557.0</ele><time>2026-04-26T15:23:53.013Z</time></trkpt><trkpt lat="46.3365284" lon="11.4846811"><ele>1552.6666666666665</ele><time>2026-04-26T15:23:54.013Z</time></trkpt><trkpt lat="46.3363661" lon="11.4845392"><ele>1548.3333333333333</ele><time>2026-04-26T15:23:55.013Z</time></trkpt><trkpt lat="46.3362006" lon="11.4844072"><ele>1544.0</ele><time>2026-04-26T15:23:56.013Z</time></trkpt><trkpt lat="46.336034" lon="11.4842756"><ele>1544.0</ele><time>2026-04-26T15:23:57.014Z</time></trkpt><trkpt lat="46.3358685" lon="11.4841485"><ele>1544.0</ele><time>2026-04-26T15:23:58.013Z</time></trkpt><trkpt lat="46.3356957" lon="11.4840152"><ele>1544.0</ele><time>2026-04-26T15:23:59.013Z</time></trkpt><trkpt lat="46.3355202" lon="11.4838898"><ele>1543.3333333333333</ele><time>2026-04-26T15:24:00.013Z</time></trkpt><trkpt lat="46.3353355" lon="11.4837823"><ele>1542.6666666666665</ele><time>2026-04-26T15:24:01.013Z</time></trkpt><trkpt lat="46.335148" lon="11.4836949"><ele>1542.0</ele><time>2026-04-26T15:24:02.013Z</time></trkpt><trkpt lat="46.3349604" lon="11.4836208"><ele>1540.0</ele><time>2026-04-26T15:24:03.013Z</time></trkpt><trkpt lat="46.3347747" lon="11.4835596"><ele>1538.0</ele><time>2026-04-26T15:24:04.013Z</time></trkpt><trkpt lat="46.3345916" lon="11.4835187"><ele>1536.0</ele><time>2026-04-26T15:24:05.014Z</time></trkpt><trkpt lat="46.3344172" lon="11.4835082"><ele>1535.3333333333333</ele><time>2026-04-26T15:24:06.013Z</time></trkpt><trkpt lat="46.3342458" lon="11.4835395"><ele>1534.6666666666665</ele><time>2026-04-26T15:24:07.013Z</time></trkpt><trkpt lat="46.3340718" lon="11.4835995"><ele>1534.0</ele><time>2026-04-26T15:24:08.013Z</time></trkpt><trkpt lat="46.333889" lon="11.4836709"><ele>1531.0</ele><time>2026-04-26T15:24:09.013Z</time></trkpt><trkpt lat="46.3336942" lon="11.4837388"><ele>1528.0</ele><time>2026-04-26T15:24:10.013Z</time></trkpt><trkpt lat="46.3335052" lon="11.4838083"><ele>1525.0</ele><time>2026-04-26T15:24:11.013Z</time></trkpt><trkpt lat="46.3333299" lon="11.4838755"><ele>1523.0</ele><time>2026-04-26T15:24:12.013Z</time></trkpt><trkpt lat="46.3331558" lon="11.4839346"><ele>1521.0</ele><time>2026-04-26T15:24:13.013Z</time></trkpt><trkpt lat="46.332986" lon="11.483988"><ele>1519.0</ele><time>2026-04-26T15:24:14.013Z</time></trkpt><trkpt lat="46.3328172" lon="11.4840239"><ele>1516.3333333333333</ele><time>2026-04-26T15:24:15.013Z</time></trkpt><trkpt lat="46.3326414" lon="11.4840473"><ele>1513.6666666666667</ele><time>2026-04-26T15:24:16.013Z</time></trkpt><trkpt lat="46.3324596" lon="11.4840525"><ele>1511.0</ele><time>2026-04-26T15:24:17.013Z</time></trkpt><trkpt lat="46.3322728" lon="11.4840344"><ele>1510.3333333333335</ele><time>2026-04-26T15:24:18.013Z</time></trkpt><trkpt lat="46.3320844" lon="11.4840076"><ele>1509.6666666666667</ele><time>2026-04-26T15:24:19.013Z</time></trkpt><trkpt lat="46.331891" lon="11.483981"><ele>1509.0</ele><time>2026-04-26T15:24:20.013Z</time></trkpt><trkpt lat="46.3316973" lon="11.483954"><ele>1509.0</ele><time>2026-04-26T15:24:21.013Z</time></trkpt><trkpt lat="46.3315087" lon="11.4839187"><ele>1509.0</ele><time>2026-04-26T15:24:22.013Z</time></trkpt><trkpt lat="46.3313258" lon="11.483853"><ele>1509.0</ele><time>2026-04-26T15:24:23.013Z</time></trkpt><trkpt lat="46.3311541" lon="11.4837786"><ele>1505.5</ele><time>2026-04-26T15:24:24.013Z</time></trkpt><trkpt lat="46.3310043" lon="11.483692"><ele>1502.0</ele><time>2026-04-26T15:24:25.013Z</time></trkpt><trkpt lat="46.3308707" lon="11.4836221"><ele>1498.5</ele><time>2026-04-26T15:24:26.013Z</time></trkpt><trkpt lat="46.3307495" lon="11.4835824"><ele>1495.0</ele><time>2026-04-26T15:24:27.013Z</time></trkpt><trkpt lat="46.3306265" lon="11.4835869"><ele>1495.5</ele><time>2026-04-26T15:24:28.013Z</time></trkpt><trkpt lat="46.3304985" lon="11.4836233"><ele>1496.0</ele><time>2026-04-26T15:24:29.013Z</time></trkpt><trkpt lat="46.3303737" lon="11.4836805"><ele>1496.5</ele><time>2026-04-26T15:24:30.013Z</time></trkpt><trkpt lat="46.3302454" lon="11.4837233"><ele>1497.0</ele><time>2026-04-26T15:24:31.013Z</time></trkpt><trkpt lat="46.3301085" lon="11.4837364"><ele>1497.0</ele><time>2026-04-26T15:24:32.013Z</time></trkpt><trkpt lat="46.3299615" lon="11.4837236"><ele>1497.0</ele><time>2026-04-26T15:24:33.013Z</time></trkpt><trkpt lat="46.3298076" lon="11.4836969"><ele>1497.0</ele><time>2026-04-26T15:24:34.013Z</time></trkpt><trkpt lat="46.3296494" lon="11.483668"><ele>1496.6666666666667</ele><time>2026-04-26T15:24:35.013Z</time></trkpt><trkpt lat="46.3294785" lon="11.4836662"><ele>1496.3333333333335</ele><time>2026-04-26T15:24:36.013Z</time></trkpt><trkpt lat="46.3292928" lon="11.4836897"><ele>1496.0</ele><time>2026-04-26T15:24:37.014Z</time></trkpt><trkpt lat="46.3291086" lon="11.483731"><ele>1491.0</ele><time>2026-04-26T15:24:38.013Z</time></trkpt><trkpt lat="46.3289275" lon="11.4837805"><ele>1486.0</ele><time>2026-04-26T15:24:39.013Z</time></trkpt><trkpt lat="46.328756" lon="11.4838201"><ele>1481.0</ele><time>2026-04-26T15:24:40.013Z</time></trkpt><trkpt lat="46.3285927" lon="11.4838371"><ele>1477.6666666666667</ele><time>2026-04-26T15:24:41.013Z</time></trkpt><trkpt lat="46.3284221" lon="11.4838217"><ele>1474.3333333333333</ele><time>2026-04-26T15:24:42.013Z</time></trkpt><trkpt lat="46.32826" lon="11.4837729"><ele>1471.0</ele><time>2026-04-26T15:24:43.013Z</time></trkpt><trkpt lat="46.3280949" lon="11.4837162"><ele>1470.0</ele><time>2026-04-26T15:24:44.013Z</time></trkpt><trkpt lat="46.3279206" lon="11.4836906"><ele>1469.0</ele><time>2026-04-26T15:24:45.013Z</time></trkpt><trkpt lat="46.3277417" lon="11.4836934"><ele>1468.0</ele><time>2026-04-26T15:24:46.013Z</time></trkpt><trkpt lat="46.3275571" lon="11.4837134"><ele>1468.0</ele><time>2026-04-26T15:24:47.013Z</time></trkpt><trkpt lat="46.3273674" lon="11.4837353"><ele>1468.0</ele><time>2026-04-26T15:24:48.013Z</time></trkpt><trkpt lat="46.3271777" lon="11.4837539"><ele>1468.0</ele><time>2026-04-26T15:24:49.014Z</time></trkpt><trkpt lat="46.3269802" lon="11.4837694"><ele>1463.0</ele><time>2026-04-26T15:24:50.013Z</time></trkpt><trkpt lat="46.3267819" lon="11.4837803"><ele>1458.0</ele><time>2026-04-26T15:24:51.013Z</time></trkpt><trkpt lat="46.3265867" lon="11.4837844"><ele>1453.0</ele><time>2026-04-26T15:24:52.013Z</time></trkpt><trkpt lat="46.3263968" lon="11.4838004"><ele>1453.6666666666665</ele><time>2026-04-26T15:24:53.013Z</time></trkpt><trkpt lat="46.3262194" lon="11.4838475"><ele>1454.3333333333333</ele><time>2026-04-26T15:24:54.013Z</time></trkpt><trkpt lat="46.32605" lon="11.4839174"><ele>1455.0</ele><time>2026-04-26T15:24:55.013Z</time></trkpt><trkpt lat="46.3258897" lon="11.4840063"><ele>1455.0</ele><time>2026-04-26T15:24:56.013Z</time></trkpt><trkpt lat="46.3257326" lon="11.4840863"><ele>1455.0</ele><time>2026-04-26T15:24:57.013Z</time></trkpt><trkpt lat="46.3255744" lon="11.4841562"><ele>1455.0</ele><time>2026-04-26T15:24:58.013Z</time></trkpt><trkpt lat="46.3254049" lon="11.4842014"><ele>1453.3333333333333</ele><time>2026-04-26T15:24:59.013Z</time></trkpt><trkpt lat="46.3252202" lon="11.4842232"><ele>1451.6666666666665</ele><time>2026-04-26T15:25:00.013Z</time></trkpt><trkpt lat="46.3250237" lon="11.4842214"><ele>1450.0</ele><time>2026-04-26T15:25:01.013Z</time></trkpt><trkpt lat="46.3248214" lon="11.4842172"><ele>1449.3333333333333</ele><time>2026-04-26T15:25:02.013Z</time></trkpt><trkpt lat="46.3246158" lon="11.4842207"><ele>1448.6666666666667</ele><time>2026-04-26T15:25:03.013Z</time></trkpt><trkpt lat="46.3244089" lon="11.4842233"><ele>1448.0</ele><time>2026-04-26T15:25:04.013Z</time></trkpt><trkpt lat="46.3242095" lon="11.4842419"><ele>1448.0</ele><time>2026-04-26T15:25:05.013Z</time></trkpt><trkpt lat="46.3240221" lon="11.4842807"><ele>1448.0</ele><time>2026-04-26T15:25:06.013Z</time></trkpt><trkpt lat="46.3238453" lon="11.484328"><ele>1448.0</ele><time>2026-04-26T15:25:07.013Z</time></trkpt><trkpt lat="46.323672" lon="11.4843635"><ele>1446.3333333333335</ele><time>2026-04-26T15:25:08.013Z</time></trkpt><trkpt lat="46.3234968" lon="11.4843662"><ele>1444.6666666666667</ele><time>2026-04-26T15:25:09.013Z</time></trkpt><trkpt lat="46.3233175" lon="11.4843411"><ele>1443.0</ele><time>2026-04-26T15:25:10.013Z</time></trkpt><trkpt lat="46.32313" lon="11.4843065"><ele>1440.6666666666667</ele><time>2026-04-26T15:25:11.013Z</time></trkpt><trkpt lat="46.3229372" lon="11.4842702"><ele>1438.3333333333335</ele><time>2026-04-26T15:25:12.013Z</time></trkpt><trkpt lat="46.3227465" lon="11.4842508"><ele>1436.0</ele><time>2026-04-26T15:25:13.013Z</time></trkpt><trkpt lat="46.3225619" lon="11.4842588"><ele>1436.0</ele><time>2026-04-26T15:25:14.013Z</time></trkpt><trkpt lat="46.3223865" lon="11.4842848"><ele>1436.0</ele><time>2026-04-26T15:25:15.013Z</time></trkpt><trkpt lat="46.3222136" lon="11.4842908"><ele>1436.0</ele><time>2026-04-26T15:25:16.013Z</time></trkpt><trkpt lat="46.3220407" lon="11.4842604"><ele>1434.0</ele><time>2026-04-26T15:25:17.013Z</time></trkpt><trkpt lat="46.3218649" lon="11.4841908"><ele>1432.0</ele><time>2026-04-26T15:25:18.013Z</time></trkpt><trkpt lat="46.3216856" lon="11.4841025"><ele>1430.0</ele><time>2026-04-26T15:25:19.013Z</time></trkpt><trkpt lat="46.3214998" lon="11.4840081"><ele>1429.3333333333335</ele><time>2026-04-26T15:25:20.014Z</time></trkpt><trkpt lat="46.3213101" lon="11.4839138"><ele>1428.6666666666667</ele><time>2026-04-26T15:25:21.014Z</time></trkpt><trkpt lat="46.3211232" lon="11.4838182"><ele>1428.0</ele><time>2026-04-26T15:25:22.013Z</time></trkpt><trkpt lat="46.3209449" lon="11.4837079"><ele>1427.0</ele><time>2026-04-26T15:25:23.013Z</time></trkpt><trkpt lat="46.3207739" lon="11.4835864"><ele>1426.0</ele><time>2026-04-26T15:25:24.013Z</time></trkpt><trkpt lat="46.3206147" lon="11.4834494"><ele>1425.0</ele><time>2026-04-26T15:25:25.013Z</time></trkpt><trkpt lat="46.3204609" lon="11.4832991"><ele>1423.0</ele><time>2026-04-26T15:25:26.013Z</time></trkpt><trkpt lat="46.3203105" lon="11.4831337"><ele>1421.0</ele><time>2026-04-26T15:25:27.013Z</time></trkpt><trkpt lat="46.3201599" lon="11.482948"><ele>1419.0</ele><time>2026-04-26T15:25:28.013Z</time></trkpt><trkpt lat="46.3200135" lon="11.48274"><ele>1419.0</ele><time>2026-04-26T15:25:29.013Z</time></trkpt><trkpt lat="46.3198677" lon="11.4825051"><ele>1419.0</ele><time>2026-04-26T15:25:30.013Z</time></trkpt><trkpt lat="46.3197148" lon="11.4822559"><ele>1419.0</ele><time>2026-04-26T15:25:31.013Z</time></trkpt><trkpt lat="46.3195551" lon="11.4819972"><ele>1415.5</ele><time>2026-04-26T15:25:32.013Z</time></trkpt><trkpt lat="46.3193908" lon="11.4817411"><ele>1412.0</ele><time>2026-04-26T15:25:33.013Z</time></trkpt><trkpt lat="46.3192291" lon="11.4814891"><ele>1412.5</ele><time>2026-04-26T15:25:34.014Z</time></trkpt><trkpt lat="46.3190729" lon="11.481243"><ele>1413.0</ele><time>2026-04-26T15:25:35.013Z</time></trkpt><trkpt lat="46.3189206" lon="11.4810054"><ele>1411.3333333333333</ele><time>2026-04-26T15:25:36.013Z</time></trkpt><trkpt lat="46.3187754" lon="11.4807785"><ele>1409.6666666666665</ele><time>2026-04-26T15:25:37.013Z</time></trkpt><trkpt lat="46.3186327" lon="11.4805577"><ele>1408.0</ele><time>2026-04-26T15:25:38.013Z</time></trkpt><trkpt lat="46.3184864" lon="11.4803474"><ele>1408.0</ele><time>2026-04-26T15:25:39.013Z</time></trkpt><trkpt lat="46.3183321" lon="11.4801531"><ele>1408.0</ele><time>2026-04-26T15:25:40.014Z</time></trkpt><trkpt lat="46.3181655" lon="11.4799732"><ele>1408.0</ele><time>2026-04-26T15:25:41.013Z</time></trkpt><trkpt lat="46.3179937" lon="11.4798017"><ele>1406.0</ele><time>2026-04-26T15:25:42.014Z</time></trkpt><trkpt lat="46.3178192" lon="11.4796417"><ele>1404.0</ele><time>2026-04-26T15:25:43.013Z</time></trkpt><trkpt lat="46.3176458" lon="11.4794838"><ele>1402.0</ele><time>2026-04-26T15:25:44.014Z</time></trkpt><trkpt lat="46.3174882" lon="11.4793258"><ele>1402.0</ele><time>2026-04-26T15:25:45.013Z</time></trkpt><trkpt lat="46.3173434" lon="11.4791607"><ele>1402.0</ele><time>2026-04-26T15:25:46.013Z</time></trkpt><trkpt lat="46.3172152" lon="11.4789747"><ele>1402.0</ele><time>2026-04-26T15:25:47.013Z</time></trkpt><trkpt lat="46.3170958" lon="11.4787555"><ele>1398.3333333333333</ele><time>2026-04-26T15:25:48.013Z</time></trkpt><trkpt lat="46.3169778" lon="11.4785152"><ele>1394.6666666666667</ele><time>2026-04-26T15:25:49.013Z</time></trkpt><trkpt lat="46.3168561" lon="11.478254"><ele>1391.0</ele><time>2026-04-26T15:25:50.014Z</time></trkpt><trkpt lat="46.316728" lon="11.4779825"><ele>1391.5</ele><time>2026-04-26T15:25:51.013Z</time></trkpt><trkpt lat="46.3165943" lon="11.4777046"><ele>1392.0</ele><time>2026-04-26T15:25:52.013Z</time></trkpt><trkpt lat="46.3164627" lon="11.4774192"><ele>1386.0</ele><time>2026-04-26T15:25:53.013Z</time></trkpt><trkpt lat="46.3163265" lon="11.4771382"><ele>1380.0</ele><time>2026-04-26T15:25:54.013Z</time></trkpt><trkpt lat="46.3161904" lon="11.4768591"><ele>1380.0</ele><time>2026-04-26T15:25:55.013Z</time></trkpt><trkpt lat="46.3160587" lon="11.4765846"><ele>1380.0</ele><time>2026-04-26T15:25:56.013Z</time></trkpt><trkpt lat="46.3159286" lon="11.4763205"><ele>1380.0</ele><time>2026-04-26T15:25:57.013Z</time></trkpt><trkpt lat="46.315805" lon="11.4760683"><ele>1380.0</ele><time>2026-04-26T15:25:58.013Z</time></trkpt><trkpt lat="46.3156855" lon="11.4758194"><ele>1380.0</ele><time>2026-04-26T15:25:59.013Z</time></trkpt><trkpt lat="46.3155734" lon="11.4755787"><ele>1377.0</ele><time>2026-04-26T15:26:00.013Z</time></trkpt><trkpt lat="46.3154593" lon="11.4753426"><ele>1374.0</ele><time>2026-04-26T15:26:01.013Z</time></trkpt><trkpt lat="46.315349" lon="11.4751156"><ele>1371.0</ele><time>2026-04-26T15:26:02.013Z</time></trkpt><trkpt lat="46.3152444" lon="11.4748807"><ele>1371.0</ele><time>2026-04-26T15:26:03.013Z</time></trkpt><trkpt lat="46.3151499" lon="11.4746378"><ele>1371.0</ele><time>2026-04-26T15:26:04.013Z</time></trkpt><trkpt lat="46.3150666" lon="11.4743755"><ele>1371.0</ele><time>2026-04-26T15:26:05.013Z</time></trkpt><trkpt lat="46.3149962" lon="11.4741046"><ele>1373.6666666666667</ele><time>2026-04-26T15:26:06.013Z</time></trkpt><trkpt lat="46.3149207" lon="11.473823"><ele>1376.3333333333335</ele><time>2026-04-26T15:26:07.013Z</time></trkpt><trkpt lat="46.3148463" lon="11.4735443"><ele>1379.0</ele><time>2026-04-26T15:26:08.013Z</time></trkpt><trkpt lat="46.3147795" lon="11.4732705"><ele>1376.0</ele><time>2026-04-26T15:26:09.013Z</time></trkpt><trkpt lat="46.3147276" lon="11.4729972"><ele>1373.0</ele><time>2026-04-26T15:26:10.013Z</time></trkpt><trkpt lat="46.3146933" lon="11.472732"><ele>1370.0</ele><time>2026-04-26T15:26:11.013Z</time></trkpt><trkpt lat="46.3146727" lon="11.4724787"><ele>1370.0</ele><time>2026-04-26T15:26:12.013Z</time></trkpt><trkpt lat="46.3146608" lon="11.4722597"><ele>1370.0</ele><time>2026-04-26T15:26:13.013Z</time></trkpt><trkpt lat="46.3146415" lon="11.4720621"><ele>1370.0</ele><time>2026-04-26T15:26:14.013Z</time></trkpt><trkpt lat="46.3146064" lon="11.4718889"><ele>1370.0</ele><time>2026-04-26T15:26:15.013Z</time></trkpt><trkpt lat="46.3145357" lon="11.4717379"><ele>1371.3333333333335</ele><time>2026-04-26T15:26:16.013Z</time></trkpt><trkpt lat="46.3144358" lon="11.4716019"><ele>1372.6666666666667</ele><time>2026-04-26T15:26:17.013Z</time></trkpt><trkpt lat="46.3143079" lon="11.4714818"><ele>1374.0</ele><time>2026-04-26T15:26:18.013Z</time></trkpt><trkpt lat="46.3141562" lon="11.4713724"><ele>1374.3333333333333</ele><time>2026-04-26T15:26:19.013Z</time></trkpt><trkpt lat="46.3139953" lon="11.4712691"><ele>1374.6666666666665</ele><time>2026-04-26T15:26:20.013Z</time></trkpt><trkpt lat="46.3138402" lon="11.4711664"><ele>1375.0</ele><time>2026-04-26T15:26:21.013Z</time></trkpt><trkpt lat="46.3136973" lon="11.4710743"><ele>1374.0</ele><time>2026-04-26T15:26:22.013Z</time></trkpt><trkpt lat="46.3135631" lon="11.4710016"><ele>1373.0</ele><time>2026-04-26T15:26:23.013Z</time></trkpt><trkpt lat="46.3134372" lon="11.4709553"><ele>1372.0</ele><time>2026-04-26T15:26:24.013Z</time></trkpt><trkpt lat="46.3133143" lon="11.4709512"><ele>1371.0</ele><time>2026-04-26T15:26:25.013Z</time></trkpt><trkpt lat="46.3131916" lon="11.4709977"><ele>1371.0</ele><time>2026-04-26T15:26:26.013Z</time></trkpt><trkpt lat="46.3130727" lon="11.471084"><ele>1371.0</ele><time>2026-04-26T15:26:27.013Z</time></trkpt><trkpt lat="46.3129588" lon="11.4711632"><ele>1371.0</ele><time>2026-04-26T15:26:28.013Z</time></trkpt><trkpt lat="46.3128573" lon="11.4712065"><ele>1371.0</ele><time>2026-04-26T15:26:29.013Z</time></trkpt><trkpt lat="46.312769" lon="11.4711975"><ele>1368.4</ele><time>2026-04-26T15:26:30.013Z</time></trkpt><trkpt lat="46.3127036" lon="11.4711437"><ele>1365.8</ele><time>2026-04-26T15:26:31.013Z</time></trkpt><trkpt lat="46.312653" lon="11.4710583"><ele>1363.2</ele><time>2026-04-26T15:26:32.013Z</time></trkpt><trkpt lat="46.3126145" lon="11.4709176"><ele>1360.6000000000001</ele><time>2026-04-26T15:26:33.013Z</time></trkpt><trkpt lat="46.3125771" lon="11.4707312"><ele>1358.0</ele><time>2026-04-26T15:26:34.013Z</time></trkpt><trkpt lat="46.312523" lon="11.470543"><ele>1356.75</ele><time>2026-04-26T15:26:35.013Z</time></trkpt><trkpt lat="46.3124746" lon="11.4703697"><ele>1355.5</ele><time>2026-04-26T15:26:36.013Z</time></trkpt><trkpt lat="46.3124551" lon="11.470188"><ele>1354.25</ele><time>2026-04-26T15:26:37.014Z</time></trkpt><trkpt lat="46.3124707" lon="11.4700014"><ele>1353.0</ele><time>2026-04-26T15:26:38.013Z</time></trkpt><trkpt lat="46.3124753" lon="11.4698206"><ele>1353.0</ele><time>2026-04-26T15:26:39.013Z</time></trkpt><trkpt lat="46.3124431" lon="11.469655"><ele>1353.0</ele><time>2026-04-26T15:26:40.013Z</time></trkpt><trkpt lat="46.3123796" lon="11.4695169"><ele>1353.0</ele><time>2026-04-26T15:26:41.013Z</time></trkpt><trkpt lat="46.3123133" lon="11.4693865"><ele>1353.0</ele><time>2026-04-26T15:26:42.013Z</time></trkpt><trkpt lat="46.3122677" lon="11.4692436"><ele>1351.25</ele><time>2026-04-26T15:26:43.013Z</time></trkpt><trkpt lat="46.3122494" lon="11.4690722"><ele>1349.5</ele><time>2026-04-26T15:26:44.013Z</time></trkpt><trkpt lat="46.3122406" lon="11.468881"><ele>1347.75</ele><time>2026-04-26T15:26:45.013Z</time></trkpt><trkpt lat="46.3122254" lon="11.4686702"><ele>1346.0</ele><time>2026-04-26T15:26:46.013Z</time></trkpt><trkpt lat="46.312198" lon="11.4684706"><ele>1345.5</ele><time>2026-04-26T15:26:47.013Z</time></trkpt><trkpt lat="46.3121761" lon="11.4682778"><ele>1345.0</ele><time>2026-04-26T15:26:48.013Z</time></trkpt><trkpt lat="46.312177" lon="11.4680797"><ele>1344.5</ele><time>2026-04-26T15:26:49.013Z</time></trkpt><trkpt lat="46.3122029" lon="11.4678762"><ele>1344.0</ele><time>2026-04-26T15:26:50.013Z</time></trkpt><trkpt lat="46.3122418" lon="11.4676579"><ele>1344.0</ele><time>2026-04-26T15:26:51.013Z</time></trkpt><trkpt lat="46.3122818" lon="11.4674624"><ele>1344.0</ele><time>2026-04-26T15:26:52.013Z</time></trkpt><trkpt lat="46.3123127" lon="11.4673003"><ele>1344.0</ele><time>2026-04-26T15:26:53.013Z</time></trkpt><trkpt lat="46.3122937" lon="11.4671643"><ele>1344.0</ele><time>2026-04-26T15:26:54.013Z</time></trkpt><trkpt lat="46.3122484" lon="11.4670402"><ele>1339.6</ele><time>2026-04-26T15:26:55.013Z</time></trkpt><trkpt lat="46.3121728" lon="11.4669381"><ele>1335.2</ele><time>2026-04-26T15:26:56.013Z</time></trkpt><trkpt lat="46.3120906" lon="11.4668574"><ele>1330.8</ele><time>2026-04-26T15:26:57.013Z</time></trkpt><trkpt lat="46.3119879" lon="11.4667814"><ele>1326.3999999999999</ele><time>2026-04-26T15:26:58.013Z</time></trkpt><trkpt lat="46.3118979" lon="11.4666864"><ele>1322.0</ele><time>2026-04-26T15:26:59.013Z</time></trkpt><trkpt lat="46.3118423" lon="11.466569"><ele>1322.0</ele><time>2026-04-26T15:27:00.014Z</time></trkpt><trkpt lat="46.3118344" lon="11.4664369"><ele>1322.0</ele><time>2026-04-26T15:27:01.013Z</time></trkpt><trkpt lat="46.311844" lon="11.4662698"><ele>1322.0</ele><time>2026-04-26T15:27:02.013Z</time></trkpt><trkpt lat="46.3118556" lon="11.4660789"><ele>1322.0</ele><time>2026-04-26T15:27:03.013Z</time></trkpt><trkpt lat="46.3118787" lon="11.465855"><ele>1320.3333333333335</ele><time>2026-04-26T15:27:04.013Z</time></trkpt><trkpt lat="46.3118965" lon="11.4656058"><ele>1318.6666666666667</ele><time>2026-04-26T15:27:05.013Z</time></trkpt><trkpt lat="46.3119065" lon="11.4653564"><ele>1317.0</ele><time>2026-04-26T15:27:06.013Z</time></trkpt><trkpt lat="46.3119084" lon="11.4651146"><ele>1314.25</ele><time>2026-04-26T15:27:07.013Z</time></trkpt><trkpt lat="46.3118963" lon="11.4648719"><ele>1311.5</ele><time>2026-04-26T15:27:08.013Z</time></trkpt><trkpt lat="46.3118813" lon="11.464656"><ele>1308.75</ele><time>2026-04-26T15:27:09.013Z</time></trkpt><trkpt lat="46.3118624" lon="11.4644804"><ele>1306.0</ele><time>2026-04-26T15:27:10.013Z</time></trkpt><trkpt lat="46.3118537" lon="11.4643154"><ele>1304.4</ele><time>2026-04-26T15:27:11.013Z</time></trkpt><trkpt lat="46.3118607" lon="11.4641746"><ele>1302.8</ele><time>2026-04-26T15:27:12.013Z</time></trkpt><trkpt lat="46.311894" lon="11.4640325"><ele>1301.2</ele><time>2026-04-26T15:27:13.013Z</time></trkpt><trkpt lat="46.3119549" lon="11.4639022"><ele>1299.6000000000001</ele><time>2026-04-26T15:27:14.013Z</time></trkpt><trkpt lat="46.3120451" lon="11.4637623"><ele>1298.0</ele><time>2026-04-26T15:27:15.013Z</time></trkpt><trkpt lat="46.3121346" lon="11.4636245"><ele>1297.0</ele><time>2026-04-26T15:27:16.013Z</time></trkpt><trkpt lat="46.3122248" lon="11.4634969"><ele>1296.0</ele><time>2026-04-26T15:27:17.013Z</time></trkpt><trkpt lat="46.3122975" lon="11.4633793"><ele>1295.0</ele><time>2026-04-26T15:27:18.013Z</time></trkpt><trkpt lat="46.3123459" lon="11.4632548"><ele>1294.0</ele><time>2026-04-26T15:27:19.013Z</time></trkpt><trkpt lat="46.3123479" lon="11.4631169"><ele>1293.0</ele><time>2026-04-26T15:27:20.013Z</time></trkpt><trkpt lat="46.3123094" lon="11.4629997"><ele>1293.25</ele><time>2026-04-26T15:27:21.013Z</time></trkpt><trkpt lat="46.3122499" lon="11.4628814"><ele>1293.5</ele><time>2026-04-26T15:27:22.013Z</time></trkpt><trkpt lat="46.3121579" lon="11.4627637"><ele>1293.75</ele><time>2026-04-26T15:27:23.013Z</time></trkpt><trkpt lat="46.3120392" lon="11.4626498"><ele>1294.0</ele><time>2026-04-26T15:27:24.013Z</time></trkpt><trkpt lat="46.3118994" lon="11.4625487"><ele>1294.0</ele><time>2026-04-26T15:27:25.013Z</time></trkpt><trkpt lat="46.3117438" lon="11.4624661"><ele>1294.0</ele><time>2026-04-26T15:27:26.013Z</time></trkpt><trkpt lat="46.3115746" lon="11.462399"><ele>1294.0</ele><time>2026-04-26T15:27:27.013Z</time></trkpt><trkpt lat="46.3113988" lon="11.4623654"><ele>1289.6666666666665</ele><time>2026-04-26T15:27:28.013Z</time></trkpt><trkpt lat="46.3112297" lon="11.462368"><ele>1285.3333333333333</ele><time>2026-04-26T15:27:29.013Z</time></trkpt><trkpt lat="46.3110792" lon="11.462392"><ele>1281.0</ele><time>2026-04-26T15:27:30.013Z</time></trkpt><trkpt lat="46.310938" lon="11.4624202"><ele>1281.0</ele><time>2026-04-26T15:27:31.013Z</time></trkpt><trkpt lat="46.3108073" lon="11.4624393"><ele>1281.0</ele><time>2026-04-26T15:27:32.013Z</time></trkpt><trkpt lat="46.3106866" lon="11.4624113"><ele>1281.0</ele><time>2026-04-26T15:27:33.013Z</time></trkpt><trkpt lat="46.310582" lon="11.4623245"><ele>1281.0</ele><time>2026-04-26T15:27:34.013Z</time></trkpt><trkpt lat="46.3105023" lon="11.4622038"><ele>1277.6</ele><time>2026-04-26T15:27:35.013Z</time></trkpt><trkpt lat="46.3104213" lon="11.4620742"><ele>1274.1999999999998</ele><time>2026-04-26T15:27:36.013Z</time></trkpt><trkpt lat="46.3103359" lon="11.4619758"><ele>1270.8000000000002</ele><time>2026-04-26T15:27:37.013Z</time></trkpt><trkpt lat="46.3102322" lon="11.4619248"><ele>1267.4</ele><time>2026-04-26T15:27:38.013Z</time></trkpt><trkpt lat="46.3101343" lon="11.4619277"><ele>1264.0</ele><time>2026-04-26T15:27:39.013Z</time></trkpt><trkpt lat="46.3100281" lon="11.4619924"><ele>1264.0</ele><time>2026-04-26T15:27:40.013Z</time></trkpt><trkpt lat="46.3099295" lon="11.4620962"><ele>1264.0</ele><time>2026-04-26T15:27:41.013Z</time></trkpt><trkpt lat="46.309839" lon="11.4622466"><ele>1264.0</ele><time>2026-04-26T15:27:42.013Z</time></trkpt><trkpt lat="46.3097514" lon="11.4624154"><ele>1264.0</ele><time>2026-04-26T15:27:43.013Z</time></trkpt><trkpt lat="46.3096779" lon="11.4625993"><ele>1262.5</ele><time>2026-04-26T15:27:44.013Z</time></trkpt><trkpt lat="46.3095992" lon="11.462762"><ele>1261.0</ele><time>2026-04-26T15:27:45.014Z</time></trkpt><trkpt lat="46.3095102" lon="11.4628745"><ele>1259.5</ele><time>2026-04-26T15:27:46.013Z</time></trkpt><trkpt lat="46.3094051" lon="11.4629428"><ele>1258.0</ele><time>2026-04-26T15:27:47.013Z</time></trkpt><trkpt lat="46.3092817" lon="11.4629731"><ele>1258.0</ele><time>2026-04-26T15:27:48.013Z</time></trkpt><trkpt lat="46.3091607" lon="11.4629619"><ele>1258.0</ele><time>2026-04-26T15:27:49.013Z</time></trkpt><trkpt lat="46.3090398" lon="11.4628894"><ele>1258.0</ele><time>2026-04-26T15:27:50.013Z</time></trkpt><trkpt lat="46.3089356" lon="11.4627727"><ele>1258.0</ele><time>2026-04-26T15:27:51.013Z</time></trkpt><trkpt lat="46.3088483" lon="11.4626114"><ele>1254.5</ele><time>2026-04-26T15:27:52.013Z</time></trkpt><trkpt lat="46.3087775" lon="11.4624401"><ele>1251.0</ele><time>2026-04-26T15:27:53.013Z</time></trkpt><trkpt lat="46.3087173" lon="11.4622712"><ele>1247.5</ele><time>2026-04-26T15:27:54.013Z</time></trkpt><trkpt lat="46.3086594" lon="11.4621046"><ele>1244.0</ele><time>2026-04-26T15:27:55.014Z</time></trkpt><trkpt lat="46.3086033" lon="11.4619541"><ele>1243.2</ele><time>2026-04-26T15:27:56.013Z</time></trkpt><trkpt lat="46.3085457" lon="11.4618182"><ele>1242.4</ele><time>2026-04-26T15:27:57.013Z</time></trkpt><trkpt lat="46.3084808" lon="11.4617041"><ele>1241.6</ele><time>2026-04-26T15:27:58.013Z</time></trkpt><trkpt lat="46.3084085" lon="11.4615923"><ele>1240.8</ele><time>2026-04-26T15:27:59.013Z</time></trkpt><trkpt lat="46.3083268" lon="11.4614957"><ele>1240.0</ele><time>2026-04-26T15:28:00.014Z</time></trkpt><trkpt lat="46.3082525" lon="11.4614017"><ele>1240.0</ele><time>2026-04-26T15:28:01.013Z</time></trkpt><trkpt lat="46.3081782" lon="11.4613027"><ele>1240.0</ele><time>2026-04-26T15:28:02.014Z</time></trkpt><trkpt lat="46.3081028" lon="11.4612061"><ele>1240.0</ele><time>2026-04-26T15:28:03.013Z</time></trkpt><trkpt lat="46.3080319" lon="11.4611063"><ele>1240.0</ele><time>2026-04-26T15:28:04.013Z</time></trkpt><trkpt lat="46.3079625" lon="11.4610041"><ele>1240.0</ele><time>2026-04-26T15:28:05.013Z</time></trkpt><trkpt lat="46.3078904" lon="11.4608991"><ele>1237.0</ele><time>2026-04-26T15:28:06.013Z</time></trkpt><trkpt lat="46.3078306" lon="11.4607853"><ele>1234.0</ele><time>2026-04-26T15:28:07.013Z</time></trkpt><trkpt lat="46.3077852" lon="11.4606565"><ele>1231.0</ele><time>2026-04-26T15:28:08.013Z</time></trkpt><trkpt lat="46.3077538" lon="11.4605251"><ele>1228.0</ele><time>2026-04-26T15:28:09.013Z</time></trkpt><trkpt lat="46.3077367" lon="11.4603849"><ele>1225.0</ele><time>2026-04-26T15:28:10.013Z</time></trkpt><trkpt lat="46.3077192" lon="11.4602504"><ele>1225.0</ele><time>2026-04-26T15:28:11.013Z</time></trkpt><trkpt lat="46.3076985" lon="11.4601201"><ele>1225.0</ele><time>2026-04-26T15:28:12.013Z</time></trkpt><trkpt lat="46.3076598" lon="11.4599931"><ele>1225.0</ele><time>2026-04-26T15:28:13.013Z</time></trkpt><trkpt lat="46.3075989" lon="11.4598808"><ele>1225.0</ele><time>2026-04-26T15:28:14.013Z</time></trkpt><trkpt lat="46.3075349" lon="11.4597818"><ele>1225.0</ele><time>2026-04-26T15:28:15.013Z</time></trkpt><trkpt lat="46.3074637" lon="11.4596902"><ele>1225.0</ele><time>2026-04-26T15:28:16.013Z</time></trkpt><trkpt lat="46.3073852" lon="11.4595927"><ele>1225.0</ele><time>2026-04-26T15:28:17.013Z</time></trkpt><trkpt lat="46.3073005" lon="11.459494"><ele>1225.0</ele><time>2026-04-26T15:28:18.013Z</time></trkpt><trkpt lat="46.3072202" lon="11.4593907"><ele>1225.0</ele><time>2026-04-26T15:28:19.013Z</time></trkpt><trkpt lat="46.3071424" lon="11.4592746"><ele>1225.0</ele><time>2026-04-26T15:28:20.013Z</time></trkpt><trkpt lat="46.3070695" lon="11.4591587"><ele>1221.0</ele><time>2026-04-26T15:28:21.013Z</time></trkpt><trkpt lat="46.3069936" lon="11.4590439"><ele>1217.0</ele><time>2026-04-26T15:28:22.013Z</time></trkpt><trkpt lat="46.3069041" lon="11.458943"><ele>1213.0</ele><time>2026-04-26T15:28:23.014Z</time></trkpt><trkpt lat="46.3068061" lon="11.4588507"><ele>1209.0</ele><time>2026-04-26T15:28:24.013Z</time></trkpt><trkpt lat="46.3067046" lon="11.4587566"><ele>1208.75</ele><time>2026-04-26T15:28:25.014Z</time></trkpt><trkpt lat="46.3066066" lon="11.4586573"><ele>1208.5</ele><time>2026-04-26T15:28:26.013Z</time></trkpt><trkpt lat="46.3065006" lon="11.4585623"><ele>1208.25</ele><time>2026-04-26T15:28:27.013Z</time></trkpt><trkpt lat="46.3063907" lon="11.4584849"><ele>1208.0</ele><time>2026-04-26T15:28:28.013Z</time></trkpt><trkpt lat="46.3062785" lon="11.4584287"><ele>1206.2</ele><time>2026-04-26T15:28:29.013Z</time></trkpt><trkpt lat="46.3061674" lon="11.4583823"><ele>1204.4</ele><time>2026-04-26T15:28:30.013Z</time></trkpt><trkpt lat="46.3060542" lon="11.4583589"><ele>1202.6000000000001</ele><time>2026-04-26T15:28:31.013Z</time></trkpt><trkpt lat="46.3059465" lon="11.4583411"><ele>1200.8</ele><time>2026-04-26T15:28:32.013Z</time></trkpt><trkpt lat="46.3058417" lon="11.458321"><ele>1199.0</ele><time>2026-04-26T15:28:33.014Z</time></trkpt><trkpt lat="46.3057384" lon="11.4582817"><ele>1199.0</ele><time>2026-04-26T15:28:34.013Z</time></trkpt><trkpt lat="46.3056396" lon="11.4582268"><ele>1199.0</ele><time>2026-04-26T15:28:35.014Z</time></trkpt><trkpt lat="46.3055513" lon="11.4581576"><ele>1199.0</ele><time>2026-04-26T15:28:36.013Z</time></trkpt><trkpt lat="46.3054699" lon="11.4580802"><ele>1199.0</ele><time>2026-04-26T15:28:37.013Z</time></trkpt><trkpt lat="46.3053959" lon="11.457993"><ele>1199.0</ele><time>2026-04-26T15:28:38.013Z</time></trkpt><trkpt lat="46.305326" lon="11.4578913"><ele>1197.0</ele><time>2026-04-26T15:28:39.014Z</time></trkpt><trkpt lat="46.3052742" lon="11.4577692"><ele>1195.0</ele><time>2026-04-26T15:28:40.014Z</time></trkpt><trkpt lat="46.3052417" lon="11.457638"><ele>1193.0</ele><time>2026-04-26T15:28:41.013Z</time></trkpt><trkpt lat="46.3052195" lon="11.4575031"><ele>1191.0</ele><time>2026-04-26T15:28:42.013Z</time></trkpt><trkpt lat="46.3051999" lon="11.4573556"><ele>1189.0</ele><time>2026-04-26T15:28:43.013Z</time></trkpt><trkpt lat="46.30518" lon="11.4572148"><ele>1189.5</ele><time>2026-04-26T15:28:44.013Z</time></trkpt><trkpt lat="46.3051549" lon="11.4570823"><ele>1190.0</ele><time>2026-04-26T15:28:45.013Z</time></trkpt><trkpt lat="46.3051281" lon="11.4569561"><ele>1190.5</ele><time>2026-04-26T15:28:46.013Z</time></trkpt><trkpt lat="46.3050972" lon="11.4568463"><ele>1191.0</ele><time>2026-04-26T15:28:47.013Z</time></trkpt><trkpt lat="46.3050497" lon="11.4567589"><ele>1191.5</ele><time>2026-04-26T15:28:48.013Z</time></trkpt><trkpt lat="46.3049957" lon="11.4566888"><ele>1192.0</ele><time>2026-04-26T15:28:49.013Z</time></trkpt><trkpt lat="46.304927" lon="11.4566514"><ele>1192.0</ele><time>2026-04-26T15:28:50.013Z</time></trkpt><trkpt lat="46.3048464" lon="11.4566259"><ele>1192.0</ele><time>2026-04-26T15:28:51.013Z</time></trkpt><trkpt lat="46.3047629" lon="11.4566065"><ele>1192.0</ele><time>2026-04-26T15:28:52.013Z</time></trkpt><trkpt lat="46.3046707" lon="11.4565926"><ele>1192.0</ele><time>2026-04-26T15:28:53.013Z</time></trkpt><trkpt lat="46.3045762" lon="11.4565806"><ele>1192.0</ele><time>2026-04-26T15:28:54.013Z</time></trkpt><trkpt lat="46.3044767" lon="11.456572"><ele>1189.0</ele><time>2026-04-26T15:28:55.013Z</time></trkpt><trkpt lat="46.304387" lon="11.4565473"><ele>1186.0</ele><time>2026-04-26T15:28:56.013Z</time></trkpt><trkpt lat="46.3042996" lon="11.4565121"><ele>1183.0</ele><time>2026-04-26T15:28:57.013Z</time></trkpt><trkpt lat="46.304205" lon="11.4564622"><ele>1180.0</ele><time>2026-04-26T15:28:58.013Z</time></trkpt><trkpt lat="46.3041174" lon="11.4564246"><ele>1177.0</ele><time>2026-04-26T15:28:59.014Z</time></trkpt><trkpt lat="46.3040338" lon="11.4563923"><ele>1177.0</ele><time>2026-04-26T15:29:00.013Z</time></trkpt><trkpt lat="46.3039509" lon="11.456362"><ele>1177.0</ele><time>2026-04-26T15:29:01.013Z</time></trkpt><trkpt lat="46.3038707" lon="11.4563197"><ele>1177.0</ele><time>2026-04-26T15:29:02.014Z</time></trkpt><trkpt lat="46.3037944" lon="11.456274"><ele>1177.0</ele><time>2026-04-26T15:29:03.013Z</time></trkpt><trkpt lat="46.303723" lon="11.4562267"><ele>1177.0</ele><time>2026-04-26T15:29:04.013Z</time></trkpt><trkpt lat="46.3036527" lon="11.4561826"><ele>1177.0</ele><time>2026-04-26T15:29:05.013Z</time></trkpt><trkpt lat="46.3035876" lon="11.4561357"><ele>1176.3333333333333</ele><time>2026-04-26T15:29:06.013Z</time></trkpt><trkpt lat="46.3035237" lon="11.4560879"><ele>1175.6666666666665</ele><time>2026-04-26T15:29:07.013Z</time></trkpt><trkpt lat="46.3034572" lon="11.4560384"><ele>1175.0</ele><time>2026-04-26T15:29:08.013Z</time></trkpt><trkpt lat="46.3033854" lon="11.4559828"><ele>1174.3333333333333</ele><time>2026-04-26T15:29:09.013Z</time></trkpt><trkpt lat="46.3033057" lon="11.4559361"><ele>1173.6666666666667</ele><time>2026-04-26T15:29:10.013Z</time></trkpt><trkpt lat="46.303231" lon="11.4559056"><ele>1173.0</ele><time>2026-04-26T15:29:11.013Z</time></trkpt><trkpt lat="46.3031498" lon="11.4558803"><ele>1171.0</ele><time>2026-04-26T15:29:12.013Z</time></trkpt><trkpt lat="46.3030631" lon="11.4558597"><ele>1169.0</ele><time>2026-04-26T15:29:13.013Z</time></trkpt><trkpt lat="46.3029795" lon="11.4558363"><ele>1167.0</ele><time>2026-04-26T15:29:14.013Z</time></trkpt><trkpt lat="46.3028992" lon="11.4558121"><ele>1165.0</ele><time>2026-04-26T15:29:15.013Z</time></trkpt><trkpt lat="46.3028235" lon="11.4558065"><ele>1163.0</ele><time>2026-04-26T15:29:16.013Z</time></trkpt><trkpt lat="46.3027554" lon="11.4557865"><ele>1161.0</ele><time>2026-04-26T15:29:17.013Z</time></trkpt><trkpt lat="46.3026769" lon="11.4556864"><ele>1161.0</ele><time>2026-04-26T15:29:19.013Z</time></trkpt><trkpt lat="46.3026807" lon="11.4555344"><ele>1161.0</ele><time>2026-04-26T15:29:21.013Z</time></trkpt><trkpt lat="46.3027586" lon="11.4554183"><ele>1161.0</ele><time>2026-04-26T15:29:23.013Z</time></trkpt><trkpt lat="46.3028284" lon="11.4553805"><ele>1161.0</ele><time>2026-04-26T15:29:24.013Z</time></trkpt><trkpt lat="46.3029043" lon="11.4553425"><ele>1161.0</ele><time>2026-04-26T15:29:25.013Z</time></trkpt><trkpt lat="46.3029878" lon="11.4552982"><ele>1160.0</ele><time>2026-04-26T15:29:26.013Z</time></trkpt><trkpt lat="46.3030579" lon="11.4552243"><ele>1159.0</ele><time>2026-04-26T15:29:27.013Z</time></trkpt><trkpt lat="46.3031197" lon="11.4551335"><ele>1158.0</ele><time>2026-04-26T15:29:28.013Z</time></trkpt><trkpt lat="46.303168" lon="11.4550233"><ele>1157.0</ele><time>2026-04-26T15:29:29.013Z</time></trkpt><trkpt lat="46.3032023" lon="11.4549128"><ele>1156.0</ele><time>2026-04-26T15:29:30.013Z</time></trkpt><trkpt lat="46.3032196" lon="11.4547904"><ele>1155.0</ele><time>2026-04-26T15:29:31.013Z</time></trkpt><trkpt lat="46.3032105" lon="11.4546644"><ele>1155.2</ele><time>2026-04-26T15:29:32.013Z</time></trkpt><trkpt lat="46.3031972" lon="11.4545387"><ele>1155.4</ele><time>2026-04-26T15:29:33.013Z</time></trkpt><trkpt lat="46.3031645" lon="11.4544117"><ele>1155.6</ele><time>2026-04-26T15:29:34.013Z</time></trkpt><trkpt lat="46.3031107" lon="11.454291"><ele>1155.8</ele><time>2026-04-26T15:29:35.013Z</time></trkpt><trkpt lat="46.3030336" lon="11.4541767"><ele>1156.0</ele><time>2026-04-26T15:29:36.014Z</time></trkpt><trkpt lat="46.3029367" lon="11.4540614"><ele>1156.0</ele><time>2026-04-26T15:29:37.013Z</time></trkpt><trkpt lat="46.3028402" lon="11.4539473"><ele>1156.0</ele><time>2026-04-26T15:29:38.013Z</time></trkpt><trkpt lat="46.3027436" lon="11.4538284"><ele>1156.0</ele><time>2026-04-26T15:29:39.013Z</time></trkpt><trkpt lat="46.3026477" lon="11.4537087"><ele>1156.0</ele><time>2026-04-26T15:29:40.013Z</time></trkpt><trkpt lat="46.3025523" lon="11.4535898"><ele>1158.0</ele><time>2026-04-26T15:29:41.013Z</time></trkpt><trkpt lat="46.3024582" lon="11.4534683"><ele>1160.0</ele><time>2026-04-26T15:29:42.013Z</time></trkpt><trkpt lat="46.3023621" lon="11.4533528"><ele>1162.0</ele><time>2026-04-26T15:29:43.013Z</time></trkpt><trkpt lat="46.302273" lon="11.4532539"><ele>1164.0</ele><time>2026-04-26T15:29:44.014Z</time></trkpt><trkpt lat="46.302168" lon="11.4531784"><ele>1164.0</ele><time>2026-04-26T15:29:45.013Z</time></trkpt><trkpt lat="46.3020524" lon="11.4531224"><ele>1164.0</ele><time>2026-04-26T15:29:46.013Z</time></trkpt><trkpt lat="46.3019391" lon="11.453093"><ele>1164.0</ele><time>2026-04-26T15:29:47.013Z</time></trkpt><trkpt lat="46.3018237" lon="11.4530809"><ele>1164.0</ele><time>2026-04-26T15:29:48.013Z</time></trkpt><trkpt lat="46.3017051" lon="11.4530879"><ele>1164.0</ele><time>2026-04-26T15:29:49.013Z</time></trkpt><trkpt lat="46.3015867" lon="11.4531187"><ele>1164.0</ele><time>2026-04-26T15:29:50.014Z</time></trkpt><trkpt lat="46.3014706" lon="11.4531739"><ele>1164.0</ele><time>2026-04-26T15:29:51.013Z</time></trkpt><trkpt lat="46.3013554" lon="11.4532323"><ele>1164.0</ele><time>2026-04-26T15:29:52.013Z</time></trkpt><trkpt lat="46.3012465" lon="11.4532664"><ele>1163.6000000000001</ele><time>2026-04-26T15:29:53.013Z</time></trkpt><trkpt lat="46.3011481" lon="11.4532656"><ele>1163.2</ele><time>2026-04-26T15:29:54.013Z</time></trkpt><trkpt lat="46.3010709" lon="11.4532202"><ele>1162.8000000000002</ele><time>2026-04-26T15:29:55.013Z</time></trkpt><trkpt lat="46.3009966" lon="11.4531209"><ele>1162.4</ele><time>2026-04-26T15:29:56.013Z</time></trkpt><trkpt lat="46.3009396" lon="11.4530009"><ele>1162.0</ele><time>2026-04-26T15:29:57.013Z</time></trkpt><trkpt lat="46.3008867" lon="11.4528443"><ele>1162.0</ele><time>2026-04-26T15:29:58.013Z</time></trkpt><trkpt lat="46.3008323" lon="11.4526774"><ele>1162.0</ele><time>2026-04-26T15:29:59.014Z</time></trkpt><trkpt lat="46.3007675" lon="11.4525167"><ele>1162.0</ele><time>2026-04-26T15:30:00.013Z</time></trkpt><trkpt lat="46.3006947" lon="11.4523531"><ele>1162.0</ele><time>2026-04-26T15:30:01.013Z</time></trkpt><trkpt lat="46.3006282" lon="11.4521898"><ele>1160.6</ele><time>2026-04-26T15:30:02.013Z</time></trkpt><trkpt lat="46.3005655" lon="11.4520384"><ele>1159.2</ele><time>2026-04-26T15:30:03.013Z</time></trkpt><trkpt lat="46.3005033" lon="11.4519075"><ele>1157.8</ele><time>2026-04-26T15:30:04.013Z</time></trkpt><trkpt lat="46.3004391" lon="11.451801"><ele>1156.4</ele><time>2026-04-26T15:30:05.013Z</time></trkpt><trkpt lat="46.3003568" lon="11.4517226"><ele>1155.0</ele><time>2026-04-26T15:30:06.013Z</time></trkpt><trkpt lat="46.300273" lon="11.4516702"><ele>1155.0</ele><time>2026-04-26T15:30:07.013Z</time></trkpt><trkpt lat="46.3001855" lon="11.4516662"><ele>1155.0</ele><time>2026-04-26T15:30:08.013Z</time></trkpt><trkpt lat="46.3000999" lon="11.4517198"><ele>1155.0</ele><time>2026-04-26T15:30:09.013Z</time></trkpt><trkpt lat="46.3000227" lon="11.4518123"><ele>1155.0</ele><time>2026-04-26T15:30:10.013Z</time></trkpt><trkpt lat="46.2999587" lon="11.4519308"><ele>1155.0</ele><time>2026-04-26T15:30:11.013Z</time></trkpt><trkpt lat="46.2998894" lon="11.4520812"><ele>1154.0</ele><time>2026-04-26T15:30:12.013Z</time></trkpt><trkpt lat="46.2998206" lon="11.4522516"><ele>1153.0</ele><time>2026-04-26T15:30:13.013Z</time></trkpt><trkpt lat="46.2997552" lon="11.452437"><ele>1152.0</ele><time>2026-04-26T15:30:14.013Z</time></trkpt><trkpt lat="46.2996859" lon="11.4526304"><ele>1151.0</ele><time>2026-04-26T15:30:15.013Z</time></trkpt><trkpt lat="46.2996096" lon="11.4528371"><ele>1145.0</ele><time>2026-04-26T15:30:16.013Z</time></trkpt><trkpt lat="46.2995302" lon="11.4530507"><ele>1139.0</ele><time>2026-04-26T15:30:17.013Z</time></trkpt><trkpt lat="46.2994495" lon="11.4532719"><ele>1133.0</ele><time>2026-04-26T15:30:18.013Z</time></trkpt><trkpt lat="46.2993719" lon="11.4534943"><ele>1133.0</ele><time>2026-04-26T15:30:19.013Z</time></trkpt><trkpt lat="46.2992941" lon="11.4537227"><ele>1133.0</ele><time>2026-04-26T15:30:20.013Z</time></trkpt><trkpt lat="46.2992346" lon="11.4539579"><ele>1133.0</ele><time>2026-04-26T15:30:21.013Z</time></trkpt><trkpt lat="46.2991755" lon="11.4542153"><ele>1133.6666666666667</ele><time>2026-04-26T15:30:22.013Z</time></trkpt><trkpt lat="46.2991314" lon="11.4544863"><ele>1134.3333333333333</ele><time>2026-04-26T15:30:23.013Z</time></trkpt><trkpt lat="46.2990977" lon="11.4547718"><ele>1135.0</ele><time>2026-04-26T15:30:24.013Z</time></trkpt><trkpt lat="46.2990691" lon="11.4550694"><ele>1133.6666666666665</ele><time>2026-04-26T15:30:25.014Z</time></trkpt><trkpt lat="46.2990429" lon="11.4553709"><ele>1132.3333333333333</ele><time>2026-04-26T15:30:26.013Z</time></trkpt><trkpt lat="46.299017" lon="11.4556664"><ele>1131.0</ele><time>2026-04-26T15:30:27.013Z</time></trkpt><trkpt lat="46.298987" lon="11.4559599"><ele>1129.6666666666667</ele><time>2026-04-26T15:30:28.013Z</time></trkpt><trkpt lat="46.2989579" lon="11.4562417"><ele>1128.3333333333335</ele><time>2026-04-26T15:30:29.013Z</time></trkpt><trkpt lat="46.2989308" lon="11.4565184"><ele>1127.0</ele><time>2026-04-26T15:30:30.013Z</time></trkpt><trkpt lat="46.2989041" lon="11.4567769"><ele>1121.0</ele><time>2026-04-26T15:30:31.013Z</time></trkpt><trkpt lat="46.29888" lon="11.4570207"><ele>1115.0</ele><time>2026-04-26T15:30:32.013Z</time></trkpt><trkpt lat="46.2988578" lon="11.4572405"><ele>1109.0</ele><time>2026-04-26T15:30:33.014Z</time></trkpt><trkpt lat="46.29884" lon="11.4574302"><ele>1108.8333333333335</ele><time>2026-04-26T15:30:34.013Z</time></trkpt><trkpt lat="46.2988141" lon="11.4575731"><ele>1108.6666666666667</ele><time>2026-04-26T15:30:35.013Z</time></trkpt><trkpt lat="46.2987683" lon="11.4576776"><ele>1108.5</ele><time>2026-04-26T15:30:36.013Z</time></trkpt><trkpt lat="46.2986978" lon="11.4577231"><ele>1108.3333333333333</ele><time>2026-04-26T15:30:37.013Z</time></trkpt><trkpt lat="46.2986167" lon="11.4577197"><ele>1108.1666666666665</ele><time>2026-04-26T15:30:38.013Z</time></trkpt><trkpt lat="46.2985405" lon="11.4576636"><ele>1108.0</ele><time>2026-04-26T15:30:39.013Z</time></trkpt><trkpt lat="46.2984681" lon="11.4575574"><ele>1108.0</ele><time>2026-04-26T15:30:40.013Z</time></trkpt><trkpt lat="46.2983998" lon="11.4574234"><ele>1108.0</ele><time>2026-04-26T15:30:41.013Z</time></trkpt><trkpt lat="46.2983242" lon="11.4572658"><ele>1108.0</ele><time>2026-04-26T15:30:42.013Z</time></trkpt><trkpt lat="46.298244" lon="11.4571013"><ele>1108.0</ele><time>2026-04-26T15:30:43.013Z</time></trkpt><trkpt lat="46.2981562" lon="11.4569199"><ele>1102.6666666666665</ele><time>2026-04-26T15:30:44.013Z</time></trkpt><trkpt lat="46.29808" lon="11.4567194"><ele>1097.3333333333333</ele><time>2026-04-26T15:30:45.013Z</time></trkpt><trkpt lat="46.298014" lon="11.4564963"><ele>1092.0</ele><time>2026-04-26T15:30:46.013Z</time></trkpt><trkpt lat="46.2979564" lon="11.4562489"><ele>1092.0</ele><time>2026-04-26T15:30:47.013Z</time></trkpt><trkpt lat="46.2979091" lon="11.4559959"><ele>1092.0</ele><time>2026-04-26T15:30:48.013Z</time></trkpt><trkpt lat="46.2978696" lon="11.4557422"><ele>1092.0</ele><time>2026-04-26T15:30:49.013Z</time></trkpt><trkpt lat="46.2978355" lon="11.4554966"><ele>1092.75</ele><time>2026-04-26T15:30:50.013Z</time></trkpt><trkpt lat="46.2977994" lon="11.4552691"><ele>1093.5</ele><time>2026-04-26T15:30:51.013Z</time></trkpt><trkpt lat="46.2977685" lon="11.4550711"><ele>1094.25</ele><time>2026-04-26T15:30:52.013Z</time></trkpt><trkpt lat="46.2977448" lon="11.4549073"><ele>1095.0</ele><time>2026-04-26T15:30:53.013Z</time></trkpt><trkpt lat="46.2977135" lon="11.4547783"><ele>1095.0</ele><time>2026-04-26T15:30:54.013Z</time></trkpt><trkpt lat="46.2976544" lon="11.4546997"><ele>1095.0</ele><time>2026-04-26T15:30:55.013Z</time></trkpt><trkpt lat="46.297571" lon="11.4546729"><ele>1095.0</ele><time>2026-04-26T15:30:56.013Z</time></trkpt><trkpt lat="46.2974993" lon="11.454675"><ele>1095.0</ele><time>2026-04-26T15:30:57.013Z</time></trkpt><trkpt lat="46.2974337" lon="11.4547413"><ele>1095.0</ele><time>2026-04-26T15:30:58.013Z</time></trkpt><trkpt lat="46.297376" lon="11.4548561"><ele>1095.0</ele><time>2026-04-26T15:30:59.013Z</time></trkpt><trkpt lat="46.2973468" lon="11.4550081"><ele>1095.0</ele><time>2026-04-26T15:31:00.013Z</time></trkpt><trkpt lat="46.2973286" lon="11.4551881"><ele>1095.0</ele><time>2026-04-26T15:31:01.013Z</time></trkpt><trkpt lat="46.2973172" lon="11.455379"><ele>1095.0</ele><time>2026-04-26T15:31:02.013Z</time></trkpt><trkpt lat="46.2973131" lon="11.4555747"><ele>1095.0</ele><time>2026-04-26T15:31:03.013Z</time></trkpt><trkpt lat="46.2972944" lon="11.4557893"><ele>1094.0</ele><time>2026-04-26T15:31:04.013Z</time></trkpt><trkpt lat="46.2972682" lon="11.4560159"><ele>1093.0</ele><time>2026-04-26T15:31:05.013Z</time></trkpt><trkpt lat="46.2972461" lon="11.4562612"><ele>1092.0</ele><time>2026-04-26T15:31:06.013Z</time></trkpt><trkpt lat="46.2972118" lon="11.456515"><ele>1088.0</ele><time>2026-04-26T15:31:07.013Z</time></trkpt><trkpt lat="46.2971793" lon="11.4567729"><ele>1084.0</ele><time>2026-04-26T15:31:08.013Z</time></trkpt><trkpt lat="46.2971465" lon="11.4570127"><ele>1080.0</ele><time>2026-04-26T15:31:09.012Z</time></trkpt><trkpt lat="46.2971078" lon="11.4572362"><ele>1080.0</ele><time>2026-04-26T15:31:10.012Z</time></trkpt><trkpt lat="46.2970614" lon="11.4574283"><ele>1080.0</ele><time>2026-04-26T15:31:11.013Z</time></trkpt><trkpt lat="46.2970006" lon="11.4576041"><ele>1080.0</ele><time>2026-04-26T15:31:12.012Z</time></trkpt><trkpt lat="46.2969219" lon="11.4577377"><ele>1080.0</ele><time>2026-04-26T15:31:13.012Z</time></trkpt><trkpt lat="46.2968265" lon="11.457839"><ele>1080.0</ele><time>2026-04-26T15:31:14.012Z</time></trkpt><trkpt lat="46.2967187" lon="11.4578968"><ele>1080.0</ele><time>2026-04-26T15:31:15.012Z</time></trkpt><trkpt lat="46.2966113" lon="11.4578924"><ele>1080.0</ele><time>2026-04-26T15:31:16.012Z</time></trkpt><trkpt lat="46.2965044" lon="11.4578305"><ele>1080.0</ele><time>2026-04-26T15:31:17.012Z</time></trkpt><trkpt lat="46.29642" lon="11.4577192"><ele>1078.5</ele><time>2026-04-26T15:31:18.012Z</time></trkpt><trkpt lat="46.2963499" lon="11.4575632"><ele>1077.0</ele><time>2026-04-26T15:31:19.012Z</time></trkpt><trkpt lat="46.296297" lon="11.4573633"><ele>1075.5</ele><time>2026-04-26T15:31:20.012Z</time></trkpt><trkpt lat="46.2962633" lon="11.4571407"><ele>1074.0</ele><time>2026-04-26T15:31:21.012Z</time></trkpt><trkpt lat="46.2962401" lon="11.4569266"><ele>1072.6666666666667</ele><time>2026-04-26T15:31:22.012Z</time></trkpt><trkpt lat="46.2962192" lon="11.456699"><ele>1071.3333333333335</ele><time>2026-04-26T15:31:23.012Z</time></trkpt><trkpt lat="46.2961905" lon="11.45647"><ele>1070.0</ele><time>2026-04-26T15:31:24.013Z</time></trkpt><trkpt lat="46.2961495" lon="11.4562453"><ele>1068.6666666666667</ele><time>2026-04-26T15:31:25.012Z</time></trkpt><trkpt lat="46.2961025" lon="11.4560282"><ele>1067.3333333333333</ele><time>2026-04-26T15:31:26.012Z</time></trkpt><trkpt lat="46.2960488" lon="11.4558143"><ele>1066.0</ele><time>2026-04-26T15:31:27.012Z</time></trkpt><trkpt lat="46.2959956" lon="11.4556052"><ele>1065.5</ele><time>2026-04-26T15:31:28.012Z</time></trkpt><trkpt lat="46.2959393" lon="11.4554002"><ele>1065.0</ele><time>2026-04-26T15:31:29.012Z</time></trkpt><trkpt lat="46.2958844" lon="11.4552063"><ele>1064.5</ele><time>2026-04-26T15:31:30.012Z</time></trkpt><trkpt lat="46.2958296" lon="11.4550046"><ele>1064.0</ele><time>2026-04-26T15:31:31.012Z</time></trkpt><trkpt lat="46.2957722" lon="11.4548111"><ele>1064.5</ele><time>2026-04-26T15:31:32.012Z</time></trkpt><trkpt lat="46.2957149" lon="11.4546172"><ele>1065.0</ele><time>2026-04-26T15:31:33.012Z</time></trkpt><trkpt lat="46.2956625" lon="11.4544249"><ele>1065.5</ele><time>2026-04-26T15:31:34.012Z</time></trkpt><trkpt lat="46.2956108" lon="11.454236"><ele>1066.0</ele><time>2026-04-26T15:31:35.012Z</time></trkpt><trkpt lat="46.2955574" lon="11.4540502"><ele>1064.75</ele><time>2026-04-26T15:31:36.012Z</time></trkpt><trkpt lat="46.2955054" lon="11.4538646"><ele>1063.5</ele><time>2026-04-26T15:31:37.012Z</time></trkpt><trkpt lat="46.2954533" lon="11.4536952"><ele>1062.25</ele><time>2026-04-26T15:31:38.012Z</time></trkpt><trkpt lat="46.2954031" lon="11.4535346"><ele>1061.0</ele><time>2026-04-26T15:31:39.012Z</time></trkpt><trkpt lat="46.2953342" lon="11.4534068"><ele>1061.0</ele><time>2026-04-26T15:31:40.012Z</time></trkpt><trkpt lat="46.2952589" lon="11.4532954"><ele>1061.0</ele><time>2026-04-26T15:31:41.012Z</time></trkpt><trkpt lat="46.2951767" lon="11.4532332"><ele>1061.0</ele><time>2026-04-26T15:31:42.012Z</time></trkpt><trkpt lat="46.2950799" lon="11.4532081"><ele>1061.0</ele><time>2026-04-26T15:31:43.012Z</time></trkpt><trkpt lat="46.2949869" lon="11.4532221"><ele>1061.0</ele><time>2026-04-26T15:31:44.012Z</time></trkpt><trkpt lat="46.2948993" lon="11.4532883"><ele>1061.0</ele><time>2026-04-26T15:31:45.012Z</time></trkpt><trkpt lat="46.2948228" lon="11.4533772"><ele>1061.0</ele><time>2026-04-26T15:31:46.012Z</time></trkpt><trkpt lat="46.294753" lon="11.4535017"><ele>1061.0</ele><time>2026-04-26T15:31:47.012Z</time></trkpt><trkpt lat="46.2947043" lon="11.4536538"><ele>1061.0</ele><time>2026-04-26T15:31:48.012Z</time></trkpt><trkpt lat="46.2946738" lon="11.4538354"><ele>1057.75</ele><time>2026-04-26T15:31:49.012Z</time></trkpt><trkpt lat="46.2946747" lon="11.4540315"><ele>1054.5</ele><time>2026-04-26T15:31:50.012Z</time></trkpt><trkpt lat="46.2946787" lon="11.4542387"><ele>1051.25</ele><time>2026-04-26T15:31:51.012Z</time></trkpt><trkpt lat="46.2946906" lon="11.4544479"><ele>1048.0</ele><time>2026-04-26T15:31:52.012Z</time></trkpt><trkpt lat="46.2946945" lon="11.4546632"><ele>1045.25</ele><time>2026-04-26T15:31:53.012Z</time></trkpt><trkpt lat="46.2946987" lon="11.454865"><ele>1042.5</ele><time>2026-04-26T15:31:54.012Z</time></trkpt><trkpt lat="46.2946958" lon="11.4550879"><ele>1039.75</ele><time>2026-04-26T15:31:55.012Z</time></trkpt><trkpt lat="46.2946624" lon="11.4553011"><ele>1037.0</ele><time>2026-04-26T15:31:56.012Z</time></trkpt><trkpt lat="46.2946114" lon="11.4554994"><ele>1035.0</ele><time>2026-04-26T15:31:57.012Z</time></trkpt><trkpt lat="46.2945525" lon="11.4557148"><ele>1033.0</ele><time>2026-04-26T15:31:58.012Z</time></trkpt><trkpt lat="46.2944982" lon="11.4559213"><ele>1031.0</ele><time>2026-04-26T15:31:59.012Z</time></trkpt><trkpt lat="46.2944352" lon="11.4561296"><ele>1030.6666666666667</ele><time>2026-04-26T15:32:00.012Z</time></trkpt><trkpt lat="46.2943752" lon="11.4563348"><ele>1030.3333333333333</ele><time>2026-04-26T15:32:01.012Z</time></trkpt><trkpt lat="46.2943123" lon="11.4565412"><ele>1030.0</ele><time>2026-04-26T15:32:02.012Z</time></trkpt><trkpt lat="46.294253" lon="11.456743"><ele>1030.0</ele><time>2026-04-26T15:32:03.012Z</time></trkpt><trkpt lat="46.2941931" lon="11.4569424"><ele>1030.0</ele><time>2026-04-26T15:32:04.012Z</time></trkpt><trkpt lat="46.2941298" lon="11.4571326"><ele>1030.0</ele><time>2026-04-26T15:32:05.012Z</time></trkpt><trkpt lat="46.2940613" lon="11.4572957"><ele>1030.0</ele><time>2026-04-26T15:32:06.012Z</time></trkpt><trkpt lat="46.2939823" lon="11.4574305"><ele>1026.5</ele><time>2026-04-26T15:32:07.012Z</time></trkpt><trkpt lat="46.2938887" lon="11.4575358"><ele>1023.0</ele><time>2026-04-26T15:32:08.012Z</time></trkpt><trkpt lat="46.2937915" lon="11.4576034"><ele>1019.5</ele><time>2026-04-26T15:32:09.012Z</time></trkpt><trkpt lat="46.2936849" lon="11.4576351"><ele>1016.0</ele><time>2026-04-26T15:32:10.012Z</time></trkpt><trkpt lat="46.293565" lon="11.4576273"><ele>1016.0</ele><time>2026-04-26T15:32:11.012Z</time></trkpt><trkpt lat="46.293465" lon="11.4575751"><ele>1015.9999999999999</ele><time>2026-04-26T15:32:12.012Z</time></trkpt><trkpt lat="46.2933757" lon="11.4574825"><ele>1015.9999999999999</ele><time>2026-04-26T15:32:13.012Z</time></trkpt><trkpt lat="46.2933103" lon="11.4573625"><ele>1016.0</ele><time>2026-04-26T15:32:14.012Z</time></trkpt><trkpt lat="46.2932689" lon="11.4572208"><ele>1016.0</ele><time>2026-04-26T15:32:15.013Z</time></trkpt><trkpt lat="46.293246" lon="11.4570565"><ele>1015.5</ele><time>2026-04-26T15:32:16.012Z</time></trkpt><trkpt lat="46.2932364" lon="11.4568716"><ele>1015.0</ele><time>2026-04-26T15:32:17.013Z</time></trkpt><trkpt lat="46.2932335" lon="11.4566756"><ele>1014.5</ele><time>2026-04-26T15:32:18.012Z</time></trkpt><trkpt lat="46.2932327" lon="11.4564876"><ele>1014.0</ele><time>2026-04-26T15:32:19.012Z</time></trkpt><trkpt lat="46.2932288" lon="11.4563176"><ele>1014.5</ele><time>2026-04-26T15:32:20.012Z</time></trkpt><trkpt lat="46.293215" lon="11.4561765"><ele>1015.0</ele><time>2026-04-26T15:32:21.012Z</time></trkpt><trkpt lat="46.2931818" lon="11.4560714"><ele>1015.5</ele><time>2026-04-26T15:32:22.012Z</time></trkpt><trkpt lat="46.2931213" lon="11.4559952"><ele>1016.0</ele><time>2026-04-26T15:32:23.012Z</time></trkpt><trkpt lat="46.2930521" lon="11.4559513"><ele>1016.5</ele><time>2026-04-26T15:32:24.012Z</time></trkpt><trkpt lat="46.292979" lon="11.455932"><ele>1017.0</ele><time>2026-04-26T15:32:25.012Z</time></trkpt><trkpt lat="46.2929067" lon="11.4559237"><ele>1015.6666666666666</ele><time>2026-04-26T15:32:26.012Z</time></trkpt><trkpt lat="46.2928353" lon="11.4559139"><ele>1014.3333333333333</ele><time>2026-04-26T15:32:27.012Z</time></trkpt><trkpt lat="46.2927546" lon="11.4558874"><ele>1013.0</ele><time>2026-04-26T15:32:28.012Z</time></trkpt><trkpt lat="46.2926688" lon="11.4558541"><ele>1011.6666666666666</ele><time>2026-04-26T15:32:29.012Z</time></trkpt><trkpt lat="46.2925829" lon="11.4558045"><ele>1010.3333333333333</ele><time>2026-04-26T15:32:30.012Z</time></trkpt><trkpt lat="46.2924953" lon="11.4557495"><ele>1009.0</ele><time>2026-04-26T15:32:31.012Z</time></trkpt><trkpt lat="46.2924049" lon="11.4556922"><ele>1009.0</ele><time>2026-04-26T15:32:32.012Z</time></trkpt><trkpt lat="46.2923119" lon="11.4556336"><ele>1009.0000000000001</ele><time>2026-04-26T15:32:33.012Z</time></trkpt><trkpt lat="46.2922166" lon="11.4555841"><ele>1009.0000000000001</ele><time>2026-04-26T15:32:34.012Z</time></trkpt><trkpt lat="46.292115" lon="11.4555317"><ele>1009.0</ele><time>2026-04-26T15:32:35.013Z</time></trkpt><trkpt lat="46.2920108" lon="11.4554668"><ele>1009.0</ele><time>2026-04-26T15:32:36.012Z</time></trkpt><trkpt lat="46.2918916" lon="11.4553926"><ele>1010.0</ele><time>2026-04-26T15:32:37.012Z</time></trkpt><trkpt lat="46.2917765" lon="11.455324"><ele>1011.0</ele><time>2026-04-26T15:32:38.012Z</time></trkpt><trkpt lat="46.2916574" lon="11.4552543"><ele>1012.0</ele><time>2026-04-26T15:32:39.013Z</time></trkpt><trkpt lat="46.2915379" lon="11.4551815"><ele>1013.0</ele><time>2026-04-26T15:32:40.012Z</time></trkpt><trkpt lat="46.2914146" lon="11.4551058"><ele>1010.75</ele><time>2026-04-26T15:32:41.012Z</time></trkpt><trkpt lat="46.2912918" lon="11.4550261"><ele>1008.5</ele><time>2026-04-26T15:32:42.012Z</time></trkpt><trkpt lat="46.2911703" lon="11.4549502"><ele>1006.25</ele><time>2026-04-26T15:32:43.013Z</time></trkpt><trkpt lat="46.2910423" lon="11.4548718"><ele>1004.0</ele><time>2026-04-26T15:32:44.012Z</time></trkpt><trkpt lat="46.2909154" lon="11.4547932"><ele>1004.0</ele><time>2026-04-26T15:32:45.012Z</time></trkpt><trkpt lat="46.2907875" lon="11.4547143"><ele>1004.0</ele><time>2026-04-26T15:32:46.012Z</time></trkpt><trkpt lat="46.2906586" lon="11.4546378"><ele>1004.0</ele><time>2026-04-26T15:32:47.012Z</time></trkpt><trkpt lat="46.2905313" lon="11.4545593"><ele>1004.0</ele><time>2026-04-26T15:32:48.012Z</time></trkpt><trkpt lat="46.2904007" lon="11.4544833"><ele>1005.0</ele><time>2026-04-26T15:32:49.012Z</time></trkpt><trkpt lat="46.2902691" lon="11.4544096"><ele>1006.0</ele><time>2026-04-26T15:32:50.012Z</time></trkpt><trkpt lat="46.2901457" lon="11.4543166"><ele>1007.0</ele><time>2026-04-26T15:32:51.012Z</time></trkpt><trkpt lat="46.2900326" lon="11.4542108"><ele>1008.0</ele><time>2026-04-26T15:32:52.012Z</time></trkpt><trkpt lat="46.2899241" lon="11.4540874"><ele>1008.0</ele><time>2026-04-26T15:32:53.012Z</time></trkpt><trkpt lat="46.2898232" lon="11.4539413"><ele>1008.0</ele><time>2026-04-26T15:32:54.012Z</time></trkpt><trkpt lat="46.2897335" lon="11.4537753"><ele>1008.0</ele><time>2026-04-26T15:32:55.012Z</time></trkpt><trkpt lat="46.2896559" lon="11.4536047"><ele>1008.0</ele><time>2026-04-26T15:32:56.013Z</time></trkpt><trkpt lat="46.2895905" lon="11.4534246"><ele>1007.25</ele><time>2026-04-26T15:32:57.012Z</time></trkpt><trkpt lat="46.2895266" lon="11.4532336"><ele>1006.5</ele><time>2026-04-26T15:32:58.012Z</time></trkpt><trkpt lat="46.2894648" lon="11.4530428"><ele>1005.75</ele><time>2026-04-26T15:32:59.012Z</time></trkpt><trkpt lat="46.2894022" lon="11.4528476"><ele>1005.0</ele><time>2026-04-26T15:33:00.012Z</time></trkpt><trkpt lat="46.289339" lon="11.4526485"><ele>1005.0</ele><time>2026-04-26T15:33:01.012Z</time></trkpt><trkpt lat="46.2892745" lon="11.452449"><ele>1005.0</ele><time>2026-04-26T15:33:02.012Z</time></trkpt><trkpt lat="46.2892098" lon="11.4522403"><ele>1005.0</ele><time>2026-04-26T15:33:03.012Z</time></trkpt><trkpt lat="46.2891399" lon="11.4520331"><ele>1006.3333333333333</ele><time>2026-04-26T15:33:04.012Z</time></trkpt><trkpt lat="46.2890753" lon="11.4518264"><ele>1007.6666666666666</ele><time>2026-04-26T15:33:05.012Z</time></trkpt><trkpt lat="46.2890094" lon="11.4516153"><ele>1009.0</ele><time>2026-04-26T15:33:06.012Z</time></trkpt><trkpt lat="46.2889562" lon="11.451397"><ele>1003.0</ele><time>2026-04-26T15:33:07.012Z</time></trkpt><trkpt lat="46.2889194" lon="11.4511722"><ele>997.0</ele><time>2026-04-26T15:33:08.012Z</time></trkpt><trkpt lat="46.2888986" lon="11.4509467"><ele>991.0</ele><time>2026-04-26T15:33:09.012Z</time></trkpt><trkpt lat="46.2888957" lon="11.4507115"><ele>991.0</ele><time>2026-04-26T15:33:10.012Z</time></trkpt><trkpt lat="46.2889149" lon="11.4504734"><ele>991.0</ele><time>2026-04-26T15:33:11.012Z</time></trkpt><trkpt lat="46.288957" lon="11.4502291"><ele>991.0</ele><time>2026-04-26T15:33:12.012Z</time></trkpt><trkpt lat="46.2890227" lon="11.4500037"><ele>995.3333333333333</ele><time>2026-04-26T15:33:13.012Z</time></trkpt><trkpt lat="46.2890887" lon="11.4497774"><ele>999.6666666666667</ele><time>2026-04-26T15:33:14.012Z</time></trkpt><trkpt lat="46.2891584" lon="11.4495495"><ele>1004.0</ele><time>2026-04-26T15:33:15.012Z</time></trkpt><trkpt lat="46.2892245" lon="11.4493243"><ele>1004.0</ele><time>2026-04-26T15:33:16.012Z</time></trkpt><trkpt lat="46.2892865" lon="11.4490959"><ele>1004.0</ele><time>2026-04-26T15:33:17.012Z</time></trkpt><trkpt lat="46.2893417" lon="11.448869"><ele>1004.0</ele><time>2026-04-26T15:33:18.012Z</time></trkpt><trkpt lat="46.2893834" lon="11.4486361"><ele>1004.0</ele><time>2026-04-26T15:33:19.012Z</time></trkpt><trkpt lat="46.2894137" lon="11.4483951"><ele>1004.0</ele><time>2026-04-26T15:33:20.012Z</time></trkpt><trkpt lat="46.289417" lon="11.4481505"><ele>1004.0</ele><time>2026-04-26T15:33:21.012Z</time></trkpt><trkpt lat="46.2894178" lon="11.4479132"><ele>1004.3333333333334</ele><time>2026-04-26T15:33:22.012Z</time></trkpt><trkpt lat="46.2894109" lon="11.4476691"><ele>1004.6666666666667</ele><time>2026-04-26T15:33:23.012Z</time></trkpt><trkpt lat="46.2893989" lon="11.4474268"><ele>1005.0</ele><time>2026-04-26T15:33:24.012Z</time></trkpt><trkpt lat="46.2893929" lon="11.4471879"><ele>1004.0</ele><time>2026-04-26T15:33:25.012Z</time></trkpt><trkpt lat="46.2893839" lon="11.4469598"><ele>1003.0</ele><time>2026-04-26T15:33:26.012Z</time></trkpt><trkpt lat="46.2893734" lon="11.4467443"><ele>1002.0</ele><time>2026-04-26T15:33:27.012Z</time></trkpt><trkpt lat="46.2893621" lon="11.4465386"><ele>1002.0</ele><time>2026-04-26T15:33:28.012Z</time></trkpt><trkpt lat="46.2893447" lon="11.4463463"><ele>1002.0</ele><time>2026-04-26T15:33:29.012Z</time></trkpt><trkpt lat="46.2893135" lon="11.4461639"><ele>1002.0</ele><time>2026-04-26T15:33:30.012Z</time></trkpt><trkpt lat="46.2892647" lon="11.4460044"><ele>1002.0</ele><time>2026-04-26T15:33:31.012Z</time></trkpt><trkpt lat="46.2891966" lon="11.4458685"><ele>1002.75</ele><time>2026-04-26T15:33:32.012Z</time></trkpt><trkpt lat="46.2891072" lon="11.4457576"><ele>1003.5</ele><time>2026-04-26T15:33:33.012Z</time></trkpt><trkpt lat="46.2890044" lon="11.4456669"><ele>1004.25</ele><time>2026-04-26T15:33:34.012Z</time></trkpt><trkpt lat="46.2888886" lon="11.4455891"><ele>1005.0</ele><time>2026-04-26T15:33:35.012Z</time></trkpt><trkpt lat="46.2887786" lon="11.4455106"><ele>1006.0</ele><time>2026-04-26T15:33:36.012Z</time></trkpt><trkpt lat="46.2886722" lon="11.4454257"><ele>1007.0</ele><time>2026-04-26T15:33:37.012Z</time></trkpt><trkpt lat="46.2885667" lon="11.4453366"><ele>1008.0</ele><time>2026-04-26T15:33:38.012Z</time></trkpt><trkpt lat="46.2884563" lon="11.4452631"><ele>1009.0</ele><time>2026-04-26T15:33:39.012Z</time></trkpt><trkpt lat="46.2883376" lon="11.4451956"><ele>1009.0</ele><time>2026-04-26T15:33:40.012Z</time></trkpt><trkpt lat="46.2882267" lon="11.4451174"><ele>1009.0</ele><time>2026-04-26T15:33:41.012Z</time></trkpt><trkpt lat="46.288122" lon="11.4450134"><ele>1009.0</ele><time>2026-04-26T15:33:42.012Z</time></trkpt><trkpt lat="46.2880366" lon="11.4448774"><ele>1009.0</ele><time>2026-04-26T15:33:43.012Z</time></trkpt><trkpt lat="46.2879688" lon="11.4447171"><ele>1007.25</ele><time>2026-04-26T15:33:44.012Z</time></trkpt><trkpt lat="46.2879143" lon="11.4445403"><ele>1005.5</ele><time>2026-04-26T15:33:45.012Z</time></trkpt><trkpt lat="46.2878722" lon="11.4443465"><ele>1003.75</ele><time>2026-04-26T15:33:46.012Z</time></trkpt><trkpt lat="46.287845" lon="11.4441524"><ele>1002.0</ele><time>2026-04-26T15:33:47.012Z</time></trkpt><trkpt lat="46.2878283" lon="11.4439509"><ele>1002.0</ele><time>2026-04-26T15:33:48.012Z</time></trkpt><trkpt lat="46.2878127" lon="11.4437459"><ele>1002.0</ele><time>2026-04-26T15:33:49.012Z</time></trkpt><trkpt lat="46.2878029" lon="11.4435391"><ele>1002.0</ele><time>2026-04-26T15:33:50.013Z</time></trkpt><trkpt lat="46.2877973" lon="11.4433257"><ele>1002.0</ele><time>2026-04-26T15:33:51.012Z</time></trkpt><trkpt lat="46.2877951" lon="11.4431154"><ele>1002.25</ele><time>2026-04-26T15:33:52.012Z</time></trkpt><trkpt lat="46.2877936" lon="11.4428996"><ele>1002.5</ele><time>2026-04-26T15:33:53.012Z</time></trkpt><trkpt lat="46.2877862" lon="11.4426848"><ele>1002.75</ele><time>2026-04-26T15:33:54.012Z</time></trkpt><trkpt lat="46.2877612" lon="11.4424781"><ele>1003.0</ele><time>2026-04-26T15:33:55.012Z</time></trkpt><trkpt lat="46.2877229" lon="11.4422811"><ele>1003.75</ele><time>2026-04-26T15:33:56.012Z</time></trkpt><trkpt lat="46.2876706" lon="11.4420824"><ele>1004.5</ele><time>2026-04-26T15:33:57.012Z</time></trkpt><trkpt lat="46.287606" lon="11.4418927"><ele>1005.25</ele><time>2026-04-26T15:33:58.012Z</time></trkpt><trkpt lat="46.2875321" lon="11.4417099"><ele>1006.0</ele><time>2026-04-26T15:33:59.013Z</time></trkpt><trkpt lat="46.2874509" lon="11.4415256"><ele>1006.0</ele><time>2026-04-26T15:34:00.012Z</time></trkpt><trkpt lat="46.2873681" lon="11.4413637"><ele>1006.0</ele><time>2026-04-26T15:34:01.012Z</time></trkpt><trkpt lat="46.2872875" lon="11.4412001"><ele>1006.0</ele><time>2026-04-26T15:34:02.012Z</time></trkpt><trkpt lat="46.2872083" lon="11.4410387"><ele>1006.0</ele><time>2026-04-26T15:34:03.012Z</time></trkpt><trkpt lat="46.2871361" lon="11.4408807"><ele>1006.0</ele><time>2026-04-26T15:34:04.012Z</time></trkpt><trkpt lat="46.2870687" lon="11.4407377"><ele>1005.9999999999999</ele><time>2026-04-26T15:34:05.012Z</time></trkpt><trkpt lat="46.2870045" lon="11.4406031"><ele>1005.9999999999999</ele><time>2026-04-26T15:34:06.012Z</time></trkpt><trkpt lat="46.2869344" lon="11.4404897"><ele>1006.0</ele><time>2026-04-26T15:34:07.012Z</time></trkpt><trkpt lat="46.2868639" lon="11.4403969"><ele>1006.0</ele><time>2026-04-26T15:34:08.012Z</time></trkpt><trkpt lat="46.2867806" lon="11.4403266"><ele>1006.0</ele><time>2026-04-26T15:34:09.013Z</time></trkpt><trkpt lat="46.2866941" lon="11.4402414"><ele>1006.0</ele><time>2026-04-26T15:34:10.012Z</time></trkpt><trkpt lat="46.2866045" lon="11.4401324"><ele>1006.0</ele><time>2026-04-26T15:34:11.012Z</time></trkpt><trkpt lat="46.2865146" lon="11.4399918"><ele>1006.0</ele><time>2026-04-26T15:34:12.012Z</time></trkpt><trkpt lat="46.2864221" lon="11.4398346"><ele>1002.6666666666666</ele><time>2026-04-26T15:34:13.012Z</time></trkpt><trkpt lat="46.2863262" lon="11.4396668"><ele>999.3333333333333</ele><time>2026-04-26T15:34:14.012Z</time></trkpt><trkpt lat="46.2862175" lon="11.4394924"><ele>996.0</ele><time>2026-04-26T15:34:15.012Z</time></trkpt><trkpt lat="46.2860945" lon="11.4393163"><ele>996.0</ele><time>2026-04-26T15:34:16.012Z</time></trkpt><trkpt lat="46.2859633" lon="11.439155"><ele>996.0</ele><time>2026-04-26T15:34:17.012Z</time></trkpt><trkpt lat="46.2858253" lon="11.4390019"><ele>996.0</ele><time>2026-04-26T15:34:18.012Z</time></trkpt><trkpt lat="46.2856877" lon="11.4388465"><ele>992.6666666666667</ele><time>2026-04-26T15:34:19.012Z</time></trkpt><trkpt lat="46.2855478" lon="11.4386955"><ele>989.3333333333334</ele><time>2026-04-26T15:34:20.013Z</time></trkpt><trkpt lat="46.2854086" lon="11.4385459"><ele>986.0</ele><time>2026-04-26T15:34:21.012Z</time></trkpt><trkpt lat="46.2852617" lon="11.4384162"><ele>986.0</ele><time>2026-04-26T15:34:22.012Z</time></trkpt><trkpt lat="46.2851057" lon="11.4383144"><ele>986.0</ele><time>2026-04-26T15:34:23.012Z</time></trkpt><trkpt lat="46.2849453" lon="11.4382293"><ele>986.0</ele><time>2026-04-26T15:34:24.012Z</time></trkpt><trkpt lat="46.2847883" lon="11.4381502"><ele>983.0</ele><time>2026-04-26T15:34:25.012Z</time></trkpt><trkpt lat="46.2846456" lon="11.4380564"><ele>980.0</ele><time>2026-04-26T15:34:26.012Z</time></trkpt><trkpt lat="46.2845243" lon="11.4379336"><ele>977.0</ele><time>2026-04-26T15:34:27.012Z</time></trkpt><trkpt lat="46.2844125" lon="11.4377882"><ele>977.0</ele><time>2026-04-26T15:34:28.012Z</time></trkpt><trkpt lat="46.284305" lon="11.4376196"><ele>977.0</ele><time>2026-04-26T15:34:29.012Z</time></trkpt><trkpt lat="46.2842061" lon="11.437453"><ele>977.0</ele><time>2026-04-26T15:34:30.012Z</time></trkpt><trkpt lat="46.2841025" lon="11.4372845"><ele>978.75</ele><time>2026-04-26T15:34:31.012Z</time></trkpt><trkpt lat="46.284002" lon="11.4371228"><ele>980.5</ele><time>2026-04-26T15:34:32.012Z</time></trkpt><trkpt lat="46.2838998" lon="11.436962"><ele>982.25</ele><time>2026-04-26T15:34:33.012Z</time></trkpt><trkpt lat="46.283798" lon="11.4368076"><ele>984.0</ele><time>2026-04-26T15:34:34.012Z</time></trkpt><trkpt lat="46.2836922" lon="11.4366595"><ele>981.0</ele><time>2026-04-26T15:34:35.012Z</time></trkpt><trkpt lat="46.2835819" lon="11.4365262"><ele>978.0</ele><time>2026-04-26T15:34:36.012Z</time></trkpt><trkpt lat="46.2834658" lon="11.4363973"><ele>975.0</ele><time>2026-04-26T15:34:37.012Z</time></trkpt><trkpt lat="46.2833444" lon="11.4362696"><ele>972.0</ele><time>2026-04-26T15:34:38.012Z</time></trkpt><trkpt lat="46.2832243" lon="11.4361515"><ele>972.0</ele><time>2026-04-26T15:34:39.012Z</time></trkpt><trkpt lat="46.2831053" lon="11.4360316"><ele>972.0</ele><time>2026-04-26T15:34:40.012Z</time></trkpt><trkpt lat="46.2829874" lon="11.4359105"><ele>972.0</ele><time>2026-04-26T15:34:41.012Z</time></trkpt><trkpt lat="46.2828715" lon="11.4357945"><ele>972.0</ele><time>2026-04-26T15:34:42.012Z</time></trkpt><trkpt lat="46.2827588" lon="11.4356756"><ele>970.75</ele><time>2026-04-26T15:34:43.012Z</time></trkpt><trkpt lat="46.2826464" lon="11.4355511"><ele>969.5</ele><time>2026-04-26T15:34:44.012Z</time></trkpt><trkpt lat="46.2825356" lon="11.4354283"><ele>968.25</ele><time>2026-04-26T15:34:45.013Z</time></trkpt><trkpt lat="46.2824241" lon="11.4353121"><ele>967.0</ele><time>2026-04-26T15:34:46.012Z</time></trkpt><trkpt lat="46.2823121" lon="11.4352041"><ele>963.75</ele><time>2026-04-26T15:34:47.012Z</time></trkpt><trkpt lat="46.2821987" lon="11.4351075"><ele>960.5</ele><time>2026-04-26T15:34:48.012Z</time></trkpt><trkpt lat="46.2820782" lon="11.435023"><ele>957.25</ele><time>2026-04-26T15:34:49.012Z</time></trkpt><trkpt lat="46.2819577" lon="11.4349505"><ele>954.0</ele><time>2026-04-26T15:34:50.012Z</time></trkpt><trkpt lat="46.2818321" lon="11.4348925"><ele>954.0</ele><time>2026-04-26T15:34:51.013Z</time></trkpt><trkpt lat="46.281696" lon="11.4348476"><ele>954.0</ele><time>2026-04-26T15:34:52.013Z</time></trkpt><trkpt lat="46.2815603" lon="11.4348087"><ele>954.0</ele><time>2026-04-26T15:34:53.012Z</time></trkpt><trkpt lat="46.281433" lon="11.4347621"><ele>954.0</ele><time>2026-04-26T15:34:54.012Z</time></trkpt><trkpt lat="46.2813" lon="11.4347159"><ele>953.5</ele><time>2026-04-26T15:34:55.012Z</time></trkpt><trkpt lat="46.2811748" lon="11.4346761"><ele>953.0</ele><time>2026-04-26T15:34:56.012Z</time></trkpt><trkpt lat="46.2810464" lon="11.4346419"><ele>952.5</ele><time>2026-04-26T15:34:57.012Z</time></trkpt><trkpt lat="46.2809198" lon="11.4346042"><ele>952.0</ele><time>2026-04-26T15:34:58.012Z</time></trkpt><trkpt lat="46.2807954" lon="11.4345672"><ele>951.5</ele><time>2026-04-26T15:34:59.012Z</time></trkpt><trkpt lat="46.2806766" lon="11.4345224"><ele>951.0</ele><time>2026-04-26T15:35:00.012Z</time></trkpt><trkpt lat="46.2805509" lon="11.4344755"><ele>950.5</ele><time>2026-04-26T15:35:01.012Z</time></trkpt><trkpt lat="46.2804321" lon="11.4344366"><ele>950.0</ele><time>2026-04-26T15:35:02.012Z</time></trkpt><trkpt lat="46.2803107" lon="11.4343934"><ele>949.0</ele><time>2026-04-26T15:35:03.012Z</time></trkpt><trkpt lat="46.2801924" lon="11.4343531"><ele>948.0</ele><time>2026-04-26T15:35:04.012Z</time></trkpt><trkpt lat="46.2800738" lon="11.4343063"><ele>947.0</ele><time>2026-04-26T15:35:05.012Z</time></trkpt><trkpt lat="46.2799516" lon="11.4342666"><ele>946.0</ele><time>2026-04-26T15:35:06.012Z</time></trkpt><trkpt lat="46.2798276" lon="11.4342264"><ele>945.4</ele><time>2026-04-26T15:35:07.012Z</time></trkpt><trkpt lat="46.2797063" lon="11.4341874"><ele>944.8</ele><time>2026-04-26T15:35:08.013Z</time></trkpt><trkpt lat="46.2795894" lon="11.434142"><ele>944.1999999999999</ele><time>2026-04-26T15:35:09.012Z</time></trkpt><trkpt lat="46.2794815" lon="11.434112"><ele>943.5999999999999</ele><time>2026-04-26T15:35:10.013Z</time></trkpt><trkpt lat="46.2793941" lon="11.4340768"><ele>943.0</ele><time>2026-04-26T15:35:11.012Z</time></trkpt><trkpt lat="46.2793292" lon="11.4340308"><ele>943.0</ele><time>2026-04-26T15:35:12.012Z</time></trkpt><trkpt lat="46.2792487" lon="11.433928"><ele>943.0</ele><time>2026-04-26T15:35:14.012Z</time></trkpt><trkpt lat="46.2792392" lon="11.4337811"><ele>943.0</ele><time>2026-04-26T15:35:16.012Z</time></trkpt><trkpt lat="46.2792551" lon="11.4335978"><ele>943.0</ele><time>2026-04-26T15:35:18.012Z</time></trkpt><trkpt lat="46.2792978" lon="11.4334809"><ele>943.0</ele><time>2026-04-26T15:35:19.012Z</time></trkpt><trkpt lat="46.2793515" lon="11.433342"><ele>940.75</ele><time>2026-04-26T15:35:20.012Z</time></trkpt><trkpt lat="46.2794027" lon="11.4331778"><ele>938.5</ele><time>2026-04-26T15:35:21.012Z</time></trkpt><trkpt lat="46.2794436" lon="11.4330111"><ele>936.25</ele><time>2026-04-26T15:35:22.012Z</time></trkpt><trkpt lat="46.2794819" lon="11.4328401"><ele>934.0</ele><time>2026-04-26T15:35:23.013Z</time></trkpt><trkpt lat="46.2795161" lon="11.4326687"><ele>930.75</ele><time>2026-04-26T15:35:24.012Z</time></trkpt><trkpt lat="46.2795507" lon="11.4324894"><ele>927.5</ele><time>2026-04-26T15:35:25.012Z</time></trkpt><trkpt lat="46.2795834" lon="11.4323134"><ele>924.25</ele><time>2026-04-26T15:35:26.012Z</time></trkpt><trkpt lat="46.2796188" lon="11.4321428"><ele>921.0</ele><time>2026-04-26T15:35:27.012Z</time></trkpt><trkpt lat="46.2796395" lon="11.431971"><ele>919.75</ele><time>2026-04-26T15:35:28.012Z</time></trkpt><trkpt lat="46.2796368" lon="11.4318109"><ele>918.5</ele><time>2026-04-26T15:35:29.012Z</time></trkpt><trkpt lat="46.2796147" lon="11.4316464"><ele>917.25</ele><time>2026-04-26T15:35:30.012Z</time></trkpt><trkpt lat="46.2795729" lon="11.4314815"><ele>916.0</ele><time>2026-04-26T15:35:31.012Z</time></trkpt><trkpt lat="46.279512" lon="11.4313257"><ele>917.5</ele><time>2026-04-26T15:35:32.012Z</time></trkpt><trkpt lat="46.2794404" lon="11.4311705"><ele>919.0</ele><time>2026-04-26T15:35:33.012Z</time></trkpt><trkpt lat="46.2793741" lon="11.431018"><ele>920.5</ele><time>2026-04-26T15:35:34.012Z</time></trkpt><trkpt lat="46.2793067" lon="11.4308588"><ele>922.0</ele><time>2026-04-26T15:35:35.012Z</time></trkpt><trkpt lat="46.2792349" lon="11.4306978"><ele>922.0</ele><time>2026-04-26T15:35:36.012Z</time></trkpt><trkpt lat="46.279162" lon="11.4305322"><ele>922.0</ele><time>2026-04-26T15:35:37.012Z</time></trkpt><trkpt lat="46.2790889" lon="11.4303579"><ele>922.0</ele><time>2026-04-26T15:35:38.012Z</time></trkpt><trkpt lat="46.2790136" lon="11.4301843"><ele>922.0</ele><time>2026-04-26T15:35:39.013Z</time></trkpt><trkpt lat="46.2789392" lon="11.4300051"><ele>921.75</ele><time>2026-04-26T15:35:40.012Z</time></trkpt><trkpt lat="46.2788629" lon="11.4298269"><ele>921.5</ele><time>2026-04-26T15:35:41.012Z</time></trkpt><trkpt lat="46.2787874" lon="11.4296417"><ele>921.25</ele><time>2026-04-26T15:35:42.013Z</time></trkpt><trkpt lat="46.278706" lon="11.4294519"><ele>921.0</ele><time>2026-04-26T15:35:43.012Z</time></trkpt><trkpt lat="46.2786246" lon="11.429252"><ele>921.0</ele><time>2026-04-26T15:35:44.012Z</time></trkpt><trkpt lat="46.2785416" lon="11.4290503"><ele>921.0</ele><time>2026-04-26T15:35:45.012Z</time></trkpt><trkpt lat="46.278459" lon="11.4288494"><ele>921.0</ele><time>2026-04-26T15:35:46.012Z</time></trkpt><trkpt lat="46.2783713" lon="11.4286431"><ele>922.0</ele><time>2026-04-26T15:35:47.012Z</time></trkpt><trkpt lat="46.2782834" lon="11.4284372"><ele>923.0</ele><time>2026-04-26T15:35:48.012Z</time></trkpt><trkpt lat="46.2781926" lon="11.4282285"><ele>924.0</ele><time>2026-04-26T15:35:49.012Z</time></trkpt><trkpt lat="46.2781" lon="11.4280082"><ele>921.0</ele><time>2026-04-26T15:35:50.012Z</time></trkpt><trkpt lat="46.2780122" lon="11.427792"><ele>918.0</ele><time>2026-04-26T15:35:51.012Z</time></trkpt><trkpt lat="46.2779218" lon="11.427572"><ele>915.0</ele><time>2026-04-26T15:35:52.013Z</time></trkpt><trkpt lat="46.2778378" lon="11.4273597"><ele>915.0</ele><time>2026-04-26T15:35:53.012Z</time></trkpt><trkpt lat="46.2777558" lon="11.4271543"><ele>915.0</ele><time>2026-04-26T15:35:54.012Z</time></trkpt><trkpt lat="46.277669" lon="11.426968"><ele>915.0</ele><time>2026-04-26T15:35:55.012Z</time></trkpt><trkpt lat="46.2775573" lon="11.4267946"><ele>914.3333333333333</ele><time>2026-04-26T15:35:56.012Z</time></trkpt><trkpt lat="46.2774364" lon="11.4266344"><ele>913.6666666666666</ele><time>2026-04-26T15:35:57.012Z</time></trkpt><trkpt lat="46.2773068" lon="11.4264986"><ele>913.0</ele><time>2026-04-26T15:35:58.013Z</time></trkpt><trkpt lat="46.2771712" lon="11.4263676"><ele>912.5</ele><time>2026-04-26T15:35:59.013Z</time></trkpt><trkpt lat="46.2770439" lon="11.4262404"><ele>912.0</ele><time>2026-04-26T15:36:00.012Z</time></trkpt><trkpt lat="46.2769182" lon="11.4261185"><ele>911.5</ele><time>2026-04-26T15:36:01.012Z</time></trkpt><trkpt lat="46.2767979" lon="11.4260136"><ele>911.0</ele><time>2026-04-26T15:36:02.012Z</time></trkpt><trkpt lat="46.2766683" lon="11.4259148"><ele>911.0</ele><time>2026-04-26T15:36:03.012Z</time></trkpt><trkpt lat="46.276538" lon="11.425833"><ele>911.0</ele><time>2026-04-26T15:36:04.012Z</time></trkpt><trkpt lat="46.2764154" lon="11.4258131"><ele>911.0</ele><time>2026-04-26T15:36:05.012Z</time></trkpt><trkpt lat="46.2762856" lon="11.4257983"><ele>911.0</ele><time>2026-04-26T15:36:06.012Z</time></trkpt><trkpt lat="46.2761653" lon="11.4257999"><ele>908.0</ele><time>2026-04-26T15:36:07.012Z</time></trkpt><trkpt lat="46.2760564" lon="11.4257882"><ele>904.9999999999999</ele><time>2026-04-26T15:36:08.012Z</time></trkpt><trkpt lat="46.2759803" lon="11.4257452"><ele>901.9999999999999</ele><time>2026-04-26T15:36:09.012Z</time></trkpt><trkpt lat="46.2759329" lon="11.4256458"><ele>899.0</ele><time>2026-04-26T15:36:10.012Z</time></trkpt><trkpt lat="46.2758894" lon="11.4255114"><ele>896.0</ele><time>2026-04-26T15:36:11.012Z</time></trkpt><trkpt lat="46.2758721" lon="11.4253404"><ele>895.75</ele><time>2026-04-26T15:36:12.012Z</time></trkpt><trkpt lat="46.2758599" lon="11.4251502"><ele>895.5</ele><time>2026-04-26T15:36:13.012Z</time></trkpt><trkpt lat="46.2758575" lon="11.4249374"><ele>895.25</ele><time>2026-04-26T15:36:14.012Z</time></trkpt><trkpt lat="46.2758477" lon="11.4247129"><ele>895.0</ele><time>2026-04-26T15:36:15.012Z</time></trkpt><trkpt lat="46.2758182" lon="11.4244902"><ele>897.0</ele><time>2026-04-26T15:36:16.012Z</time></trkpt><trkpt lat="46.2757655" lon="11.4242764"><ele>899.0</ele><time>2026-04-26T15:36:17.012Z</time></trkpt><trkpt lat="46.2756892" lon="11.4240608"><ele>901.0</ele><time>2026-04-26T15:36:18.012Z</time></trkpt><trkpt lat="46.2755969" lon="11.4238649"><ele>891.6666666666666</ele><time>2026-04-26T15:36:19.012Z</time></trkpt><trkpt lat="46.2755062" lon="11.4236683"><ele>882.3333333333333</ele><time>2026-04-26T15:36:20.012Z</time></trkpt><trkpt lat="46.2754243" lon="11.4234632"><ele>873.0</ele><time>2026-04-26T15:36:21.012Z</time></trkpt><trkpt lat="46.2753512" lon="11.4232474"><ele>873.0</ele><time>2026-04-26T15:36:22.012Z</time></trkpt><trkpt lat="46.275295" lon="11.4230325"><ele>873.0</ele><time>2026-04-26T15:36:23.012Z</time></trkpt><trkpt lat="46.2752429" lon="11.4228281"><ele>873.0</ele><time>2026-04-26T15:36:24.012Z</time></trkpt><trkpt lat="46.2752072" lon="11.4226339"><ele>873.0</ele><time>2026-04-26T15:36:25.012Z</time></trkpt><trkpt lat="46.2751904" lon="11.4224445"><ele>874.5</ele><time>2026-04-26T15:36:26.012Z</time></trkpt><trkpt lat="46.2751945" lon="11.4222657"><ele>876.0</ele><time>2026-04-26T15:36:27.012Z</time></trkpt><trkpt lat="46.2752167" lon="11.4220866"><ele>877.5</ele><time>2026-04-26T15:36:28.012Z</time></trkpt><trkpt lat="46.2752309" lon="11.4219226"><ele>879.0</ele><time>2026-04-26T15:36:29.012Z</time></trkpt><trkpt lat="46.2752399" lon="11.4217774"><ele>880.6</ele><time>2026-04-26T15:36:30.012Z</time></trkpt><trkpt lat="46.2752253" lon="11.4216522"><ele>882.2</ele><time>2026-04-26T15:36:31.012Z</time></trkpt><trkpt lat="46.2751787" lon="11.4215454"><ele>883.8000000000001</ele><time>2026-04-26T15:36:32.012Z</time></trkpt><trkpt lat="46.2751134" lon="11.4214694"><ele>885.4000000000001</ele><time>2026-04-26T15:36:33.012Z</time></trkpt><trkpt lat="46.2750215" lon="11.4214267"><ele>887.0</ele><time>2026-04-26T15:36:34.012Z</time></trkpt><trkpt lat="46.2749121" lon="11.4214019"><ele>887.0</ele><time>2026-04-26T15:36:35.012Z</time></trkpt><trkpt lat="46.2747885" lon="11.4213865"><ele>887.0</ele><time>2026-04-26T15:36:36.013Z</time></trkpt><trkpt lat="46.2746816" lon="11.4213455"><ele>887.0</ele><time>2026-04-26T15:36:37.012Z</time></trkpt><trkpt lat="46.2745832" lon="11.4212638"><ele>887.0</ele><time>2026-04-26T15:36:38.012Z</time></trkpt><trkpt lat="46.2745136" lon="11.4211581"><ele>887.0</ele><time>2026-04-26T15:36:39.012Z</time></trkpt><trkpt lat="46.2744828" lon="11.4210134"><ele>881.25</ele><time>2026-04-26T15:36:40.012Z</time></trkpt><trkpt lat="46.2744741" lon="11.4208399"><ele>875.5</ele><time>2026-04-26T15:36:41.012Z</time></trkpt><trkpt lat="46.2744701" lon="11.4206544"><ele>869.75</ele><time>2026-04-26T15:36:42.012Z</time></trkpt><trkpt lat="46.2744739" lon="11.4204635"><ele>864.0</ele><time>2026-04-26T15:36:43.012Z</time></trkpt><trkpt lat="46.2744979" lon="11.4202645"><ele>861.5</ele><time>2026-04-26T15:36:44.012Z</time></trkpt><trkpt lat="46.2745372" lon="11.4200722"><ele>859.0</ele><time>2026-04-26T15:36:45.012Z</time></trkpt><trkpt lat="46.2745995" lon="11.419883"><ele>856.5</ele><time>2026-04-26T15:36:46.012Z</time></trkpt><trkpt lat="46.2746639" lon="11.4196946"><ele>854.0</ele><time>2026-04-26T15:36:47.012Z</time></trkpt><trkpt lat="46.274725" lon="11.4195151"><ele>851.5</ele><time>2026-04-26T15:36:48.012Z</time></trkpt><trkpt lat="46.2747654" lon="11.4193283"><ele>849.0</ele><time>2026-04-26T15:36:49.012Z</time></trkpt><trkpt lat="46.2747889" lon="11.419133"><ele>846.5</ele><time>2026-04-26T15:36:50.012Z</time></trkpt><trkpt lat="46.2748016" lon="11.4189493"><ele>844.0</ele><time>2026-04-26T15:36:51.012Z</time></trkpt><trkpt lat="46.2748055" lon="11.4187618"><ele>843.5</ele><time>2026-04-26T15:36:52.012Z</time></trkpt><trkpt lat="46.2747967" lon="11.4185778"><ele>843.0</ele><time>2026-04-26T15:36:53.012Z</time></trkpt><trkpt lat="46.2747736" lon="11.4183939"><ele>842.5</ele><time>2026-04-26T15:36:54.012Z</time></trkpt><trkpt lat="46.2747402" lon="11.4182154"><ele>842.0</ele><time>2026-04-26T15:36:55.011Z</time></trkpt><trkpt lat="46.2747065" lon="11.4180427"><ele>842.75</ele><time>2026-04-26T15:36:56.011Z</time></trkpt><trkpt lat="46.2746646" lon="11.417874"><ele>843.5</ele><time>2026-04-26T15:36:57.011Z</time></trkpt><trkpt lat="46.2746186" lon="11.4176977"><ele>844.25</ele><time>2026-04-26T15:36:58.011Z</time></trkpt><trkpt lat="46.274581" lon="11.4175329"><ele>845.0</ele><time>2026-04-26T15:36:59.011Z</time></trkpt><trkpt lat="46.2745451" lon="11.4173826"><ele>845.0</ele><time>2026-04-26T15:37:00.011Z</time></trkpt><trkpt lat="46.274517" lon="11.417238"><ele>845.0</ele><time>2026-04-26T15:37:01.011Z</time></trkpt><trkpt lat="46.274497" lon="11.4171063"><ele>845.0</ele><time>2026-04-26T15:37:02.011Z</time></trkpt><trkpt lat="46.2745051" lon="11.4169807"><ele>845.0</ele><time>2026-04-26T15:37:03.011Z</time></trkpt><trkpt lat="46.2745196" lon="11.4168552"><ele>845.0</ele><time>2026-04-26T15:37:04.011Z</time></trkpt><trkpt lat="46.2745544" lon="11.4167318"><ele>844.8333333333334</ele><time>2026-04-26T15:37:05.011Z</time></trkpt><trkpt lat="46.2745935" lon="11.4166162"><ele>844.6666666666667</ele><time>2026-04-26T15:37:06.011Z</time></trkpt><trkpt lat="46.2746299" lon="11.4165065"><ele>844.5</ele><time>2026-04-26T15:37:07.011Z</time></trkpt><trkpt lat="46.2746621" lon="11.4164052"><ele>844.3333333333333</ele><time>2026-04-26T15:37:08.011Z</time></trkpt><trkpt lat="46.2746816" lon="11.4162995"><ele>844.1666666666666</ele><time>2026-04-26T15:37:09.011Z</time></trkpt><trkpt lat="46.2746291" lon="11.416155"><ele>844.0</ele><time>2026-04-26T15:37:11.011Z</time></trkpt><trkpt lat="46.274505" lon="11.4161235"><ele>843.9999999999999</ele><time>2026-04-26T15:37:13.011Z</time></trkpt><trkpt lat="46.2744268" lon="11.4161691"><ele>844.0</ele><time>2026-04-26T15:37:14.011Z</time></trkpt><trkpt lat="46.2743667" lon="11.4162519"><ele>844.0</ele><time>2026-04-26T15:37:15.011Z</time></trkpt><trkpt lat="46.2743233" lon="11.416345"><ele>844.0</ele><time>2026-04-26T15:37:16.011Z</time></trkpt><trkpt lat="46.2742807" lon="11.4164685"><ele>843.9999999999999</ele><time>2026-04-26T15:37:17.011Z</time></trkpt><trkpt lat="46.2742462" lon="11.4165955"><ele>844.0</ele><time>2026-04-26T15:37:18.011Z</time></trkpt><trkpt lat="46.2742211" lon="11.4167175"><ele>844.0</ele><time>2026-04-26T15:37:19.012Z</time></trkpt><trkpt lat="46.2742065" lon="11.4168404"><ele>844.0</ele><time>2026-04-26T15:37:20.011Z</time></trkpt><trkpt lat="46.2742058" lon="11.4169647"><ele>844.0</ele><time>2026-04-26T15:37:21.011Z</time></trkpt><trkpt lat="46.2742235" lon="11.4170894"><ele>844.0</ele><time>2026-04-26T15:37:22.011Z</time></trkpt><trkpt lat="46.2742435" lon="11.4172248"><ele>844.0</ele><time>2026-04-26T15:37:23.011Z</time></trkpt><trkpt lat="46.2742706" lon="11.4173598"><ele>844.2</ele><time>2026-04-26T15:37:24.012Z</time></trkpt><trkpt lat="46.2742994" lon="11.4174958"><ele>844.4000000000001</ele><time>2026-04-26T15:37:25.011Z</time></trkpt><trkpt lat="46.2743298" lon="11.4176311"><ele>844.6</ele><time>2026-04-26T15:37:26.011Z</time></trkpt><trkpt lat="46.2743586" lon="11.4177692"><ele>844.8</ele><time>2026-04-26T15:37:27.012Z</time></trkpt><trkpt lat="46.2743863" lon="11.4179293"><ele>845.0</ele><time>2026-04-26T15:37:28.011Z</time></trkpt><trkpt lat="46.2744009" lon="11.4180943"><ele>844.25</ele><time>2026-04-26T15:37:29.011Z</time></trkpt><trkpt lat="46.2743967" lon="11.4182555"><ele>843.5</ele><time>2026-04-26T15:37:30.012Z</time></trkpt><trkpt lat="46.2743774" lon="11.4184215"><ele>842.75</ele><time>2026-04-26T15:37:31.011Z</time></trkpt><trkpt lat="46.2743502" lon="11.418584"><ele>842.0</ele><time>2026-04-26T15:37:32.011Z</time></trkpt><trkpt lat="46.2743051" lon="11.4187369"><ele>842.5</ele><time>2026-04-26T15:37:33.011Z</time></trkpt><trkpt lat="46.2742468" lon="11.4188854"><ele>843.0</ele><time>2026-04-26T15:37:34.011Z</time></trkpt><trkpt lat="46.2741877" lon="11.4190378"><ele>843.5</ele><time>2026-04-26T15:37:35.011Z</time></trkpt><trkpt lat="46.27413" lon="11.4191828"><ele>844.0</ele><time>2026-04-26T15:37:36.011Z</time></trkpt><trkpt lat="46.2740847" lon="11.4193109"><ele>844.0</ele><time>2026-04-26T15:37:37.011Z</time></trkpt><trkpt lat="46.2740336" lon="11.419442"><ele>844.0</ele><time>2026-04-26T15:37:38.012Z</time></trkpt><trkpt lat="46.2739813" lon="11.4195695"><ele>844.0</ele><time>2026-04-26T15:37:39.011Z</time></trkpt><trkpt lat="46.2739359" lon="11.4196988"><ele>844.0</ele><time>2026-04-26T15:37:40.011Z</time></trkpt><trkpt lat="46.2738845" lon="11.4198257"><ele>844.0</ele><time>2026-04-26T15:37:41.011Z</time></trkpt><trkpt lat="46.2738351" lon="11.4199633"><ele>839.6</ele><time>2026-04-26T15:37:42.012Z</time></trkpt><trkpt lat="46.273786" lon="11.4200946"><ele>835.2</ele><time>2026-04-26T15:37:43.011Z</time></trkpt><trkpt lat="46.2737311" lon="11.420222"><ele>830.8000000000001</ele><time>2026-04-26T15:37:44.011Z</time></trkpt><trkpt lat="46.2736706" lon="11.420346"><ele>826.4000000000001</ele><time>2026-04-26T15:37:45.011Z</time></trkpt><trkpt lat="46.2736134" lon="11.4204683"><ele>822.0</ele><time>2026-04-26T15:37:46.011Z</time></trkpt><trkpt lat="46.2735586" lon="11.4205929"><ele>822.0</ele><time>2026-04-26T15:37:47.011Z</time></trkpt><trkpt lat="46.2734945" lon="11.4207116"><ele>822.0</ele><time>2026-04-26T15:37:48.011Z</time></trkpt><trkpt lat="46.2734277" lon="11.4208348"><ele>822.0</ele><time>2026-04-26T15:37:49.011Z</time></trkpt><trkpt lat="46.2733693" lon="11.4209546"><ele>822.0</ele><time>2026-04-26T15:37:50.011Z</time></trkpt><trkpt lat="46.2733294" lon="11.4210823"><ele>822.0</ele><time>2026-04-26T15:37:51.011Z</time></trkpt><trkpt lat="46.2733185" lon="11.4212116"><ele>823.0</ele><time>2026-04-26T15:37:52.011Z</time></trkpt><trkpt lat="46.2733209" lon="11.421355"><ele>824.0</ele><time>2026-04-26T15:37:53.011Z</time></trkpt><trkpt lat="46.2733192" lon="11.4214989"><ele>825.0</ele><time>2026-04-26T15:37:54.011Z</time></trkpt><trkpt lat="46.2733138" lon="11.4216392"><ele>826.0</ele><time>2026-04-26T15:37:55.011Z</time></trkpt><trkpt lat="46.2733097" lon="11.4217781"><ele>827.0</ele><time>2026-04-26T15:37:56.011Z</time></trkpt><trkpt lat="46.273316" lon="11.421921"><ele>827.0</ele><time>2026-04-26T15:37:57.011Z</time></trkpt><trkpt lat="46.2733249" lon="11.4220637"><ele>827.0</ele><time>2026-04-26T15:37:58.011Z</time></trkpt><trkpt lat="46.2733535" lon="11.4222038"><ele>827.0</ele><time>2026-04-26T15:37:59.011Z</time></trkpt><trkpt lat="46.2734009" lon="11.4223376"><ele>827.0</ele><time>2026-04-26T15:38:00.011Z</time></trkpt><trkpt lat="46.2734578" lon="11.4224769"><ele>827.0</ele><time>2026-04-26T15:38:01.011Z</time></trkpt><trkpt lat="46.2735167" lon="11.4226163"><ele>824.6</ele><time>2026-04-26T15:38:02.011Z</time></trkpt><trkpt lat="46.2735721" lon="11.4227623"><ele>822.2</ele><time>2026-04-26T15:38:03.011Z</time></trkpt><trkpt lat="46.2736164" lon="11.4229081"><ele>819.8</ele><time>2026-04-26T15:38:04.011Z</time></trkpt><trkpt lat="46.2736503" lon="11.4230568"><ele>817.4</ele><time>2026-04-26T15:38:05.011Z</time></trkpt><trkpt lat="46.273673" lon="11.4232095"><ele>815.0</ele><time>2026-04-26T15:38:06.011Z</time></trkpt><trkpt lat="46.2736828" lon="11.4233733"><ele>813.5</ele><time>2026-04-26T15:38:07.011Z</time></trkpt><trkpt lat="46.2736988" lon="11.4235408"><ele>812.0</ele><time>2026-04-26T15:38:08.011Z</time></trkpt><trkpt lat="46.2737109" lon="11.4237114"><ele>810.5</ele><time>2026-04-26T15:38:09.011Z</time></trkpt><trkpt lat="46.2737241" lon="11.423875"><ele>809.0</ele><time>2026-04-26T15:38:10.011Z</time></trkpt><trkpt lat="46.2737316" lon="11.4240402"><ele>808.8000000000001</ele><time>2026-04-26T15:38:11.012Z</time></trkpt><trkpt lat="46.2737347" lon="11.4241964"><ele>808.6</ele><time>2026-04-26T15:38:12.012Z</time></trkpt><trkpt lat="46.2737249" lon="11.4243401"><ele>808.4</ele><time>2026-04-26T15:38:13.012Z</time></trkpt><trkpt lat="46.2736927" lon="11.4244681"><ele>808.2</ele><time>2026-04-26T15:38:14.011Z</time></trkpt><trkpt lat="46.2736498" lon="11.4245762"><ele>808.0</ele><time>2026-04-26T15:38:15.011Z</time></trkpt><trkpt lat="46.2735985" lon="11.4246708"><ele>808.4</ele><time>2026-04-26T15:38:16.011Z</time></trkpt><trkpt lat="46.2735428" lon="11.424745"><ele>808.8</ele><time>2026-04-26T15:38:17.011Z</time></trkpt><trkpt lat="46.2734598" lon="11.4248017"><ele>809.2</ele><time>2026-04-26T15:38:18.011Z</time></trkpt><trkpt lat="46.2733767" lon="11.4248473"><ele>809.6</ele><time>2026-04-26T15:38:19.011Z</time></trkpt><trkpt lat="46.2732791" lon="11.4248758"><ele>810.0</ele><time>2026-04-26T15:38:20.011Z</time></trkpt><trkpt lat="46.2731756" lon="11.4248859"><ele>809.75</ele><time>2026-04-26T15:38:21.011Z</time></trkpt><trkpt lat="46.2730666" lon="11.4248742"><ele>809.5</ele><time>2026-04-26T15:38:22.011Z</time></trkpt><trkpt lat="46.2729598" lon="11.424834"><ele>809.25</ele><time>2026-04-26T15:38:23.011Z</time></trkpt><trkpt lat="46.272858" lon="11.4247601"><ele>809.0</ele><time>2026-04-26T15:38:24.012Z</time></trkpt><trkpt lat="46.272765" lon="11.4246535"><ele>809.0</ele><time>2026-04-26T15:38:25.011Z</time></trkpt><trkpt lat="46.2726821" lon="11.424536"><ele>809.0</ele><time>2026-04-26T15:38:26.011Z</time></trkpt><trkpt lat="46.2726057" lon="11.4243999"><ele>809.0</ele><time>2026-04-26T15:38:27.011Z</time></trkpt><trkpt lat="46.2725344" lon="11.4242641"><ele>809.0</ele><time>2026-04-26T15:38:28.011Z</time></trkpt><trkpt lat="46.2724598" lon="11.4241252"><ele>809.0</ele><time>2026-04-26T15:38:29.011Z</time></trkpt><trkpt lat="46.2723872" lon="11.4239911"><ele>809.0</ele><time>2026-04-26T15:38:30.011Z</time></trkpt><trkpt lat="46.2723205" lon="11.4238651"><ele>809.0</ele><time>2026-04-26T15:38:31.011Z</time></trkpt><trkpt lat="46.272258" lon="11.4237404"><ele>809.0</ele><time>2026-04-26T15:38:32.011Z</time></trkpt><trkpt lat="46.272206" lon="11.4236243"><ele>809.0</ele><time>2026-04-26T15:38:33.011Z</time></trkpt><trkpt lat="46.2721559" lon="11.4235045"><ele>807.8000000000001</ele><time>2026-04-26T15:38:34.011Z</time></trkpt><trkpt lat="46.2720997" lon="11.4234003"><ele>806.6</ele><time>2026-04-26T15:38:35.011Z</time></trkpt><trkpt lat="46.2720313" lon="11.4233185"><ele>805.4</ele><time>2026-04-26T15:38:36.011Z</time></trkpt><trkpt lat="46.2719491" lon="11.4232505"><ele>804.2</ele><time>2026-04-26T15:38:37.011Z</time></trkpt><trkpt lat="46.2718681" lon="11.4231697"><ele>803.0</ele><time>2026-04-26T15:38:38.011Z</time></trkpt><trkpt lat="46.2717967" lon="11.4230667"><ele>803.25</ele><time>2026-04-26T15:38:39.011Z</time></trkpt><trkpt lat="46.2717299" lon="11.422944"><ele>803.5</ele><time>2026-04-26T15:38:40.011Z</time></trkpt><trkpt lat="46.2716571" lon="11.4228182"><ele>803.75</ele><time>2026-04-26T15:38:41.011Z</time></trkpt><trkpt lat="46.2715792" lon="11.4226922"><ele>804.0</ele><time>2026-04-26T15:38:42.011Z</time></trkpt><trkpt lat="46.2715016" lon="11.4225551"><ele>804.0</ele><time>2026-04-26T15:38:43.011Z</time></trkpt><trkpt lat="46.2714425" lon="11.42238"><ele>804.0</ele><time>2026-04-26T15:38:44.011Z</time></trkpt><trkpt lat="46.2713908" lon="11.4221604"><ele>804.0</ele><time>2026-04-26T15:38:45.011Z</time></trkpt><trkpt lat="46.2713396" lon="11.4219112"><ele>803.6666666666667</ele><time>2026-04-26T15:38:46.011Z</time></trkpt><trkpt lat="46.2712989" lon="11.4216305"><ele>803.3333333333334</ele><time>2026-04-26T15:38:47.011Z</time></trkpt><trkpt lat="46.2712802" lon="11.4213406"><ele>803.0</ele><time>2026-04-26T15:38:48.011Z</time></trkpt><trkpt lat="46.2712606" lon="11.4210464"><ele>803.0</ele><time>2026-04-26T15:38:49.011Z</time></trkpt><trkpt lat="46.2712411" lon="11.4207597"><ele>803.0</ele><time>2026-04-26T15:38:50.011Z</time></trkpt><trkpt lat="46.2712127" lon="11.4204725"><ele>803.0</ele><time>2026-04-26T15:38:51.011Z</time></trkpt><trkpt lat="46.2711735" lon="11.42019"><ele>802.6666666666667</ele><time>2026-04-26T15:38:52.011Z</time></trkpt><trkpt lat="46.2711255" lon="11.4199132"><ele>802.3333333333333</ele><time>2026-04-26T15:38:53.011Z</time></trkpt><trkpt lat="46.2710677" lon="11.4196311"><ele>802.0</ele><time>2026-04-26T15:38:54.011Z</time></trkpt><trkpt lat="46.2710097" lon="11.4193536"><ele>802.0</ele><time>2026-04-26T15:38:55.011Z</time></trkpt><trkpt lat="46.2709573" lon="11.4190708"><ele>802.0</ele><time>2026-04-26T15:38:56.011Z</time></trkpt><trkpt lat="46.2709046" lon="11.4187846"><ele>802.0</ele><time>2026-04-26T15:38:57.011Z</time></trkpt><trkpt lat="46.2708609" lon="11.4184911"><ele>801.6666666666666</ele><time>2026-04-26T15:38:58.011Z</time></trkpt><trkpt lat="46.2708264" lon="11.4181924"><ele>801.3333333333333</ele><time>2026-04-26T15:38:59.011Z</time></trkpt><trkpt lat="46.2707935" lon="11.4178855"><ele>801.0</ele><time>2026-04-26T15:39:00.011Z</time></trkpt><trkpt lat="46.2707602" lon="11.4175833"><ele>801.0</ele><time>2026-04-26T15:39:01.011Z</time></trkpt><trkpt lat="46.2707305" lon="11.4172843"><ele>801.0</ele><time>2026-04-26T15:39:02.011Z</time></trkpt><trkpt lat="46.2707153" lon="11.416987"><ele>801.0</ele><time>2026-04-26T15:39:03.011Z</time></trkpt><trkpt lat="46.2707176" lon="11.4166945"><ele>801.0</ele><time>2026-04-26T15:39:04.011Z</time></trkpt><trkpt lat="46.2707399" lon="11.4163976"><ele>801.0</ele><time>2026-04-26T15:39:05.011Z</time></trkpt><trkpt lat="46.2707762" lon="11.4161024"><ele>801.0</ele><time>2026-04-26T15:39:06.011Z</time></trkpt><trkpt lat="46.2708287" lon="11.4158185"><ele>800.0</ele><time>2026-04-26T15:39:07.011Z</time></trkpt><trkpt lat="46.2708979" lon="11.4155355"><ele>799.0</ele><time>2026-04-26T15:39:08.012Z</time></trkpt><trkpt lat="46.2709664" lon="11.4152523"><ele>798.0</ele><time>2026-04-26T15:39:09.011Z</time></trkpt><trkpt lat="46.2710256" lon="11.4149652"><ele>798.0</ele><time>2026-04-26T15:39:10.011Z</time></trkpt><trkpt lat="46.2710785" lon="11.414679"><ele>798.0</ele><time>2026-04-26T15:39:11.011Z</time></trkpt><trkpt lat="46.2711197" lon="11.4143876"><ele>798.0</ele><time>2026-04-26T15:39:12.011Z</time></trkpt><trkpt lat="46.2711445" lon="11.4140917"><ele>799.3333333333333</ele><time>2026-04-26T15:39:13.011Z</time></trkpt><trkpt lat="46.2711578" lon="11.4138011"><ele>800.6666666666666</ele><time>2026-04-26T15:39:14.011Z</time></trkpt><trkpt lat="46.2711606" lon="11.4135172"><ele>802.0</ele><time>2026-04-26T15:39:15.011Z</time></trkpt><trkpt lat="46.2711497" lon="11.4132345"><ele>803.3333333333333</ele><time>2026-04-26T15:39:16.011Z</time></trkpt><trkpt lat="46.2711292" lon="11.4129602"><ele>804.6666666666667</ele><time>2026-04-26T15:39:17.011Z</time></trkpt><trkpt lat="46.2710925" lon="11.4126894"><ele>806.0</ele><time>2026-04-26T15:39:18.011Z</time></trkpt><trkpt lat="46.2710335" lon="11.4124274"><ele>806.0</ele><time>2026-04-26T15:39:19.011Z</time></trkpt><trkpt lat="46.2709581" lon="11.4121589"><ele>806.0</ele><time>2026-04-26T15:39:20.011Z</time></trkpt><trkpt lat="46.2708637" lon="11.4119012"><ele>806.0</ele><time>2026-04-26T15:39:21.011Z</time></trkpt><trkpt lat="46.2707512" lon="11.4116598"><ele>811.0</ele><time>2026-04-26T15:39:22.011Z</time></trkpt><trkpt lat="46.2706174" lon="11.4114391"><ele>816.0</ele><time>2026-04-26T15:39:23.011Z</time></trkpt><trkpt lat="46.2704668" lon="11.411256"><ele>821.0</ele><time>2026-04-26T15:39:24.011Z</time></trkpt><trkpt lat="46.2703041" lon="11.4110866"><ele>821.6666666666667</ele><time>2026-04-26T15:39:25.011Z</time></trkpt><trkpt lat="46.2701312" lon="11.4109339"><ele>822.3333333333333</ele><time>2026-04-26T15:39:26.011Z</time></trkpt><trkpt lat="46.2699493" lon="11.4107994"><ele>823.0</ele><time>2026-04-26T15:39:27.011Z</time></trkpt><trkpt lat="46.2697633" lon="11.4106743"><ele>825.3333333333333</ele><time>2026-04-26T15:39:28.011Z</time></trkpt><trkpt lat="46.2695707" lon="11.4105568"><ele>827.6666666666667</ele><time>2026-04-26T15:39:29.011Z</time></trkpt><trkpt lat="46.2693785" lon="11.4104538"><ele>830.0</ele><time>2026-04-26T15:39:30.011Z</time></trkpt><trkpt lat="46.2691874" lon="11.4103742"><ele>830.0</ele><time>2026-04-26T15:39:31.012Z</time></trkpt><trkpt lat="46.2689999" lon="11.4103062"><ele>830.0</ele><time>2026-04-26T15:39:32.011Z</time></trkpt><trkpt lat="46.2688184" lon="11.4102354"><ele>830.0</ele><time>2026-04-26T15:39:33.011Z</time></trkpt><trkpt lat="46.2686526" lon="11.4101451"><ele>823.3333333333334</ele><time>2026-04-26T15:39:34.011Z</time></trkpt><trkpt lat="46.2685027" lon="11.4100309"><ele>816.6666666666667</ele><time>2026-04-26T15:39:35.011Z</time></trkpt><trkpt lat="46.268366" lon="11.409882"><ele>810.0</ele><time>2026-04-26T15:39:36.011Z</time></trkpt><trkpt lat="46.2682463" lon="11.4097131"><ele>806.6666666666667</ele><time>2026-04-26T15:39:37.011Z</time></trkpt><trkpt lat="46.2681329" lon="11.4095178"><ele>803.3333333333334</ele><time>2026-04-26T15:39:38.011Z</time></trkpt><trkpt lat="46.2680234" lon="11.4093101"><ele>800.0</ele><time>2026-04-26T15:39:39.011Z</time></trkpt><trkpt lat="46.2679117" lon="11.4091092"><ele>800.0</ele><time>2026-04-26T15:39:40.011Z</time></trkpt><trkpt lat="46.2677952" lon="11.4089171"><ele>800.0</ele><time>2026-04-26T15:39:41.011Z</time></trkpt><trkpt lat="46.2676713" lon="11.4087624"><ele>800.0</ele><time>2026-04-26T15:39:42.012Z</time></trkpt><trkpt lat="46.2675425" lon="11.4086377"><ele>800.25</ele><time>2026-04-26T15:39:43.011Z</time></trkpt><trkpt lat="46.2674114" lon="11.4085378"><ele>800.5</ele><time>2026-04-26T15:39:44.011Z</time></trkpt><trkpt lat="46.2672713" lon="11.4084611"><ele>800.75</ele><time>2026-04-26T15:39:45.011Z</time></trkpt><trkpt lat="46.2671424" lon="11.408374"><ele>801.0</ele><time>2026-04-26T15:39:46.011Z</time></trkpt><trkpt lat="46.2670356" lon="11.4082663"><ele>801.0</ele><time>2026-04-26T15:39:47.011Z</time></trkpt><trkpt lat="46.2669488" lon="11.4081422"><ele>801.0</ele><time>2026-04-26T15:39:48.011Z</time></trkpt><trkpt lat="46.2668856" lon="11.4079873"><ele>801.0</ele><time>2026-04-26T15:39:49.011Z</time></trkpt><trkpt lat="46.2668377" lon="11.4078127"><ele>801.0</ele><time>2026-04-26T15:39:50.011Z</time></trkpt><trkpt lat="46.2667892" lon="11.4076285"><ele>801.0</ele><time>2026-04-26T15:39:51.011Z</time></trkpt><trkpt lat="46.266726" lon="11.4074401"><ele>801.0</ele><time>2026-04-26T15:39:52.011Z</time></trkpt><trkpt lat="46.2666507" lon="11.4072227"><ele>801.0</ele><time>2026-04-26T15:39:53.012Z</time></trkpt><trkpt lat="46.2665672" lon="11.4069884"><ele>801.0</ele><time>2026-04-26T15:39:54.011Z</time></trkpt><trkpt lat="46.2664804" lon="11.4067266"><ele>801.0</ele><time>2026-04-26T15:39:55.011Z</time></trkpt><trkpt lat="46.2663835" lon="11.4064499"><ele>801.0</ele><time>2026-04-26T15:39:56.011Z</time></trkpt><trkpt lat="46.2662805" lon="11.4061555"><ele>797.6666666666667</ele><time>2026-04-26T15:39:57.011Z</time></trkpt><trkpt lat="46.2661801" lon="11.4058591"><ele>794.3333333333334</ele><time>2026-04-26T15:39:58.011Z</time></trkpt><trkpt lat="46.2660843" lon="11.4055726"><ele>791.0</ele><time>2026-04-26T15:39:59.011Z</time></trkpt><trkpt lat="46.2659981" lon="11.4053066"><ele>790.0</ele><time>2026-04-26T15:40:00.011Z</time></trkpt><trkpt lat="46.2659229" lon="11.4050463"><ele>789.0</ele><time>2026-04-26T15:40:01.012Z</time></trkpt><trkpt lat="46.2658429" lon="11.4047957"><ele>788.0</ele><time>2026-04-26T15:40:02.011Z</time></trkpt><trkpt lat="46.2657486" lon="11.404548"><ele>788.0</ele><time>2026-04-26T15:40:03.011Z</time></trkpt><trkpt lat="46.2656378" lon="11.4043128"><ele>788.0</ele><time>2026-04-26T15:40:04.011Z</time></trkpt><trkpt lat="46.2655136" lon="11.4040718"><ele>788.0</ele><time>2026-04-26T15:40:05.011Z</time></trkpt><trkpt lat="46.2653813" lon="11.4038328"><ele>786.3333333333334</ele><time>2026-04-26T15:40:06.011Z</time></trkpt><trkpt lat="46.265248" lon="11.4036024"><ele>784.6666666666667</ele><time>2026-04-26T15:40:07.011Z</time></trkpt><trkpt lat="46.2651132" lon="11.4033737"><ele>783.0</ele><time>2026-04-26T15:40:08.011Z</time></trkpt><trkpt lat="46.2649859" lon="11.4031493"><ele>783.0</ele><time>2026-04-26T15:40:09.011Z</time></trkpt><trkpt lat="46.2648662" lon="11.4029395"><ele>783.0</ele><time>2026-04-26T15:40:10.011Z</time></trkpt><trkpt lat="46.2647548" lon="11.4027395"><ele>783.0</ele><time>2026-04-26T15:40:11.012Z</time></trkpt><trkpt lat="46.2646539" lon="11.4025343"><ele>796.3333333333333</ele><time>2026-04-26T15:40:12.011Z</time></trkpt><trkpt lat="46.2645692" lon="11.4023214"><ele>809.6666666666666</ele><time>2026-04-26T15:40:13.011Z</time></trkpt><trkpt lat="46.2645035" lon="11.402088"><ele>823.0</ele><time>2026-04-26T15:40:14.011Z</time></trkpt><trkpt lat="46.2644613" lon="11.4018404"><ele>823.0</ele><time>2026-04-26T15:40:15.011Z</time></trkpt><trkpt lat="46.2644271" lon="11.4015987"><ele>823.0</ele><time>2026-04-26T15:40:16.011Z</time></trkpt><trkpt lat="46.2643865" lon="11.4013556"><ele>823.0</ele><time>2026-04-26T15:40:17.011Z</time></trkpt><trkpt lat="46.264333" lon="11.4011228"><ele>815.3333333333333</ele><time>2026-04-26T15:40:18.011Z</time></trkpt><trkpt lat="46.2642596" lon="11.4009046"><ele>807.6666666666667</ele><time>2026-04-26T15:40:19.011Z</time></trkpt><trkpt lat="46.264163" lon="11.4006895"><ele>800.0</ele><time>2026-04-26T15:40:20.011Z</time></trkpt><trkpt lat="46.2640404" lon="11.4004826"><ele>817.6666666666667</ele><time>2026-04-26T15:40:21.011Z</time></trkpt><trkpt lat="46.2639111" lon="11.4002815"><ele>835.3333333333333</ele><time>2026-04-26T15:40:22.011Z</time></trkpt><trkpt lat="46.2637796" lon="11.4000709"><ele>853.0</ele><time>2026-04-26T15:40:23.011Z</time></trkpt><trkpt lat="46.2636625" lon="11.3998563"><ele>842.6666666666666</ele><time>2026-04-26T15:40:24.011Z</time></trkpt><trkpt lat="46.2635553" lon="11.3996228"><ele>832.3333333333333</ele><time>2026-04-26T15:40:25.011Z</time></trkpt><trkpt lat="46.2634774" lon="11.399367"><ele>822.0</ele><time>2026-04-26T15:40:26.011Z</time></trkpt><trkpt lat="46.2634139" lon="11.3990987"><ele>813.0</ele><time>2026-04-26T15:40:27.011Z</time></trkpt><trkpt lat="46.2633677" lon="11.3988109"><ele>804.0</ele><time>2026-04-26T15:40:28.011Z</time></trkpt><trkpt lat="46.2633174" lon="11.3985126"><ele>795.0</ele><time>2026-04-26T15:40:29.011Z</time></trkpt><trkpt lat="46.2632603" lon="11.3982065"><ele>790.6666666666667</ele><time>2026-04-26T15:40:30.011Z</time></trkpt><trkpt lat="46.2632028" lon="11.3978987"><ele>786.3333333333334</ele><time>2026-04-26T15:40:31.011Z</time></trkpt><trkpt lat="46.263143" lon="11.3975896"><ele>782.0</ele><time>2026-04-26T15:40:32.011Z</time></trkpt><trkpt lat="46.2630798" lon="11.3972755"><ele>794.6666666666667</ele><time>2026-04-26T15:40:33.011Z</time></trkpt><trkpt lat="46.2630211" lon="11.3969678"><ele>807.3333333333333</ele><time>2026-04-26T15:40:34.011Z</time></trkpt><trkpt lat="46.2629581" lon="11.396666"><ele>820.0</ele><time>2026-04-26T15:40:35.011Z</time></trkpt><trkpt lat="46.2628937" lon="11.3963773"><ele>826.3333333333333</ele><time>2026-04-26T15:40:36.011Z</time></trkpt><trkpt lat="46.2628332" lon="11.3961025"><ele>832.6666666666667</ele><time>2026-04-26T15:40:37.011Z</time></trkpt><trkpt lat="46.2627804" lon="11.3958422"><ele>839.0</ele><time>2026-04-26T15:40:38.011Z</time></trkpt><trkpt lat="46.2627395" lon="11.3955969"><ele>839.3333333333334</ele><time>2026-04-26T15:40:39.011Z</time></trkpt><trkpt lat="46.2627072" lon="11.3953656"><ele>839.6666666666667</ele><time>2026-04-26T15:40:40.011Z</time></trkpt><trkpt lat="46.2627012" lon="11.3951374"><ele>840.0</ele><time>2026-04-26T15:40:41.011Z</time></trkpt><trkpt lat="46.2627152" lon="11.3949163"><ele>840.0</ele><time>2026-04-26T15:40:42.011Z</time></trkpt><trkpt lat="46.2627428" lon="11.394705"><ele>840.0</ele><time>2026-04-26T15:40:43.011Z</time></trkpt><trkpt lat="46.2627659" lon="11.3945031"><ele>840.0</ele><time>2026-04-26T15:40:44.011Z</time></trkpt><trkpt lat="46.2627558" lon="11.3943074"><ele>840.0</ele><time>2026-04-26T15:40:45.011Z</time></trkpt><trkpt lat="46.2627218" lon="11.3941111"><ele>836.0</ele><time>2026-04-26T15:40:46.011Z</time></trkpt><trkpt lat="46.262662" lon="11.3939257"><ele>832.0</ele><time>2026-04-26T15:40:47.011Z</time></trkpt><trkpt lat="46.2625711" lon="11.3937388"><ele>828.0</ele><time>2026-04-26T15:40:48.011Z</time></trkpt><trkpt lat="46.2624533" lon="11.3935477"><ele>831.0</ele><time>2026-04-26T15:40:49.011Z</time></trkpt><trkpt lat="46.2623166" lon="11.3933472"><ele>834.0</ele><time>2026-04-26T15:40:50.011Z</time></trkpt><trkpt lat="46.2621873" lon="11.3931365"><ele>837.0</ele><time>2026-04-26T15:40:51.011Z</time></trkpt><trkpt lat="46.2620552" lon="11.3929188"><ele>837.0</ele><time>2026-04-26T15:40:52.012Z</time></trkpt><trkpt lat="46.2619276" lon="11.392697"><ele>837.0</ele><time>2026-04-26T15:40:53.011Z</time></trkpt><trkpt lat="46.2617993" lon="11.3924699"><ele>837.0</ele><time>2026-04-26T15:40:54.011Z</time></trkpt><trkpt lat="46.2616711" lon="11.3922385"><ele>844.3333333333333</ele><time>2026-04-26T15:40:55.011Z</time></trkpt><trkpt lat="46.2615358" lon="11.3920011"><ele>851.6666666666666</ele><time>2026-04-26T15:40:56.011Z</time></trkpt><trkpt lat="46.2614023" lon="11.391748"><ele>859.0</ele><time>2026-04-26T15:40:57.011Z</time></trkpt><trkpt lat="46.2612769" lon="11.3914777"><ele>850.5</ele><time>2026-04-26T15:40:58.011Z</time></trkpt><trkpt lat="46.2611699" lon="11.391186"><ele>842.0</ele><time>2026-04-26T15:40:59.011Z</time></trkpt><trkpt lat="46.2610814" lon="11.3908839"><ele>842.0</ele><time>2026-04-26T15:41:00.011Z</time></trkpt><trkpt lat="46.2610034" lon="11.3905774"><ele>842.0</ele><time>2026-04-26T15:41:01.011Z</time></trkpt><trkpt lat="46.2609192" lon="11.3902779"><ele>842.0</ele><time>2026-04-26T15:41:02.011Z</time></trkpt><trkpt lat="46.2608461" lon="11.3899873"><ele>835.3333333333334</ele><time>2026-04-26T15:41:03.011Z</time></trkpt><trkpt lat="46.2607809" lon="11.3897024"><ele>828.6666666666667</ele><time>2026-04-26T15:41:04.012Z</time></trkpt><trkpt lat="46.2607259" lon="11.3894326"><ele>822.0</ele><time>2026-04-26T15:41:05.011Z</time></trkpt><trkpt lat="46.2607002" lon="11.3891752"><ele>819.3333333333333</ele><time>2026-04-26T15:41:06.011Z</time></trkpt><trkpt lat="46.2607032" lon="11.3889241"><ele>816.6666666666666</ele><time>2026-04-26T15:41:07.012Z</time></trkpt><trkpt lat="46.2607294" lon="11.3886768"><ele>814.0</ele><time>2026-04-26T15:41:08.011Z</time></trkpt><trkpt lat="46.2607718" lon="11.3884382"><ele>810.5</ele><time>2026-04-26T15:41:09.011Z</time></trkpt><trkpt lat="46.2608028" lon="11.3882137"><ele>807.0</ele><time>2026-04-26T15:41:10.011Z</time></trkpt><trkpt lat="46.2608103" lon="11.3879978"><ele>803.5</ele><time>2026-04-26T15:41:11.011Z</time></trkpt><trkpt lat="46.2607935" lon="11.3877951"><ele>800.0</ele><time>2026-04-26T15:41:12.011Z</time></trkpt><trkpt lat="46.2607394" lon="11.3875919"><ele>797.6666666666667</ele><time>2026-04-26T15:41:13.011Z</time></trkpt><trkpt lat="46.2606532" lon="11.3874091"><ele>795.3333333333333</ele><time>2026-04-26T15:41:14.011Z</time></trkpt><trkpt lat="46.2605567" lon="11.3872061"><ele>793.0</ele><time>2026-04-26T15:41:15.011Z</time></trkpt><trkpt lat="46.2604692" lon="11.386994"><ele>817.3333333333333</ele><time>2026-04-26T15:41:16.011Z</time></trkpt><trkpt lat="46.2604075" lon="11.3867666"><ele>841.6666666666667</ele><time>2026-04-26T15:41:17.011Z</time></trkpt><trkpt lat="46.2603803" lon="11.3865213"><ele>866.0</ele><time>2026-04-26T15:41:18.011Z</time></trkpt><trkpt lat="46.2603969" lon="11.386256"><ele>867.3333333333334</ele><time>2026-04-26T15:41:19.011Z</time></trkpt><trkpt lat="46.2604289" lon="11.3859903"><ele>868.6666666666667</ele><time>2026-04-26T15:41:20.011Z</time></trkpt><trkpt lat="46.2604701" lon="11.3857275"><ele>870.0</ele><time>2026-04-26T15:41:21.011Z</time></trkpt><trkpt lat="46.2604979" lon="11.385466"><ele>863.3333333333333</ele><time>2026-04-26T15:41:22.011Z</time></trkpt><trkpt lat="46.2605052" lon="11.3852003"><ele>856.6666666666666</ele><time>2026-04-26T15:41:23.011Z</time></trkpt><trkpt lat="46.2604862" lon="11.3849335"><ele>850.0</ele><time>2026-04-26T15:41:24.011Z</time></trkpt><trkpt lat="46.2604512" lon="11.3846632"><ele>841.0</ele><time>2026-04-26T15:41:25.012Z</time></trkpt><trkpt lat="46.260396" lon="11.3843884"><ele>832.0</ele><time>2026-04-26T15:41:26.011Z</time></trkpt><trkpt lat="46.2603552" lon="11.3841006"><ele>823.0</ele><time>2026-04-26T15:41:27.011Z</time></trkpt><trkpt lat="46.2603361" lon="11.3838086"><ele>820.3333333333333</ele><time>2026-04-26T15:41:28.012Z</time></trkpt><trkpt lat="46.2603374" lon="11.3835173"><ele>817.6666666666667</ele><time>2026-04-26T15:41:29.011Z</time></trkpt><trkpt lat="46.2603507" lon="11.3832126"><ele>815.0</ele><time>2026-04-26T15:41:30.011Z</time></trkpt><trkpt lat="46.2603588" lon="11.3829169"><ele>813.3333333333334</ele><time>2026-04-26T15:41:31.011Z</time></trkpt><trkpt lat="46.2603488" lon="11.3826101"><ele>811.6666666666667</ele><time>2026-04-26T15:41:32.011Z</time></trkpt><trkpt lat="46.2603164" lon="11.382299"><ele>810.0</ele><time>2026-04-26T15:41:33.011Z</time></trkpt><trkpt lat="46.2602662" lon="11.3819944"><ele>813.6666666666667</ele><time>2026-04-26T15:41:34.011Z</time></trkpt><trkpt lat="46.2602085" lon="11.3816917"><ele>817.3333333333334</ele><time>2026-04-26T15:41:35.011Z</time></trkpt><trkpt lat="46.2601498" lon="11.3813897"><ele>821.0</ele><time>2026-04-26T15:41:36.011Z</time></trkpt><trkpt lat="46.2600859" lon="11.3810863"><ele>824.6666666666667</ele><time>2026-04-26T15:41:37.011Z</time></trkpt><trkpt lat="46.2600272" lon="11.3808004"><ele>828.3333333333333</ele><time>2026-04-26T15:41:38.011Z</time></trkpt><trkpt lat="46.2599705" lon="11.380529"><ele>832.0</ele><time>2026-04-26T15:41:39.011Z</time></trkpt><trkpt lat="46.2599246" lon="11.3802749"><ele>833.6666666666666</ele><time>2026-04-26T15:41:40.011Z</time></trkpt><trkpt lat="46.2598983" lon="11.3800363"><ele>835.3333333333333</ele><time>2026-04-26T15:41:41.012Z</time></trkpt><trkpt lat="46.2598981" lon="11.3798115"><ele>837.0</ele><time>2026-04-26T15:41:42.011Z</time></trkpt><trkpt lat="46.2599281" lon="11.3795915"><ele>843.3333333333333</ele><time>2026-04-26T15:41:43.011Z</time></trkpt><trkpt lat="46.2599768" lon="11.379369"><ele>849.6666666666666</ele><time>2026-04-26T15:41:44.011Z</time></trkpt><trkpt lat="46.2600465" lon="11.3791468"><ele>856.0</ele><time>2026-04-26T15:41:45.011Z</time></trkpt><trkpt lat="46.2601256" lon="11.378917"><ele>861.6666666666666</ele><time>2026-04-26T15:41:46.011Z</time></trkpt><trkpt lat="46.2602055" lon="11.3786722"><ele>867.3333333333333</ele><time>2026-04-26T15:41:47.011Z</time></trkpt><trkpt lat="46.2602877" lon="11.3784255"><ele>873.0</ele><time>2026-04-26T15:41:48.011Z</time></trkpt><trkpt lat="46.2603738" lon="11.3781785"><ele>878.3333333333333</ele><time>2026-04-26T15:41:49.011Z</time></trkpt><trkpt lat="46.2604555" lon="11.3779402"><ele>883.6666666666666</ele><time>2026-04-26T15:41:50.011Z</time></trkpt><trkpt lat="46.2605294" lon="11.3777073"><ele>889.0</ele><time>2026-04-26T15:41:51.011Z</time></trkpt><trkpt lat="46.2605876" lon="11.3774727"><ele>869.6666666666666</ele><time>2026-04-26T15:41:52.011Z</time></trkpt><trkpt lat="46.2606355" lon="11.37722"><ele>850.3333333333333</ele><time>2026-04-26T15:41:53.011Z</time></trkpt><trkpt lat="46.2606696" lon="11.376953"><ele>831.0</ele><time>2026-04-26T15:41:54.011Z</time></trkpt><trkpt lat="46.2607016" lon="11.3766784"><ele>831.0</ele><time>2026-04-26T15:41:55.011Z</time></trkpt><trkpt lat="46.2607337" lon="11.3763838"><ele>831.0</ele><time>2026-04-26T15:41:56.011Z</time></trkpt><trkpt lat="46.2607581" lon="11.3760851"><ele>831.0</ele><time>2026-04-26T15:41:57.011Z</time></trkpt><trkpt lat="46.2607867" lon="11.3757948"><ele>835.3333333333333</ele><time>2026-04-26T15:41:58.011Z</time></trkpt><trkpt lat="46.260812" lon="11.3755177"><ele>839.6666666666666</ele><time>2026-04-26T15:41:59.011Z</time></trkpt><trkpt lat="46.2608346" lon="11.3752646"><ele>844.0</ele><time>2026-04-26T15:42:00.011Z</time></trkpt><trkpt lat="46.2608562" lon="11.3750347"><ele>844.0</ele><time>2026-04-26T15:42:01.011Z</time></trkpt><trkpt lat="46.2608657" lon="11.3748309"><ele>844.0</ele><time>2026-04-26T15:42:02.011Z</time></trkpt><trkpt lat="46.2608536" lon="11.3746565"><ele>844.0</ele><time>2026-04-26T15:42:03.012Z</time></trkpt><trkpt lat="46.260821" lon="11.3744905"><ele>844.0</ele><time>2026-04-26T15:42:04.011Z</time></trkpt><trkpt lat="46.2607685" lon="11.3743303"><ele>841.0</ele><time>2026-04-26T15:42:05.011Z</time></trkpt><trkpt lat="46.2606911" lon="11.3741885"><ele>838.0</ele><time>2026-04-26T15:42:06.011Z</time></trkpt><trkpt lat="46.2605841" lon="11.3740664"><ele>835.0</ele><time>2026-04-26T15:42:07.011Z</time></trkpt><trkpt lat="46.2604508" lon="11.3739766"><ele>832.0</ele><time>2026-04-26T15:42:08.011Z</time></trkpt><trkpt lat="46.2602928" lon="11.3739103"><ele>832.75</ele><time>2026-04-26T15:42:09.011Z</time></trkpt><trkpt lat="46.2601416" lon="11.3738497"><ele>833.5</ele><time>2026-04-26T15:42:10.011Z</time></trkpt><trkpt lat="46.2600078" lon="11.373777"><ele>834.25</ele><time>2026-04-26T15:42:11.011Z</time></trkpt><trkpt lat="46.2598932" lon="11.3736814"><ele>835.0</ele><time>2026-04-26T15:42:12.011Z</time></trkpt><trkpt lat="46.2598157" lon="11.3735565"><ele>836.0</ele><time>2026-04-26T15:42:13.011Z</time></trkpt><trkpt lat="46.2597609" lon="11.3734083"><ele>837.0</ele><time>2026-04-26T15:42:14.011Z</time></trkpt><trkpt lat="46.2597247" lon="11.37324"><ele>838.0</ele><time>2026-04-26T15:42:15.011Z</time></trkpt><trkpt lat="46.2597271" lon="11.373067"><ele>839.0</ele><time>2026-04-26T15:42:16.011Z</time></trkpt><trkpt lat="46.2597602" lon="11.372903"><ele>833.25</ele><time>2026-04-26T15:42:17.011Z</time></trkpt><trkpt lat="46.2598086" lon="11.3727489"><ele>827.5</ele><time>2026-04-26T15:42:18.011Z</time></trkpt><trkpt lat="46.2598809" lon="11.3725925"><ele>821.75</ele><time>2026-04-26T15:42:19.011Z</time></trkpt><trkpt lat="46.2599593" lon="11.3724228"><ele>816.0</ele><time>2026-04-26T15:42:20.011Z</time></trkpt><trkpt lat="46.2600362" lon="11.372239"><ele>824.6666666666667</ele><time>2026-04-26T15:42:21.011Z</time></trkpt><trkpt lat="46.2601147" lon="11.3720408"><ele>833.3333333333334</ele><time>2026-04-26T15:42:22.011Z</time></trkpt><trkpt lat="46.260198" lon="11.3718365"><ele>842.0</ele><time>2026-04-26T15:42:23.011Z</time></trkpt><trkpt lat="46.2602828" lon="11.3716195"><ele>842.0</ele><time>2026-04-26T15:42:24.011Z</time></trkpt><trkpt lat="46.2603706" lon="11.3713972"><ele>842.0</ele><time>2026-04-26T15:42:25.011Z</time></trkpt><trkpt lat="46.2604579" lon="11.3711675"><ele>842.0</ele><time>2026-04-26T15:42:26.011Z</time></trkpt><trkpt lat="46.260545" lon="11.3709423"><ele>845.0</ele><time>2026-04-26T15:42:27.011Z</time></trkpt><trkpt lat="46.2606285" lon="11.3707261"><ele>848.0</ele><time>2026-04-26T15:42:28.011Z</time></trkpt><trkpt lat="46.2607093" lon="11.3705146"><ele>851.0</ele><time>2026-04-26T15:42:29.011Z</time></trkpt><trkpt lat="46.2607796" lon="11.3703133"><ele>851.0</ele><time>2026-04-26T15:42:30.011Z</time></trkpt><trkpt lat="46.2608433" lon="11.3701086"><ele>851.0</ele><time>2026-04-26T15:42:31.011Z</time></trkpt><trkpt lat="46.2608852" lon="11.3699004"><ele>851.0</ele><time>2026-04-26T15:42:32.011Z</time></trkpt><trkpt lat="46.2609036" lon="11.3696831"><ele>853.6666666666667</ele><time>2026-04-26T15:42:33.011Z</time></trkpt><trkpt lat="46.2609019" lon="11.3694461"><ele>856.3333333333333</ele><time>2026-04-26T15:42:34.011Z</time></trkpt><trkpt lat="46.2608828" lon="11.3691901"><ele>859.0</ele><time>2026-04-26T15:42:35.011Z</time></trkpt><trkpt lat="46.2608612" lon="11.3689222"><ele>867.3333333333333</ele><time>2026-04-26T15:42:36.011Z</time></trkpt><trkpt lat="46.2608563" lon="11.3686453"><ele>875.6666666666667</ele><time>2026-04-26T15:42:37.011Z</time></trkpt><trkpt lat="46.2608804" lon="11.3683735"><ele>884.0</ele><time>2026-04-26T15:42:38.011Z</time></trkpt><trkpt lat="46.2609277" lon="11.3681065"><ele>891.6666666666667</ele><time>2026-04-26T15:42:39.011Z</time></trkpt><trkpt lat="46.2609903" lon="11.3678221"><ele>899.3333333333333</ele><time>2026-04-26T15:42:40.011Z</time></trkpt><trkpt lat="46.261078" lon="11.3675445"><ele>907.0</ele><time>2026-04-26T15:42:41.011Z</time></trkpt><trkpt lat="46.2611735" lon="11.3672678"><ele>939.0</ele><time>2026-04-26T15:42:42.011Z</time></trkpt><trkpt lat="46.2614256" lon="11.3655544"><ele>908.0</ele><time>2026-04-26T15:42:47.011Z</time></trkpt><trkpt lat="46.2615162" lon="11.3651949"><ele>877.0</ele><time>2026-04-26T15:42:48.01Z</time></trkpt><trkpt lat="46.2616098" lon="11.3648288"><ele>881.0</ele><time>2026-04-26T15:42:49.011Z</time></trkpt><trkpt lat="46.2617142" lon="11.3644487"><ele>885.0</ele><time>2026-04-26T15:42:50.01Z</time></trkpt><trkpt lat="46.2617865" lon="11.3641418"><ele>893.0</ele><time>2026-04-26T15:42:51.01Z</time></trkpt><trkpt lat="46.2618771" lon="11.3638255"><ele>901.0</ele><time>2026-04-26T15:42:52.01Z</time></trkpt><trkpt lat="46.2619584" lon="11.3635175"><ele>901.0</ele><time>2026-04-26T15:42:53.011Z</time></trkpt><trkpt lat="46.2620381" lon="11.3632424"><ele>901.0</ele><time>2026-04-26T15:42:54.01Z</time></trkpt><trkpt lat="46.2621049" lon="11.3629788"><ele>901.0</ele><time>2026-04-26T15:42:55.011Z</time></trkpt><trkpt lat="46.2621762" lon="11.3627225"><ele>907.3333333333333</ele><time>2026-04-26T15:42:56.01Z</time></trkpt><trkpt lat="46.2622606" lon="11.3624883"><ele>913.6666666666667</ele><time>2026-04-26T15:42:57.01Z</time></trkpt><trkpt lat="46.262348" lon="11.3622639"><ele>920.0</ele><time>2026-04-26T15:42:58.011Z</time></trkpt><trkpt lat="46.2624292" lon="11.3620557"><ele>900.6666666666667</ele><time>2026-04-26T15:42:59.01Z</time></trkpt><trkpt lat="46.2624898" lon="11.3618573"><ele>881.3333333333333</ele><time>2026-04-26T15:43:00.01Z</time></trkpt><trkpt lat="46.2625287" lon="11.3616426"><ele>862.0</ele><time>2026-04-26T15:43:01.01Z</time></trkpt><trkpt lat="46.2625461" lon="11.3614069"><ele>861.0</ele><time>2026-04-26T15:43:02.01Z</time></trkpt><trkpt lat="46.2625419" lon="11.361149"><ele>860.0</ele><time>2026-04-26T15:43:03.01Z</time></trkpt><trkpt lat="46.2625201" lon="11.3608742"><ele>859.0</ele><time>2026-04-26T15:43:04.01Z</time></trkpt><trkpt lat="46.2624987" lon="11.3605855"><ele>860.0</ele><time>2026-04-26T15:43:05.01Z</time></trkpt><trkpt lat="46.262482" lon="11.3603021"><ele>861.0</ele><time>2026-04-26T15:43:06.01Z</time></trkpt><trkpt lat="46.2624641" lon="11.3600309"><ele>862.0</ele><time>2026-04-26T15:43:07.01Z</time></trkpt><trkpt lat="46.2624505" lon="11.3597785"><ele>868.3333333333333</ele><time>2026-04-26T15:43:08.01Z</time></trkpt><trkpt lat="46.2624467" lon="11.3595452"><ele>874.6666666666667</ele><time>2026-04-26T15:43:09.01Z</time></trkpt><trkpt lat="46.2624621" lon="11.3593206"><ele>881.0</ele><time>2026-04-26T15:43:10.01Z</time></trkpt><trkpt lat="46.2625002" lon="11.3591127"><ele>881.0</ele><time>2026-04-26T15:43:11.01Z</time></trkpt><trkpt lat="46.2625512" lon="11.3589102"><ele>881.0</ele><time>2026-04-26T15:43:12.01Z</time></trkpt><trkpt lat="46.2626203" lon="11.358711"><ele>881.0</ele><time>2026-04-26T15:43:13.01Z</time></trkpt><trkpt lat="46.2626778" lon="11.3585152"><ele>889.3333333333334</ele><time>2026-04-26T15:43:14.01Z</time></trkpt><trkpt lat="46.2626962" lon="11.3583095"><ele>897.6666666666667</ele><time>2026-04-26T15:43:15.01Z</time></trkpt><trkpt lat="46.2626962" lon="11.3581051"><ele>906.0</ele><time>2026-04-26T15:43:16.011Z</time></trkpt><trkpt lat="46.2627224" lon="11.3568281"><ele>907.3333333333333</ele><time>2026-04-26T15:43:22.01Z</time></trkpt><trkpt lat="46.2627086" lon="11.3564621"><ele>908.6666666666666</ele><time>2026-04-26T15:43:23.01Z</time></trkpt><trkpt lat="46.2626796" lon="11.3562423"><ele>910.0</ele><time>2026-04-26T15:43:24.01Z</time></trkpt><trkpt lat="46.2626315" lon="11.356039"><ele>898.3333333333333</ele><time>2026-04-26T15:43:25.01Z</time></trkpt><trkpt lat="46.2625623" lon="11.3558417"><ele>886.6666666666667</ele><time>2026-04-26T15:43:26.01Z</time></trkpt><trkpt lat="46.262489" lon="11.3556373"><ele>875.0</ele><time>2026-04-26T15:43:27.01Z</time></trkpt><trkpt lat="46.262413" lon="11.3554494"><ele>874.0</ele><time>2026-04-26T15:43:28.01Z</time></trkpt><trkpt lat="46.2623483" lon="11.3552687"><ele>873.0</ele><time>2026-04-26T15:43:29.01Z</time></trkpt><trkpt lat="46.2622816" lon="11.3551039"><ele>872.0</ele><time>2026-04-26T15:43:30.01Z</time></trkpt><trkpt lat="46.2622063" lon="11.3549573"><ele>871.0</ele><time>2026-04-26T15:43:31.01Z</time></trkpt><trkpt lat="46.2621198" lon="11.3548315"><ele>871.0</ele><time>2026-04-26T15:43:32.01Z</time></trkpt><trkpt lat="46.2620278" lon="11.3547393"><ele>871.0</ele><time>2026-04-26T15:43:33.01Z</time></trkpt><trkpt lat="46.2619168" lon="11.354674"><ele>871.0</ele><time>2026-04-26T15:43:34.01Z</time></trkpt><trkpt lat="46.2617923" lon="11.3546422"><ele>871.0</ele><time>2026-04-26T15:43:35.01Z</time></trkpt><trkpt lat="46.2616559" lon="11.3546674"><ele>870.6666666666666</ele><time>2026-04-26T15:43:36.01Z</time></trkpt><trkpt lat="46.2615032" lon="11.3547005"><ele>870.3333333333333</ele><time>2026-04-26T15:43:37.01Z</time></trkpt><trkpt lat="46.2613468" lon="11.3547326"><ele>870.0</ele><time>2026-04-26T15:43:38.011Z</time></trkpt><trkpt lat="46.2611873" lon="11.3547605"><ele>870.0</ele><time>2026-04-26T15:43:39.01Z</time></trkpt><trkpt lat="46.261029" lon="11.3547973"><ele>870.0</ele><time>2026-04-26T15:43:40.01Z</time></trkpt><trkpt lat="46.260886" lon="11.354852"><ele>870.0</ele><time>2026-04-26T15:43:41.01Z</time></trkpt><trkpt lat="46.2607591" lon="11.3549363"><ele>870.0</ele><time>2026-04-26T15:43:42.01Z</time></trkpt><trkpt lat="46.260638" lon="11.3550704"><ele>864.3333333333333</ele><time>2026-04-26T15:43:43.01Z</time></trkpt><trkpt lat="46.2605205" lon="11.3552215"><ele>858.6666666666666</ele><time>2026-04-26T15:43:44.01Z</time></trkpt><trkpt lat="46.2604062" lon="11.3553635"><ele>853.0</ele><time>2026-04-26T15:43:45.01Z</time></trkpt><trkpt lat="46.2602865" lon="11.35549"><ele>863.3333333333333</ele><time>2026-04-26T15:43:46.01Z</time></trkpt><trkpt lat="46.2601515" lon="11.3555787"><ele>873.6666666666667</ele><time>2026-04-26T15:43:47.01Z</time></trkpt><trkpt lat="46.2599903" lon="11.3556172"><ele>884.0</ele><time>2026-04-26T15:43:48.01Z</time></trkpt><trkpt lat="46.2598227" lon="11.3556318"><ele>883.0</ele><time>2026-04-26T15:43:49.01Z</time></trkpt><trkpt lat="46.2596468" lon="11.35564"><ele>882.0</ele><time>2026-04-26T15:43:50.01Z</time></trkpt><trkpt lat="46.2594629" lon="11.3556481"><ele>881.0</ele><time>2026-04-26T15:43:51.01Z</time></trkpt><trkpt lat="46.2592711" lon="11.3556611"><ele>881.0</ele><time>2026-04-26T15:43:52.011Z</time></trkpt><trkpt lat="46.2590807" lon="11.3556837"><ele>881.0</ele><time>2026-04-26T15:43:53.01Z</time></trkpt><trkpt lat="46.2588939" lon="11.3557012"><ele>881.0</ele><time>2026-04-26T15:43:54.01Z</time></trkpt><trkpt lat="46.2587245" lon="11.3557116"><ele>883.25</ele><time>2026-04-26T15:43:55.01Z</time></trkpt><trkpt lat="46.2585669" lon="11.3557147"><ele>885.5</ele><time>2026-04-26T15:43:56.01Z</time></trkpt><trkpt lat="46.2584317" lon="11.3556965"><ele>887.75</ele><time>2026-04-26T15:43:57.01Z</time></trkpt><trkpt lat="46.2583166" lon="11.3556507"><ele>890.0</ele><time>2026-04-26T15:43:58.01Z</time></trkpt><trkpt lat="46.2582155" lon="11.35557"><ele>884.25</ele><time>2026-04-26T15:43:59.01Z</time></trkpt><trkpt lat="46.2581343" lon="11.3554436"><ele>878.5</ele><time>2026-04-26T15:44:00.01Z</time></trkpt><trkpt lat="46.258063" lon="11.3552746"><ele>872.75</ele><time>2026-04-26T15:44:01.011Z</time></trkpt><trkpt lat="46.2580107" lon="11.3550549"><ele>867.0</ele><time>2026-04-26T15:44:02.01Z</time></trkpt><trkpt lat="46.2579835" lon="11.3548183"><ele>881.6666666666667</ele><time>2026-04-26T15:44:03.01Z</time></trkpt><trkpt lat="46.2579466" lon="11.3545656"><ele>896.3333333333334</ele><time>2026-04-26T15:44:04.01Z</time></trkpt><trkpt lat="46.2579056" lon="11.3542997"><ele>911.0</ele><time>2026-04-26T15:44:05.01Z</time></trkpt><trkpt lat="46.25786" lon="11.3540337"><ele>912.0</ele><time>2026-04-26T15:44:06.01Z</time></trkpt><trkpt lat="46.2578089" lon="11.3537698"><ele>913.0</ele><time>2026-04-26T15:44:07.01Z</time></trkpt><trkpt lat="46.2577627" lon="11.3535067"><ele>914.0</ele><time>2026-04-26T15:44:08.01Z</time></trkpt><trkpt lat="46.2577256" lon="11.353261"><ele>909.0</ele><time>2026-04-26T15:44:09.01Z</time></trkpt><trkpt lat="46.2577099" lon="11.3530189"><ele>904.0</ele><time>2026-04-26T15:44:10.01Z</time></trkpt><trkpt lat="46.2577163" lon="11.352786"><ele>899.0</ele><time>2026-04-26T15:44:11.01Z</time></trkpt><trkpt lat="46.2577358" lon="11.3525742"><ele>899.0</ele><time>2026-04-26T15:44:12.01Z</time></trkpt><trkpt lat="46.2577479" lon="11.3523783"><ele>899.0</ele><time>2026-04-26T15:44:13.01Z</time></trkpt><trkpt lat="46.2577424" lon="11.3522003"><ele>899.0</ele><time>2026-04-26T15:44:14.01Z</time></trkpt><trkpt lat="46.2577031" lon="11.3520342"><ele>899.0</ele><time>2026-04-26T15:44:15.01Z</time></trkpt><trkpt lat="46.2576264" lon="11.3519027"><ele>902.5</ele><time>2026-04-26T15:44:16.01Z</time></trkpt><trkpt lat="46.2575186" lon="11.3517913"><ele>906.0</ele><time>2026-04-26T15:44:17.01Z</time></trkpt><trkpt lat="46.2573983" lon="11.3516974"><ele>909.5</ele><time>2026-04-26T15:44:18.01Z</time></trkpt><trkpt lat="46.2572646" lon="11.3516034"><ele>913.0</ele><time>2026-04-26T15:44:19.01Z</time></trkpt><trkpt lat="46.2571259" lon="11.3515137"><ele>913.0</ele><time>2026-04-26T15:44:20.01Z</time></trkpt><trkpt lat="46.2569774" lon="11.3513903"><ele>913.0</ele><time>2026-04-26T15:44:21.01Z</time></trkpt><trkpt lat="46.2568398" lon="11.3512359"><ele>913.0</ele><time>2026-04-26T15:44:22.01Z</time></trkpt><trkpt lat="46.2567193" lon="11.3510502"><ele>903.3333333333333</ele><time>2026-04-26T15:44:23.01Z</time></trkpt><trkpt lat="46.2566011" lon="11.3508521"><ele>893.6666666666667</ele><time>2026-04-26T15:44:24.01Z</time></trkpt><trkpt lat="46.2564871" lon="11.3506594"><ele>884.0</ele><time>2026-04-26T15:44:25.01Z</time></trkpt><trkpt lat="46.2563634" lon="11.3504865"><ele>884.0</ele><time>2026-04-26T15:44:26.01Z</time></trkpt><trkpt lat="46.256225" lon="11.3503152"><ele>884.0</ele><time>2026-04-26T15:44:27.01Z</time></trkpt><trkpt lat="46.2560619" lon="11.3501679"><ele>884.0</ele><time>2026-04-26T15:44:28.01Z</time></trkpt><trkpt lat="46.2558891" lon="11.3500219"><ele>884.0</ele><time>2026-04-26T15:44:29.01Z</time></trkpt><trkpt lat="46.2557179" lon="11.3498871"><ele>884.0</ele><time>2026-04-26T15:44:30.01Z</time></trkpt><trkpt lat="46.2555481" lon="11.3497549"><ele>884.0</ele><time>2026-04-26T15:44:31.01Z</time></trkpt><trkpt lat="46.2553747" lon="11.3496279"><ele>878.0</ele><time>2026-04-26T15:44:32.01Z</time></trkpt><trkpt lat="46.2551947" lon="11.3495317"><ele>872.0</ele><time>2026-04-26T15:44:33.01Z</time></trkpt><trkpt lat="46.2550208" lon="11.3494738"><ele>866.0</ele><time>2026-04-26T15:44:34.01Z</time></trkpt><trkpt lat="46.2548447" lon="11.3494554"><ele>870.0</ele><time>2026-04-26T15:44:35.01Z</time></trkpt><trkpt lat="46.2546642" lon="11.3494476"><ele>874.0</ele><time>2026-04-26T15:44:36.01Z</time></trkpt><trkpt lat="46.2544797" lon="11.3494484"><ele>878.0</ele><time>2026-04-26T15:44:37.01Z</time></trkpt><trkpt lat="46.2542982" lon="11.3494343"><ele>878.0</ele><time>2026-04-26T15:44:38.01Z</time></trkpt><trkpt lat="46.2541125" lon="11.349375"><ele>878.0</ele><time>2026-04-26T15:44:39.01Z</time></trkpt><trkpt lat="46.2539375" lon="11.3492784"><ele>878.0</ele><time>2026-04-26T15:44:40.01Z</time></trkpt><trkpt lat="46.2537618" lon="11.3491562"><ele>879.6666666666667</ele><time>2026-04-26T15:44:41.011Z</time></trkpt><trkpt lat="46.2535872" lon="11.3490339"><ele>881.3333333333333</ele><time>2026-04-26T15:44:42.011Z</time></trkpt><trkpt lat="46.2534213" lon="11.3489257"><ele>883.0</ele><time>2026-04-26T15:44:43.01Z</time></trkpt><trkpt lat="46.2532541" lon="11.3488532"><ele>877.6666666666666</ele><time>2026-04-26T15:44:44.01Z</time></trkpt><trkpt lat="46.2530704" lon="11.3488005"><ele>872.3333333333333</ele><time>2026-04-26T15:44:45.01Z</time></trkpt><trkpt lat="46.2528763" lon="11.3487818"><ele>867.0</ele><time>2026-04-26T15:44:46.01Z</time></trkpt><trkpt lat="46.2526723" lon="11.3487824"><ele>867.0</ele><time>2026-04-26T15:44:47.01Z</time></trkpt><trkpt lat="46.2524696" lon="11.3487826"><ele>867.0</ele><time>2026-04-26T15:44:48.01Z</time></trkpt><trkpt lat="46.2522736" lon="11.3487835"><ele>867.0</ele><time>2026-04-26T15:44:49.01Z</time></trkpt><trkpt lat="46.2520805" lon="11.3487822"><ele>866.0</ele><time>2026-04-26T15:44:50.01Z</time></trkpt><trkpt lat="46.2518924" lon="11.3487794"><ele>865.0</ele><time>2026-04-26T15:44:51.01Z</time></trkpt><trkpt lat="46.2517112" lon="11.3487645"><ele>864.0</ele><time>2026-04-26T15:44:52.01Z</time></trkpt><trkpt lat="46.2515445" lon="11.3487381"><ele>871.6666666666667</ele><time>2026-04-26T15:44:53.01Z</time></trkpt><trkpt lat="46.251383" lon="11.3486702"><ele>879.3333333333334</ele><time>2026-04-26T15:44:54.01Z</time></trkpt><trkpt lat="46.2512352" lon="11.3485698"><ele>887.0</ele><time>2026-04-26T15:44:55.01Z</time></trkpt><trkpt lat="46.2511" lon="11.3484254"><ele>887.0</ele><time>2026-04-26T15:44:56.01Z</time></trkpt><trkpt lat="46.2509862" lon="11.3482557"><ele>887.0</ele><time>2026-04-26T15:44:57.01Z</time></trkpt><trkpt lat="46.2508857" lon="11.3480738"><ele>887.0</ele><time>2026-04-26T15:44:58.01Z</time></trkpt><trkpt lat="46.2508084" lon="11.3478728"><ele>882.3333333333334</ele><time>2026-04-26T15:44:59.01Z</time></trkpt><trkpt lat="46.2507537" lon="11.3476485"><ele>877.6666666666667</ele><time>2026-04-26T15:45:00.011Z</time></trkpt><trkpt lat="46.2507206" lon="11.3474202"><ele>873.0</ele><time>2026-04-26T15:45:01.01Z</time></trkpt><trkpt lat="46.2506933" lon="11.3471862"><ele>871.0</ele><time>2026-04-26T15:45:02.01Z</time></trkpt><trkpt lat="46.2506955" lon="11.3469289"><ele>869.0</ele><time>2026-04-26T15:45:03.01Z</time></trkpt><trkpt lat="46.250723" lon="11.3466741"><ele>867.0</ele><time>2026-04-26T15:45:04.01Z</time></trkpt><trkpt lat="46.2507385" lon="11.3464196"><ele>866.6666666666667</ele><time>2026-04-26T15:45:05.01Z</time></trkpt><trkpt lat="46.2507432" lon="11.3461715"><ele>866.3333333333334</ele><time>2026-04-26T15:45:06.01Z</time></trkpt><trkpt lat="46.2507495" lon="11.3459335"><ele>866.0</ele><time>2026-04-26T15:45:07.01Z</time></trkpt><trkpt lat="46.2507411" lon="11.3457082"><ele>863.25</ele><time>2026-04-26T15:45:08.01Z</time></trkpt><trkpt lat="46.2507242" lon="11.3454931"><ele>860.5</ele><time>2026-04-26T15:45:09.01Z</time></trkpt><trkpt lat="46.2506975" lon="11.3452835"><ele>857.75</ele><time>2026-04-26T15:45:10.011Z</time></trkpt><trkpt lat="46.25066" lon="11.3450898"><ele>855.0</ele><time>2026-04-26T15:45:11.01Z</time></trkpt><trkpt lat="46.2506126" lon="11.3449103"><ele>858.75</ele><time>2026-04-26T15:45:12.01Z</time></trkpt><trkpt lat="46.2505518" lon="11.3447376"><ele>862.5</ele><time>2026-04-26T15:45:13.01Z</time></trkpt><trkpt lat="46.2504869" lon="11.3445829"><ele>866.25</ele><time>2026-04-26T15:45:14.01Z</time></trkpt><trkpt lat="46.2504077" lon="11.3444247"><ele>870.0</ele><time>2026-04-26T15:45:15.01Z</time></trkpt><trkpt lat="46.2503253" lon="11.3442791"><ele>870.0</ele><time>2026-04-26T15:45:16.01Z</time></trkpt><trkpt lat="46.2502396" lon="11.3441374"><ele>870.0</ele><time>2026-04-26T15:45:17.01Z</time></trkpt><trkpt lat="46.2501504" lon="11.344011"><ele>870.0</ele><time>2026-04-26T15:45:18.01Z</time></trkpt><trkpt lat="46.2500583" lon="11.343892"><ele>870.0</ele><time>2026-04-26T15:45:19.011Z</time></trkpt><trkpt lat="46.2499609" lon="11.3437815"><ele>868.0</ele><time>2026-04-26T15:45:20.01Z</time></trkpt><trkpt lat="46.2498545" lon="11.3436789"><ele>866.0</ele><time>2026-04-26T15:45:21.01Z</time></trkpt><trkpt lat="46.2497479" lon="11.3435775"><ele>864.0</ele><time>2026-04-26T15:45:22.01Z</time></trkpt><trkpt lat="46.2496371" lon="11.343486"><ele>862.0</ele><time>2026-04-26T15:45:23.01Z</time></trkpt><trkpt lat="46.249524" lon="11.3433974"><ele>862.0</ele><time>2026-04-26T15:45:24.01Z</time></trkpt><trkpt lat="46.2494028" lon="11.3433213"><ele>862.0</ele><time>2026-04-26T15:45:25.01Z</time></trkpt><trkpt lat="46.2492728" lon="11.3432681"><ele>862.0</ele><time>2026-04-26T15:45:26.01Z</time></trkpt><trkpt lat="46.2491447" lon="11.3432195"><ele>862.0</ele><time>2026-04-26T15:45:27.01Z</time></trkpt><trkpt lat="46.2490108" lon="11.3431761"><ele>863.25</ele><time>2026-04-26T15:45:28.01Z</time></trkpt><trkpt lat="46.248878" lon="11.3431341"><ele>864.5</ele><time>2026-04-26T15:45:29.01Z</time></trkpt><trkpt lat="46.2487472" lon="11.3430889"><ele>865.75</ele><time>2026-04-26T15:45:30.01Z</time></trkpt><trkpt lat="46.2486102" lon="11.3430428"><ele>867.0</ele><time>2026-04-26T15:45:31.011Z</time></trkpt><trkpt lat="46.2484688" lon="11.3430016"><ele>858.0</ele><time>2026-04-26T15:45:32.01Z</time></trkpt><trkpt lat="46.2483277" lon="11.3429609"><ele>849.0</ele><time>2026-04-26T15:45:33.01Z</time></trkpt><trkpt lat="46.2481856" lon="11.3429335"><ele>840.0</ele><time>2026-04-26T15:45:34.01Z</time></trkpt><trkpt lat="46.2480389" lon="11.3429264"><ele>831.0</ele><time>2026-04-26T15:45:35.01Z</time></trkpt><trkpt lat="46.2478945" lon="11.3429384"><ele>831.0</ele><time>2026-04-26T15:45:36.011Z</time></trkpt><trkpt lat="46.2477466" lon="11.3429582"><ele>831.0</ele><time>2026-04-26T15:45:37.01Z</time></trkpt><trkpt lat="46.2476035" lon="11.3429795"><ele>831.0</ele><time>2026-04-26T15:45:38.01Z</time></trkpt><trkpt lat="46.2474564" lon="11.3429969"><ele>831.0</ele><time>2026-04-26T15:45:39.01Z</time></trkpt><trkpt lat="46.2473105" lon="11.3430203"><ele>829.3333333333333</ele><time>2026-04-26T15:45:40.01Z</time></trkpt><trkpt lat="46.2471601" lon="11.3430451"><ele>827.6666666666666</ele><time>2026-04-26T15:45:41.01Z</time></trkpt><trkpt lat="46.2470091" lon="11.3430659"><ele>826.0</ele><time>2026-04-26T15:45:42.01Z</time></trkpt><trkpt lat="46.2468616" lon="11.3430864"><ele>840.6666666666666</ele><time>2026-04-26T15:45:43.01Z</time></trkpt><trkpt lat="46.2467097" lon="11.3431046"><ele>855.3333333333333</ele><time>2026-04-26T15:45:44.01Z</time></trkpt><trkpt lat="46.2465534" lon="11.3431242"><ele>870.0</ele><time>2026-04-26T15:45:45.01Z</time></trkpt><trkpt lat="46.2463962" lon="11.3431269"><ele>870.0</ele><time>2026-04-26T15:45:46.01Z</time></trkpt><trkpt lat="46.2462421" lon="11.3431137"><ele>870.0</ele><time>2026-04-26T15:45:47.01Z</time></trkpt><trkpt lat="46.2460835" lon="11.3430899"><ele>870.0</ele><time>2026-04-26T15:45:48.011Z</time></trkpt><trkpt lat="46.2459304" lon="11.3430569"><ele>864.3333333333333</ele><time>2026-04-26T15:45:49.01Z</time></trkpt><trkpt lat="46.245779" lon="11.3430311"><ele>858.6666666666666</ele><time>2026-04-26T15:45:50.01Z</time></trkpt><trkpt lat="46.2456284" lon="11.3430316"><ele>853.0</ele><time>2026-04-26T15:45:51.011Z</time></trkpt><trkpt lat="46.245478" lon="11.343056"><ele>853.0</ele><time>2026-04-26T15:45:52.01Z</time></trkpt><trkpt lat="46.2453314" lon="11.3431079"><ele>853.0</ele><time>2026-04-26T15:45:53.01Z</time></trkpt><trkpt lat="46.2451835" lon="11.3431819"><ele>853.0</ele><time>2026-04-26T15:45:54.01Z</time></trkpt><trkpt lat="46.2450422" lon="11.3432752"><ele>853.0</ele><time>2026-04-26T15:45:55.01Z</time></trkpt><trkpt lat="46.2448979" lon="11.3433907"><ele>853.0</ele><time>2026-04-26T15:45:56.01Z</time></trkpt><trkpt lat="46.244755" lon="11.3435011"><ele>853.0</ele><time>2026-04-26T15:45:57.01Z</time></trkpt><trkpt lat="46.2446133" lon="11.343608"><ele>847.6666666666666</ele><time>2026-04-26T15:45:58.01Z</time></trkpt><trkpt lat="46.2444648" lon="11.343705"><ele>842.3333333333333</ele><time>2026-04-26T15:45:59.01Z</time></trkpt><trkpt lat="46.24432" lon="11.3438007"><ele>837.0</ele><time>2026-04-26T15:46:00.01Z</time></trkpt><trkpt lat="46.2441753" lon="11.3438857"><ele>843.5</ele><time>2026-04-26T15:46:01.01Z</time></trkpt><trkpt lat="46.244031" lon="11.3439645"><ele>850.0</ele><time>2026-04-26T15:46:02.011Z</time></trkpt><trkpt lat="46.2438972" lon="11.3440385"><ele>856.5</ele><time>2026-04-26T15:46:03.01Z</time></trkpt><trkpt lat="46.2437652" lon="11.3441035"><ele>863.0</ele><time>2026-04-26T15:46:04.01Z</time></trkpt><trkpt lat="46.2436425" lon="11.3441633"><ele>863.0</ele><time>2026-04-26T15:46:05.01Z</time></trkpt><trkpt lat="46.2435206" lon="11.3442081"><ele>863.0</ele><time>2026-04-26T15:46:06.01Z</time></trkpt><trkpt lat="46.2433916" lon="11.3442233"><ele>863.0</ele><time>2026-04-26T15:46:07.01Z</time></trkpt><trkpt lat="46.2432648" lon="11.3441964"><ele>863.0</ele><time>2026-04-26T15:46:08.01Z</time></trkpt><trkpt lat="46.2431441" lon="11.3441353"><ele>861.75</ele><time>2026-04-26T15:46:09.01Z</time></trkpt><trkpt lat="46.2430354" lon="11.3440238"><ele>860.5</ele><time>2026-04-26T15:46:10.011Z</time></trkpt><trkpt lat="46.2429439" lon="11.343887"><ele>859.25</ele><time>2026-04-26T15:46:11.01Z</time></trkpt><trkpt lat="46.2428771" lon="11.343712"><ele>858.0</ele><time>2026-04-26T15:46:12.01Z</time></trkpt><trkpt lat="46.2428202" lon="11.3435215"><ele>858.0</ele><time>2026-04-26T15:46:13.01Z</time></trkpt><trkpt lat="46.2427582" lon="11.343325"><ele>858.0</ele><time>2026-04-26T15:46:14.01Z</time></trkpt><trkpt lat="46.2426958" lon="11.3431348"><ele>858.0</ele><time>2026-04-26T15:46:15.01Z</time></trkpt><trkpt lat="46.2426456" lon="11.342946"><ele>858.0</ele><time>2026-04-26T15:46:16.01Z</time></trkpt><trkpt lat="46.2426163" lon="11.3427543"><ele>861.25</ele><time>2026-04-26T15:46:17.01Z</time></trkpt><trkpt lat="46.2426112" lon="11.3425729"><ele>864.5</ele><time>2026-04-26T15:46:18.011Z</time></trkpt><trkpt lat="46.2426373" lon="11.3423907"><ele>867.75</ele><time>2026-04-26T15:46:19.01Z</time></trkpt><trkpt lat="46.2426971" lon="11.3422228"><ele>871.0</ele><time>2026-04-26T15:46:20.01Z</time></trkpt><trkpt lat="46.242788" lon="11.342066"><ele>869.3333333333333</ele><time>2026-04-26T15:46:21.01Z</time></trkpt><trkpt lat="46.2429057" lon="11.3419223"><ele>867.6666666666667</ele><time>2026-04-26T15:46:22.01Z</time></trkpt><trkpt lat="46.2430284" lon="11.3417726"><ele>866.0</ele><time>2026-04-26T15:46:23.011Z</time></trkpt><trkpt lat="46.2431575" lon="11.341619"><ele>866.0</ele><time>2026-04-26T15:46:24.01Z</time></trkpt><trkpt lat="46.2432855" lon="11.3414664"><ele>866.0</ele><time>2026-04-26T15:46:25.01Z</time></trkpt><trkpt lat="46.2434106" lon="11.3413139"><ele>866.0</ele><time>2026-04-26T15:46:26.01Z</time></trkpt><trkpt lat="46.2435387" lon="11.3411616"><ele>868.0</ele><time>2026-04-26T15:46:27.01Z</time></trkpt><trkpt lat="46.2436689" lon="11.3410166"><ele>870.0</ele><time>2026-04-26T15:46:28.01Z</time></trkpt><trkpt lat="46.2438112" lon="11.3408983"><ele>872.0</ele><time>2026-04-26T15:46:29.01Z</time></trkpt><trkpt lat="46.2439715" lon="11.3408214"><ele>872.0</ele><time>2026-04-26T15:46:30.01Z</time></trkpt><trkpt lat="46.244125" lon="11.3407687"><ele>872.0</ele><time>2026-04-26T15:46:31.011Z</time></trkpt><trkpt lat="46.2442764" lon="11.3407195"><ele>872.0</ele><time>2026-04-26T15:46:32.01Z</time></trkpt><trkpt lat="46.2444187" lon="11.3406589"><ele>872.0</ele><time>2026-04-26T15:46:33.011Z</time></trkpt><trkpt lat="46.2445509" lon="11.3405813"><ele>872.0</ele><time>2026-04-26T15:46:34.01Z</time></trkpt><trkpt lat="46.2446766" lon="11.3404662"><ele>872.0</ele><time>2026-04-26T15:46:35.01Z</time></trkpt><trkpt lat="46.2447907" lon="11.3403041"><ele>870.3333333333334</ele><time>2026-04-26T15:46:36.01Z</time></trkpt><trkpt lat="46.2448956" lon="11.3401275"><ele>868.6666666666667</ele><time>2026-04-26T15:46:37.01Z</time></trkpt><trkpt lat="46.2449979" lon="11.3399384"><ele>867.0</ele><time>2026-04-26T15:46:38.011Z</time></trkpt><trkpt lat="46.2451057" lon="11.3397502"><ele>881.0</ele><time>2026-04-26T15:46:39.01Z</time></trkpt><trkpt lat="46.2452272" lon="11.3395677"><ele>895.0</ele><time>2026-04-26T15:46:40.01Z</time></trkpt><trkpt lat="46.2453605" lon="11.3393911"><ele>909.0</ele><time>2026-04-26T15:46:41.01Z</time></trkpt><trkpt lat="46.2455058" lon="11.3392357"><ele>908.3333333333333</ele><time>2026-04-26T15:46:42.01Z</time></trkpt><trkpt lat="46.2456713" lon="11.339108"><ele>907.6666666666666</ele><time>2026-04-26T15:46:43.01Z</time></trkpt><trkpt lat="46.2458301" lon="11.3389745"><ele>907.0</ele><time>2026-04-26T15:46:44.01Z</time></trkpt><trkpt lat="46.2459948" lon="11.3388389"><ele>907.0</ele><time>2026-04-26T15:46:45.01Z</time></trkpt><trkpt lat="46.2461446" lon="11.3387085"><ele>907.0</ele><time>2026-04-26T15:46:46.01Z</time></trkpt><trkpt lat="46.2462949" lon="11.3385804"><ele>907.0</ele><time>2026-04-26T15:46:47.01Z</time></trkpt><trkpt lat="46.2464371" lon="11.3384636"><ele>899.25</ele><time>2026-04-26T15:46:48.01Z</time></trkpt><trkpt lat="46.2465733" lon="11.3383558"><ele>891.5</ele><time>2026-04-26T15:46:49.01Z</time></trkpt><trkpt lat="46.2467077" lon="11.3382732"><ele>883.75</ele><time>2026-04-26T15:46:50.011Z</time></trkpt><trkpt lat="46.246839" lon="11.3382372"><ele>876.0</ele><time>2026-04-26T15:46:51.01Z</time></trkpt><trkpt lat="46.2469798" lon="11.3382474"><ele>876.0</ele><time>2026-04-26T15:46:52.01Z</time></trkpt><trkpt lat="46.2471102" lon="11.3382773"><ele>876.0</ele><time>2026-04-26T15:46:53.01Z</time></trkpt><trkpt lat="46.2472346" lon="11.3383047"><ele>876.0</ele><time>2026-04-26T15:46:54.01Z</time></trkpt><trkpt lat="46.2473472" lon="11.3383077"><ele>876.0</ele><time>2026-04-26T15:46:55.01Z</time></trkpt><trkpt lat="46.2474668" lon="11.3382619"><ele>871.75</ele><time>2026-04-26T15:46:56.01Z</time></trkpt><trkpt lat="46.2475748" lon="11.3381744"><ele>867.5</ele><time>2026-04-26T15:46:57.01Z</time></trkpt><trkpt lat="46.2476863" lon="11.3380697"><ele>863.25</ele><time>2026-04-26T15:46:58.01Z</time></trkpt><trkpt lat="46.2478074" lon="11.3379549"><ele>859.0</ele><time>2026-04-26T15:46:59.01Z</time></trkpt><trkpt lat="46.2479396" lon="11.3378671"><ele>860.0</ele><time>2026-04-26T15:47:00.01Z</time></trkpt><trkpt lat="46.2480772" lon="11.3378017"><ele>861.0</ele><time>2026-04-26T15:47:01.01Z</time></trkpt><trkpt lat="46.2482104" lon="11.3377426"><ele>862.0</ele><time>2026-04-26T15:47:02.01Z</time></trkpt><trkpt lat="46.2483368" lon="11.3376931"><ele>863.0</ele><time>2026-04-26T15:47:03.01Z</time></trkpt><trkpt lat="46.2484497" lon="11.3376404"><ele>863.0000000000001</ele><time>2026-04-26T15:47:04.01Z</time></trkpt><trkpt lat="46.2485429" lon="11.3375816"><ele>863.0</ele><time>2026-04-26T15:47:05.01Z</time></trkpt><trkpt lat="46.2486095" lon="11.337501"><ele>863.0</ele><time>2026-04-26T15:47:06.01Z</time></trkpt><trkpt lat="46.2486412" lon="11.3373968"><ele>863.0</ele><time>2026-04-26T15:47:07.01Z</time></trkpt><trkpt lat="46.2486516" lon="11.3372718"><ele>863.0000000000001</ele><time>2026-04-26T15:47:08.01Z</time></trkpt><trkpt lat="46.2486276" lon="11.3371411"><ele>863.0</ele><time>2026-04-26T15:47:09.01Z</time></trkpt><trkpt lat="46.2485791" lon="11.3370121"><ele>864.25</ele><time>2026-04-26T15:47:10.01Z</time></trkpt><trkpt lat="46.2485064" lon="11.3368875"><ele>865.5</ele><time>2026-04-26T15:47:11.01Z</time></trkpt><trkpt lat="46.2484071" lon="11.336755"><ele>866.75</ele><time>2026-04-26T15:47:12.01Z</time></trkpt><trkpt lat="46.2483033" lon="11.3366154"><ele>868.0</ele><time>2026-04-26T15:47:13.01Z</time></trkpt><trkpt lat="46.2481892" lon="11.3364717"><ele>876.3333333333333</ele><time>2026-04-26T15:47:14.01Z</time></trkpt><trkpt lat="46.2480695" lon="11.3363227"><ele>884.6666666666667</ele><time>2026-04-26T15:47:15.01Z</time></trkpt><trkpt lat="46.2479452" lon="11.3361754"><ele>893.0</ele><time>2026-04-26T15:47:16.01Z</time></trkpt><trkpt lat="46.2478216" lon="11.3360346"><ele>893.0</ele><time>2026-04-26T15:47:17.01Z</time></trkpt><trkpt lat="46.2477079" lon="11.3359019"><ele>893.0</ele><time>2026-04-26T15:47:18.01Z</time></trkpt><trkpt lat="46.2476034" lon="11.3357812"><ele>893.0</ele><time>2026-04-26T15:47:19.01Z</time></trkpt><trkpt lat="46.2475069" lon="11.3356692"><ele>893.0</ele><time>2026-04-26T15:47:20.01Z</time></trkpt><trkpt lat="46.2474315" lon="11.3355543"><ele>891.5999999999999</ele><time>2026-04-26T15:47:21.01Z</time></trkpt><trkpt lat="46.247397" lon="11.3354218"><ele>890.1999999999999</ele><time>2026-04-26T15:47:22.01Z</time></trkpt><trkpt lat="46.2473991" lon="11.3352768"><ele>888.8</ele><time>2026-04-26T15:47:23.01Z</time></trkpt><trkpt lat="46.2474361" lon="11.335123"><ele>887.4</ele><time>2026-04-26T15:47:24.01Z</time></trkpt><trkpt lat="46.2474906" lon="11.3349568"><ele>886.0</ele><time>2026-04-26T15:47:25.01Z</time></trkpt><trkpt lat="46.2475406" lon="11.334783"><ele>886.5</ele><time>2026-04-26T15:47:26.01Z</time></trkpt><trkpt lat="46.2476033" lon="11.3345999"><ele>887.0</ele><time>2026-04-26T15:47:27.01Z</time></trkpt><trkpt lat="46.2476561" lon="11.3344045"><ele>887.5</ele><time>2026-04-26T15:47:28.01Z</time></trkpt><trkpt lat="46.2477155" lon="11.3342003"><ele>888.0</ele><time>2026-04-26T15:47:29.01Z</time></trkpt><trkpt lat="46.2477677" lon="11.334004"><ele>887.75</ele><time>2026-04-26T15:47:30.01Z</time></trkpt><trkpt lat="46.247803" lon="11.333801"><ele>887.5</ele><time>2026-04-26T15:47:31.01Z</time></trkpt><trkpt lat="46.2478215" lon="11.3336028"><ele>887.25</ele><time>2026-04-26T15:47:32.01Z</time></trkpt><trkpt lat="46.2478143" lon="11.3334185"><ele>887.0</ele><time>2026-04-26T15:47:33.01Z</time></trkpt><trkpt lat="46.2477701" lon="11.3332455"><ele>887.0</ele><time>2026-04-26T15:47:34.01Z</time></trkpt><trkpt lat="46.247697" lon="11.3330907"><ele>887.0</ele><time>2026-04-26T15:47:35.01Z</time></trkpt><trkpt lat="46.2476032" lon="11.3329466"><ele>887.0</ele><time>2026-04-26T15:47:36.011Z</time></trkpt><trkpt lat="46.2475019" lon="11.3328113"><ele>887.0</ele><time>2026-04-26T15:47:37.01Z</time></trkpt><trkpt lat="46.2473755" lon="11.3327068"><ele>882.3333333333334</ele><time>2026-04-26T15:47:38.01Z</time></trkpt><trkpt lat="46.2472209" lon="11.3326401"><ele>877.6666666666667</ele><time>2026-04-26T15:47:39.01Z</time></trkpt><trkpt lat="46.2470544" lon="11.3325974"><ele>873.0</ele><time>2026-04-26T15:47:40.01Z</time></trkpt><trkpt lat="46.2468778" lon="11.3325707"><ele>873.0</ele><time>2026-04-26T15:47:41.01Z</time></trkpt><trkpt lat="46.2466953" lon="11.3325377"><ele>873.0</ele><time>2026-04-26T15:47:42.01Z</time></trkpt><trkpt lat="46.246513" lon="11.3324931"><ele>873.0</ele><time>2026-04-26T15:47:43.01Z</time></trkpt><trkpt lat="46.2463309" lon="11.3324248"><ele>867.0</ele><time>2026-04-26T15:47:44.01Z</time></trkpt><trkpt lat="46.2461461" lon="11.332328"><ele>861.0</ele><time>2026-04-26T15:47:45.01Z</time></trkpt><trkpt lat="46.2459619" lon="11.3322108"><ele>855.0</ele><time>2026-04-26T15:47:46.01Z</time></trkpt><trkpt lat="46.2457825" lon="11.3320832"><ele>864.0</ele><time>2026-04-26T15:47:47.01Z</time></trkpt><trkpt lat="46.245601" lon="11.3319514"><ele>873.0</ele><time>2026-04-26T15:47:48.01Z</time></trkpt><trkpt lat="46.2454147" lon="11.3318293"><ele>882.0</ele><time>2026-04-26T15:47:49.01Z</time></trkpt><trkpt lat="46.2452331" lon="11.331706"><ele>882.0</ele><time>2026-04-26T15:47:50.01Z</time></trkpt><trkpt lat="46.2450576" lon="11.331571"><ele>882.0</ele><time>2026-04-26T15:47:51.011Z</time></trkpt><trkpt lat="46.2448969" lon="11.3314261"><ele>882.0</ele><time>2026-04-26T15:47:52.01Z</time></trkpt><trkpt lat="46.2447545" lon="11.3312884"><ele>877.75</ele><time>2026-04-26T15:47:53.01Z</time></trkpt><trkpt lat="46.2446196" lon="11.3311738"><ele>873.5</ele><time>2026-04-26T15:47:54.01Z</time></trkpt><trkpt lat="46.2444894" lon="11.3310973"><ele>869.25</ele><time>2026-04-26T15:47:55.01Z</time></trkpt><trkpt lat="46.2443677" lon="11.3310709"><ele>865.0</ele><time>2026-04-26T15:47:56.01Z</time></trkpt><trkpt lat="46.2442331" lon="11.3310766"><ele>865.0</ele><time>2026-04-26T15:47:57.01Z</time></trkpt><trkpt lat="46.2440891" lon="11.3311153"><ele>865.0</ele><time>2026-04-26T15:47:58.01Z</time></trkpt><trkpt lat="46.2439407" lon="11.3311609"><ele>865.0</ele><time>2026-04-26T15:47:59.01Z</time></trkpt><trkpt lat="46.243808" lon="11.3311783"><ele>865.0</ele><time>2026-04-26T15:48:00.01Z</time></trkpt><trkpt lat="46.2436902" lon="11.3311548"><ele>873.0</ele><time>2026-04-26T15:48:01.01Z</time></trkpt><trkpt lat="46.2435931" lon="11.3310886"><ele>881.0</ele><time>2026-04-26T15:48:02.01Z</time></trkpt><trkpt lat="46.2435059" lon="11.3309739"><ele>889.0</ele><time>2026-04-26T15:48:03.01Z</time></trkpt><trkpt lat="46.2434408" lon="11.3308265"><ele>897.0</ele><time>2026-04-26T15:48:04.011Z</time></trkpt><trkpt lat="46.2433858" lon="11.3306522"><ele>890.3333333333333</ele><time>2026-04-26T15:48:05.01Z</time></trkpt><trkpt lat="46.2433287" lon="11.3304521"><ele>883.6666666666666</ele><time>2026-04-26T15:48:06.01Z</time></trkpt><trkpt lat="46.2432649" lon="11.3302343"><ele>877.0</ele><time>2026-04-26T15:48:07.01Z</time></trkpt><trkpt lat="46.2431996" lon="11.3300222"><ele>877.0</ele><time>2026-04-26T15:48:08.01Z</time></trkpt><trkpt lat="46.243132" lon="11.3298075"><ele>877.0</ele><time>2026-04-26T15:48:09.01Z</time></trkpt><trkpt lat="46.243058" lon="11.3295864"><ele>877.0</ele><time>2026-04-26T15:48:10.01Z</time></trkpt><trkpt lat="46.2429863" lon="11.3293651"><ele>886.3333333333333</ele><time>2026-04-26T15:48:11.01Z</time></trkpt><trkpt lat="46.2429261" lon="11.3291641"><ele>895.6666666666667</ele><time>2026-04-26T15:48:12.01Z</time></trkpt><trkpt lat="46.2428847" lon="11.3289486"><ele>905.0</ele><time>2026-04-26T15:48:13.01Z</time></trkpt><trkpt lat="46.2428681" lon="11.3287415"><ele>905.0</ele><time>2026-04-26T15:48:14.01Z</time></trkpt><trkpt lat="46.2428609" lon="11.3285476"><ele>905.0</ele><time>2026-04-26T15:48:15.01Z</time></trkpt><trkpt lat="46.2428417" lon="11.3283575"><ele>905.0</ele><time>2026-04-26T15:48:16.01Z</time></trkpt><trkpt lat="46.2428096" lon="11.3281975"><ele>905.0</ele><time>2026-04-26T15:48:17.01Z</time></trkpt><trkpt lat="46.2427411" lon="11.3280417"><ele>896.3333333333334</ele><time>2026-04-26T15:48:18.01Z</time></trkpt><trkpt lat="46.2426444" lon="11.3279074"><ele>887.6666666666667</ele><time>2026-04-26T15:48:19.01Z</time></trkpt><trkpt lat="46.2425273" lon="11.3277619"><ele>879.0</ele><time>2026-04-26T15:48:20.01Z</time></trkpt><trkpt lat="46.2423985" lon="11.3276127"><ele>882.6666666666667</ele><time>2026-04-26T15:48:21.01Z</time></trkpt><trkpt lat="46.2422732" lon="11.3274362"><ele>886.3333333333334</ele><time>2026-04-26T15:48:22.01Z</time></trkpt><trkpt lat="46.2421608" lon="11.3272262"><ele>890.0</ele><time>2026-04-26T15:48:23.01Z</time></trkpt><trkpt lat="46.2420561" lon="11.3270138"><ele>890.0</ele><time>2026-04-26T15:48:24.01Z</time></trkpt><trkpt lat="46.2419552" lon="11.3268101"><ele>890.0</ele><time>2026-04-26T15:48:25.01Z</time></trkpt><trkpt lat="46.2418487" lon="11.3266503"><ele>890.0</ele><time>2026-04-26T15:48:26.01Z</time></trkpt><trkpt lat="46.2417306" lon="11.3265098"><ele>890.0</ele><time>2026-04-26T15:48:27.01Z</time></trkpt><trkpt lat="46.2416081" lon="11.3264038"><ele>890.0</ele><time>2026-04-26T15:48:28.01Z</time></trkpt><trkpt lat="46.2414866" lon="11.3263102"><ele>890.0</ele><time>2026-04-26T15:48:29.01Z</time></trkpt><trkpt lat="46.2413692" lon="11.3262109"><ele>890.0</ele><time>2026-04-26T15:48:30.01Z</time></trkpt><trkpt lat="46.2412803" lon="11.3260783"><ele>891.25</ele><time>2026-04-26T15:48:31.01Z</time></trkpt><trkpt lat="46.2412096" lon="11.3259118"><ele>892.5</ele><time>2026-04-26T15:48:32.01Z</time></trkpt><trkpt lat="46.2411602" lon="11.3257187"><ele>893.75</ele><time>2026-04-26T15:48:33.01Z</time></trkpt><trkpt lat="46.2411259" lon="11.3255206"><ele>895.0</ele><time>2026-04-26T15:48:34.01Z</time></trkpt><trkpt lat="46.2410809" lon="11.3253355"><ele>890.5</ele><time>2026-04-26T15:48:35.01Z</time></trkpt><trkpt lat="46.241023" lon="11.3251729"><ele>886.0</ele><time>2026-04-26T15:48:36.01Z</time></trkpt><trkpt lat="46.2409482" lon="11.3250384"><ele>881.5</ele><time>2026-04-26T15:48:37.01Z</time></trkpt><trkpt lat="46.240846" lon="11.3249257"><ele>877.0</ele><time>2026-04-26T15:48:38.01Z</time></trkpt><trkpt lat="46.2407257" lon="11.3248543"><ele>877.75</ele><time>2026-04-26T15:48:39.01Z</time></trkpt><trkpt lat="46.2405937" lon="11.3248102"><ele>878.5</ele><time>2026-04-26T15:48:40.01Z</time></trkpt><trkpt lat="46.2404616" lon="11.3247756"><ele>879.25</ele><time>2026-04-26T15:48:41.01Z</time></trkpt><trkpt lat="46.2403338" lon="11.3247423"><ele>880.0</ele><time>2026-04-26T15:48:42.01Z</time></trkpt><trkpt lat="46.2402156" lon="11.3247025"><ele>875.0</ele><time>2026-04-26T15:48:43.011Z</time></trkpt><trkpt lat="46.2401006" lon="11.3246667"><ele>870.0</ele><time>2026-04-26T15:48:44.01Z</time></trkpt><trkpt lat="46.2399854" lon="11.3246416"><ele>865.0</ele><time>2026-04-26T15:48:45.01Z</time></trkpt><trkpt lat="46.2398726" lon="11.3246205"><ele>860.0</ele><time>2026-04-26T15:48:46.01Z</time></trkpt><trkpt lat="46.2397555" lon="11.3246193"><ele>863.0</ele><time>2026-04-26T15:48:47.01Z</time></trkpt><trkpt lat="46.2396342" lon="11.3246408"><ele>866.0</ele><time>2026-04-26T15:48:48.01Z</time></trkpt><trkpt lat="46.2395155" lon="11.3246766"><ele>869.0</ele><time>2026-04-26T15:48:49.01Z</time></trkpt><trkpt lat="46.2393947" lon="11.3247113"><ele>872.0</ele><time>2026-04-26T15:48:50.011Z</time></trkpt><trkpt lat="46.2392772" lon="11.3247517"><ele>872.0</ele><time>2026-04-26T15:48:51.01Z</time></trkpt><trkpt lat="46.2391599" lon="11.3247896"><ele>872.0</ele><time>2026-04-26T15:48:52.01Z</time></trkpt><trkpt lat="46.2390405" lon="11.3248297"><ele>872.0</ele><time>2026-04-26T15:48:53.01Z</time></trkpt><trkpt lat="46.238919" lon="11.3248586"><ele>872.0</ele><time>2026-04-26T15:48:54.01Z</time></trkpt><trkpt lat="46.2387923" lon="11.3248798"><ele>872.5</ele><time>2026-04-26T15:48:55.01Z</time></trkpt><trkpt lat="46.23866" lon="11.3248837"><ele>873.0</ele><time>2026-04-26T15:48:56.01Z</time></trkpt><trkpt lat="46.2385283" lon="11.3248615"><ele>873.5</ele><time>2026-04-26T15:48:57.01Z</time></trkpt><trkpt lat="46.2384012" lon="11.324817"><ele>874.0</ele><time>2026-04-26T15:48:58.01Z</time></trkpt><trkpt lat="46.2382721" lon="11.32476"><ele>870.0</ele><time>2026-04-26T15:48:59.01Z</time></trkpt><trkpt lat="46.2381371" lon="11.3247087"><ele>866.0</ele><time>2026-04-26T15:49:00.01Z</time></trkpt><trkpt lat="46.2379997" lon="11.3246552"><ele>862.0</ele><time>2026-04-26T15:49:01.01Z</time></trkpt><trkpt lat="46.2378649" lon="11.3245976"><ele>858.0</ele><time>2026-04-26T15:49:02.01Z</time></trkpt><trkpt lat="46.2377318" lon="11.3245413"><ele>858.0</ele><time>2026-04-26T15:49:03.01Z</time></trkpt><trkpt lat="46.2375973" lon="11.3244905"><ele>858.0</ele><time>2026-04-26T15:49:04.01Z</time></trkpt><trkpt lat="46.2374629" lon="11.3244412"><ele>858.0</ele><time>2026-04-26T15:49:05.01Z</time></trkpt><trkpt lat="46.2373282" lon="11.3243908"><ele>858.0</ele><time>2026-04-26T15:49:06.01Z</time></trkpt><trkpt lat="46.2371904" lon="11.3243416"><ele>860.75</ele><time>2026-04-26T15:49:07.01Z</time></trkpt><trkpt lat="46.2370567" lon="11.3242756"><ele>863.5</ele><time>2026-04-26T15:49:08.01Z</time></trkpt><trkpt lat="46.2369257" lon="11.3241802"><ele>866.25</ele><time>2026-04-26T15:49:09.01Z</time></trkpt><trkpt lat="46.2367943" lon="11.3240629"><ele>869.0</ele><time>2026-04-26T15:49:10.01Z</time></trkpt><trkpt lat="46.2366738" lon="11.3239475"><ele>864.5</ele><time>2026-04-26T15:49:11.01Z</time></trkpt><trkpt lat="46.236548" lon="11.3238432"><ele>860.0</ele><time>2026-04-26T15:49:12.011Z</time></trkpt><trkpt lat="46.2364179" lon="11.3237609"><ele>855.5</ele><time>2026-04-26T15:49:13.01Z</time></trkpt><trkpt lat="46.236278" lon="11.3237046"><ele>851.0</ele><time>2026-04-26T15:49:14.01Z</time></trkpt><trkpt lat="46.2361255" lon="11.3236867"><ele>851.0</ele><time>2026-04-26T15:49:15.01Z</time></trkpt><trkpt lat="46.235957" lon="11.3236845"><ele>851.0</ele><time>2026-04-26T15:49:16.01Z</time></trkpt><trkpt lat="46.2357838" lon="11.3236906"><ele>851.0</ele><time>2026-04-26T15:49:17.01Z</time></trkpt><trkpt lat="46.235611" lon="11.3236934"><ele>842.3333333333334</ele><time>2026-04-26T15:49:18.01Z</time></trkpt><trkpt lat="46.2354499" lon="11.323699"><ele>833.6666666666667</ele><time>2026-04-26T15:49:19.01Z</time></trkpt><trkpt lat="46.235293" lon="11.32371"><ele>825.0</ele><time>2026-04-26T15:49:20.01Z</time></trkpt><trkpt lat="46.2351419" lon="11.3237386"><ele>825.0</ele><time>2026-04-26T15:49:21.01Z</time></trkpt><trkpt lat="46.2349933" lon="11.3237933"><ele>825.0</ele><time>2026-04-26T15:49:22.01Z</time></trkpt><trkpt lat="46.2348484" lon="11.3238933"><ele>825.0</ele><time>2026-04-26T15:49:23.01Z</time></trkpt><trkpt lat="46.2346997" lon="11.3240253"><ele>828.0</ele><time>2026-04-26T15:49:24.01Z</time></trkpt><trkpt lat="46.2345597" lon="11.3241768"><ele>831.0</ele><time>2026-04-26T15:49:25.01Z</time></trkpt><trkpt lat="46.2344147" lon="11.3243397"><ele>834.0</ele><time>2026-04-26T15:49:26.01Z</time></trkpt><trkpt lat="46.2342745" lon="11.3245179"><ele>834.0</ele><time>2026-04-26T15:49:27.01Z</time></trkpt><trkpt lat="46.2341425" lon="11.3247123"><ele>834.0</ele><time>2026-04-26T15:49:28.01Z</time></trkpt><trkpt lat="46.234024" lon="11.3249138"><ele>834.0</ele><time>2026-04-26T15:49:29.01Z</time></trkpt><trkpt lat="46.2339155" lon="11.3251104"><ele>841.0</ele><time>2026-04-26T15:49:30.01Z</time></trkpt><trkpt lat="46.2337995" lon="11.3252915"><ele>848.0</ele><time>2026-04-26T15:49:31.01Z</time></trkpt><trkpt lat="46.233672" lon="11.3254377"><ele>855.0</ele><time>2026-04-26T15:49:32.01Z</time></trkpt><trkpt lat="46.2335412" lon="11.3255432"><ele>859.25</ele><time>2026-04-26T15:49:33.01Z</time></trkpt><trkpt lat="46.2334" lon="11.3256448"><ele>863.5</ele><time>2026-04-26T15:49:34.01Z</time></trkpt><trkpt lat="46.233259" lon="11.3257284"><ele>867.75</ele><time>2026-04-26T15:49:35.01Z</time></trkpt><trkpt lat="46.2331355" lon="11.3258048"><ele>872.0</ele><time>2026-04-26T15:49:36.01Z</time></trkpt><trkpt lat="46.2330308" lon="11.3258451"><ele>877.4000000000001</ele><time>2026-04-26T15:49:37.01Z</time></trkpt><trkpt lat="46.232935" lon="11.3258362"><ele>882.8000000000001</ele><time>2026-04-26T15:49:38.01Z</time></trkpt><trkpt lat="46.232857" lon="11.3257773"><ele>888.2</ele><time>2026-04-26T15:49:39.01Z</time></trkpt><trkpt lat="46.2327995" lon="11.3256771"><ele>893.6</ele><time>2026-04-26T15:49:40.01Z</time></trkpt><trkpt lat="46.2327701" lon="11.325554"><ele>899.0</ele><time>2026-04-26T15:49:41.01Z</time></trkpt><trkpt lat="46.2327725" lon="11.3253911"><ele>900.25</ele><time>2026-04-26T15:49:42.01Z</time></trkpt><trkpt lat="46.2328179" lon="11.3252234"><ele>901.5</ele><time>2026-04-26T15:49:43.01Z</time></trkpt><trkpt lat="46.2328758" lon="11.3250489"><ele>902.75</ele><time>2026-04-26T15:49:44.01Z</time></trkpt><trkpt lat="46.2329296" lon="11.3248679"><ele>904.0</ele><time>2026-04-26T15:49:45.01Z</time></trkpt><trkpt lat="46.2329746" lon="11.3246763"><ele>904.0</ele><time>2026-04-26T15:49:46.01Z</time></trkpt><trkpt lat="46.2329971" lon="11.3244661"><ele>904.0</ele><time>2026-04-26T15:49:47.01Z</time></trkpt><trkpt lat="46.2330074" lon="11.3242536"><ele>904.0</ele><time>2026-04-26T15:49:48.01Z</time></trkpt><trkpt lat="46.2329976" lon="11.3240271"><ele>901.6666666666666</ele><time>2026-04-26T15:49:49.01Z</time></trkpt><trkpt lat="46.2329715" lon="11.3237894"><ele>899.3333333333333</ele><time>2026-04-26T15:49:50.01Z</time></trkpt><trkpt lat="46.2329365" lon="11.3235484"><ele>897.0</ele><time>2026-04-26T15:49:51.01Z</time></trkpt><trkpt lat="46.2328998" lon="11.3232961"><ele>892.0</ele><time>2026-04-26T15:49:52.01Z</time></trkpt><trkpt lat="46.232856" lon="11.3230328"><ele>887.0</ele><time>2026-04-26T15:49:53.01Z</time></trkpt><trkpt lat="46.2328099" lon="11.3227724"><ele>882.0</ele><time>2026-04-26T15:49:54.01Z</time></trkpt><trkpt lat="46.2327685" lon="11.3225232"><ele>882.0</ele><time>2026-04-26T15:49:55.01Z</time></trkpt><trkpt lat="46.2327249" lon="11.3222861"><ele>882.0</ele><time>2026-04-26T15:49:56.01Z</time></trkpt><trkpt lat="46.232673" lon="11.3220592"><ele>882.0</ele><time>2026-04-26T15:49:57.01Z</time></trkpt><trkpt lat="46.2326086" lon="11.3218361"><ele>875.0</ele><time>2026-04-26T15:49:58.01Z</time></trkpt><trkpt lat="46.2325358" lon="11.3216238"><ele>868.0</ele><time>2026-04-26T15:49:59.01Z</time></trkpt><trkpt lat="46.2324532" lon="11.3214043"><ele>861.0</ele><time>2026-04-26T15:50:00.01Z</time></trkpt><trkpt lat="46.232367" lon="11.3211858"><ele>867.6666666666667</ele><time>2026-04-26T15:50:01.01Z</time></trkpt><trkpt lat="46.2322849" lon="11.3209728"><ele>874.3333333333334</ele><time>2026-04-26T15:50:02.01Z</time></trkpt><trkpt lat="46.2321917" lon="11.3207687"><ele>881.0</ele><time>2026-04-26T15:50:03.01Z</time></trkpt><trkpt lat="46.2320852" lon="11.3205798"><ele>872.6666666666667</ele><time>2026-04-26T15:50:04.01Z</time></trkpt><trkpt lat="46.2319472" lon="11.3204066"><ele>864.3333333333333</ele><time>2026-04-26T15:50:05.01Z</time></trkpt><trkpt lat="46.2318184" lon="11.3202399"><ele>856.0</ele><time>2026-04-26T15:50:06.01Z</time></trkpt><trkpt lat="46.2316976" lon="11.3200747"><ele>856.0</ele><time>2026-04-26T15:50:07.01Z</time></trkpt><trkpt lat="46.231584" lon="11.3199005"><ele>856.0</ele><time>2026-04-26T15:50:08.01Z</time></trkpt><trkpt lat="46.2314946" lon="11.3197145"><ele>856.0</ele><time>2026-04-26T15:50:09.01Z</time></trkpt><trkpt lat="46.2314199" lon="11.319522"><ele>852.0</ele><time>2026-04-26T15:50:10.01Z</time></trkpt><trkpt lat="46.2313545" lon="11.3193348"><ele>848.0</ele><time>2026-04-26T15:50:11.01Z</time></trkpt><trkpt lat="46.2312764" lon="11.3191845"><ele>844.0</ele><time>2026-04-26T15:50:12.01Z</time></trkpt><trkpt lat="46.2311834" lon="11.3190758"><ele>840.0</ele><time>2026-04-26T15:50:13.01Z</time></trkpt><trkpt lat="46.2310638" lon="11.3190071"><ele>840.0</ele><time>2026-04-26T15:50:14.01Z</time></trkpt><trkpt lat="46.2309462" lon="11.3189736"><ele>840.0</ele><time>2026-04-26T15:50:15.01Z</time></trkpt><trkpt lat="46.2308157" lon="11.3190033"><ele>840.0</ele><time>2026-04-26T15:50:16.01Z</time></trkpt><trkpt lat="46.2306842" lon="11.3190667"><ele>840.0</ele><time>2026-04-26T15:50:17.01Z</time></trkpt><trkpt lat="46.2305503" lon="11.3191467"><ele>837.6666666666667</ele><time>2026-04-26T15:50:18.01Z</time></trkpt><trkpt lat="46.2304082" lon="11.319254"><ele>835.3333333333334</ele><time>2026-04-26T15:50:19.01Z</time></trkpt><trkpt lat="46.230262" lon="11.31936"><ele>833.0</ele><time>2026-04-26T15:50:20.01Z</time></trkpt><trkpt lat="46.2301053" lon="11.3194592"><ele>833.0</ele><time>2026-04-26T15:50:21.011Z</time></trkpt><trkpt lat="46.2299419" lon="11.3195374"><ele>833.0</ele><time>2026-04-26T15:50:22.01Z</time></trkpt><trkpt lat="46.2297652" lon="11.3195985"><ele>833.0</ele><time>2026-04-26T15:50:23.01Z</time></trkpt><trkpt lat="46.229584" lon="11.3196581"><ele>830.0</ele><time>2026-04-26T15:50:24.01Z</time></trkpt><trkpt lat="46.2294045" lon="11.3197215"><ele>827.0</ele><time>2026-04-26T15:50:25.01Z</time></trkpt><trkpt lat="46.2292266" lon="11.3197857"><ele>824.0</ele><time>2026-04-26T15:50:26.01Z</time></trkpt><trkpt lat="46.2290577" lon="11.3198443"><ele>836.25</ele><time>2026-04-26T15:50:27.01Z</time></trkpt><trkpt lat="46.2289007" lon="11.3198919"><ele>848.5</ele><time>2026-04-26T15:50:28.01Z</time></trkpt><trkpt lat="46.2287507" lon="11.3199213"><ele>860.75</ele><time>2026-04-26T15:50:29.01Z</time></trkpt><trkpt lat="46.2286184" lon="11.319919"><ele>873.0</ele><time>2026-04-26T15:50:30.01Z</time></trkpt><trkpt lat="46.2284892" lon="11.3198838"><ele>873.0</ele><time>2026-04-26T15:50:31.01Z</time></trkpt><trkpt lat="46.2283804" lon="11.3197917"><ele>873.0</ele><time>2026-04-26T15:50:32.01Z</time></trkpt><trkpt lat="46.2282934" lon="11.3196809"><ele>873.0</ele><time>2026-04-26T15:50:33.01Z</time></trkpt><trkpt lat="46.2282322" lon="11.3195358"><ele>873.0</ele><time>2026-04-26T15:50:34.01Z</time></trkpt><trkpt lat="46.2281974" lon="11.319371"><ele>868.75</ele><time>2026-04-26T15:50:35.01Z</time></trkpt><trkpt lat="46.2281894" lon="11.3191919"><ele>864.5</ele><time>2026-04-26T15:50:36.01Z</time></trkpt><trkpt lat="46.2282056" lon="11.3189969"><ele>860.25</ele><time>2026-04-26T15:50:37.01Z</time></trkpt><trkpt lat="46.2282439" lon="11.3187944"><ele>856.0</ele><time>2026-04-26T15:50:38.01Z</time></trkpt><trkpt lat="46.2282904" lon="11.3185822"><ele>856.0</ele><time>2026-04-26T15:50:39.01Z</time></trkpt><trkpt lat="46.2283362" lon="11.3183572"><ele>856.0</ele><time>2026-04-26T15:50:40.011Z</time></trkpt><trkpt lat="46.2283858" lon="11.3181254"><ele>856.0</ele><time>2026-04-26T15:50:41.011Z</time></trkpt><trkpt lat="46.2284341" lon="11.3178841"><ele>858.6666666666666</ele><time>2026-04-26T15:50:42.01Z</time></trkpt><trkpt lat="46.2284901" lon="11.3176349"><ele>861.3333333333333</ele><time>2026-04-26T15:50:43.011Z</time></trkpt><trkpt lat="46.2285478" lon="11.3173817"><ele>864.0</ele><time>2026-04-26T15:50:44.01Z</time></trkpt><trkpt lat="46.2286046" lon="11.317124"><ele>865.0</ele><time>2026-04-26T15:50:45.01Z</time></trkpt><trkpt lat="46.2286679" lon="11.3168636"><ele>866.0</ele><time>2026-04-26T15:50:46.01Z</time></trkpt><trkpt lat="46.2287286" lon="11.3166001"><ele>867.0</ele><time>2026-04-26T15:50:47.011Z</time></trkpt><trkpt lat="46.2287844" lon="11.316345"><ele>867.0</ele><time>2026-04-26T15:50:48.01Z</time></trkpt><trkpt lat="46.2288401" lon="11.3160937"><ele>867.0</ele><time>2026-04-26T15:50:49.01Z</time></trkpt><trkpt lat="46.2288976" lon="11.3158529"><ele>867.0</ele><time>2026-04-26T15:50:50.01Z</time></trkpt><trkpt lat="46.2289499" lon="11.3156269"><ele>856.75</ele><time>2026-04-26T15:50:51.01Z</time></trkpt><trkpt lat="46.2289888" lon="11.3154098"><ele>846.5</ele><time>2026-04-26T15:50:52.01Z</time></trkpt><trkpt lat="46.2290106" lon="11.3152044"><ele>836.25</ele><time>2026-04-26T15:50:53.01Z</time></trkpt><trkpt lat="46.2290083" lon="11.3149921"><ele>826.0</ele><time>2026-04-26T15:50:54.01Z</time></trkpt><trkpt lat="46.2289822" lon="11.3147831"><ele>833.3333333333333</ele><time>2026-04-26T15:50:55.01Z</time></trkpt><trkpt lat="46.2289274" lon="11.3145825"><ele>840.6666666666667</ele><time>2026-04-26T15:50:56.01Z</time></trkpt><trkpt lat="46.2288555" lon="11.3143677"><ele>848.0</ele><time>2026-04-26T15:50:57.01Z</time></trkpt><trkpt lat="46.2287755" lon="11.3141563"><ele>848.0</ele><time>2026-04-26T15:50:58.01Z</time></trkpt><trkpt lat="46.2286939" lon="11.3139422"><ele>848.0</ele><time>2026-04-26T15:50:59.01Z</time></trkpt><trkpt lat="46.2286084" lon="11.3137193"><ele>848.0</ele><time>2026-04-26T15:51:00.01Z</time></trkpt><trkpt lat="46.2285211" lon="11.3135083"><ele>841.6666666666667</ele><time>2026-04-26T15:51:01.01Z</time></trkpt><trkpt lat="46.2284223" lon="11.3133223"><ele>835.3333333333333</ele><time>2026-04-26T15:51:02.01Z</time></trkpt><trkpt lat="46.2283149" lon="11.31316"><ele>829.0</ele><time>2026-04-26T15:51:03.01Z</time></trkpt><trkpt lat="46.2282003" lon="11.3130432"><ele>823.5</ele><time>2026-04-26T15:51:04.009Z</time></trkpt><trkpt lat="46.2280633" lon="11.312987"><ele>818.0</ele><time>2026-04-26T15:51:05.009Z</time></trkpt><trkpt lat="46.2279202" lon="11.3129597"><ele>812.5</ele><time>2026-04-26T15:51:06.009Z</time></trkpt><trkpt lat="46.227769" lon="11.3129519"><ele>807.0</ele><time>2026-04-26T15:51:07.009Z</time></trkpt><trkpt lat="46.2276162" lon="11.3129414"><ele>807.0</ele><time>2026-04-26T15:51:08.009Z</time></trkpt><trkpt lat="46.2274557" lon="11.3129284"><ele>807.0</ele><time>2026-04-26T15:51:09.009Z</time></trkpt><trkpt lat="46.2272912" lon="11.3129168"><ele>807.0</ele><time>2026-04-26T15:51:10.009Z</time></trkpt><trkpt lat="46.2271255" lon="11.312898"><ele>807.6666666666667</ele><time>2026-04-26T15:51:11.009Z</time></trkpt><trkpt lat="46.2269642" lon="11.3128821"><ele>808.3333333333334</ele><time>2026-04-26T15:51:12.009Z</time></trkpt><trkpt lat="46.2268127" lon="11.312872"><ele>809.0</ele><time>2026-04-26T15:51:13.009Z</time></trkpt><trkpt lat="46.226669" lon="11.3128795"><ele>809.0</ele><time>2026-04-26T15:51:14.009Z</time></trkpt><trkpt lat="46.2265391" lon="11.3129096"><ele>809.0</ele><time>2026-04-26T15:51:15.009Z</time></trkpt><trkpt lat="46.2264249" lon="11.3129675"><ele>809.0</ele><time>2026-04-26T15:51:16.009Z</time></trkpt><trkpt lat="46.2263283" lon="11.3130452"><ele>809.0</ele><time>2026-04-26T15:51:17.009Z</time></trkpt><trkpt lat="46.2262477" lon="11.3131403"><ele>815.5000000000001</ele><time>2026-04-26T15:51:18.009Z</time></trkpt><trkpt lat="46.2261768" lon="11.3132357"><ele>822.0</ele><time>2026-04-26T15:51:19.009Z</time></trkpt><trkpt lat="46.2261031" lon="11.3133006"><ele>828.5</ele><time>2026-04-26T15:51:20.009Z</time></trkpt><trkpt lat="46.2260289" lon="11.3133294"><ele>835.0</ele><time>2026-04-26T15:51:21.009Z</time></trkpt><trkpt lat="46.225953" lon="11.3133203"><ele>841.5000000000001</ele><time>2026-04-26T15:51:22.009Z</time></trkpt><trkpt lat="46.2258682" lon="11.3132833"><ele>848.0</ele><time>2026-04-26T15:51:23.009Z</time></trkpt><trkpt lat="46.2257678" lon="11.3132218"><ele>848.0</ele><time>2026-04-26T15:51:24.009Z</time></trkpt><trkpt lat="46.2256583" lon="11.3131484"><ele>848.0</ele><time>2026-04-26T15:51:25.009Z</time></trkpt><trkpt lat="46.2255356" lon="11.3131138"><ele>848.0</ele><time>2026-04-26T15:51:26.009Z</time></trkpt><trkpt lat="46.2253951" lon="11.3130965"><ele>848.0</ele><time>2026-04-26T15:51:27.009Z</time></trkpt><trkpt lat="46.2252389" lon="11.3130993"><ele>848.0</ele><time>2026-04-26T15:51:28.009Z</time></trkpt><trkpt lat="46.2250817" lon="11.3131091"><ele>848.0</ele><time>2026-04-26T15:51:29.009Z</time></trkpt><trkpt lat="46.2249198" lon="11.31312"><ele>848.0</ele><time>2026-04-26T15:51:30.009Z</time></trkpt><trkpt lat="46.2247641" lon="11.3131299"><ele>847.2</ele><time>2026-04-26T15:51:31.009Z</time></trkpt><trkpt lat="46.2246294" lon="11.3131218"><ele>846.4</ele><time>2026-04-26T15:51:32.009Z</time></trkpt><trkpt lat="46.2245122" lon="11.3131057"><ele>845.6</ele><time>2026-04-26T15:51:33.009Z</time></trkpt><trkpt lat="46.2244122" lon="11.3130878"><ele>844.8000000000001</ele><time>2026-04-26T15:51:34.009Z</time></trkpt><trkpt lat="46.2243195" lon="11.3130844"><ele>844.0</ele><time>2026-04-26T15:51:35.009Z</time></trkpt><trkpt lat="46.2242309" lon="11.3131199"><ele>844.0</ele><time>2026-04-26T15:51:36.009Z</time></trkpt><trkpt lat="46.2241483" lon="11.3131859"><ele>844.0</ele><time>2026-04-26T15:51:37.009Z</time></trkpt><trkpt lat="46.2240775" lon="11.3132648"><ele>844.0</ele><time>2026-04-26T15:51:38.009Z</time></trkpt><trkpt lat="46.2240019" lon="11.3133529"><ele>844.0</ele><time>2026-04-26T15:51:39.009Z</time></trkpt><trkpt lat="46.2239287" lon="11.3134484"><ele>844.0</ele><time>2026-04-26T15:51:40.009Z</time></trkpt><trkpt lat="46.2238573" lon="11.3135501"><ele>846.0</ele><time>2026-04-26T15:51:41.009Z</time></trkpt><trkpt lat="46.2237776" lon="11.3136531"><ele>848.0</ele><time>2026-04-26T15:51:42.009Z</time></trkpt><trkpt lat="46.223695" lon="11.3137635"><ele>850.0</ele><time>2026-04-26T15:51:43.009Z</time></trkpt><trkpt lat="46.2236147" lon="11.3138853"><ele>852.0</ele><time>2026-04-26T15:51:44.009Z</time></trkpt><trkpt lat="46.2235392" lon="11.3140098"><ele>852.0</ele><time>2026-04-26T15:51:45.009Z</time></trkpt><trkpt lat="46.2234664" lon="11.314138"><ele>852.0</ele><time>2026-04-26T15:51:46.009Z</time></trkpt><trkpt lat="46.2233925" lon="11.3142556"><ele>852.0</ele><time>2026-04-26T15:51:47.009Z</time></trkpt><trkpt lat="46.2233286" lon="11.3143905"><ele>852.0</ele><time>2026-04-26T15:51:48.009Z</time></trkpt><trkpt lat="46.2232706" lon="11.3145356"><ele>852.0</ele><time>2026-04-26T15:51:49.009Z</time></trkpt><trkpt lat="46.2232257" lon="11.3147225"><ele>852.0</ele><time>2026-04-26T15:51:50.009Z</time></trkpt><trkpt lat="46.2231765" lon="11.3149379"><ele>852.0</ele><time>2026-04-26T15:51:51.01Z</time></trkpt><trkpt lat="46.2231239" lon="11.3151676"><ele>855.0</ele><time>2026-04-26T15:51:52.009Z</time></trkpt><trkpt lat="46.2230662" lon="11.3153997"><ele>858.0</ele><time>2026-04-26T15:51:53.009Z</time></trkpt><trkpt lat="46.2230042" lon="11.3156175"><ele>861.0</ele><time>2026-04-26T15:51:54.009Z</time></trkpt><trkpt lat="46.2229452" lon="11.315815"><ele>861.0</ele><time>2026-04-26T15:51:55.009Z</time></trkpt><trkpt lat="46.2229019" lon="11.3159947"><ele>861.0</ele><time>2026-04-26T15:51:56.009Z</time></trkpt><trkpt lat="46.2228573" lon="11.3161544"><ele>861.0</ele><time>2026-04-26T15:51:57.01Z</time></trkpt><trkpt lat="46.2227866" lon="11.3162892"><ele>861.0</ele><time>2026-04-26T15:51:58.009Z</time></trkpt><trkpt lat="46.2226938" lon="11.3164071"><ele>866.5</ele><time>2026-04-26T15:51:59.009Z</time></trkpt><trkpt lat="46.2225848" lon="11.316506"><ele>872.0</ele><time>2026-04-26T15:52:00.009Z</time></trkpt><trkpt lat="46.2224842" lon="11.3166184"><ele>877.5</ele><time>2026-04-26T15:52:01.009Z</time></trkpt><trkpt lat="46.2223922" lon="11.3167406"><ele>883.0</ele><time>2026-04-26T15:52:02.009Z</time></trkpt><trkpt lat="46.2223205" lon="11.3168916"><ele>882.25</ele><time>2026-04-26T15:52:03.009Z</time></trkpt><trkpt lat="46.2222701" lon="11.3170621"><ele>881.5</ele><time>2026-04-26T15:52:04.009Z</time></trkpt><trkpt lat="46.222218" lon="11.3172345"><ele>880.75</ele><time>2026-04-26T15:52:05.009Z</time></trkpt><trkpt lat="46.2221557" lon="11.3173949"><ele>880.0</ele><time>2026-04-26T15:52:06.009Z</time></trkpt><trkpt lat="46.2220756" lon="11.3175332"><ele>880.0</ele><time>2026-04-26T15:52:07.009Z</time></trkpt><trkpt lat="46.2219707" lon="11.3176242"><ele>880.0</ele><time>2026-04-26T15:52:08.009Z</time></trkpt><trkpt lat="46.2218621" lon="11.3176767"><ele>880.0</ele><time>2026-04-26T15:52:09.009Z</time></trkpt><trkpt lat="46.2217441" lon="11.3177098"><ele>880.0</ele><time>2026-04-26T15:52:10.009Z</time></trkpt><trkpt lat="46.221603" lon="11.3177441"><ele>876.0</ele><time>2026-04-26T15:52:11.009Z</time></trkpt><trkpt lat="46.2214517" lon="11.317774"><ele>872.0</ele><time>2026-04-26T15:52:12.009Z</time></trkpt><trkpt lat="46.2212931" lon="11.3178128"><ele>868.0</ele><time>2026-04-26T15:52:13.009Z</time></trkpt><trkpt lat="46.2211351" lon="11.3178533"><ele>868.0</ele><time>2026-04-26T15:52:14.009Z</time></trkpt><trkpt lat="46.2209737" lon="11.3179007"><ele>868.0</ele><time>2026-04-26T15:52:15.009Z</time></trkpt><trkpt lat="46.2208075" lon="11.3179448"><ele>868.0</ele><time>2026-04-26T15:52:16.01Z</time></trkpt><trkpt lat="46.2206453" lon="11.3179822"><ele>865.5</ele><time>2026-04-26T15:52:17.009Z</time></trkpt><trkpt lat="46.2204945" lon="11.3180153"><ele>863.0</ele><time>2026-04-26T15:52:18.009Z</time></trkpt><trkpt lat="46.2203497" lon="11.3180499"><ele>860.5</ele><time>2026-04-26T15:52:19.009Z</time></trkpt><trkpt lat="46.2202201" lon="11.3180911"><ele>858.0</ele><time>2026-04-26T15:52:20.009Z</time></trkpt><trkpt lat="46.2201082" lon="11.3181512"><ele>861.4</ele><time>2026-04-26T15:52:21.009Z</time></trkpt><trkpt lat="46.2200174" lon="11.3182275"><ele>864.8</ele><time>2026-04-26T15:52:22.009Z</time></trkpt><trkpt lat="46.2199521" lon="11.3183444"><ele>868.2</ele><time>2026-04-26T15:52:23.01Z</time></trkpt><trkpt lat="46.2198952" lon="11.3184833"><ele>871.6</ele><time>2026-04-26T15:52:24.01Z</time></trkpt><trkpt lat="46.2198288" lon="11.318615"><ele>875.0</ele><time>2026-04-26T15:52:25.009Z</time></trkpt><trkpt lat="46.219727" lon="11.3187172"><ele>875.0</ele><time>2026-04-26T15:52:26.009Z</time></trkpt><trkpt lat="46.2196176" lon="11.3187824"><ele>875.0</ele><time>2026-04-26T15:52:27.009Z</time></trkpt><trkpt lat="46.2194991" lon="11.3188386"><ele>875.0</ele><time>2026-04-26T15:52:28.009Z</time></trkpt><trkpt lat="46.2193807" lon="11.3189188"><ele>875.0</ele><time>2026-04-26T15:52:29.009Z</time></trkpt><trkpt lat="46.2192779" lon="11.3190189"><ele>884.0</ele><time>2026-04-26T15:52:30.009Z</time></trkpt><trkpt lat="46.2191698" lon="11.3191048"><ele>893.0</ele><time>2026-04-26T15:52:31.009Z</time></trkpt><trkpt lat="46.2190483" lon="11.319151"><ele>902.0</ele><time>2026-04-26T15:52:32.009Z</time></trkpt><trkpt lat="46.218916" lon="11.3191411"><ele>911.0</ele><time>2026-04-26T15:52:33.009Z</time></trkpt><trkpt lat="46.2187813" lon="11.319084"><ele>912.0</ele><time>2026-04-26T15:52:34.009Z</time></trkpt><trkpt lat="46.2186443" lon="11.3190286"><ele>913.0</ele><time>2026-04-26T15:52:35.009Z</time></trkpt><trkpt lat="46.2184927" lon="11.3189831"><ele>914.0</ele><time>2026-04-26T15:52:36.009Z</time></trkpt><trkpt lat="46.2183361" lon="11.3189727"><ele>914.0</ele><time>2026-04-26T15:52:37.009Z</time></trkpt><trkpt lat="46.2181765" lon="11.319022"><ele>914.0</ele><time>2026-04-26T15:52:38.009Z</time></trkpt><trkpt lat="46.2179999" lon="11.3190839"><ele>914.0</ele><time>2026-04-26T15:52:39.009Z</time></trkpt><trkpt lat="46.2178193" lon="11.319144"><ele>913.3333333333334</ele><time>2026-04-26T15:52:40.009Z</time></trkpt><trkpt lat="46.2176292" lon="11.3192123"><ele>912.6666666666667</ele><time>2026-04-26T15:52:41.009Z</time></trkpt><trkpt lat="46.2174319" lon="11.3192841"><ele>912.0</ele><time>2026-04-26T15:52:42.009Z</time></trkpt><trkpt lat="46.2172375" lon="11.3193474"><ele>911.6666666666667</ele><time>2026-04-26T15:52:43.009Z</time></trkpt><trkpt lat="46.217052" lon="11.3194146"><ele>911.3333333333334</ele><time>2026-04-26T15:52:44.009Z</time></trkpt><trkpt lat="46.2168684" lon="11.3194992"><ele>911.0</ele><time>2026-04-26T15:52:45.009Z</time></trkpt><trkpt lat="46.2166912" lon="11.3196081"><ele>919.3333333333334</ele><time>2026-04-26T15:52:46.009Z</time></trkpt><trkpt lat="46.2165183" lon="11.3197476"><ele>927.6666666666667</ele><time>2026-04-26T15:52:47.009Z</time></trkpt><trkpt lat="46.2163516" lon="11.3198836"><ele>936.0</ele><time>2026-04-26T15:52:48.009Z</time></trkpt><trkpt lat="46.2161812" lon="11.3200164"><ele>936.0</ele><time>2026-04-26T15:52:49.009Z</time></trkpt><trkpt lat="46.2160074" lon="11.3201274"><ele>936.0</ele><time>2026-04-26T15:52:50.009Z</time></trkpt><trkpt lat="46.2158295" lon="11.3201929"><ele>936.0</ele><time>2026-04-26T15:52:51.009Z</time></trkpt><trkpt lat="46.2156541" lon="11.3202263"><ele>932.75</ele><time>2026-04-26T15:52:52.01Z</time></trkpt><trkpt lat="46.2154911" lon="11.3202588"><ele>929.5</ele><time>2026-04-26T15:52:53.009Z</time></trkpt><trkpt lat="46.2153456" lon="11.3202893"><ele>926.25</ele><time>2026-04-26T15:52:54.009Z</time></trkpt><trkpt lat="46.2152152" lon="11.3203495"><ele>923.0</ele><time>2026-04-26T15:52:55.009Z</time></trkpt><trkpt lat="46.2151141" lon="11.3204227"><ele>923.0</ele><time>2026-04-26T15:52:56.009Z</time></trkpt><trkpt lat="46.215022" lon="11.3205117"><ele>923.0</ele><time>2026-04-26T15:52:57.009Z</time></trkpt><trkpt lat="46.2149507" lon="11.3206286"><ele>923.0</ele><time>2026-04-26T15:52:58.009Z</time></trkpt><trkpt lat="46.2148987" lon="11.320762"><ele>923.0</ele><time>2026-04-26T15:52:59.009Z</time></trkpt><trkpt lat="46.2148557" lon="11.3209193"><ele>923.0</ele><time>2026-04-26T15:53:00.009Z</time></trkpt><trkpt lat="46.2148138" lon="11.321085"><ele>924.0</ele><time>2026-04-26T15:53:01.009Z</time></trkpt><trkpt lat="46.2147723" lon="11.3212552"><ele>925.0</ele><time>2026-04-26T15:53:02.009Z</time></trkpt><trkpt lat="46.2147311" lon="11.3214311"><ele>926.0</ele><time>2026-04-26T15:53:03.009Z</time></trkpt><trkpt lat="46.2146976" lon="11.3216124"><ele>927.0</ele><time>2026-04-26T15:53:04.009Z</time></trkpt><trkpt lat="46.2146726" lon="11.3217973"><ele>927.0</ele><time>2026-04-26T15:53:05.009Z</time></trkpt><trkpt lat="46.2146531" lon="11.3219851"><ele>927.0</ele><time>2026-04-26T15:53:06.009Z</time></trkpt><trkpt lat="46.2146362" lon="11.3221712"><ele>927.0</ele><time>2026-04-26T15:53:07.009Z</time></trkpt><trkpt lat="46.2146209" lon="11.3223563"><ele>927.0</ele><time>2026-04-26T15:53:08.009Z</time></trkpt><trkpt lat="46.2146075" lon="11.3225486"><ele>930.5</ele><time>2026-04-26T15:53:09.009Z</time></trkpt><trkpt lat="46.2145937" lon="11.3227429"><ele>934.0</ele><time>2026-04-26T15:53:10.009Z</time></trkpt><trkpt lat="46.2145775" lon="11.3229376"><ele>937.5</ele><time>2026-04-26T15:53:11.009Z</time></trkpt><trkpt lat="46.2145501" lon="11.3231304"><ele>941.0</ele><time>2026-04-26T15:53:12.009Z</time></trkpt><trkpt lat="46.2145061" lon="11.3233172"><ele>945.5</ele><time>2026-04-26T15:53:13.01Z</time></trkpt><trkpt lat="46.2144385" lon="11.3234791"><ele>950.0</ele><time>2026-04-26T15:53:14.009Z</time></trkpt><trkpt lat="46.2143538" lon="11.3236267"><ele>954.5</ele><time>2026-04-26T15:53:15.009Z</time></trkpt><trkpt lat="46.2142671" lon="11.3237727"><ele>959.0</ele><time>2026-04-26T15:53:16.009Z</time></trkpt><trkpt lat="46.2141902" lon="11.3239228"><ele>956.5</ele><time>2026-04-26T15:53:17.009Z</time></trkpt><trkpt lat="46.2141202" lon="11.3240784"><ele>954.0</ele><time>2026-04-26T15:53:18.009Z</time></trkpt><trkpt lat="46.2140519" lon="11.3242352"><ele>951.5</ele><time>2026-04-26T15:53:19.009Z</time></trkpt><trkpt lat="46.2139981" lon="11.3243984"><ele>949.0</ele><time>2026-04-26T15:53:20.009Z</time></trkpt><trkpt lat="46.2139608" lon="11.3245733"><ele>950.5</ele><time>2026-04-26T15:53:21.009Z</time></trkpt><trkpt lat="46.2139395" lon="11.3247715"><ele>952.0</ele><time>2026-04-26T15:53:22.01Z</time></trkpt><trkpt lat="46.213923" lon="11.324977"><ele>953.5</ele><time>2026-04-26T15:53:23.009Z</time></trkpt><trkpt lat="46.2139044" lon="11.3251829"><ele>955.0</ele><time>2026-04-26T15:53:24.009Z</time></trkpt><trkpt lat="46.2138727" lon="11.3253844"><ele>959.6666666666666</ele><time>2026-04-26T15:53:25.009Z</time></trkpt><trkpt lat="46.2138261" lon="11.3255979"><ele>964.3333333333333</ele><time>2026-04-26T15:53:26.009Z</time></trkpt><trkpt lat="46.2137609" lon="11.3257948"><ele>969.0</ele><time>2026-04-26T15:53:27.009Z</time></trkpt><trkpt lat="46.2136902" lon="11.325987"><ele>969.0</ele><time>2026-04-26T15:53:28.009Z</time></trkpt><trkpt lat="46.2136166" lon="11.3261804"><ele>969.0</ele><time>2026-04-26T15:53:29.009Z</time></trkpt><trkpt lat="46.2135521" lon="11.3263636"><ele>969.0</ele><time>2026-04-26T15:53:30.009Z</time></trkpt><trkpt lat="46.2134976" lon="11.3265435"><ele>969.0</ele><time>2026-04-26T15:53:31.009Z</time></trkpt><trkpt lat="46.2134694" lon="11.3267248"><ele>974.25</ele><time>2026-04-26T15:53:32.009Z</time></trkpt><trkpt lat="46.2134675" lon="11.3269147"><ele>979.5</ele><time>2026-04-26T15:53:33.009Z</time></trkpt><trkpt lat="46.2134964" lon="11.3271205"><ele>984.75</ele><time>2026-04-26T15:53:34.01Z</time></trkpt><trkpt lat="46.2135419" lon="11.3273112"><ele>990.0</ele><time>2026-04-26T15:53:35.009Z</time></trkpt><trkpt lat="46.2135938" lon="11.3274938"><ele>993.5</ele><time>2026-04-26T15:53:36.009Z</time></trkpt><trkpt lat="46.2136376" lon="11.3276717"><ele>997.0</ele><time>2026-04-26T15:53:37.009Z</time></trkpt><trkpt lat="46.2136567" lon="11.3278443"><ele>1000.5</ele><time>2026-04-26T15:53:38.009Z</time></trkpt><trkpt lat="46.2136396" lon="11.3280038"><ele>1004.0</ele><time>2026-04-26T15:53:39.009Z</time></trkpt><trkpt lat="46.2135983" lon="11.3281406"><ele>1009.75</ele><time>2026-04-26T15:53:40.009Z</time></trkpt><trkpt lat="46.213535" lon="11.3282841"><ele>1015.5</ele><time>2026-04-26T15:53:41.009Z</time></trkpt><trkpt lat="46.2134483" lon="11.3284065"><ele>1021.25</ele><time>2026-04-26T15:53:42.009Z</time></trkpt><trkpt lat="46.2133473" lon="11.3284949"><ele>1027.0</ele><time>2026-04-26T15:53:43.009Z</time></trkpt><trkpt lat="46.2132291" lon="11.3285373"><ele>1033.25</ele><time>2026-04-26T15:53:44.009Z</time></trkpt><trkpt lat="46.2131137" lon="11.3285473"><ele>1039.5</ele><time>2026-04-26T15:53:45.009Z</time></trkpt><trkpt lat="46.2129893" lon="11.3285052"><ele>1045.75</ele><time>2026-04-26T15:53:46.009Z</time></trkpt><trkpt lat="46.2128669" lon="11.3284143"><ele>1052.0</ele><time>2026-04-26T15:53:47.009Z</time></trkpt><trkpt lat="46.2127501" lon="11.3282881"><ele>1052.0</ele><time>2026-04-26T15:53:48.009Z</time></trkpt><trkpt lat="46.2126424" lon="11.3281552"><ele>1052.0</ele><time>2026-04-26T15:53:49.009Z</time></trkpt><trkpt lat="46.2125321" lon="11.3280427"><ele>1052.0</ele><time>2026-04-26T15:53:50.01Z</time></trkpt><trkpt lat="46.2124127" lon="11.3279657"><ele>1052.0</ele><time>2026-04-26T15:53:51.009Z</time></trkpt><trkpt lat="46.2122915" lon="11.3279309"><ele>1053.25</ele><time>2026-04-26T15:53:52.009Z</time></trkpt><trkpt lat="46.2121558" lon="11.3279499"><ele>1054.5</ele><time>2026-04-26T15:53:53.009Z</time></trkpt><trkpt lat="46.2120205" lon="11.3280091"><ele>1055.75</ele><time>2026-04-26T15:53:54.009Z</time></trkpt><trkpt lat="46.2118893" lon="11.3280915"><ele>1057.0</ele><time>2026-04-26T15:53:55.009Z</time></trkpt><trkpt lat="46.2117569" lon="11.3281633"><ele>1057.0</ele><time>2026-04-26T15:53:56.009Z</time></trkpt><trkpt lat="46.2116282" lon="11.3282331"><ele>1057.0</ele><time>2026-04-26T15:53:57.009Z</time></trkpt><trkpt lat="46.2115019" lon="11.3282935"><ele>1057.0</ele><time>2026-04-26T15:53:58.009Z</time></trkpt><trkpt lat="46.2113739" lon="11.3283052"><ele>1057.0</ele><time>2026-04-26T15:53:59.009Z</time></trkpt><trkpt lat="46.2112384" lon="11.3282823"><ele>1052.3333333333333</ele><time>2026-04-26T15:54:00.01Z</time></trkpt><trkpt lat="46.2111075" lon="11.32821"><ele>1047.6666666666667</ele><time>2026-04-26T15:54:01.009Z</time></trkpt><trkpt lat="46.2109709" lon="11.328106"><ele>1043.0</ele><time>2026-04-26T15:54:02.009Z</time></trkpt><trkpt lat="46.2108263" lon="11.328007"><ele>1043.0</ele><time>2026-04-26T15:54:03.009Z</time></trkpt><trkpt lat="46.2106623" lon="11.3279255"><ele>1043.0</ele><time>2026-04-26T15:54:04.01Z</time></trkpt><trkpt lat="46.2104893" lon="11.3278668"><ele>1043.0</ele><time>2026-04-26T15:54:05.009Z</time></trkpt><trkpt lat="46.2103029" lon="11.3278181"><ele>1051.0</ele><time>2026-04-26T15:54:06.009Z</time></trkpt><trkpt lat="46.2101047" lon="11.3277844"><ele>1059.0</ele><time>2026-04-26T15:54:07.009Z</time></trkpt><trkpt lat="46.2099025" lon="11.3277655"><ele>1067.0</ele><time>2026-04-26T15:54:08.009Z</time></trkpt><trkpt lat="46.2096927" lon="11.3277551"><ele>1067.6666666666667</ele><time>2026-04-26T15:54:09.009Z</time></trkpt><trkpt lat="46.2094816" lon="11.3277441"><ele>1068.3333333333333</ele><time>2026-04-26T15:54:10.009Z</time></trkpt><trkpt lat="46.209269" lon="11.3277324"><ele>1069.0</ele><time>2026-04-26T15:54:11.009Z</time></trkpt><trkpt lat="46.2090556" lon="11.3277275"><ele>1071.0</ele><time>2026-04-26T15:54:12.009Z</time></trkpt><trkpt lat="46.2088452" lon="11.327736"><ele>1073.0</ele><time>2026-04-26T15:54:13.009Z</time></trkpt><trkpt lat="46.2086512" lon="11.3277671"><ele>1075.0</ele><time>2026-04-26T15:54:14.009Z</time></trkpt><trkpt lat="46.2084724" lon="11.3278124"><ele>1075.0</ele><time>2026-04-26T15:54:15.009Z</time></trkpt><trkpt lat="46.2083046" lon="11.327846"><ele>1075.0</ele><time>2026-04-26T15:54:16.009Z</time></trkpt><trkpt lat="46.2081455" lon="11.3278625"><ele>1075.0</ele><time>2026-04-26T15:54:17.009Z</time></trkpt><trkpt lat="46.2079875" lon="11.3278522"><ele>1080.0</ele><time>2026-04-26T15:54:18.009Z</time></trkpt><trkpt lat="46.2078346" lon="11.3277918"><ele>1085.0</ele><time>2026-04-26T15:54:19.009Z</time></trkpt><trkpt lat="46.2076929" lon="11.3276708"><ele>1090.0</ele><time>2026-04-26T15:54:20.009Z</time></trkpt><trkpt lat="46.2075682" lon="11.3275255"><ele>1090.0</ele><time>2026-04-26T15:54:21.01Z</time></trkpt><trkpt lat="46.2074505" lon="11.3273707"><ele>1090.0</ele><time>2026-04-26T15:54:22.009Z</time></trkpt><trkpt lat="46.2073395" lon="11.3272094"><ele>1090.0</ele><time>2026-04-26T15:54:23.009Z</time></trkpt><trkpt lat="46.2072406" lon="11.3270553"><ele>1102.5</ele><time>2026-04-26T15:54:24.009Z</time></trkpt><trkpt lat="46.2071488" lon="11.3269066"><ele>1115.0</ele><time>2026-04-26T15:54:25.009Z</time></trkpt><trkpt lat="46.2070687" lon="11.3267514"><ele>1127.5</ele><time>2026-04-26T15:54:26.01Z</time></trkpt><trkpt lat="46.2070018" lon="11.326585"><ele>1140.0</ele><time>2026-04-26T15:54:27.009Z</time></trkpt><trkpt lat="46.206959" lon="11.3264102"><ele>1137.0</ele><time>2026-04-26T15:54:28.01Z</time></trkpt><trkpt lat="46.2069401" lon="11.3262266"><ele>1134.0</ele><time>2026-04-26T15:54:29.009Z</time></trkpt><trkpt lat="46.2069351" lon="11.3260341"><ele>1131.0</ele><time>2026-04-26T15:54:30.009Z</time></trkpt><trkpt lat="46.2069478" lon="11.325838"><ele>1128.0</ele><time>2026-04-26T15:54:31.009Z</time></trkpt><trkpt lat="46.2069915" lon="11.3256387"><ele>1125.75</ele><time>2026-04-26T15:54:32.009Z</time></trkpt><trkpt lat="46.2070422" lon="11.3254422"><ele>1123.5</ele><time>2026-04-26T15:54:33.009Z</time></trkpt><trkpt lat="46.2070935" lon="11.325239"><ele>1121.25</ele><time>2026-04-26T15:54:34.009Z</time></trkpt><trkpt lat="46.2071397" lon="11.3250392"><ele>1119.0</ele><time>2026-04-26T15:54:35.009Z</time></trkpt><trkpt lat="46.2071593" lon="11.3248512"><ele>1114.5</ele><time>2026-04-26T15:54:36.009Z</time></trkpt><trkpt lat="46.2071669" lon="11.3246689"><ele>1110.0</ele><time>2026-04-26T15:54:37.009Z</time></trkpt><trkpt lat="46.207146" lon="11.3244942"><ele>1105.5</ele><time>2026-04-26T15:54:38.009Z</time></trkpt><trkpt lat="46.2070933" lon="11.3243292"><ele>1101.0</ele><time>2026-04-26T15:54:39.01Z</time></trkpt><trkpt lat="46.2070135" lon="11.3241731"><ele>1101.0</ele><time>2026-04-26T15:54:40.009Z</time></trkpt><trkpt lat="46.2069303" lon="11.324041"><ele>1101.0</ele><time>2026-04-26T15:54:41.009Z</time></trkpt><trkpt lat="46.2068418" lon="11.3239108"><ele>1101.0</ele><time>2026-04-26T15:54:42.009Z</time></trkpt><trkpt lat="46.20674" lon="11.3238008"><ele>1101.0</ele><time>2026-04-26T15:54:43.009Z</time></trkpt><trkpt lat="46.206632" lon="11.3237119"><ele>1097.75</ele><time>2026-04-26T15:54:44.009Z</time></trkpt><trkpt lat="46.2065099" lon="11.3236527"><ele>1094.5</ele><time>2026-04-26T15:54:45.009Z</time></trkpt><trkpt lat="46.2063647" lon="11.3236069"><ele>1091.25</ele><time>2026-04-26T15:54:46.009Z</time></trkpt><trkpt lat="46.2062192" lon="11.3235776"><ele>1088.0</ele><time>2026-04-26T15:54:47.009Z</time></trkpt><trkpt lat="46.2060694" lon="11.323547"><ele>1088.0</ele><time>2026-04-26T15:54:48.009Z</time></trkpt><trkpt lat="46.20592" lon="11.3235089"><ele>1088.0</ele><time>2026-04-26T15:54:49.009Z</time></trkpt><trkpt lat="46.2057646" lon="11.3234701"><ele>1088.0</ele><time>2026-04-26T15:54:50.009Z</time></trkpt><trkpt lat="46.2055995" lon="11.323452"><ele>1087.0</ele><time>2026-04-26T15:54:51.009Z</time></trkpt><trkpt lat="46.2054377" lon="11.3234581"><ele>1086.0</ele><time>2026-04-26T15:54:52.009Z</time></trkpt><trkpt lat="46.2052693" lon="11.3234886"><ele>1085.0</ele><time>2026-04-26T15:54:53.009Z</time></trkpt><trkpt lat="46.2050912" lon="11.3235525"><ele>1085.0</ele><time>2026-04-26T15:54:54.009Z</time></trkpt><trkpt lat="46.2049179" lon="11.3236347"><ele>1085.0</ele><time>2026-04-26T15:54:55.009Z</time></trkpt><trkpt lat="46.2047446" lon="11.3237304"><ele>1085.0</ele><time>2026-04-26T15:54:56.009Z</time></trkpt><trkpt lat="46.2045686" lon="11.3238331"><ele>1094.3333333333335</ele><time>2026-04-26T15:54:57.009Z</time></trkpt><trkpt lat="46.2043851" lon="11.3239183"><ele>1103.6666666666667</ele><time>2026-04-26T15:54:58.009Z</time></trkpt><trkpt lat="46.2042008" lon="11.3239674"><ele>1113.0</ele><time>2026-04-26T15:54:59.009Z</time></trkpt><trkpt lat="46.2040119" lon="11.3239991"><ele>1113.3333333333333</ele><time>2026-04-26T15:55:00.009Z</time></trkpt><trkpt lat="46.2038222" lon="11.3240192"><ele>1113.6666666666665</ele><time>2026-04-26T15:55:01.01Z</time></trkpt><trkpt lat="46.2036312" lon="11.324025"><ele>1114.0</ele><time>2026-04-26T15:55:02.01Z</time></trkpt><trkpt lat="46.2034363" lon="11.3240334"><ele>1114.0</ele><time>2026-04-26T15:55:03.009Z</time></trkpt><trkpt lat="46.2032432" lon="11.3240411"><ele>1114.0</ele><time>2026-04-26T15:55:04.009Z</time></trkpt><trkpt lat="46.2030519" lon="11.3240476"><ele>1114.0</ele><time>2026-04-26T15:55:05.009Z</time></trkpt><trkpt lat="46.2028617" lon="11.3240576"><ele>1114.3333333333333</ele><time>2026-04-26T15:55:06.009Z</time></trkpt><trkpt lat="46.2026784" lon="11.3240696"><ele>1114.6666666666667</ele><time>2026-04-26T15:55:07.009Z</time></trkpt><trkpt lat="46.2024963" lon="11.3240685"><ele>1115.0</ele><time>2026-04-26T15:55:08.009Z</time></trkpt><trkpt lat="46.2023174" lon="11.3240743"><ele>1110.3333333333335</ele><time>2026-04-26T15:55:09.009Z</time></trkpt><trkpt lat="46.2021414" lon="11.3240874"><ele>1105.6666666666667</ele><time>2026-04-26T15:55:10.009Z</time></trkpt><trkpt lat="46.2019722" lon="11.3241078"><ele>1101.0</ele><time>2026-04-26T15:55:11.009Z</time></trkpt><trkpt lat="46.2018153" lon="11.3241392"><ele>1101.0</ele><time>2026-04-26T15:55:12.009Z</time></trkpt><trkpt lat="46.2016673" lon="11.3241971"><ele>1101.0</ele><time>2026-04-26T15:55:13.009Z</time></trkpt><trkpt lat="46.2015227" lon="11.3242826"><ele>1101.0</ele><time>2026-04-26T15:55:14.009Z</time></trkpt><trkpt lat="46.2013879" lon="11.3244041"><ele>1098.0</ele><time>2026-04-26T15:55:15.009Z</time></trkpt><trkpt lat="46.2012558" lon="11.3245473"><ele>1095.0</ele><time>2026-04-26T15:55:16.009Z</time></trkpt><trkpt lat="46.2011322" lon="11.3246949"><ele>1092.0</ele><time>2026-04-26T15:55:17.009Z</time></trkpt><trkpt lat="46.2010178" lon="11.3248446"><ele>1092.0</ele><time>2026-04-26T15:55:18.009Z</time></trkpt><trkpt lat="46.2009121" lon="11.324994"><ele>1092.0</ele><time>2026-04-26T15:55:19.009Z</time></trkpt><trkpt lat="46.2008078" lon="11.3251359"><ele>1092.0</ele><time>2026-04-26T15:55:20.009Z</time></trkpt><trkpt lat="46.2007072" lon="11.3252692"><ele>1092.0</ele><time>2026-04-26T15:55:21.009Z</time></trkpt><trkpt lat="46.2006062" lon="11.3253908"><ele>1092.75</ele><time>2026-04-26T15:55:22.009Z</time></trkpt><trkpt lat="46.2005078" lon="11.3255054"><ele>1093.5</ele><time>2026-04-26T15:55:23.009Z</time></trkpt><trkpt lat="46.2004082" lon="11.3256002"><ele>1094.25</ele><time>2026-04-26T15:55:24.009Z</time></trkpt><trkpt lat="46.2003" lon="11.3256443"><ele>1095.0</ele><time>2026-04-26T15:55:25.009Z</time></trkpt><trkpt lat="46.2001857" lon="11.325658"><ele>1095.0</ele><time>2026-04-26T15:55:26.009Z</time></trkpt><trkpt lat="46.2000685" lon="11.3256447"><ele>1095.0</ele><time>2026-04-26T15:55:27.01Z</time></trkpt><trkpt lat="46.1999495" lon="11.3256343"><ele>1095.0</ele><time>2026-04-26T15:55:28.009Z</time></trkpt><trkpt lat="46.1998374" lon="11.3256665"><ele>1095.0</ele><time>2026-04-26T15:55:29.009Z</time></trkpt><trkpt lat="46.199732" lon="11.3257324"><ele>1088.5</ele><time>2026-04-26T15:55:30.009Z</time></trkpt><trkpt lat="46.199638" lon="11.3258247"><ele>1082.0</ele><time>2026-04-26T15:55:31.01Z</time></trkpt><trkpt lat="46.1995624" lon="11.3259458"><ele>1075.5</ele><time>2026-04-26T15:55:32.01Z</time></trkpt><trkpt lat="46.1995025" lon="11.3261015"><ele>1069.0</ele><time>2026-04-26T15:55:33.009Z</time></trkpt><trkpt lat="46.1994651" lon="11.3262632"><ele>1072.25</ele><time>2026-04-26T15:55:34.009Z</time></trkpt><trkpt lat="46.1994354" lon="11.3264341"><ele>1075.5</ele><time>2026-04-26T15:55:35.009Z</time></trkpt><trkpt lat="46.1994104" lon="11.3266124"><ele>1078.75</ele><time>2026-04-26T15:55:36.009Z</time></trkpt><trkpt lat="46.199385" lon="11.3267932"><ele>1082.0</ele><time>2026-04-26T15:55:37.009Z</time></trkpt><trkpt lat="46.19934" lon="11.326976"><ele>1082.0</ele><time>2026-04-26T15:55:38.009Z</time></trkpt><trkpt lat="46.1992711" lon="11.3271682"><ele>1082.0</ele><time>2026-04-26T15:55:39.009Z</time></trkpt><trkpt lat="46.1991807" lon="11.3273654"><ele>1082.0</ele><time>2026-04-26T15:55:40.009Z</time></trkpt><trkpt lat="46.1990684" lon="11.3275645"><ele>1082.6666666666667</ele><time>2026-04-26T15:55:41.009Z</time></trkpt><trkpt lat="46.1989306" lon="11.3277807"><ele>1083.3333333333333</ele><time>2026-04-26T15:55:42.009Z</time></trkpt><trkpt lat="46.1987865" lon="11.3279983"><ele>1084.0</ele><time>2026-04-26T15:55:43.009Z</time></trkpt><trkpt lat="46.1986515" lon="11.328219"><ele>1084.0</ele><time>2026-04-26T15:55:44.009Z</time></trkpt><trkpt lat="46.1985261" lon="11.3284289"><ele>1084.0</ele><time>2026-04-26T15:55:45.009Z</time></trkpt><trkpt lat="46.1984059" lon="11.328606"><ele>1084.0</ele><time>2026-04-26T15:55:46.009Z</time></trkpt><trkpt lat="46.1982823" lon="11.3287495"><ele>1082.3333333333333</ele><time>2026-04-26T15:55:47.009Z</time></trkpt><trkpt lat="46.1981452" lon="11.3288522"><ele>1080.6666666666667</ele><time>2026-04-26T15:55:48.01Z</time></trkpt><trkpt lat="46.197994" lon="11.3289201"><ele>1079.0</ele><time>2026-04-26T15:55:49.009Z</time></trkpt><trkpt lat="46.1978355" lon="11.3289487"><ele>1079.0</ele><time>2026-04-26T15:55:50.009Z</time></trkpt><trkpt lat="46.1976758" lon="11.3289294"><ele>1079.0</ele><time>2026-04-26T15:55:51.009Z</time></trkpt><trkpt lat="46.1975075" lon="11.328888"><ele>1079.0</ele><time>2026-04-26T15:55:52.009Z</time></trkpt><trkpt lat="46.19733" lon="11.3288385"><ele>1068.3333333333335</ele><time>2026-04-26T15:55:53.009Z</time></trkpt><trkpt lat="46.1971436" lon="11.3288077"><ele>1057.6666666666667</ele><time>2026-04-26T15:55:54.009Z</time></trkpt><trkpt lat="46.1969545" lon="11.3287702"><ele>1047.0</ele><time>2026-04-26T15:55:55.009Z</time></trkpt><trkpt lat="46.1967528" lon="11.3287328"><ele>1047.0</ele><time>2026-04-26T15:55:56.009Z</time></trkpt><trkpt lat="46.1965399" lon="11.3286957"><ele>1047.0</ele><time>2026-04-26T15:55:57.01Z</time></trkpt><trkpt lat="46.196336" lon="11.3286497"><ele>1047.0</ele><time>2026-04-26T15:55:58.01Z</time></trkpt><trkpt lat="46.1961444" lon="11.3286063"><ele>1062.3333333333333</ele><time>2026-04-26T15:55:59.01Z</time></trkpt><trkpt lat="46.1959589" lon="11.3285672"><ele>1077.6666666666665</ele><time>2026-04-26T15:56:00.009Z</time></trkpt><trkpt lat="46.1957848" lon="11.3285159"><ele>1093.0</ele><time>2026-04-26T15:56:01.009Z</time></trkpt><trkpt lat="46.1956239" lon="11.3284321"><ele>1093.0</ele><time>2026-04-26T15:56:02.009Z</time></trkpt><trkpt lat="46.1954699" lon="11.3283203"><ele>1093.0</ele><time>2026-04-26T15:56:03.009Z</time></trkpt><trkpt lat="46.1953249" lon="11.3281843"><ele>1093.0</ele><time>2026-04-26T15:56:04.009Z</time></trkpt><trkpt lat="46.1951783" lon="11.3280537"><ele>1093.0</ele><time>2026-04-26T15:56:05.009Z</time></trkpt><trkpt lat="46.1950265" lon="11.3279401"><ele>1093.0</ele><time>2026-04-26T15:56:06.009Z</time></trkpt><trkpt lat="46.1948625" lon="11.3278554"><ele>1093.0</ele><time>2026-04-26T15:56:07.009Z</time></trkpt><trkpt lat="46.1946894" lon="11.3278201"><ele>1094.0</ele><time>2026-04-26T15:56:08.009Z</time></trkpt><trkpt lat="46.1945075" lon="11.3278169"><ele>1095.0</ele><time>2026-04-26T15:56:09.009Z</time></trkpt><trkpt lat="46.1943218" lon="11.3278039"><ele>1096.0</ele><time>2026-04-26T15:56:10.009Z</time></trkpt><trkpt lat="46.1941327" lon="11.3277904"><ele>1095.6666666666665</ele><time>2026-04-26T15:56:11.009Z</time></trkpt><trkpt lat="46.1939397" lon="11.3277757"><ele>1095.3333333333333</ele><time>2026-04-26T15:56:12.009Z</time></trkpt><trkpt lat="46.193749" lon="11.3277524"><ele>1095.0</ele><time>2026-04-26T15:56:13.009Z</time></trkpt><trkpt lat="46.1935536" lon="11.3277245"><ele>1095.0</ele><time>2026-04-26T15:56:14.009Z</time></trkpt><trkpt lat="46.1933647" lon="11.3276946"><ele>1095.0</ele><time>2026-04-26T15:56:15.009Z</time></trkpt><trkpt lat="46.1931831" lon="11.3276867"><ele>1095.0</ele><time>2026-04-26T15:56:16.009Z</time></trkpt><trkpt lat="46.193012" lon="11.3277023"><ele>1092.6666666666667</ele><time>2026-04-26T15:56:17.009Z</time></trkpt><trkpt lat="46.1928493" lon="11.3277524"><ele>1090.3333333333335</ele><time>2026-04-26T15:56:18.009Z</time></trkpt><trkpt lat="46.1926931" lon="11.3278163"><ele>1088.0</ele><time>2026-04-26T15:56:19.009Z</time></trkpt><trkpt lat="46.1925437" lon="11.3278724"><ele>1088.0</ele><time>2026-04-26T15:56:20.009Z</time></trkpt><trkpt lat="46.1923948" lon="11.3278823"><ele>1088.0</ele><time>2026-04-26T15:56:21.009Z</time></trkpt><trkpt lat="46.1922579" lon="11.3278382"><ele>1088.0</ele><time>2026-04-26T15:56:22.009Z</time></trkpt><trkpt lat="46.1921249" lon="11.3277747"><ele>1088.0</ele><time>2026-04-26T15:56:23.009Z</time></trkpt><trkpt lat="46.191993" lon="11.3277193"><ele>1086.0</ele><time>2026-04-26T15:56:24.009Z</time></trkpt><trkpt lat="46.1918529" lon="11.327692"><ele>1084.0</ele><time>2026-04-26T15:56:25.009Z</time></trkpt><trkpt lat="46.1917067" lon="11.3277158"><ele>1082.0</ele><time>2026-04-26T15:56:26.009Z</time></trkpt><trkpt lat="46.191549" lon="11.327773"><ele>1077.6666666666667</ele><time>2026-04-26T15:56:27.009Z</time></trkpt><trkpt lat="46.191388" lon="11.3278586"><ele>1073.3333333333333</ele><time>2026-04-26T15:56:28.009Z</time></trkpt><trkpt lat="46.1912322" lon="11.327953"><ele>1069.0</ele><time>2026-04-26T15:56:29.01Z</time></trkpt><trkpt lat="46.1909138" lon="11.328127"><ele>1077.3333333333333</ele><time>2026-04-26T15:56:31.009Z</time></trkpt><trkpt lat="46.1907331" lon="11.3282355"><ele>1085.6666666666667</ele><time>2026-04-26T15:56:32.009Z</time></trkpt><trkpt lat="46.1905333" lon="11.3283213"><ele>1094.0</ele><time>2026-04-26T15:56:33.009Z</time></trkpt><trkpt lat="46.1903613" lon="11.3284092"><ele>1094.0</ele><time>2026-04-26T15:56:34.009Z</time></trkpt><trkpt lat="46.1902023" lon="11.3284995"><ele>1094.0</ele><time>2026-04-26T15:56:35.01Z</time></trkpt><trkpt lat="46.1900523" lon="11.3285916"><ele>1094.0</ele><time>2026-04-26T15:56:36.009Z</time></trkpt><trkpt lat="46.1899153" lon="11.3286985"><ele>1094.25</ele><time>2026-04-26T15:56:37.009Z</time></trkpt><trkpt lat="46.1897874" lon="11.3288004"><ele>1094.5</ele><time>2026-04-26T15:56:38.009Z</time></trkpt><trkpt lat="46.189665" lon="11.3288827"><ele>1094.75</ele><time>2026-04-26T15:56:39.009Z</time></trkpt><trkpt lat="46.1895503" lon="11.328937"><ele>1095.0</ele><time>2026-04-26T15:56:40.01Z</time></trkpt><trkpt lat="46.1894322" lon="11.328955"><ele>1095.0</ele><time>2026-04-26T15:56:41.009Z</time></trkpt><trkpt lat="46.1893072" lon="11.3289363"><ele>1095.0</ele><time>2026-04-26T15:56:42.009Z</time></trkpt><trkpt lat="46.1891735" lon="11.3288945"><ele>1095.0</ele><time>2026-04-26T15:56:43.009Z</time></trkpt><trkpt lat="46.1890412" lon="11.3288668"><ele>1095.0</ele><time>2026-04-26T15:56:44.009Z</time></trkpt><trkpt lat="46.1889108" lon="11.328875"><ele>1097.75</ele><time>2026-04-26T15:56:45.01Z</time></trkpt><trkpt lat="46.1887757" lon="11.3289147"><ele>1100.5</ele><time>2026-04-26T15:56:46.01Z</time></trkpt><trkpt lat="46.1886495" lon="11.3289996"><ele>1103.25</ele><time>2026-04-26T15:56:47.009Z</time></trkpt><trkpt lat="46.1885166" lon="11.3291231"><ele>1106.0</ele><time>2026-04-26T15:56:48.01Z</time></trkpt><trkpt lat="46.1883878" lon="11.3292599"><ele>1106.0</ele><time>2026-04-26T15:56:49.009Z</time></trkpt><trkpt lat="46.1882426" lon="11.3293905"><ele>1106.0</ele><time>2026-04-26T15:56:50.009Z</time></trkpt><trkpt lat="46.1880886" lon="11.3295264"><ele>1106.0</ele><time>2026-04-26T15:56:51.009Z</time></trkpt><trkpt lat="46.1879383" lon="11.329653"><ele>1108.0</ele><time>2026-04-26T15:56:52.009Z</time></trkpt><trkpt lat="46.1877979" lon="11.3297681"><ele>1110.0</ele><time>2026-04-26T15:56:53.009Z</time></trkpt><trkpt lat="46.187659" lon="11.3298639"><ele>1112.0</ele><time>2026-04-26T15:56:54.009Z</time></trkpt><trkpt lat="46.1875104" lon="11.3299363"><ele>1112.0</ele><time>2026-04-26T15:56:55.009Z</time></trkpt><trkpt lat="46.1873611" lon="11.3299775"><ele>1112.0</ele><time>2026-04-26T15:56:56.009Z</time></trkpt><trkpt lat="46.1872092" lon="11.3299755"><ele>1112.0</ele><time>2026-04-26T15:56:57.009Z</time></trkpt><trkpt lat="46.1870583" lon="11.3299372"><ele>1110.0</ele><time>2026-04-26T15:56:58.009Z</time></trkpt><trkpt lat="46.1869161" lon="11.3298467"><ele>1108.0</ele><time>2026-04-26T15:56:59.009Z</time></trkpt><trkpt lat="46.1867698" lon="11.3297212"><ele>1106.0</ele><time>2026-04-26T15:57:00.009Z</time></trkpt><trkpt lat="46.1866288" lon="11.3296087"><ele>1101.0</ele><time>2026-04-26T15:57:01.009Z</time></trkpt><trkpt lat="46.1864822" lon="11.3295263"><ele>1096.0</ele><time>2026-04-26T15:57:02.009Z</time></trkpt><trkpt lat="46.1863241" lon="11.3294712"><ele>1091.0</ele><time>2026-04-26T15:57:03.009Z</time></trkpt><trkpt lat="46.1861613" lon="11.3294476"><ele>1091.0</ele><time>2026-04-26T15:57:04.009Z</time></trkpt><trkpt lat="46.1860029" lon="11.3294535"><ele>1091.0</ele><time>2026-04-26T15:57:05.01Z</time></trkpt><trkpt lat="46.1858398" lon="11.3294944"><ele>1091.0</ele><time>2026-04-26T15:57:06.009Z</time></trkpt><trkpt lat="46.1856837" lon="11.3295714"><ele>1089.0</ele><time>2026-04-26T15:57:07.009Z</time></trkpt><trkpt lat="46.1855361" lon="11.3296837"><ele>1087.0</ele><time>2026-04-26T15:57:08.009Z</time></trkpt><trkpt lat="46.1854006" lon="11.3298242"><ele>1085.0</ele><time>2026-04-26T15:57:09.009Z</time></trkpt><trkpt lat="46.1852704" lon="11.3299923"><ele>1089.6666666666667</ele><time>2026-04-26T15:57:10.009Z</time></trkpt><trkpt lat="46.1851623" lon="11.3301784"><ele>1094.3333333333333</ele><time>2026-04-26T15:57:11.009Z</time></trkpt><trkpt lat="46.1850645" lon="11.3303892"><ele>1099.0</ele><time>2026-04-26T15:57:12.009Z</time></trkpt><trkpt lat="46.1849754" lon="11.3306037"><ele>1102.0</ele><time>2026-04-26T15:57:13.009Z</time></trkpt><trkpt lat="46.1848843" lon="11.3307943"><ele>1105.0</ele><time>2026-04-26T15:57:14.009Z</time></trkpt><trkpt lat="46.1847888" lon="11.3309673"><ele>1108.0</ele><time>2026-04-26T15:57:15.009Z</time></trkpt><trkpt lat="46.1846827" lon="11.3311044"><ele>1108.0</ele><time>2026-04-26T15:57:16.009Z</time></trkpt><trkpt lat="46.1845581" lon="11.3311996"><ele>1108.0</ele><time>2026-04-26T15:57:17.009Z</time></trkpt><trkpt lat="46.1844191" lon="11.3312629"><ele>1108.0</ele><time>2026-04-26T15:57:18.009Z</time></trkpt><trkpt lat="46.1842678" lon="11.3312741"><ele>1108.0</ele><time>2026-04-26T15:57:19.009Z</time></trkpt><trkpt lat="46.1841159" lon="11.331237"><ele>1106.6666666666665</ele><time>2026-04-26T15:57:20.009Z</time></trkpt><trkpt lat="46.1839656" lon="11.3311533"><ele>1105.3333333333333</ele><time>2026-04-26T15:57:21.009Z</time></trkpt><trkpt lat="46.1838287" lon="11.3310213"><ele>1104.0</ele><time>2026-04-26T15:57:22.009Z</time></trkpt><trkpt lat="46.1837101" lon="11.3308598"><ele>1104.0</ele><time>2026-04-26T15:57:23.009Z</time></trkpt><trkpt lat="46.1836071" lon="11.3306686"><ele>1104.0</ele><time>2026-04-26T15:57:24.009Z</time></trkpt><trkpt lat="46.1835065" lon="11.3304739"><ele>1104.0</ele><time>2026-04-26T15:57:25.009Z</time></trkpt><trkpt lat="46.1834058" lon="11.3302778"><ele>1101.3333333333333</ele><time>2026-04-26T15:57:26.009Z</time></trkpt><trkpt lat="46.1833112" lon="11.3300881"><ele>1098.6666666666665</ele><time>2026-04-26T15:57:27.01Z</time></trkpt><trkpt lat="46.1832283" lon="11.3299023"><ele>1096.0</ele><time>2026-04-26T15:57:28.009Z</time></trkpt><trkpt lat="46.1831671" lon="11.3297175"><ele>1096.75</ele><time>2026-04-26T15:57:29.009Z</time></trkpt><trkpt lat="46.1831281" lon="11.3295205"><ele>1097.5</ele><time>2026-04-26T15:57:30.009Z</time></trkpt><trkpt lat="46.1831175" lon="11.3293327"><ele>1098.25</ele><time>2026-04-26T15:57:31.009Z</time></trkpt><trkpt lat="46.1831382" lon="11.3291344"><ele>1099.0</ele><time>2026-04-26T15:57:32.009Z</time></trkpt><trkpt lat="46.1831916" lon="11.3289269"><ele>1101.3333333333333</ele><time>2026-04-26T15:57:33.009Z</time></trkpt><trkpt lat="46.1832721" lon="11.3287153"><ele>1103.6666666666667</ele><time>2026-04-26T15:57:34.009Z</time></trkpt><trkpt lat="46.1833635" lon="11.3285117"><ele>1106.0</ele><time>2026-04-26T15:57:35.009Z</time></trkpt><trkpt lat="46.183458" lon="11.3283056"><ele>1106.0</ele><time>2026-04-26T15:57:36.009Z</time></trkpt><trkpt lat="46.1835465" lon="11.3280944"><ele>1106.0</ele><time>2026-04-26T15:57:37.009Z</time></trkpt><trkpt lat="46.1836314" lon="11.3278873"><ele>1106.0</ele><time>2026-04-26T15:57:38.009Z</time></trkpt><trkpt lat="46.1837102" lon="11.3276975"><ele>1106.75</ele><time>2026-04-26T15:57:39.009Z</time></trkpt><trkpt lat="46.1837688" lon="11.3275068"><ele>1107.5</ele><time>2026-04-26T15:57:40.009Z</time></trkpt><trkpt lat="46.183792" lon="11.3273035"><ele>1108.25</ele><time>2026-04-26T15:57:41.009Z</time></trkpt><trkpt lat="46.1837954" lon="11.3270932"><ele>1109.0</ele><time>2026-04-26T15:57:42.01Z</time></trkpt><trkpt lat="46.1837712" lon="11.3268721"><ele>1109.0</ele><time>2026-04-26T15:57:43.009Z</time></trkpt><trkpt lat="46.183722" lon="11.3266654"><ele>1109.0</ele><time>2026-04-26T15:57:44.009Z</time></trkpt><trkpt lat="46.1836463" lon="11.3264894"><ele>1109.0</ele><time>2026-04-26T15:57:45.01Z</time></trkpt><trkpt lat="46.1835513" lon="11.3263337"><ele>1109.0</ele><time>2026-04-26T15:57:46.009Z</time></trkpt><trkpt lat="46.1834385" lon="11.3262078"><ele>1109.0</ele><time>2026-04-26T15:57:47.009Z</time></trkpt><trkpt lat="46.1833057" lon="11.3261156"><ele>1109.0</ele><time>2026-04-26T15:57:48.009Z</time></trkpt><trkpt lat="46.1831765" lon="11.3260453"><ele>1109.0</ele><time>2026-04-26T15:57:49.009Z</time></trkpt><trkpt lat="46.1830364" lon="11.3260003"><ele>1109.0</ele><time>2026-04-26T15:57:50.009Z</time></trkpt><trkpt lat="46.1829027" lon="11.3259745"><ele>1109.0</ele><time>2026-04-26T15:57:51.009Z</time></trkpt><trkpt lat="46.1827719" lon="11.3259602"><ele>1109.0</ele><time>2026-04-26T15:57:52.009Z</time></trkpt><trkpt lat="46.1826518" lon="11.3259452"><ele>1109.0</ele><time>2026-04-26T15:57:53.009Z</time></trkpt><trkpt lat="46.1825382" lon="11.3259263"><ele>1109.0</ele><time>2026-04-26T15:57:54.009Z</time></trkpt><trkpt lat="46.1824191" lon="11.3259066"><ele>1107.75</ele><time>2026-04-26T15:57:55.009Z</time></trkpt><trkpt lat="46.1822901" lon="11.3258944"><ele>1106.5</ele><time>2026-04-26T15:57:56.009Z</time></trkpt><trkpt lat="46.1821666" lon="11.3258933"><ele>1105.25</ele><time>2026-04-26T15:57:57.009Z</time></trkpt><trkpt lat="46.1820392" lon="11.3258997"><ele>1104.0</ele><time>2026-04-26T15:57:58.01Z</time></trkpt><trkpt lat="46.1819129" lon="11.3259141"><ele>1104.0</ele><time>2026-04-26T15:57:59.009Z</time></trkpt><trkpt lat="46.1817904" lon="11.325949"><ele>1104.0</ele><time>2026-04-26T15:58:00.009Z</time></trkpt><trkpt lat="46.1816676" lon="11.3259817"><ele>1104.0</ele><time>2026-04-26T15:58:01.009Z</time></trkpt><trkpt lat="46.1815457" lon="11.3260178"><ele>1104.0</ele><time>2026-04-26T15:58:02.01Z</time></trkpt><trkpt lat="46.1814289" lon="11.3260592"><ele>1103.0</ele><time>2026-04-26T15:58:03.009Z</time></trkpt><trkpt lat="46.1813056" lon="11.3260999"><ele>1102.0</ele><time>2026-04-26T15:58:04.01Z</time></trkpt><trkpt lat="46.1811835" lon="11.3261422"><ele>1101.0</ele><time>2026-04-26T15:58:05.009Z</time></trkpt><trkpt lat="46.1810635" lon="11.3261745"><ele>1100.0</ele><time>2026-04-26T15:58:06.009Z</time></trkpt><trkpt lat="46.1809412" lon="11.3262021"><ele>1100.0</ele><time>2026-04-26T15:58:07.01Z</time></trkpt><trkpt lat="46.1808251" lon="11.326213"><ele>1100.0</ele><time>2026-04-26T15:58:08.009Z</time></trkpt><trkpt lat="46.1807079" lon="11.3261835"><ele>1100.0</ele><time>2026-04-26T15:58:09.009Z</time></trkpt><trkpt lat="46.1805929" lon="11.3261095"><ele>1100.0</ele><time>2026-04-26T15:58:10.009Z</time></trkpt><trkpt lat="46.180491" lon="11.3260046"><ele>1102.0</ele><time>2026-04-26T15:58:11.009Z</time></trkpt><trkpt lat="46.1803948" lon="11.3258929"><ele>1104.0</ele><time>2026-04-26T15:58:12.009Z</time></trkpt><trkpt lat="46.1802997" lon="11.3257781"><ele>1106.0</ele><time>2026-04-26T15:58:13.009Z</time></trkpt><trkpt lat="46.1801936" lon="11.3256742"><ele>1108.0</ele><time>2026-04-26T15:58:14.009Z</time></trkpt><trkpt lat="46.1800688" lon="11.3255868"><ele>1103.6666666666665</ele><time>2026-04-26T15:58:15.009Z</time></trkpt><trkpt lat="46.1799208" lon="11.3255252"><ele>1099.3333333333333</ele><time>2026-04-26T15:58:16.009Z</time></trkpt><trkpt lat="46.179756" lon="11.3254565"><ele>1095.0</ele><time>2026-04-26T15:58:17.009Z</time></trkpt><trkpt lat="46.1795694" lon="11.325392"><ele>1095.0</ele><time>2026-04-26T15:58:18.009Z</time></trkpt><trkpt lat="46.1793803" lon="11.3253269"><ele>1095.0</ele><time>2026-04-26T15:58:19.009Z</time></trkpt><trkpt lat="46.1791909" lon="11.3252385"><ele>1095.0</ele><time>2026-04-26T15:58:20.01Z</time></trkpt><trkpt lat="46.1789998" lon="11.3251392"><ele>1102.6666666666667</ele><time>2026-04-26T15:58:21.009Z</time></trkpt><trkpt lat="46.1788123" lon="11.3250163"><ele>1110.3333333333335</ele><time>2026-04-26T15:58:22.009Z</time></trkpt><trkpt lat="46.1786292" lon="11.3248868"><ele>1118.0</ele><time>2026-04-26T15:58:23.009Z</time></trkpt><trkpt lat="46.1784482" lon="11.3247583"><ele>1118.6666666666667</ele><time>2026-04-26T15:58:24.009Z</time></trkpt><trkpt lat="46.178269" lon="11.324632"><ele>1119.3333333333333</ele><time>2026-04-26T15:58:25.009Z</time></trkpt><trkpt lat="46.1780926" lon="11.3245103"><ele>1120.0</ele><time>2026-04-26T15:58:26.009Z</time></trkpt><trkpt lat="46.1779255" lon="11.324384"><ele>1120.0</ele><time>2026-04-26T15:58:27.009Z</time></trkpt><trkpt lat="46.1777626" lon="11.3242468"><ele>1120.0</ele><time>2026-04-26T15:58:28.009Z</time></trkpt><trkpt lat="46.1776115" lon="11.3240959"><ele>1120.0</ele><time>2026-04-26T15:58:29.009Z</time></trkpt><trkpt lat="46.1774749" lon="11.3239192"><ele>1122.3333333333333</ele><time>2026-04-26T15:58:30.009Z</time></trkpt><trkpt lat="46.1773556" lon="11.3237287"><ele>1124.6666666666667</ele><time>2026-04-26T15:58:31.009Z</time></trkpt><trkpt lat="46.1772384" lon="11.323537"><ele>1127.0</ele><time>2026-04-26T15:58:32.009Z</time></trkpt><trkpt lat="46.177127" lon="11.3233474"><ele>1127.0</ele><time>2026-04-26T15:58:33.009Z</time></trkpt><trkpt lat="46.1770166" lon="11.323162"><ele>1127.0</ele><time>2026-04-26T15:58:34.009Z</time></trkpt><trkpt lat="46.1769091" lon="11.3229802"><ele>1127.0</ele><time>2026-04-26T15:58:35.009Z</time></trkpt><trkpt lat="46.1768025" lon="11.3227962"><ele>1129.6666666666667</ele><time>2026-04-26T15:58:36.009Z</time></trkpt><trkpt lat="46.176697" lon="11.3226099"><ele>1132.3333333333333</ele><time>2026-04-26T15:58:37.009Z</time></trkpt><trkpt lat="46.176591" lon="11.3224248"><ele>1135.0</ele><time>2026-04-26T15:58:38.009Z</time></trkpt><trkpt lat="46.1764763" lon="11.322249"><ele>1125.3333333333333</ele><time>2026-04-26T15:58:39.009Z</time></trkpt><trkpt lat="46.1763575" lon="11.322085"><ele>1115.6666666666667</ele><time>2026-04-26T15:58:40.009Z</time></trkpt><trkpt lat="46.1762344" lon="11.3219239"><ele>1106.0</ele><time>2026-04-26T15:58:41.009Z</time></trkpt><trkpt lat="46.1761008" lon="11.3217705"><ele>1106.0</ele><time>2026-04-26T15:58:42.009Z</time></trkpt><trkpt lat="46.1759684" lon="11.3216249"><ele>1106.0</ele><time>2026-04-26T15:58:43.008Z</time></trkpt><trkpt lat="46.1758374" lon="11.3214799"><ele>1106.0</ele><time>2026-04-26T15:58:44.008Z</time></trkpt><trkpt lat="46.1757162" lon="11.3213361"><ele>1108.75</ele><time>2026-04-26T15:58:45.008Z</time></trkpt><trkpt lat="46.1756114" lon="11.3211769"><ele>1111.5</ele><time>2026-04-26T15:58:46.008Z</time></trkpt><trkpt lat="46.1755323" lon="11.3209966"><ele>1114.25</ele><time>2026-04-26T15:58:47.008Z</time></trkpt><trkpt lat="46.1754687" lon="11.3208044"><ele>1117.0</ele><time>2026-04-26T15:58:48.008Z</time></trkpt><trkpt lat="46.1754124" lon="11.3206014"><ele>1112.3333333333333</ele><time>2026-04-26T15:58:49.008Z</time></trkpt><trkpt lat="46.1753582" lon="11.3203943"><ele>1107.6666666666667</ele><time>2026-04-26T15:58:50.009Z</time></trkpt><trkpt lat="46.1752984" lon="11.3201887"><ele>1103.0</ele><time>2026-04-26T15:58:51.008Z</time></trkpt><trkpt lat="46.1752253" lon="11.3199913"><ele>1103.0</ele><time>2026-04-26T15:58:52.008Z</time></trkpt><trkpt lat="46.1751417" lon="11.3198047"><ele>1103.0</ele><time>2026-04-26T15:58:53.008Z</time></trkpt><trkpt lat="46.1750463" lon="11.3196286"><ele>1103.0</ele><time>2026-04-26T15:58:54.008Z</time></trkpt><trkpt lat="46.174946" lon="11.3194537"><ele>1102.25</ele><time>2026-04-26T15:58:55.008Z</time></trkpt><trkpt lat="46.1748507" lon="11.31928"><ele>1101.5</ele><time>2026-04-26T15:58:56.008Z</time></trkpt><trkpt lat="46.1747583" lon="11.3191098"><ele>1100.75</ele><time>2026-04-26T15:58:57.008Z</time></trkpt><trkpt lat="46.1746637" lon="11.3189496"><ele>1100.0</ele><time>2026-04-26T15:58:58.008Z</time></trkpt><trkpt lat="46.1745624" lon="11.3188065"><ele>1100.0</ele><time>2026-04-26T15:58:59.008Z</time></trkpt><trkpt lat="46.1744528" lon="11.3186818"><ele>1100.0</ele><time>2026-04-26T15:59:00.008Z</time></trkpt><trkpt lat="46.1743249" lon="11.3185899"><ele>1100.0</ele><time>2026-04-26T15:59:01.008Z</time></trkpt><trkpt lat="46.1741852" lon="11.3185135"><ele>1100.0</ele><time>2026-04-26T15:59:02.008Z</time></trkpt><trkpt lat="46.1740404" lon="11.3184468"><ele>1105.0</ele><time>2026-04-26T15:59:03.008Z</time></trkpt><trkpt lat="46.1738911" lon="11.318357"><ele>1110.0</ele><time>2026-04-26T15:59:04.008Z</time></trkpt><trkpt lat="46.1737467" lon="11.318242"><ele>1115.0</ele><time>2026-04-26T15:59:05.008Z</time></trkpt><trkpt lat="46.1736019" lon="11.3180812"><ele>1118.0</ele><time>2026-04-26T15:59:06.008Z</time></trkpt><trkpt lat="46.1734578" lon="11.3178927"><ele>1121.0</ele><time>2026-04-26T15:59:07.008Z</time></trkpt><trkpt lat="46.1733077" lon="11.3176802"><ele>1124.0</ele><time>2026-04-26T15:59:08.008Z</time></trkpt><trkpt lat="46.1731522" lon="11.3174498"><ele>1111.0</ele><time>2026-04-26T15:59:09.008Z</time></trkpt><trkpt lat="46.1729865" lon="11.3172036"><ele>1098.0</ele><time>2026-04-26T15:59:10.008Z</time></trkpt><trkpt lat="46.1728213" lon="11.3169575"><ele>1098.0</ele><time>2026-04-26T15:59:11.008Z</time></trkpt><trkpt lat="46.1726625" lon="11.3167148"><ele>1098.0</ele><time>2026-04-26T15:59:12.008Z</time></trkpt><trkpt lat="46.1725105" lon="11.3164767"><ele>1096.0</ele><time>2026-04-26T15:59:13.008Z</time></trkpt><trkpt lat="46.1723752" lon="11.3162477"><ele>1094.0</ele><time>2026-04-26T15:59:14.008Z</time></trkpt><trkpt lat="46.1722612" lon="11.3160292"><ele>1092.0</ele><time>2026-04-26T15:59:15.008Z</time></trkpt><trkpt lat="46.172169" lon="11.3158141"><ele>1094.6666666666667</ele><time>2026-04-26T15:59:16.008Z</time></trkpt><trkpt lat="46.1721099" lon="11.315591"><ele>1097.3333333333335</ele><time>2026-04-26T15:59:17.008Z</time></trkpt><trkpt lat="46.1720725" lon="11.3153705"><ele>1100.0</ele><time>2026-04-26T15:59:18.008Z</time></trkpt><trkpt lat="46.1720311" lon="11.315154"><ele>1100.0</ele><time>2026-04-26T15:59:19.008Z</time></trkpt><trkpt lat="46.1719714" lon="11.314964"><ele>1100.0</ele><time>2026-04-26T15:59:20.008Z</time></trkpt><trkpt lat="46.1718806" lon="11.3148129"><ele>1100.0</ele><time>2026-04-26T15:59:21.008Z</time></trkpt><trkpt lat="46.171764" lon="11.3146706"><ele>1100.0</ele><time>2026-04-26T15:59:22.008Z</time></trkpt><trkpt lat="46.1716129" lon="11.3145594"><ele>1104.3333333333335</ele><time>2026-04-26T15:59:23.009Z</time></trkpt><trkpt lat="46.171449" lon="11.3144396"><ele>1108.6666666666667</ele><time>2026-04-26T15:59:24.008Z</time></trkpt><trkpt lat="46.1712858" lon="11.3142963"><ele>1113.0</ele><time>2026-04-26T15:59:25.008Z</time></trkpt><trkpt lat="46.1711255" lon="11.3141091"><ele>1108.3333333333333</ele><time>2026-04-26T15:59:26.008Z</time></trkpt><trkpt lat="46.1709608" lon="11.3139013"><ele>1103.6666666666665</ele><time>2026-04-26T15:59:27.008Z</time></trkpt><trkpt lat="46.1707996" lon="11.3136737"><ele>1099.0</ele><time>2026-04-26T15:59:28.008Z</time></trkpt><trkpt lat="46.1706307" lon="11.3134513"><ele>1099.0</ele><time>2026-04-26T15:59:29.008Z</time></trkpt><trkpt lat="46.1704648" lon="11.3132282"><ele>1099.0</ele><time>2026-04-26T15:59:30.008Z</time></trkpt><trkpt lat="46.1703067" lon="11.3130147"><ele>1099.0</ele><time>2026-04-26T15:59:31.008Z</time></trkpt><trkpt lat="46.1701536" lon="11.3128105"><ele>1095.0</ele><time>2026-04-26T15:59:32.008Z</time></trkpt><trkpt lat="46.1700149" lon="11.3126209"><ele>1091.0</ele><time>2026-04-26T15:59:33.008Z</time></trkpt><trkpt lat="46.1698934" lon="11.3124568"><ele>1087.0</ele><time>2026-04-26T15:59:34.008Z</time></trkpt><trkpt lat="46.1697683" lon="11.3123239"><ele>1083.6666666666665</ele><time>2026-04-26T15:59:35.008Z</time></trkpt><trkpt lat="46.1696351" lon="11.3122261"><ele>1080.3333333333333</ele><time>2026-04-26T15:59:36.009Z</time></trkpt><trkpt lat="46.1694772" lon="11.3121825"><ele>1077.0</ele><time>2026-04-26T15:59:37.008Z</time></trkpt><trkpt lat="46.1693126" lon="11.3121588"><ele>1077.0</ele><time>2026-04-26T15:59:38.008Z</time></trkpt><trkpt lat="46.169148" lon="11.3121412"><ele>1077.0</ele><time>2026-04-26T15:59:39.008Z</time></trkpt><trkpt lat="46.1689842" lon="11.3120938"><ele>1077.0</ele><time>2026-04-26T15:59:40.008Z</time></trkpt><trkpt lat="46.1688306" lon="11.3119988"><ele>1080.0</ele><time>2026-04-26T15:59:41.008Z</time></trkpt><trkpt lat="46.1686946" lon="11.3118698"><ele>1083.0</ele><time>2026-04-26T15:59:42.008Z</time></trkpt><trkpt lat="46.1685874" lon="11.311701"><ele>1086.0</ele><time>2026-04-26T15:59:43.008Z</time></trkpt><trkpt lat="46.1684946" lon="11.3114915"><ele>1085.0</ele><time>2026-04-26T15:59:44.008Z</time></trkpt><trkpt lat="46.1684085" lon="11.3112717"><ele>1084.0</ele><time>2026-04-26T15:59:45.008Z</time></trkpt><trkpt lat="46.1683228" lon="11.3110514"><ele>1083.0</ele><time>2026-04-26T15:59:46.008Z</time></trkpt><trkpt lat="46.1682363" lon="11.3108497"><ele>1084.3333333333333</ele><time>2026-04-26T15:59:47.008Z</time></trkpt><trkpt lat="46.1681438" lon="11.3106634"><ele>1085.6666666666665</ele><time>2026-04-26T15:59:48.008Z</time></trkpt><trkpt lat="46.1680336" lon="11.3105068"><ele>1087.0</ele><time>2026-04-26T15:59:49.008Z</time></trkpt><trkpt lat="46.1678926" lon="11.3103803"><ele>1082.3333333333333</ele><time>2026-04-26T15:59:50.008Z</time></trkpt><trkpt lat="46.167736" lon="11.3102754"><ele>1077.6666666666667</ele><time>2026-04-26T15:59:51.009Z</time></trkpt><trkpt lat="46.1675694" lon="11.3101817"><ele>1073.0</ele><time>2026-04-26T15:59:52.008Z</time></trkpt><trkpt lat="46.1673858" lon="11.310095"><ele>1078.6666666666667</ele><time>2026-04-26T15:59:53.008Z</time></trkpt><trkpt lat="46.1671939" lon="11.310003"><ele>1084.3333333333333</ele><time>2026-04-26T15:59:54.008Z</time></trkpt><trkpt lat="46.1670013" lon="11.3099071"><ele>1090.0</ele><time>2026-04-26T15:59:55.008Z</time></trkpt><trkpt lat="46.1668065" lon="11.3098106"><ele>1087.6666666666665</ele><time>2026-04-26T15:59:56.008Z</time></trkpt><trkpt lat="46.1666054" lon="11.3097138"><ele>1085.3333333333333</ele><time>2026-04-26T15:59:57.008Z</time></trkpt><trkpt lat="46.1664081" lon="11.3096155"><ele>1083.0</ele><time>2026-04-26T15:59:58.008Z</time></trkpt><trkpt lat="46.1662071" lon="11.3095191"><ele>1083.0</ele><time>2026-04-26T15:59:59.008Z</time></trkpt><trkpt lat="46.1660017" lon="11.3094196"><ele>1083.0</ele><time>2026-04-26T16:00:00.008Z</time></trkpt><trkpt lat="46.1658046" lon="11.3093123"><ele>1083.0</ele><time>2026-04-26T16:00:01.008Z</time></trkpt><trkpt lat="46.1656191" lon="11.3091815"><ele>1084.3333333333333</ele><time>2026-04-26T16:00:02.008Z</time></trkpt><trkpt lat="46.1654511" lon="11.3090182"><ele>1085.6666666666665</ele><time>2026-04-26T16:00:03.008Z</time></trkpt><trkpt lat="46.1652979" lon="11.3088288"><ele>1087.0</ele><time>2026-04-26T16:00:04.008Z</time></trkpt><trkpt lat="46.1651583" lon="11.308623"><ele>1087.0</ele><time>2026-04-26T16:00:05.009Z</time></trkpt><trkpt lat="46.1650275" lon="11.3084081"><ele>1087.0</ele><time>2026-04-26T16:00:06.008Z</time></trkpt><trkpt lat="46.1649216" lon="11.3081798"><ele>1087.0</ele><time>2026-04-26T16:00:07.009Z</time></trkpt><trkpt lat="46.1648264" lon="11.3079564"><ele>1082.6666666666665</ele><time>2026-04-26T16:00:08.008Z</time></trkpt><trkpt lat="46.1647281" lon="11.3077653"><ele>1078.3333333333333</ele><time>2026-04-26T16:00:09.008Z</time></trkpt><trkpt lat="46.1646107" lon="11.3076149"><ele>1074.0</ele><time>2026-04-26T16:00:10.008Z</time></trkpt><trkpt lat="46.164476" lon="11.3074828"><ele>1074.0</ele><time>2026-04-26T16:00:11.008Z</time></trkpt><trkpt lat="46.1643181" lon="11.3073626"><ele>1074.0</ele><time>2026-04-26T16:00:12.008Z</time></trkpt><trkpt lat="46.164156" lon="11.3072497"><ele>1074.0</ele><time>2026-04-26T16:00:13.008Z</time></trkpt><trkpt lat="46.1639857" lon="11.3071295"><ele>1071.6666666666667</ele><time>2026-04-26T16:00:14.008Z</time></trkpt><trkpt lat="46.1638175" lon="11.3070088"><ele>1069.3333333333335</ele><time>2026-04-26T16:00:15.008Z</time></trkpt><trkpt lat="46.1636448" lon="11.3068905"><ele>1067.0</ele><time>2026-04-26T16:00:16.009Z</time></trkpt><trkpt lat="46.1634711" lon="11.3067714"><ele>1067.0</ele><time>2026-04-26T16:00:17.008Z</time></trkpt><trkpt lat="46.1632963" lon="11.3066491"><ele>1067.0</ele><time>2026-04-26T16:00:18.008Z</time></trkpt><trkpt lat="46.1631287" lon="11.3065115"><ele>1067.0</ele><time>2026-04-26T16:00:19.008Z</time></trkpt><trkpt lat="46.1629754" lon="11.3063516"><ele>1071.3333333333335</ele><time>2026-04-26T16:00:20.008Z</time></trkpt><trkpt lat="46.1628306" lon="11.3061713"><ele>1075.6666666666667</ele><time>2026-04-26T16:00:21.008Z</time></trkpt><trkpt lat="46.1626933" lon="11.3059855"><ele>1080.0</ele><time>2026-04-26T16:00:22.008Z</time></trkpt><trkpt lat="46.1625631" lon="11.3057823"><ele>1078.3333333333333</ele><time>2026-04-26T16:00:23.008Z</time></trkpt><trkpt lat="46.1624535" lon="11.3055604"><ele>1076.6666666666665</ele><time>2026-04-26T16:00:24.008Z</time></trkpt><trkpt lat="46.1623691" lon="11.3053227"><ele>1075.0</ele><time>2026-04-26T16:00:25.009Z</time></trkpt><trkpt lat="46.1622896" lon="11.3050714"><ele>1073.6666666666665</ele><time>2026-04-26T16:00:26.008Z</time></trkpt><trkpt lat="46.1622189" lon="11.3048275"><ele>1072.3333333333333</ele><time>2026-04-26T16:00:27.008Z</time></trkpt><trkpt lat="46.1621478" lon="11.3045966"><ele>1071.0</ele><time>2026-04-26T16:00:28.008Z</time></trkpt><trkpt lat="46.1620716" lon="11.3043772"><ele>1071.0</ele><time>2026-04-26T16:00:29.008Z</time></trkpt><trkpt lat="46.1619979" lon="11.3041725"><ele>1071.0</ele><time>2026-04-26T16:00:30.008Z</time></trkpt><trkpt lat="46.1619302" lon="11.3039654"><ele>1071.0</ele><time>2026-04-26T16:00:31.008Z</time></trkpt><trkpt lat="46.1618656" lon="11.3037727"><ele>1069.0</ele><time>2026-04-26T16:00:32.009Z</time></trkpt><trkpt lat="46.1618024" lon="11.3035905"><ele>1067.0</ele><time>2026-04-26T16:00:33.008Z</time></trkpt><trkpt lat="46.1617337" lon="11.3034268"><ele>1065.0</ele><time>2026-04-26T16:00:34.008Z</time></trkpt><trkpt lat="46.1616555" lon="11.303274"><ele>1063.0</ele><time>2026-04-26T16:00:35.008Z</time></trkpt><trkpt lat="46.1615693" lon="11.3031336"><ele>1063.0</ele><time>2026-04-26T16:00:36.008Z</time></trkpt><trkpt lat="46.1614665" lon="11.303015"><ele>1063.0</ele><time>2026-04-26T16:00:37.008Z</time></trkpt><trkpt lat="46.1613639" lon="11.302909"><ele>1063.0</ele><time>2026-04-26T16:00:38.008Z</time></trkpt><trkpt lat="46.1612661" lon="11.3028081"><ele>1063.0</ele><time>2026-04-26T16:00:39.008Z</time></trkpt><trkpt lat="46.161174" lon="11.3027085"><ele>1063.0</ele><time>2026-04-26T16:00:40.008Z</time></trkpt><trkpt lat="46.1610845" lon="11.3026104"><ele>1063.0</ele><time>2026-04-26T16:00:41.008Z</time></trkpt><trkpt lat="46.1609971" lon="11.3025099"><ele>1063.0</ele><time>2026-04-26T16:00:42.008Z</time></trkpt><trkpt lat="46.1609089" lon="11.3024166"><ele>1063.0</ele><time>2026-04-26T16:00:43.008Z</time></trkpt><trkpt lat="46.1608211" lon="11.302341"><ele>1063.0</ele><time>2026-04-26T16:00:44.008Z</time></trkpt><trkpt lat="46.1607161" lon="11.3022881"><ele>1065.0</ele><time>2026-04-26T16:00:45.008Z</time></trkpt><trkpt lat="46.1605994" lon="11.3022631"><ele>1067.0</ele><time>2026-04-26T16:00:46.008Z</time></trkpt><trkpt lat="46.1604708" lon="11.3022659"><ele>1069.0</ele><time>2026-04-26T16:00:47.008Z</time></trkpt><trkpt lat="46.1603479" lon="11.3022883"><ele>1071.0</ele><time>2026-04-26T16:00:48.008Z</time></trkpt><trkpt lat="46.1602293" lon="11.3022985"><ele>1071.0</ele><time>2026-04-26T16:00:49.008Z</time></trkpt><trkpt lat="46.160126" lon="11.3022851"><ele>1071.0</ele><time>2026-04-26T16:00:50.008Z</time></trkpt><trkpt lat="46.1600437" lon="11.3022457"><ele>1071.0</ele><time>2026-04-26T16:00:51.008Z</time></trkpt><trkpt lat="46.1599886" lon="11.3021685"><ele>1071.0</ele><time>2026-04-26T16:00:52.008Z</time></trkpt><trkpt lat="46.1599606" lon="11.30206"><ele>1071.0</ele><time>2026-04-26T16:00:53.008Z</time></trkpt><trkpt lat="46.1599465" lon="11.3019334"><ele>1071.0</ele><time>2026-04-26T16:00:54.008Z</time></trkpt><trkpt lat="46.1599608" lon="11.3017897"><ele>1069.75</ele><time>2026-04-26T16:00:55.008Z</time></trkpt><trkpt lat="46.1599914" lon="11.301626"><ele>1068.5</ele><time>2026-04-26T16:00:56.008Z</time></trkpt><trkpt lat="46.1600246" lon="11.3014619"><ele>1067.25</ele><time>2026-04-26T16:00:57.008Z</time></trkpt><trkpt lat="46.160061" lon="11.3012885"><ele>1066.0</ele><time>2026-04-26T16:00:58.008Z</time></trkpt><trkpt lat="46.1600976" lon="11.3011076"><ele>1066.0</ele><time>2026-04-26T16:00:59.008Z</time></trkpt><trkpt lat="46.1601352" lon="11.3009193"><ele>1066.0</ele><time>2026-04-26T16:01:00.008Z</time></trkpt><trkpt lat="46.1601654" lon="11.3007419"><ele>1066.0</ele><time>2026-04-26T16:01:01.008Z</time></trkpt><trkpt lat="46.1601841" lon="11.3005757"><ele>1066.0</ele><time>2026-04-26T16:01:02.008Z</time></trkpt><trkpt lat="46.1601925" lon="11.3004111"><ele>1064.3999999999999</ele><time>2026-04-26T16:01:03.008Z</time></trkpt><trkpt lat="46.1601872" lon="11.3002567"><ele>1062.8</ele><time>2026-04-26T16:01:04.008Z</time></trkpt><trkpt lat="46.1601639" lon="11.3001142"><ele>1061.1999999999998</ele><time>2026-04-26T16:01:05.008Z</time></trkpt><trkpt lat="46.1601359" lon="11.2999789"><ele>1059.6</ele><time>2026-04-26T16:01:06.008Z</time></trkpt><trkpt lat="46.160108" lon="11.2998504"><ele>1058.0</ele><time>2026-04-26T16:01:07.008Z</time></trkpt><trkpt lat="46.1600809" lon="11.2997403"><ele>1058.0</ele><time>2026-04-26T16:01:08.008Z</time></trkpt><trkpt lat="46.1600525" lon="11.2996588"><ele>1058.0</ele><time>2026-04-26T16:01:09.008Z</time></trkpt><trkpt lat="46.1599854" lon="11.299598"><ele>1058.0</ele><time>2026-04-26T16:01:11.008Z</time></trkpt><trkpt lat="46.1599354" lon="11.2996562"><ele>1058.0</ele><time>2026-04-26T16:01:13.009Z</time></trkpt><trkpt lat="46.1599382" lon="11.2997837"><ele>1058.0</ele><time>2026-04-26T16:01:15.008Z</time></trkpt><trkpt lat="46.1599653" lon="11.2999603"><ele>1058.0</ele><time>2026-04-26T16:01:17.008Z</time></trkpt><trkpt lat="46.1599815" lon="11.3000709"><ele>1058.0</ele><time>2026-04-26T16:01:18.008Z</time></trkpt><trkpt lat="46.1600013" lon="11.3001996"><ele>1058.0</ele><time>2026-04-26T16:01:19.008Z</time></trkpt><trkpt lat="46.1600194" lon="11.3003432"><ele>1058.0</ele><time>2026-04-26T16:01:20.008Z</time></trkpt><trkpt lat="46.160032" lon="11.3005037"><ele>1058.0</ele><time>2026-04-26T16:01:21.008Z</time></trkpt><trkpt lat="46.160029" lon="11.3006713"><ele>1058.0</ele><time>2026-04-26T16:01:22.008Z</time></trkpt><trkpt lat="46.1600087" lon="11.3008533"><ele>1060.0</ele><time>2026-04-26T16:01:23.008Z</time></trkpt><trkpt lat="46.1599695" lon="11.301041"><ele>1062.0</ele><time>2026-04-26T16:01:24.008Z</time></trkpt><trkpt lat="46.1599107" lon="11.301224"><ele>1064.0</ele><time>2026-04-26T16:01:25.008Z</time></trkpt><trkpt lat="46.1598536" lon="11.3014043"><ele>1066.0</ele><time>2026-04-26T16:01:26.008Z</time></trkpt><trkpt lat="46.159792" lon="11.3015751"><ele>1071.0</ele><time>2026-04-26T16:01:27.008Z</time></trkpt><trkpt lat="46.1597187" lon="11.3017375"><ele>1076.0</ele><time>2026-04-26T16:01:28.009Z</time></trkpt><trkpt lat="46.1596275" lon="11.3018884"><ele>1081.0</ele><time>2026-04-26T16:01:29.008Z</time></trkpt><trkpt lat="46.1595136" lon="11.3020123"><ele>1086.0</ele><time>2026-04-26T16:01:30.008Z</time></trkpt><trkpt lat="46.1593775" lon="11.3021153"><ele>1086.0</ele><time>2026-04-26T16:01:31.008Z</time></trkpt><trkpt lat="46.1592299" lon="11.3022148"><ele>1086.0</ele><time>2026-04-26T16:01:32.008Z</time></trkpt><trkpt lat="46.1590845" lon="11.3023327"><ele>1086.0</ele><time>2026-04-26T16:01:33.008Z</time></trkpt><trkpt lat="46.1589419" lon="11.3024771"><ele>1095.6666666666667</ele><time>2026-04-26T16:01:34.008Z</time></trkpt><trkpt lat="46.1588077" lon="11.3026617"><ele>1105.3333333333335</ele><time>2026-04-26T16:01:35.008Z</time></trkpt><trkpt lat="46.1586812" lon="11.3028711"><ele>1115.0</ele><time>2026-04-26T16:01:36.008Z</time></trkpt><trkpt lat="46.1585441" lon="11.3030922"><ele>1115.0</ele><time>2026-04-26T16:01:37.008Z</time></trkpt><trkpt lat="46.1583951" lon="11.3033093"><ele>1115.0</ele><time>2026-04-26T16:01:38.008Z</time></trkpt><trkpt lat="46.1582352" lon="11.3035302"><ele>1115.0</ele><time>2026-04-26T16:01:39.009Z</time></trkpt><trkpt lat="46.158075" lon="11.3037474"><ele>1121.3333333333335</ele><time>2026-04-26T16:01:40.008Z</time></trkpt><trkpt lat="46.1579093" lon="11.303964"><ele>1127.6666666666667</ele><time>2026-04-26T16:01:41.008Z</time></trkpt><trkpt lat="46.1577515" lon="11.3041769"><ele>1134.0</ele><time>2026-04-26T16:01:42.008Z</time></trkpt><trkpt lat="46.1575966" lon="11.3043788"><ele>1134.0</ele><time>2026-04-26T16:01:43.008Z</time></trkpt><trkpt lat="46.1574558" lon="11.3045678"><ele>1134.0</ele><time>2026-04-26T16:01:44.008Z</time></trkpt><trkpt lat="46.1573185" lon="11.3047496"><ele>1134.0</ele><time>2026-04-26T16:01:45.008Z</time></trkpt><trkpt lat="46.1571807" lon="11.304914"><ele>1141.0</ele><time>2026-04-26T16:01:46.008Z</time></trkpt><trkpt lat="46.1570433" lon="11.3050515"><ele>1148.0</ele><time>2026-04-26T16:01:47.009Z</time></trkpt><trkpt lat="46.1568955" lon="11.3051758"><ele>1155.0</ele><time>2026-04-26T16:01:48.008Z</time></trkpt><trkpt lat="46.1567437" lon="11.3052887"><ele>1155.0</ele><time>2026-04-26T16:01:49.008Z</time></trkpt><trkpt lat="46.1566009" lon="11.3054059"><ele>1155.0</ele><time>2026-04-26T16:01:50.008Z</time></trkpt><trkpt lat="46.1564664" lon="11.30554"><ele>1155.0</ele><time>2026-04-26T16:01:51.008Z</time></trkpt><trkpt lat="46.1563576" lon="11.3057081"><ele>1165.0</ele><time>2026-04-26T16:01:52.008Z</time></trkpt><trkpt lat="46.1562702" lon="11.3059049"><ele>1175.0</ele><time>2026-04-26T16:01:53.008Z</time></trkpt><trkpt lat="46.1561875" lon="11.3061174"><ele>1185.0</ele><time>2026-04-26T16:01:54.008Z</time></trkpt><trkpt lat="46.1560903" lon="11.3063186"><ele>1180.75</ele><time>2026-04-26T16:01:55.008Z</time></trkpt><trkpt lat="46.1559885" lon="11.3065125"><ele>1176.5</ele><time>2026-04-26T16:01:56.008Z</time></trkpt><trkpt lat="46.1558869" lon="11.3066608"><ele>1172.25</ele><time>2026-04-26T16:01:57.008Z</time></trkpt><trkpt lat="46.1557929" lon="11.3067836"><ele>1168.0</ele><time>2026-04-26T16:01:58.008Z</time></trkpt><trkpt lat="46.1557207" lon="11.3068944"><ele>1166.8333333333333</ele><time>2026-04-26T16:01:59.008Z</time></trkpt><trkpt lat="46.1556651" lon="11.3070011"><ele>1165.6666666666665</ele><time>2026-04-26T16:02:00.008Z</time></trkpt><trkpt lat="46.1556354" lon="11.3071057"><ele>1164.5</ele><time>2026-04-26T16:02:01.008Z</time></trkpt><trkpt lat="46.1556301" lon="11.307207"><ele>1163.3333333333333</ele><time>2026-04-26T16:02:02.008Z</time></trkpt><trkpt lat="46.1556581" lon="11.307308"><ele>1162.1666666666667</ele><time>2026-04-26T16:02:03.008Z</time></trkpt><trkpt lat="46.1557217" lon="11.3074197"><ele>1161.0</ele><time>2026-04-26T16:02:04.008Z</time></trkpt><trkpt lat="46.1558108" lon="11.3075118"><ele>1161.0</ele><time>2026-04-26T16:02:05.008Z</time></trkpt><trkpt lat="46.1559068" lon="11.3075991"><ele>1161.0</ele><time>2026-04-26T16:02:06.008Z</time></trkpt><trkpt lat="46.1560112" lon="11.3076893"><ele>1161.0</ele><time>2026-04-26T16:02:07.008Z</time></trkpt><trkpt lat="46.1561083" lon="11.307777"><ele>1161.0</ele><time>2026-04-26T16:02:08.008Z</time></trkpt><trkpt lat="46.1562014" lon="11.3078658"><ele>1161.0</ele><time>2026-04-26T16:02:09.008Z</time></trkpt><trkpt lat="46.1562745" lon="11.3079397"><ele>1161.0</ele><time>2026-04-26T16:02:10.008Z</time></trkpt><trkpt lat="46.1563369" lon="11.3080189"><ele>1161.0</ele><time>2026-04-26T16:02:11.008Z</time></trkpt><trkpt lat="46.1563591" lon="11.3081714"><ele>1161.0</ele><time>2026-04-26T16:02:13.008Z</time></trkpt><trkpt lat="46.1563099" lon="11.3082408"><ele>1161.0</ele><time>2026-04-26T16:02:14.008Z</time></trkpt><trkpt lat="46.156239" lon="11.308287"><ele>1161.0</ele><time>2026-04-26T16:02:15.008Z</time></trkpt><trkpt lat="46.1561598" lon="11.3083019"><ele>1162.6666666666667</ele><time>2026-04-26T16:02:16.008Z</time></trkpt><trkpt lat="46.1560732" lon="11.3082855"><ele>1164.3333333333333</ele><time>2026-04-26T16:02:17.008Z</time></trkpt><trkpt lat="46.1559832" lon="11.3082528"><ele>1166.0</ele><time>2026-04-26T16:02:18.009Z</time></trkpt><trkpt lat="46.1558997" lon="11.3082456"><ele>1167.6666666666665</ele><time>2026-04-26T16:02:19.009Z</time></trkpt><trkpt lat="46.1558419" lon="11.308282"><ele>1169.3333333333333</ele><time>2026-04-26T16:02:20.008Z</time></trkpt><trkpt lat="46.1557924" lon="11.3084297"><ele>1171.0</ele><time>2026-04-26T16:02:22.008Z</time></trkpt><trkpt lat="46.1558116" lon="11.3085168"><ele>1171.0</ele><time>2026-04-26T16:02:23.008Z</time></trkpt><trkpt lat="46.1558696" lon="11.3085993"><ele>1171.0</ele><time>2026-04-26T16:02:24.008Z</time></trkpt><trkpt lat="46.1559513" lon="11.3086798"><ele>1171.0</ele><time>2026-04-26T16:02:25.008Z</time></trkpt><trkpt lat="46.1560441" lon="11.3087604"><ele>1171.0</ele><time>2026-04-26T16:02:26.008Z</time></trkpt><trkpt lat="46.1561378" lon="11.308849"><ele>1171.0</ele><time>2026-04-26T16:02:27.008Z</time></trkpt><trkpt lat="46.156232" lon="11.3089368"><ele>1174.6666666666665</ele><time>2026-04-26T16:02:28.008Z</time></trkpt><trkpt lat="46.1563198" lon="11.3090223"><ele>1178.3333333333333</ele><time>2026-04-26T16:02:29.008Z</time></trkpt><trkpt lat="46.1564024" lon="11.309102"><ele>1182.0</ele><time>2026-04-26T16:02:30.008Z</time></trkpt><trkpt lat="46.1564716" lon="11.3091782"><ele>1185.6666666666667</ele><time>2026-04-26T16:02:31.008Z</time></trkpt><trkpt lat="46.1565197" lon="11.309274"><ele>1189.3333333333335</ele><time>2026-04-26T16:02:32.008Z</time></trkpt><trkpt lat="46.1565267" lon="11.3093695"><ele>1193.0</ele><time>2026-04-26T16:02:33.008Z</time></trkpt><trkpt lat="46.1564808" lon="11.3094597"><ele>1193.0</ele><time>2026-04-26T16:02:34.008Z</time></trkpt><trkpt lat="46.1564125" lon="11.3095118"><ele>1193.0</ele><time>2026-04-26T16:02:35.008Z</time></trkpt><trkpt lat="46.1563192" lon="11.309496"><ele>1193.0</ele><time>2026-04-26T16:02:36.008Z</time></trkpt><trkpt lat="46.1562132" lon="11.3094352"><ele>1193.0</ele><time>2026-04-26T16:02:37.008Z</time></trkpt><trkpt lat="46.1560965" lon="11.3093669"><ele>1193.0</ele><time>2026-04-26T16:02:38.008Z</time></trkpt><trkpt lat="46.1559712" lon="11.3092925"><ele>1193.0</ele><time>2026-04-26T16:02:39.008Z</time></trkpt><trkpt lat="46.1558396" lon="11.3092077"><ele>1193.0</ele><time>2026-04-26T16:02:40.008Z</time></trkpt><trkpt lat="46.1557047" lon="11.3091363"><ele>1193.0</ele><time>2026-04-26T16:02:41.008Z</time></trkpt><trkpt lat="46.1555549" lon="11.3090965"><ele>1193.0</ele><time>2026-04-26T16:02:42.008Z</time></trkpt><trkpt lat="46.1553935" lon="11.3090909"><ele>1196.3333333333335</ele><time>2026-04-26T16:02:43.008Z</time></trkpt><trkpt lat="46.1552314" lon="11.3091176"><ele>1199.6666666666667</ele><time>2026-04-26T16:02:44.008Z</time></trkpt><trkpt lat="46.1550765" lon="11.3091663"><ele>1203.0</ele><time>2026-04-26T16:02:45.008Z</time></trkpt><trkpt lat="46.1549261" lon="11.3092108"><ele>1202.0</ele><time>2026-04-26T16:02:46.008Z</time></trkpt><trkpt lat="46.1547671" lon="11.3092411"><ele>1201.0</ele><time>2026-04-26T16:02:47.008Z</time></trkpt><trkpt lat="46.1545987" lon="11.3092483"><ele>1200.0</ele><time>2026-04-26T16:02:48.008Z</time></trkpt><trkpt lat="46.1544226" lon="11.309258"><ele>1200.0</ele><time>2026-04-26T16:02:49.009Z</time></trkpt><trkpt lat="46.154235" lon="11.3092839"><ele>1200.0</ele><time>2026-04-26T16:02:50.008Z</time></trkpt><trkpt lat="46.154034" lon="11.3093363"><ele>1200.0</ele><time>2026-04-26T16:02:51.008Z</time></trkpt><trkpt lat="46.1538252" lon="11.3094145"><ele>1199.6666666666667</ele><time>2026-04-26T16:02:52.008Z</time></trkpt><trkpt lat="46.1536137" lon="11.309499"><ele>1199.3333333333335</ele><time>2026-04-26T16:02:53.008Z</time></trkpt><trkpt lat="46.1533995" lon="11.3095873"><ele>1199.0</ele><time>2026-04-26T16:02:54.008Z</time></trkpt><trkpt lat="46.1531789" lon="11.3096801"><ele>1207.0</ele><time>2026-04-26T16:02:55.008Z</time></trkpt><trkpt lat="46.1529616" lon="11.3097747"><ele>1215.0</ele><time>2026-04-26T16:02:56.008Z</time></trkpt><trkpt lat="46.1527535" lon="11.3098639"><ele>1223.0</ele><time>2026-04-26T16:02:57.008Z</time></trkpt><trkpt lat="46.1525448" lon="11.3099445"><ele>1224.0</ele><time>2026-04-26T16:02:58.008Z</time></trkpt><trkpt lat="46.1523289" lon="11.3100081"><ele>1225.0</ele><time>2026-04-26T16:02:59.008Z</time></trkpt><trkpt lat="46.152112" lon="11.3100487"><ele>1226.0</ele><time>2026-04-26T16:03:00.008Z</time></trkpt><trkpt lat="46.151892" lon="11.3100737"><ele>1226.0</ele><time>2026-04-26T16:03:01.008Z</time></trkpt><trkpt lat="46.1516642" lon="11.31009"><ele>1226.0</ele><time>2026-04-26T16:03:02.008Z</time></trkpt><trkpt lat="46.1514577" lon="11.3100964"><ele>1226.0</ele><time>2026-04-26T16:03:03.008Z</time></trkpt><trkpt lat="46.1512677" lon="11.3100967"><ele>1229.6666666666667</ele><time>2026-04-26T16:03:04.008Z</time></trkpt><trkpt lat="46.1510884" lon="11.3100951"><ele>1233.3333333333333</ele><time>2026-04-26T16:03:05.008Z</time></trkpt><trkpt lat="46.1509294" lon="11.3100881"><ele>1237.0</ele><time>2026-04-26T16:03:06.009Z</time></trkpt><trkpt lat="46.1507858" lon="11.3100604"><ele>1239.2</ele><time>2026-04-26T16:03:07.008Z</time></trkpt><trkpt lat="46.1506612" lon="11.3100195"><ele>1241.4</ele><time>2026-04-26T16:03:08.008Z</time></trkpt><trkpt lat="46.1505509" lon="11.3099523"><ele>1243.6</ele><time>2026-04-26T16:03:09.008Z</time></trkpt><trkpt lat="46.1504667" lon="11.3098711"><ele>1245.8</ele><time>2026-04-26T16:03:10.008Z</time></trkpt><trkpt lat="46.150393" lon="11.3097877"><ele>1248.0</ele><time>2026-04-26T16:03:11.008Z</time></trkpt><trkpt lat="46.1503288" lon="11.309731"><ele>1248.0</ele><time>2026-04-26T16:03:12.008Z</time></trkpt><trkpt lat="46.150263" lon="11.3097156"><ele>1248.0</ele><time>2026-04-26T16:03:13.008Z</time></trkpt><trkpt lat="46.1501984" lon="11.3097537"><ele>1248.0</ele><time>2026-04-26T16:03:14.008Z</time></trkpt><trkpt lat="46.1501604" lon="11.3099193"><ele>1248.0</ele><time>2026-04-26T16:03:16.008Z</time></trkpt><trkpt lat="46.1501941" lon="11.3100226"><ele>1248.0</ele><time>2026-04-26T16:03:17.008Z</time></trkpt><trkpt lat="46.1502599" lon="11.3101068"><ele>1248.0</ele><time>2026-04-26T16:03:18.008Z</time></trkpt><trkpt lat="46.15035" lon="11.3101793"><ele>1248.0</ele><time>2026-04-26T16:03:19.008Z</time></trkpt><trkpt lat="46.150454" lon="11.3102376"><ele>1248.0</ele><time>2026-04-26T16:03:20.008Z</time></trkpt><trkpt lat="46.1505688" lon="11.3102813"><ele>1248.0</ele><time>2026-04-26T16:03:21.008Z</time></trkpt><trkpt lat="46.1506777" lon="11.3103196"><ele>1248.0</ele><time>2026-04-26T16:03:22.008Z</time></trkpt><trkpt lat="46.150774" lon="11.3103505"><ele>1248.0</ele><time>2026-04-26T16:03:23.008Z</time></trkpt><trkpt lat="46.1508515" lon="11.3103943"><ele>1248.0</ele><time>2026-04-26T16:03:24.008Z</time></trkpt><trkpt lat="46.1508583" lon="11.3105354"><ele>1248.0</ele><time>2026-04-26T16:03:26.008Z</time></trkpt><trkpt lat="46.1508094" lon="11.3105936"><ele>1248.0</ele><time>2026-04-26T16:03:27.008Z</time></trkpt><trkpt lat="46.1507326" lon="11.3106094"><ele>1248.0</ele><time>2026-04-26T16:03:28.008Z</time></trkpt><trkpt lat="46.1506372" lon="11.3105976"><ele>1248.0</ele><time>2026-04-26T16:03:29.008Z</time></trkpt><trkpt lat="46.1505311" lon="11.3105681"><ele>1248.0</ele><time>2026-04-26T16:03:30.008Z</time></trkpt><trkpt lat="46.1504151" lon="11.310537"><ele>1248.0</ele><time>2026-04-26T16:03:31.008Z</time></trkpt><trkpt lat="46.1502877" lon="11.3104975"><ele>1248.0</ele><time>2026-04-26T16:03:32.008Z</time></trkpt><trkpt lat="46.1501456" lon="11.3104653"><ele>1248.0</ele><time>2026-04-26T16:03:33.008Z</time></trkpt><trkpt lat="46.1499905" lon="11.3104477"><ele>1248.0</ele><time>2026-04-26T16:03:34.009Z</time></trkpt><trkpt lat="46.1498216" lon="11.3104577"><ele>1255.6666666666667</ele><time>2026-04-26T16:03:35.008Z</time></trkpt><trkpt lat="46.1496496" lon="11.3105097"><ele>1263.3333333333335</ele><time>2026-04-26T16:03:36.008Z</time></trkpt><trkpt lat="46.1494756" lon="11.3105889"><ele>1271.0</ele><time>2026-04-26T16:03:37.008Z</time></trkpt><trkpt lat="46.1492945" lon="11.3106728"><ele>1272.3333333333335</ele><time>2026-04-26T16:03:38.008Z</time></trkpt><trkpt lat="46.1491026" lon="11.3107468"><ele>1273.6666666666667</ele><time>2026-04-26T16:03:39.008Z</time></trkpt><trkpt lat="46.1488929" lon="11.3108178"><ele>1275.0</ele><time>2026-04-26T16:03:40.008Z</time></trkpt><trkpt lat="46.1486777" lon="11.3108982"><ele>1279.3333333333333</ele><time>2026-04-26T16:03:41.008Z</time></trkpt><trkpt lat="46.1484639" lon="11.3109977"><ele>1283.6666666666665</ele><time>2026-04-26T16:03:42.008Z</time></trkpt><trkpt lat="46.1482592" lon="11.3111124"><ele>1288.0</ele><time>2026-04-26T16:03:43.008Z</time></trkpt><trkpt lat="46.148065" lon="11.3112172"><ele>1292.3333333333333</ele><time>2026-04-26T16:03:44.008Z</time></trkpt><trkpt lat="46.147893" lon="11.3113226"><ele>1296.6666666666667</ele><time>2026-04-26T16:03:45.009Z</time></trkpt><trkpt lat="46.1477359" lon="11.3114057"><ele>1301.0</ele><time>2026-04-26T16:03:46.008Z</time></trkpt><trkpt lat="46.1475896" lon="11.3114837"><ele>1301.0</ele><time>2026-04-26T16:03:47.008Z</time></trkpt><trkpt lat="46.1474516" lon="11.3115554"><ele>1301.0</ele><time>2026-04-26T16:03:48.008Z</time></trkpt><trkpt lat="46.1473264" lon="11.3116264"><ele>1301.0</ele><time>2026-04-26T16:03:49.008Z</time></trkpt><trkpt lat="46.1472102" lon="11.3116856"><ele>1301.0</ele><time>2026-04-26T16:03:50.008Z</time></trkpt><trkpt lat="46.1471088" lon="11.3117344"><ele>1302.3333333333335</ele><time>2026-04-26T16:03:51.008Z</time></trkpt><trkpt lat="46.1470257" lon="11.3117792"><ele>1303.6666666666667</ele><time>2026-04-26T16:03:52.008Z</time></trkpt><trkpt lat="46.1469571" lon="11.311829"><ele>1305.0</ele><time>2026-04-26T16:03:53.008Z</time></trkpt><trkpt lat="46.1469042" lon="11.3118848"><ele>1306.3333333333333</ele><time>2026-04-26T16:03:54.008Z</time></trkpt><trkpt lat="46.1468885" lon="11.3120449"><ele>1307.6666666666665</ele><time>2026-04-26T16:03:56.008Z</time></trkpt><trkpt lat="46.1469303" lon="11.3121211"><ele>1309.0</ele><time>2026-04-26T16:03:57.008Z</time></trkpt><trkpt lat="46.1470045" lon="11.3121512"><ele>1309.0</ele><time>2026-04-26T16:03:58.008Z</time></trkpt><trkpt lat="46.1471138" lon="11.3121454"><ele>1309.0</ele><time>2026-04-26T16:03:59.008Z</time></trkpt><trkpt lat="46.1472238" lon="11.3121283"><ele>1309.0</ele><time>2026-04-26T16:04:00.008Z</time></trkpt><trkpt lat="46.1473449" lon="11.31211"><ele>1309.0</ele><time>2026-04-26T16:04:01.008Z</time></trkpt><trkpt lat="46.1474567" lon="11.3120996"><ele>1307.6666666666665</ele><time>2026-04-26T16:04:02.008Z</time></trkpt><trkpt lat="46.1475532" lon="11.3121016"><ele>1306.3333333333333</ele><time>2026-04-26T16:04:03.008Z</time></trkpt><trkpt lat="46.1476386" lon="11.3121108"><ele>1305.0</ele><time>2026-04-26T16:04:04.008Z</time></trkpt><trkpt lat="46.1477094" lon="11.3121309"><ele>1303.6666666666667</ele><time>2026-04-26T16:04:05.008Z</time></trkpt><trkpt lat="46.1477524" lon="11.3122789"><ele>1302.3333333333335</ele><time>2026-04-26T16:04:07.008Z</time></trkpt><trkpt lat="46.1477097" lon="11.3123562"><ele>1301.0</ele><time>2026-04-26T16:04:08.008Z</time></trkpt><trkpt lat="46.1476449" lon="11.3124153"><ele>1306.25</ele><time>2026-04-26T16:04:09.008Z</time></trkpt><trkpt lat="46.1475393" lon="11.3124451"><ele>1311.5</ele><time>2026-04-26T16:04:10.008Z</time></trkpt><trkpt lat="46.1474088" lon="11.3124548"><ele>1316.75</ele><time>2026-04-26T16:04:11.008Z</time></trkpt><trkpt lat="46.1472635" lon="11.3124686"><ele>1322.0</ele><time>2026-04-26T16:04:12.008Z</time></trkpt><trkpt lat="46.1470897" lon="11.3124897"><ele>1323.3333333333335</ele><time>2026-04-26T16:04:13.008Z</time></trkpt><trkpt lat="46.1468993" lon="11.312522"><ele>1324.6666666666667</ele><time>2026-04-26T16:04:14.008Z</time></trkpt><trkpt lat="46.1466961" lon="11.3125512"><ele>1326.0</ele><time>2026-04-26T16:04:15.008Z</time></trkpt><trkpt lat="46.1464928" lon="11.3125859"><ele>1328.0</ele><time>2026-04-26T16:04:16.008Z</time></trkpt><trkpt lat="46.1462841" lon="11.3126487"><ele>1330.0</ele><time>2026-04-26T16:04:17.008Z</time></trkpt><trkpt lat="46.1460639" lon="11.3127463"><ele>1332.0</ele><time>2026-04-26T16:04:18.008Z</time></trkpt><trkpt lat="46.1458434" lon="11.3128654"><ele>1340.0</ele><time>2026-04-26T16:04:19.008Z</time></trkpt><trkpt lat="46.1456211" lon="11.3129903"><ele>1348.0</ele><time>2026-04-26T16:04:20.008Z</time></trkpt><trkpt lat="46.145394" lon="11.3131177"><ele>1348.0</ele><time>2026-04-26T16:04:21.008Z</time></trkpt><trkpt lat="46.1451598" lon="11.3132407"><ele>1348.0</ele><time>2026-04-26T16:04:22.008Z</time></trkpt><trkpt lat="46.1449185" lon="11.3133445"><ele>1356.0</ele><time>2026-04-26T16:04:23.008Z</time></trkpt><trkpt lat="46.1446809" lon="11.3134374"><ele>1364.0</ele><time>2026-04-26T16:04:24.008Z</time></trkpt><trkpt lat="46.144438" lon="11.3135285"><ele>1364.0</ele><time>2026-04-26T16:04:25.008Z</time></trkpt><trkpt lat="46.144195" lon="11.3136277"><ele>1364.0</ele><time>2026-04-26T16:04:26.008Z</time></trkpt><trkpt lat="46.1439478" lon="11.3137348"><ele>1369.5</ele><time>2026-04-26T16:04:27.009Z</time></trkpt><trkpt lat="46.1437139" lon="11.3138475"><ele>1375.0</ele><time>2026-04-26T16:04:28.008Z</time></trkpt><trkpt lat="46.1435035" lon="11.3139564"><ele>1375.3333333333333</ele><time>2026-04-26T16:04:29.008Z</time></trkpt><trkpt lat="46.1433142" lon="11.3140449"><ele>1375.6666666666667</ele><time>2026-04-26T16:04:30.008Z</time></trkpt><trkpt lat="46.1431449" lon="11.3141289"><ele>1376.0</ele><time>2026-04-26T16:04:31.008Z</time></trkpt><trkpt lat="46.1429899" lon="11.3142137"><ele>1377.0</ele><time>2026-04-26T16:04:32.008Z</time></trkpt><trkpt lat="46.1428418" lon="11.3142899"><ele>1378.0</ele><time>2026-04-26T16:04:33.009Z</time></trkpt><trkpt lat="46.1427008" lon="11.3143487"><ele>1379.0</ele><time>2026-04-26T16:04:34.008Z</time></trkpt><trkpt lat="46.1425568" lon="11.3143869"><ele>1379.0</ele><time>2026-04-26T16:04:35.008Z</time></trkpt><trkpt lat="46.1424099" lon="11.3143898"><ele>1379.0</ele><time>2026-04-26T16:04:36.008Z</time></trkpt><trkpt lat="46.1422655" lon="11.314369"><ele>1379.0</ele><time>2026-04-26T16:04:37.008Z</time></trkpt><trkpt lat="46.1421279" lon="11.3143263"><ele>1379.0</ele><time>2026-04-26T16:04:38.008Z</time></trkpt><trkpt lat="46.1420033" lon="11.3142874"><ele>1383.0</ele><time>2026-04-26T16:04:39.008Z</time></trkpt><trkpt lat="46.1418931" lon="11.3142418"><ele>1387.0</ele><time>2026-04-26T16:04:40.008Z</time></trkpt><trkpt lat="46.1418017" lon="11.3142142"><ele>1391.0</ele><time>2026-04-26T16:04:41.008Z</time></trkpt><trkpt lat="46.141737" lon="11.3142257"><ele>1395.0</ele><time>2026-04-26T16:04:42.008Z</time></trkpt><trkpt lat="46.1416508" lon="11.3143475"><ele>1399.0</ele><time>2026-04-26T16:04:44.008Z</time></trkpt><trkpt lat="46.1416912" lon="11.3145142"><ele>1399.0</ele><time>2026-04-26T16:04:46.008Z</time></trkpt><trkpt lat="46.1417538" lon="11.314592"><ele>1399.0</ele><time>2026-04-26T16:04:47.008Z</time></trkpt><trkpt lat="46.141846" lon="11.314651"><ele>1399.0</ele><time>2026-04-26T16:04:48.008Z</time></trkpt><trkpt lat="46.1419571" lon="11.3146943"><ele>1399.0</ele><time>2026-04-26T16:04:49.008Z</time></trkpt><trkpt lat="46.1420743" lon="11.3147394"><ele>1399.0</ele><time>2026-04-26T16:04:50.008Z</time></trkpt><trkpt lat="46.1421756" lon="11.3147859"><ele>1398.8333333333333</ele><time>2026-04-26T16:04:51.008Z</time></trkpt><trkpt lat="46.1422668" lon="11.3148349"><ele>1398.6666666666665</ele><time>2026-04-26T16:04:52.008Z</time></trkpt><trkpt lat="46.1423313" lon="11.3149007"><ele>1398.5</ele><time>2026-04-26T16:04:53.008Z</time></trkpt><trkpt lat="46.1423257" lon="11.3150309"><ele>1398.3333333333333</ele><time>2026-04-26T16:04:55.008Z</time></trkpt><trkpt lat="46.1422713" lon="11.315096"><ele>1398.1666666666667</ele><time>2026-04-26T16:04:56.009Z</time></trkpt><trkpt lat="46.142192" lon="11.3151466"><ele>1398.0</ele><time>2026-04-26T16:04:57.008Z</time></trkpt><trkpt lat="46.1420991" lon="11.3151898"><ele>1398.0</ele><time>2026-04-26T16:04:58.008Z</time></trkpt><trkpt lat="46.1419914" lon="11.315227"><ele>1398.0</ele><time>2026-04-26T16:04:59.008Z</time></trkpt><trkpt lat="46.1418649" lon="11.3152643"><ele>1398.0</ele><time>2026-04-26T16:05:00.008Z</time></trkpt><trkpt lat="46.1417349" lon="11.3153038"><ele>1398.0</ele><time>2026-04-26T16:05:01.008Z</time></trkpt><trkpt lat="46.1416123" lon="11.3153423"><ele>1401.0</ele><time>2026-04-26T16:05:02.009Z</time></trkpt><trkpt lat="46.1415013" lon="11.3153764"><ele>1404.0</ele><time>2026-04-26T16:05:03.008Z</time></trkpt><trkpt lat="46.1414134" lon="11.3154254"><ele>1407.0</ele><time>2026-04-26T16:05:04.008Z</time></trkpt><trkpt lat="46.1413553" lon="11.3154845"><ele>1410.0</ele><time>2026-04-26T16:05:05.008Z</time></trkpt><trkpt lat="46.1413464" lon="11.3156539"><ele>1413.0</ele><time>2026-04-26T16:05:07.008Z</time></trkpt><trkpt lat="46.1414054" lon="11.315719"><ele>1413.0</ele><time>2026-04-26T16:05:08.008Z</time></trkpt><trkpt lat="46.1414822" lon="11.3157579"><ele>1413.0</ele><time>2026-04-26T16:05:09.008Z</time></trkpt><trkpt lat="46.1415744" lon="11.3157581"><ele>1413.0</ele><time>2026-04-26T16:05:10.008Z</time></trkpt><trkpt lat="46.1416772" lon="11.3157525"><ele>1413.0</ele><time>2026-04-26T16:05:11.008Z</time></trkpt><trkpt lat="46.1417834" lon="11.3157496"><ele>1413.0</ele><time>2026-04-26T16:05:12.008Z</time></trkpt><trkpt lat="46.1418849" lon="11.3157525"><ele>1412.8000000000002</ele><time>2026-04-26T16:05:13.008Z</time></trkpt><trkpt lat="46.1419743" lon="11.3157588"><ele>1412.6</ele><time>2026-04-26T16:05:14.008Z</time></trkpt><trkpt lat="46.1420502" lon="11.3157751"><ele>1412.4</ele><time>2026-04-26T16:05:15.008Z</time></trkpt><trkpt lat="46.1421169" lon="11.3158055"><ele>1412.1999999999998</ele><time>2026-04-26T16:05:16.008Z</time></trkpt><trkpt lat="46.1421574" lon="11.3159401"><ele>1412.0</ele><time>2026-04-26T16:05:18.008Z</time></trkpt><trkpt lat="46.1420628" lon="11.3160367"><ele>1412.0</ele><time>2026-04-26T16:05:20.008Z</time></trkpt><trkpt lat="46.1419753" lon="11.3160731"><ele>1412.0</ele><time>2026-04-26T16:05:21.008Z</time></trkpt><trkpt lat="46.1418857" lon="11.3160927"><ele>1412.0</ele><time>2026-04-26T16:05:22.008Z</time></trkpt><trkpt lat="46.1417789" lon="11.3161154"><ele>1412.0</ele><time>2026-04-26T16:05:23.008Z</time></trkpt><trkpt lat="46.1416632" lon="11.3161427"><ele>1412.0</ele><time>2026-04-26T16:05:24.008Z</time></trkpt><trkpt lat="46.1415493" lon="11.3161848"><ele>1412.25</ele><time>2026-04-26T16:05:25.008Z</time></trkpt><trkpt lat="46.1414336" lon="11.3162564"><ele>1412.5</ele><time>2026-04-26T16:05:26.008Z</time></trkpt><trkpt lat="46.1413289" lon="11.3163539"><ele>1412.75</ele><time>2026-04-26T16:05:27.008Z</time></trkpt><trkpt lat="46.1412381" lon="11.3164749"><ele>1413.0</ele><time>2026-04-26T16:05:28.008Z</time></trkpt><trkpt lat="46.141159" lon="11.3166209"><ele>1415.6666666666667</ele><time>2026-04-26T16:05:29.008Z</time></trkpt><trkpt lat="46.1410776" lon="11.3167942"><ele>1418.3333333333335</ele><time>2026-04-26T16:05:30.008Z</time></trkpt><trkpt lat="46.1409898" lon="11.3169762"><ele>1421.0</ele><time>2026-04-26T16:05:31.008Z</time></trkpt><trkpt lat="46.140903" lon="11.317163"><ele>1424.0</ele><time>2026-04-26T16:05:32.008Z</time></trkpt><trkpt lat="46.1408115" lon="11.3173503"><ele>1427.0</ele><time>2026-04-26T16:05:33.008Z</time></trkpt><trkpt lat="46.1407106" lon="11.3175498"><ele>1430.0</ele><time>2026-04-26T16:05:34.008Z</time></trkpt><trkpt lat="46.1406036" lon="11.3177627"><ele>1430.3333333333335</ele><time>2026-04-26T16:05:35.008Z</time></trkpt><trkpt lat="46.140491" lon="11.3179835"><ele>1430.6666666666667</ele><time>2026-04-26T16:05:36.009Z</time></trkpt><trkpt lat="46.140381" lon="11.3182092"><ele>1431.0</ele><time>2026-04-26T16:05:37.008Z</time></trkpt><trkpt lat="46.1402651" lon="11.318433"><ele>1432.3333333333333</ele><time>2026-04-26T16:05:38.008Z</time></trkpt><trkpt lat="46.1401393" lon="11.3186537"><ele>1433.6666666666665</ele><time>2026-04-26T16:05:39.008Z</time></trkpt><trkpt lat="46.1399973" lon="11.3188661"><ele>1435.0</ele><time>2026-04-26T16:05:40.008Z</time></trkpt><trkpt lat="46.1398398" lon="11.3190624"><ele>1435.0</ele><time>2026-04-26T16:05:41.008Z</time></trkpt><trkpt lat="46.1396696" lon="11.3192429"><ele>1435.0</ele><time>2026-04-26T16:05:42.008Z</time></trkpt><trkpt lat="46.1394966" lon="11.3194202"><ele>1435.0</ele><time>2026-04-26T16:05:43.008Z</time></trkpt><trkpt lat="46.139324" lon="11.3196192"><ele>1438.3333333333333</ele><time>2026-04-26T16:05:44.008Z</time></trkpt><trkpt lat="46.1391529" lon="11.3198106"><ele>1441.6666666666667</ele><time>2026-04-26T16:05:45.008Z</time></trkpt><trkpt lat="46.1389833" lon="11.3200034"><ele>1445.0</ele><time>2026-04-26T16:05:46.008Z</time></trkpt><trkpt lat="46.1388136" lon="11.3201878"><ele>1445.0</ele><time>2026-04-26T16:05:47.009Z</time></trkpt><trkpt lat="46.1386476" lon="11.3203708"><ele>1445.0</ele><time>2026-04-26T16:05:48.008Z</time></trkpt><trkpt lat="46.1384767" lon="11.3205367"><ele>1445.0</ele><time>2026-04-26T16:05:49.008Z</time></trkpt><trkpt lat="46.1382981" lon="11.3206823"><ele>1447.6666666666667</ele><time>2026-04-26T16:05:50.008Z</time></trkpt><trkpt lat="46.1381199" lon="11.3208159"><ele>1450.3333333333333</ele><time>2026-04-26T16:05:51.008Z</time></trkpt><trkpt lat="46.1379397" lon="11.3209356"><ele>1453.0</ele><time>2026-04-26T16:05:52.008Z</time></trkpt><trkpt lat="46.1377667" lon="11.3210548"><ele>1453.0</ele><time>2026-04-26T16:05:53.008Z</time></trkpt><trkpt lat="46.1376029" lon="11.3211711"><ele>1453.0</ele><time>2026-04-26T16:05:54.009Z</time></trkpt><trkpt lat="46.1374484" lon="11.3212817"><ele>1453.0</ele><time>2026-04-26T16:05:55.008Z</time></trkpt><trkpt lat="46.1373036" lon="11.3213946"><ele>1453.75</ele><time>2026-04-26T16:05:56.008Z</time></trkpt><trkpt lat="46.1371823" lon="11.3215162"><ele>1454.5</ele><time>2026-04-26T16:05:57.008Z</time></trkpt><trkpt lat="46.1370807" lon="11.3216612"><ele>1455.25</ele><time>2026-04-26T16:05:58.008Z</time></trkpt><trkpt lat="46.1370039" lon="11.3218234"><ele>1456.0</ele><time>2026-04-26T16:05:59.008Z</time></trkpt><trkpt lat="46.136942" lon="11.3220037"><ele>1456.0</ele><time>2026-04-26T16:06:00.008Z</time></trkpt><trkpt lat="46.1368717" lon="11.3221949"><ele>1456.0</ele><time>2026-04-26T16:06:01.009Z</time></trkpt><trkpt lat="46.1367817" lon="11.3223663"><ele>1456.0</ele><time>2026-04-26T16:06:02.008Z</time></trkpt><trkpt lat="46.1366665" lon="11.3225187"><ele>1458.3333333333333</ele><time>2026-04-26T16:06:03.008Z</time></trkpt><trkpt lat="46.1365309" lon="11.3226365"><ele>1460.6666666666667</ele><time>2026-04-26T16:06:04.008Z</time></trkpt><trkpt lat="46.1363854" lon="11.322757"><ele>1463.0</ele><time>2026-04-26T16:06:05.008Z</time></trkpt><trkpt lat="46.1362405" lon="11.3228677"><ele>1463.0</ele><time>2026-04-26T16:06:06.008Z</time></trkpt><trkpt lat="46.1361053" lon="11.3229692"><ele>1463.0</ele><time>2026-04-26T16:06:07.008Z</time></trkpt><trkpt lat="46.1359783" lon="11.323077"><ele>1463.0</ele><time>2026-04-26T16:06:08.008Z</time></trkpt><trkpt lat="46.1358646" lon="11.3231835"><ele>1463.0</ele><time>2026-04-26T16:06:09.008Z</time></trkpt><trkpt lat="46.1357656" lon="11.3232983"><ele>1466.0</ele><time>2026-04-26T16:06:10.008Z</time></trkpt><trkpt lat="46.1356845" lon="11.3234206"><ele>1469.0</ele><time>2026-04-26T16:06:11.009Z</time></trkpt><trkpt lat="46.1356048" lon="11.3235509"><ele>1472.0</ele><time>2026-04-26T16:06:12.008Z</time></trkpt><trkpt lat="46.1355359" lon="11.3236872"><ele>1475.0</ele><time>2026-04-26T16:06:13.008Z</time></trkpt><trkpt lat="46.135476" lon="11.3238427"><ele>1472.0</ele><time>2026-04-26T16:06:14.008Z</time></trkpt><trkpt lat="46.1354165" lon="11.3240035"><ele>1469.0</ele><time>2026-04-26T16:06:15.008Z</time></trkpt><trkpt lat="46.1353523" lon="11.3241759"><ele>1466.0</ele><time>2026-04-26T16:06:16.008Z</time></trkpt><trkpt lat="46.1352748" lon="11.3243409"><ele>1463.0</ele><time>2026-04-26T16:06:17.008Z</time></trkpt><trkpt lat="46.1351897" lon="11.3245067"><ele>1463.0</ele><time>2026-04-26T16:06:18.008Z</time></trkpt><trkpt lat="46.1351094" lon="11.3246641"><ele>1463.0</ele><time>2026-04-26T16:06:19.008Z</time></trkpt><trkpt lat="46.1350236" lon="11.324817"><ele>1463.0</ele><time>2026-04-26T16:06:20.008Z</time></trkpt><trkpt lat="46.1349347" lon="11.3249573"><ele>1463.0</ele><time>2026-04-26T16:06:21.008Z</time></trkpt><trkpt lat="46.1348292" lon="11.3250835"><ele>1465.75</ele><time>2026-04-26T16:06:22.008Z</time></trkpt><trkpt lat="46.1347101" lon="11.3251925"><ele>1468.5</ele><time>2026-04-26T16:06:23.008Z</time></trkpt><trkpt lat="46.1345798" lon="11.325291"><ele>1471.25</ele><time>2026-04-26T16:06:24.008Z</time></trkpt><trkpt lat="46.1344435" lon="11.3253848"><ele>1474.0</ele><time>2026-04-26T16:06:25.008Z</time></trkpt><trkpt lat="46.1342992" lon="11.3254685"><ele>1474.0</ele><time>2026-04-26T16:06:26.008Z</time></trkpt><trkpt lat="46.134157" lon="11.325558"><ele>1474.0</ele><time>2026-04-26T16:06:27.008Z</time></trkpt><trkpt lat="46.1340173" lon="11.3256427"><ele>1474.0</ele><time>2026-04-26T16:06:28.007Z</time></trkpt><trkpt lat="46.1338791" lon="11.3257311"><ele>1472.3333333333333</ele><time>2026-04-26T16:06:29.007Z</time></trkpt><trkpt lat="46.1337457" lon="11.3258375"><ele>1470.6666666666667</ele><time>2026-04-26T16:06:30.007Z</time></trkpt><trkpt lat="46.1336135" lon="11.3259571"><ele>1469.0</ele><time>2026-04-26T16:06:31.007Z</time></trkpt><trkpt lat="46.1334723" lon="11.3261094"><ele>1469.0</ele><time>2026-04-26T16:06:32.007Z</time></trkpt><trkpt lat="46.1333306" lon="11.3262798"><ele>1469.0</ele><time>2026-04-26T16:06:33.007Z</time></trkpt><trkpt lat="46.1331891" lon="11.3264635"><ele>1469.0</ele><time>2026-04-26T16:06:34.007Z</time></trkpt><trkpt lat="46.1330474" lon="11.3266354"><ele>1469.3333333333335</ele><time>2026-04-26T16:06:35.007Z</time></trkpt><trkpt lat="46.1328998" lon="11.3268038"><ele>1469.6666666666667</ele><time>2026-04-26T16:06:36.007Z</time></trkpt><trkpt lat="46.132746" lon="11.3269797"><ele>1470.0</ele><time>2026-04-26T16:06:37.007Z</time></trkpt><trkpt lat="46.1325895" lon="11.3271554"><ele>1471.3333333333333</ele><time>2026-04-26T16:06:38.007Z</time></trkpt><trkpt lat="46.1324301" lon="11.3273326"><ele>1472.6666666666665</ele><time>2026-04-26T16:06:39.007Z</time></trkpt><trkpt lat="46.1322712" lon="11.3275075"><ele>1474.0</ele><time>2026-04-26T16:06:40.007Z</time></trkpt><trkpt lat="46.1321201" lon="11.3276897"><ele>1474.0</ele><time>2026-04-26T16:06:41.007Z</time></trkpt><trkpt lat="46.1319694" lon="11.3278655"><ele>1474.0</ele><time>2026-04-26T16:06:42.007Z</time></trkpt><trkpt lat="46.1318197" lon="11.3280459"><ele>1474.0</ele><time>2026-04-26T16:06:43.007Z</time></trkpt><trkpt lat="46.1316758" lon="11.3282301"><ele>1471.0</ele><time>2026-04-26T16:06:44.007Z</time></trkpt><trkpt lat="46.1315338" lon="11.3284069"><ele>1468.0</ele><time>2026-04-26T16:06:45.007Z</time></trkpt><trkpt lat="46.1313967" lon="11.3285887"><ele>1465.0</ele><time>2026-04-26T16:06:46.007Z</time></trkpt><trkpt lat="46.1312733" lon="11.3287766"><ele>1454.3333333333333</ele><time>2026-04-26T16:06:47.007Z</time></trkpt><trkpt lat="46.1311433" lon="11.3289562"><ele>1443.6666666666667</ele><time>2026-04-26T16:06:48.007Z</time></trkpt><trkpt lat="46.1310129" lon="11.3291406"><ele>1433.0</ele><time>2026-04-26T16:06:49.007Z</time></trkpt><trkpt lat="46.1308997" lon="11.3293322"><ele>1433.0</ele><time>2026-04-26T16:06:50.007Z</time></trkpt><trkpt lat="46.1307886" lon="11.3295314"><ele>1433.0</ele><time>2026-04-26T16:06:51.007Z</time></trkpt><trkpt lat="46.1306781" lon="11.3297142"><ele>1433.0</ele><time>2026-04-26T16:06:52.007Z</time></trkpt><trkpt lat="46.1305608" lon="11.3298782"><ele>1425.0</ele><time>2026-04-26T16:06:53.007Z</time></trkpt><trkpt lat="46.1304446" lon="11.3300124"><ele>1417.0</ele><time>2026-04-26T16:06:54.008Z</time></trkpt><trkpt lat="46.1303337" lon="11.3301328"><ele>1409.0</ele><time>2026-04-26T16:06:55.007Z</time></trkpt><trkpt lat="46.1302326" lon="11.3302461"><ele>1401.0</ele><time>2026-04-26T16:06:56.007Z</time></trkpt><trkpt lat="46.1301542" lon="11.3303508"><ele>1401.0</ele><time>2026-04-26T16:06:57.007Z</time></trkpt><trkpt lat="46.1301047" lon="11.3304657"><ele>1401.0</ele><time>2026-04-26T16:06:58.007Z</time></trkpt><trkpt lat="46.1300848" lon="11.3305925"><ele>1401.0</ele><time>2026-04-26T16:06:59.007Z</time></trkpt><trkpt lat="46.1300885" lon="11.3307363"><ele>1401.0</ele><time>2026-04-26T16:07:00.007Z</time></trkpt><trkpt lat="46.1301058" lon="11.3308953"><ele>1401.0</ele><time>2026-04-26T16:07:01.007Z</time></trkpt><trkpt lat="46.1301019" lon="11.331054"><ele>1401.6</ele><time>2026-04-26T16:07:02.007Z</time></trkpt><trkpt lat="46.130065" lon="11.3311989"><ele>1402.1999999999998</ele><time>2026-04-26T16:07:03.007Z</time></trkpt><trkpt lat="46.1300028" lon="11.3313223"><ele>1402.8000000000002</ele><time>2026-04-26T16:07:04.007Z</time></trkpt><trkpt lat="46.1299194" lon="11.3314242"><ele>1403.4</ele><time>2026-04-26T16:07:05.007Z</time></trkpt><trkpt lat="46.1298184" lon="11.3315005"><ele>1404.0</ele><time>2026-04-26T16:07:06.007Z</time></trkpt><trkpt lat="46.129706" lon="11.3315832"><ele>1398.75</ele><time>2026-04-26T16:07:07.007Z</time></trkpt><trkpt lat="46.1296023" lon="11.3316667"><ele>1393.5</ele><time>2026-04-26T16:07:08.007Z</time></trkpt><trkpt lat="46.1295036" lon="11.3317779"><ele>1388.25</ele><time>2026-04-26T16:07:09.007Z</time></trkpt><trkpt lat="46.1294213" lon="11.3319103"><ele>1383.0</ele><time>2026-04-26T16:07:10.007Z</time></trkpt><trkpt lat="46.1293439" lon="11.3320618"><ele>1383.0</ele><time>2026-04-26T16:07:11.007Z</time></trkpt><trkpt lat="46.1292672" lon="11.3322126"><ele>1383.0</ele><time>2026-04-26T16:07:12.007Z</time></trkpt><trkpt lat="46.1292043" lon="11.3323623"><ele>1383.0</ele><time>2026-04-26T16:07:13.007Z</time></trkpt><trkpt lat="46.1291541" lon="11.3325201"><ele>1383.0</ele><time>2026-04-26T16:07:14.007Z</time></trkpt><trkpt lat="46.129139" lon="11.3327025"><ele>1384.25</ele><time>2026-04-26T16:07:15.007Z</time></trkpt><trkpt lat="46.1291303" lon="11.3328848"><ele>1385.5</ele><time>2026-04-26T16:07:16.007Z</time></trkpt><trkpt lat="46.1291148" lon="11.3330668"><ele>1386.75</ele><time>2026-04-26T16:07:17.007Z</time></trkpt><trkpt lat="46.1291013" lon="11.3332381"><ele>1388.0</ele><time>2026-04-26T16:07:18.007Z</time></trkpt><trkpt lat="46.1291066" lon="11.3334054"><ele>1388.0</ele><time>2026-04-26T16:07:19.007Z</time></trkpt><trkpt lat="46.1291394" lon="11.33357"><ele>1388.0</ele><time>2026-04-26T16:07:20.007Z</time></trkpt><trkpt lat="46.1291949" lon="11.3337235"><ele>1388.0</ele><time>2026-04-26T16:07:21.007Z</time></trkpt><trkpt lat="46.1292748" lon="11.3338702"><ele>1388.0</ele><time>2026-04-26T16:07:22.007Z</time></trkpt><trkpt lat="46.1293595" lon="11.3340344"><ele>1384.0</ele><time>2026-04-26T16:07:23.007Z</time></trkpt><trkpt lat="46.1294313" lon="11.3342129"><ele>1380.0</ele><time>2026-04-26T16:07:24.007Z</time></trkpt><trkpt lat="46.1294898" lon="11.3344022"><ele>1376.0</ele><time>2026-04-26T16:07:25.007Z</time></trkpt><trkpt lat="46.1295485" lon="11.3346051"><ele>1372.0</ele><time>2026-04-26T16:07:26.007Z</time></trkpt><trkpt lat="46.1296116" lon="11.3348073"><ele>1361.6666666666665</ele><time>2026-04-26T16:07:27.007Z</time></trkpt><trkpt lat="46.1296773" lon="11.3350086"><ele>1351.3333333333333</ele><time>2026-04-26T16:07:28.007Z</time></trkpt><trkpt lat="46.1297406" lon="11.3352196"><ele>1341.0</ele><time>2026-04-26T16:07:29.007Z</time></trkpt><trkpt lat="46.1297973" lon="11.3354447"><ele>1336.3333333333333</ele><time>2026-04-26T16:07:30.008Z</time></trkpt><trkpt lat="46.1298386" lon="11.3356707"><ele>1331.6666666666665</ele><time>2026-04-26T16:07:31.007Z</time></trkpt><trkpt lat="46.1298596" lon="11.3358999"><ele>1327.0</ele><time>2026-04-26T16:07:32.007Z</time></trkpt><trkpt lat="46.1298619" lon="11.3361404"><ele>1322.0</ele><time>2026-04-26T16:07:33.007Z</time></trkpt><trkpt lat="46.1298551" lon="11.3363889"><ele>1317.0</ele><time>2026-04-26T16:07:34.007Z</time></trkpt><trkpt lat="46.1298531" lon="11.3366283"><ele>1312.0</ele><time>2026-04-26T16:07:35.007Z</time></trkpt><trkpt lat="46.1298505" lon="11.3368699"><ele>1312.0</ele><time>2026-04-26T16:07:36.007Z</time></trkpt><trkpt lat="46.1298452" lon="11.3371073"><ele>1312.0</ele><time>2026-04-26T16:07:37.007Z</time></trkpt><trkpt lat="46.1298369" lon="11.3373456"><ele>1312.0</ele><time>2026-04-26T16:07:38.007Z</time></trkpt><trkpt lat="46.1298282" lon="11.3375888"><ele>1308.0</ele><time>2026-04-26T16:07:39.007Z</time></trkpt><trkpt lat="46.1298239" lon="11.3378266"><ele>1304.0</ele><time>2026-04-26T16:07:40.007Z</time></trkpt><trkpt lat="46.1298305" lon="11.338063"><ele>1300.0</ele><time>2026-04-26T16:07:41.007Z</time></trkpt><trkpt lat="46.1298426" lon="11.3383064"><ele>1295.6666666666665</ele><time>2026-04-26T16:07:42.007Z</time></trkpt><trkpt lat="46.1298585" lon="11.3385541"><ele>1291.3333333333333</ele><time>2026-04-26T16:07:43.007Z</time></trkpt><trkpt lat="46.1298732" lon="11.3388038"><ele>1287.0</ele><time>2026-04-26T16:07:44.007Z</time></trkpt><trkpt lat="46.1298837" lon="11.3390379"><ele>1287.0</ele><time>2026-04-26T16:07:45.007Z</time></trkpt><trkpt lat="46.1298829" lon="11.3392663"><ele>1287.0</ele><time>2026-04-26T16:07:46.007Z</time></trkpt><trkpt lat="46.1298717" lon="11.3394818"><ele>1287.0</ele><time>2026-04-26T16:07:47.007Z</time></trkpt><trkpt lat="46.1298615" lon="11.3396722"><ele>1287.0</ele><time>2026-04-26T16:07:48.007Z</time></trkpt><trkpt lat="46.1298657" lon="11.3398575"><ele>1288.25</ele><time>2026-04-26T16:07:49.008Z</time></trkpt><trkpt lat="46.1298892" lon="11.3400176"><ele>1289.5</ele><time>2026-04-26T16:07:50.007Z</time></trkpt><trkpt lat="46.1299408" lon="11.3401661"><ele>1290.75</ele><time>2026-04-26T16:07:51.007Z</time></trkpt><trkpt lat="46.1300135" lon="11.3402934"><ele>1292.0</ele><time>2026-04-26T16:07:52.007Z</time></trkpt><trkpt lat="46.1301068" lon="11.3403851"><ele>1297.1999999999998</ele><time>2026-04-26T16:07:53.007Z</time></trkpt><trkpt lat="46.1302167" lon="11.3404424"><ele>1302.4</ele><time>2026-04-26T16:07:54.007Z</time></trkpt><trkpt lat="46.1303307" lon="11.3404889"><ele>1307.6</ele><time>2026-04-26T16:07:55.007Z</time></trkpt><trkpt lat="46.1304366" lon="11.3405298"><ele>1312.8000000000002</ele><time>2026-04-26T16:07:56.007Z</time></trkpt><trkpt lat="46.1305257" lon="11.3405877"><ele>1318.0</ele><time>2026-04-26T16:07:57.007Z</time></trkpt><trkpt lat="46.1305888" lon="11.3406582"><ele>1318.0</ele><time>2026-04-26T16:07:58.007Z</time></trkpt><trkpt lat="46.1306178" lon="11.3407448"><ele>1318.0</ele><time>2026-04-26T16:07:59.007Z</time></trkpt><trkpt lat="46.130576" lon="11.3409075"><ele>1318.0</ele><time>2026-04-26T16:08:01.007Z</time></trkpt><trkpt lat="46.1305107" lon="11.3409811"><ele>1318.0</ele><time>2026-04-26T16:08:02.007Z</time></trkpt><trkpt lat="46.1304389" lon="11.3410285"><ele>1318.0</ele><time>2026-04-26T16:08:03.007Z</time></trkpt><trkpt lat="46.13036" lon="11.3410657"><ele>1318.0</ele><time>2026-04-26T16:08:04.007Z</time></trkpt><trkpt lat="46.1302909" lon="11.3410834"><ele>1318.0</ele><time>2026-04-26T16:08:05.007Z</time></trkpt><trkpt lat="46.1301845" lon="11.3410202"><ele>1318.0</ele><time>2026-04-26T16:08:07.007Z</time></trkpt><trkpt lat="46.1301599" lon="11.3409317"><ele>1318.0</ele><time>2026-04-26T16:08:08.007Z</time></trkpt><trkpt lat="46.1301301" lon="11.3408202"><ele>1318.0</ele><time>2026-04-26T16:08:09.007Z</time></trkpt><trkpt lat="46.1300858" lon="11.340709"><ele>1318.0</ele><time>2026-04-26T16:08:10.007Z</time></trkpt><trkpt lat="46.1300287" lon="11.3405948"><ele>1321.4</ele><time>2026-04-26T16:08:11.007Z</time></trkpt><trkpt lat="46.1299554" lon="11.3404986"><ele>1324.8000000000002</ele><time>2026-04-26T16:08:12.007Z</time></trkpt><trkpt lat="46.1298703" lon="11.3404013"><ele>1328.2</ele><time>2026-04-26T16:08:13.007Z</time></trkpt><trkpt lat="46.1297756" lon="11.3403007"><ele>1331.6</ele><time>2026-04-26T16:08:14.007Z</time></trkpt><trkpt lat="46.1296863" lon="11.3401889"><ele>1335.0</ele><time>2026-04-26T16:08:15.007Z</time></trkpt><trkpt lat="46.1296093" lon="11.3400479"><ele>1324.25</ele><time>2026-04-26T16:08:16.007Z</time></trkpt><trkpt lat="46.1295463" lon="11.3398911"><ele>1313.5</ele><time>2026-04-26T16:08:17.007Z</time></trkpt><trkpt lat="46.1295111" lon="11.3397193"><ele>1302.75</ele><time>2026-04-26T16:08:18.007Z</time></trkpt><trkpt lat="46.1294991" lon="11.3395307"><ele>1292.0</ele><time>2026-04-26T16:08:19.007Z</time></trkpt><trkpt lat="46.1294937" lon="11.339338"><ele>1290.75</ele><time>2026-04-26T16:08:20.007Z</time></trkpt><trkpt lat="46.1294912" lon="11.3391356"><ele>1289.5</ele><time>2026-04-26T16:08:21.007Z</time></trkpt><trkpt lat="46.1294792" lon="11.338929"><ele>1288.25</ele><time>2026-04-26T16:08:22.007Z</time></trkpt><trkpt lat="46.1294591" lon="11.3387179"><ele>1287.0</ele><time>2026-04-26T16:08:23.007Z</time></trkpt><trkpt lat="46.1294293" lon="11.3385056"><ele>1286.25</ele><time>2026-04-26T16:08:24.007Z</time></trkpt><trkpt lat="46.1293954" lon="11.3382931"><ele>1285.5</ele><time>2026-04-26T16:08:25.007Z</time></trkpt><trkpt lat="46.1293655" lon="11.3380914"><ele>1284.75</ele><time>2026-04-26T16:08:26.007Z</time></trkpt><trkpt lat="46.1293323" lon="11.3378862"><ele>1284.0</ele><time>2026-04-26T16:08:27.007Z</time></trkpt><trkpt lat="46.1292987" lon="11.3376835"><ele>1288.0</ele><time>2026-04-26T16:08:28.007Z</time></trkpt><trkpt lat="46.1292596" lon="11.3374763"><ele>1292.0</ele><time>2026-04-26T16:08:29.007Z</time></trkpt><trkpt lat="46.1292213" lon="11.3372723"><ele>1296.0</ele><time>2026-04-26T16:08:30.007Z</time></trkpt><trkpt lat="46.1291883" lon="11.3370617"><ele>1300.0</ele><time>2026-04-26T16:08:31.007Z</time></trkpt><trkpt lat="46.1291499" lon="11.3368497"><ele>1303.0</ele><time>2026-04-26T16:08:32.007Z</time></trkpt><trkpt lat="46.1291159" lon="11.3366418"><ele>1306.0</ele><time>2026-04-26T16:08:33.007Z</time></trkpt><trkpt lat="46.1290743" lon="11.3364429"><ele>1309.0</ele><time>2026-04-26T16:08:34.007Z</time></trkpt><trkpt lat="46.1290242" lon="11.3362505"><ele>1312.0</ele><time>2026-04-26T16:08:35.007Z</time></trkpt><trkpt lat="46.1289659" lon="11.3360732"><ele>1302.0</ele><time>2026-04-26T16:08:36.007Z</time></trkpt><trkpt lat="46.1288981" lon="11.3358868"><ele>1292.0</ele><time>2026-04-26T16:08:37.007Z</time></trkpt><trkpt lat="46.1288329" lon="11.3357092"><ele>1282.0</ele><time>2026-04-26T16:08:38.007Z</time></trkpt><trkpt lat="46.1287654" lon="11.3355284"><ele>1272.0</ele><time>2026-04-26T16:08:39.007Z</time></trkpt><trkpt lat="46.1287065" lon="11.3353477"><ele>1272.0</ele><time>2026-04-26T16:08:40.007Z</time></trkpt><trkpt lat="46.1286324" lon="11.3351751"><ele>1272.0</ele><time>2026-04-26T16:08:41.007Z</time></trkpt><trkpt lat="46.1285461" lon="11.33503"><ele>1272.0</ele><time>2026-04-26T16:08:42.007Z</time></trkpt><trkpt lat="46.1284495" lon="11.3349016"><ele>1272.0</ele><time>2026-04-26T16:08:43.007Z</time></trkpt><trkpt lat="46.128355" lon="11.3347729"><ele>1279.5</ele><time>2026-04-26T16:08:44.008Z</time></trkpt><trkpt lat="46.1282637" lon="11.3346411"><ele>1287.0</ele><time>2026-04-26T16:08:45.007Z</time></trkpt><trkpt lat="46.1281891" lon="11.3344961"><ele>1294.5</ele><time>2026-04-26T16:08:46.008Z</time></trkpt><trkpt lat="46.1281371" lon="11.3343346"><ele>1302.0</ele><time>2026-04-26T16:08:47.007Z</time></trkpt><trkpt lat="46.1281048" lon="11.3341429"><ele>1294.0</ele><time>2026-04-26T16:08:48.007Z</time></trkpt><trkpt lat="46.1280731" lon="11.3339598"><ele>1286.0</ele><time>2026-04-26T16:08:49.007Z</time></trkpt><trkpt lat="46.1280315" lon="11.3337847"><ele>1278.0</ele><time>2026-04-26T16:08:50.007Z</time></trkpt><trkpt lat="46.1279696" lon="11.3336167"><ele>1270.0</ele><time>2026-04-26T16:08:51.007Z</time></trkpt><trkpt lat="46.1278968" lon="11.33346"><ele>1270.0</ele><time>2026-04-26T16:08:52.007Z</time></trkpt><trkpt lat="46.1278165" lon="11.3333067"><ele>1270.0</ele><time>2026-04-26T16:08:53.007Z</time></trkpt><trkpt lat="46.1277316" lon="11.3331676"><ele>1270.0</ele><time>2026-04-26T16:08:54.007Z</time></trkpt><trkpt lat="46.1276516" lon="11.3330302"><ele>1270.0</ele><time>2026-04-26T16:08:55.008Z</time></trkpt><trkpt lat="46.1275782" lon="11.3328956"><ele>1271.8333333333333</ele><time>2026-04-26T16:08:56.007Z</time></trkpt><trkpt lat="46.1275138" lon="11.3327742"><ele>1273.6666666666665</ele><time>2026-04-26T16:08:57.007Z</time></trkpt><trkpt lat="46.1274529" lon="11.3326703"><ele>1275.5</ele><time>2026-04-26T16:08:58.007Z</time></trkpt><trkpt lat="46.1273957" lon="11.3325884"><ele>1277.3333333333333</ele><time>2026-04-26T16:08:59.007Z</time></trkpt><trkpt lat="46.1273316" lon="11.3325167"><ele>1279.1666666666667</ele><time>2026-04-26T16:09:00.007Z</time></trkpt><trkpt lat="46.1272634" lon="11.3324598"><ele>1281.0</ele><time>2026-04-26T16:09:01.007Z</time></trkpt><trkpt lat="46.1271893" lon="11.3324222"><ele>1281.0</ele><time>2026-04-26T16:09:02.007Z</time></trkpt><trkpt lat="46.1271066" lon="11.3324048"><ele>1281.0</ele><time>2026-04-26T16:09:03.007Z</time></trkpt><trkpt lat="46.1270261" lon="11.3324038"><ele>1281.0</ele><time>2026-04-26T16:09:04.007Z</time></trkpt><trkpt lat="46.1269389" lon="11.3324315"><ele>1281.0</ele><time>2026-04-26T16:09:05.007Z</time></trkpt><trkpt lat="46.1268608" lon="11.3324685"><ele>1281.0</ele><time>2026-04-26T16:09:06.007Z</time></trkpt><trkpt lat="46.1267764" lon="11.3325063"><ele>1281.0</ele><time>2026-04-26T16:09:07.007Z</time></trkpt><trkpt lat="46.1266911" lon="11.332544"><ele>1281.0</ele><time>2026-04-26T16:09:08.007Z</time></trkpt><trkpt lat="46.1266106" lon="11.3325747"><ele>1281.0</ele><time>2026-04-26T16:09:09.007Z</time></trkpt><trkpt lat="46.1265212" lon="11.3326069"><ele>1281.0</ele><time>2026-04-26T16:09:10.007Z</time></trkpt><trkpt lat="46.1264336" lon="11.3326329"><ele>1281.0</ele><time>2026-04-26T16:09:11.007Z</time></trkpt><trkpt lat="46.1263466" lon="11.332645"><ele>1281.0</ele><time>2026-04-26T16:09:12.007Z</time></trkpt><trkpt lat="46.1262602" lon="11.3326458"><ele>1281.0</ele><time>2026-04-26T16:09:13.008Z</time></trkpt><trkpt lat="46.1261765" lon="11.3326274"><ele>1278.6</ele><time>2026-04-26T16:09:14.007Z</time></trkpt><trkpt lat="46.1260951" lon="11.3325913"><ele>1276.1999999999998</ele><time>2026-04-26T16:09:15.007Z</time></trkpt><trkpt lat="46.126008" lon="11.3325478"><ele>1273.8000000000002</ele><time>2026-04-26T16:09:16.007Z</time></trkpt><trkpt lat="46.125918" lon="11.3324918"><ele>1271.4</ele><time>2026-04-26T16:09:17.007Z</time></trkpt><trkpt lat="46.1258243" lon="11.3324285"><ele>1269.0</ele><time>2026-04-26T16:09:18.007Z</time></trkpt><trkpt lat="46.1257272" lon="11.3323623"><ele>1265.5</ele><time>2026-04-26T16:09:19.007Z</time></trkpt><trkpt lat="46.1256277" lon="11.3323013"><ele>1262.0</ele><time>2026-04-26T16:09:20.007Z</time></trkpt><trkpt lat="46.1255256" lon="11.3322297"><ele>1258.5</ele><time>2026-04-26T16:09:21.007Z</time></trkpt><trkpt lat="46.1254184" lon="11.3321494"><ele>1255.0</ele><time>2026-04-26T16:09:22.007Z</time></trkpt><trkpt lat="46.1253034" lon="11.3320604"><ele>1255.0</ele><time>2026-04-26T16:09:23.007Z</time></trkpt><trkpt lat="46.1251936" lon="11.3319671"><ele>1255.0</ele><time>2026-04-26T16:09:24.008Z</time></trkpt><trkpt lat="46.1250892" lon="11.3318553"><ele>1255.0</ele><time>2026-04-26T16:09:25.007Z</time></trkpt><trkpt lat="46.1249976" lon="11.3317244"><ele>1255.0</ele><time>2026-04-26T16:09:26.008Z</time></trkpt><trkpt lat="46.1249188" lon="11.3315692"><ele>1243.0</ele><time>2026-04-26T16:09:27.007Z</time></trkpt><trkpt lat="46.1248593" lon="11.3313817"><ele>1231.0</ele><time>2026-04-26T16:09:28.008Z</time></trkpt><trkpt lat="46.1248168" lon="11.3311813"><ele>1219.0</ele><time>2026-04-26T16:09:29.007Z</time></trkpt><trkpt lat="46.1247913" lon="11.3309722"><ele>1207.0</ele><time>2026-04-26T16:09:30.007Z</time></trkpt><trkpt lat="46.1247779" lon="11.3307579"><ele>1209.6666666666665</ele><time>2026-04-26T16:09:31.007Z</time></trkpt><trkpt lat="46.124771" lon="11.3305293"><ele>1212.3333333333333</ele><time>2026-04-26T16:09:32.007Z</time></trkpt><trkpt lat="46.124757" lon="11.3303016"><ele>1215.0</ele><time>2026-04-26T16:09:33.007Z</time></trkpt><trkpt lat="46.1247362" lon="11.3300722"><ele>1215.0</ele><time>2026-04-26T16:09:34.008Z</time></trkpt><trkpt lat="46.1247128" lon="11.329842"><ele>1215.0</ele><time>2026-04-26T16:09:35.007Z</time></trkpt><trkpt lat="46.124681" lon="11.3296073"><ele>1215.0</ele><time>2026-04-26T16:09:36.007Z</time></trkpt><trkpt lat="46.1246331" lon="11.3293723"><ele>1216.6666666666667</ele><time>2026-04-26T16:09:37.007Z</time></trkpt><trkpt lat="46.1245741" lon="11.3291479"><ele>1218.3333333333335</ele><time>2026-04-26T16:09:38.007Z</time></trkpt><trkpt lat="46.1244968" lon="11.3289218"><ele>1220.0</ele><time>2026-04-26T16:09:39.007Z</time></trkpt><trkpt lat="46.1244123" lon="11.3286998"><ele>1224.3333333333335</ele><time>2026-04-26T16:09:40.007Z</time></trkpt><trkpt lat="46.1243189" lon="11.328476"><ele>1228.6666666666667</ele><time>2026-04-26T16:09:41.008Z</time></trkpt><trkpt lat="46.1242315" lon="11.3282488"><ele>1233.0</ele><time>2026-04-26T16:09:42.007Z</time></trkpt><trkpt lat="46.1241446" lon="11.3280131"><ele>1221.6666666666667</ele><time>2026-04-26T16:09:43.007Z</time></trkpt><trkpt lat="46.1240588" lon="11.3277788"><ele>1210.3333333333335</ele><time>2026-04-26T16:09:44.007Z</time></trkpt><trkpt lat="46.123983" lon="11.3275307"><ele>1199.0</ele><time>2026-04-26T16:09:45.007Z</time></trkpt><trkpt lat="46.1239179" lon="11.3272754"><ele>1201.6666666666667</ele><time>2026-04-26T16:09:46.007Z</time></trkpt><trkpt lat="46.1238575" lon="11.3270263"><ele>1204.3333333333333</ele><time>2026-04-26T16:09:47.007Z</time></trkpt><trkpt lat="46.1238033" lon="11.326766"><ele>1207.0</ele><time>2026-04-26T16:09:48.007Z</time></trkpt><trkpt lat="46.1237461" lon="11.3265094"><ele>1211.3333333333333</ele><time>2026-04-26T16:09:49.007Z</time></trkpt><trkpt lat="46.1236912" lon="11.3262508"><ele>1215.6666666666667</ele><time>2026-04-26T16:09:50.007Z</time></trkpt><trkpt lat="46.12364" lon="11.3259934"><ele>1220.0</ele><time>2026-04-26T16:09:51.007Z</time></trkpt><trkpt lat="46.123585" lon="11.3257422"><ele>1220.6666666666667</ele><time>2026-04-26T16:09:52.007Z</time></trkpt><trkpt lat="46.1235343" lon="11.3254882"><ele>1221.3333333333333</ele><time>2026-04-26T16:09:53.007Z</time></trkpt><trkpt lat="46.1234869" lon="11.3252362"><ele>1222.0</ele><time>2026-04-26T16:09:54.007Z</time></trkpt><trkpt lat="46.1234482" lon="11.3249788"><ele>1223.0</ele><time>2026-04-26T16:09:55.007Z</time></trkpt><trkpt lat="46.1234233" lon="11.3247195"><ele>1224.0</ele><time>2026-04-26T16:09:56.007Z</time></trkpt><trkpt lat="46.1234004" lon="11.3244597"><ele>1225.0</ele><time>2026-04-26T16:09:57.007Z</time></trkpt><trkpt lat="46.1233771" lon="11.3241976"><ele>1225.0</ele><time>2026-04-26T16:09:58.007Z</time></trkpt><trkpt lat="46.1233533" lon="11.3239455"><ele>1225.0</ele><time>2026-04-26T16:09:59.007Z</time></trkpt><trkpt lat="46.1233247" lon="11.3236977"><ele>1225.0</ele><time>2026-04-26T16:10:00.007Z</time></trkpt><trkpt lat="46.123299" lon="11.3234566"><ele>1224.3333333333333</ele><time>2026-04-26T16:10:01.007Z</time></trkpt><trkpt lat="46.1232811" lon="11.323213"><ele>1223.6666666666667</ele><time>2026-04-26T16:10:02.007Z</time></trkpt><trkpt lat="46.1232793" lon="11.3229659"><ele>1223.0</ele><time>2026-04-26T16:10:03.007Z</time></trkpt><trkpt lat="46.1233005" lon="11.3227201"><ele>1218.6666666666667</ele><time>2026-04-26T16:10:04.007Z</time></trkpt><trkpt lat="46.1233274" lon="11.322474"><ele>1214.3333333333333</ele><time>2026-04-26T16:10:05.007Z</time></trkpt><trkpt lat="46.1233553" lon="11.3222199"><ele>1210.0</ele><time>2026-04-26T16:10:06.007Z</time></trkpt><trkpt lat="46.1233889" lon="11.3219659"><ele>1207.0</ele><time>2026-04-26T16:10:07.007Z</time></trkpt><trkpt lat="46.1234308" lon="11.3217162"><ele>1204.0</ele><time>2026-04-26T16:10:08.007Z</time></trkpt><trkpt lat="46.123469" lon="11.3214737"><ele>1201.0</ele><time>2026-04-26T16:10:09.007Z</time></trkpt><trkpt lat="46.1234983" lon="11.3212348"><ele>1200.6666666666665</ele><time>2026-04-26T16:10:10.007Z</time></trkpt><trkpt lat="46.1235307" lon="11.3210078"><ele>1200.3333333333333</ele><time>2026-04-26T16:10:11.007Z</time></trkpt><trkpt lat="46.1235557" lon="11.3207879"><ele>1200.0</ele><time>2026-04-26T16:10:12.007Z</time></trkpt><trkpt lat="46.1235623" lon="11.3205785"><ele>1200.25</ele><time>2026-04-26T16:10:13.007Z</time></trkpt><trkpt lat="46.1235482" lon="11.3203823"><ele>1200.5</ele><time>2026-04-26T16:10:14.007Z</time></trkpt><trkpt lat="46.1235122" lon="11.3201835"><ele>1200.75</ele><time>2026-04-26T16:10:15.007Z</time></trkpt><trkpt lat="46.1234463" lon="11.3199974"><ele>1201.0</ele><time>2026-04-26T16:10:16.007Z</time></trkpt><trkpt lat="46.1233714" lon="11.3198137"><ele>1202.0</ele><time>2026-04-26T16:10:17.007Z</time></trkpt><trkpt lat="46.1232799" lon="11.3196327"><ele>1203.0</ele><time>2026-04-26T16:10:18.007Z</time></trkpt><trkpt lat="46.1232047" lon="11.3194468"><ele>1204.0</ele><time>2026-04-26T16:10:19.007Z</time></trkpt><trkpt lat="46.1231477" lon="11.3192572"><ele>1205.0</ele><time>2026-04-26T16:10:20.007Z</time></trkpt><trkpt lat="46.123104" lon="11.3190562"><ele>1198.5</ele><time>2026-04-26T16:10:21.007Z</time></trkpt><trkpt lat="46.1230737" lon="11.318849"><ele>1192.0</ele><time>2026-04-26T16:10:22.007Z</time></trkpt><trkpt lat="46.1230398" lon="11.3186386"><ele>1185.5</ele><time>2026-04-26T16:10:23.007Z</time></trkpt><trkpt lat="46.1229948" lon="11.3184386"><ele>1179.0</ele><time>2026-04-26T16:10:24.007Z</time></trkpt><trkpt lat="46.1229149" lon="11.31825"><ele>1179.0</ele><time>2026-04-26T16:10:25.007Z</time></trkpt><trkpt lat="46.122815" lon="11.3180826"><ele>1179.0</ele><time>2026-04-26T16:10:26.007Z</time></trkpt><trkpt lat="46.1226909" lon="11.31794"><ele>1179.0</ele><time>2026-04-26T16:10:27.007Z</time></trkpt><trkpt lat="46.1225507" lon="11.3178071"><ele>1174.3333333333333</ele><time>2026-04-26T16:10:28.007Z</time></trkpt><trkpt lat="46.1224026" lon="11.3176746"><ele>1169.6666666666665</ele><time>2026-04-26T16:10:29.007Z</time></trkpt><trkpt lat="46.122253" lon="11.3175339"><ele>1165.0</ele><time>2026-04-26T16:10:30.007Z</time></trkpt><trkpt lat="46.1221075" lon="11.3173881"><ele>1165.0</ele><time>2026-04-26T16:10:31.007Z</time></trkpt><trkpt lat="46.1219608" lon="11.3172494"><ele>1165.0</ele><time>2026-04-26T16:10:32.007Z</time></trkpt><trkpt lat="46.1218241" lon="11.317109"><ele>1165.0</ele><time>2026-04-26T16:10:33.007Z</time></trkpt><trkpt lat="46.1216865" lon="11.3169762"><ele>1161.0</ele><time>2026-04-26T16:10:34.007Z</time></trkpt><trkpt lat="46.1215527" lon="11.3168415"><ele>1157.0</ele><time>2026-04-26T16:10:35.007Z</time></trkpt><trkpt lat="46.1214155" lon="11.3167077"><ele>1153.0</ele><time>2026-04-26T16:10:36.007Z</time></trkpt><trkpt lat="46.121283" lon="11.3165746"><ele>1153.0</ele><time>2026-04-26T16:10:37.007Z</time></trkpt><trkpt lat="46.121146" lon="11.3164438"><ele>1153.0</ele><time>2026-04-26T16:10:38.007Z</time></trkpt><trkpt lat="46.1210073" lon="11.3163176"><ele>1153.0</ele><time>2026-04-26T16:10:39.007Z</time></trkpt><trkpt lat="46.1208621" lon="11.3161829"><ele>1149.6666666666665</ele><time>2026-04-26T16:10:40.007Z</time></trkpt><trkpt lat="46.1207141" lon="11.316047"><ele>1146.3333333333333</ele><time>2026-04-26T16:10:41.007Z</time></trkpt><trkpt lat="46.1205666" lon="11.3159131"><ele>1143.0</ele><time>2026-04-26T16:10:42.007Z</time></trkpt><trkpt lat="46.1204253" lon="11.3157765"><ele>1143.0</ele><time>2026-04-26T16:10:43.007Z</time></trkpt><trkpt lat="46.1202843" lon="11.3156414"><ele>1143.0</ele><time>2026-04-26T16:10:44.007Z</time></trkpt><trkpt lat="46.1201448" lon="11.3155109"><ele>1143.0</ele><time>2026-04-26T16:10:45.007Z</time></trkpt><trkpt lat="46.1200044" lon="11.3153799"><ele>1137.3333333333333</ele><time>2026-04-26T16:10:46.007Z</time></trkpt><trkpt lat="46.1198739" lon="11.3152436"><ele>1131.6666666666665</ele><time>2026-04-26T16:10:47.007Z</time></trkpt><trkpt lat="46.1197655" lon="11.3150911"><ele>1126.0</ele><time>2026-04-26T16:10:48.007Z</time></trkpt><trkpt lat="46.1196805" lon="11.3149034"><ele>1127.3333333333333</ele><time>2026-04-26T16:10:49.007Z</time></trkpt><trkpt lat="46.1196244" lon="11.3146909"><ele>1128.6666666666667</ele><time>2026-04-26T16:10:50.007Z</time></trkpt><trkpt lat="46.1195918" lon="11.3144696"><ele>1130.0</ele><time>2026-04-26T16:10:51.007Z</time></trkpt><trkpt lat="46.1195617" lon="11.3142388"><ele>1130.0</ele><time>2026-04-26T16:10:52.007Z</time></trkpt><trkpt lat="46.1195303" lon="11.3140164"><ele>1130.0</ele><time>2026-04-26T16:10:53.007Z</time></trkpt><trkpt lat="46.1194934" lon="11.3137964"><ele>1130.0</ele><time>2026-04-26T16:10:54.007Z</time></trkpt><trkpt lat="46.1194568" lon="11.3135693"><ele>1128.6666666666667</ele><time>2026-04-26T16:10:55.007Z</time></trkpt><trkpt lat="46.1194198" lon="11.3133462"><ele>1127.3333333333333</ele><time>2026-04-26T16:10:56.007Z</time></trkpt><trkpt lat="46.1193878" lon="11.3131272"><ele>1126.0</ele><time>2026-04-26T16:10:57.007Z</time></trkpt><trkpt lat="46.1193531" lon="11.3129089"><ele>1125.25</ele><time>2026-04-26T16:10:58.007Z</time></trkpt><trkpt lat="46.1193188" lon="11.3127009"><ele>1124.5</ele><time>2026-04-26T16:10:59.007Z</time></trkpt><trkpt lat="46.1192842" lon="11.3125101"><ele>1123.75</ele><time>2026-04-26T16:11:00.007Z</time></trkpt><trkpt lat="46.1192483" lon="11.3123423"><ele>1123.0</ele><time>2026-04-26T16:11:01.007Z</time></trkpt><trkpt lat="46.1192132" lon="11.3121936"><ele>1121.3333333333333</ele><time>2026-04-26T16:11:02.007Z</time></trkpt><trkpt lat="46.1192007" lon="11.3120685"><ele>1119.6666666666665</ele><time>2026-04-26T16:11:03.007Z</time></trkpt><trkpt lat="46.1192273" lon="11.3119568"><ele>1118.0</ele><time>2026-04-26T16:11:04.007Z</time></trkpt><trkpt lat="46.1192831" lon="11.311865"><ele>1116.3333333333333</ele><time>2026-04-26T16:11:05.007Z</time></trkpt><trkpt lat="46.1193627" lon="11.3118046"><ele>1114.6666666666667</ele><time>2026-04-26T16:11:06.007Z</time></trkpt><trkpt lat="46.119463" lon="11.3117603"><ele>1113.0</ele><time>2026-04-26T16:11:07.007Z</time></trkpt><trkpt lat="46.1195776" lon="11.311752"><ele>1113.0</ele><time>2026-04-26T16:11:08.007Z</time></trkpt><trkpt lat="46.1196956" lon="11.311768"><ele>1113.0</ele><time>2026-04-26T16:11:09.007Z</time></trkpt><trkpt lat="46.1198151" lon="11.3117872"><ele>1113.0</ele><time>2026-04-26T16:11:10.007Z</time></trkpt><trkpt lat="46.1199358" lon="11.3118007"><ele>1113.0</ele><time>2026-04-26T16:11:11.007Z</time></trkpt><trkpt lat="46.1200503" lon="11.3117896"><ele>1114.6666666666667</ele><time>2026-04-26T16:11:12.008Z</time></trkpt><trkpt lat="46.120151" lon="11.3117568"><ele>1116.3333333333333</ele><time>2026-04-26T16:11:13.007Z</time></trkpt><trkpt lat="46.1202316" lon="11.3116905"><ele>1118.0</ele><time>2026-04-26T16:11:14.007Z</time></trkpt><trkpt lat="46.1202909" lon="11.3115955"><ele>1119.6666666666665</ele><time>2026-04-26T16:11:15.007Z</time></trkpt><trkpt lat="46.1203189" lon="11.3114882"><ele>1121.3333333333333</ele><time>2026-04-26T16:11:16.007Z</time></trkpt><trkpt lat="46.1203125" lon="11.3113716"><ele>1123.0</ele><time>2026-04-26T16:11:17.007Z</time></trkpt><trkpt lat="46.1202676" lon="11.3112587"><ele>1123.0</ele><time>2026-04-26T16:11:18.007Z</time></trkpt><trkpt lat="46.1201943" lon="11.3111577"><ele>1123.0</ele><time>2026-04-26T16:11:19.007Z</time></trkpt><trkpt lat="46.1200924" lon="11.3110726"><ele>1123.0</ele><time>2026-04-26T16:11:20.008Z</time></trkpt><trkpt lat="46.1199832" lon="11.3110133"><ele>1123.0</ele><time>2026-04-26T16:11:21.007Z</time></trkpt><trkpt lat="46.1198646" lon="11.3109308"><ele>1117.0</ele><time>2026-04-26T16:11:22.007Z</time></trkpt><trkpt lat="46.1197368" lon="11.3108429"><ele>1111.0</ele><time>2026-04-26T16:11:23.007Z</time></trkpt><trkpt lat="46.1196033" lon="11.3107522"><ele>1105.0</ele><time>2026-04-26T16:11:24.007Z</time></trkpt><trkpt lat="46.11946" lon="11.3106429"><ele>1105.6666666666665</ele><time>2026-04-26T16:11:25.007Z</time></trkpt><trkpt lat="46.1193192" lon="11.3105399"><ele>1106.3333333333333</ele><time>2026-04-26T16:11:26.007Z</time></trkpt><trkpt lat="46.1191826" lon="11.3104346"><ele>1107.0</ele><time>2026-04-26T16:11:27.007Z</time></trkpt><trkpt lat="46.1190462" lon="11.3103314"><ele>1107.0</ele><time>2026-04-26T16:11:28.007Z</time></trkpt><trkpt lat="46.1189178" lon="11.3102365"><ele>1107.0</ele><time>2026-04-26T16:11:29.007Z</time></trkpt><trkpt lat="46.1187867" lon="11.3101763"><ele>1107.0</ele><time>2026-04-26T16:11:30.007Z</time></trkpt><trkpt lat="46.1186573" lon="11.3101428"><ele>1107.0</ele><time>2026-04-26T16:11:31.007Z</time></trkpt><trkpt lat="46.1185195" lon="11.3101438"><ele>1107.0</ele><time>2026-04-26T16:11:32.007Z</time></trkpt><trkpt lat="46.1183783" lon="11.3101642"><ele>1107.0</ele><time>2026-04-26T16:11:33.007Z</time></trkpt><trkpt lat="46.1182401" lon="11.3101969"><ele>1107.0</ele><time>2026-04-26T16:11:34.007Z</time></trkpt><trkpt lat="46.1181049" lon="11.3102358"><ele>1107.0</ele><time>2026-04-26T16:11:35.007Z</time></trkpt><trkpt lat="46.1179755" lon="11.3102742"><ele>1103.0</ele><time>2026-04-26T16:11:36.007Z</time></trkpt><trkpt lat="46.1178536" lon="11.3102899"><ele>1099.0</ele><time>2026-04-26T16:11:37.007Z</time></trkpt><trkpt lat="46.1177482" lon="11.3102661"><ele>1095.0</ele><time>2026-04-26T16:11:38.007Z</time></trkpt><trkpt lat="46.1176488" lon="11.3102127"><ele>1091.0</ele><time>2026-04-26T16:11:39.007Z</time></trkpt><trkpt lat="46.1175548" lon="11.3101035"><ele>1091.0</ele><time>2026-04-26T16:11:40.008Z</time></trkpt><trkpt lat="46.1174645" lon="11.3099713"><ele>1091.0</ele><time>2026-04-26T16:11:41.007Z</time></trkpt><trkpt lat="46.1173789" lon="11.3098462"><ele>1091.0</ele><time>2026-04-26T16:11:42.007Z</time></trkpt><trkpt lat="46.1172863" lon="11.3097195"><ele>1091.0</ele><time>2026-04-26T16:11:43.007Z</time></trkpt><trkpt lat="46.1171918" lon="11.3095944"><ele>1087.2</ele><time>2026-04-26T16:11:44.007Z</time></trkpt><trkpt lat="46.1171131" lon="11.3094811"><ele>1083.3999999999999</ele><time>2026-04-26T16:11:45.007Z</time></trkpt><trkpt lat="46.1170512" lon="11.3093663"><ele>1079.6</ele><time>2026-04-26T16:11:46.007Z</time></trkpt><trkpt lat="46.117016" lon="11.3092481"><ele>1075.8</ele><time>2026-04-26T16:11:47.007Z</time></trkpt><trkpt lat="46.1170207" lon="11.309144"><ele>1072.0</ele><time>2026-04-26T16:11:48.007Z</time></trkpt><trkpt lat="46.1170654" lon="11.3090424"><ele>1072.0</ele><time>2026-04-26T16:11:49.007Z</time></trkpt><trkpt lat="46.117145" lon="11.3089529"><ele>1072.0</ele><time>2026-04-26T16:11:50.007Z</time></trkpt><trkpt lat="46.1172546" lon="11.3088712"><ele>1072.0</ele><time>2026-04-26T16:11:51.007Z</time></trkpt><trkpt lat="46.1173587" lon="11.3088173"><ele>1072.0</ele><time>2026-04-26T16:11:52.007Z</time></trkpt><trkpt lat="46.1174618" lon="11.3087437"><ele>1073.8</ele><time>2026-04-26T16:11:53.007Z</time></trkpt><trkpt lat="46.1175609" lon="11.3086571"><ele>1075.6</ele><time>2026-04-26T16:11:54.007Z</time></trkpt><trkpt lat="46.1176417" lon="11.3085467"><ele>1077.3999999999999</ele><time>2026-04-26T16:11:55.007Z</time></trkpt><trkpt lat="46.1176884" lon="11.3084059"><ele>1079.2</ele><time>2026-04-26T16:11:56.007Z</time></trkpt><trkpt lat="46.1176991" lon="11.3082494"><ele>1081.0</ele><time>2026-04-26T16:11:57.007Z</time></trkpt><trkpt lat="46.1176927" lon="11.3081059"><ele>1081.6</ele><time>2026-04-26T16:11:58.007Z</time></trkpt><trkpt lat="46.1176485" lon="11.3079625"><ele>1082.1999999999998</ele><time>2026-04-26T16:11:59.008Z</time></trkpt><trkpt lat="46.1175856" lon="11.3078444"><ele>1082.8000000000002</ele><time>2026-04-26T16:12:00.007Z</time></trkpt><trkpt lat="46.1175055" lon="11.3077533"><ele>1083.4</ele><time>2026-04-26T16:12:01.007Z</time></trkpt><trkpt lat="46.1174037" lon="11.3076973"><ele>1084.0</ele><time>2026-04-26T16:12:02.007Z</time></trkpt><trkpt lat="46.1172869" lon="11.307666"><ele>1085.0</ele><time>2026-04-26T16:12:03.007Z</time></trkpt><trkpt lat="46.1171552" lon="11.3076666"><ele>1086.0</ele><time>2026-04-26T16:12:04.007Z</time></trkpt><trkpt lat="46.11702" lon="11.3076761"><ele>1087.0</ele><time>2026-04-26T16:12:05.007Z</time></trkpt><trkpt lat="46.1168808" lon="11.3076893"><ele>1088.0</ele><time>2026-04-26T16:12:06.008Z</time></trkpt><trkpt lat="46.1167341" lon="11.3077102"><ele>1088.0</ele><time>2026-04-26T16:12:07.007Z</time></trkpt><trkpt lat="46.1165849" lon="11.3077339"><ele>1088.0</ele><time>2026-04-26T16:12:08.007Z</time></trkpt><trkpt lat="46.1164367" lon="11.3077712"><ele>1088.0</ele><time>2026-04-26T16:12:09.008Z</time></trkpt><trkpt lat="46.1162803" lon="11.3078146"><ele>1087.5</ele><time>2026-04-26T16:12:10.007Z</time></trkpt><trkpt lat="46.1161332" lon="11.3078707"><ele>1087.0</ele><time>2026-04-26T16:12:11.007Z</time></trkpt><trkpt lat="46.115991" lon="11.3079438"><ele>1086.5</ele><time>2026-04-26T16:12:12.007Z</time></trkpt><trkpt lat="46.1158663" lon="11.308051"><ele>1086.0</ele><time>2026-04-26T16:12:13.007Z</time></trkpt><trkpt lat="46.1157637" lon="11.3081855"><ele>1080.5</ele><time>2026-04-26T16:12:14.008Z</time></trkpt><trkpt lat="46.1156679" lon="11.308327"><ele>1075.0</ele><time>2026-04-26T16:12:15.007Z</time></trkpt><trkpt lat="46.115566" lon="11.308467"><ele>1069.5</ele><time>2026-04-26T16:12:16.008Z</time></trkpt><trkpt lat="46.115455" lon="11.3085621"><ele>1064.0</ele><time>2026-04-26T16:12:17.007Z</time></trkpt><trkpt lat="46.1153253" lon="11.3086196"><ele>1064.0</ele><time>2026-04-26T16:12:18.007Z</time></trkpt><trkpt lat="46.1151979" lon="11.3086363"><ele>1064.0</ele><time>2026-04-26T16:12:19.007Z</time></trkpt><trkpt lat="46.1150828" lon="11.3086172"><ele>1064.0</ele><time>2026-04-26T16:12:20.007Z</time></trkpt><trkpt lat="46.1149737" lon="11.3085625"><ele>1064.0</ele><time>2026-04-26T16:12:21.007Z</time></trkpt><trkpt lat="46.114896" lon="11.3084706"><ele>1057.5</ele><time>2026-04-26T16:12:22.007Z</time></trkpt><trkpt lat="46.1148297" lon="11.308337"><ele>1051.0</ele><time>2026-04-26T16:12:23.007Z</time></trkpt><trkpt lat="46.1147777" lon="11.3081731"><ele>1044.5</ele><time>2026-04-26T16:12:24.007Z</time></trkpt><trkpt lat="46.1147407" lon="11.3079801"><ele>1038.0</ele><time>2026-04-26T16:12:25.008Z</time></trkpt><trkpt lat="46.1147147" lon="11.3077734"><ele>1038.0</ele><time>2026-04-26T16:12:26.007Z</time></trkpt><trkpt lat="46.1146955" lon="11.307551"><ele>1038.0</ele><time>2026-04-26T16:12:27.007Z</time></trkpt><trkpt lat="46.1146691" lon="11.3073257"><ele>1038.0</ele><time>2026-04-26T16:12:28.007Z</time></trkpt><trkpt lat="46.1146433" lon="11.3071063"><ele>1039.0</ele><time>2026-04-26T16:12:29.007Z</time></trkpt><trkpt lat="46.1146122" lon="11.3068952"><ele>1040.0</ele><time>2026-04-26T16:12:30.007Z</time></trkpt><trkpt lat="46.1145636" lon="11.3066871"><ele>1041.0</ele><time>2026-04-26T16:12:31.007Z</time></trkpt><trkpt lat="46.1144878" lon="11.3065046"><ele>1042.0</ele><time>2026-04-26T16:12:32.007Z</time></trkpt><trkpt lat="46.1143831" lon="11.3063411"><ele>1038.3333333333333</ele><time>2026-04-26T16:12:33.007Z</time></trkpt><trkpt lat="46.1142599" lon="11.3061941"><ele>1034.6666666666667</ele><time>2026-04-26T16:12:34.007Z</time></trkpt><trkpt lat="46.1141103" lon="11.3060544"><ele>1031.0</ele><time>2026-04-26T16:12:35.007Z</time></trkpt><trkpt lat="46.113956" lon="11.305922"><ele>1031.0</ele><time>2026-04-26T16:12:36.007Z</time></trkpt><trkpt lat="46.1138081" lon="11.3057875"><ele>1031.0</ele><time>2026-04-26T16:12:37.007Z</time></trkpt><trkpt lat="46.1136652" lon="11.3056474"><ele>1031.0</ele><time>2026-04-26T16:12:38.007Z</time></trkpt><trkpt lat="46.1135314" lon="11.3055135"><ele>1028.75</ele><time>2026-04-26T16:12:39.007Z</time></trkpt><trkpt lat="46.1134107" lon="11.3053728"><ele>1026.5</ele><time>2026-04-26T16:12:40.007Z</time></trkpt><trkpt lat="46.1133111" lon="11.3052275"><ele>1024.25</ele><time>2026-04-26T16:12:41.007Z</time></trkpt><trkpt lat="46.1132345" lon="11.3050875"><ele>1022.0</ele><time>2026-04-26T16:12:42.007Z</time></trkpt><trkpt lat="46.1131719" lon="11.3049649"><ele>1022.0</ele><time>2026-04-26T16:12:43.007Z</time></trkpt><trkpt lat="46.1131177" lon="11.304876"><ele>1022.0</ele><time>2026-04-26T16:12:44.007Z</time></trkpt><trkpt lat="46.1130622" lon="11.3048311"><ele>1022.0</ele><time>2026-04-26T16:12:45.007Z</time></trkpt><trkpt lat="46.1129999" lon="11.3048454"><ele>1022.0</ele><time>2026-04-26T16:12:46.007Z</time></trkpt><trkpt lat="46.1129499" lon="11.3049119"><ele>1022.0</ele><time>2026-04-26T16:12:47.007Z</time></trkpt><trkpt lat="46.1129203" lon="11.3050052"><ele>1022.0</ele><time>2026-04-26T16:12:48.007Z</time></trkpt><trkpt lat="46.1129404" lon="11.3051276"><ele>1022.0</ele><time>2026-04-26T16:12:49.007Z</time></trkpt><trkpt lat="46.112993" lon="11.3052389"><ele>1022.0</ele><time>2026-04-26T16:12:50.007Z</time></trkpt><trkpt lat="46.1130671" lon="11.3053436"><ele>1022.0</ele><time>2026-04-26T16:12:51.007Z</time></trkpt><trkpt lat="46.1131539" lon="11.3054677"><ele>1022.0</ele><time>2026-04-26T16:12:52.007Z</time></trkpt><trkpt lat="46.1132408" lon="11.3056151"><ele>1022.0</ele><time>2026-04-26T16:12:53.007Z</time></trkpt><trkpt lat="46.113321" lon="11.3057945"><ele>1020.0</ele><time>2026-04-26T16:12:54.007Z</time></trkpt><trkpt lat="46.1133856" lon="11.3059951"><ele>1018.0</ele><time>2026-04-26T16:12:55.007Z</time></trkpt><trkpt lat="46.1134416" lon="11.3062008"><ele>1016.0</ele><time>2026-04-26T16:12:56.007Z</time></trkpt><trkpt lat="46.1134987" lon="11.3064198"><ele>1016.0</ele><time>2026-04-26T16:12:57.007Z</time></trkpt><trkpt lat="46.113558" lon="11.3066397"><ele>1016.0</ele><time>2026-04-26T16:12:58.007Z</time></trkpt><trkpt lat="46.1136216" lon="11.30686"><ele>1016.0</ele><time>2026-04-26T16:12:59.007Z</time></trkpt><trkpt lat="46.1136772" lon="11.3070961"><ele>1014.0</ele><time>2026-04-26T16:13:00.007Z</time></trkpt><trkpt lat="46.1137169" lon="11.3073429"><ele>1012.0</ele><time>2026-04-26T16:13:01.007Z</time></trkpt><trkpt lat="46.1137367" lon="11.3075922"><ele>1010.0</ele><time>2026-04-26T16:13:02.007Z</time></trkpt><trkpt lat="46.1137206" lon="11.3078437"><ele>1008.6666666666667</ele><time>2026-04-26T16:13:03.007Z</time></trkpt><trkpt lat="46.1136965" lon="11.3080861"><ele>1007.3333333333333</ele><time>2026-04-26T16:13:04.007Z</time></trkpt><trkpt lat="46.1136785" lon="11.3083304"><ele>1006.0</ele><time>2026-04-26T16:13:05.007Z</time></trkpt><trkpt lat="46.1136613" lon="11.3085622"><ele>1006.0</ele><time>2026-04-26T16:13:06.007Z</time></trkpt><trkpt lat="46.1136431" lon="11.3087882"><ele>1006.0</ele><time>2026-04-26T16:13:07.007Z</time></trkpt><trkpt lat="46.1136267" lon="11.3090007"><ele>1006.0</ele><time>2026-04-26T16:13:08.007Z</time></trkpt><trkpt lat="46.1136108" lon="11.3091959"><ele>1006.0</ele><time>2026-04-26T16:13:09.007Z</time></trkpt><trkpt lat="46.1135941" lon="11.3093717"><ele>1005.8</ele><time>2026-04-26T16:13:10.007Z</time></trkpt><trkpt lat="46.1135683" lon="11.309524"><ele>1005.5999999999999</ele><time>2026-04-26T16:13:11.007Z</time></trkpt><trkpt lat="46.1135198" lon="11.3096408"><ele>1005.4</ele><time>2026-04-26T16:13:12.007Z</time></trkpt><trkpt lat="46.113458" lon="11.3097252"><ele>1005.2</ele><time>2026-04-26T16:13:13.007Z</time></trkpt><trkpt lat="46.1133723" lon="11.3097801"><ele>1005.0</ele><time>2026-04-26T16:13:14.007Z</time></trkpt><trkpt lat="46.1132788" lon="11.3097844"><ele>1000.8</ele><time>2026-04-26T16:13:15.007Z</time></trkpt><trkpt lat="46.1131867" lon="11.3097397"><ele>996.6</ele><time>2026-04-26T16:13:16.007Z</time></trkpt><trkpt lat="46.113125" lon="11.3096579"><ele>992.4000000000001</ele><time>2026-04-26T16:13:17.007Z</time></trkpt><trkpt lat="46.1130749" lon="11.3095402"><ele>988.2</ele><time>2026-04-26T16:13:18.007Z</time></trkpt><trkpt lat="46.1130484" lon="11.3093916"><ele>984.0</ele><time>2026-04-26T16:13:19.007Z</time></trkpt><trkpt lat="46.1130253" lon="11.3092228"><ele>984.0</ele><time>2026-04-26T16:13:20.007Z</time></trkpt><trkpt lat="46.1130146" lon="11.309043"><ele>984.0</ele><time>2026-04-26T16:13:21.007Z</time></trkpt><trkpt lat="46.1130035" lon="11.3088586"><ele>984.0</ele><time>2026-04-26T16:13:22.007Z</time></trkpt><trkpt lat="46.1129771" lon="11.3086769"><ele>984.0</ele><time>2026-04-26T16:13:23.007Z</time></trkpt><trkpt lat="46.1129333" lon="11.3084963"><ele>983.5</ele><time>2026-04-26T16:13:24.007Z</time></trkpt><trkpt lat="46.1128629" lon="11.3083205"><ele>983.0</ele><time>2026-04-26T16:13:25.007Z</time></trkpt><trkpt lat="46.1127693" lon="11.3081562"><ele>982.5</ele><time>2026-04-26T16:13:26.007Z</time></trkpt><trkpt lat="46.1126667" lon="11.3079805"><ele>982.0</ele><time>2026-04-26T16:13:27.007Z</time></trkpt><trkpt lat="46.1125561" lon="11.3078014"><ele>983.3333333333333</ele><time>2026-04-26T16:13:28.008Z</time></trkpt><trkpt lat="46.1124447" lon="11.3076217"><ele>984.6666666666667</ele><time>2026-04-26T16:13:29.007Z</time></trkpt><trkpt lat="46.1123311" lon="11.307432"><ele>986.0</ele><time>2026-04-26T16:13:30.007Z</time></trkpt><trkpt lat="46.11222" lon="11.3072471"><ele>982.6666666666667</ele><time>2026-04-26T16:13:31.007Z</time></trkpt><trkpt lat="46.1121059" lon="11.3070584"><ele>979.3333333333333</ele><time>2026-04-26T16:13:32.007Z</time></trkpt><trkpt lat="46.1119939" lon="11.3068736"><ele>976.0</ele><time>2026-04-26T16:13:33.007Z</time></trkpt><trkpt lat="46.1118869" lon="11.3066851"><ele>976.0</ele><time>2026-04-26T16:13:34.007Z</time></trkpt><trkpt lat="46.1117767" lon="11.3064991"><ele>976.0</ele><time>2026-04-26T16:13:35.007Z</time></trkpt><trkpt lat="46.111665" lon="11.3063111"><ele>976.0</ele><time>2026-04-26T16:13:36.007Z</time></trkpt><trkpt lat="46.1115553" lon="11.3061269"><ele>970.6666666666666</ele><time>2026-04-26T16:13:37.007Z</time></trkpt><trkpt lat="46.1114454" lon="11.3059481"><ele>965.3333333333333</ele><time>2026-04-26T16:13:38.007Z</time></trkpt><trkpt lat="46.1113338" lon="11.3057761"><ele>960.0</ele><time>2026-04-26T16:13:39.007Z</time></trkpt><trkpt lat="46.1112133" lon="11.3056108"><ele>962.3333333333333</ele><time>2026-04-26T16:13:40.007Z</time></trkpt><trkpt lat="46.1110882" lon="11.3054493"><ele>964.6666666666666</ele><time>2026-04-26T16:13:41.007Z</time></trkpt><trkpt lat="46.1109677" lon="11.3052915"><ele>967.0</ele><time>2026-04-26T16:13:42.008Z</time></trkpt><trkpt lat="46.110845" lon="11.305136"><ele>962.6666666666666</ele><time>2026-04-26T16:13:43.007Z</time></trkpt><trkpt lat="46.1107202" lon="11.3049793"><ele>958.3333333333333</ele><time>2026-04-26T16:13:44.007Z</time></trkpt><trkpt lat="46.1105997" lon="11.3048249"><ele>954.0</ele><time>2026-04-26T16:13:45.007Z</time></trkpt><trkpt lat="46.1104777" lon="11.3046786"><ele>954.0</ele><time>2026-04-26T16:13:46.007Z</time></trkpt><trkpt lat="46.1103605" lon="11.3045311"><ele>954.0</ele><time>2026-04-26T16:13:47.007Z</time></trkpt><trkpt lat="46.1102471" lon="11.3043826"><ele>954.0</ele><time>2026-04-26T16:13:48.007Z</time></trkpt><trkpt lat="46.1101329" lon="11.3042356"><ele>954.0</ele><time>2026-04-26T16:13:49.007Z</time></trkpt><trkpt lat="46.1100219" lon="11.3040991"><ele>954.0</ele><time>2026-04-26T16:13:50.007Z</time></trkpt><trkpt lat="46.1099103" lon="11.3039769"><ele>954.0</ele><time>2026-04-26T16:13:51.007Z</time></trkpt><trkpt lat="46.1097925" lon="11.3038727"><ele>954.0</ele><time>2026-04-26T16:13:52.007Z</time></trkpt><trkpt lat="46.1096753" lon="11.3037814"><ele>952.4000000000001</ele><time>2026-04-26T16:13:53.007Z</time></trkpt><trkpt lat="46.1095607" lon="11.3037066"><ele>950.8000000000001</ele><time>2026-04-26T16:13:54.007Z</time></trkpt><trkpt lat="46.1094528" lon="11.30364"><ele>949.1999999999999</ele><time>2026-04-26T16:13:55.007Z</time></trkpt><trkpt lat="46.109357" lon="11.3035709"><ele>947.5999999999999</ele><time>2026-04-26T16:13:56.007Z</time></trkpt><trkpt lat="46.1092746" lon="11.3035179"><ele>946.0</ele><time>2026-04-26T16:13:57.007Z</time></trkpt><trkpt lat="46.1092032" lon="11.3034736"><ele>945.9999999999999</ele><time>2026-04-26T16:13:58.007Z</time></trkpt><trkpt lat="46.109143" lon="11.303437"><ele>946.0</ele><time>2026-04-26T16:13:59.007Z</time></trkpt><trkpt lat="46.1090766" lon="11.3033727"><ele>946.0</ele><time>2026-04-26T16:14:01.007Z</time></trkpt><trkpt lat="46.1090843" lon="11.3032689"><ele>946.0</ele><time>2026-04-26T16:14:04.007Z</time></trkpt><trkpt lat="46.1091341" lon="11.3032036"><ele>945.9999999999999</ele><time>2026-04-26T16:14:06.007Z</time></trkpt><trkpt lat="46.1092017" lon="11.3031464"><ele>946.0</ele><time>2026-04-26T16:14:08.007Z</time></trkpt><trkpt lat="46.1092751" lon="11.3030772"><ele>951.0</ele><time>2026-04-26T16:14:11.007Z</time></trkpt></trkseg></trk></gpx>